<?xml version='1.0' encoding='UTF-8'?><gpx version="1.1" creator="JPX - https://github.com/jenetics/jpx" xmlns="http://www.topografix.com/GPX/1/1"><trk><trkseg><trkpt lat="41.59185347974927" lon="9.283751346974453"><ele>6.0</ele><time>2026-05-03T08:49:09.999Z</time></trkpt><trkpt lat="41.591928369037674" lon="9.283752226993078"><ele>6.0</ele><time>2026-05-03T08:49:15Z</time></trkpt><trkpt lat="41.59201346877671" lon="9.28371079973306"><ele>6.0</ele><time>2026-05-03T08:49:20Z</time></trkpt><trkpt lat="41.592114351948396" lon="9.283737940699544"><ele>6.0</ele><time>2026-05-03T08:49:22Z</time></trkpt><trkpt lat="41.592193886228586" lon="9.28376592061362"><ele>6.0</ele><time>2026-05-03T08:49:23Z</time></trkpt><trkpt lat="41.592278859385594" lon="9.283793906271859"><ele>6.0</ele><time>2026-05-03T08:49:24Z</time></trkpt><trkpt lat="41.59237741889928" lon="9.283827631947613"><ele>7.199999999999999</ele><time>2026-05-03T08:49:25Z</time></trkpt><trkpt lat="41.59248649624089" lon="9.28385936557423"><ele>8.399999999999999</ele><time>2026-05-03T08:49:26Z</time></trkpt><trkpt lat="41.59260376045978" lon="9.283881126827525"><ele>9.6</ele><time>2026-05-03T08:49:27Z</time></trkpt><trkpt lat="41.59270209062366" lon="9.283901513721325"><ele>10.799999999999999</ele><time>2026-05-03T08:49:28Z</time></trkpt><trkpt lat="41.59279061606057" lon="9.28390583186798"><ele>12.0</ele><time>2026-05-03T08:49:29Z</time></trkpt><trkpt lat="41.59287120224291" lon="9.2839112640122"><ele>12.166666666666666</ele><time>2026-05-03T08:49:30Z</time></trkpt><trkpt lat="41.5929519868873" lon="9.283910437354125"><ele>12.333333333333332</ele><time>2026-05-03T08:49:31Z</time></trkpt><trkpt lat="41.59303583074488" lon="9.283915657200714"><ele>12.5</ele><time>2026-05-03T08:49:32Z</time></trkpt><trkpt lat="41.593114690661835" lon="9.283921180280538"><ele>12.666666666666666</ele><time>2026-05-03T08:49:33Z</time></trkpt><trkpt lat="41.593193007251436" lon="9.283929585982966"><ele>12.833333333333332</ele><time>2026-05-03T08:49:34Z</time></trkpt><trkpt lat="41.593274390818024" lon="9.283939976115452"><ele>13.0</ele><time>2026-05-03T08:49:35Z</time></trkpt><trkpt lat="41.59334053962334" lon="9.283943503575642"><ele>11.200000000000001</ele><time>2026-05-03T08:49:36Z</time></trkpt><trkpt lat="41.593452033852294" lon="9.283949285779583"><ele>9.4</ele><time>2026-05-03T08:49:38Z</time></trkpt><trkpt lat="41.59355431979879" lon="9.283956133496913"><ele>7.6000000000000005</ele><time>2026-05-03T08:49:40Z</time></trkpt><trkpt lat="41.593678602543505" lon="9.283973694210855"><ele>5.800000000000001</ele><time>2026-05-03T08:49:42Z</time></trkpt><trkpt lat="41.59375257594226" lon="9.283981226453395"><ele>4.0</ele><time>2026-05-03T08:49:43Z</time></trkpt><trkpt lat="41.59382812263366" lon="9.28398719381314"><ele>3.8000000000000003</ele><time>2026-05-03T08:49:44Z</time></trkpt><trkpt lat="41.59389692120156" lon="9.283989377452642"><ele>3.6000000000000005</ele><time>2026-05-03T08:49:45Z</time></trkpt><trkpt lat="41.5940091241135" lon="9.28399586478324"><ele>3.4</ele><time>2026-05-03T08:49:47Z</time></trkpt><trkpt lat="41.59410926663593" lon="9.284004984125895"><ele>3.2</ele><time>2026-05-03T08:49:49Z</time></trkpt><trkpt lat="41.5942174778722" lon="9.284017839117672"><ele>3.0</ele><time>2026-05-03T08:49:51Z</time></trkpt><trkpt lat="41.59433418236635" lon="9.284024127051742"><ele>3.0</ele><time>2026-05-03T08:49:53.001Z</time></trkpt><trkpt lat="41.594451334863365" lon="9.2840322658876"><ele>3.0</ele><time>2026-05-03T08:49:55.001Z</time></trkpt><trkpt lat="41.59457126607062" lon="9.28405022301614"><ele>3.0</ele><time>2026-05-03T08:49:57.001Z</time></trkpt><trkpt lat="41.59464068302203" lon="9.284058256484963"><ele>3.0</ele><time>2026-05-03T08:49:58.001Z</time></trkpt><trkpt lat="41.594720945093975" lon="9.28406644597298"><ele>3.0</ele><time>2026-05-03T08:49:59.001Z</time></trkpt><trkpt lat="41.594810684246724" lon="9.284075424209721"><ele>3.2</ele><time>2026-05-03T08:50:00.001Z</time></trkpt><trkpt lat="41.59490713915231" lon="9.284086102808788"><ele>3.4</ele><time>2026-05-03T08:50:01.001Z</time></trkpt><trkpt lat="41.59501026105117" lon="9.284095600445248"><ele>3.6000000000000005</ele><time>2026-05-03T08:50:02.001Z</time></trkpt><trkpt lat="41.59511156706449" lon="9.2841022357271"><ele>3.8000000000000003</ele><time>2026-05-03T08:50:03.001Z</time></trkpt><trkpt lat="41.59520289151801" lon="9.284094551796313"><ele>4.0</ele><time>2026-05-03T08:50:04.001Z</time></trkpt><trkpt lat="41.595280176193484" lon="9.284071050835347"><ele>3.4999999999999996</ele><time>2026-05-03T08:50:05.001Z</time></trkpt><trkpt lat="41.59535018775248" lon="9.284034272176564"><ele>3.0</ele><time>2026-05-03T08:50:06.001Z</time></trkpt><trkpt lat="41.595422550141755" lon="9.283989226588572"><ele>2.5</ele><time>2026-05-03T08:50:07.001Z</time></trkpt><trkpt lat="41.59549716252654" lon="9.283941251395975"><ele>2.0</ele><time>2026-05-03T08:50:08.001Z</time></trkpt><trkpt lat="41.59556989883722" lon="9.28388319827482"><ele>1.5</ele><time>2026-05-03T08:50:09.001Z</time></trkpt><trkpt lat="41.59563902857499" lon="9.283816503338251"><ele>1.0</ele><time>2026-05-03T08:50:10.001Z</time></trkpt><trkpt lat="41.59570293365625" lon="9.28373363901709"><ele>1.0</ele><time>2026-05-03T08:50:11.001Z</time></trkpt><trkpt lat="41.5957556944838" lon="9.28363152337098"><ele>1.0</ele><time>2026-05-03T08:50:12.001Z</time></trkpt><trkpt lat="41.595801534492225" lon="9.283523195143994"><ele>1.0</ele><time>2026-05-03T08:50:13.001Z</time></trkpt><trkpt lat="41.5958506163121" lon="9.283411242203513"><ele>1.0</ele><time>2026-05-03T08:50:14.001Z</time></trkpt><trkpt lat="41.59589714472441" lon="9.283301421807838"><ele>1.0</ele><time>2026-05-03T08:50:15.001Z</time></trkpt><trkpt lat="41.59594547211842" lon="9.28319837122787"><ele>1.0</ele><time>2026-05-03T08:50:16.001Z</time></trkpt><trkpt lat="41.59599010857022" lon="9.283097924492345"><ele>1.0</ele><time>2026-05-03T08:50:17.001Z</time></trkpt><trkpt lat="41.59604318381478" lon="9.28298622286185"><ele>1.0</ele><time>2026-05-03T08:50:18.001Z</time></trkpt><trkpt lat="41.596097343707704" lon="9.282865723006001"><ele>1.0</ele><time>2026-05-03T08:50:19.001Z</time></trkpt><trkpt lat="41.596147526163485" lon="9.282747187738773"><ele>1.0</ele><time>2026-05-03T08:50:20.001Z</time></trkpt><trkpt lat="41.596198626577824" lon="9.282628665541758"><ele>0.8</ele><time>2026-05-03T08:50:21.001Z</time></trkpt><trkpt lat="41.5962549923909" lon="9.282516372845857"><ele>0.6000000000000001</ele><time>2026-05-03T08:50:22.001Z</time></trkpt><trkpt lat="41.59630618825933" lon="9.282404772385336"><ele>0.4</ele><time>2026-05-03T08:50:23.001Z</time></trkpt><trkpt lat="41.59635486807695" lon="9.282290625940528"><ele>0.2</ele><time>2026-05-03T08:50:24.001Z</time></trkpt><trkpt lat="41.59640109316847" lon="9.282194622434952"><ele>0.0</ele><time>2026-05-03T08:50:25.001Z</time></trkpt><trkpt lat="41.5964454942962" lon="9.282109266498113"><ele>0.0</ele><time>2026-05-03T08:50:26.001Z</time></trkpt><trkpt lat="41.59648096084348" lon="9.282029863824622"><ele>0.0</ele><time>2026-05-03T08:50:27.001Z</time></trkpt><trkpt lat="41.59651758483764" lon="9.281952940769902"><ele>0.0</ele><time>2026-05-03T08:50:28.001Z</time></trkpt><trkpt lat="41.59655628521726" lon="9.281865013705614"><ele>0.0</ele><time>2026-05-03T08:50:29.001Z</time></trkpt><trkpt lat="41.59660096291686" lon="9.281769293887534"><ele>0.0</ele><time>2026-05-03T08:50:30.001Z</time></trkpt><trkpt lat="41.596645670559255" lon="9.281662065231084"><ele>0.0</ele><time>2026-05-03T08:50:31.001Z</time></trkpt><trkpt lat="41.59668517788578" lon="9.281540548075096"><ele>0.4</ele><time>2026-05-03T08:50:32.001Z</time></trkpt><trkpt lat="41.59671995269293" lon="9.281408674090729"><ele>0.8</ele><time>2026-05-03T08:50:32.997Z</time></trkpt><trkpt lat="41.596743130016726" lon="9.281277267320858"><ele>1.2000000000000002</ele><time>2026-05-03T08:50:33.997Z</time></trkpt><trkpt lat="41.59676166340924" lon="9.281143081446292"><ele>1.6</ele><time>2026-05-03T08:50:34.997Z</time></trkpt><trkpt lat="41.59677159603638" lon="9.281010944522878"><ele>2.0</ele><time>2026-05-03T08:50:35.997Z</time></trkpt><trkpt lat="41.59677178000243" lon="9.280878894909094"><ele>2.0</ele><time>2026-05-03T08:50:36.997Z</time></trkpt><trkpt lat="41.59676162399023" lon="9.280748412798705"><ele>2.0</ele><time>2026-05-03T08:50:37.997Z</time></trkpt><trkpt lat="41.59674109957346" lon="9.280622738690555"><ele>2.0</ele><time>2026-05-03T08:50:38.997Z</time></trkpt><trkpt lat="41.59671897098484" lon="9.280503385193452"><ele>2.0</ele><time>2026-05-03T08:50:39.997Z</time></trkpt><trkpt lat="41.59669096070143" lon="9.280388222482411"><ele>2.0</ele><time>2026-05-03T08:50:40.997Z</time></trkpt><trkpt lat="41.596656964537345" lon="9.280273760753852"><ele>1.8333333333333333</ele><time>2026-05-03T08:50:41.997Z</time></trkpt><trkpt lat="41.59661565814389" lon="9.280167672802952"><ele>1.6666666666666665</ele><time>2026-05-03T08:50:42.997Z</time></trkpt><trkpt lat="41.59657625716022" lon="9.280060524492344"><ele>1.5</ele><time>2026-05-03T08:50:43.997Z</time></trkpt><trkpt lat="41.596538320729465" lon="9.279954941984359"><ele>1.3333333333333333</ele><time>2026-05-03T08:50:44.997Z</time></trkpt><trkpt lat="41.59649748873505" lon="9.27985246005358"><ele>1.1666666666666665</ele><time>2026-05-03T08:50:45.997Z</time></trkpt><trkpt lat="41.596460269882755" lon="9.27975440640543"><ele>1.0</ele><time>2026-05-03T08:50:46.997Z</time></trkpt><trkpt lat="41.596428989267146" lon="9.279668894306333"><ele>0.4</ele><time>2026-05-03T08:50:47.998Z</time></trkpt><trkpt lat="41.596371512749464" lon="9.279532692695193"><ele>-0.19999999999999996</ele><time>2026-05-03T08:50:49.998Z</time></trkpt><trkpt lat="41.59634813187662" lon="9.279412194262779"><ele>-0.8000000000000002</ele><time>2026-05-03T08:50:51.998Z</time></trkpt><trkpt lat="41.59634997523017" lon="9.279288401849897"><ele>-1.4000000000000001</ele><time>2026-05-03T08:50:53.998Z</time></trkpt><trkpt lat="41.59631850892481" lon="9.2791215737178"><ele>-2.0</ele><time>2026-05-03T08:50:55.998Z</time></trkpt><trkpt lat="41.596292893635415" lon="9.27901761627735"><ele>-2.0</ele><time>2026-05-03T08:50:56.998Z</time></trkpt><trkpt lat="41.59617894131798" lon="9.278981501051058"><ele>-2.0</ele><time>2026-05-03T08:50:57.998Z</time></trkpt><trkpt lat="41.596121579110914" lon="9.278861923514262"><ele>-2.0</ele><time>2026-05-03T08:50:58.999Z</time></trkpt><trkpt lat="41.596068064116594" lon="9.278758588038995"><ele>-2.0</ele><time>2026-05-03T08:50:59.999Z</time></trkpt><trkpt lat="41.59602686144212" lon="9.278645384188922"><ele>-2.0</ele><time>2026-05-03T08:51:00.999Z</time></trkpt><trkpt lat="41.59599756296355" lon="9.278527058105484"><ele>-0.8</ele><time>2026-05-03T08:51:01.999Z</time></trkpt><trkpt lat="41.595977477514715" lon="9.27839250967068"><ele>0.3999999999999999</ele><time>2026-05-03T08:51:02.999Z</time></trkpt><trkpt lat="41.59594604703493" lon="9.27825697945544"><ele>1.6000000000000003</ele><time>2026-05-03T08:51:03.999Z</time></trkpt><trkpt lat="41.59592684877709" lon="9.27811081083458"><ele>2.8000000000000003</ele><time>2026-05-03T08:51:04.999Z</time></trkpt><trkpt lat="41.5959163957698" lon="9.277965833284133"><ele>4.0</ele><time>2026-05-03T08:51:05.999Z</time></trkpt><trkpt lat="41.595913068442655" lon="9.277829591744688"><ele>4.2</ele><time>2026-05-03T08:51:06.999Z</time></trkpt><trkpt lat="41.59592818987477" lon="9.277705935877515"><ele>4.4</ele><time>2026-05-03T08:51:07.999Z</time></trkpt><trkpt lat="41.59596732219687" lon="9.277591888163496"><ele>4.6</ele><time>2026-05-03T08:51:08.999Z</time></trkpt><trkpt lat="41.59601571857111" lon="9.27747559998208"><ele>4.8</ele><time>2026-05-03T08:51:09.999Z</time></trkpt><trkpt lat="41.596075115147656" lon="9.27735950416879"><ele>5.0</ele><time>2026-05-03T08:51:10.999Z</time></trkpt><trkpt lat="41.59614722524238" lon="9.277243623442404"><ele>4.6</ele><time>2026-05-03T08:51:11.999Z</time></trkpt><trkpt lat="41.596221655404946" lon="9.277137051393238"><ele>4.2</ele><time>2026-05-03T08:51:12.999Z</time></trkpt><trkpt lat="41.596294084451884" lon="9.277039694583713"><ele>3.8</ele><time>2026-05-03T08:51:13.999Z</time></trkpt><trkpt lat="41.59636618962456" lon="9.276944342655897"><ele>3.4</ele><time>2026-05-03T08:51:14.999Z</time></trkpt><trkpt lat="41.596437385323625" lon="9.276848394814804"><ele>3.0</ele><time>2026-05-03T08:51:15.999Z</time></trkpt><trkpt lat="41.5965047127481" lon="9.276752499775256"><ele>3.0</ele><time>2026-05-03T08:51:17Z</time></trkpt><trkpt lat="41.59657057742768" lon="9.276661715504854"><ele>3.0</ele><time>2026-05-03T08:51:18Z</time></trkpt><trkpt lat="41.596634073868415" lon="9.276572061096793"><ele>3.0</ele><time>2026-05-03T08:51:19Z</time></trkpt><trkpt lat="41.59669515109222" lon="9.276488703290957"><ele>3.0</ele><time>2026-05-03T08:51:20Z</time></trkpt><trkpt lat="41.5967510099275" lon="9.276412002658796"><ele>3.0</ele><time>2026-05-03T08:51:21Z</time></trkpt><trkpt lat="41.596807843693746" lon="9.27633813599843"><ele>3.0</ele><time>2026-05-03T08:51:22Z</time></trkpt><trkpt lat="41.59685860543499" lon="9.276259025637478"><ele>3.2</ele><time>2026-05-03T08:51:23Z</time></trkpt><trkpt lat="41.596920681480164" lon="9.276172654631296"><ele>3.4</ele><time>2026-05-03T08:51:24Z</time></trkpt><trkpt lat="41.59698201172202" lon="9.276083519754424"><ele>3.6000000000000005</ele><time>2026-05-03T08:51:25Z</time></trkpt><trkpt lat="41.5970442967991" lon="9.27599271652593"><ele>3.8000000000000003</ele><time>2026-05-03T08:51:26Z</time></trkpt><trkpt lat="41.59710365354862" lon="9.275903809804722"><ele>4.0</ele><time>2026-05-03T08:51:27Z</time></trkpt><trkpt lat="41.597166069843944" lon="9.275820305032635"><ele>3.9999999999999996</ele><time>2026-05-03T08:51:28Z</time></trkpt><trkpt lat="41.59722685674833" lon="9.27574058724359"><ele>4.0</ele><time>2026-05-03T08:51:29Z</time></trkpt><trkpt lat="41.59728866768155" lon="9.275667304288127"><ele>4.0</ele><time>2026-05-03T08:51:30Z</time></trkpt><trkpt lat="41.59735520945592" lon="9.275609145210021"><ele>4.0</ele><time>2026-05-03T08:51:31Z</time></trkpt><trkpt lat="41.59741281712583" lon="9.275563906301587"><ele>3.9999999999999996</ele><time>2026-05-03T08:51:32Z</time></trkpt><trkpt lat="41.597519651103426" lon="9.275526192016933"><ele>4.0</ele><time>2026-05-03T08:51:34Z</time></trkpt><trkpt lat="41.59764223486396" lon="9.27553725526944"><ele>4.333333333333333</ele><time>2026-05-03T08:51:36Z</time></trkpt><trkpt lat="41.597709197209234" lon="9.275526837949839"><ele>4.666666666666666</ele><time>2026-05-03T08:51:37Z</time></trkpt><trkpt lat="41.59777239504405" lon="9.275459355584827"><ele>5.0</ele><time>2026-05-03T08:51:38Z</time></trkpt><trkpt lat="41.59780901522716" lon="9.27535718313184"><ele>5.333333333333333</ele><time>2026-05-03T08:51:39Z</time></trkpt><trkpt lat="41.5978006312269" lon="9.275248423818649"><ele>5.666666666666667</ele><time>2026-05-03T08:51:40Z</time></trkpt><trkpt lat="41.597768894329256" lon="9.27514126409437"><ele>6.0</ele><time>2026-05-03T08:51:41Z</time></trkpt><trkpt lat="41.59772318640451" lon="9.275041277487972"><ele>6.0</ele><time>2026-05-03T08:51:42Z</time></trkpt><trkpt lat="41.597787882093606" lon="9.274907683622462"><ele>6.0</ele><time>2026-05-03T08:51:43Z</time></trkpt><trkpt lat="41.597875959715346" lon="9.274824095117781"><ele>6.0</ele><time>2026-05-03T08:51:44Z</time></trkpt><trkpt lat="41.5979483033449" lon="9.274705338998588"><ele>6.0</ele><time>2026-05-03T08:51:45.001Z</time></trkpt><trkpt lat="41.598027873937376" lon="9.27460099402178"><ele>6.199999999999999</ele><time>2026-05-03T08:51:46.001Z</time></trkpt><trkpt lat="41.598108152259464" lon="9.274490889554908"><ele>6.3999999999999995</ele><time>2026-05-03T08:51:47.001Z</time></trkpt><trkpt lat="41.598187694257994" lon="9.274380644432876"><ele>6.6</ele><time>2026-05-03T08:51:48.001Z</time></trkpt><trkpt lat="41.59826044816842" lon="9.27428008418525"><ele>6.8</ele><time>2026-05-03T08:51:49.001Z</time></trkpt><trkpt lat="41.59833361660318" lon="9.274180464273963"><ele>7.0</ele><time>2026-05-03T08:51:50.001Z</time></trkpt><trkpt lat="41.59840744359461" lon="9.274072956804776"><ele>7.0</ele><time>2026-05-03T08:51:51.001Z</time></trkpt><trkpt lat="41.598483287639056" lon="9.273958839317853"><ele>7.0</ele><time>2026-05-03T08:51:52.001Z</time></trkpt><trkpt lat="41.59856062628924" lon="9.27383940270193"><ele>7.0</ele><time>2026-05-03T08:51:53.001Z</time></trkpt><trkpt lat="41.59864281903982" lon="9.273719389255241"><ele>7.0</ele><time>2026-05-03T08:51:54.001Z</time></trkpt><trkpt lat="41.598728282758735" lon="9.273601353541057"><ele>7.5</ele><time>2026-05-03T08:51:55.001Z</time></trkpt><trkpt lat="41.59880872796725" lon="9.27348464529595"><ele>8.0</ele><time>2026-05-03T08:51:56.001Z</time></trkpt><trkpt lat="41.59888606270932" lon="9.273370577673028"><ele>8.5</ele><time>2026-05-03T08:51:57.001Z</time></trkpt><trkpt lat="41.59896313355231" lon="9.2732602426422"><ele>9.0</ele><time>2026-05-03T08:51:58.001Z</time></trkpt><trkpt lat="41.599047622020514" lon="9.273144490975696"><ele>9.5</ele><time>2026-05-03T08:51:59.001Z</time></trkpt><trkpt lat="41.59913673902423" lon="9.2730138127689"><ele>10.0</ele><time>2026-05-03T08:52:00.001Z</time></trkpt><trkpt lat="41.59923013316528" lon="9.272874340649992"><ele>10.5</ele><time>2026-05-03T08:52:01.001Z</time></trkpt><trkpt lat="41.59933000397748" lon="9.272735259126083"><ele>11.0</ele><time>2026-05-03T08:52:02.001Z</time></trkpt><trkpt lat="41.599428430414115" lon="9.272599032101587"><ele>11.0</ele><time>2026-05-03T08:52:03.001Z</time></trkpt><trkpt lat="41.59952175238765" lon="9.27246651864663"><ele>11.0</ele><time>2026-05-03T08:52:04.001Z</time></trkpt><trkpt lat="41.5996037134429" lon="9.272345667785116"><ele>11.0</ele><time>2026-05-03T08:52:05.001Z</time></trkpt><trkpt lat="41.59967808426751" lon="9.272235314177866"><ele>11.0</ele><time>2026-05-03T08:52:06.001Z</time></trkpt><trkpt lat="41.5997467279609" lon="9.272137594166535"><ele>11.5</ele><time>2026-05-03T08:52:07.001Z</time></trkpt><trkpt lat="41.5998217228281" lon="9.272035999154706"><ele>12.0</ele><time>2026-05-03T08:52:08.001Z</time></trkpt><trkpt lat="41.59989823267474" lon="9.271926162276802"><ele>12.5</ele><time>2026-05-03T08:52:09.001Z</time></trkpt><trkpt lat="41.5999778364205" lon="9.271813444056137"><ele>13.0</ele><time>2026-05-03T08:52:10.001Z</time></trkpt><trkpt lat="41.600058137880886" lon="9.271696539045442"><ele>13.0</ele><time>2026-05-03T08:52:11.001Z</time></trkpt><trkpt lat="41.60014112727849" lon="9.271581455502416"><ele>13.0</ele><time>2026-05-03T08:52:12.001Z</time></trkpt><trkpt lat="41.60022924832556" lon="9.271456124182945"><ele>13.0</ele><time>2026-05-03T08:52:13.001Z</time></trkpt><trkpt lat="41.60031624285686" lon="9.271326917474386"><ele>13.0</ele><time>2026-05-03T08:52:14.001Z</time></trkpt><trkpt lat="41.60041363272947" lon="9.271187522857934"><ele>12.75</ele><time>2026-05-03T08:52:15.001Z</time></trkpt><trkpt lat="41.600512715269254" lon="9.271048548702097"><ele>12.5</ele><time>2026-05-03T08:52:16.001Z</time></trkpt><trkpt lat="41.6006150730209" lon="9.270908471948301"><ele>12.25</ele><time>2026-05-03T08:52:17.002Z</time></trkpt><trkpt lat="41.60071025727407" lon="9.270762873992348"><ele>12.0</ele><time>2026-05-03T08:52:18.002Z</time></trkpt><trkpt lat="41.6008062322844" lon="9.270625151400635"><ele>12.25</ele><time>2026-05-03T08:52:19.002Z</time></trkpt><trkpt lat="41.60089729671813" lon="9.270496344366684"><ele>12.5</ele><time>2026-05-03T08:52:20.002Z</time></trkpt><trkpt lat="41.6009926464455" lon="9.2703660162771"><ele>12.75</ele><time>2026-05-03T08:52:21.002Z</time></trkpt><trkpt lat="41.60107925414091" lon="9.270244931701418"><ele>13.0</ele><time>2026-05-03T08:52:22.002Z</time></trkpt><trkpt lat="41.60115969903087" lon="9.270129591404203"><ele>12.5</ele><time>2026-05-03T08:52:23.002Z</time></trkpt><trkpt lat="41.60123220387399" lon="9.270018064559173"><ele>12.0</ele><time>2026-05-03T08:52:24.002Z</time></trkpt><trkpt lat="41.60130764135918" lon="9.269907779615268"><ele>11.5</ele><time>2026-05-03T08:52:25.002Z</time></trkpt><trkpt lat="41.60139192192266" lon="9.269792556977608"><ele>11.0</ele><time>2026-05-03T08:52:26.002Z</time></trkpt><trkpt lat="41.60147709313882" lon="9.269672686607185"><ele>10.600000000000001</ele><time>2026-05-03T08:52:27.002Z</time></trkpt><trkpt lat="41.60155458410137" lon="9.269562022468241"><ele>10.200000000000001</ele><time>2026-05-03T08:52:28.002Z</time></trkpt><trkpt lat="41.6016242784367" lon="9.269464098228383"><ele>9.8</ele><time>2026-05-03T08:52:29.002Z</time></trkpt><trkpt lat="41.6016946206433" lon="9.269381384563767"><ele>9.4</ele><time>2026-05-03T08:52:30.002Z</time></trkpt><trkpt lat="41.60175612254424" lon="9.26930638845023"><ele>9.0</ele><time>2026-05-03T08:52:31.002Z</time></trkpt><trkpt lat="41.601837495424746" lon="9.269248774373555"><ele>9.0</ele><time>2026-05-03T08:52:33.002Z</time></trkpt><trkpt lat="41.60190520361284" lon="9.269212442104282"><ele>9.0</ele><time>2026-05-03T08:52:40.996Z</time></trkpt><trkpt lat="41.60196561060977" lon="9.269176866833144"><ele>9.0</ele><time>2026-05-03T08:52:41.996Z</time></trkpt><trkpt lat="41.602042493439924" lon="9.26913858689664"><ele>9.0</ele><time>2026-05-03T08:52:42.996Z</time></trkpt><trkpt lat="41.60210383621424" lon="9.269051675641595"><ele>9.0</ele><time>2026-05-03T08:52:43.996Z</time></trkpt><trkpt lat="41.60214386926198" lon="9.268910198884532"><ele>9.0</ele><time>2026-05-03T08:52:44.997Z</time></trkpt><trkpt lat="41.60218442992878" lon="9.268758597405578"><ele>10.0</ele><time>2026-05-03T08:52:45.997Z</time></trkpt><trkpt lat="41.60225109067556" lon="9.2686118572869"><ele>11.0</ele><time>2026-05-03T08:52:46.997Z</time></trkpt><trkpt lat="41.60233635475713" lon="9.268474498674289"><ele>12.0</ele><time>2026-05-03T08:52:47.997Z</time></trkpt><trkpt lat="41.602428240010866" lon="9.268337160803531"><ele>13.0</ele><time>2026-05-03T08:52:48.997Z</time></trkpt><trkpt lat="41.6025244605488" lon="9.268196527320374"><ele>13.25</ele><time>2026-05-03T08:52:49.997Z</time></trkpt><trkpt lat="41.60262094550276" lon="9.268055681839408"><ele>13.5</ele><time>2026-05-03T08:52:50.998Z</time></trkpt><trkpt lat="41.60271235370962" lon="9.267920033250764"><ele>13.75</ele><time>2026-05-03T08:52:51.998Z</time></trkpt><trkpt lat="41.60279514999779" lon="9.267797981069435"><ele>14.0</ele><time>2026-05-03T08:52:52.998Z</time></trkpt><trkpt lat="41.602869756054474" lon="9.267695694549587"><ele>14.333333333333334</ele><time>2026-05-03T08:52:53.998Z</time></trkpt><trkpt lat="41.6029321860865" lon="9.267608481567672"><ele>14.666666666666668</ele><time>2026-05-03T08:52:54.998Z</time></trkpt><trkpt lat="41.602978424535564" lon="9.26754145635408"><ele>15.0</ele><time>2026-05-03T08:52:55.998Z</time></trkpt><trkpt lat="41.60302455190262" lon="9.267478320239743"><ele>15.333333333333332</ele><time>2026-05-03T08:52:56.998Z</time></trkpt><trkpt lat="41.603077603257674" lon="9.267400695052928"><ele>15.666666666666666</ele><time>2026-05-03T08:52:57.999Z</time></trkpt><trkpt lat="41.60314270790786" lon="9.267308061283318"><ele>16.0</ele><time>2026-05-03T08:52:58.999Z</time></trkpt><trkpt lat="41.60321440544021" lon="9.267195644596015"><ele>16.0</ele><time>2026-05-03T08:52:59.999Z</time></trkpt><trkpt lat="41.603297191002824" lon="9.267078118347872"><ele>16.0</ele><time>2026-05-03T08:53:00.999Z</time></trkpt><trkpt lat="41.603383861160765" lon="9.266957340617173"><ele>16.0</ele><time>2026-05-03T08:53:01.999Z</time></trkpt><trkpt lat="41.603475692618105" lon="9.266824243398363"><ele>16.0</ele><time>2026-05-03T08:53:02.999Z</time></trkpt><trkpt lat="41.60357039100259" lon="9.266682472811858"><ele>16.0</ele><time>2026-05-03T08:53:03.999Z</time></trkpt><trkpt lat="41.603669618329675" lon="9.266538218032847"><ele>16.0</ele><time>2026-05-03T08:53:04.999Z</time></trkpt><trkpt lat="41.60375684261165" lon="9.266404981461896"><ele>16.0</ele><time>2026-05-03T08:53:05.999Z</time></trkpt><trkpt lat="41.60382849165061" lon="9.266287996435667"><ele>16.0</ele><time>2026-05-03T08:53:06.999Z</time></trkpt><trkpt lat="41.6038976140318" lon="9.266186620433013"><ele>16.0</ele><time>2026-05-03T08:53:08Z</time></trkpt><trkpt lat="41.60396226368364" lon="9.266090085195303"><ele>16.0</ele><time>2026-05-03T08:53:09Z</time></trkpt><trkpt lat="41.60402226095558" lon="9.265997516379644"><ele>16.0</ele><time>2026-05-03T08:53:10Z</time></trkpt><trkpt lat="41.6040860873655" lon="9.265902790458581"><ele>16.0</ele><time>2026-05-03T08:53:11Z</time></trkpt><trkpt lat="41.60415407644687" lon="9.265811179305036"><ele>16.0</ele><time>2026-05-03T08:53:12Z</time></trkpt><trkpt lat="41.604220164398086" lon="9.265705107682997"><ele>15.8</ele><time>2026-05-03T08:53:13Z</time></trkpt><trkpt lat="41.60429541464777" lon="9.265593929766835"><ele>15.600000000000001</ele><time>2026-05-03T08:53:14Z</time></trkpt><trkpt lat="41.604370103258745" lon="9.2654945965107"><ele>15.4</ele><time>2026-05-03T08:53:15Z</time></trkpt><trkpt lat="41.60443148733516" lon="9.26539607416337"><ele>15.2</ele><time>2026-05-03T08:53:16Z</time></trkpt><trkpt lat="41.604498653366434" lon="9.265302763619419"><ele>15.0</ele><time>2026-05-03T08:53:17Z</time></trkpt><trkpt lat="41.604557621172454" lon="9.265219263395648"><ele>15.0</ele><time>2026-05-03T08:53:18Z</time></trkpt><trkpt lat="41.60461426638139" lon="9.2651365850545"><ele>15.0</ele><time>2026-05-03T08:53:19Z</time></trkpt><trkpt lat="41.604673402198536" lon="9.265051495943897"><ele>15.0</ele><time>2026-05-03T08:53:20Z</time></trkpt><trkpt lat="41.60473202531298" lon="9.26495299422781"><ele>15.0</ele><time>2026-05-03T08:53:21Z</time></trkpt><trkpt lat="41.604794923075204" lon="9.264863910299548"><ele>15.0</ele><time>2026-05-03T08:53:22Z</time></trkpt><trkpt lat="41.6048651867447" lon="9.264762542430203"><ele>15.0</ele><time>2026-05-03T08:53:23.001Z</time></trkpt><trkpt lat="41.60494111032014" lon="9.264637561298482"><ele>15.0</ele><time>2026-05-03T08:53:24.001Z</time></trkpt><trkpt lat="41.60504145250586" lon="9.26452188748607"><ele>15.0</ele><time>2026-05-03T08:53:25.001Z</time></trkpt><trkpt lat="41.60513318457553" lon="9.264386688861737"><ele>15.0</ele><time>2026-05-03T08:53:26.001Z</time></trkpt><trkpt lat="41.60522994336662" lon="9.264244337859092"><ele>15.0</ele><time>2026-05-03T08:53:27.001Z</time></trkpt><trkpt lat="41.605330925098365" lon="9.264096780739862"><ele>15.0</ele><time>2026-05-03T08:53:28.001Z</time></trkpt><trkpt lat="41.60542285108966" lon="9.263933396167241"><ele>15.0</ele><time>2026-05-03T08:53:29.001Z</time></trkpt><trkpt lat="41.60552774282479" lon="9.263790516774534"><ele>15.333333333333332</ele><time>2026-05-03T08:53:30.001Z</time></trkpt><trkpt lat="41.60563244838587" lon="9.263643092191902"><ele>15.666666666666666</ele><time>2026-05-03T08:53:31.001Z</time></trkpt><trkpt lat="41.60573600027533" lon="9.2634965141502"><ele>16.0</ele><time>2026-05-03T08:53:32.001Z</time></trkpt><trkpt lat="41.60584403418549" lon="9.263347014462909"><ele>16.0</ele><time>2026-05-03T08:53:33.001Z</time></trkpt><trkpt lat="41.60594919133489" lon="9.263193526942246"><ele>16.0</ele><time>2026-05-03T08:53:34.001Z</time></trkpt><trkpt lat="41.606056347945106" lon="9.263039013974982"><ele>16.0</ele><time>2026-05-03T08:53:35.001Z</time></trkpt><trkpt lat="41.60616957516669" lon="9.26287170940033"><ele>17.333333333333332</ele><time>2026-05-03T08:53:36.001Z</time></trkpt><trkpt lat="41.60629285754895" lon="9.262699628694017"><ele>18.666666666666668</ele><time>2026-05-03T08:53:37.001Z</time></trkpt><trkpt lat="41.60641495396103" lon="9.26252727263096"><ele>20.0</ele><time>2026-05-03T08:53:38.001Z</time></trkpt><trkpt lat="41.60653425157206" lon="9.262354372344113"><ele>20.666666666666668</ele><time>2026-05-03T08:53:39.001Z</time></trkpt><trkpt lat="41.60665185679431" lon="9.262186206614201"><ele>21.333333333333332</ele><time>2026-05-03T08:53:40.001Z</time></trkpt><trkpt lat="41.60676560562033" lon="9.262031622995472"><ele>22.0</ele><time>2026-05-03T08:53:41.001Z</time></trkpt><trkpt lat="41.606889259291854" lon="9.261891595098279"><ele>23.0</ele><time>2026-05-03T08:53:42.001Z</time></trkpt><trkpt lat="41.60705161847427" lon="9.261798438258033"><ele>24.0</ele><time>2026-05-03T08:53:43.001Z</time></trkpt><trkpt lat="41.60721565803497" lon="9.261709773465984"><ele>25.0</ele><time>2026-05-03T08:53:44.001Z</time></trkpt><trkpt lat="41.607390110314554" lon="9.261616505970807"><ele>25.0</ele><time>2026-05-03T08:53:45.001Z</time></trkpt><trkpt lat="41.60758187271065" lon="9.261534878448325"><ele>25.0</ele><time>2026-05-03T08:53:46.001Z</time></trkpt><trkpt lat="41.607774527911836" lon="9.26143644565328"><ele>25.0</ele><time>2026-05-03T08:53:47.001Z</time></trkpt><trkpt lat="41.607962412895105" lon="9.26133272253287"><ele>27.666666666666668</ele><time>2026-05-03T08:53:48.002Z</time></trkpt><trkpt lat="41.60815265898703" lon="9.261238040141496"><ele>30.333333333333336</ele><time>2026-05-03T08:53:49.002Z</time></trkpt><trkpt lat="41.60835837521649" lon="9.26116357801567"><ele>33.0</ele><time>2026-05-03T08:53:50.002Z</time></trkpt><trkpt lat="41.60855916650244" lon="9.26111058717724"><ele>33.0</ele><time>2026-05-03T08:53:51.002Z</time></trkpt><trkpt lat="41.60876996283934" lon="9.261055985670598"><ele>33.0</ele><time>2026-05-03T08:53:52.002Z</time></trkpt><trkpt lat="41.608987576458375" lon="9.26099824154192"><ele>33.0</ele><time>2026-05-03T08:53:53.002Z</time></trkpt><trkpt lat="41.60920592496744" lon="9.2609295012019"><ele>33.0</ele><time>2026-05-03T08:53:54.002Z</time></trkpt><trkpt lat="41.609423325770116" lon="9.260862640239626"><ele>33.0</ele><time>2026-05-03T08:53:55.002Z</time></trkpt><trkpt lat="41.60964054344484" lon="9.260792007341749"><ele>33.0</ele><time>2026-05-03T08:53:56.002Z</time></trkpt><trkpt lat="41.60985744518789" lon="9.260725856326076"><ele>32.666666666666664</ele><time>2026-05-03T08:53:57.002Z</time></trkpt><trkpt lat="41.610070106183954" lon="9.260659823738065"><ele>32.33333333333333</ele><time>2026-05-03T08:53:58.002Z</time></trkpt><trkpt lat="41.610274392920346" lon="9.260592438469034"><ele>32.0</ele><time>2026-05-03T08:53:59.002Z</time></trkpt><trkpt lat="41.61047579952506" lon="9.26053703291336"><ele>33.33333333333333</ele><time>2026-05-03T08:54:00.002Z</time></trkpt><trkpt lat="41.61066492581085" lon="9.26050484476188"><ele>34.666666666666664</ele><time>2026-05-03T08:54:01.002Z</time></trkpt><trkpt lat="41.61083988016647" lon="9.260500966921649"><ele>36.0</ele><time>2026-05-03T08:54:02.002Z</time></trkpt><trkpt lat="41.611007971324156" lon="9.2605429303718"><ele>35.666666666666664</ele><time>2026-05-03T08:54:03.002Z</time></trkpt><trkpt lat="41.611155581708275" lon="9.260658364922227"><ele>35.33333333333333</ele><time>2026-05-03T08:54:04.002Z</time></trkpt><trkpt lat="41.61130460303424" lon="9.26077938495024"><ele>35.0</ele><time>2026-05-03T08:54:05.002Z</time></trkpt><trkpt lat="41.611462184339516" lon="9.2608807778609"><ele>36.5</ele><time>2026-05-03T08:54:06.002Z</time></trkpt><trkpt lat="41.611610329280616" lon="9.260983291895613"><ele>38.0</ele><time>2026-05-03T08:54:07.002Z</time></trkpt><trkpt lat="41.611742211499916" lon="9.261084453600517"><ele>39.5</ele><time>2026-05-03T08:54:08.002Z</time></trkpt><trkpt lat="41.61185520673153" lon="9.261156853158855"><ele>41.0</ele><time>2026-05-03T08:54:09.002Z</time></trkpt><trkpt lat="41.61193822279822" lon="9.261210044127573"><ele>40.83333333333333</ele><time>2026-05-03T08:54:10.002Z</time></trkpt><trkpt lat="41.61201325165502" lon="9.26125830549923"><ele>40.666666666666664</ele><time>2026-05-03T08:54:11.002Z</time></trkpt><trkpt lat="41.612096885658374" lon="9.26128346866476"><ele>40.5</ele><time>2026-05-03T08:54:12.002Z</time></trkpt><trkpt lat="41.612163672412024" lon="9.26132972660335"><ele>40.333333333333336</ele><time>2026-05-03T08:54:13.002Z</time></trkpt><trkpt lat="41.61222726387804" lon="9.261378993270558"><ele>40.16666666666667</ele><time>2026-05-03T08:54:14.002Z</time></trkpt><trkpt lat="41.61230544321831" lon="9.261441950463874"><ele>40.0</ele><time>2026-05-03T08:54:15.002Z</time></trkpt><trkpt lat="41.612395174947046" lon="9.261506088797223"><ele>40.0</ele><time>2026-05-03T08:54:16.002Z</time></trkpt><trkpt lat="41.61249289716491" lon="9.261567386565625"><ele>40.0</ele><time>2026-05-03T08:54:17.002Z</time></trkpt><trkpt lat="41.61259841265836" lon="9.261606836851337"><ele>40.0</ele><time>2026-05-03T08:54:18.002Z</time></trkpt><trkpt lat="41.61271050425634" lon="9.261608462983734"><ele>40.0</ele><time>2026-05-03T08:54:19.002Z</time></trkpt><trkpt lat="41.61282577580197" lon="9.26155785909386"><ele>40.75</ele><time>2026-05-03T08:54:20.003Z</time></trkpt><trkpt lat="41.612933158350664" lon="9.261470602163726"><ele>41.5</ele><time>2026-05-03T08:54:21.003Z</time></trkpt><trkpt lat="41.613017657653074" lon="9.261369264338335"><ele>42.25</ele><time>2026-05-03T08:54:22.003Z</time></trkpt><trkpt lat="41.613090009187175" lon="9.261241323437284"><ele>43.0</ele><time>2026-05-03T08:54:23.003Z</time></trkpt><trkpt lat="41.61314694545834" lon="9.261091690550343"><ele>43.0</ele><time>2026-05-03T08:54:24.003Z</time></trkpt><trkpt lat="41.613168546902656" lon="9.260922331517715"><ele>43.0</ele><time>2026-05-03T08:54:25.003Z</time></trkpt><trkpt lat="41.61317997867259" lon="9.2607604078939"><ele>43.0</ele><time>2026-05-03T08:54:26.003Z</time></trkpt><trkpt lat="41.61319945280296" lon="9.260606054675504"><ele>43.0</ele><time>2026-05-03T08:54:27.003Z</time></trkpt><trkpt lat="41.613222035504606" lon="9.260465883532794"><ele>44.4</ele><time>2026-05-03T08:54:28.003Z</time></trkpt><trkpt lat="41.61324429441322" lon="9.260337215682002"><ele>45.8</ele><time>2026-05-03T08:54:29.003Z</time></trkpt><trkpt lat="41.613277768301685" lon="9.260217576821768"><ele>47.2</ele><time>2026-05-03T08:54:30.003Z</time></trkpt><trkpt lat="41.613345842120346" lon="9.260117009299728"><ele>48.6</ele><time>2026-05-03T08:54:31.003Z</time></trkpt><trkpt lat="41.613434650004585" lon="9.260045908827534"><ele>50.0</ele><time>2026-05-03T08:54:32.003Z</time></trkpt><trkpt lat="41.61353115328326" lon="9.260010022079982"><ele>50.0</ele><time>2026-05-03T08:54:33.003Z</time></trkpt><trkpt lat="41.613641561008535" lon="9.26003408663556"><ele>50.0</ele><time>2026-05-03T08:54:34.003Z</time></trkpt><trkpt lat="41.613777631940614" lon="9.260035892407318"><ele>50.0</ele><time>2026-05-03T08:54:35.003Z</time></trkpt><trkpt lat="41.61391198942752" lon="9.260063420745636"><ele>50.0</ele><time>2026-05-03T08:54:36.003Z</time></trkpt><trkpt lat="41.61404697414138" lon="9.260072037239391"><ele>49.75</ele><time>2026-05-03T08:54:37.003Z</time></trkpt><trkpt lat="41.61417399796281" lon="9.260048482345695"><ele>49.5</ele><time>2026-05-03T08:54:38.003Z</time></trkpt><trkpt lat="41.614281378764304" lon="9.259994108078342"><ele>49.25</ele><time>2026-05-03T08:54:39.003Z</time></trkpt><trkpt lat="41.614377826595806" lon="9.259910264465457"><ele>49.0</ele><time>2026-05-03T08:54:40.003Z</time></trkpt><trkpt lat="41.61445550492543" lon="9.259791828876118"><ele>49.25</ele><time>2026-05-03T08:54:41.003Z</time></trkpt><trkpt lat="41.61450848107621" lon="9.25964609507894"><ele>49.5</ele><time>2026-05-03T08:54:42.003Z</time></trkpt><trkpt lat="41.61452738008738" lon="9.259480994459157"><ele>49.75</ele><time>2026-05-03T08:54:43.003Z</time></trkpt><trkpt lat="41.61453291430501" lon="9.259319960390345"><ele>50.0</ele><time>2026-05-03T08:54:44.003Z</time></trkpt><trkpt lat="41.61453248232887" lon="9.259180842135365"><ele>50.0</ele><time>2026-05-03T08:54:44.997Z</time></trkpt><trkpt lat="41.61455997111213" lon="9.259051108408295"><ele>50.0</ele><time>2026-05-03T08:54:45.997Z</time></trkpt><trkpt lat="41.61456798963635" lon="9.258929104378229"><ele>50.0</ele><time>2026-05-03T08:54:46.997Z</time></trkpt><trkpt lat="41.61460616800637" lon="9.25882082441557"><ele>50.0</ele><time>2026-05-03T08:54:47.998Z</time></trkpt><trkpt lat="41.614680071748424" lon="9.25873068182088"><ele>50.0</ele><time>2026-05-03T08:54:48.998Z</time></trkpt><trkpt lat="41.61477071272504" lon="9.258663845031743"><ele>53.5</ele><time>2026-05-03T08:54:49.998Z</time></trkpt><trkpt lat="41.61487459746623" lon="9.258646922817572"><ele>57.0</ele><time>2026-05-03T08:54:50.998Z</time></trkpt><trkpt lat="41.614975442758315" lon="9.258716018368768"><ele>60.5</ele><time>2026-05-03T08:54:51.998Z</time></trkpt><trkpt lat="41.61506970836945" lon="9.25879915561125"><ele>64.0</ele><time>2026-05-03T08:54:52.998Z</time></trkpt><trkpt lat="41.61518065618383" lon="9.258904932141583"><ele>63.33333333333333</ele><time>2026-05-03T08:54:53.998Z</time></trkpt><trkpt lat="41.615316087903935" lon="9.25904564813615"><ele>62.66666666666667</ele><time>2026-05-03T08:54:54.998Z</time></trkpt><trkpt lat="41.61545315507043" lon="9.259186583176284"><ele>62.0</ele><time>2026-05-03T08:54:55.998Z</time></trkpt><trkpt lat="41.61560458990769" lon="9.259319948092264"><ele>62.0</ele><time>2026-05-03T08:54:56.999Z</time></trkpt><trkpt lat="41.615743214215584" lon="9.259485460940185"><ele>62.0</ele><time>2026-05-03T08:54:57.999Z</time></trkpt><trkpt lat="41.6158926425969" lon="9.259627276294053"><ele>62.0</ele><time>2026-05-03T08:54:58.999Z</time></trkpt><trkpt lat="41.61605993047882" lon="9.259742929912665"><ele>59.0</ele><time>2026-05-03T08:54:59.999Z</time></trkpt><trkpt lat="41.61624401737011" lon="9.25980647920604"><ele>56.0</ele><time>2026-05-03T08:55:00.999Z</time></trkpt><trkpt lat="41.61641004689608" lon="9.259807153752838"><ele>53.0</ele><time>2026-05-03T08:55:01.999Z</time></trkpt><trkpt lat="41.616516569313454" lon="9.25972926255319"><ele>53.0</ele><time>2026-05-03T08:55:02.999Z</time></trkpt><trkpt lat="41.61658039648334" lon="9.259582797061913"><ele>53.0</ele><time>2026-05-03T08:55:03.999Z</time></trkpt><trkpt lat="41.61662405751921" lon="9.259355320390341"><ele>53.0</ele><time>2026-05-03T08:55:04.999Z</time></trkpt><trkpt lat="41.616643570106454" lon="9.25907536755551"><ele>53.333333333333336</ele><time>2026-05-03T08:55:05.999Z</time></trkpt><trkpt lat="41.616660868164594" lon="9.258770574250626"><ele>53.66666666666667</ele><time>2026-05-03T08:55:06.999Z</time></trkpt><trkpt lat="41.61662444152783" lon="9.258483783157555"><ele>54.0</ele><time>2026-05-03T08:55:08Z</time></trkpt><trkpt lat="41.61652366010344" lon="9.258219318565294"><ele>54.0</ele><time>2026-05-03T08:55:09Z</time></trkpt><trkpt lat="41.61641045261347" lon="9.257985138956482"><ele>54.0</ele><time>2026-05-03T08:55:10Z</time></trkpt><trkpt lat="41.61635301769965" lon="9.257776112166354"><ele>54.0</ele><time>2026-05-03T08:55:11Z</time></trkpt><trkpt lat="41.61635764847789" lon="9.257564339950687"><ele>54.0</ele><time>2026-05-03T08:55:12Z</time></trkpt><trkpt lat="41.6164265755252" lon="9.257353868908675"><ele>54.0</ele><time>2026-05-03T08:55:13Z</time></trkpt><trkpt lat="41.61650313458809" lon="9.257173487945876"><ele>54.0</ele><time>2026-05-03T08:55:14Z</time></trkpt><trkpt lat="41.61660480618682" lon="9.257040207436333"><ele>55.33333333333333</ele><time>2026-05-03T08:55:15Z</time></trkpt><trkpt lat="41.6167512471426" lon="9.256988377611544"><ele>56.666666666666664</ele><time>2026-05-03T08:55:16Z</time></trkpt><trkpt lat="41.616920469436245" lon="9.256917022284169"><ele>58.0</ele><time>2026-05-03T08:55:17Z</time></trkpt><trkpt lat="41.61708312929265" lon="9.256853420035576"><ele>58.0</ele><time>2026-05-03T08:55:18Z</time></trkpt><trkpt lat="41.61719653918205" lon="9.25669371213871"><ele>58.0</ele><time>2026-05-03T08:55:19Z</time></trkpt><trkpt lat="41.61727502514626" lon="9.256470203707744"><ele>58.0</ele><time>2026-05-03T08:55:20Z</time></trkpt><trkpt lat="41.61736063520368" lon="9.256248988041595"><ele>60.666666666666664</ele><time>2026-05-03T08:55:21Z</time></trkpt><trkpt lat="41.61747588226294" lon="9.256075029783165"><ele>63.33333333333333</ele><time>2026-05-03T08:55:22Z</time></trkpt><trkpt lat="41.617621710750875" lon="9.256019603457549"><ele>66.0</ele><time>2026-05-03T08:55:23Z</time></trkpt><trkpt lat="41.617769070408784" lon="9.256032599351355"><ele>64.75</ele><time>2026-05-03T08:55:24Z</time></trkpt><trkpt lat="41.61793906059194" lon="9.256066807909916"><ele>63.5</ele><time>2026-05-03T08:55:25.001Z</time></trkpt><trkpt lat="41.61809036423871" lon="9.256114153983223"><ele>62.25</ele><time>2026-05-03T08:55:26.001Z</time></trkpt><trkpt lat="41.61819699493318" lon="9.256112396336581"><ele>61.0</ele><time>2026-05-03T08:55:27.001Z</time></trkpt><trkpt lat="41.61829252041269" lon="9.25605384045968"><ele>61.0</ele><time>2026-05-03T08:55:28.001Z</time></trkpt><trkpt lat="41.6183696950363" lon="9.255924213005047"><ele>61.0</ele><time>2026-05-03T08:55:29.001Z</time></trkpt><trkpt lat="41.61841673687042" lon="9.25574645513387"><ele>61.0</ele><time>2026-05-03T08:55:30.001Z</time></trkpt><trkpt lat="41.61846295425303" lon="9.25555811383162"><ele>61.0</ele><time>2026-05-03T08:55:31.001Z</time></trkpt><trkpt lat="41.61855972334379" lon="9.25539658457042"><ele>63.33333333333333</ele><time>2026-05-03T08:55:32.001Z</time></trkpt><trkpt lat="41.61869937860851" lon="9.255311940001283"><ele>65.66666666666667</ele><time>2026-05-03T08:55:33.001Z</time></trkpt><trkpt lat="41.6188562476804" lon="9.255359101019073"><ele>68.0</ele><time>2026-05-03T08:55:34.001Z</time></trkpt><trkpt lat="41.61900873356668" lon="9.255424753644471"><ele>68.0</ele><time>2026-05-03T08:55:35.001Z</time></trkpt><trkpt lat="41.619162983545806" lon="9.25543447061947"><ele>68.0</ele><time>2026-05-03T08:55:36.001Z</time></trkpt><trkpt lat="41.61930747530521" lon="9.255371940301186"><ele>68.0</ele><time>2026-05-03T08:55:37.001Z</time></trkpt><trkpt lat="41.619431560429206" lon="9.255223113972951"><ele>66.66666666666667</ele><time>2026-05-03T08:55:38.001Z</time></trkpt><trkpt lat="41.61951276764358" lon="9.255036828743519"><ele>65.33333333333333</ele><time>2026-05-03T08:55:39.001Z</time></trkpt><trkpt lat="41.61955384856028" lon="9.254839520415311"><ele>64.0</ele><time>2026-05-03T08:55:40.001Z</time></trkpt><trkpt lat="41.61957020494125" lon="9.254635470021483"><ele>64.0</ele><time>2026-05-03T08:55:41.001Z</time></trkpt><trkpt lat="41.61959296530964" lon="9.254449801048048"><ele>64.0</ele><time>2026-05-03T08:55:42.001Z</time></trkpt><trkpt lat="41.6196364106685" lon="9.25429892056571"><ele>64.0</ele><time>2026-05-03T08:55:43.001Z</time></trkpt><trkpt lat="41.61970764633804" lon="9.25417625672137"><ele>64.0</ele><time>2026-05-03T08:55:44.001Z</time></trkpt><trkpt lat="41.619803844056804" lon="9.254074180152568"><ele>64.0</ele><time>2026-05-03T08:55:45.001Z</time></trkpt><trkpt lat="41.61992994290745" lon="9.25404449537393"><ele>64.0</ele><time>2026-05-03T08:55:46.001Z</time></trkpt><trkpt lat="41.62003211455595" lon="9.254021099689405"><ele>64.0</ele><time>2026-05-03T08:55:47.001Z</time></trkpt><trkpt lat="41.620135796637946" lon="9.25397548170366"><ele>64.0</ele><time>2026-05-03T08:55:48.001Z</time></trkpt><trkpt lat="41.62024477301565" lon="9.25395107885097"><ele>66.5</ele><time>2026-05-03T08:55:49.001Z</time></trkpt><trkpt lat="41.62037003038676" lon="9.253924689712123"><ele>69.0</ele><time>2026-05-03T08:55:50.001Z</time></trkpt><trkpt lat="41.62050478539205" lon="9.253880662095199"><ele>71.5</ele><time>2026-05-03T08:55:51.002Z</time></trkpt><trkpt lat="41.6206411276872" lon="9.25383475521543"><ele>74.0</ele><time>2026-05-03T08:55:52.002Z</time></trkpt><trkpt lat="41.62077205086602" lon="9.253786027905498"><ele>74.0</ele><time>2026-05-03T08:55:53.002Z</time></trkpt><trkpt lat="41.620892666505156" lon="9.253735598014359"><ele>74.0</ele><time>2026-05-03T08:55:54.002Z</time></trkpt><trkpt lat="41.62102572951618" lon="9.253709572342945"><ele>74.0</ele><time>2026-05-03T08:55:55.002Z</time></trkpt><trkpt lat="41.6211687725233" lon="9.25371943983607"><ele>74.0</ele><time>2026-05-03T08:55:56.002Z</time></trkpt><trkpt lat="41.62129719864952" lon="9.253753186963467"><ele>74.25</ele><time>2026-05-03T08:55:57.002Z</time></trkpt><trkpt lat="41.62141616247688" lon="9.253789592822006"><ele>74.5</ele><time>2026-05-03T08:55:58.002Z</time></trkpt><trkpt lat="41.62153776434166" lon="9.253820025528617"><ele>74.75</ele><time>2026-05-03T08:55:59.002Z</time></trkpt><trkpt lat="41.62166641117924" lon="9.253832494528107"><ele>75.0</ele><time>2026-05-03T08:56:00.002Z</time></trkpt><trkpt lat="41.621791454411536" lon="9.253812445490308"><ele>75.0</ele><time>2026-05-03T08:56:01.002Z</time></trkpt><trkpt lat="41.62191155193419" lon="9.253767517593898"><ele>75.0</ele><time>2026-05-03T08:56:02.002Z</time></trkpt><trkpt lat="41.62202829257204" lon="9.253690421440835"><ele>75.0</ele><time>2026-05-03T08:56:03.002Z</time></trkpt><trkpt lat="41.62214436374067" lon="9.253604290872154"><ele>75.0</ele><time>2026-05-03T08:56:04.002Z</time></trkpt><trkpt lat="41.622269602685364" lon="9.253494898670061"><ele>73.33333333333333</ele><time>2026-05-03T08:56:05.002Z</time></trkpt><trkpt lat="41.62240692169611" lon="9.253389679400822"><ele>71.66666666666666</ele><time>2026-05-03T08:56:06.002Z</time></trkpt><trkpt lat="41.62254564439031" lon="9.253290535992374"><ele>70.0</ele><time>2026-05-03T08:56:07.002Z</time></trkpt><trkpt lat="41.62266749588393" lon="9.253201529839576"><ele>71.66666666666666</ele><time>2026-05-03T08:56:08.002Z</time></trkpt><trkpt lat="41.62278982412007" lon="9.253107285032964"><ele>73.33333333333333</ele><time>2026-05-03T08:56:09.002Z</time></trkpt><trkpt lat="41.622925475785514" lon="9.253001826249864"><ele>75.0</ele><time>2026-05-03T08:56:10.002Z</time></trkpt><trkpt lat="41.623071588350435" lon="9.252897588491601"><ele>75.0</ele><time>2026-05-03T08:56:11.002Z</time></trkpt><trkpt lat="41.62322616808206" lon="9.25279878432479"><ele>75.0</ele><time>2026-05-03T08:56:12.002Z</time></trkpt><trkpt lat="41.623371845406375" lon="9.252711523680514"><ele>75.0</ele><time>2026-05-03T08:56:13.002Z</time></trkpt><trkpt lat="41.623506892225095" lon="9.252647633452796"><ele>75.0</ele><time>2026-05-03T08:56:14.002Z</time></trkpt><trkpt lat="41.62363524918535" lon="9.252652092183448"><ele>75.0</ele><time>2026-05-03T08:56:15.002Z</time></trkpt><trkpt lat="41.623755122276435" lon="9.25272361657377"><ele>75.0</ele><time>2026-05-03T08:56:16.002Z</time></trkpt><trkpt lat="41.62389374167039" lon="9.252824127372083"><ele>75.0</ele><time>2026-05-03T08:56:17.002Z</time></trkpt><trkpt lat="41.62402528439706" lon="9.252903085363402"><ele>75.0</ele><time>2026-05-03T08:56:18.002Z</time></trkpt><trkpt lat="41.62413486010264" lon="9.252984656759622"><ele>75.0</ele><time>2026-05-03T08:56:19.002Z</time></trkpt><trkpt lat="41.62424245442015" lon="9.253096632907726"><ele>75.0</ele><time>2026-05-03T08:56:20.002Z</time></trkpt><trkpt lat="41.62435387092896" lon="9.2532123025593"><ele>75.0</ele><time>2026-05-03T08:56:21.002Z</time></trkpt><trkpt lat="41.62446969143249" lon="9.253341785250964"><ele>75.33333333333333</ele><time>2026-05-03T08:56:22.002Z</time></trkpt><trkpt lat="41.624594125132106" lon="9.253479462731242"><ele>75.66666666666666</ele><time>2026-05-03T08:56:23.003Z</time></trkpt><trkpt lat="41.62470522212802" lon="9.253622734535435"><ele>76.0</ele><time>2026-05-03T08:56:24.003Z</time></trkpt><trkpt lat="41.624825218862036" lon="9.25374169548891"><ele>76.0</ele><time>2026-05-03T08:56:25.003Z</time></trkpt><trkpt lat="41.62498147607471" lon="9.25382245538081"><ele>76.0</ele><time>2026-05-03T08:56:26.003Z</time></trkpt><trkpt lat="41.625149694264834" lon="9.253838501402067"><ele>76.0</ele><time>2026-05-03T08:56:27.003Z</time></trkpt><trkpt lat="41.62531543002913" lon="9.253780224312996"><ele>76.0</ele><time>2026-05-03T08:56:28.003Z</time></trkpt><trkpt lat="41.62545704629412" lon="9.253651513819833"><ele>76.0</ele><time>2026-05-03T08:56:29.003Z</time></trkpt><trkpt lat="41.625589334220436" lon="9.253500376305986"><ele>76.0</ele><time>2026-05-03T08:56:30.003Z</time></trkpt><trkpt lat="41.62573838389577" lon="9.253382652890329"><ele>76.0</ele><time>2026-05-03T08:56:31.003Z</time></trkpt><trkpt lat="41.62590975863744" lon="9.253280895067475"><ele>76.0</ele><time>2026-05-03T08:56:32.003Z</time></trkpt><trkpt lat="41.62607400786946" lon="9.253167597786549"><ele>76.0</ele><time>2026-05-03T08:56:33.003Z</time></trkpt><trkpt lat="41.62621511956928" lon="9.253001838290997"><ele>75.0</ele><time>2026-05-03T08:56:34.003Z</time></trkpt><trkpt lat="41.626324150345376" lon="9.25278127960616"><ele>74.0</ele><time>2026-05-03T08:56:35.003Z</time></trkpt><trkpt lat="41.626414785203806" lon="9.252537741622957"><ele>73.0</ele><time>2026-05-03T08:56:36.003Z</time></trkpt><trkpt lat="41.62649697426819" lon="9.252309489958238"><ele>74.75</ele><time>2026-05-03T08:56:37.003Z</time></trkpt><trkpt lat="41.62656109415978" lon="9.252104744220146"><ele>76.5</ele><time>2026-05-03T08:56:38.003Z</time></trkpt><trkpt lat="41.6266041713132" lon="9.251931302357457"><ele>78.25</ele><time>2026-05-03T08:56:39.003Z</time></trkpt><trkpt lat="41.62665013086932" lon="9.251772976020364"><ele>80.0</ele><time>2026-05-03T08:56:40.003Z</time></trkpt><trkpt lat="41.62670027942891" lon="9.251631225314028"><ele>80.0</ele><time>2026-05-03T08:56:41.003Z</time></trkpt><trkpt lat="41.62677633402199" lon="9.251519944243814"><ele>80.0</ele><time>2026-05-03T08:56:42.003Z</time></trkpt><trkpt lat="41.626875341273134" lon="9.251482412777241"><ele>80.0</ele><time>2026-05-03T08:56:43.003Z</time></trkpt><trkpt lat="41.62697945812873" lon="9.251494128677622"><ele>80.0</ele><time>2026-05-03T08:56:44.003Z</time></trkpt><trkpt lat="41.62708900424855" lon="9.251497289592333"><ele>80.0</ele><time>2026-05-03T08:56:45.003Z</time></trkpt><trkpt lat="41.6272023426087" lon="9.251464757016794"><ele>80.25</ele><time>2026-05-03T08:56:46.003Z</time></trkpt><trkpt lat="41.62732880939116" lon="9.251414137651116"><ele>80.5</ele><time>2026-05-03T08:56:47.003Z</time></trkpt><trkpt lat="41.62744850954705" lon="9.251358344240382"><ele>80.75</ele><time>2026-05-03T08:56:48.003Z</time></trkpt><trkpt lat="41.62755076637183" lon="9.251303355811435"><ele>81.0</ele><time>2026-05-03T08:56:49.003Z</time></trkpt><trkpt lat="41.62762626726635" lon="9.251219300272869"><ele>81.0</ele><time>2026-05-03T08:56:50.003Z</time></trkpt><trkpt lat="41.62766157371972" lon="9.251096394678857"><ele>81.0</ele><time>2026-05-03T08:56:50.998Z</time></trkpt><trkpt lat="41.62765551346712" lon="9.250930761287092"><ele>81.0</ele><time>2026-05-03T08:56:51.998Z</time></trkpt><trkpt lat="41.62759465192757" lon="9.250749935883135"><ele>81.0</ele><time>2026-05-03T08:56:52.998Z</time></trkpt><trkpt lat="41.627516788609256" lon="9.250570685820833"><ele>81.33333333333333</ele><time>2026-05-03T08:56:53.998Z</time></trkpt><trkpt lat="41.627454105835966" lon="9.250391987937373"><ele>81.66666666666666</ele><time>2026-05-03T08:56:54.998Z</time></trkpt><trkpt lat="41.62741512782824" lon="9.250205129740632"><ele>82.0</ele><time>2026-05-03T08:56:55.998Z</time></trkpt><trkpt lat="41.62743107833207" lon="9.249991499429651"><ele>81.66666666666666</ele><time>2026-05-03T08:56:56.999Z</time></trkpt><trkpt lat="41.62745401025346" lon="9.249759067774397"><ele>81.33333333333333</ele><time>2026-05-03T08:56:57.999Z</time></trkpt><trkpt lat="41.627494473532465" lon="9.249515176220468"><ele>81.0</ele><time>2026-05-03T08:56:58.999Z</time></trkpt><trkpt lat="41.62753222235929" lon="9.249277177965494"><ele>81.0</ele><time>2026-05-03T08:56:59.999Z</time></trkpt><trkpt lat="41.627578558502464" lon="9.249038323247063"><ele>81.0</ele><time>2026-05-03T08:57:00.999Z</time></trkpt><trkpt lat="41.627640372444695" lon="9.248794755603628"><ele>81.0</ele><time>2026-05-03T08:57:01.999Z</time></trkpt><trkpt lat="41.627715810415246" lon="9.248554435101346"><ele>82.0</ele><time>2026-05-03T08:57:02.999Z</time></trkpt><trkpt lat="41.627788710439475" lon="9.24831705354804"><ele>83.0</ele><time>2026-05-03T08:57:03.999Z</time></trkpt><trkpt lat="41.62785830979352" lon="9.248080202078015"><ele>84.0</ele><time>2026-05-03T08:57:04.999Z</time></trkpt><trkpt lat="41.62792377942967" lon="9.24783566515741"><ele>84.66666666666667</ele><time>2026-05-03T08:57:05.999Z</time></trkpt><trkpt lat="41.62799523923259" lon="9.24759146106096"><ele>85.33333333333334</ele><time>2026-05-03T08:57:06.999Z</time></trkpt><trkpt lat="41.62806279833452" lon="9.24735135942533"><ele>86.0</ele><time>2026-05-03T08:57:07.999Z</time></trkpt><trkpt lat="41.628128663791564" lon="9.247115449849069"><ele>86.33333333333334</ele><time>2026-05-03T08:57:08.999Z</time></trkpt><trkpt lat="41.62819366673128" lon="9.246878803381888"><ele>86.66666666666667</ele><time>2026-05-03T08:57:09.999Z</time></trkpt><trkpt lat="41.628259373830225" lon="9.246636870835108"><ele>87.0</ele><time>2026-05-03T08:57:11Z</time></trkpt><trkpt lat="41.62832525783911" lon="9.246394091542243"><ele>87.33333333333333</ele><time>2026-05-03T08:57:12Z</time></trkpt><trkpt lat="41.62839352585598" lon="9.246152223866622"><ele>87.66666666666666</ele><time>2026-05-03T08:57:13Z</time></trkpt><trkpt lat="41.628468742604284" lon="9.245909288189653"><ele>88.0</ele><time>2026-05-03T08:57:14Z</time></trkpt><trkpt lat="41.62854217651451" lon="9.245669138548273"><ele>88.33333333333333</ele><time>2026-05-03T08:57:15Z</time></trkpt><trkpt lat="41.628615640807496" lon="9.245427085084598"><ele>88.66666666666667</ele><time>2026-05-03T08:57:16Z</time></trkpt><trkpt lat="41.628684854223394" lon="9.245199730490153"><ele>89.0</ele><time>2026-05-03T08:57:17Z</time></trkpt><trkpt lat="41.62875335353958" lon="9.244982925127799"><ele>89.66666666666667</ele><time>2026-05-03T08:57:18Z</time></trkpt><trkpt lat="41.628811518030375" lon="9.244764949117789"><ele>90.33333333333333</ele><time>2026-05-03T08:57:19Z</time></trkpt><trkpt lat="41.62885975542265" lon="9.244537502169507"><ele>91.0</ele><time>2026-05-03T08:57:20Z</time></trkpt><trkpt lat="41.628891593105436" lon="9.244294678944621"><ele>91.0</ele><time>2026-05-03T08:57:21Z</time></trkpt><trkpt lat="41.62892032916222" lon="9.244037010204275"><ele>91.0</ele><time>2026-05-03T08:57:22Z</time></trkpt><trkpt lat="41.62895201304745" lon="9.243767609670034"><ele>91.0</ele><time>2026-05-03T08:57:23Z</time></trkpt><trkpt lat="41.628990423280555" lon="9.243495376777645"><ele>91.66666666666666</ele><time>2026-05-03T08:57:24Z</time></trkpt><trkpt lat="41.62903114544631" lon="9.243223472410778"><ele>92.33333333333333</ele><time>2026-05-03T08:57:25Z</time></trkpt><trkpt lat="41.629071773800696" lon="9.242946898087826"><ele>93.0</ele><time>2026-05-03T08:57:26Z</time></trkpt><trkpt lat="41.629112098258666" lon="9.242672656409486"><ele>94.0</ele><time>2026-05-03T08:57:27Z</time></trkpt><trkpt lat="41.62915008495652" lon="9.242398477348182"><ele>95.0</ele><time>2026-05-03T08:57:28.001Z</time></trkpt><trkpt lat="41.62918602069679" lon="9.242128090752681"><ele>96.0</ele><time>2026-05-03T08:57:29.001Z</time></trkpt><trkpt lat="41.629224196556926" lon="9.24185522398012"><ele>96.66666666666666</ele><time>2026-05-03T08:57:30.001Z</time></trkpt><trkpt lat="41.62925524288536" lon="9.241600623569052"><ele>97.33333333333333</ele><time>2026-05-03T08:57:31.001Z</time></trkpt><trkpt lat="41.629290663337926" lon="9.241369057086665"><ele>98.0</ele><time>2026-05-03T08:57:32.001Z</time></trkpt><trkpt lat="41.62931732517308" lon="9.24115424266227"><ele>99.0</ele><time>2026-05-03T08:57:33.001Z</time></trkpt><trkpt lat="41.629316641854096" lon="9.24095250736776"><ele>100.0</ele><time>2026-05-03T08:57:34.001Z</time></trkpt><trkpt lat="41.629273488477416" lon="9.240747048436104"><ele>101.0</ele><time>2026-05-03T08:57:35.001Z</time></trkpt><trkpt lat="41.62920387031777" lon="9.24054534593251"><ele>102.66666666666666</ele><time>2026-05-03T08:57:36.001Z</time></trkpt><trkpt lat="41.62913628523225" lon="9.240327099641798"><ele>104.33333333333334</ele><time>2026-05-03T08:57:37.001Z</time></trkpt><trkpt lat="41.629114493464456" lon="9.2400855298951"><ele>106.0</ele><time>2026-05-03T08:57:38.001Z</time></trkpt><trkpt lat="41.62909316520787" lon="9.239837086299632"><ele>108.33333333333334</ele><time>2026-05-03T08:57:39.001Z</time></trkpt><trkpt lat="41.62906782781935" lon="9.239606382506038"><ele>110.66666666666666</ele><time>2026-05-03T08:57:40.001Z</time></trkpt><trkpt lat="41.629074461106384" lon="9.239396244379302"><ele>113.0</ele><time>2026-05-03T08:57:41.001Z</time></trkpt><trkpt lat="41.62914782590624" lon="9.239221073341085"><ele>113.0</ele><time>2026-05-03T08:57:42.001Z</time></trkpt><trkpt lat="41.62920794489891" lon="9.23902920639074"><ele>113.0</ele><time>2026-05-03T08:57:43.001Z</time></trkpt><trkpt lat="41.62927948734125" lon="9.238839747107678"><ele>113.0</ele><time>2026-05-03T08:57:44.001Z</time></trkpt><trkpt lat="41.629300356816614" lon="9.238628879381357"><ele>115.33333333333333</ele><time>2026-05-03T08:57:45.001Z</time></trkpt><trkpt lat="41.62927068531138" lon="9.238414321157965"><ele>117.66666666666666</ele><time>2026-05-03T08:57:46.001Z</time></trkpt><trkpt lat="41.62921196261957" lon="9.238222927836778"><ele>120.0</ele><time>2026-05-03T08:57:47.001Z</time></trkpt><trkpt lat="41.62909170112773" lon="9.238016649138455"><ele>123.33333333333334</ele><time>2026-05-03T08:57:48.001Z</time></trkpt><trkpt lat="41.628981901891315" lon="9.23784572791941"><ele>126.66666666666667</ele><time>2026-05-03T08:57:49.001Z</time></trkpt><trkpt lat="41.62887331697277" lon="9.237716030154296"><ele>130.0</ele><time>2026-05-03T08:57:50.001Z</time></trkpt><trkpt lat="41.628723979755826" lon="9.237627650357565"><ele>127.66666666666667</ele><time>2026-05-03T08:57:51.001Z</time></trkpt><trkpt lat="41.62855645597303" lon="9.23756669213617"><ele>125.33333333333334</ele><time>2026-05-03T08:57:52.001Z</time></trkpt><trkpt lat="41.62839885668189" lon="9.237504866584958"><ele>123.0</ele><time>2026-05-03T08:57:53.001Z</time></trkpt><trkpt lat="41.62825821357474" lon="9.237385613901056"><ele>127.66666666666666</ele><time>2026-05-03T08:57:54.001Z</time></trkpt><trkpt lat="41.628117051638164" lon="9.237258264325483"><ele>132.33333333333331</ele><time>2026-05-03T08:57:55.002Z</time></trkpt><trkpt lat="41.627982443806516" lon="9.237084915315396"><ele>137.0</ele><time>2026-05-03T08:57:56.002Z</time></trkpt><trkpt lat="41.627854157398644" lon="9.23692415405783"><ele>133.25</ele><time>2026-05-03T08:57:57.002Z</time></trkpt><trkpt lat="41.62774654115685" lon="9.236779329046307"><ele>129.5</ele><time>2026-05-03T08:57:58.002Z</time></trkpt><trkpt lat="41.62767189585989" lon="9.236619709445957"><ele>125.75</ele><time>2026-05-03T08:57:59.002Z</time></trkpt><trkpt lat="41.62763589608559" lon="9.236453793479182"><ele>122.0</ele><time>2026-05-03T08:58:00.002Z</time></trkpt><trkpt lat="41.62766922651421" lon="9.236326648947298"><ele>122.0</ele><time>2026-05-03T08:58:01.002Z</time></trkpt><trkpt lat="41.62777633036175" lon="9.2362503486391"><ele>122.0</ele><time>2026-05-03T08:58:02.002Z</time></trkpt><trkpt lat="41.627873721067544" lon="9.236109271751745"><ele>122.0</ele><time>2026-05-03T08:58:03.002Z</time></trkpt><trkpt lat="41.6279763795879" lon="9.235944006340025"><ele>122.0</ele><time>2026-05-03T08:58:04.002Z</time></trkpt><trkpt lat="41.628049805075996" lon="9.235716171242604"><ele>131.0</ele><time>2026-05-03T08:58:05.002Z</time></trkpt><trkpt lat="41.628082755562616" lon="9.235510228234055"><ele>140.0</ele><time>2026-05-03T08:58:06.002Z</time></trkpt><trkpt lat="41.62804763423963" lon="9.23531332445275"><ele>149.0</ele><time>2026-05-03T08:58:07.002Z</time></trkpt><trkpt lat="41.62797177608868" lon="9.235114738547185"><ele>149.0</ele><time>2026-05-03T08:58:08.002Z</time></trkpt><trkpt lat="41.627963339634306" lon="9.234905629858194"><ele>149.0</ele><time>2026-05-03T08:58:09.002Z</time></trkpt><trkpt lat="41.62800061742299" lon="9.234681813358122"><ele>149.0</ele><time>2026-05-03T08:58:10.002Z</time></trkpt><trkpt lat="41.62807417888142" lon="9.234422556988578"><ele>151.66666666666666</ele><time>2026-05-03T08:58:11.002Z</time></trkpt><trkpt lat="41.62807668431731" lon="9.234154043687765"><ele>154.33333333333334</ele><time>2026-05-03T08:58:12.002Z</time></trkpt><trkpt lat="41.62800682825796" lon="9.233878585649801"><ele>157.0</ele><time>2026-05-03T08:58:13.002Z</time></trkpt><trkpt lat="41.62787775091958" lon="9.233617229113428"><ele>157.5</ele><time>2026-05-03T08:58:14.002Z</time></trkpt><trkpt lat="41.627702958956654" lon="9.233348995162629"><ele>158.0</ele><time>2026-05-03T08:58:15.002Z</time></trkpt><trkpt lat="41.62751900600087" lon="9.233082310809886"><ele>158.0</ele><time>2026-05-03T08:58:16.002Z</time></trkpt><trkpt lat="41.627379496844085" lon="9.232847721293858"><ele>158.0</ele><time>2026-05-03T08:58:17.002Z</time></trkpt><trkpt lat="41.62725101992205" lon="9.232645085736888"><ele>158.0</ele><time>2026-05-03T08:58:18.002Z</time></trkpt><trkpt lat="41.62715709538623" lon="9.23244825170919"><ele>155.5</ele><time>2026-05-03T08:58:19.002Z</time></trkpt><trkpt lat="41.62713550752313" lon="9.23228063828732"><ele>153.0</ele><time>2026-05-03T08:58:20.002Z</time></trkpt><trkpt lat="41.627137451716706" lon="9.23215292129155"><ele>150.5</ele><time>2026-05-03T08:58:21.002Z</time></trkpt><trkpt lat="41.62721298415122" lon="9.232074931182822"><ele>148.0</ele><time>2026-05-03T08:58:22.002Z</time></trkpt><trkpt lat="41.62735982625033" lon="9.232065318635732"><ele>148.0</ele><time>2026-05-03T08:58:23.002Z</time></trkpt><trkpt lat="41.627529302019425" lon="9.23210953758005"><ele>148.0</ele><time>2026-05-03T08:58:24.002Z</time></trkpt><trkpt lat="41.627694529086355" lon="9.232159048548581"><ele>148.0</ele><time>2026-05-03T08:58:25.002Z</time></trkpt><trkpt lat="41.62781351168769" lon="9.232117816491037"><ele>149.0</ele><time>2026-05-03T08:58:26.002Z</time></trkpt><trkpt lat="41.627882694439066" lon="9.231971542236073"><ele>150.0</ele><time>2026-05-03T08:58:27.003Z</time></trkpt><trkpt lat="41.62792267902957" lon="9.231781903017819"><ele>151.0</ele><time>2026-05-03T08:58:28.003Z</time></trkpt><trkpt lat="41.62799128941679" lon="9.231646255076008"><ele>152.0</ele><time>2026-05-03T08:58:29.003Z</time></trkpt><trkpt lat="41.62811942581083" lon="9.231599635981874"><ele>152.0</ele><time>2026-05-03T08:58:30.003Z</time></trkpt><trkpt lat="41.628263914981" lon="9.23169586860923"><ele>152.0</ele><time>2026-05-03T08:58:31.003Z</time></trkpt><trkpt lat="41.62842724707551" lon="9.231813474640632"><ele>152.0</ele><time>2026-05-03T08:58:32.003Z</time></trkpt><trkpt lat="41.62860770273392" lon="9.231999457219978"><ele>153.0</ele><time>2026-05-03T08:58:33.003Z</time></trkpt><trkpt lat="41.628778207468294" lon="9.232243399187658"><ele>154.0</ele><time>2026-05-03T08:58:34.003Z</time></trkpt><trkpt lat="41.628950417101684" lon="9.232507094279836"><ele>154.0</ele><time>2026-05-03T08:58:35.003Z</time></trkpt><trkpt lat="41.62909863214539" lon="9.232734540029957"><ele>154.0</ele><time>2026-05-03T08:58:36.003Z</time></trkpt><trkpt lat="41.62922014476163" lon="9.232908482911657"><ele>154.0</ele><time>2026-05-03T08:58:37.003Z</time></trkpt><trkpt lat="41.629338976041836" lon="9.233034800531753"><ele>154.0</ele><time>2026-05-03T08:58:38.003Z</time></trkpt><trkpt lat="41.6294652481072" lon="9.233095521419358"><ele>154.0</ele><time>2026-05-03T08:58:39.003Z</time></trkpt><trkpt lat="41.6296046645115" lon="9.233082006670651"><ele>154.0</ele><time>2026-05-03T08:58:40.003Z</time></trkpt><trkpt lat="41.62974084439417" lon="9.233011896044731"><ele>154.0</ele><time>2026-05-03T08:58:41.003Z</time></trkpt><trkpt lat="41.62986421721864" lon="9.232885701600752"><ele>155.66666666666669</ele><time>2026-05-03T08:58:42.003Z</time></trkpt><trkpt lat="41.62995413262991" lon="9.232689759372224"><ele>157.33333333333334</ele><time>2026-05-03T08:58:43.003Z</time></trkpt><trkpt lat="41.62999254834512" lon="9.232422140338057"><ele>159.0</ele><time>2026-05-03T08:58:44.003Z</time></trkpt><trkpt lat="41.629990957407436" lon="9.232139527530052"><ele>159.0</ele><time>2026-05-03T08:58:45.003Z</time></trkpt><trkpt lat="41.629999732292525" lon="9.231900917407245"><ele>159.0</ele><time>2026-05-03T08:58:46.003Z</time></trkpt><trkpt lat="41.63007531289724" lon="9.231705377409149"><ele>159.0</ele><time>2026-05-03T08:58:47.003Z</time></trkpt><trkpt lat="41.63018844886925" lon="9.231576221149249"><ele>162.66666666666666</ele><time>2026-05-03T08:58:48.003Z</time></trkpt><trkpt lat="41.6303284709798" lon="9.231423973860469"><ele>166.33333333333331</ele><time>2026-05-03T08:58:49.003Z</time></trkpt><trkpt lat="41.630468861926175" lon="9.231272250096744"><ele>170.0</ele><time>2026-05-03T08:58:50.003Z</time></trkpt><trkpt lat="41.63055229337893" lon="9.231063171724427"><ele>170.0</ele><time>2026-05-03T08:58:51.003Z</time></trkpt><trkpt lat="41.63062682924293" lon="9.230879811116875"><ele>170.0</ele><time>2026-05-03T08:58:52.003Z</time></trkpt><trkpt lat="41.63074014244277" lon="9.230775333602725"><ele>170.0</ele><time>2026-05-03T08:58:53.003Z</time></trkpt><trkpt lat="41.63086684161761" lon="9.230737411492777"><ele>170.0</ele><time>2026-05-03T08:58:54.003Z</time></trkpt><trkpt lat="41.630978413680914" lon="9.230669615053513"><ele>168.6</ele><time>2026-05-03T08:58:55.003Z</time></trkpt><trkpt lat="41.631077582006434" lon="9.230618763474835"><ele>167.2</ele><time>2026-05-03T08:58:56.003Z</time></trkpt><trkpt lat="41.631162270143776" lon="9.23056361875099"><ele>165.8</ele><time>2026-05-03T08:58:56.998Z</time></trkpt><trkpt lat="41.63125125233183" lon="9.230512812909149"><ele>164.4</ele><time>2026-05-03T08:58:57.999Z</time></trkpt><trkpt lat="41.631353027267046" lon="9.230472701476211"><ele>163.0</ele><time>2026-05-03T08:58:58.999Z</time></trkpt><trkpt lat="41.631463931413265" lon="9.23044700012221"><ele>163.0</ele><time>2026-05-03T08:58:59.999Z</time></trkpt><trkpt lat="41.631584716943095" lon="9.230429231507133"><ele>163.0</ele><time>2026-05-03T08:59:00.999Z</time></trkpt><trkpt lat="41.63170600611689" lon="9.2304078115378"><ele>163.0</ele><time>2026-05-03T08:59:01.999Z</time></trkpt><trkpt lat="41.63182993474885" lon="9.230386581045824"><ele>163.0</ele><time>2026-05-03T08:59:02.999Z</time></trkpt><trkpt lat="41.63195252571306" lon="9.230361937078191"><ele>164.75</ele><time>2026-05-03T08:59:03.999Z</time></trkpt><trkpt lat="41.632072907151425" lon="9.230342068197924"><ele>166.5</ele><time>2026-05-03T08:59:04.999Z</time></trkpt><trkpt lat="41.632189687659114" lon="9.230323261541457"><ele>168.25</ele><time>2026-05-03T08:59:05.999Z</time></trkpt><trkpt lat="41.63230156336529" lon="9.23030109188725"><ele>170.0</ele><time>2026-05-03T08:59:06.999Z</time></trkpt><trkpt lat="41.632412956740524" lon="9.230270775977306"><ele>170.0</ele><time>2026-05-03T08:59:07.999Z</time></trkpt><trkpt lat="41.63252419686332" lon="9.23023529913849"><ele>170.0</ele><time>2026-05-03T08:59:08.999Z</time></trkpt><trkpt lat="41.63262731940518" lon="9.2302232031324"><ele>170.0</ele><time>2026-05-03T08:59:09.999Z</time></trkpt><trkpt lat="41.63270992581374" lon="9.230274106759639"><ele>170.0</ele><time>2026-05-03T08:59:10.999Z</time></trkpt><trkpt lat="41.63279153986945" lon="9.230329279756138"><ele>170.0</ele><time>2026-05-03T08:59:11.999Z</time></trkpt><trkpt lat="41.6328876402333" lon="9.23038140136278"><ele>171.4</ele><time>2026-05-03T08:59:12.999Z</time></trkpt><trkpt lat="41.6329788080947" lon="9.230437439384506"><ele>172.8</ele><time>2026-05-03T08:59:14Z</time></trkpt><trkpt lat="41.633074985238096" lon="9.230480712168747"><ele>174.2</ele><time>2026-05-03T08:59:15Z</time></trkpt><trkpt lat="41.63315613498966" lon="9.230557849208703"><ele>175.6</ele><time>2026-05-03T08:59:16Z</time></trkpt><trkpt lat="41.63322129310498" lon="9.230674397364412"><ele>177.0</ele><time>2026-05-03T08:59:17Z</time></trkpt><trkpt lat="41.633255978098745" lon="9.230807543888236"><ele>178.2</ele><time>2026-05-03T08:59:18Z</time></trkpt><trkpt lat="41.63329903771937" lon="9.230953771043247"><ele>179.39999999999998</ele><time>2026-05-03T08:59:19Z</time></trkpt><trkpt lat="41.63333060395767" lon="9.231090249888934"><ele>180.60000000000002</ele><time>2026-05-03T08:59:20Z</time></trkpt><trkpt lat="41.6333539162931" lon="9.231222753706872"><ele>181.8</ele><time>2026-05-03T08:59:21Z</time></trkpt><trkpt lat="41.63338483562933" lon="9.231353213923963"><ele>183.0</ele><time>2026-05-03T08:59:22Z</time></trkpt><trkpt lat="41.633453353724065" lon="9.231456061688384"><ele>185.75</ele><time>2026-05-03T08:59:23Z</time></trkpt><trkpt lat="41.63353821850147" lon="9.231544314115377"><ele>188.5</ele><time>2026-05-03T08:59:24Z</time></trkpt><trkpt lat="41.6336541193847" lon="9.231593052925529"><ele>191.25</ele><time>2026-05-03T08:59:25Z</time></trkpt><trkpt lat="41.633777005778825" lon="9.231611264373964"><ele>194.0</ele><time>2026-05-03T08:59:26Z</time></trkpt><trkpt lat="41.63388783303137" lon="9.231625090294882"><ele>194.0</ele><time>2026-05-03T08:59:27Z</time></trkpt><trkpt lat="41.63398560930649" lon="9.231623320935112"><ele>194.0</ele><time>2026-05-03T08:59:28Z</time></trkpt><trkpt lat="41.634084885967894" lon="9.231621275786065"><ele>194.0</ele><time>2026-05-03T08:59:29Z</time></trkpt><trkpt lat="41.634182441662475" lon="9.231668240845867"><ele>194.0</ele><time>2026-05-03T08:59:30Z</time></trkpt><trkpt lat="41.634278710582976" lon="9.231731847313704"><ele>194.0</ele><time>2026-05-03T08:59:31Z</time></trkpt><trkpt lat="41.634399372451334" lon="9.231820216399347"><ele>194.0</ele><time>2026-05-03T08:59:32Z</time></trkpt><trkpt lat="41.63455279498288" lon="9.231932971821733"><ele>194.0</ele><time>2026-05-03T08:59:33Z</time></trkpt><trkpt lat="41.63473820689179" lon="9.232054409578698"><ele>194.0</ele><time>2026-05-03T08:59:34.001Z</time></trkpt><trkpt lat="41.634937874934685" lon="9.232205939932484"><ele>199.5</ele><time>2026-05-03T08:59:35.001Z</time></trkpt><trkpt lat="41.63514418518616" lon="9.232362646085381"><ele>205.0</ele><time>2026-05-03T08:59:36.001Z</time></trkpt><trkpt lat="41.635369031762266" lon="9.232513821507291"><ele>205.0</ele><time>2026-05-03T08:59:37.001Z</time></trkpt><trkpt lat="41.635601059997335" lon="9.232657059935766"><ele>205.0</ele><time>2026-05-03T08:59:38.001Z</time></trkpt><trkpt lat="41.63583816411611" lon="9.23279136522781"><ele>205.0</ele><time>2026-05-03T08:59:39.001Z</time></trkpt><trkpt lat="41.63608033975567" lon="9.232912536952913"><ele>205.0</ele><time>2026-05-03T08:59:40.001Z</time></trkpt><trkpt lat="41.636355188229345" lon="9.232999368009416"><ele>204.5</ele><time>2026-05-03T08:59:41.001Z</time></trkpt><trkpt lat="41.63663302561648" lon="9.233070190807085"><ele>204.0</ele><time>2026-05-03T08:59:42.001Z</time></trkpt><trkpt lat="41.63690419275071" lon="9.233111642608943"><ele>210.0</ele><time>2026-05-03T08:59:43.001Z</time></trkpt><trkpt lat="41.637162228415264" lon="9.233157956769901"><ele>216.0</ele><time>2026-05-03T08:59:44.001Z</time></trkpt><trkpt lat="41.63742002036286" lon="9.23320742491677"><ele>216.0</ele><time>2026-05-03T08:59:45.001Z</time></trkpt><trkpt lat="41.637681199236596" lon="9.233240547325778"><ele>216.0</ele><time>2026-05-03T08:59:46.001Z</time></trkpt><trkpt lat="41.6379269000221" lon="9.233266790100053"><ele>218.0</ele><time>2026-05-03T08:59:47.001Z</time></trkpt><trkpt lat="41.63815734735788" lon="9.23331039290153"><ele>220.0</ele><time>2026-05-03T08:59:48.001Z</time></trkpt><trkpt lat="41.638350381788186" lon="9.233369927802954"><ele>222.0</ele><time>2026-05-03T08:59:49.001Z</time></trkpt><trkpt lat="41.63853656950466" lon="9.2333922188056"><ele>224.33333333333331</ele><time>2026-05-03T08:59:50.001Z</time></trkpt><trkpt lat="41.63871320140435" lon="9.233355662813803"><ele>226.66666666666666</ele><time>2026-05-03T08:59:51.001Z</time></trkpt><trkpt lat="41.638874396545575" lon="9.233312479137705"><ele>229.0</ele><time>2026-05-03T08:59:52.001Z</time></trkpt><trkpt lat="41.639023039792185" lon="9.233283685629171"><ele>229.0</ele><time>2026-05-03T08:59:53.001Z</time></trkpt><trkpt lat="41.63915150586811" lon="9.233234808052117"><ele>229.0</ele><time>2026-05-03T08:59:54.001Z</time></trkpt><trkpt lat="41.63926250427406" lon="9.233126475617102"><ele>229.0</ele><time>2026-05-03T08:59:55.001Z</time></trkpt><trkpt lat="41.63933591764879" lon="9.232966627471846"><ele>229.0</ele><time>2026-05-03T08:59:56.001Z</time></trkpt><trkpt lat="41.63936223845608" lon="9.232783233942188"><ele>228.5</ele><time>2026-05-03T08:59:57.001Z</time></trkpt><trkpt lat="41.63934958548693" lon="9.232592792831122"><ele>228.0</ele><time>2026-05-03T08:59:58.001Z</time></trkpt><trkpt lat="41.63929583573536" lon="9.232417722184602"><ele>227.5</ele><time>2026-05-03T08:59:59.001Z</time></trkpt><trkpt lat="41.639287732994305" lon="9.232264972915141"><ele>227.0</ele><time>2026-05-03T09:00:00.001Z</time></trkpt><trkpt lat="41.639289654937755" lon="9.232107495769315"><ele>225.75</ele><time>2026-05-03T09:00:01.001Z</time></trkpt><trkpt lat="41.63936449678145" lon="9.231957832531497"><ele>224.5</ele><time>2026-05-03T09:00:02.002Z</time></trkpt><trkpt lat="41.63949232376121" lon="9.231893940909382"><ele>223.25</ele><time>2026-05-03T09:00:03.002Z</time></trkpt><trkpt lat="41.639631658333386" lon="9.231873587949561"><ele>222.0</ele><time>2026-05-03T09:00:04.002Z</time></trkpt><trkpt lat="41.63976071272212" lon="9.231825166502784"><ele>225.5</ele><time>2026-05-03T09:00:05.002Z</time></trkpt><trkpt lat="41.639888043867536" lon="9.231787893936621"><ele>229.0</ele><time>2026-05-03T09:00:06.002Z</time></trkpt><trkpt lat="41.64001991424358" lon="9.231731972188943"><ele>232.5</ele><time>2026-05-03T09:00:07.002Z</time></trkpt><trkpt lat="41.64015547425439" lon="9.23166816028351"><ele>236.0</ele><time>2026-05-03T09:00:08.002Z</time></trkpt><trkpt lat="41.64029550459416" lon="9.231622250224062"><ele>237.33333333333334</ele><time>2026-05-03T09:00:09.002Z</time></trkpt><trkpt lat="41.64043162790727" lon="9.23164504643264"><ele>238.66666666666669</ele><time>2026-05-03T09:00:10.002Z</time></trkpt><trkpt lat="41.64058863194865" lon="9.231670653759297"><ele>240.0</ele><time>2026-05-03T09:00:11.002Z</time></trkpt><trkpt lat="41.640785039508955" lon="9.231686549694626"><ele>240.0</ele><time>2026-05-03T09:00:12.002Z</time></trkpt><trkpt lat="41.64101105247787" lon="9.231725074799693"><ele>240.0</ele><time>2026-05-03T09:00:13.002Z</time></trkpt><trkpt lat="41.641253412512754" lon="9.231791643521822"><ele>242.5</ele><time>2026-05-03T09:00:14.002Z</time></trkpt><trkpt lat="41.64151390388857" lon="9.231840346507719"><ele>245.0</ele><time>2026-05-03T09:00:15.002Z</time></trkpt><trkpt lat="41.64175210980035" lon="9.23193727788976"><ele>246.5</ele><time>2026-05-03T09:00:16.002Z</time></trkpt><trkpt lat="41.641972157377914" lon="9.232046146713591"><ele>248.0</ele><time>2026-05-03T09:00:17.002Z</time></trkpt><trkpt lat="41.64218739100857" lon="9.23216621609197"><ele>248.0</ele><time>2026-05-03T09:00:18.002Z</time></trkpt><trkpt lat="41.6424138110727" lon="9.232287293900272"><ele>248.0</ele><time>2026-05-03T09:00:19.002Z</time></trkpt><trkpt lat="41.64264816800386" lon="9.232398678454206"><ele>252.66666666666669</ele><time>2026-05-03T09:00:20.002Z</time></trkpt><trkpt lat="41.64287106521756" lon="9.232498993243416"><ele>257.3333333333333</ele><time>2026-05-03T09:00:21.002Z</time></trkpt><trkpt lat="41.6430715885448" lon="9.232567126916846"><ele>262.0</ele><time>2026-05-03T09:00:22.002Z</time></trkpt><trkpt lat="41.64326756779696" lon="9.232571719442367"><ele>262.0</ele><time>2026-05-03T09:00:23.002Z</time></trkpt><trkpt lat="41.643458085786" lon="9.232507564244967"><ele>262.0</ele><time>2026-05-03T09:00:24.002Z</time></trkpt><trkpt lat="41.64366981578834" lon="9.232477366096216"><ele>262.0</ele><time>2026-05-03T09:00:25.002Z</time></trkpt><trkpt lat="41.64388571180763" lon="9.23249840677242"><ele>265.0</ele><time>2026-05-03T09:00:26.002Z</time></trkpt><trkpt lat="41.644092898751296" lon="9.232534181271697"><ele>268.0</ele><time>2026-05-03T09:00:27.002Z</time></trkpt><trkpt lat="41.64428310690204" lon="9.232594577388145"><ele>271.0</ele><time>2026-05-03T09:00:28.002Z</time></trkpt><trkpt lat="41.64444615349645" lon="9.232703222898621"><ele>274.5</ele><time>2026-05-03T09:00:29.002Z</time></trkpt><trkpt lat="41.64458999391304" lon="9.23280725750122"><ele>278.0</ele><time>2026-05-03T09:00:30.002Z</time></trkpt><trkpt lat="41.644698518475145" lon="9.232902367371194"><ele>281.5</ele><time>2026-05-03T09:00:31.002Z</time></trkpt><trkpt lat="41.64480689666886" lon="9.23296041404128"><ele>285.0</ele><time>2026-05-03T09:00:32.002Z</time></trkpt><trkpt lat="41.64491572978529" lon="9.232944020171452"><ele>285.0</ele><time>2026-05-03T09:00:33.002Z</time></trkpt><trkpt lat="41.64501531672561" lon="9.232868316969126"><ele>285.0</ele><time>2026-05-03T09:00:34.002Z</time></trkpt><trkpt lat="41.64508381944828" lon="9.232736942799809"><ele>285.0</ele><time>2026-05-03T09:00:35.003Z</time></trkpt><trkpt lat="41.645108208100254" lon="9.232557328199018"><ele>285.0</ele><time>2026-05-03T09:00:36.003Z</time></trkpt><trkpt lat="41.64510966019152" lon="9.232335270970653"><ele>289.3333333333333</ele><time>2026-05-03T09:00:37.003Z</time></trkpt><trkpt lat="41.64508519948178" lon="9.232095909231571"><ele>293.66666666666663</ele><time>2026-05-03T09:00:38.003Z</time></trkpt><trkpt lat="41.645012470053786" lon="9.23184384017438"><ele>298.0</ele><time>2026-05-03T09:00:39.003Z</time></trkpt><trkpt lat="41.644884040475056" lon="9.23159502675297"><ele>313.5</ele><time>2026-05-03T09:00:40.003Z</time></trkpt><trkpt lat="41.644699669440215" lon="9.231386926218844"><ele>329.0</ele><time>2026-05-03T09:00:41.003Z</time></trkpt><trkpt lat="41.644476829917046" lon="9.231227593021552"><ele>317.0</ele><time>2026-05-03T09:00:42.003Z</time></trkpt><trkpt lat="41.64424669158627" lon="9.2310785025809"><ele>305.0</ele><time>2026-05-03T09:00:43.003Z</time></trkpt><trkpt lat="41.64403033758715" lon="9.230932143438187"><ele>305.0</ele><time>2026-05-03T09:00:44.003Z</time></trkpt><trkpt lat="41.64381648083831" lon="9.230822905254001"><ele>305.0</ele><time>2026-05-03T09:00:45.003Z</time></trkpt><trkpt lat="41.643612476395354" lon="9.23077823636864"><ele>305.0</ele><time>2026-05-03T09:00:46.003Z</time></trkpt><trkpt lat="41.64346415965944" lon="9.230698916591871"><ele>311.0</ele><time>2026-05-03T09:00:47.003Z</time></trkpt><trkpt lat="41.64335864842426" lon="9.230562026048803"><ele>317.0</ele><time>2026-05-03T09:00:48.003Z</time></trkpt><trkpt lat="41.64324285279831" lon="9.230390189897237"><ele>323.0</ele><time>2026-05-03T09:00:49.003Z</time></trkpt><trkpt lat="41.643079043689276" lon="9.230204195482242"><ele>323.0</ele><time>2026-05-03T09:00:50.003Z</time></trkpt><trkpt lat="41.642908570641794" lon="9.230011551879645"><ele>323.0</ele><time>2026-05-03T09:00:51.003Z</time></trkpt><trkpt lat="41.64272109100856" lon="9.229850449458047"><ele>323.0</ele><time>2026-05-03T09:00:52.003Z</time></trkpt><trkpt lat="41.64254602000995" lon="9.229664147497184"><ele>324.0</ele><time>2026-05-03T09:00:53.003Z</time></trkpt><trkpt lat="41.64237238824368" lon="9.229498056259796"><ele>325.0</ele><time>2026-05-03T09:00:54.003Z</time></trkpt><trkpt lat="41.64223480209399" lon="9.22933436709792"><ele>326.0</ele><time>2026-05-03T09:00:55.003Z</time></trkpt><trkpt lat="41.642160195942445" lon="9.22913213017611"><ele>322.33333333333337</ele><time>2026-05-03T09:00:56.003Z</time></trkpt><trkpt lat="41.64208283554444" lon="9.228888960786"><ele>318.6666666666667</ele><time>2026-05-03T09:00:57.003Z</time></trkpt><trkpt lat="41.64197215995595" lon="9.228649146657334"><ele>315.0</ele><time>2026-05-03T09:00:58.003Z</time></trkpt><trkpt lat="41.64183381670873" lon="9.228451035200827"><ele>315.0</ele><time>2026-05-03T09:00:59.003Z</time></trkpt><trkpt lat="41.6416731976048" lon="9.228330014732913"><ele>315.0</ele><time>2026-05-03T09:01:00.003Z</time></trkpt><trkpt lat="41.64153103305986" lon="9.228226827033891"><ele>315.0</ele><time>2026-05-03T09:01:01.003Z</time></trkpt><trkpt lat="41.64146687692279" lon="9.228062394519148"><ele>322.0</ele><time>2026-05-03T09:01:02.003Z</time></trkpt><trkpt lat="41.64143652278967" lon="9.227864568020562"><ele>329.0</ele><time>2026-05-03T09:01:02.998Z</time></trkpt><trkpt lat="41.64138170424027" lon="9.227672277588946"><ele>336.0</ele><time>2026-05-03T09:01:03.998Z</time></trkpt><trkpt lat="41.64129775665916" lon="9.227498769876677"><ele>336.0</ele><time>2026-05-03T09:01:04.999Z</time></trkpt><trkpt lat="41.64114821094209" lon="9.227389789241824"><ele>336.0</ele><time>2026-05-03T09:01:05.999Z</time></trkpt><trkpt lat="41.64096526488051" lon="9.22736276420079"><ele>336.0</ele><time>2026-05-03T09:01:06.999Z</time></trkpt><trkpt lat="41.64080077707835" lon="9.227310841550947"><ele>336.75</ele><time>2026-05-03T09:01:07.999Z</time></trkpt><trkpt lat="41.64067005222647" lon="9.227234111468809"><ele>337.5</ele><time>2026-05-03T09:01:08.999Z</time></trkpt><trkpt lat="41.64060289878945" lon="9.22709317835753"><ele>338.25</ele><time>2026-05-03T09:01:09.999Z</time></trkpt><trkpt lat="41.640539723581135" lon="9.226905550763606"><ele>339.0</ele><time>2026-05-03T09:01:10.999Z</time></trkpt><trkpt lat="41.64045519552998" lon="9.226691502294262"><ele>339.0</ele><time>2026-05-03T09:01:11.999Z</time></trkpt><trkpt lat="41.64037852815323" lon="9.226484328572367"><ele>339.0</ele><time>2026-05-03T09:01:12.999Z</time></trkpt><trkpt lat="41.64031577112336" lon="9.226268155851452"><ele>339.0</ele><time>2026-05-03T09:01:13.999Z</time></trkpt><trkpt lat="41.64030282714965" lon="9.22600295108702"><ele>336.3333333333333</ele><time>2026-05-03T09:01:14.999Z</time></trkpt><trkpt lat="41.640264719729856" lon="9.225722030503482"><ele>333.66666666666663</ele><time>2026-05-03T09:01:15.999Z</time></trkpt><trkpt lat="41.64024573522488" lon="9.225447944410673"><ele>331.0</ele><time>2026-05-03T09:01:16.999Z</time></trkpt><trkpt lat="41.64024812466794" lon="9.225173440782457"><ele>331.0</ele><time>2026-05-03T09:01:17.999Z</time></trkpt><trkpt lat="41.64027961743783" lon="9.224902139731007"><ele>331.0</ele><time>2026-05-03T09:01:18.999Z</time></trkpt><trkpt lat="41.640311432476054" lon="9.224646755416787"><ele>331.0</ele><time>2026-05-03T09:01:19.999Z</time></trkpt><trkpt lat="41.640334645800856" lon="9.224418492556499"><ele>333.5</ele><time>2026-05-03T09:01:21Z</time></trkpt><trkpt lat="41.64036233319849" lon="9.224219344810392"><ele>336.0</ele><time>2026-05-03T09:01:22Z</time></trkpt><trkpt lat="41.64042311129321" lon="9.224051928840591"><ele>338.5</ele><time>2026-05-03T09:01:23Z</time></trkpt><trkpt lat="41.64054289557249" lon="9.223958844105125"><ele>341.0</ele><time>2026-05-03T09:01:24Z</time></trkpt><trkpt lat="41.64069747950404" lon="9.22384657136359"><ele>341.0</ele><time>2026-05-03T09:01:25Z</time></trkpt><trkpt lat="41.64086204430945" lon="9.223719567894129"><ele>341.0</ele><time>2026-05-03T09:01:26Z</time></trkpt><trkpt lat="41.64105237187535" lon="9.223623565663589"><ele>341.0</ele><time>2026-05-03T09:01:27Z</time></trkpt><trkpt lat="41.641252555541286" lon="9.223535006843912"><ele>344.0</ele><time>2026-05-03T09:01:28Z</time></trkpt><trkpt lat="41.641440067656625" lon="9.223468903392252"><ele>347.0</ele><time>2026-05-03T09:01:29Z</time></trkpt><trkpt lat="41.64160177952305" lon="9.223440292079323"><ele>350.0</ele><time>2026-05-03T09:01:30Z</time></trkpt><trkpt lat="41.641736584424855" lon="9.223461545165197"><ele>350.0</ele><time>2026-05-03T09:01:31Z</time></trkpt><trkpt lat="41.64182038972108" lon="9.223579559690723"><ele>350.0</ele><time>2026-05-03T09:01:32Z</time></trkpt><trkpt lat="41.64188492787799" lon="9.2237317624804"><ele>350.0</ele><time>2026-05-03T09:01:33Z</time></trkpt><trkpt lat="41.641975055715385" lon="9.223915941390644"><ele>350.0</ele><time>2026-05-03T09:01:34Z</time></trkpt><trkpt lat="41.64210642596137" lon="9.224075195900397"><ele>354.0</ele><time>2026-05-03T09:01:35Z</time></trkpt><trkpt lat="41.64226538849604" lon="9.224188198745475"><ele>358.0</ele><time>2026-05-03T09:01:36Z</time></trkpt><trkpt lat="41.6424336144123" lon="9.2242762292564"><ele>362.0</ele><time>2026-05-03T09:01:37Z</time></trkpt><trkpt lat="41.64258994576253" lon="9.224375643810621"><ele>362.0</ele><time>2026-05-03T09:01:38Z</time></trkpt><trkpt lat="41.64272533061103" lon="9.224502150112137"><ele>362.0</ele><time>2026-05-03T09:01:39Z</time></trkpt><trkpt lat="41.64281166499993" lon="9.2246892504848"><ele>362.0</ele><time>2026-05-03T09:01:40Z</time></trkpt><trkpt lat="41.64291022488731" lon="9.22481286089829"><ele>365.0</ele><time>2026-05-03T09:01:41.001Z</time></trkpt><trkpt lat="41.64301198638371" lon="9.224906852622823"><ele>368.0</ele><time>2026-05-03T09:01:42.001Z</time></trkpt><trkpt lat="41.64314247119829" lon="9.224944029281053"><ele>371.0</ele><time>2026-05-03T09:01:43.001Z</time></trkpt><trkpt lat="41.64329815597092" lon="9.224955834914104"><ele>374.0</ele><time>2026-05-03T09:01:44.001Z</time></trkpt><trkpt lat="41.64344136516023" lon="9.224971184683758"><ele>374.0</ele><time>2026-05-03T09:01:45.001Z</time></trkpt><trkpt lat="41.6435679979469" lon="9.225013864280303"><ele>374.0</ele><time>2026-05-03T09:01:46.001Z</time></trkpt><trkpt lat="41.64367742096118" lon="9.225064551825886"><ele>374.0</ele><time>2026-05-03T09:01:47.001Z</time></trkpt><trkpt lat="41.64376773085492" lon="9.225109061479298"><ele>374.0</ele><time>2026-05-03T09:01:48.001Z</time></trkpt><trkpt lat="41.6438472221274" lon="9.225119854849906"><ele>374.0</ele><time>2026-05-03T09:01:49.001Z</time></trkpt><trkpt lat="41.64391705440997" lon="9.22509228888194"><ele>376.4</ele><time>2026-05-03T09:01:50.001Z</time></trkpt><trkpt lat="41.64398954736628" lon="9.225021213962439"><ele>378.79999999999995</ele><time>2026-05-03T09:01:51.001Z</time></trkpt><trkpt lat="41.64404642931094" lon="9.224918619048443"><ele>381.20000000000005</ele><time>2026-05-03T09:01:52.001Z</time></trkpt><trkpt lat="41.64407176605911" lon="9.224785645089648"><ele>383.6</ele><time>2026-05-03T09:01:53.001Z</time></trkpt><trkpt lat="41.64406057381698" lon="9.224638001356027"><ele>386.0</ele><time>2026-05-03T09:01:54.001Z</time></trkpt><trkpt lat="41.6440198479787" lon="9.22447955515937"><ele>386.0</ele><time>2026-05-03T09:01:55.001Z</time></trkpt><trkpt lat="41.64399921253225" lon="9.224315595049374"><ele>386.0</ele><time>2026-05-03T09:01:56.001Z</time></trkpt><trkpt lat="41.644022707181165" lon="9.224166233033646"><ele>386.0</ele><time>2026-05-03T09:01:57.001Z</time></trkpt><trkpt lat="41.64408197964083" lon="9.224034978757217"><ele>386.0</ele><time>2026-05-03T09:01:58.001Z</time></trkpt><trkpt lat="41.64417094287013" lon="9.223928371006926"><ele>386.8</ele><time>2026-05-03T09:01:59.001Z</time></trkpt><trkpt lat="41.64427299806385" lon="9.223852917937338"><ele>387.6</ele><time>2026-05-03T09:02:00.001Z</time></trkpt><trkpt lat="41.64437400882956" lon="9.22379903589607"><ele>388.4</ele><time>2026-05-03T09:02:01.001Z</time></trkpt><trkpt lat="41.644456552296596" lon="9.223733810108541"><ele>389.2</ele><time>2026-05-03T09:02:02.001Z</time></trkpt><trkpt lat="41.64449155205631" lon="9.22361231316345"><ele>390.0</ele><time>2026-05-03T09:02:03.001Z</time></trkpt><trkpt lat="41.644476549805354" lon="9.223462105769935"><ele>390.0</ele><time>2026-05-03T09:02:04.001Z</time></trkpt><trkpt lat="41.64442143834121" lon="9.223300812971956"><ele>390.0</ele><time>2026-05-03T09:02:05.001Z</time></trkpt><trkpt lat="41.64434167295102" lon="9.223133095852527"><ele>390.0</ele><time>2026-05-03T09:02:06.001Z</time></trkpt><trkpt lat="41.64426816470326" lon="9.222970213879593"><ele>390.0</ele><time>2026-05-03T09:02:07.001Z</time></trkpt><trkpt lat="41.644213342029545" lon="9.222818821291233"><ele>392.2</ele><time>2026-05-03T09:02:08.001Z</time></trkpt><trkpt lat="41.64417208183789" lon="9.222697898977698"><ele>394.4</ele><time>2026-05-03T09:02:09.002Z</time></trkpt><trkpt lat="41.64413466075693" lon="9.222595928021759"><ele>396.6</ele><time>2026-05-03T09:02:10.002Z</time></trkpt><trkpt lat="41.644095584052856" lon="9.22248709551497"><ele>398.8</ele><time>2026-05-03T09:02:11.002Z</time></trkpt><trkpt lat="41.644055402877655" lon="9.222362346287106"><ele>401.0</ele><time>2026-05-03T09:02:12.002Z</time></trkpt><trkpt lat="41.644026601700844" lon="9.222229312370075"><ele>401.20000000000005</ele><time>2026-05-03T09:02:13.002Z</time></trkpt><trkpt lat="41.64402147623907" lon="9.222087068207095"><ele>401.40000000000003</ele><time>2026-05-03T09:02:14.002Z</time></trkpt><trkpt lat="41.64403525424835" lon="9.221957565558984"><ele>401.6</ele><time>2026-05-03T09:02:15.002Z</time></trkpt><trkpt lat="41.64405742811866" lon="9.221842057240087"><ele>401.8</ele><time>2026-05-03T09:02:16.002Z</time></trkpt><trkpt lat="41.64408631007683" lon="9.22173578302327"><ele>402.0</ele><time>2026-05-03T09:02:17.002Z</time></trkpt><trkpt lat="41.64413220774527" lon="9.221633465088187"><ele>402.0</ele><time>2026-05-03T09:02:18.002Z</time></trkpt><trkpt lat="41.644212326407114" lon="9.22152621831747"><ele>402.0</ele><time>2026-05-03T09:02:19.002Z</time></trkpt><trkpt lat="41.64432660361868" lon="9.221427031879077"><ele>402.0</ele><time>2026-05-03T09:02:20.002Z</time></trkpt><trkpt lat="41.644459280200984" lon="9.221322882195105"><ele>402.0</ele><time>2026-05-03T09:02:21.002Z</time></trkpt><trkpt lat="41.64459709399024" lon="9.221196269962102"><ele>406.66666666666663</ele><time>2026-05-03T09:02:22.002Z</time></trkpt><trkpt lat="41.64474447096307" lon="9.221036715539626"><ele>411.3333333333333</ele><time>2026-05-03T09:02:23.002Z</time></trkpt><trkpt lat="41.64488731849539" lon="9.220894233580667"><ele>416.0</ele><time>2026-05-03T09:02:24.002Z</time></trkpt><trkpt lat="41.64500474948343" lon="9.220723800658783"><ele>412.0</ele><time>2026-05-03T09:02:25.002Z</time></trkpt><trkpt lat="41.645091574070086" lon="9.220504324197478"><ele>408.0</ele><time>2026-05-03T09:02:26.002Z</time></trkpt><trkpt lat="41.64518763666369" lon="9.220291056014439"><ele>404.0</ele><time>2026-05-03T09:02:27.002Z</time></trkpt><trkpt lat="41.645279752217306" lon="9.220117101096402"><ele>405.5</ele><time>2026-05-03T09:02:28.002Z</time></trkpt><trkpt lat="41.6453630182415" lon="9.21996024133183"><ele>407.0</ele><time>2026-05-03T09:02:29.002Z</time></trkpt><trkpt lat="41.64549697624351" lon="9.219886952623764"><ele>408.5</ele><time>2026-05-03T09:02:30.002Z</time></trkpt><trkpt lat="41.64562920782411" lon="9.219782044477249"><ele>410.0</ele><time>2026-05-03T09:02:31.002Z</time></trkpt><trkpt lat="41.645796175607245" lon="9.219685543578567"><ele>410.0</ele><time>2026-05-03T09:02:32.002Z</time></trkpt><trkpt lat="41.64598323759785" lon="9.219557626267301"><ele>410.0</ele><time>2026-05-03T09:02:33.002Z</time></trkpt><trkpt lat="41.64619253594187" lon="9.21948680185682"><ele>410.0</ele><time>2026-05-03T09:02:34.002Z</time></trkpt><trkpt lat="41.64636919435151" lon="9.219394919387033"><ele>413.66666666666663</ele><time>2026-05-03T09:02:35.002Z</time></trkpt><trkpt lat="41.64652937178151" lon="9.219304811755833"><ele>417.33333333333337</ele><time>2026-05-03T09:02:36.002Z</time></trkpt><trkpt lat="41.64667548140141" lon="9.219146281387404"><ele>421.0</ele><time>2026-05-03T09:02:37.002Z</time></trkpt><trkpt lat="41.646808546664325" lon="9.218965025426494"><ele>421.0</ele><time>2026-05-03T09:02:38.002Z</time></trkpt><trkpt lat="41.64692540988917" lon="9.218797341165795"><ele>421.0</ele><time>2026-05-03T09:02:39.002Z</time></trkpt><trkpt lat="41.64704683287049" lon="9.218691925738986"><ele>421.0</ele><time>2026-05-03T09:02:40.002Z</time></trkpt><trkpt lat="41.647149911032855" lon="9.218584960883321"><ele>421.0</ele><time>2026-05-03T09:02:41.002Z</time></trkpt><trkpt lat="41.64726541163466" lon="9.218535871510305"><ele>427.5</ele><time>2026-05-03T09:02:42.003Z</time></trkpt><trkpt lat="41.64735454971665" lon="9.218458795980165"><ele>434.0</ele><time>2026-05-03T09:02:43.003Z</time></trkpt><trkpt lat="41.64742233619597" lon="9.218337046855039"><ele>440.5</ele><time>2026-05-03T09:02:44.003Z</time></trkpt><trkpt lat="41.647443277201425" lon="9.218177049068753"><ele>447.0</ele><time>2026-05-03T09:02:45.003Z</time></trkpt><trkpt lat="41.64740522624172" lon="9.218007581960421"><ele>450.66666666666663</ele><time>2026-05-03T09:02:46.003Z</time></trkpt><trkpt lat="41.64730622848152" lon="9.217829920871422"><ele>454.3333333333333</ele><time>2026-05-03T09:02:47.003Z</time></trkpt><trkpt lat="41.64720751719541" lon="9.217635381585252"><ele>458.0</ele><time>2026-05-03T09:02:48.003Z</time></trkpt><trkpt lat="41.64716739792874" lon="9.217407632903743"><ele>460.0</ele><time>2026-05-03T09:02:49.003Z</time></trkpt><trkpt lat="41.64713857407552" lon="9.217173405670694"><ele>462.0</ele><time>2026-05-03T09:02:50.003Z</time></trkpt><trkpt lat="41.64712605795521" lon="9.216938933143952"><ele>464.0</ele><time>2026-05-03T09:02:51.003Z</time></trkpt><trkpt lat="41.647148904421165" lon="9.216714507423443"><ele>464.0</ele><time>2026-05-03T09:02:52.003Z</time></trkpt><trkpt lat="41.64719850083767" lon="9.216520307187393"><ele>464.0</ele><time>2026-05-03T09:02:53.003Z</time></trkpt><trkpt lat="41.647245005690735" lon="9.21635293539499"><ele>464.0</ele><time>2026-05-03T09:02:54.003Z</time></trkpt><trkpt lat="41.64725433035643" lon="9.216197746452414"><ele>464.0</ele><time>2026-05-03T09:02:55.003Z</time></trkpt><trkpt lat="41.64718120346495" lon="9.216045046046219"><ele>466.25</ele><time>2026-05-03T09:02:56.003Z</time></trkpt><trkpt lat="41.647087370995145" lon="9.215922228667402"><ele>468.5</ele><time>2026-05-03T09:02:57.003Z</time></trkpt><trkpt lat="41.64697651418664" lon="9.215814495439195"><ele>470.75</ele><time>2026-05-03T09:02:58.003Z</time></trkpt><trkpt lat="41.64688200174696" lon="9.215693352998326"><ele>473.0</ele><time>2026-05-03T09:02:59.003Z</time></trkpt><trkpt lat="41.64685694953276" lon="9.215520374943631"><ele>466.0</ele><time>2026-05-03T09:03:00.003Z</time></trkpt><trkpt lat="41.646847077510344" lon="9.215314440021455"><ele>459.0</ele><time>2026-05-03T09:03:01.003Z</time></trkpt><trkpt lat="41.64687212502251" lon="9.215098476430635"><ele>452.0</ele><time>2026-05-03T09:03:02.003Z</time></trkpt><trkpt lat="41.646931836091184" lon="9.214880777078685"><ele>459.66666666666663</ele><time>2026-05-03T09:03:03.003Z</time></trkpt><trkpt lat="41.64701624103406" lon="9.21468646906809"><ele>467.33333333333337</ele><time>2026-05-03T09:03:04.003Z</time></trkpt><trkpt lat="41.6471218983842" lon="9.214545782420538"><ele>475.0</ele><time>2026-05-03T09:03:05.003Z</time></trkpt><trkpt lat="41.64725273594716" lon="9.214513517487308"><ele>475.0</ele><time>2026-05-03T09:03:06.003Z</time></trkpt><trkpt lat="41.64738935987401" lon="9.21448922551598"><ele>475.0</ele><time>2026-05-03T09:03:07.003Z</time></trkpt><trkpt lat="41.647527931633626" lon="9.214444164193523"><ele>475.0</ele><time>2026-05-03T09:03:08.003Z</time></trkpt><trkpt lat="41.64763163402624" lon="9.214346137204048"><ele>475.0</ele><time>2026-05-03T09:03:08.998Z</time></trkpt><trkpt lat="41.64770027343285" lon="9.214180938793735"><ele>477.6666666666667</ele><time>2026-05-03T09:03:09.999Z</time></trkpt><trkpt lat="41.64772978347206" lon="9.213974402919643"><ele>480.33333333333337</ele><time>2026-05-03T09:03:10.999Z</time></trkpt><trkpt lat="41.647727601341884" lon="9.213746726312289"><ele>483.0</ele><time>2026-05-03T09:03:11.999Z</time></trkpt><trkpt lat="41.64770889719236" lon="9.213553571636899"><ele>483.0</ele><time>2026-05-03T09:03:12.999Z</time></trkpt><trkpt lat="41.647695351371205" lon="9.213415172150816"><ele>482.99999999999994</ele><time>2026-05-03T09:03:13.999Z</time></trkpt><trkpt lat="41.64766896783171" lon="9.213299778928738"><ele>482.99999999999994</ele><time>2026-05-03T09:03:14.999Z</time></trkpt><trkpt lat="41.647608731076176" lon="9.213193979193964"><ele>483.0</ele><time>2026-05-03T09:03:15.999Z</time></trkpt><trkpt lat="41.64751461603413" lon="9.213161230209623"><ele>483.0</ele><time>2026-05-03T09:03:16.999Z</time></trkpt><trkpt lat="41.647402067829546" lon="9.213193526519355"><ele>483.0</ele><time>2026-05-03T09:03:17.999Z</time></trkpt><trkpt lat="41.64730249068235" lon="9.213304044433807"><ele>483.0</ele><time>2026-05-03T09:03:18.999Z</time></trkpt><trkpt lat="41.647209523197525" lon="9.213464936330164"><ele>483.0</ele><time>2026-05-03T09:03:19.999Z</time></trkpt><trkpt lat="41.64709079820684" lon="9.213575614451383"><ele>483.0</ele><time>2026-05-03T09:03:20.999Z</time></trkpt><trkpt lat="41.64698207372453" lon="9.213613262676663"><ele>483.66666666666663</ele><time>2026-05-03T09:03:21.999Z</time></trkpt><trkpt lat="41.6468737611822" lon="9.213576728877992"><ele>484.3333333333333</ele><time>2026-05-03T09:03:22.999Z</time></trkpt><trkpt lat="41.646732259711" lon="9.213499335804718"><ele>485.0</ele><time>2026-05-03T09:03:23.999Z</time></trkpt><trkpt lat="41.64656266441623" lon="9.213390453318738"><ele>485.0</ele><time>2026-05-03T09:03:24.999Z</time></trkpt><trkpt lat="41.64638657886307" lon="9.21325100829863"><ele>485.0</ele><time>2026-05-03T09:03:25.999Z</time></trkpt><trkpt lat="41.64622395671118" lon="9.21305865273995"><ele>485.0</ele><time>2026-05-03T09:03:27Z</time></trkpt><trkpt lat="41.64608090310626" lon="9.21285037440776"><ele>488.3333333333333</ele><time>2026-05-03T09:03:28Z</time></trkpt><trkpt lat="41.6459786987304" lon="9.21264404248173"><ele>491.66666666666663</ele><time>2026-05-03T09:03:29Z</time></trkpt><trkpt lat="41.645879495354926" lon="9.212442088392773"><ele>495.0</ele><time>2026-05-03T09:03:30Z</time></trkpt><trkpt lat="41.64581303512295" lon="9.212245023306444"><ele>499.75</ele><time>2026-05-03T09:03:31Z</time></trkpt><trkpt lat="41.64575071511503" lon="9.212088993640585"><ele>504.5</ele><time>2026-05-03T09:03:32Z</time></trkpt><trkpt lat="41.64566734145477" lon="9.211986371490726"><ele>509.25</ele><time>2026-05-03T09:03:33Z</time></trkpt><trkpt lat="41.645555010167705" lon="9.21195883937132"><ele>514.0</ele><time>2026-05-03T09:03:34Z</time></trkpt><trkpt lat="41.64542965131804" lon="9.212008109715011"><ele>513.6666666666667</ele><time>2026-05-03T09:03:35Z</time></trkpt><trkpt lat="41.64529124344288" lon="9.212118674522154"><ele>513.3333333333334</ele><time>2026-05-03T09:03:36Z</time></trkpt><trkpt lat="41.645129405427355" lon="9.212179498941246"><ele>513.0</ele><time>2026-05-03T09:03:37Z</time></trkpt><trkpt lat="41.64495904753193" lon="9.21219440373097"><ele>513.0</ele><time>2026-05-03T09:03:38Z</time></trkpt><trkpt lat="41.644795203138244" lon="9.212172630978287"><ele>513.0</ele><time>2026-05-03T09:03:39Z</time></trkpt><trkpt lat="41.644640404814986" lon="9.212104005451298"><ele>513.0</ele><time>2026-05-03T09:03:40Z</time></trkpt><trkpt lat="41.644496789787006" lon="9.211999182846778"><ele>511.0</ele><time>2026-05-03T09:03:41Z</time></trkpt><trkpt lat="41.64436268307711" lon="9.211866994337196"><ele>509.0</ele><time>2026-05-03T09:03:42Z</time></trkpt><trkpt lat="41.64423690164539" lon="9.211712048391998"><ele>507.0</ele><time>2026-05-03T09:03:43Z</time></trkpt><trkpt lat="41.64412099944544" lon="9.21151234775757"><ele>513.3333333333334</ele><time>2026-05-03T09:03:44Z</time></trkpt><trkpt lat="41.6440227886735" lon="9.211279559132063"><ele>519.6666666666667</ele><time>2026-05-03T09:03:45Z</time></trkpt><trkpt lat="41.64392260117995" lon="9.211011410082769"><ele>526.0</ele><time>2026-05-03T09:03:46.001Z</time></trkpt><trkpt lat="41.64383118333841" lon="9.210745037252018"><ele>528.3333333333334</ele><time>2026-05-03T09:03:47.001Z</time></trkpt><trkpt lat="41.643769079515685" lon="9.210477301236702"><ele>530.6666666666666</ele><time>2026-05-03T09:03:48.001Z</time></trkpt><trkpt lat="41.64374742365949" lon="9.21016755431355"><ele>533.0</ele><time>2026-05-03T09:03:49.001Z</time></trkpt><trkpt lat="41.643706080988004" lon="9.209836518562229"><ele>536.5</ele><time>2026-05-03T09:03:50.001Z</time></trkpt><trkpt lat="41.64368033986478" lon="9.209529341741137"><ele>540.0</ele><time>2026-05-03T09:03:51.001Z</time></trkpt><trkpt lat="41.643765174543944" lon="9.209251464241357"><ele>542.0</ele><time>2026-05-03T09:03:52.001Z</time></trkpt><trkpt lat="41.643793906948744" lon="9.20893335096937"><ele>544.0</ele><time>2026-05-03T09:03:53.001Z</time></trkpt><trkpt lat="41.64376734743444" lon="9.208660065791664"><ele>546.0</ele><time>2026-05-03T09:03:54.001Z</time></trkpt><trkpt lat="41.64370040206571" lon="9.208406835696914"><ele>546.0</ele><time>2026-05-03T09:03:55.001Z</time></trkpt><trkpt lat="41.64370650084445" lon="9.20817323099666"><ele>546.0</ele><time>2026-05-03T09:03:56.001Z</time></trkpt><trkpt lat="41.64373135783985" lon="9.207897269708429"><ele>546.0</ele><time>2026-05-03T09:03:57.001Z</time></trkpt><trkpt lat="41.64374017446362" lon="9.20759647817728"><ele>551.0</ele><time>2026-05-03T09:03:58.001Z</time></trkpt><trkpt lat="41.643768491901795" lon="9.207285094550702"><ele>556.0</ele><time>2026-05-03T09:03:59.001Z</time></trkpt><trkpt lat="41.6437644692658" lon="9.207006174367503"><ele>561.0</ele><time>2026-05-03T09:04:00.001Z</time></trkpt><trkpt lat="41.643677414234226" lon="9.206752292777317"><ele>556.6666666666666</ele><time>2026-05-03T09:04:01.001Z</time></trkpt><trkpt lat="41.64355647939375" lon="9.206511972882577"><ele>552.3333333333333</ele><time>2026-05-03T09:04:02.001Z</time></trkpt><trkpt lat="41.64343729603964" lon="9.206286331415669"><ele>548.0</ele><time>2026-05-03T09:04:03.001Z</time></trkpt><trkpt lat="41.64331436624997" lon="9.206086773607502"><ele>548.0</ele><time>2026-05-03T09:04:04.001Z</time></trkpt><trkpt lat="41.64319651382049" lon="9.205913382820656"><ele>548.0</ele><time>2026-05-03T09:04:05.001Z</time></trkpt><trkpt lat="41.64312927773558" lon="9.205780299906994"><ele>548.0</ele><time>2026-05-03T09:04:06.001Z</time></trkpt><trkpt lat="41.643118958529236" lon="9.205659845453185"><ele>548.0</ele><time>2026-05-03T09:04:07.001Z</time></trkpt><trkpt lat="41.64316817644109" lon="9.205515840060814"><ele>545.0</ele><time>2026-05-03T09:04:08.001Z</time></trkpt><trkpt lat="41.64329570827181" lon="9.20538376882743"><ele>542.0</ele><time>2026-05-03T09:04:09.001Z</time></trkpt><trkpt lat="41.64343954721168" lon="9.205215543258403"><ele>539.0</ele><time>2026-05-03T09:04:10.001Z</time></trkpt><trkpt lat="41.6435974857272" lon="9.205058168164733"><ele>540.3333333333333</ele><time>2026-05-03T09:04:11.001Z</time></trkpt><trkpt lat="41.64371610135479" lon="9.204871707014908"><ele>541.6666666666666</ele><time>2026-05-03T09:04:12.001Z</time></trkpt><trkpt lat="41.6438041009367" lon="9.204696454357409"><ele>543.0</ele><time>2026-05-03T09:04:13.001Z</time></trkpt><trkpt lat="41.643906446385756" lon="9.204575450054161"><ele>543.0</ele><time>2026-05-03T09:04:14.001Z</time></trkpt><trkpt lat="41.64401216776659" lon="9.20460678035709"><ele>543.0</ele><time>2026-05-03T09:04:15.002Z</time></trkpt><trkpt lat="41.64408096562727" lon="9.204697131352724"><ele>543.0</ele><time>2026-05-03T09:04:16.002Z</time></trkpt><trkpt lat="41.644145520974476" lon="9.204844519718067"><ele>543.0</ele><time>2026-05-03T09:04:17.002Z</time></trkpt><trkpt lat="41.644264601713225" lon="9.205024645592859"><ele>546.3333333333334</ele><time>2026-05-03T09:04:18.002Z</time></trkpt><trkpt lat="41.64442448601731" lon="9.20519604470221"><ele>549.6666666666667</ele><time>2026-05-03T09:04:19.002Z</time></trkpt><trkpt lat="41.64455004557339" lon="9.205391816072842"><ele>553.0</ele><time>2026-05-03T09:04:20.002Z</time></trkpt><trkpt lat="41.64463994336953" lon="9.205580506455691"><ele>556.6666666666667</ele><time>2026-05-03T09:04:21.002Z</time></trkpt><trkpt lat="41.64468150034965" lon="9.205764287520116"><ele>560.3333333333334</ele><time>2026-05-03T09:04:22.002Z</time></trkpt><trkpt lat="41.64473457590818" lon="9.205970790669971"><ele>564.0</ele><time>2026-05-03T09:04:23.002Z</time></trkpt><trkpt lat="41.644816016150195" lon="9.206136996752583"><ele>564.0</ele><time>2026-05-03T09:04:24.002Z</time></trkpt><trkpt lat="41.64493850185985" lon="9.206269235093238"><ele>564.0</ele><time>2026-05-03T09:04:25.002Z</time></trkpt><trkpt lat="41.64510459516199" lon="9.206343452097267"><ele>564.0</ele><time>2026-05-03T09:04:26.002Z</time></trkpt><trkpt lat="41.645273053157254" lon="9.20640555312442"><ele>567.6666666666666</ele><time>2026-05-03T09:04:27.002Z</time></trkpt><trkpt lat="41.645453738502155" lon="9.206477324382035"><ele>571.3333333333333</ele><time>2026-05-03T09:04:28.002Z</time></trkpt><trkpt lat="41.645635702737344" lon="9.206547965413236"><ele>575.0</ele><time>2026-05-03T09:04:29.002Z</time></trkpt><trkpt lat="41.6458158762048" lon="9.206656812213845"><ele>575.3333333333333</ele><time>2026-05-03T09:04:30.002Z</time></trkpt><trkpt lat="41.64597413595626" lon="9.206820623566559"><ele>575.6666666666666</ele><time>2026-05-03T09:04:31.002Z</time></trkpt><trkpt lat="41.6461238227613" lon="9.206999623142432"><ele>576.0</ele><time>2026-05-03T09:04:32.002Z</time></trkpt><trkpt lat="41.64625266161919" lon="9.20716838650281"><ele>578.25</ele><time>2026-05-03T09:04:33.002Z</time></trkpt><trkpt lat="41.64635569177258" lon="9.20731734453469"><ele>580.5</ele><time>2026-05-03T09:04:34.002Z</time></trkpt><trkpt lat="41.646431382805346" lon="9.207449848221662"><ele>582.75</ele><time>2026-05-03T09:04:35.002Z</time></trkpt><trkpt lat="41.64645483665167" lon="9.207628413832754"><ele>585.0</ele><time>2026-05-03T09:04:36.002Z</time></trkpt><trkpt lat="41.64649423749832" lon="9.207813262321412"><ele>585.0</ele><time>2026-05-03T09:04:37.002Z</time></trkpt><trkpt lat="41.64653886646957" lon="9.207965856550919"><ele>585.0</ele><time>2026-05-03T09:04:38.002Z</time></trkpt><trkpt lat="41.64663800900368" lon="9.20804323194051"><ele>585.0</ele><time>2026-05-03T09:04:39.002Z</time></trkpt><trkpt lat="41.64676596346866" lon="9.208044961050843"><ele>585.0</ele><time>2026-05-03T09:04:40.002Z</time></trkpt><trkpt lat="41.64689282718648" lon="9.207970339149096"><ele>590.3333333333334</ele><time>2026-05-03T09:04:41.002Z</time></trkpt><trkpt lat="41.64703377212444" lon="9.207831391984785"><ele>595.6666666666667</ele><time>2026-05-03T09:04:42.002Z</time></trkpt><trkpt lat="41.64713358874675" lon="9.207641790076773"><ele>601.0</ele><time>2026-05-03T09:04:43.002Z</time></trkpt><trkpt lat="41.64721376514525" lon="9.207451309230226"><ele>603.0</ele><time>2026-05-03T09:04:44.002Z</time></trkpt><trkpt lat="41.647260754952995" lon="9.207260797700837"><ele>605.0</ele><time>2026-05-03T09:04:45.002Z</time></trkpt><trkpt lat="41.64725077331148" lon="9.207078754272954"><ele>607.0</ele><time>2026-05-03T09:04:46.002Z</time></trkpt><trkpt lat="41.64717153995123" lon="9.20693187937003"><ele>609.0</ele><time>2026-05-03T09:04:47.003Z</time></trkpt><trkpt lat="41.647054873430335" lon="9.206785978967233"><ele>609.0</ele><time>2026-05-03T09:04:48.003Z</time></trkpt><trkpt lat="41.64699079579558" lon="9.206567285344315"><ele>609.0</ele><time>2026-05-03T09:04:49.003Z</time></trkpt><trkpt lat="41.64698352350538" lon="9.206295677907045"><ele>609.0</ele><time>2026-05-03T09:04:50.003Z</time></trkpt><trkpt lat="41.64694426091706" lon="9.20598372509718"><ele>608.5</ele><time>2026-05-03T09:04:51.003Z</time></trkpt><trkpt lat="41.646882217459535" lon="9.205675460681347"><ele>608.0</ele><time>2026-05-03T09:04:52.003Z</time></trkpt><trkpt lat="41.64681166965996" lon="9.20535365432241"><ele>608.0</ele><time>2026-05-03T09:04:53.003Z</time></trkpt><trkpt lat="41.64675387562675" lon="9.205036783933794"><ele>608.0</ele><time>2026-05-03T09:04:54.003Z</time></trkpt><trkpt lat="41.646727501373945" lon="9.204783312136835"><ele>608.0</ele><time>2026-05-03T09:04:55.003Z</time></trkpt><trkpt lat="41.646747285296264" lon="9.204655310859504"><ele>607.4</ele><time>2026-05-03T09:04:56.003Z</time></trkpt><trkpt lat="41.646825615394434" lon="9.20451452244505"><ele>606.8</ele><time>2026-05-03T09:04:58.003Z</time></trkpt><trkpt lat="41.646930110759655" lon="9.20451003328886"><ele>606.2</ele><time>2026-05-03T09:04:59.003Z</time></trkpt><trkpt lat="41.64701558148866" lon="9.204582027006534"><ele>605.6</ele><time>2026-05-03T09:05:00.003Z</time></trkpt><trkpt lat="41.64706662581155" lon="9.20470866369416"><ele>605.0</ele><time>2026-05-03T09:05:01.003Z</time></trkpt><trkpt lat="41.64702953406507" lon="9.204881248458163"><ele>613.3333333333333</ele><time>2026-05-03T09:05:02.003Z</time></trkpt><trkpt lat="41.64703366043368" lon="9.205069824818512"><ele>621.6666666666666</ele><time>2026-05-03T09:05:03.003Z</time></trkpt><trkpt lat="41.647081340486295" lon="9.205278544187356"><ele>630.0</ele><time>2026-05-03T09:05:04.003Z</time></trkpt><trkpt lat="41.647183473026075" lon="9.205474114456663"><ele>627.6666666666666</ele><time>2026-05-03T09:05:05.003Z</time></trkpt><trkpt lat="41.647340448163874" lon="9.205672093050078"><ele>625.3333333333333</ele><time>2026-05-03T09:05:06.003Z</time></trkpt><trkpt lat="41.647533102422216" lon="9.205840038761853"><ele>623.0</ele><time>2026-05-03T09:05:07.003Z</time></trkpt><trkpt lat="41.647677999920944" lon="9.205996218218276"><ele>626.5</ele><time>2026-05-03T09:05:08.003Z</time></trkpt><trkpt lat="41.64779860783724" lon="9.206081304221916"><ele>630.0</ele><time>2026-05-03T09:05:09.003Z</time></trkpt><trkpt lat="41.64791972818558" lon="9.20610250486552"><ele>633.5</ele><time>2026-05-03T09:05:10.003Z</time></trkpt><trkpt lat="41.648065104889504" lon="9.206021595706147"><ele>637.0</ele><time>2026-05-03T09:05:11.003Z</time></trkpt><trkpt lat="41.64824111149273" lon="9.205934958694753"><ele>637.0</ele><time>2026-05-03T09:05:12.003Z</time></trkpt><trkpt lat="41.64841374439356" lon="9.205964760324596"><ele>637.0</ele><time>2026-05-03T09:05:13.003Z</time></trkpt><trkpt lat="41.64856503624338" lon="9.206010795340204"><ele>637.0</ele><time>2026-05-03T09:05:14.003Z</time></trkpt><trkpt lat="41.64865501759907" lon="9.206109267522383"><ele>637.0</ele><time>2026-05-03T09:05:14.998Z</time></trkpt><trkpt lat="41.64870430255825" lon="9.206243368440102"><ele>633.6666666666667</ele><time>2026-05-03T09:05:15.999Z</time></trkpt><trkpt lat="41.64865402669259" lon="9.206433643845015"><ele>630.3333333333334</ele><time>2026-05-03T09:05:16.999Z</time></trkpt><trkpt lat="41.64862345674938" lon="9.20666571141606"><ele>627.0</ele><time>2026-05-03T09:05:17.999Z</time></trkpt><trkpt lat="41.648629861824226" lon="9.206934896481698"><ele>635.3333333333334</ele><time>2026-05-03T09:05:18.999Z</time></trkpt><trkpt lat="41.648644906875916" lon="9.20718418971616"><ele>643.6666666666667</ele><time>2026-05-03T09:05:19.999Z</time></trkpt><trkpt lat="41.64868621407955" lon="9.20739246016568"><ele>652.0</ele><time>2026-05-03T09:05:20.999Z</time></trkpt><trkpt lat="41.64878031668664" lon="9.207555582541218"><ele>652.0</ele><time>2026-05-03T09:05:21.999Z</time></trkpt><trkpt lat="41.64891931092247" lon="9.207734117075354"><ele>652.0</ele><time>2026-05-03T09:05:22.999Z</time></trkpt><trkpt lat="41.649069512614524" lon="9.207919607443607"><ele>652.0</ele><time>2026-05-03T09:05:23.999Z</time></trkpt><trkpt lat="41.64920096403838" lon="9.208078247074809"><ele>650.5</ele><time>2026-05-03T09:05:24.999Z</time></trkpt><trkpt lat="41.64932329525779" lon="9.208193662499337"><ele>649.0</ele><time>2026-05-03T09:05:25.999Z</time></trkpt><trkpt lat="41.64945485095237" lon="9.208245840852424"><ele>647.5</ele><time>2026-05-03T09:05:26.999Z</time></trkpt><trkpt lat="41.64959264868128" lon="9.20822728444163"><ele>646.0</ele><time>2026-05-03T09:05:27.999Z</time></trkpt><trkpt lat="41.649777253586464" lon="9.2081788710262"><ele>646.0</ele><time>2026-05-03T09:05:28.999Z</time></trkpt><trkpt lat="41.64993808777859" lon="9.208179757056461"><ele>646.0</ele><time>2026-05-03T09:05:29.999Z</time></trkpt><trkpt lat="41.65008058957469" lon="9.208167066384153"><ele>646.0</ele><time>2026-05-03T09:05:30.999Z</time></trkpt><trkpt lat="41.65018905270565" lon="9.2080655469487"><ele>646.0</ele><time>2026-05-03T09:05:32Z</time></trkpt><trkpt lat="41.65029478701947" lon="9.207885453851045"><ele>650.5</ele><time>2026-05-03T09:05:33Z</time></trkpt><trkpt lat="41.65044323400939" lon="9.207812494666404"><ele>655.0</ele><time>2026-05-03T09:05:34Z</time></trkpt><trkpt lat="41.650576591607816" lon="9.207732802315956"><ele>659.5</ele><time>2026-05-03T09:05:35Z</time></trkpt><trkpt lat="41.65067492054168" lon="9.207644420515694"><ele>664.0</ele><time>2026-05-03T09:05:36Z</time></trkpt><trkpt lat="41.65072593334509" lon="9.207476456082109"><ele>666.75</ele><time>2026-05-03T09:05:37Z</time></trkpt><trkpt lat="41.65073832441763" lon="9.20725654466091"><ele>669.5</ele><time>2026-05-03T09:05:38Z</time></trkpt><trkpt lat="41.65081442708439" lon="9.207111919312586"><ele>672.25</ele><time>2026-05-03T09:05:39Z</time></trkpt><trkpt lat="41.650911410298704" lon="9.20702302221811"><ele>675.0</ele><time>2026-05-03T09:05:40Z</time></trkpt><trkpt lat="41.651052387399744" lon="9.207019728505308"><ele>678.0</ele><time>2026-05-03T09:05:41Z</time></trkpt><trkpt lat="41.6511934279261" lon="9.207022143666853"><ele>681.0</ele><time>2026-05-03T09:05:42Z</time></trkpt><trkpt lat="41.6513273829903" lon="9.207032543626767"><ele>684.0</ele><time>2026-05-03T09:05:43Z</time></trkpt><trkpt lat="41.65142486258568" lon="9.207052734248109"><ele>687.0</ele><time>2026-05-03T09:05:44Z</time></trkpt><trkpt lat="41.65150868213141" lon="9.207110742776795"><ele>687.0</ele><time>2026-05-03T09:05:45Z</time></trkpt><trkpt lat="41.65154568436146" lon="9.207238700485624"><ele>687.0</ele><time>2026-05-03T09:05:46Z</time></trkpt><trkpt lat="41.65153866791022" lon="9.207382815514146"><ele>687.0</ele><time>2026-05-03T09:05:47Z</time></trkpt><trkpt lat="41.65151992895681" lon="9.207527757633503"><ele>687.0</ele><time>2026-05-03T09:05:48Z</time></trkpt><trkpt lat="41.65155466153601" lon="9.207664248026372"><ele>687.0</ele><time>2026-05-03T09:05:49Z</time></trkpt><trkpt lat="41.65165177087377" lon="9.20778028214923"><ele>688.5</ele><time>2026-05-03T09:05:50Z</time></trkpt><trkpt lat="41.65175511227333" lon="9.207870855605758"><ele>690.0</ele><time>2026-05-03T09:05:51.001Z</time></trkpt><trkpt lat="41.65184627922318" lon="9.207962293119861"><ele>691.5</ele><time>2026-05-03T09:05:52.001Z</time></trkpt><trkpt lat="41.65194545817686" lon="9.208068732496411"><ele>693.0</ele><time>2026-05-03T09:05:53.001Z</time></trkpt><trkpt lat="41.652045704155725" lon="9.20820352087107"><ele>693.0</ele><time>2026-05-03T09:05:54.001Z</time></trkpt><trkpt lat="41.65209350210542" lon="9.208409177362316"><ele>693.0</ele><time>2026-05-03T09:05:55.001Z</time></trkpt><trkpt lat="41.65209827422582" lon="9.208652106538604"><ele>693.0</ele><time>2026-05-03T09:05:56.001Z</time></trkpt><trkpt lat="41.65213596991756" lon="9.20892185093549"><ele>692.6666666666666</ele><time>2026-05-03T09:05:57.001Z</time></trkpt><trkpt lat="41.65217921355547" lon="9.209145450609597"><ele>692.3333333333333</ele><time>2026-05-03T09:05:58.001Z</time></trkpt><trkpt lat="41.65222388155764" lon="9.209363529222413"><ele>692.0</ele><time>2026-05-03T09:05:59.001Z</time></trkpt><trkpt lat="41.6522858781403" lon="9.209578065794979"><ele>692.0</ele><time>2026-05-03T09:06:00.001Z</time></trkpt><trkpt lat="41.65238478536204" lon="9.209764213987835"><ele>692.0</ele><time>2026-05-03T09:06:01.001Z</time></trkpt><trkpt lat="41.65251084243249" lon="9.209895664790988"><ele>692.0</ele><time>2026-05-03T09:06:02.001Z</time></trkpt><trkpt lat="41.65264712577138" lon="9.210002587230539"><ele>693.3333333333333</ele><time>2026-05-03T09:06:03.001Z</time></trkpt><trkpt lat="41.65279431190475" lon="9.210107718808146"><ele>694.6666666666666</ele><time>2026-05-03T09:06:04.001Z</time></trkpt><trkpt lat="41.65294113739334" lon="9.210216247463425"><ele>696.0</ele><time>2026-05-03T09:06:05.001Z</time></trkpt><trkpt lat="41.653093917260726" lon="9.210302589822609"><ele>696.0</ele><time>2026-05-03T09:06:06.001Z</time></trkpt><trkpt lat="41.653230414529226" lon="9.21039597230109"><ele>696.0</ele><time>2026-05-03T09:06:07.001Z</time></trkpt><trkpt lat="41.65332211740289" lon="9.210549156467433"><ele>696.0</ele><time>2026-05-03T09:06:08.001Z</time></trkpt><trkpt lat="41.653378706292955" lon="9.210756062612672"><ele>697.0</ele><time>2026-05-03T09:06:09.001Z</time></trkpt><trkpt lat="41.653445487450185" lon="9.21097091948686"><ele>698.0</ele><time>2026-05-03T09:06:10.001Z</time></trkpt><trkpt lat="41.653506231203906" lon="9.211144101506179"><ele>699.0</ele><time>2026-05-03T09:06:11.001Z</time></trkpt><trkpt lat="41.653568348376425" lon="9.21129549058645"><ele>700.0</ele><time>2026-05-03T09:06:12.001Z</time></trkpt><trkpt lat="41.6536490174483" lon="9.211401010927018"><ele>700.0</ele><time>2026-05-03T09:06:13.001Z</time></trkpt><trkpt lat="41.6537467595683" lon="9.211448379327072"><ele>700.0</ele><time>2026-05-03T09:06:14.001Z</time></trkpt><trkpt lat="41.65383875896145" lon="9.21141518031835"><ele>700.0</ele><time>2026-05-03T09:06:15.001Z</time></trkpt><trkpt lat="41.653915047559984" lon="9.21130837986154"><ele>700.0</ele><time>2026-05-03T09:06:16.001Z</time></trkpt><trkpt lat="41.65392661185267" lon="9.211123393635088"><ele>700.0</ele><time>2026-05-03T09:06:17.001Z</time></trkpt><trkpt lat="41.65389493936278" lon="9.210924836889177"><ele>700.0</ele><time>2026-05-03T09:06:18.001Z</time></trkpt><trkpt lat="41.65379959618852" lon="9.210735695208616"><ele>700.0</ele><time>2026-05-03T09:06:19.002Z</time></trkpt><trkpt lat="41.65368218912037" lon="9.210562443997292"><ele>700.0</ele><time>2026-05-03T09:06:20.002Z</time></trkpt><trkpt lat="41.65361552730189" lon="9.210395483754457"><ele>699.0</ele><time>2026-05-03T09:06:21.002Z</time></trkpt><trkpt lat="41.65362571473391" lon="9.21022064988299"><ele>698.0</ele><time>2026-05-03T09:06:22.002Z</time></trkpt><trkpt lat="41.653633344249" lon="9.21003182467437"><ele>697.0</ele><time>2026-05-03T09:06:23.002Z</time></trkpt><trkpt lat="41.653574731182324" lon="9.20987728059653"><ele>696.0</ele><time>2026-05-03T09:06:24.002Z</time></trkpt><trkpt lat="41.653424791838276" lon="9.209737282415997"><ele>701.6666666666666</ele><time>2026-05-03T09:06:25.002Z</time></trkpt><trkpt lat="41.65324445019877" lon="9.20962152501766"><ele>707.3333333333333</ele><time>2026-05-03T09:06:26.002Z</time></trkpt><trkpt lat="41.653089184038286" lon="9.209500338229999"><ele>713.0</ele><time>2026-05-03T09:06:27.002Z</time></trkpt><trkpt lat="41.65296160187346" lon="9.209358138748383"><ele>713.0</ele><time>2026-05-03T09:06:28.002Z</time></trkpt><trkpt lat="41.652851195906344" lon="9.20922018971243"><ele>713.0</ele><time>2026-05-03T09:06:29.002Z</time></trkpt><trkpt lat="41.65276888121384" lon="9.209087883013407"><ele>713.0</ele><time>2026-05-03T09:06:30.002Z</time></trkpt><trkpt lat="41.65275156401051" lon="9.208939675122982"><ele>713.0</ele><time>2026-05-03T09:06:31.002Z</time></trkpt><trkpt lat="41.65278930986191" lon="9.20878635988784"><ele>714.25</ele><time>2026-05-03T09:06:32.002Z</time></trkpt><trkpt lat="41.65286523143228" lon="9.20861375514937"><ele>715.5</ele><time>2026-05-03T09:06:33.002Z</time></trkpt><trkpt lat="41.65294680022981" lon="9.208445420603178"><ele>716.75</ele><time>2026-05-03T09:06:34.002Z</time></trkpt><trkpt lat="41.65302425338287" lon="9.208282428736382"><ele>718.0</ele><time>2026-05-03T09:06:35.002Z</time></trkpt><trkpt lat="41.653122869648044" lon="9.208135861178777"><ele>718.25</ele><time>2026-05-03T09:06:36.002Z</time></trkpt><trkpt lat="41.65323297396001" lon="9.208011904091297"><ele>718.5</ele><time>2026-05-03T09:06:37.002Z</time></trkpt><trkpt lat="41.653341056996624" lon="9.207910488037221"><ele>718.75</ele><time>2026-05-03T09:06:38.002Z</time></trkpt><trkpt lat="41.65339751461431" lon="9.207777453154197"><ele>719.0</ele><time>2026-05-03T09:06:39.002Z</time></trkpt><trkpt lat="41.653386060873494" lon="9.207615958581725"><ele>719.0</ele><time>2026-05-03T09:06:40.002Z</time></trkpt><trkpt lat="41.653316383704414" lon="9.207447516276481"><ele>719.0</ele><time>2026-05-03T09:06:41.002Z</time></trkpt><trkpt lat="41.6532095455533" lon="9.207304615894882"><ele>719.0</ele><time>2026-05-03T09:06:42.002Z</time></trkpt><trkpt lat="41.653071453558546" lon="9.207188922063335"><ele>723.6666666666666</ele><time>2026-05-03T09:06:43.002Z</time></trkpt><trkpt lat="41.65295792661581" lon="9.207034112831899"><ele>728.3333333333334</ele><time>2026-05-03T09:06:44.002Z</time></trkpt><trkpt lat="41.65288631918112" lon="9.206830452922826"><ele>733.0</ele><time>2026-05-03T09:06:45.002Z</time></trkpt><trkpt lat="41.652866850556094" lon="9.206583553176563"><ele>734.3333333333334</ele><time>2026-05-03T09:06:46.002Z</time></trkpt><trkpt lat="41.652833519743105" lon="9.206370648399359"><ele>735.6666666666666</ele><time>2026-05-03T09:06:47.002Z</time></trkpt><trkpt lat="41.65287023393942" lon="9.206157377500249"><ele>737.0</ele><time>2026-05-03T09:06:48.002Z</time></trkpt><trkpt lat="41.65291776344624" lon="9.205935921009976"><ele>737.0</ele><time>2026-05-03T09:06:49.002Z</time></trkpt><trkpt lat="41.653012698933104" lon="9.205748131903885"><ele>737.0</ele><time>2026-05-03T09:06:50.002Z</time></trkpt><trkpt lat="41.6531361645126" lon="9.205629770318987"><ele>737.0</ele><time>2026-05-03T09:06:51.002Z</time></trkpt><trkpt lat="41.653270315494375" lon="9.205498593635252"><ele>736.75</ele><time>2026-05-03T09:06:52.003Z</time></trkpt><trkpt lat="41.65341388647319" lon="9.20540741315534"><ele>736.5</ele><time>2026-05-03T09:06:53.003Z</time></trkpt><trkpt lat="41.653510853773525" lon="9.205292036412127"><ele>736.25</ele><time>2026-05-03T09:06:54.003Z</time></trkpt><trkpt lat="41.653551195344335" lon="9.205166357463415"><ele>736.0</ele><time>2026-05-03T09:06:55.003Z</time></trkpt><trkpt lat="41.65350417255269" lon="9.205017646942256"><ele>736.0</ele><time>2026-05-03T09:06:56.003Z</time></trkpt><trkpt lat="41.65339948618417" lon="9.204881337361641"><ele>736.0</ele><time>2026-05-03T09:06:57.003Z</time></trkpt><trkpt lat="41.65325469545499" lon="9.204783649754939"><ele>736.0</ele><time>2026-05-03T09:06:58.003Z</time></trkpt><trkpt lat="41.653108663270075" lon="9.204724206528116"><ele>739.5</ele><time>2026-05-03T09:06:59.003Z</time></trkpt><trkpt lat="41.65301400099494" lon="9.204628158781986"><ele>743.0</ele><time>2026-05-03T09:07:00.003Z</time></trkpt><trkpt lat="41.65298535846461" lon="9.204447466000296"><ele>746.5</ele><time>2026-05-03T09:07:01.003Z</time></trkpt><trkpt lat="41.652902054995174" lon="9.20426574193388"><ele>750.0</ele><time>2026-05-03T09:07:02.003Z</time></trkpt><trkpt lat="41.6528241397036" lon="9.204088186382066"><ele>748.3333333333334</ele><time>2026-05-03T09:07:03.003Z</time></trkpt><trkpt lat="41.652736056857044" lon="9.203916015540653"><ele>746.6666666666667</ele><time>2026-05-03T09:07:04.003Z</time></trkpt><trkpt lat="41.652668714832124" lon="9.203720584175478"><ele>745.0</ele><time>2026-05-03T09:07:05.003Z</time></trkpt><trkpt lat="41.65262623990439" lon="9.203504753897013"><ele>745.0</ele><time>2026-05-03T09:07:06.003Z</time></trkpt><trkpt lat="41.652603594311245" lon="9.203269569412306"><ele>745.0</ele><time>2026-05-03T09:07:07.003Z</time></trkpt><trkpt lat="41.65257831307677" lon="9.203039398282247"><ele>745.0</ele><time>2026-05-03T09:07:08.003Z</time></trkpt><trkpt lat="41.652565252081224" lon="9.202803526525816"><ele>748.0</ele><time>2026-05-03T09:07:09.003Z</time></trkpt><trkpt lat="41.65253311888609" lon="9.202554182029376"><ele>751.0</ele><time>2026-05-03T09:07:10.003Z</time></trkpt><trkpt lat="41.65249611891815" lon="9.202307830221702"><ele>754.0</ele><time>2026-05-03T09:07:11.003Z</time></trkpt><trkpt lat="41.652457831609716" lon="9.202099893515102"><ele>755.5</ele><time>2026-05-03T09:07:12.003Z</time></trkpt><trkpt lat="41.65240265527246" lon="9.201913213566"><ele>757.0</ele><time>2026-05-03T09:07:13.003Z</time></trkpt><trkpt lat="41.652367321902325" lon="9.201744894892045"><ele>758.5</ele><time>2026-05-03T09:07:14.003Z</time></trkpt><trkpt lat="41.6523698400587" lon="9.201546587823751"><ele>760.0</ele><time>2026-05-03T09:07:15.003Z</time></trkpt><trkpt lat="41.652381093262505" lon="9.201343580014836"><ele>762.0</ele><time>2026-05-03T09:07:16.003Z</time></trkpt><trkpt lat="41.65238581144572" lon="9.201165933066218"><ele>764.0</ele><time>2026-05-03T09:07:17.003Z</time></trkpt><trkpt lat="41.652395588233254" lon="9.201005773592557"><ele>766.0</ele><time>2026-05-03T09:07:18.003Z</time></trkpt><trkpt lat="41.65236905912487" lon="9.200836113611368"><ele>768.0</ele><time>2026-05-03T09:07:19.003Z</time></trkpt><trkpt lat="41.652307159051574" lon="9.2006460427165"><ele>776.3333333333333</ele><time>2026-05-03T09:07:20.003Z</time></trkpt><trkpt lat="41.65220394520315" lon="9.200452315765922"><ele>784.6666666666666</ele><time>2026-05-03T09:07:20.999Z</time></trkpt><trkpt lat="41.65209044774856" lon="9.200277325057892"><ele>793.0</ele><time>2026-05-03T09:07:21.999Z</time></trkpt><trkpt lat="41.651991181518405" lon="9.200090149797784"><ele>786.3333333333333</ele><time>2026-05-03T09:07:22.999Z</time></trkpt><trkpt lat="41.65193852768867" lon="9.199869972626164"><ele>779.6666666666667</ele><time>2026-05-03T09:07:23.999Z</time></trkpt><trkpt lat="41.65187202420964" lon="9.199659106753593"><ele>773.0</ele><time>2026-05-03T09:07:24.999Z</time></trkpt><trkpt lat="41.65182078950892" lon="9.199448306005433"><ele>773.0</ele><time>2026-05-03T09:07:25.999Z</time></trkpt><trkpt lat="41.65177710385223" lon="9.199223737455144"><ele>773.0</ele><time>2026-05-03T09:07:26.999Z</time></trkpt><trkpt lat="41.65173426433386" lon="9.19899532386022"><ele>773.0</ele><time>2026-05-03T09:07:27.999Z</time></trkpt><trkpt lat="41.65166030300915" lon="9.198762095086618"><ele>780.0</ele><time>2026-05-03T09:07:28.999Z</time></trkpt><trkpt lat="41.65153464747173" lon="9.198593307452137"><ele>787.0</ele><time>2026-05-03T09:07:29.999Z</time></trkpt><trkpt lat="41.651425461270605" lon="9.198407155029086"><ele>794.0</ele><time>2026-05-03T09:07:30.999Z</time></trkpt><trkpt lat="41.65133979974332" lon="9.198238506944717"><ele>800.6666666666667</ele><time>2026-05-03T09:07:31.999Z</time></trkpt><trkpt lat="41.65126782292568" lon="9.198054365034185"><ele>807.3333333333333</ele><time>2026-05-03T09:07:33Z</time></trkpt><trkpt lat="41.651220279054385" lon="9.197846068776752"><ele>814.0</ele><time>2026-05-03T09:07:34Z</time></trkpt><trkpt lat="41.65120424791146" lon="9.197659288324148"><ele>814.0</ele><time>2026-05-03T09:07:35Z</time></trkpt><trkpt lat="41.65117155556556" lon="9.197494237751874"><ele>814.0</ele><time>2026-05-03T09:07:36Z</time></trkpt><trkpt lat="41.65109339398465" lon="9.19737901268159"><ele>814.0</ele><time>2026-05-03T09:07:37Z</time></trkpt><trkpt lat="41.650967966923055" lon="9.197317774672483"><ele>814.0</ele><time>2026-05-03T09:07:38Z</time></trkpt><trkpt lat="41.65080912724177" lon="9.197295267566767"><ele>812.0</ele><time>2026-05-03T09:07:39Z</time></trkpt><trkpt lat="41.650661745001926" lon="9.197176158357015"><ele>810.0</ele><time>2026-05-03T09:07:40Z</time></trkpt><trkpt lat="41.6505150612765" lon="9.197068720655698"><ele>808.0</ele><time>2026-05-03T09:07:41Z</time></trkpt><trkpt lat="41.65038586083513" lon="9.196967235574792"><ele>805.75</ele><time>2026-05-03T09:07:42Z</time></trkpt><trkpt lat="41.6502718667104" lon="9.196846402351632"><ele>803.5</ele><time>2026-05-03T09:07:43Z</time></trkpt><trkpt lat="41.650164322437554" lon="9.19677043006912"><ele>801.25</ele><time>2026-05-03T09:07:44Z</time></trkpt><trkpt lat="41.65004569138211" lon="9.196805587452074"><ele>799.0</ele><time>2026-05-03T09:07:45Z</time></trkpt><trkpt lat="41.64995322664021" lon="9.196892625403406"><ele>799.0</ele><time>2026-05-03T09:07:46Z</time></trkpt><trkpt lat="41.64985393001722" lon="9.196980551271313"><ele>799.0</ele><time>2026-05-03T09:07:47Z</time></trkpt><trkpt lat="41.649747074469545" lon="9.196973221072332"><ele>799.0</ele><time>2026-05-03T09:07:48Z</time></trkpt><trkpt lat="41.64962893662962" lon="9.19693760062008"><ele>799.0</ele><time>2026-05-03T09:07:49Z</time></trkpt><trkpt lat="41.649490477793826" lon="9.196861188589029"><ele>800.0</ele><time>2026-05-03T09:07:50Z</time></trkpt><trkpt lat="41.64935869247185" lon="9.196743512208993"><ele>801.0</ele><time>2026-05-03T09:07:51Z</time></trkpt><trkpt lat="41.64921843370071" lon="9.196610588146386"><ele>802.0</ele><time>2026-05-03T09:07:52Z</time></trkpt><trkpt lat="41.64909266187419" lon="9.196478813594636"><ele>802.6</ele><time>2026-05-03T09:07:53Z</time></trkpt><trkpt lat="41.64898331227961" lon="9.196365668547164"><ele>803.2</ele><time>2026-05-03T09:07:54Z</time></trkpt><trkpt lat="41.648898935152516" lon="9.196268223565665"><ele>803.8</ele><time>2026-05-03T09:07:55.001Z</time></trkpt><trkpt lat="41.64886316953029" lon="9.196174250790325"><ele>804.4</ele><time>2026-05-03T09:07:56.001Z</time></trkpt><trkpt lat="41.64884263779081" lon="9.196082407434277"><ele>805.0</ele><time>2026-05-03T09:07:57.001Z</time></trkpt><trkpt lat="41.64889172975139" lon="9.19599243297294"><ele>805.0</ele><time>2026-05-03T09:07:58.001Z</time></trkpt><trkpt lat="41.64898701923663" lon="9.195936110212214"><ele>805.0</ele><time>2026-05-03T09:07:59.001Z</time></trkpt><trkpt lat="41.649099697854" lon="9.195924991506827"><ele>805.0</ele><time>2026-05-03T09:08:00.001Z</time></trkpt><trkpt lat="41.649229342576334" lon="9.196012028725466"><ele>805.0</ele><time>2026-05-03T09:08:01.001Z</time></trkpt><trkpt lat="41.64937908848009" lon="9.19605335276424"><ele>807.3333333333333</ele><time>2026-05-03T09:08:02.001Z</time></trkpt><trkpt lat="41.64952241467958" lon="9.196082859526753"><ele>809.6666666666667</ele><time>2026-05-03T09:08:03.001Z</time></trkpt><trkpt lat="41.649666543521406" lon="9.196044006496184"><ele>812.0</ele><time>2026-05-03T09:08:04.001Z</time></trkpt><trkpt lat="41.64980483835932" lon="9.195924258368295"><ele>812.0</ele><time>2026-05-03T09:08:05.001Z</time></trkpt><trkpt lat="41.64989611909448" lon="9.195799698295428"><ele>812.0</ele><time>2026-05-03T09:08:06.001Z</time></trkpt><trkpt lat="41.65000194234441" lon="9.195763145870702"><ele>812.0</ele><time>2026-05-03T09:08:07.001Z</time></trkpt><trkpt lat="41.650085767692005" lon="9.195853117779603"><ele>812.0</ele><time>2026-05-03T09:08:08.001Z</time></trkpt><trkpt lat="41.65020129848735" lon="9.195933301812953"><ele>816.75</ele><time>2026-05-03T09:08:09.001Z</time></trkpt><trkpt lat="41.650323002185836" lon="9.196019570033155"><ele>821.5</ele><time>2026-05-03T09:08:10.001Z</time></trkpt><trkpt lat="41.650431514289345" lon="9.196116150075945"><ele>826.25</ele><time>2026-05-03T09:08:11.001Z</time></trkpt><trkpt lat="41.650520051588934" lon="9.196191784044183"><ele>831.0</ele><time>2026-05-03T09:08:12.001Z</time></trkpt><trkpt lat="41.65060953808316" lon="9.1962719219056"><ele>831.0</ele><time>2026-05-03T09:08:13.001Z</time></trkpt><trkpt lat="41.65069418671686" lon="9.196357282101339"><ele>831.0</ele><time>2026-05-03T09:08:14.001Z</time></trkpt><trkpt lat="41.650764800442104" lon="9.196430681871778"><ele>831.0</ele><time>2026-05-03T09:08:15.001Z</time></trkpt><trkpt lat="41.65085112900963" lon="9.196460748284691"><ele>831.0</ele><time>2026-05-03T09:08:16.001Z</time></trkpt><trkpt lat="41.6509241985187" lon="9.196429059971411"><ele>831.0</ele><time>2026-05-03T09:08:17.001Z</time></trkpt><trkpt lat="41.650966327702484" lon="9.196346246738399"><ele>831.0</ele><time>2026-05-03T09:08:18.001Z</time></trkpt><trkpt lat="41.65095905181664" lon="9.19625409005422"><ele>831.0</ele><time>2026-05-03T09:08:19.001Z</time></trkpt><trkpt lat="41.65089442923658" lon="9.196177149432238"><ele>831.0</ele><time>2026-05-03T09:08:20.001Z</time></trkpt><trkpt lat="41.65080943206431" lon="9.196116135303823"><ele>831.0</ele><time>2026-05-03T09:08:21.001Z</time></trkpt><trkpt lat="41.650711475977936" lon="9.19605934965815"><ele>831.0</ele><time>2026-05-03T09:08:22.001Z</time></trkpt><trkpt lat="41.650636337469194" lon="9.195951234351202"><ele>831.0</ele><time>2026-05-03T09:08:23.001Z</time></trkpt><trkpt lat="41.65055656325508" lon="9.195843477844665"><ele>831.0</ele><time>2026-05-03T09:08:24.001Z</time></trkpt><trkpt lat="41.650490184924834" lon="9.195744854396514"><ele>831.0</ele><time>2026-05-03T09:08:25.002Z</time></trkpt><trkpt lat="41.650443747219356" lon="9.195638159719152"><ele>831.0</ele><time>2026-05-03T09:08:26.002Z</time></trkpt><trkpt lat="41.6504232511006" lon="9.195522617898021"><ele>831.0</ele><time>2026-05-03T09:08:27.002Z</time></trkpt><trkpt lat="41.650402068563466" lon="9.195388706337845"><ele>831.0</ele><time>2026-05-03T09:08:28.002Z</time></trkpt><trkpt lat="41.65036984437503" lon="9.195254238321581"><ele>831.4</ele><time>2026-05-03T09:08:29.002Z</time></trkpt><trkpt lat="41.65032029433084" lon="9.195118064160784"><ele>831.8</ele><time>2026-05-03T09:08:30.002Z</time></trkpt><trkpt lat="41.65025272953092" lon="9.194986404589319"><ele>832.1999999999999</ele><time>2026-05-03T09:08:31.002Z</time></trkpt><trkpt lat="41.65017437113238" lon="9.194872374476356"><ele>832.5999999999999</ele><time>2026-05-03T09:08:32.002Z</time></trkpt><trkpt lat="41.65010111899086" lon="9.194788979081068"><ele>833.0</ele><time>2026-05-03T09:08:33.002Z</time></trkpt><trkpt lat="41.65005803370866" lon="9.1947165066494"><ele>833.0000000000001</ele><time>2026-05-03T09:08:34.002Z</time></trkpt><trkpt lat="41.65005490776422" lon="9.194624476873297"><ele>833.0</ele><time>2026-05-03T09:08:35.002Z</time></trkpt><trkpt lat="41.65009065441684" lon="9.19454516954061"><ele>833.0</ele><time>2026-05-03T09:08:36.002Z</time></trkpt><trkpt lat="41.65016610108932" lon="9.194483293626794"><ele>833.0</ele><time>2026-05-03T09:08:37.002Z</time></trkpt><trkpt lat="41.650258554328296" lon="9.194474611545493"><ele>833.0000000000001</ele><time>2026-05-03T09:08:38.002Z</time></trkpt><trkpt lat="41.650348959864196" lon="9.19452360822937"><ele>833.0</ele><time>2026-05-03T09:08:39.002Z</time></trkpt><trkpt lat="41.65041126509983" lon="9.194649486889928"><ele>835.4</ele><time>2026-05-03T09:08:40.002Z</time></trkpt><trkpt lat="41.65049318045643" lon="9.19474401918445"><ele>837.8</ele><time>2026-05-03T09:08:41.002Z</time></trkpt><trkpt lat="41.65056188847277" lon="9.194858753171136"><ele>840.2</ele><time>2026-05-03T09:08:42.002Z</time></trkpt><trkpt lat="41.650639534380026" lon="9.19496733257489"><ele>842.6</ele><time>2026-05-03T09:08:43.002Z</time></trkpt><trkpt lat="41.650735799504105" lon="9.195040690362724"><ele>845.0</ele><time>2026-05-03T09:08:44.002Z</time></trkpt><trkpt lat="41.65084285175822" lon="9.195063397984814"><ele>845.0</ele><time>2026-05-03T09:08:45.002Z</time></trkpt><trkpt lat="41.65094188997572" lon="9.195002814478542"><ele>845.0</ele><time>2026-05-03T09:08:46.002Z</time></trkpt><trkpt lat="41.651003513318976" lon="9.194902838310531"><ele>845.0</ele><time>2026-05-03T09:08:47.002Z</time></trkpt><trkpt lat="41.65101879014698" lon="9.194780067241819"><ele>845.0</ele><time>2026-05-03T09:08:48.002Z</time></trkpt><trkpt lat="41.65099085176412" lon="9.194668112480638"><ele>845.0</ele><time>2026-05-03T09:08:49.002Z</time></trkpt><trkpt lat="41.65092548191246" lon="9.194573131031953"><ele>846.8</ele><time>2026-05-03T09:08:50.002Z</time></trkpt><trkpt lat="41.65083152917923" lon="9.194484442403086"><ele>848.6</ele><time>2026-05-03T09:08:51.002Z</time></trkpt><trkpt lat="41.650739639523145" lon="9.194389562583028"><ele>850.4000000000001</ele><time>2026-05-03T09:08:52.002Z</time></trkpt><trkpt lat="41.65067472005004" lon="9.194300193154213"><ele>852.2</ele><time>2026-05-03T09:08:53.002Z</time></trkpt><trkpt lat="41.65061443111831" lon="9.19421696290597"><ele>854.0</ele><time>2026-05-03T09:08:54.002Z</time></trkpt><trkpt lat="41.65057023198667" lon="9.194132734206041"><ele>854.0000000000001</ele><time>2026-05-03T09:08:55.002Z</time></trkpt><trkpt lat="41.65054090013644" lon="9.194048217682768"><ele>854.0</ele><time>2026-05-03T09:08:56.002Z</time></trkpt><trkpt lat="41.65055611314462" lon="9.193958083146239"><ele>854.0</ele><time>2026-05-03T09:08:57.002Z</time></trkpt><trkpt lat="41.650615968010534" lon="9.193901343652112"><ele>854.0</ele><time>2026-05-03T09:08:58.003Z</time></trkpt><trkpt lat="41.65069081715722" lon="9.193878354469904"><ele>854.0000000000001</ele><time>2026-05-03T09:08:59.003Z</time></trkpt><trkpt lat="41.65078067112822" lon="9.193906314100495"><ele>854.0</ele><time>2026-05-03T09:09:00.003Z</time></trkpt><trkpt lat="41.65088127453257" lon="9.193981974816927"><ele>854.0</ele><time>2026-05-03T09:09:01.003Z</time></trkpt><trkpt lat="41.65097341605467" lon="9.194076270830266"><ele>854.0000000000001</ele><time>2026-05-03T09:09:02.003Z</time></trkpt><trkpt lat="41.65106201311556" lon="9.194155039353756"><ele>854.0000000000001</ele><time>2026-05-03T09:09:03.003Z</time></trkpt><trkpt lat="41.65114639994343" lon="9.19423235550563"><ele>854.0</ele><time>2026-05-03T09:09:04.003Z</time></trkpt><trkpt lat="41.65123093743048" lon="9.194309111610002"><ele>854.0</ele><time>2026-05-03T09:09:05.003Z</time></trkpt><trkpt lat="41.65131051712313" lon="9.194384383741243"><ele>857.0000000000001</ele><time>2026-05-03T09:09:06.003Z</time></trkpt><trkpt lat="41.651375432035294" lon="9.19444964349641"><ele>860.0</ele><time>2026-05-03T09:09:07.003Z</time></trkpt><trkpt lat="41.651431973219125" lon="9.194504235450077"><ele>863.0</ele><time>2026-05-03T09:09:08.003Z</time></trkpt><trkpt lat="41.65150133405594" lon="9.194521007380466"><ele>866.0</ele><time>2026-05-03T09:09:09.003Z</time></trkpt><trkpt lat="41.65157366571994" lon="9.194530028886579"><ele>869.0000000000001</ele><time>2026-05-03T09:09:10.003Z</time></trkpt><trkpt lat="41.65162872322215" lon="9.194415459140995"><ele>872.0</ele><time>2026-05-03T09:09:11.003Z</time></trkpt><trkpt lat="41.651632280387794" lon="9.19429204895553"><ele>872.0</ele><time>2026-05-03T09:09:12.003Z</time></trkpt><trkpt lat="41.65159723830156" lon="9.194170862739952"><ele>872.0</ele><time>2026-05-03T09:09:13.003Z</time></trkpt><trkpt lat="41.65153169744571" lon="9.194072726786898"><ele>872.0</ele><time>2026-05-03T09:09:14.003Z</time></trkpt><trkpt lat="41.65146339943812" lon="9.193979947296054"><ele>872.0</ele><time>2026-05-03T09:09:15.003Z</time></trkpt><trkpt lat="41.65139942406397" lon="9.193870149415185"><ele>872.0</ele><time>2026-05-03T09:09:16.003Z</time></trkpt><trkpt lat="41.65134988618039" lon="9.193737990501509"><ele>874.2</ele><time>2026-05-03T09:09:17.003Z</time></trkpt><trkpt lat="41.6513137776798" lon="9.19359714326996"><ele>876.4000000000001</ele><time>2026-05-03T09:09:18.003Z</time></trkpt><trkpt lat="41.65128485433042" lon="9.193458512342527"><ele>878.5999999999999</ele><time>2026-05-03T09:09:19.003Z</time></trkpt><trkpt lat="41.651262807549664" lon="9.193320907031875"><ele>880.8</ele><time>2026-05-03T09:09:20.003Z</time></trkpt><trkpt lat="41.65124300161019" lon="9.193186201099202"><ele>883.0</ele><time>2026-05-03T09:09:21.003Z</time></trkpt><trkpt lat="41.65122002717609" lon="9.193047852428737"><ele>884.4999999999999</ele><time>2026-05-03T09:09:22.003Z</time></trkpt><trkpt lat="41.651198273489925" lon="9.192926433877163"><ele>886.0</ele><time>2026-05-03T09:09:23.003Z</time></trkpt><trkpt lat="41.65118175765367" lon="9.192806671010072"><ele>887.5</ele><time>2026-05-03T09:09:24.003Z</time></trkpt><trkpt lat="41.65116737126882" lon="9.192689513232501"><ele>889.0</ele><time>2026-05-03T09:09:25.003Z</time></trkpt><trkpt lat="41.65115056334244" lon="9.192578939142162"><ele>890.4999999999999</ele><time>2026-05-03T09:09:26.003Z</time></trkpt><trkpt lat="41.65113189711882" lon="9.19248046139169"><ele>892.0</ele><time>2026-05-03T09:09:26.999Z</time></trkpt><trkpt lat="41.65110965009249" lon="9.192399475088536"><ele>891.8</ele><time>2026-05-03T09:09:27.999Z</time></trkpt><trkpt lat="41.65105137769215" lon="9.192291563911054"><ele>891.6</ele><time>2026-05-03T09:09:30Z</time></trkpt><trkpt lat="41.65098252195064" lon="9.192206716808029"><ele>891.3999999999999</ele><time>2026-05-03T09:09:33Z</time></trkpt><trkpt lat="41.65091001703692" lon="9.192167680323573"><ele>891.1999999999999</ele><time>2026-05-03T09:09:35Z</time></trkpt><trkpt lat="41.65084586143306" lon="9.192088215478728"><ele>891.0</ele><time>2026-05-03T09:09:37Z</time></trkpt><trkpt lat="41.650764335335026" lon="9.19199212973136"><ele>891.0</ele><time>2026-05-03T09:09:39Z</time></trkpt><trkpt lat="41.65071427139554" lon="9.191847668541037"><ele>890.9999999999999</ele><time>2026-05-03T09:09:41Z</time></trkpt><trkpt lat="41.650669068936864" lon="9.19171641753202"><ele>890.9999999999999</ele><time>2026-05-03T09:09:43Z</time></trkpt><trkpt lat="41.650642333605575" lon="9.19162292439782"><ele>891.0</ele><time>2026-05-03T09:09:44Z</time></trkpt><trkpt lat="41.650611122882765" lon="9.191501333245993"><ele>891.0</ele><time>2026-05-03T09:09:45Z</time></trkpt><trkpt lat="41.650568096122846" lon="9.191371175676167"><ele>894.75</ele><time>2026-05-03T09:09:46Z</time></trkpt><trkpt lat="41.65049982645895" lon="9.191230130012764"><ele>898.5</ele><time>2026-05-03T09:09:47Z</time></trkpt><trkpt lat="41.6504231762132" lon="9.191091143889931"><ele>902.25</ele><time>2026-05-03T09:09:48Z</time></trkpt><trkpt lat="41.65037657162798" lon="9.190926253543736"><ele>906.0</ele><time>2026-05-03T09:09:49Z</time></trkpt><trkpt lat="41.65035676201664" lon="9.19076360982762"><ele>905.0</ele><time>2026-05-03T09:09:50Z</time></trkpt><trkpt lat="41.65034419115205" lon="9.190624401197377"><ele>903.9999999999999</ele><time>2026-05-03T09:09:51Z</time></trkpt><trkpt lat="41.65035014504365" lon="9.190490188187418"><ele>902.9999999999999</ele><time>2026-05-03T09:09:52Z</time></trkpt><trkpt lat="41.6503939644751" lon="9.190370539393072"><ele>902.0</ele><time>2026-05-03T09:09:53Z</time></trkpt><trkpt lat="41.65047896617308" lon="9.190280330725994"><ele>901.0</ele><time>2026-05-03T09:09:54Z</time></trkpt><trkpt lat="41.65059483733962" lon="9.190210085718794"><ele>901.0</ele><time>2026-05-03T09:09:55Z</time></trkpt><trkpt lat="41.65073585172322" lon="9.19015874372568"><ele>901.0</ele><time>2026-05-03T09:09:56Z</time></trkpt><trkpt lat="41.65088024217237" lon="9.19011063748701"><ele>901.0</ele><time>2026-05-03T09:09:57Z</time></trkpt><trkpt lat="41.65101371189341" lon="9.190084842835418"><ele>901.0</ele><time>2026-05-03T09:09:58Z</time></trkpt><trkpt lat="41.65111747754196" lon="9.190024731765616"><ele>903.5</ele><time>2026-05-03T09:09:59Z</time></trkpt><trkpt lat="41.65122152543926" lon="9.189971070926374"><ele>906.0</ele><time>2026-05-03T09:10:00Z</time></trkpt><trkpt lat="41.65133158034911" lon="9.189933193873195"><ele>908.5</ele><time>2026-05-03T09:10:01.001Z</time></trkpt><trkpt lat="41.65145499503316" lon="9.189933648490232"><ele>911.0</ele><time>2026-05-03T09:10:02.001Z</time></trkpt><trkpt lat="41.65158065087564" lon="9.189972909160298"><ele>911.0</ele><time>2026-05-03T09:10:03.001Z</time></trkpt><trkpt lat="41.65170788085722" lon="9.190037019074904"><ele>911.0</ele><time>2026-05-03T09:10:04.001Z</time></trkpt><trkpt lat="41.65184000974139" lon="9.190102014686216"><ele>911.0</ele><time>2026-05-03T09:10:05.001Z</time></trkpt><trkpt lat="41.651969063475114" lon="9.190139375573434"><ele>911.0</ele><time>2026-05-03T09:10:06.001Z</time></trkpt><trkpt lat="41.65210893464946" lon="9.19015330669402"><ele>915.3333333333334</ele><time>2026-05-03T09:10:07.001Z</time></trkpt><trkpt lat="41.65225361667568" lon="9.19014446818308"><ele>919.6666666666667</ele><time>2026-05-03T09:10:08.001Z</time></trkpt><trkpt lat="41.652408766128154" lon="9.190104509768846"><ele>924.0</ele><time>2026-05-03T09:10:09.001Z</time></trkpt><trkpt lat="41.65256493299436" lon="9.190044239515357"><ele>924.0</ele><time>2026-05-03T09:10:10.001Z</time></trkpt><trkpt lat="41.652730977978365" lon="9.189966599976016"><ele>924.0</ele><time>2026-05-03T09:10:11.001Z</time></trkpt><trkpt lat="41.65289310269044" lon="9.18988617051796"><ele>924.0</ele><time>2026-05-03T09:10:12.001Z</time></trkpt><trkpt lat="41.65304229534751" lon="9.189807101896218"><ele>925.25</ele><time>2026-05-03T09:10:13.001Z</time></trkpt><trkpt lat="41.653188217503306" lon="9.18972471698148"><ele>926.5</ele><time>2026-05-03T09:10:14.001Z</time></trkpt><trkpt lat="41.65330825166778" lon="9.18962266727214"><ele>927.75</ele><time>2026-05-03T09:10:15.001Z</time></trkpt><trkpt lat="41.653398430952485" lon="9.189495811370291"><ele>929.0</ele><time>2026-05-03T09:10:16.001Z</time></trkpt><trkpt lat="41.65347534496379" lon="9.189381020759066"><ele>929.0</ele><time>2026-05-03T09:10:17.001Z</time></trkpt><trkpt lat="41.65356657024813" lon="9.189308465986066"><ele>929.0</ele><time>2026-05-03T09:10:18.001Z</time></trkpt><trkpt lat="41.653668483947996" lon="9.18929701051407"><ele>929.0</ele><time>2026-05-03T09:10:19.001Z</time></trkpt><trkpt lat="41.65378083131399" lon="9.189392663578774"><ele>929.0</ele><time>2026-05-03T09:10:20.001Z</time></trkpt><trkpt lat="41.653905451491205" lon="9.189451086173786"><ele>931.25</ele><time>2026-05-03T09:10:21.001Z</time></trkpt><trkpt lat="41.65403954678154" lon="9.189487277918795"><ele>933.5</ele><time>2026-05-03T09:10:22.001Z</time></trkpt><trkpt lat="41.65417935653615" lon="9.189475517274293"><ele>935.75</ele><time>2026-05-03T09:10:23.001Z</time></trkpt><trkpt lat="41.6543180796242" lon="9.189453057668025"><ele>938.0</ele><time>2026-05-03T09:10:24.001Z</time></trkpt><trkpt lat="41.6544516397226" lon="9.189410668429911"><ele>940.25</ele><time>2026-05-03T09:10:25.001Z</time></trkpt><trkpt lat="41.65458200624135" lon="9.189384396822888"><ele>942.5</ele><time>2026-05-03T09:10:26.001Z</time></trkpt><trkpt lat="41.654708253855816" lon="9.1893771172374"><ele>944.75</ele><time>2026-05-03T09:10:27.001Z</time></trkpt><trkpt lat="41.654850940820516" lon="9.189397207255215"><ele>947.0</ele><time>2026-05-03T09:10:28.001Z</time></trkpt><trkpt lat="41.655001585965636" lon="9.189436239358864"><ele>947.0</ele><time>2026-05-03T09:10:29.001Z</time></trkpt><trkpt lat="41.655161831862756" lon="9.189505961182357"><ele>947.0</ele><time>2026-05-03T09:10:30.001Z</time></trkpt><trkpt lat="41.65531115743889" lon="9.189580711980717"><ele>947.0</ele><time>2026-05-03T09:10:31.001Z</time></trkpt><trkpt lat="41.65547125176002" lon="9.18966859442995"><ele>947.3333333333334</ele><time>2026-05-03T09:10:32.001Z</time></trkpt><trkpt lat="41.65560858936828" lon="9.189776591399577"><ele>947.6666666666667</ele><time>2026-05-03T09:10:33.002Z</time></trkpt><trkpt lat="41.655750032336925" lon="9.18987679613825"><ele>948.0</ele><time>2026-05-03T09:10:34.002Z</time></trkpt><trkpt lat="41.65588937960278" lon="9.189971568727957"><ele>948.3333333333333</ele><time>2026-05-03T09:10:35.002Z</time></trkpt><trkpt lat="41.65604331947111" lon="9.190046355456015"><ele>948.6666666666666</ele><time>2026-05-03T09:10:36.002Z</time></trkpt><trkpt lat="41.65619909854196" lon="9.190112952430363"><ele>949.0</ele><time>2026-05-03T09:10:37.002Z</time></trkpt><trkpt lat="41.6563589084802" lon="9.19016563807609"><ele>950.3333333333333</ele><time>2026-05-03T09:10:38.002Z</time></trkpt><trkpt lat="41.6565116313182" lon="9.190216884142487"><ele>951.6666666666667</ele><time>2026-05-03T09:10:39.002Z</time></trkpt><trkpt lat="41.65665912217081" lon="9.190228023943924"><ele>953.0</ele><time>2026-05-03T09:10:40.002Z</time></trkpt><trkpt lat="41.65680943677801" lon="9.190212544388066"><ele>953.0</ele><time>2026-05-03T09:10:41.002Z</time></trkpt><trkpt lat="41.65694656450935" lon="9.190156272366854"><ele>953.0</ele><time>2026-05-03T09:10:42.002Z</time></trkpt><trkpt lat="41.65708322510319" lon="9.190088778007855"><ele>953.0</ele><time>2026-05-03T09:10:43.002Z</time></trkpt><trkpt lat="41.65722773659086" lon="9.190030377958974"><ele>953.0</ele><time>2026-05-03T09:10:44.002Z</time></trkpt><trkpt lat="41.65736991036507" lon="9.189977855949"><ele>953.75</ele><time>2026-05-03T09:10:45.002Z</time></trkpt><trkpt lat="41.65751100977397" lon="9.189942367648243"><ele>954.5</ele><time>2026-05-03T09:10:46.002Z</time></trkpt><trkpt lat="41.65764508431056" lon="9.189917583456012"><ele>955.25</ele><time>2026-05-03T09:10:47.002Z</time></trkpt><trkpt lat="41.65778632200385" lon="9.189899930815466"><ele>956.0</ele><time>2026-05-03T09:10:48.002Z</time></trkpt><trkpt lat="41.65791825199964" lon="9.189885895123991"><ele>956.1999999999999</ele><time>2026-05-03T09:10:49.002Z</time></trkpt><trkpt lat="41.658037879887274" lon="9.189889494667646"><ele>956.3999999999999</ele><time>2026-05-03T09:10:50.002Z</time></trkpt><trkpt lat="41.65814905229188" lon="9.189884451642374"><ele>956.6</ele><time>2026-05-03T09:10:51.002Z</time></trkpt><trkpt lat="41.65824072773387" lon="9.18990363464574"><ele>956.8</ele><time>2026-05-03T09:10:52.002Z</time></trkpt><trkpt lat="41.6583226179388" lon="9.189959076125426"><ele>957.0</ele><time>2026-05-03T09:10:53.002Z</time></trkpt><trkpt lat="41.65839763136021" lon="9.19003962010158"><ele>957.0</ele><time>2026-05-03T09:10:54.002Z</time></trkpt><trkpt lat="41.658455549957374" lon="9.190156552861819"><ele>957.0</ele><time>2026-05-03T09:10:55.002Z</time></trkpt><trkpt lat="41.65853215716912" lon="9.190273728727032"><ele>957.0</ele><time>2026-05-03T09:10:56.002Z</time></trkpt><trkpt lat="41.6586073858855" lon="9.19042302484314"><ele>957.0</ele><time>2026-05-03T09:10:57.002Z</time></trkpt><trkpt lat="41.65868538865634" lon="9.19060930345706"><ele>956.5</ele><time>2026-05-03T09:10:58.002Z</time></trkpt><trkpt lat="41.65876670490047" lon="9.190766383686226"><ele>956.0</ele><time>2026-05-03T09:10:59.002Z</time></trkpt><trkpt lat="41.65883703189297" lon="9.190911888309781"><ele>955.5</ele><time>2026-05-03T09:11:00.002Z</time></trkpt><trkpt lat="41.658902708946485" lon="9.191040590587852"><ele>955.0</ele><time>2026-05-03T09:11:01.002Z</time></trkpt><trkpt lat="41.65895676073145" lon="9.191166450484776"><ele>955.0</ele><time>2026-05-03T09:11:02.002Z</time></trkpt><trkpt lat="41.65900469573763" lon="9.191295194562272"><ele>955.0</ele><time>2026-05-03T09:11:03.002Z</time></trkpt><trkpt lat="41.6590575516063" lon="9.191444629479403"><ele>955.0</ele><time>2026-05-03T09:11:04.002Z</time></trkpt><trkpt lat="41.659080618326456" lon="9.191598043607783"><ele>955.0</ele><time>2026-05-03T09:11:05.002Z</time></trkpt><trkpt lat="41.65909459619091" lon="9.191753810924226"><ele>956.75</ele><time>2026-05-03T09:11:06.003Z</time></trkpt><trkpt lat="41.65910321865073" lon="9.191926436808597"><ele>958.5</ele><time>2026-05-03T09:11:07.003Z</time></trkpt><trkpt lat="41.65910804733029" lon="9.192095123997811"><ele>960.25</ele><time>2026-05-03T09:11:08.003Z</time></trkpt><trkpt lat="41.65910988268945" lon="9.192259782755984"><ele>962.0</ele><time>2026-05-03T09:11:09.003Z</time></trkpt><trkpt lat="41.659126907203486" lon="9.19242758848161"><ele>962.0</ele><time>2026-05-03T09:11:10.003Z</time></trkpt><trkpt lat="41.65912640177507" lon="9.192585709081143"><ele>962.0</ele><time>2026-05-03T09:11:11.003Z</time></trkpt><trkpt lat="41.65912858574171" lon="9.192741861126992"><ele>962.0</ele><time>2026-05-03T09:11:12.003Z</time></trkpt><trkpt lat="41.65914223755265" lon="9.192902542673782"><ele>962.0</ele><time>2026-05-03T09:11:13.003Z</time></trkpt><trkpt lat="41.65915658336706" lon="9.19306208991748"><ele>961.6</ele><time>2026-05-03T09:11:14.003Z</time></trkpt><trkpt lat="41.65916340424666" lon="9.193206962527842"><ele>961.2</ele><time>2026-05-03T09:11:15.003Z</time></trkpt><trkpt lat="41.659165322895895" lon="9.193347950786826"><ele>960.8</ele><time>2026-05-03T09:11:16.003Z</time></trkpt><trkpt lat="41.65916931111245" lon="9.19349221685521"><ele>960.4</ele><time>2026-05-03T09:11:17.003Z</time></trkpt><trkpt lat="41.65916459775866" lon="9.193649854592284"><ele>960.0</ele><time>2026-05-03T09:11:18.003Z</time></trkpt><trkpt lat="41.65915778607324" lon="9.193809211779259"><ele>960.0</ele><time>2026-05-03T09:11:19.003Z</time></trkpt><trkpt lat="41.65913959977245" lon="9.19397160536211"><ele>960.0</ele><time>2026-05-03T09:11:20.003Z</time></trkpt><trkpt lat="41.659130363840404" lon="9.194124815122148"><ele>960.0</ele><time>2026-05-03T09:11:21.003Z</time></trkpt><trkpt lat="41.65912034916485" lon="9.194272738090303"><ele>960.0</ele><time>2026-05-03T09:11:22.003Z</time></trkpt><trkpt lat="41.659108431941526" lon="9.194408160076401"><ele>960.2</ele><time>2026-05-03T09:11:23.003Z</time></trkpt><trkpt lat="41.65909226104089" lon="9.194528673147564"><ele>960.4</ele><time>2026-05-03T09:11:24.003Z</time></trkpt><trkpt lat="41.659093165962474" lon="9.194635430335852"><ele>960.5999999999999</ele><time>2026-05-03T09:11:25.003Z</time></trkpt><trkpt lat="41.65908451842484" lon="9.194737754361062"><ele>960.8</ele><time>2026-05-03T09:11:26.003Z</time></trkpt><trkpt lat="41.65909070053214" lon="9.194853365144626"><ele>961.0</ele><time>2026-05-03T09:11:27.003Z</time></trkpt><trkpt lat="41.659093425171505" lon="9.195016323513897"><ele>961.25</ele><time>2026-05-03T09:11:28.003Z</time></trkpt><trkpt lat="41.65911424362906" lon="9.195205358219196"><ele>961.5</ele><time>2026-05-03T09:11:29.003Z</time></trkpt><trkpt lat="41.65915350018255" lon="9.195380003356584"><ele>961.75</ele><time>2026-05-03T09:11:30.003Z</time></trkpt><trkpt lat="41.65919772951267" lon="9.195569123335089"><ele>962.0</ele><time>2026-05-03T09:11:31.003Z</time></trkpt><trkpt lat="41.65926749577552" lon="9.195770738522908"><ele>961.3333333333334</ele><time>2026-05-03T09:11:32.003Z</time></trkpt><trkpt lat="41.65936205784635" lon="9.195962366554584"><ele>960.6666666666667</ele><time>2026-05-03T09:11:33Z</time></trkpt><trkpt lat="41.65945459640569" lon="9.196133156538572"><ele>960.0</ele><time>2026-05-03T09:11:34Z</time></trkpt><trkpt lat="41.65953352077079" lon="9.19630870797021"><ele>958.0</ele><time>2026-05-03T09:11:35Z</time></trkpt><trkpt lat="41.65962582684037" lon="9.196484087016945"><ele>956.0</ele><time>2026-05-03T09:11:36Z</time></trkpt><trkpt lat="41.65969920759913" lon="9.196671831636381"><ele>954.0</ele><time>2026-05-03T09:11:37Z</time></trkpt><trkpt lat="41.659792485486136" lon="9.196857870213682"><ele>954.0</ele><time>2026-05-03T09:11:38Z</time></trkpt><trkpt lat="41.659873910895826" lon="9.19704119859889"><ele>954.0</ele><time>2026-05-03T09:11:39Z</time></trkpt><trkpt lat="41.65994328262766" lon="9.197206908788168"><ele>954.0</ele><time>2026-05-03T09:11:40Z</time></trkpt><trkpt lat="41.66001657866467" lon="9.19735971225883"><ele>954.0</ele><time>2026-05-03T09:11:41Z</time></trkpt><trkpt lat="41.66009011796913" lon="9.197502451062665"><ele>953.25</ele><time>2026-05-03T09:11:42Z</time></trkpt><trkpt lat="41.66015955251837" lon="9.197629856991954"><ele>952.5</ele><time>2026-05-03T09:11:43Z</time></trkpt><trkpt lat="41.660249740165874" lon="9.197752032122365"><ele>951.75</ele><time>2026-05-03T09:11:44Z</time></trkpt><trkpt lat="41.6603287180461" lon="9.197881367120988"><ele>951.0</ele><time>2026-05-03T09:11:45Z</time></trkpt><trkpt lat="41.66042770030528" lon="9.19800056993836"><ele>951.0</ele><time>2026-05-03T09:11:46Z</time></trkpt><trkpt lat="41.66054610536627" lon="9.198108732945135"><ele>951.0</ele><time>2026-05-03T09:11:47Z</time></trkpt><trkpt lat="41.6606566862087" lon="9.198200957889032"><ele>951.0</ele><time>2026-05-03T09:11:48Z</time></trkpt><trkpt lat="41.66074938099572" lon="9.198268776285818"><ele>951.0</ele><time>2026-05-03T09:11:49Z</time></trkpt><trkpt lat="41.6608350468865" lon="9.198335723722073"><ele>951.8</ele><time>2026-05-03T09:11:50Z</time></trkpt><trkpt lat="41.660914841232746" lon="9.198406342651847"><ele>952.5999999999999</ele><time>2026-05-03T09:11:51Z</time></trkpt><trkpt lat="41.66100823348395" lon="9.198477939920867"><ele>953.4</ele><time>2026-05-03T09:11:52Z</time></trkpt><trkpt lat="41.661105077727825" lon="9.198555997026425"><ele>954.2</ele><time>2026-05-03T09:11:53Z</time></trkpt><trkpt lat="41.66121177849067" lon="9.198629920210465"><ele>955.0</ele><time>2026-05-03T09:11:54Z</time></trkpt><trkpt lat="41.66133357216648" lon="9.198702482587331"><ele>955.0</ele><time>2026-05-03T09:11:55Z</time></trkpt><trkpt lat="41.661475400225235" lon="9.19875252913761"><ele>955.0</ele><time>2026-05-03T09:11:56Z</time></trkpt><trkpt lat="41.661623780605204" lon="9.198773452859841"><ele>955.0</ele><time>2026-05-03T09:11:57Z</time></trkpt><trkpt lat="41.661774415157744" lon="9.19878208806451"><ele>955.0</ele><time>2026-05-03T09:11:58Z</time></trkpt><trkpt lat="41.661922215999546" lon="9.198775642939271"><ele>954.25</ele><time>2026-05-03T09:11:59Z</time></trkpt><trkpt lat="41.66205921223283" lon="9.198763668816214"><ele>953.5</ele><time>2026-05-03T09:12:00Z</time></trkpt><trkpt lat="41.662184582362784" lon="9.198751554949151"><ele>952.75</ele><time>2026-05-03T09:12:01Z</time></trkpt><trkpt lat="41.66231698134723" lon="9.198774453189973"><ele>952.0</ele><time>2026-05-03T09:12:02Z</time></trkpt><trkpt lat="41.6624548570251" lon="9.19876893959176"><ele>952.0</ele><time>2026-05-03T09:12:03Z</time></trkpt><trkpt lat="41.66259296250016" lon="9.198782687580174"><ele>952.0</ele><time>2026-05-03T09:12:04Z</time></trkpt><trkpt lat="41.66273178156583" lon="9.198797530036025"><ele>952.0</ele><time>2026-05-03T09:12:05Z</time></trkpt><trkpt lat="41.662873020284394" lon="9.198814742638694"><ele>952.0</ele><time>2026-05-03T09:12:06.001Z</time></trkpt><trkpt lat="41.66300569842924" lon="9.198860009754263"><ele>950.5</ele><time>2026-05-03T09:12:07.001Z</time></trkpt><trkpt lat="41.663142517902486" lon="9.1988791483806"><ele>949.0</ele><time>2026-05-03T09:12:08.001Z</time></trkpt><trkpt lat="41.66327216716629" lon="9.198931372230826"><ele>947.5</ele><time>2026-05-03T09:12:09.001Z</time></trkpt><trkpt lat="41.66340226029389" lon="9.198986314350542"><ele>946.0</ele><time>2026-05-03T09:12:10.001Z</time></trkpt><trkpt lat="41.66349982420839" lon="9.199040079780472"><ele>946.25</ele><time>2026-05-03T09:12:11.001Z</time></trkpt><trkpt lat="41.66361552006687" lon="9.199116248703152"><ele>946.5</ele><time>2026-05-03T09:12:12.001Z</time></trkpt><trkpt lat="41.66372510475242" lon="9.199201608215592"><ele>946.75</ele><time>2026-05-03T09:12:13.001Z</time></trkpt><trkpt lat="41.66383348767496" lon="9.19927483476501"><ele>947.0</ele><time>2026-05-03T09:12:14.001Z</time></trkpt><trkpt lat="41.66394507567282" lon="9.199372274142547"><ele>947.0</ele><time>2026-05-03T09:12:15.001Z</time></trkpt><trkpt lat="41.66404857068569" lon="9.199480921150524"><ele>947.0</ele><time>2026-05-03T09:12:16.001Z</time></trkpt><trkpt lat="41.66415077886505" lon="9.1995999462241"><ele>947.0</ele><time>2026-05-03T09:12:17.001Z</time></trkpt><trkpt lat="41.66425237716562" lon="9.199727170184373"><ele>947.0</ele><time>2026-05-03T09:12:18.001Z</time></trkpt><trkpt lat="41.66436022055385" lon="9.199852911812323"><ele>946.5</ele><time>2026-05-03T09:12:19.001Z</time></trkpt><trkpt lat="41.66447069381398" lon="9.199982261006625"><ele>946.0</ele><time>2026-05-03T09:12:20.001Z</time></trkpt><trkpt lat="41.66455617965175" lon="9.200138014600203"><ele>945.5</ele><time>2026-05-03T09:12:21.001Z</time></trkpt><trkpt lat="41.664645508182716" lon="9.20027636453414"><ele>945.0</ele><time>2026-05-03T09:12:22.001Z</time></trkpt><trkpt lat="41.66473032212178" lon="9.200418201881858"><ele>945.0</ele><time>2026-05-03T09:12:23.001Z</time></trkpt><trkpt lat="41.66480875739326" lon="9.20055773264506"><ele>945.0</ele><time>2026-05-03T09:12:24.001Z</time></trkpt><trkpt lat="41.66487390053224" lon="9.200693968125325"><ele>945.0</ele><time>2026-05-03T09:12:25.001Z</time></trkpt><trkpt lat="41.66493806634807" lon="9.200826456058259"><ele>945.0</ele><time>2026-05-03T09:12:26.001Z</time></trkpt><trkpt lat="41.66499795691089" lon="9.200962495730069"><ele>949.0</ele><time>2026-05-03T09:12:27.001Z</time></trkpt><trkpt lat="41.66506160125839" lon="9.201106097459661"><ele>953.0</ele><time>2026-05-03T09:12:28.001Z</time></trkpt><trkpt lat="41.665123107431036" lon="9.20125228723238"><ele>957.0</ele><time>2026-05-03T09:12:29.001Z</time></trkpt><trkpt lat="41.665183579551616" lon="9.201407524475737"><ele>961.0</ele><time>2026-05-03T09:12:30.001Z</time></trkpt><trkpt lat="41.66523919790419" lon="9.20156437963129"><ele>955.6666666666666</ele><time>2026-05-03T09:12:31.001Z</time></trkpt><trkpt lat="41.66530278115586" lon="9.201739254917241"><ele>950.3333333333333</ele><time>2026-05-03T09:12:32.001Z</time></trkpt><trkpt lat="41.66533340793668" lon="9.201942076866294"><ele>945.0</ele><time>2026-05-03T09:12:33.001Z</time></trkpt><trkpt lat="41.66536843417414" lon="9.202148298332261"><ele>945.25</ele><time>2026-05-03T09:12:34.001Z</time></trkpt><trkpt lat="41.66540692073" lon="9.202344762315839"><ele>945.5</ele><time>2026-05-03T09:12:35.001Z</time></trkpt><trkpt lat="41.66544190702329" lon="9.202535555962713"><ele>945.75</ele><time>2026-05-03T09:12:36.001Z</time></trkpt><trkpt lat="41.665473167698075" lon="9.202724650816473"><ele>946.0</ele><time>2026-05-03T09:12:37.001Z</time></trkpt><trkpt lat="41.66549396022212" lon="9.202914140313567"><ele>946.0</ele><time>2026-05-03T09:12:38.002Z</time></trkpt><trkpt lat="41.66550332302238" lon="9.203112926081834"><ele>946.0</ele><time>2026-05-03T09:12:39.002Z</time></trkpt><trkpt lat="41.66550353532726" lon="9.203327292870624"><ele>946.0</ele><time>2026-05-03T09:12:40.002Z</time></trkpt><trkpt lat="41.665483118147215" lon="9.203547219225564"><ele>946.0</ele><time>2026-05-03T09:12:41.002Z</time></trkpt><trkpt lat="41.66545546163375" lon="9.203756224614446"><ele>946.0</ele><time>2026-05-03T09:12:42.002Z</time></trkpt><trkpt lat="41.66543056433481" lon="9.20394589993182"><ele>946.0</ele><time>2026-05-03T09:12:43.002Z</time></trkpt><trkpt lat="41.66539557904068" lon="9.204128754679871"><ele>946.0</ele><time>2026-05-03T09:12:44.002Z</time></trkpt><trkpt lat="41.665352975516676" lon="9.20431629430911"><ele>945.6666666666666</ele><time>2026-05-03T09:12:45.002Z</time></trkpt><trkpt lat="41.665310276469484" lon="9.20450819115135"><ele>945.3333333333333</ele><time>2026-05-03T09:12:46.002Z</time></trkpt><trkpt lat="41.66526727017113" lon="9.20469980546306"><ele>945.0</ele><time>2026-05-03T09:12:47.002Z</time></trkpt><trkpt lat="41.66521987843814" lon="9.20490310092577"><ele>950.3333333333333</ele><time>2026-05-03T09:12:48.002Z</time></trkpt><trkpt lat="41.66517683760694" lon="9.20510528421296"><ele>955.6666666666666</ele><time>2026-05-03T09:12:49.002Z</time></trkpt><trkpt lat="41.665137268777364" lon="9.205310244150558"><ele>961.0</ele><time>2026-05-03T09:12:50.002Z</time></trkpt><trkpt lat="41.66510477439817" lon="9.205503173464253"><ele>960.75</ele><time>2026-05-03T09:12:51.002Z</time></trkpt><trkpt lat="41.6650703835334" lon="9.20570150943062"><ele>960.5</ele><time>2026-05-03T09:12:52.002Z</time></trkpt><trkpt lat="41.665040223585414" lon="9.205896595283585"><ele>960.25</ele><time>2026-05-03T09:12:53.002Z</time></trkpt><trkpt lat="41.66502136739585" lon="9.206081510751195"><ele>960.0</ele><time>2026-05-03T09:12:54.002Z</time></trkpt><trkpt lat="41.665048392717445" lon="9.206279634158403"><ele>960.0</ele><time>2026-05-03T09:12:55.002Z</time></trkpt><trkpt lat="41.66509817241379" lon="9.206487954832685"><ele>960.0</ele><time>2026-05-03T09:12:56.002Z</time></trkpt><trkpt lat="41.66515627004044" lon="9.206682115653706"><ele>960.0</ele><time>2026-05-03T09:12:57.002Z</time></trkpt><trkpt lat="41.665228090677125" lon="9.206874503378456"><ele>958.0</ele><time>2026-05-03T09:12:58.002Z</time></trkpt><trkpt lat="41.66532490658073" lon="9.20706640500731"><ele>956.0</ele><time>2026-05-03T09:12:59.002Z</time></trkpt><trkpt lat="41.66543329358189" lon="9.2072349168184"><ele>954.0</ele><time>2026-05-03T09:13:00.002Z</time></trkpt><trkpt lat="41.6655394885299" lon="9.207377784644226"><ele>954.0</ele><time>2026-05-03T09:13:01.002Z</time></trkpt><trkpt lat="41.66565024427471" lon="9.20750755752739"><ele>954.0</ele><time>2026-05-03T09:13:02.002Z</time></trkpt><trkpt lat="41.665771547909564" lon="9.207612209242109"><ele>954.0</ele><time>2026-05-03T09:13:03.002Z</time></trkpt><trkpt lat="41.66589722903327" lon="9.207708629885662"><ele>954.0</ele><time>2026-05-03T09:13:04.002Z</time></trkpt><trkpt lat="41.66603141488353" lon="9.207804142625859"><ele>950.3333333333333</ele><time>2026-05-03T09:13:05.002Z</time></trkpt><trkpt lat="41.66616885955051" lon="9.207905473607305"><ele>946.6666666666666</ele><time>2026-05-03T09:13:06.002Z</time></trkpt><trkpt lat="41.66630821880507" lon="9.208012505329133"><ele>943.0</ele><time>2026-05-03T09:13:07.002Z</time></trkpt><trkpt lat="41.666448112590416" lon="9.208125796820337"><ele>946.3333333333333</ele><time>2026-05-03T09:13:08.002Z</time></trkpt><trkpt lat="41.66658280908667" lon="9.20825330722706"><ele>949.6666666666667</ele><time>2026-05-03T09:13:09.002Z</time></trkpt><trkpt lat="41.66670382358325" lon="9.208406366316787"><ele>953.0</ele><time>2026-05-03T09:13:10.002Z</time></trkpt><trkpt lat="41.66682343074535" lon="9.208556626371983"><ele>953.0</ele><time>2026-05-03T09:13:11.003Z</time></trkpt><trkpt lat="41.66693717684354" lon="9.208721854241954"><ele>953.0</ele><time>2026-05-03T09:13:12.003Z</time></trkpt><trkpt lat="41.66704961676184" lon="9.208871676769464"><ele>953.0</ele><time>2026-05-03T09:13:13.003Z</time></trkpt><trkpt lat="41.66713304984739" lon="9.2090334782684"><ele>953.0</ele><time>2026-05-03T09:13:14.003Z</time></trkpt><trkpt lat="41.66723100846657" lon="9.209163724525961"><ele>953.0</ele><time>2026-05-03T09:13:15.003Z</time></trkpt><trkpt lat="41.66731655473377" lon="9.209295266902863"><ele>953.0</ele><time>2026-05-03T09:13:16.003Z</time></trkpt><trkpt lat="41.66740886874689" lon="9.209399182252985"><ele>953.0</ele><time>2026-05-03T09:13:17.003Z</time></trkpt><trkpt lat="41.66753799821489" lon="9.20944378786461"><ele>953.0</ele><time>2026-05-03T09:13:18.003Z</time></trkpt><trkpt lat="41.66765874866637" lon="9.209432243468605"><ele>953.0</ele><time>2026-05-03T09:13:19.003Z</time></trkpt><trkpt lat="41.66777898069341" lon="9.209392643821735"><ele>953.0</ele><time>2026-05-03T09:13:20.003Z</time></trkpt><trkpt lat="41.66788276366765" lon="9.20930534727238"><ele>953.0</ele><time>2026-05-03T09:13:21.003Z</time></trkpt><trkpt lat="41.66796803500976" lon="9.209200128891498"><ele>953.0</ele><time>2026-05-03T09:13:22.003Z</time></trkpt><trkpt lat="41.668033051523544" lon="9.209070371438623"><ele>953.0</ele><time>2026-05-03T09:13:23.003Z</time></trkpt><trkpt lat="41.668070903898816" lon="9.208938346337618"><ele>953.0</ele><time>2026-05-03T09:13:24.003Z</time></trkpt><trkpt lat="41.66809775386244" lon="9.208833099514896"><ele>953.0</ele><time>2026-05-03T09:13:25.003Z</time></trkpt><trkpt lat="41.66811674644703" lon="9.20873027583528"><ele>953.0</ele><time>2026-05-03T09:13:26.003Z</time></trkpt><trkpt lat="41.66814409190545" lon="9.208603873814132"><ele>949.0</ele><time>2026-05-03T09:13:28.003Z</time></trkpt></trkseg><trkseg><trkpt lat="41.67332035723287" lon="9.207019074302178"><ele>958.0</ele><time>2026-05-03T09:34:17.001Z</time></trkpt><trkpt lat="41.67345854977174" lon="9.206963145387395"><ele>958.0</ele><time>2026-05-03T09:34:18.001Z</time></trkpt><trkpt lat="41.673610974260434" lon="9.20689361934539"><ele>958.0</ele><time>2026-05-03T09:34:19.001Z</time></trkpt><trkpt lat="41.67376927044113" lon="9.206805237996923"><ele>956.6666666666666</ele><time>2026-05-03T09:34:20.001Z</time></trkpt><trkpt lat="41.67394631429757" lon="9.206728568483365"><ele>955.3333333333333</ele><time>2026-05-03T09:34:21.001Z</time></trkpt><trkpt lat="41.6741144337497" lon="9.206667137782555"><ele>954.0</ele><time>2026-05-03T09:34:22.001Z</time></trkpt><trkpt lat="41.67426275009371" lon="9.206653738622919"><ele>954.0</ele><time>2026-05-03T09:34:23.001Z</time></trkpt><trkpt lat="41.674424090729765" lon="9.2066582585227"><ele>954.0</ele><time>2026-05-03T09:34:24.001Z</time></trkpt><trkpt lat="41.674581892121175" lon="9.206720852297742"><ele>954.0</ele><time>2026-05-03T09:34:25.001Z</time></trkpt><trkpt lat="41.67474896006611" lon="9.206804197333902"><ele>955.3333333333333</ele><time>2026-05-03T09:34:26Z</time></trkpt><trkpt lat="41.67490863594637" lon="9.20690155796842"><ele>956.6666666666666</ele><time>2026-05-03T09:34:27Z</time></trkpt><trkpt lat="41.67506859553977" lon="9.206986453586211"><ele>958.0</ele><time>2026-05-03T09:34:28Z</time></trkpt><trkpt lat="41.67522654480521" lon="9.207029039961954"><ele>957.3333333333333</ele><time>2026-05-03T09:34:29Z</time></trkpt><trkpt lat="41.67539722599906" lon="9.207023157295419"><ele>956.6666666666667</ele><time>2026-05-03T09:34:30Z</time></trkpt><trkpt lat="41.675565376888876" lon="9.206997156219952"><ele>956.0</ele><time>2026-05-03T09:34:31Z</time></trkpt><trkpt lat="41.67572465434234" lon="9.206972761619081"><ele>956.0</ele><time>2026-05-03T09:34:32Z</time></trkpt><trkpt lat="41.67587324718739" lon="9.206934032984575"><ele>956.0</ele><time>2026-05-03T09:34:33Z</time></trkpt><trkpt lat="41.675995823843174" lon="9.206838154525673"><ele>956.0</ele><time>2026-05-03T09:34:34Z</time></trkpt><trkpt lat="41.67607968991999" lon="9.20668849631006"><ele>956.0</ele><time>2026-05-03T09:34:35Z</time></trkpt><trkpt lat="41.67613721606725" lon="9.206523398054168"><ele>953.25</ele><time>2026-05-03T09:34:36Z</time></trkpt><trkpt lat="41.676192466216094" lon="9.206332470067553"><ele>950.5</ele><time>2026-05-03T09:34:37Z</time></trkpt><trkpt lat="41.67625788083709" lon="9.206148806499318"><ele>947.75</ele><time>2026-05-03T09:34:38Z</time></trkpt><trkpt lat="41.676330168435626" lon="9.205981381804971"><ele>945.0</ele><time>2026-05-03T09:34:39Z</time></trkpt><trkpt lat="41.67638631920594" lon="9.205822244799112"><ele>947.0</ele><time>2026-05-03T09:34:40Z</time></trkpt><trkpt lat="41.676390783685314" lon="9.205637249116256"><ele>949.0</ele><time>2026-05-03T09:34:41Z</time></trkpt><trkpt lat="41.67635688251855" lon="9.205428346845117"><ele>951.0</ele><time>2026-05-03T09:34:42Z</time></trkpt><trkpt lat="41.67637480677417" lon="9.205204169437659"><ele>951.0</ele><time>2026-05-03T09:34:43Z</time></trkpt><trkpt lat="41.67643714603871" lon="9.20497663287245"><ele>951.0</ele><time>2026-05-03T09:34:44Z</time></trkpt><trkpt lat="41.67653141933116" lon="9.20476992593836"><ele>951.0</ele><time>2026-05-03T09:34:45Z</time></trkpt><trkpt lat="41.67661898305309" lon="9.204579732067595"><ele>952.25</ele><time>2026-05-03T09:34:46Z</time></trkpt><trkpt lat="41.676694244206935" lon="9.204398242989422"><ele>953.5</ele><time>2026-05-03T09:34:47Z</time></trkpt><trkpt lat="41.676778900249815" lon="9.204248062836394"><ele>954.75</ele><time>2026-05-03T09:34:48Z</time></trkpt><trkpt lat="41.67687646251387" lon="9.204120231129135"><ele>956.0</ele><time>2026-05-03T09:34:49Z</time></trkpt><trkpt lat="41.67695635747147" lon="9.20398982287688"><ele>957.0</ele><time>2026-05-03T09:34:50Z</time></trkpt><trkpt lat="41.67700195344389" lon="9.203825704091951"><ele>958.0</ele><time>2026-05-03T09:34:51Z</time></trkpt><trkpt lat="41.67699157100621" lon="9.20363775138239"><ele>959.0</ele><time>2026-05-03T09:34:52Z</time></trkpt><trkpt lat="41.67694767697138" lon="9.203450025216961"><ele>960.0</ele><time>2026-05-03T09:34:53Z</time></trkpt><trkpt lat="41.67689339378202" lon="9.203261969485604"><ele>958.0</ele><time>2026-05-03T09:34:54Z</time></trkpt><trkpt lat="41.67685071438269" lon="9.2030643716783"><ele>956.0</ele><time>2026-05-03T09:34:55Z</time></trkpt><trkpt lat="41.67681303258542" lon="9.20285516277203"><ele>954.0</ele><time>2026-05-03T09:34:56Z</time></trkpt><trkpt lat="41.67676860907697" lon="9.202642043095956"><ele>954.0</ele><time>2026-05-03T09:34:57Z</time></trkpt><trkpt lat="41.67671701765239" lon="9.202428888597758"><ele>954.0</ele><time>2026-05-03T09:34:58Z</time></trkpt><trkpt lat="41.676665368019414" lon="9.202222890266428"><ele>954.0</ele><time>2026-05-03T09:34:59Z</time></trkpt><trkpt lat="41.6766240613616" lon="9.202025388861603"><ele>954.75</ele><time>2026-05-03T09:35:00Z</time></trkpt><trkpt lat="41.67659777696401" lon="9.201845005279903"><ele>955.5</ele><time>2026-05-03T09:35:01Z</time></trkpt><trkpt lat="41.676613976638556" lon="9.201702996810429"><ele>956.25</ele><time>2026-05-03T09:35:02Z</time></trkpt><trkpt lat="41.676668509777016" lon="9.201583669814516"><ele>957.0</ele><time>2026-05-03T09:35:03Z</time></trkpt><trkpt lat="41.676768287582" lon="9.201518752007935"><ele>957.0</ele><time>2026-05-03T09:35:04Z</time></trkpt><trkpt lat="41.676887941628515" lon="9.201524490294993"><ele>957.0</ele><time>2026-05-03T09:35:05Z</time></trkpt><trkpt lat="41.67701651356717" lon="9.201579746226631"><ele>957.0</ele><time>2026-05-03T09:35:06Z</time></trkpt><trkpt lat="41.67714976702222" lon="9.2016631607505"><ele>957.0</ele><time>2026-05-03T09:35:07Z</time></trkpt><trkpt lat="41.677290968162865" lon="9.201758035630565"><ele>956.0</ele><time>2026-05-03T09:35:08Z</time></trkpt><trkpt lat="41.67744695298958" lon="9.201857027454803"><ele>955.0</ele><time>2026-05-03T09:35:09Z</time></trkpt><trkpt lat="41.677610442713814" lon="9.201964510235458"><ele>954.0</ele><time>2026-05-03T09:35:10Z</time></trkpt><trkpt lat="41.67777807128911" lon="9.202077007770066"><ele>957.3333333333333</ele><time>2026-05-03T09:35:11Z</time></trkpt><trkpt lat="41.67796047224862" lon="9.202211828659335"><ele>960.6666666666666</ele><time>2026-05-03T09:35:12Z</time></trkpt><trkpt lat="41.67813208059418" lon="9.202361962118614"><ele>964.0</ele><time>2026-05-03T09:35:13Z</time></trkpt><trkpt lat="41.678307138175924" lon="9.202530123991233"><ele>961.3333333333333</ele><time>2026-05-03T09:35:14Z</time></trkpt><trkpt lat="41.67848581574467" lon="9.202692467715998"><ele>958.6666666666667</ele><time>2026-05-03T09:35:15Z</time></trkpt><trkpt lat="41.67866267686347" lon="9.202823083479533"><ele>956.0</ele><time>2026-05-03T09:35:16Z</time></trkpt><trkpt lat="41.678818721788005" lon="9.202955568672479"><ele>956.0</ele><time>2026-05-03T09:35:17Z</time></trkpt><trkpt lat="41.67896602091977" lon="9.203067513973043"><ele>956.0</ele><time>2026-05-03T09:35:18Z</time></trkpt><trkpt lat="41.67913362813781" lon="9.203110370715065"><ele>956.0</ele><time>2026-05-03T09:35:19Z</time></trkpt><trkpt lat="41.67931133750148" lon="9.203122455682461"><ele>954.6666666666667</ele><time>2026-05-03T09:35:20Z</time></trkpt><trkpt lat="41.67948863145424" lon="9.203129128857782"><ele>953.3333333333333</ele><time>2026-05-03T09:35:21Z</time></trkpt><trkpt lat="41.679664731435345" lon="9.203129241018647"><ele>952.0</ele><time>2026-05-03T09:35:22Z</time></trkpt><trkpt lat="41.67983695694363" lon="9.203089679866324"><ele>952.0</ele><time>2026-05-03T09:35:23Z</time></trkpt><trkpt lat="41.68001946258035" lon="9.20303493257655"><ele>952.0</ele><time>2026-05-03T09:35:24Z</time></trkpt><trkpt lat="41.68019355915228" lon="9.203031762969674"><ele>952.0</ele><time>2026-05-03T09:35:25Z</time></trkpt><trkpt lat="41.680346291284266" lon="9.20308083078704"><ele>950.75</ele><time>2026-05-03T09:35:26Z</time></trkpt><trkpt lat="41.680461277057184" lon="9.203121044817948"><ele>949.5</ele><time>2026-05-03T09:35:27Z</time></trkpt><trkpt lat="41.68058742446667" lon="9.203071565095758"><ele>948.25</ele><time>2026-05-03T09:35:28Z</time></trkpt><trkpt lat="41.68072980337428" lon="9.202993789933377"><ele>947.0</ele><time>2026-05-03T09:35:29Z</time></trkpt><trkpt lat="41.68088490402909" lon="9.202956113258972"><ele>947.0</ele><time>2026-05-03T09:35:30Z</time></trkpt><trkpt lat="41.681045768377" lon="9.202945400015063"><ele>947.0</ele><time>2026-05-03T09:35:31Z</time></trkpt><trkpt lat="41.681212732441644" lon="9.202931520181329"><ele>947.0</ele><time>2026-05-03T09:35:32Z</time></trkpt><trkpt lat="41.681389087216985" lon="9.202886708787148"><ele>944.3333333333334</ele><time>2026-05-03T09:35:33Z</time></trkpt><trkpt lat="41.68154943894293" lon="9.202847125023176"><ele>941.6666666666667</ele><time>2026-05-03T09:35:34Z</time></trkpt><trkpt lat="41.68169727649176" lon="9.202793180597093"><ele>939.0</ele><time>2026-05-03T09:35:35Z</time></trkpt><trkpt lat="41.68182638157287" lon="9.202725092539382"><ele>938.5</ele><time>2026-05-03T09:35:36Z</time></trkpt><trkpt lat="41.681932739791144" lon="9.202626307455034"><ele>938.0</ele><time>2026-05-03T09:35:37Z</time></trkpt><trkpt lat="41.681984472005695" lon="9.20249183060121"><ele>937.5</ele><time>2026-05-03T09:35:38Z</time></trkpt><trkpt lat="41.68197290222304" lon="9.202316750015463"><ele>937.0</ele><time>2026-05-03T09:35:39Z</time></trkpt><trkpt lat="41.68193109986626" lon="9.202134101650111"><ele>938.75</ele><time>2026-05-03T09:35:40Z</time></trkpt><trkpt lat="41.681868137670264" lon="9.201944696553536"><ele>940.5</ele><time>2026-05-03T09:35:41Z</time></trkpt><trkpt lat="41.6818189197338" lon="9.201767378208373"><ele>942.25</ele><time>2026-05-03T09:35:41.998Z</time></trkpt><trkpt lat="41.68180802982789" lon="9.20159928420878"><ele>944.0</ele><time>2026-05-03T09:35:42.998Z</time></trkpt><trkpt lat="41.68184547556611" lon="9.201444830176072"><ele>946.25</ele><time>2026-05-03T09:35:43.998Z</time></trkpt><trkpt lat="41.68191393887532" lon="9.201342941816648"><ele>948.5</ele><time>2026-05-03T09:35:44.998Z</time></trkpt><trkpt lat="41.68202104634062" lon="9.201286677982129"><ele>950.75</ele><time>2026-05-03T09:35:45.998Z</time></trkpt><trkpt lat="41.68216413775686" lon="9.20128456125836"><ele>953.0</ele><time>2026-05-03T09:35:46.998Z</time></trkpt><trkpt lat="41.682335249573626" lon="9.20130856198898"><ele>953.6666666666667</ele><time>2026-05-03T09:35:47.998Z</time></trkpt><trkpt lat="41.682503242261795" lon="9.201351952178324"><ele>954.3333333333333</ele><time>2026-05-03T09:35:48.998Z</time></trkpt><trkpt lat="41.68267109457226" lon="9.20143779459087"><ele>955.0</ele><time>2026-05-03T09:35:49.998Z</time></trkpt><trkpt lat="41.682809687894476" lon="9.201579515406472"><ele>948.3333333333333</ele><time>2026-05-03T09:35:50.998Z</time></trkpt><trkpt lat="41.682939222812955" lon="9.201689766521731"><ele>941.6666666666667</ele><time>2026-05-03T09:35:51.998Z</time></trkpt><trkpt lat="41.683084122742386" lon="9.201721793003975"><ele>935.0</ele><time>2026-05-03T09:35:52.998Z</time></trkpt><trkpt lat="41.68324314868466" lon="9.20170564849563"><ele>935.0</ele><time>2026-05-03T09:35:53.998Z</time></trkpt><trkpt lat="41.68340744266462" lon="9.201675505490844"><ele>935.0</ele><time>2026-05-03T09:35:54.998Z</time></trkpt><trkpt lat="41.68354504863653" lon="9.201629971293988"><ele>935.0</ele><time>2026-05-03T09:35:55.998Z</time></trkpt><trkpt lat="41.68367035221767" lon="9.201576248745939"><ele>935.0</ele><time>2026-05-03T09:35:56.998Z</time></trkpt><trkpt lat="41.68378993668998" lon="9.201532757959843"><ele>935.8</ele><time>2026-05-03T09:35:57.998Z</time></trkpt><trkpt lat="41.6839071962623" lon="9.201529040375718"><ele>936.6</ele><time>2026-05-03T09:35:58.998Z</time></trkpt><trkpt lat="41.68399269273329" lon="9.201532423352187"><ele>937.4000000000001</ele><time>2026-05-03T09:35:59.998Z</time></trkpt><trkpt lat="41.68408045722932" lon="9.20152305908542"><ele>938.2</ele><time>2026-05-03T09:36:00.999Z</time></trkpt><trkpt lat="41.68417882098059" lon="9.201501828207634"><ele>939.0</ele><time>2026-05-03T09:36:01.999Z</time></trkpt><trkpt lat="41.68427885232578" lon="9.201457173909251"><ele>939.0</ele><time>2026-05-03T09:36:02.999Z</time></trkpt><trkpt lat="41.68438304080153" lon="9.201386722894995"><ele>939.0</ele><time>2026-05-03T09:36:03.999Z</time></trkpt><trkpt lat="41.684484105605634" lon="9.20130215799285"><ele>939.0</ele><time>2026-05-03T09:36:04.999Z</time></trkpt><trkpt lat="41.68457544806102" lon="9.20119680716154"><ele>939.0</ele><time>2026-05-03T09:36:05.999Z</time></trkpt><trkpt lat="41.68465788440108" lon="9.20106286221803"><ele>936.75</ele><time>2026-05-03T09:36:06.999Z</time></trkpt><trkpt lat="41.68472692360672" lon="9.20092780567646"><ele>934.5</ele><time>2026-05-03T09:36:07.999Z</time></trkpt><trkpt lat="41.68478156461668" lon="9.200765849531166"><ele>932.25</ele><time>2026-05-03T09:36:08.999Z</time></trkpt><trkpt lat="41.68482449088064" lon="9.200602611962507"><ele>930.0</ele><time>2026-05-03T09:36:09.999Z</time></trkpt><trkpt lat="41.68481294847688" lon="9.20040684872269"><ele>930.0</ele><time>2026-05-03T09:36:10.999Z</time></trkpt><trkpt lat="41.684784190716684" lon="9.200202865125846"><ele>930.0</ele><time>2026-05-03T09:36:11.999Z</time></trkpt><trkpt lat="41.684735498633906" lon="9.200023516700403"><ele>930.0</ele><time>2026-05-03T09:36:12.999Z</time></trkpt><trkpt lat="41.68464069960953" lon="9.199860954971731"><ele>930.0</ele><time>2026-05-03T09:36:13.999Z</time></trkpt><trkpt lat="41.684525429264305" lon="9.199713764590197"><ele>930.0</ele><time>2026-05-03T09:36:14.999Z</time></trkpt><trkpt lat="41.68443103604268" lon="9.199526044119164"><ele>930.0</ele><time>2026-05-03T09:36:15.999Z</time></trkpt><trkpt lat="41.684381716881205" lon="9.199309300104398"><ele>934.0</ele><time>2026-05-03T09:36:16.999Z</time></trkpt><trkpt lat="41.684344625425936" lon="9.199077783002153"><ele>938.0</ele><time>2026-05-03T09:36:17.999Z</time></trkpt><trkpt lat="41.684334340999484" lon="9.198878348605572"><ele>942.0</ele><time>2026-05-03T09:36:18.999Z</time></trkpt><trkpt lat="41.68438885811908" lon="9.198718738894227"><ele>939.6666666666667</ele><time>2026-05-03T09:36:19.999Z</time></trkpt><trkpt lat="41.68449344790341" lon="9.198573133036422"><ele>937.3333333333334</ele><time>2026-05-03T09:36:20.999Z</time></trkpt><trkpt lat="41.68464486281767" lon="9.198453838278613"><ele>935.0</ele><time>2026-05-03T09:36:21.999Z</time></trkpt><trkpt lat="41.68480227381684" lon="9.198359470447494"><ele>935.0</ele><time>2026-05-03T09:36:22.999Z</time></trkpt><trkpt lat="41.68494783980582" lon="9.198241677516993"><ele>935.0</ele><time>2026-05-03T09:36:23.999Z</time></trkpt><trkpt lat="41.68508952022797" lon="9.19811456346496"><ele>935.0</ele><time>2026-05-03T09:36:24.999Z</time></trkpt><trkpt lat="41.685228327659466" lon="9.197993948556412"><ele>934.25</ele><time>2026-05-03T09:36:25.999Z</time></trkpt><trkpt lat="41.68534702445699" lon="9.197874695933502"><ele>933.5</ele><time>2026-05-03T09:36:26.999Z</time></trkpt><trkpt lat="41.68543507019729" lon="9.197732258500658"><ele>932.75</ele><time>2026-05-03T09:36:27.999Z</time></trkpt><trkpt lat="41.685479470473695" lon="9.197548782329303"><ele>932.0</ele><time>2026-05-03T09:36:28.999Z</time></trkpt><trkpt lat="41.6854774453704" lon="9.197330742867505"><ele>931.6666666666667</ele><time>2026-05-03T09:36:29.999Z</time></trkpt><trkpt lat="41.68544201187309" lon="9.19710705578935"><ele>931.3333333333333</ele><time>2026-05-03T09:36:30.999Z</time></trkpt><trkpt lat="41.685409428115854" lon="9.19687996014894"><ele>931.0</ele><time>2026-05-03T09:36:32Z</time></trkpt><trkpt lat="41.685389071116795" lon="9.19666807970839"><ele>930.5</ele><time>2026-05-03T09:36:33Z</time></trkpt><trkpt lat="41.68539441112903" lon="9.196495393932606"><ele>930.0</ele><time>2026-05-03T09:36:34Z</time></trkpt><trkpt lat="41.68542649015011" lon="9.19633566197114"><ele>929.5</ele><time>2026-05-03T09:36:35Z</time></trkpt><trkpt lat="41.68550035667274" lon="9.196202034947124"><ele>929.0</ele><time>2026-05-03T09:36:36Z</time></trkpt><trkpt lat="41.68561178280024" lon="9.196105609259256"><ele>929.0</ele><time>2026-05-03T09:36:37Z</time></trkpt><trkpt lat="41.68572536614782" lon="9.196026839276284"><ele>929.0</ele><time>2026-05-03T09:36:38Z</time></trkpt><trkpt lat="41.685849097778195" lon="9.195941709128464"><ele>929.0</ele><time>2026-05-03T09:36:39Z</time></trkpt><trkpt lat="41.685979225745605" lon="9.195857576917508"><ele>929.0</ele><time>2026-05-03T09:36:40Z</time></trkpt><trkpt lat="41.68611571142173" lon="9.19581060550184"><ele>929.0</ele><time>2026-05-03T09:36:41Z</time></trkpt><trkpt lat="41.686265842164794" lon="9.195825597980829"><ele>929.0</ele><time>2026-05-03T09:36:42Z</time></trkpt><trkpt lat="41.68641715804314" lon="9.195901401263438"><ele>929.0</ele><time>2026-05-03T09:36:43Z</time></trkpt><trkpt lat="41.6865604926332" lon="9.196028687934579"><ele>929.0</ele><time>2026-05-03T09:36:44Z</time></trkpt><trkpt lat="41.68667580971609" lon="9.196188490631691"><ele>929.0</ele><time>2026-05-03T09:36:45Z</time></trkpt><trkpt lat="41.68675558112662" lon="9.196376231043876"><ele>929.0</ele><time>2026-05-03T09:36:46Z</time></trkpt><trkpt lat="41.68682563053075" lon="9.196581109380046"><ele>928.3333333333334</ele><time>2026-05-03T09:36:47Z</time></trkpt><trkpt lat="41.6869041654955" lon="9.196791412970727"><ele>927.6666666666667</ele><time>2026-05-03T09:36:48Z</time></trkpt><trkpt lat="41.687009190324844" lon="9.19700174460398"><ele>927.0</ele><time>2026-05-03T09:36:49Z</time></trkpt><trkpt lat="41.687141268497946" lon="9.197197315757965"><ele>927.6666666666667</ele><time>2026-05-03T09:36:50Z</time></trkpt><trkpt lat="41.68726768523766" lon="9.197401158748534"><ele>928.3333333333334</ele><time>2026-05-03T09:36:51Z</time></trkpt><trkpt lat="41.68736308008843" lon="9.197645398528863"><ele>929.0</ele><time>2026-05-03T09:36:52Z</time></trkpt><trkpt lat="41.68740581173154" lon="9.197921756301438"><ele>928.3333333333334</ele><time>2026-05-03T09:36:53Z</time></trkpt><trkpt lat="41.68741472169306" lon="9.198193590746952"><ele>927.6666666666667</ele><time>2026-05-03T09:36:54Z</time></trkpt><trkpt lat="41.68743435883327" lon="9.198440913639653"><ele>927.0</ele><time>2026-05-03T09:36:55Z</time></trkpt><trkpt lat="41.68749213167071" lon="9.198688008114095"><ele>927.0</ele><time>2026-05-03T09:36:56Z</time></trkpt><trkpt lat="41.687580971114684" lon="9.19892164478631"><ele>927.0</ele><time>2026-05-03T09:36:57Z</time></trkpt><trkpt lat="41.68767748076651" lon="9.199149130726267"><ele>927.0</ele><time>2026-05-03T09:36:58Z</time></trkpt><trkpt lat="41.687766223290346" lon="9.199352992808828"><ele>928.3333333333333</ele><time>2026-05-03T09:36:59Z</time></trkpt><trkpt lat="41.68784122493968" lon="9.199542266461163"><ele>929.6666666666666</ele><time>2026-05-03T09:37:00Z</time></trkpt><trkpt lat="41.68791556164219" lon="9.199714405398625"><ele>931.0</ele><time>2026-05-03T09:37:01Z</time></trkpt><trkpt lat="41.68799244149711" lon="9.199879880066112"><ele>931.0</ele><time>2026-05-03T09:37:02Z</time></trkpt><trkpt lat="41.68807815727007" lon="9.200032668880842"><ele>931.0</ele><time>2026-05-03T09:37:03Z</time></trkpt><trkpt lat="41.68816658047396" lon="9.200184044841402"><ele>931.0</ele><time>2026-05-03T09:37:04Z</time></trkpt><trkpt lat="41.68826704501195" lon="9.200322589577768"><ele>931.0</ele><time>2026-05-03T09:37:05Z</time></trkpt><trkpt lat="41.688358655241636" lon="9.200477159916014"><ele>931.0</ele><time>2026-05-03T09:37:06Z</time></trkpt><trkpt lat="41.68844619608883" lon="9.200648311581537"><ele>931.0</ele><time>2026-05-03T09:37:07Z</time></trkpt><trkpt lat="41.688511972771195" lon="9.200856250005913"><ele>931.0</ele><time>2026-05-03T09:37:08Z</time></trkpt><trkpt lat="41.68857679100736" lon="9.201080026275124"><ele>933.3333333333333</ele><time>2026-05-03T09:37:09Z</time></trkpt><trkpt lat="41.68863999455784" lon="9.201313538153997"><ele>935.6666666666667</ele><time>2026-05-03T09:37:10Z</time></trkpt><trkpt lat="41.6887104314828" lon="9.201550611805311"><ele>938.0</ele><time>2026-05-03T09:37:11Z</time></trkpt><trkpt lat="41.688776136651256" lon="9.20176825088536"><ele>938.0</ele><time>2026-05-03T09:37:12Z</time></trkpt><trkpt lat="41.68885678461428" lon="9.201994967733333"><ele>938.0</ele><time>2026-05-03T09:37:13Z</time></trkpt><trkpt lat="41.68895520873286" lon="9.202223606425449"><ele>938.0</ele><time>2026-05-03T09:37:14Z</time></trkpt><trkpt lat="41.68905882101023" lon="9.202458985915767"><ele>937.0</ele><time>2026-05-03T09:37:15Z</time></trkpt><trkpt lat="41.689162897043495" lon="9.202708525021702"><ele>936.0</ele><time>2026-05-03T09:37:16Z</time></trkpt><trkpt lat="41.68927157539488" lon="9.20294443692282"><ele>935.0</ele><time>2026-05-03T09:37:17Z</time></trkpt><trkpt lat="41.689380427140335" lon="9.203185817694989"><ele>937.6666666666667</ele><time>2026-05-03T09:37:18Z</time></trkpt><trkpt lat="41.689478002373484" lon="9.203428931329169"><ele>940.3333333333333</ele><time>2026-05-03T09:37:19Z</time></trkpt><trkpt lat="41.689560063373584" lon="9.203675938902677"><ele>943.0</ele><time>2026-05-03T09:37:20Z</time></trkpt><trkpt lat="41.689623066022875" lon="9.203948066805665"><ele>941.0</ele><time>2026-05-03T09:37:21Z</time></trkpt><trkpt lat="41.689671204273225" lon="9.204201056033336"><ele>939.0</ele><time>2026-05-03T09:37:22Z</time></trkpt><trkpt lat="41.689735928562214" lon="9.204429460160043"><ele>937.0</ele><time>2026-05-03T09:37:23Z</time></trkpt><trkpt lat="41.68982764571915" lon="9.204655759365794"><ele>934.6666666666666</ele><time>2026-05-03T09:37:24Z</time></trkpt><trkpt lat="41.68995763392645" lon="9.204860529919905"><ele>932.3333333333333</ele><time>2026-05-03T09:37:25Z</time></trkpt><trkpt lat="41.69011389460546" lon="9.205046519896994"><ele>930.0</ele><time>2026-05-03T09:37:26Z</time></trkpt><trkpt lat="41.69028555572822" lon="9.2052192396334"><ele>931.0</ele><time>2026-05-03T09:37:27Z</time></trkpt><trkpt lat="41.690465203963264" lon="9.205379078605235"><ele>932.0</ele><time>2026-05-03T09:37:28Z</time></trkpt><trkpt lat="41.69064241431128" lon="9.20553933020163"><ele>933.0</ele><time>2026-05-03T09:37:29Z</time></trkpt><trkpt lat="41.69081423883908" lon="9.205692938404894"><ele>933.0</ele><time>2026-05-03T09:37:30Z</time></trkpt><trkpt lat="41.690981047741566" lon="9.205847876867868"><ele>933.0</ele><time>2026-05-03T09:37:31Z</time></trkpt><trkpt lat="41.6911442616604" lon="9.205993388676093"><ele>933.0</ele><time>2026-05-03T09:37:32Z</time></trkpt><trkpt lat="41.691300976268934" lon="9.206141558566756"><ele>934.6666666666667</ele><time>2026-05-03T09:37:33Z</time></trkpt><trkpt lat="41.69144542123081" lon="9.206320650485624"><ele>936.3333333333334</ele><time>2026-05-03T09:37:34Z</time></trkpt><trkpt lat="41.69157053549419" lon="9.206525010195218"><ele>938.0</ele><time>2026-05-03T09:37:35Z</time></trkpt><trkpt lat="41.6916939117004" lon="9.206728507116287"><ele>938.0</ele><time>2026-05-03T09:37:36Z</time></trkpt><trkpt lat="41.69184071758369" lon="9.206914472939655"><ele>938.0</ele><time>2026-05-03T09:37:37Z</time></trkpt><trkpt lat="41.69200963259716" lon="9.207062933768965"><ele>938.0</ele><time>2026-05-03T09:37:38Z</time></trkpt><trkpt lat="41.69217568289235" lon="9.207210144058893"><ele>938.6666666666667</ele><time>2026-05-03T09:37:39Z</time></trkpt><trkpt lat="41.692334225076216" lon="9.207382451431036"><ele>939.3333333333333</ele><time>2026-05-03T09:37:40Z</time></trkpt><trkpt lat="41.69246493024316" lon="9.207558680386839"><ele>940.0</ele><time>2026-05-03T09:37:41Z</time></trkpt><trkpt lat="41.69258932501219" lon="9.207718428401604"><ele>940.0</ele><time>2026-05-03T09:37:42Z</time></trkpt><trkpt lat="41.69272062749569" lon="9.207848113474478"><ele>940.0</ele><time>2026-05-03T09:37:43Z</time></trkpt><trkpt lat="41.692889182849534" lon="9.207934906971593"><ele>940.0</ele><time>2026-05-03T09:37:44Z</time></trkpt><trkpt lat="41.69307187002895" lon="9.208000741838266"><ele>941.3333333333333</ele><time>2026-05-03T09:37:45Z</time></trkpt><trkpt lat="41.69324010817012" lon="9.208072016622227"><ele>942.6666666666667</ele><time>2026-05-03T09:37:46Z</time></trkpt><trkpt lat="41.69339058882242" lon="9.208172846509282"><ele>944.0</ele><time>2026-05-03T09:37:47Z</time></trkpt><trkpt lat="41.69350219379181" lon="9.208319186017853"><ele>944.0</ele><time>2026-05-03T09:37:47.997Z</time></trkpt><trkpt lat="41.693570973486814" lon="9.20850753958972"><ele>944.0</ele><time>2026-05-03T09:37:48.997Z</time></trkpt><trkpt lat="41.69362808415267" lon="9.208719409566699"><ele>944.0</ele><time>2026-05-03T09:37:49.997Z</time></trkpt><trkpt lat="41.69370443350131" lon="9.20893224191329"><ele>947.6666666666667</ele><time>2026-05-03T09:37:50.997Z</time></trkpt><trkpt lat="41.693801424953456" lon="9.209154779980324"><ele>951.3333333333333</ele><time>2026-05-03T09:37:51.997Z</time></trkpt><trkpt lat="41.69391590342685" lon="9.209366756775683"><ele>955.0</ele><time>2026-05-03T09:37:52.997Z</time></trkpt><trkpt lat="41.6940482636516" lon="9.209567082816946"><ele>955.0</ele><time>2026-05-03T09:37:53.997Z</time></trkpt><trkpt lat="41.69419362629826" lon="9.209740427505325"><ele>955.0</ele><time>2026-05-03T09:37:54.997Z</time></trkpt><trkpt lat="41.694332205167086" lon="9.20987847897539"><ele>955.0</ele><time>2026-05-03T09:37:55.997Z</time></trkpt><trkpt lat="41.69442680139975" lon="9.210017275040016"><ele>957.5</ele><time>2026-05-03T09:37:56.998Z</time></trkpt><trkpt lat="41.69447404904718" lon="9.210163392391934"><ele>960.0</ele><time>2026-05-03T09:37:57.998Z</time></trkpt><trkpt lat="41.69450480034586" lon="9.210319594254488"><ele>962.5</ele><time>2026-05-03T09:37:58.998Z</time></trkpt><trkpt lat="41.69452483040485" lon="9.210498417782437"><ele>965.0</ele><time>2026-05-03T09:37:59.998Z</time></trkpt><trkpt lat="41.69451395086943" lon="9.210697515989605"><ele>965.0</ele><time>2026-05-03T09:38:00.998Z</time></trkpt><trkpt lat="41.69452104592183" lon="9.210894318497528"><ele>965.0</ele><time>2026-05-03T09:38:01.998Z</time></trkpt><trkpt lat="41.69456980034622" lon="9.211097853386574"><ele>965.0</ele><time>2026-05-03T09:38:02.998Z</time></trkpt><trkpt lat="41.69465126166063" lon="9.211295313262779"><ele>965.0</ele><time>2026-05-03T09:38:03.998Z</time></trkpt><trkpt lat="41.694759350463954" lon="9.21146970821664"><ele>965.0</ele><time>2026-05-03T09:38:04.998Z</time></trkpt><trkpt lat="41.694892500497645" lon="9.21160963494516"><ele>965.0</ele><time>2026-05-03T09:38:05.998Z</time></trkpt><trkpt lat="41.69504591797244" lon="9.211701087883437"><ele>964.6666666666667</ele><time>2026-05-03T09:38:06.998Z</time></trkpt><trkpt lat="41.695216820256" lon="9.211776991500205"><ele>964.3333333333333</ele><time>2026-05-03T09:38:07.998Z</time></trkpt><trkpt lat="41.695394400705716" lon="9.211843173114822"><ele>964.0</ele><time>2026-05-03T09:38:08.998Z</time></trkpt><trkpt lat="41.69558147257077" lon="9.211903304227127"><ele>964.0</ele><time>2026-05-03T09:38:09.998Z</time></trkpt><trkpt lat="41.69577674318558" lon="9.211961378248933"><ele>964.0</ele><time>2026-05-03T09:38:10.999Z</time></trkpt><trkpt lat="41.6959742667772" lon="9.212040662927222"><ele>964.0</ele><time>2026-05-03T09:38:11.999Z</time></trkpt><trkpt lat="41.69614933952689" lon="9.212136232074178"><ele>962.3333333333333</ele><time>2026-05-03T09:38:12.999Z</time></trkpt><trkpt lat="41.696316188591794" lon="9.212254011324209"><ele>960.6666666666667</ele><time>2026-05-03T09:38:13.999Z</time></trkpt><trkpt lat="41.696479909221885" lon="9.212391367347607"><ele>959.0</ele><time>2026-05-03T09:38:14.999Z</time></trkpt><trkpt lat="41.696645411360855" lon="9.212510804800823"><ele>959.0</ele><time>2026-05-03T09:38:15.999Z</time></trkpt><trkpt lat="41.69681131869341" lon="9.212596953348024"><ele>959.0</ele><time>2026-05-03T09:38:16.999Z</time></trkpt><trkpt lat="41.69697739801332" lon="9.212635306031682"><ele>959.0</ele><time>2026-05-03T09:38:17.999Z</time></trkpt><trkpt lat="41.697154959963086" lon="9.212657860914538"><ele>962.3333333333334</ele><time>2026-05-03T09:38:18.999Z</time></trkpt><trkpt lat="41.69734162351005" lon="9.212649120445814"><ele>965.6666666666667</ele><time>2026-05-03T09:38:19.999Z</time></trkpt><trkpt lat="41.69752550421969" lon="9.212643117294585"><ele>969.0</ele><time>2026-05-03T09:38:20.999Z</time></trkpt><trkpt lat="41.697693802495756" lon="9.212618102643061"><ele>969.0</ele><time>2026-05-03T09:38:21.999Z</time></trkpt><trkpt lat="41.69786187105379" lon="9.212566990508645"><ele>969.0</ele><time>2026-05-03T09:38:22.999Z</time></trkpt><trkpt lat="41.69803399076026" lon="9.21252288365196"><ele>969.0</ele><time>2026-05-03T09:38:23.999Z</time></trkpt><trkpt lat="41.69822031745096" lon="9.21252664686261"><ele>969.0</ele><time>2026-05-03T09:38:24.999Z</time></trkpt><trkpt lat="41.69840443198765" lon="9.212544892805035"><ele>969.0</ele><time>2026-05-03T09:38:25.999Z</time></trkpt><trkpt lat="41.69857451197561" lon="9.212488717843573"><ele>969.0</ele><time>2026-05-03T09:38:26.999Z</time></trkpt><trkpt lat="41.69872432435353" lon="9.212373539976666"><ele>972.0</ele><time>2026-05-03T09:38:27.999Z</time></trkpt><trkpt lat="41.69888382463604" lon="9.212278473631654"><ele>975.0</ele><time>2026-05-03T09:38:28.999Z</time></trkpt><trkpt lat="41.69905574047607" lon="9.212248054809278"><ele>978.0</ele><time>2026-05-03T09:38:29.999Z</time></trkpt><trkpt lat="41.69921028229618" lon="9.212191723731515"><ele>978.0</ele><time>2026-05-03T09:38:30.999Z</time></trkpt><trkpt lat="41.6993359617146" lon="9.212069207650721"><ele>978.0</ele><time>2026-05-03T09:38:31.999Z</time></trkpt><trkpt lat="41.69945337046818" lon="9.211956404413517"><ele>978.0</ele><time>2026-05-03T09:38:32.999Z</time></trkpt><trkpt lat="41.699579651918064" lon="9.211919975841216"><ele>978.0</ele><time>2026-05-03T09:38:33.999Z</time></trkpt><trkpt lat="41.6997216954065" lon="9.211974994261023"><ele>977.75</ele><time>2026-05-03T09:38:34.999Z</time></trkpt><trkpt lat="41.69985237434323" lon="9.212039245431814"><ele>977.5</ele><time>2026-05-03T09:38:36Z</time></trkpt><trkpt lat="41.69998225712021" lon="9.212053898803436"><ele>977.25</ele><time>2026-05-03T09:38:37Z</time></trkpt><trkpt lat="41.70009725752421" lon="9.211992481081234"><ele>977.0</ele><time>2026-05-03T09:38:38Z</time></trkpt><trkpt lat="41.700194879437696" lon="9.211883948270625"><ele>978.0</ele><time>2026-05-03T09:38:39Z</time></trkpt><trkpt lat="41.700302046576226" lon="9.2117973474441"><ele>979.0</ele><time>2026-05-03T09:38:40Z</time></trkpt><trkpt lat="41.700434720920946" lon="9.21178970964423"><ele>980.0</ele><time>2026-05-03T09:38:41Z</time></trkpt><trkpt lat="41.70057016794928" lon="9.211863776294887"><ele>981.0</ele><time>2026-05-03T09:38:42Z</time></trkpt><trkpt lat="41.7006918419177" lon="9.211997701489828"><ele>981.0</ele><time>2026-05-03T09:38:43Z</time></trkpt><trkpt lat="41.70080956284839" lon="9.21215949098835"><ele>981.0</ele><time>2026-05-03T09:38:44Z</time></trkpt><trkpt lat="41.70094387294307" lon="9.212289119549386"><ele>981.0</ele><time>2026-05-03T09:38:45Z</time></trkpt><trkpt lat="41.70110740599185" lon="9.212372146740186"><ele>979.0</ele><time>2026-05-03T09:38:46Z</time></trkpt><trkpt lat="41.70128503592028" lon="9.212409613410985"><ele>977.0</ele><time>2026-05-03T09:38:47Z</time></trkpt><trkpt lat="41.70147195772984" lon="9.212411998324109"><ele>975.0</ele><time>2026-05-03T09:38:48Z</time></trkpt><trkpt lat="41.70166409693148" lon="9.212395207394051"><ele>975.0</ele><time>2026-05-03T09:38:49Z</time></trkpt><trkpt lat="41.70185622957511" lon="9.21236229903569"><ele>975.0</ele><time>2026-05-03T09:38:50Z</time></trkpt><trkpt lat="41.70203747879074" lon="9.212321116802356"><ele>975.0</ele><time>2026-05-03T09:38:51Z</time></trkpt><trkpt lat="41.70221070500757" lon="9.212303967728422"><ele>979.3333333333333</ele><time>2026-05-03T09:38:52Z</time></trkpt><trkpt lat="41.70238493699188" lon="9.212284281975348"><ele>983.6666666666666</ele><time>2026-05-03T09:38:53Z</time></trkpt><trkpt lat="41.7025683085758" lon="9.212277253691315"><ele>988.0</ele><time>2026-05-03T09:38:54Z</time></trkpt><trkpt lat="41.70275902420333" lon="9.212265233515206"><ele>988.3333333333333</ele><time>2026-05-03T09:38:55Z</time></trkpt><trkpt lat="41.70295275802024" lon="9.212284636409953"><ele>988.6666666666667</ele><time>2026-05-03T09:38:56Z</time></trkpt><trkpt lat="41.70314588187694" lon="9.21232750852203"><ele>989.0</ele><time>2026-05-03T09:38:57Z</time></trkpt><trkpt lat="41.70331492318599" lon="9.212376751120281"><ele>988.3333333333334</ele><time>2026-05-03T09:38:58Z</time></trkpt><trkpt lat="41.703476299118805" lon="9.212388362540075"><ele>987.6666666666667</ele><time>2026-05-03T09:38:59Z</time></trkpt><trkpt lat="41.703631934327774" lon="9.212341555553575"><ele>987.0</ele><time>2026-05-03T09:39:00Z</time></trkpt><trkpt lat="41.7037534533782" lon="9.212230050815572"><ele>987.0</ele><time>2026-05-03T09:39:01Z</time></trkpt><trkpt lat="41.70383049824446" lon="9.212079104966934"><ele>987.0</ele><time>2026-05-03T09:39:02Z</time></trkpt><trkpt lat="41.703883031321304" lon="9.211897544549249"><ele>987.0</ele><time>2026-05-03T09:39:03Z</time></trkpt><trkpt lat="41.70394956141227" lon="9.211712550524325"><ele>987.0</ele><time>2026-05-03T09:39:04Z</time></trkpt><trkpt lat="41.70405170657351" lon="9.211555714204382"><ele>988.6666666666667</ele><time>2026-05-03T09:39:05Z</time></trkpt><trkpt lat="41.70421112192226" lon="9.211452811801058"><ele>990.3333333333334</ele><time>2026-05-03T09:39:06Z</time></trkpt><trkpt lat="41.70439852831562" lon="9.211394571914795"><ele>992.0</ele><time>2026-05-03T09:39:07Z</time></trkpt><trkpt lat="41.7045925061712" lon="9.211386445867438"><ele>992.0</ele><time>2026-05-03T09:39:08Z</time></trkpt><trkpt lat="41.70478925436623" lon="9.211387577723787"><ele>992.0</ele><time>2026-05-03T09:39:09Z</time></trkpt><trkpt lat="41.70497834334509" lon="9.211373722650455"><ele>992.0</ele><time>2026-05-03T09:39:10Z</time></trkpt><trkpt lat="41.705167135262954" lon="9.211331046700423"><ele>992.3333333333334</ele><time>2026-05-03T09:39:11Z</time></trkpt><trkpt lat="41.705360729281885" lon="9.211242248296147"><ele>992.6666666666667</ele><time>2026-05-03T09:39:12Z</time></trkpt><trkpt lat="41.70554718527959" lon="9.21112519169639"><ele>993.0</ele><time>2026-05-03T09:39:13Z</time></trkpt><trkpt lat="41.70573646980866" lon="9.210995687615675"><ele>993.0</ele><time>2026-05-03T09:39:14Z</time></trkpt><trkpt lat="41.705945515045705" lon="9.210863991676312"><ele>993.0</ele><time>2026-05-03T09:39:15Z</time></trkpt><trkpt lat="41.70616005021586" lon="9.210759297698397"><ele>987.5</ele><time>2026-05-03T09:39:16Z</time></trkpt><trkpt lat="41.70638126520272" lon="9.210651595477465"><ele>982.0</ele><time>2026-05-03T09:39:17Z</time></trkpt><trkpt lat="41.70658292991496" lon="9.210533829154473"><ele>982.0</ele><time>2026-05-03T09:39:18Z</time></trkpt><trkpt lat="41.7067833523542" lon="9.210424647016556"><ele>982.0</ele><time>2026-05-03T09:39:19Z</time></trkpt><trkpt lat="41.706975398827794" lon="9.21033154477926"><ele>982.0</ele><time>2026-05-03T09:39:20.001Z</time></trkpt><trkpt lat="41.707154037266086" lon="9.2102513848254"><ele>983.3333333333333</ele><time>2026-05-03T09:39:21.001Z</time></trkpt><trkpt lat="41.70734170201498" lon="9.210175690953461"><ele>984.6666666666667</ele><time>2026-05-03T09:39:22.001Z</time></trkpt><trkpt lat="41.70751497216722" lon="9.21008536119552"><ele>986.0</ele><time>2026-05-03T09:39:23.001Z</time></trkpt><trkpt lat="41.707692623218705" lon="9.209999971810374"><ele>985.6666666666667</ele><time>2026-05-03T09:39:24.001Z</time></trkpt><trkpt lat="41.70788293760747" lon="9.209908481876466"><ele>985.3333333333333</ele><time>2026-05-03T09:39:25.001Z</time></trkpt><trkpt lat="41.70809104515335" lon="9.209828592798893"><ele>985.0</ele><time>2026-05-03T09:39:26.001Z</time></trkpt><trkpt lat="41.708294215883726" lon="9.209761908709911"><ele>978.6666666666666</ele><time>2026-05-03T09:39:27.001Z</time></trkpt><trkpt lat="41.708497006048034" lon="9.209706162780197"><ele>972.3333333333333</ele><time>2026-05-03T09:39:28.001Z</time></trkpt><trkpt lat="41.70865942489808" lon="9.209640016795827"><ele>966.0</ele><time>2026-05-03T09:39:29.001Z</time></trkpt><trkpt lat="41.70883288332469" lon="9.20960723805216"><ele>964.3333333333333</ele><time>2026-05-03T09:39:30.001Z</time></trkpt><trkpt lat="41.709007709781446" lon="9.209615361128892"><ele>962.6666666666666</ele><time>2026-05-03T09:39:31.001Z</time></trkpt><trkpt lat="41.70918844104799" lon="9.209649051104241"><ele>961.0</ele><time>2026-05-03T09:39:32.001Z</time></trkpt><trkpt lat="41.709380467814356" lon="9.20970153438324"><ele>960.3333333333333</ele><time>2026-05-03T09:39:33.001Z</time></trkpt><trkpt lat="41.709571030847904" lon="9.209772919275728"><ele>959.6666666666667</ele><time>2026-05-03T09:39:34.001Z</time></trkpt><trkpt lat="41.709772801337294" lon="9.209823355036956"><ele>959.0</ele><time>2026-05-03T09:39:35.001Z</time></trkpt><trkpt lat="41.709964751034626" lon="9.209853823246604"><ele>961.0</ele><time>2026-05-03T09:39:36.001Z</time></trkpt><trkpt lat="41.71015276290295" lon="9.209855998503564"><ele>963.0</ele><time>2026-05-03T09:39:37.001Z</time></trkpt><trkpt lat="41.71032969004067" lon="9.20982870511469"><ele>965.0</ele><time>2026-05-03T09:39:38.001Z</time></trkpt><trkpt lat="41.71051087291891" lon="9.209770533427966"><ele>965.0</ele><time>2026-05-03T09:39:39.001Z</time></trkpt><trkpt lat="41.71068342355788" lon="9.209687760807407"><ele>965.0</ele><time>2026-05-03T09:39:40.001Z</time></trkpt><trkpt lat="41.71083722718876" lon="9.209604978874477"><ele>965.0</ele><time>2026-05-03T09:39:41.001Z</time></trkpt><trkpt lat="41.71100115526808" lon="9.209529637225524"><ele>964.0</ele><time>2026-05-03T09:39:42.001Z</time></trkpt><trkpt lat="41.71117794892338" lon="9.20946232030706"><ele>963.0</ele><time>2026-05-03T09:39:43.001Z</time></trkpt><trkpt lat="41.711363474770174" lon="9.20944144752066"><ele>962.0</ele><time>2026-05-03T09:39:44.001Z</time></trkpt><trkpt lat="41.71154977383889" lon="9.209460766888803"><ele>962.0</ele><time>2026-05-03T09:39:45.001Z</time></trkpt><trkpt lat="41.71172521677372" lon="9.209512980668535"><ele>962.0</ele><time>2026-05-03T09:39:46.001Z</time></trkpt><trkpt lat="41.71187332193522" lon="9.209623970730942"><ele>962.0</ele><time>2026-05-03T09:39:47.001Z</time></trkpt><trkpt lat="41.712017196084496" lon="9.209753512277967"><ele>959.0</ele><time>2026-05-03T09:39:48.001Z</time></trkpt><trkpt lat="41.712168670415025" lon="9.209863792799915"><ele>956.0</ele><time>2026-05-03T09:39:49.001Z</time></trkpt><trkpt lat="41.712312075550344" lon="9.209974211337343"><ele>953.0</ele><time>2026-05-03T09:39:50.001Z</time></trkpt><trkpt lat="41.71247464889209" lon="9.210054693597803"><ele>953.0</ele><time>2026-05-03T09:39:51.001Z</time></trkpt><trkpt lat="41.71265191859945" lon="9.210088611126368"><ele>953.0</ele><time>2026-05-03T09:39:52.001Z</time></trkpt><trkpt lat="41.71282330957423" lon="9.210079634415846"><ele>953.0</ele><time>2026-05-03T09:39:53.001Z</time></trkpt><trkpt lat="41.71298193790644" lon="9.2100183415135"><ele>952.3333333333334</ele><time>2026-05-03T09:39:53.998Z</time></trkpt><trkpt lat="41.713116608704716" lon="9.209887832625878"><ele>951.6666666666667</ele><time>2026-05-03T09:39:54.998Z</time></trkpt><trkpt lat="41.71325791940548" lon="9.209755007424867"><ele>951.0</ele><time>2026-05-03T09:39:55.998Z</time></trkpt><trkpt lat="41.713414583297435" lon="9.209632165090364"><ele>951.3333333333333</ele><time>2026-05-03T09:39:56.998Z</time></trkpt><trkpt lat="41.71359091471362" lon="9.209538368049714"><ele>951.6666666666666</ele><time>2026-05-03T09:39:57.998Z</time></trkpt><trkpt lat="41.71374812767091" lon="9.209385683630078"><ele>952.0</ele><time>2026-05-03T09:39:58.998Z</time></trkpt><trkpt lat="41.71389723216307" lon="9.20921116911047"><ele>952.0</ele><time>2026-05-03T09:39:59.998Z</time></trkpt><trkpt lat="41.7140183224211" lon="9.209000403195839"><ele>952.0</ele><time>2026-05-03T09:40:00.998Z</time></trkpt><trkpt lat="41.71415260372203" lon="9.208843700819683"><ele>952.0</ele><time>2026-05-03T09:40:01.998Z</time></trkpt><trkpt lat="41.71426812379936" lon="9.208720850119297"><ele>947.75</ele><time>2026-05-03T09:40:02.998Z</time></trkpt><trkpt lat="41.71439377321224" lon="9.208663202019908"><ele>943.5</ele><time>2026-05-03T09:40:03.998Z</time></trkpt><trkpt lat="41.71453928423491" lon="9.208653065783066"><ele>939.25</ele><time>2026-05-03T09:40:04.998Z</time></trkpt><trkpt lat="41.71470320586232" lon="9.208651898449462"><ele>935.0</ele><time>2026-05-03T09:40:05.998Z</time></trkpt><trkpt lat="41.71485413187795" lon="9.208633496678692"><ele>935.0</ele><time>2026-05-03T09:40:06.998Z</time></trkpt><trkpt lat="41.71499427638862" lon="9.208626279722825"><ele>935.0</ele><time>2026-05-03T09:40:07.998Z</time></trkpt><trkpt lat="41.71513035886704" lon="9.208575649553188"><ele>935.0</ele><time>2026-05-03T09:40:08.998Z</time></trkpt><trkpt lat="41.7152592251528" lon="9.208499620731372"><ele>935.0</ele><time>2026-05-03T09:40:09.998Z</time></trkpt><trkpt lat="41.71539451046807" lon="9.208423967888885"><ele>937.3333333333334</ele><time>2026-05-03T09:40:10.999Z</time></trkpt><trkpt lat="41.715542848842354" lon="9.208372025958782"><ele>939.6666666666667</ele><time>2026-05-03T09:40:11.999Z</time></trkpt><trkpt lat="41.71569650661916" lon="9.208326002276333"><ele>942.0</ele><time>2026-05-03T09:40:12.999Z</time></trkpt><trkpt lat="41.71584843460514" lon="9.208306710760393"><ele>942.0</ele><time>2026-05-03T09:40:13.999Z</time></trkpt><trkpt lat="41.715974378850596" lon="9.208286660875059"><ele>942.0</ele><time>2026-05-03T09:40:14.999Z</time></trkpt><trkpt lat="41.71609261528142" lon="9.208252076984756"><ele>942.0</ele><time>2026-05-03T09:40:15.999Z</time></trkpt><trkpt lat="41.71617349302087" lon="9.208130878820894"><ele>942.0</ele><time>2026-05-03T09:40:16.999Z</time></trkpt><trkpt lat="41.71621648956867" lon="9.20796695264801"><ele>940.25</ele><time>2026-05-03T09:40:17.999Z</time></trkpt><trkpt lat="41.71620600213044" lon="9.207799780155668"><ele>938.5</ele><time>2026-05-03T09:40:18.999Z</time></trkpt><trkpt lat="41.716137787716946" lon="9.207623699737328"><ele>936.75</ele><time>2026-05-03T09:40:19.999Z</time></trkpt><trkpt lat="41.71601129470523" lon="9.207474653303018"><ele>935.0</ele><time>2026-05-03T09:40:20.999Z</time></trkpt><trkpt lat="41.715857389773504" lon="9.20736604238603"><ele>936.6666666666667</ele><time>2026-05-03T09:40:21.999Z</time></trkpt><trkpt lat="41.715694138657696" lon="9.207284395447362"><ele>938.3333333333333</ele><time>2026-05-03T09:40:22.999Z</time></trkpt><trkpt lat="41.715545925325834" lon="9.207220400222447"><ele>940.0</ele><time>2026-05-03T09:40:23.999Z</time></trkpt><trkpt lat="41.71544222961857" lon="9.207104552879665"><ele>940.0</ele><time>2026-05-03T09:40:24.999Z</time></trkpt><trkpt lat="41.715346518546056" lon="9.206980666962009"><ele>940.0</ele><time>2026-05-03T09:40:25.999Z</time></trkpt><trkpt lat="41.715286672766226" lon="9.206817974092584"><ele>940.0</ele><time>2026-05-03T09:40:26.999Z</time></trkpt><trkpt lat="41.71524849559618" lon="9.206615191911844"><ele>940.0</ele><time>2026-05-03T09:40:27.999Z</time></trkpt><trkpt lat="41.71524025409316" lon="9.20641835403299"><ele>934.0</ele><time>2026-05-03T09:40:29Z</time></trkpt><trkpt lat="41.715271400720695" lon="9.206242457379053"><ele>928.0</ele><time>2026-05-03T09:40:30Z</time></trkpt><trkpt lat="41.7153335333383" lon="9.206110719129992"><ele>922.0</ele><time>2026-05-03T09:40:31Z</time></trkpt><trkpt lat="41.71543957942214" lon="9.206046633065105"><ele>916.0</ele><time>2026-05-03T09:40:32Z</time></trkpt><trkpt lat="41.71556874112426" lon="9.20602107055852"><ele>916.0</ele><time>2026-05-03T09:40:33Z</time></trkpt><trkpt lat="41.715726211183416" lon="9.205965335036389"><ele>916.0</ele><time>2026-05-03T09:40:34Z</time></trkpt><trkpt lat="41.71589973419515" lon="9.205944966163838"><ele>916.0</ele><time>2026-05-03T09:40:35Z</time></trkpt><trkpt lat="41.716048121144716" lon="9.205926668150305"><ele>917.6666666666666</ele><time>2026-05-03T09:40:36Z</time></trkpt><trkpt lat="41.71619682297246" lon="9.205907453227157"><ele>919.3333333333333</ele><time>2026-05-03T09:40:37Z</time></trkpt><trkpt lat="41.7163605889128" lon="9.205897795395845"><ele>921.0</ele><time>2026-05-03T09:40:38Z</time></trkpt><trkpt lat="41.71653653017335" lon="9.205885388533039"><ele>921.0</ele><time>2026-05-03T09:40:39Z</time></trkpt><trkpt lat="41.71670739448558" lon="9.205863738725204"><ele>921.0</ele><time>2026-05-03T09:40:40Z</time></trkpt><trkpt lat="41.71689164849838" lon="9.205852559479842"><ele>921.0</ele><time>2026-05-03T09:40:41Z</time></trkpt><trkpt lat="41.717065480448" lon="9.205821215163342"><ele>921.6666666666667</ele><time>2026-05-03T09:40:42Z</time></trkpt><trkpt lat="41.71725439561393" lon="9.205811525194862"><ele>922.3333333333334</ele><time>2026-05-03T09:40:43Z</time></trkpt><trkpt lat="41.717434508901334" lon="9.205785640173401"><ele>923.0</ele><time>2026-05-03T09:40:44Z</time></trkpt><trkpt lat="41.71760783598964" lon="9.205756658910309"><ele>919.0</ele><time>2026-05-03T09:40:45Z</time></trkpt><trkpt lat="41.717769905963415" lon="9.205765826938732"><ele>915.0</ele><time>2026-05-03T09:40:46Z</time></trkpt><trkpt lat="41.71794366872421" lon="9.20580054231499"><ele>911.0</ele><time>2026-05-03T09:40:47Z</time></trkpt><trkpt lat="41.71810688708713" lon="9.205873680115891"><ele>911.0</ele><time>2026-05-03T09:40:48Z</time></trkpt><trkpt lat="41.71825363390489" lon="9.205986681015165"><ele>911.0</ele><time>2026-05-03T09:40:49Z</time></trkpt><trkpt lat="41.718403601621176" lon="9.206116372753463"><ele>911.0</ele><time>2026-05-03T09:40:50Z</time></trkpt><trkpt lat="41.71852627320402" lon="9.206293128660523"><ele>911.3333333333334</ele><time>2026-05-03T09:40:51Z</time></trkpt><trkpt lat="41.718640431470725" lon="9.20647492828474"><ele>911.6666666666667</ele><time>2026-05-03T09:40:52Z</time></trkpt><trkpt lat="41.718755932547126" lon="9.206634058339153"><ele>912.0</ele><time>2026-05-03T09:40:53Z</time></trkpt><trkpt lat="41.71889220047015" lon="9.206743286804834"><ele>912.0</ele><time>2026-05-03T09:40:54Z</time></trkpt><trkpt lat="41.71904561739533" lon="9.206787192220327"><ele>912.0</ele><time>2026-05-03T09:40:55Z</time></trkpt><trkpt lat="41.719206995617014" lon="9.206818826177123"><ele>912.0</ele><time>2026-05-03T09:40:56Z</time></trkpt><trkpt lat="41.719383212669264" lon="9.206792759414718"><ele>910.3333333333333</ele><time>2026-05-03T09:40:57Z</time></trkpt><trkpt lat="41.719555338661166" lon="9.206794795588353"><ele>908.6666666666666</ele><time>2026-05-03T09:40:58Z</time></trkpt><trkpt lat="41.719745479758224" lon="9.206793959070946"><ele>907.0</ele><time>2026-05-03T09:40:59.001Z</time></trkpt><trkpt lat="41.71992535280405" lon="9.206797228058953"><ele>907.0</ele><time>2026-05-03T09:41:00.001Z</time></trkpt><trkpt lat="41.720078897369234" lon="9.206785022976934"><ele>907.0</ele><time>2026-05-03T09:41:01.001Z</time></trkpt><trkpt lat="41.720225512533645" lon="9.206811689335593"><ele>907.0</ele><time>2026-05-03T09:41:02.001Z</time></trkpt><trkpt lat="41.72036584964939" lon="9.206881519537905"><ele>902.0</ele><time>2026-05-03T09:41:03.001Z</time></trkpt><trkpt lat="41.72051272188453" lon="9.206970802665513"><ele>897.0</ele><time>2026-05-03T09:41:04.001Z</time></trkpt><trkpt lat="41.720660304989394" lon="9.207070766603087"><ele>892.0</ele><time>2026-05-03T09:41:05.001Z</time></trkpt><trkpt lat="41.72080157585697" lon="9.20714231431719"><ele>892.0</ele><time>2026-05-03T09:41:06.001Z</time></trkpt><trkpt lat="41.72095209785908" lon="9.20719014210705"><ele>892.0</ele><time>2026-05-03T09:41:07.001Z</time></trkpt><trkpt lat="41.72111628190678" lon="9.207140996992104"><ele>892.0</ele><time>2026-05-03T09:41:08.001Z</time></trkpt><trkpt lat="41.72127428022775" lon="9.2070774412802"><ele>890.3333333333333</ele><time>2026-05-03T09:41:09.001Z</time></trkpt><trkpt lat="41.721441303231394" lon="9.20707920282048"><ele>888.6666666666667</ele><time>2026-05-03T09:41:10.001Z</time></trkpt><trkpt lat="41.72160480994423" lon="9.20716230088704"><ele>887.0</ele><time>2026-05-03T09:41:11.001Z</time></trkpt><trkpt lat="41.7217933182563" lon="9.207178003154217"><ele>892.0</ele><time>2026-05-03T09:41:12.001Z</time></trkpt><trkpt lat="41.721982133824106" lon="9.207137005221632"><ele>897.0</ele><time>2026-05-03T09:41:13.001Z</time></trkpt><trkpt lat="41.72216297740886" lon="9.207110600835687"><ele>902.0</ele><time>2026-05-03T09:41:14.001Z</time></trkpt><trkpt lat="41.722328947901524" lon="9.207095368254587"><ele>902.0</ele><time>2026-05-03T09:41:15.001Z</time></trkpt><trkpt lat="41.72246055501859" lon="9.207073841797557"><ele>902.0</ele><time>2026-05-03T09:41:16.001Z</time></trkpt><trkpt lat="41.722571675013285" lon="9.207026455833832"><ele>902.0</ele><time>2026-05-03T09:41:17.001Z</time></trkpt><trkpt lat="41.72263597911785" lon="9.206939577612236"><ele>902.0</ele><time>2026-05-03T09:41:18.001Z</time></trkpt><trkpt lat="41.72265439535097" lon="9.206790180640521"><ele>902.0</ele><time>2026-05-03T09:41:19.001Z</time></trkpt><trkpt lat="41.722625858747264" lon="9.206605487232263"><ele>902.0</ele><time>2026-05-03T09:41:20.001Z</time></trkpt><trkpt lat="41.72255948264729" lon="9.206418010988607"><ele>902.0</ele><time>2026-05-03T09:41:21.001Z</time></trkpt><trkpt lat="41.72248593173467" lon="9.206218168597916"><ele>902.0</ele><time>2026-05-03T09:41:22.001Z</time></trkpt><trkpt lat="41.72247855700668" lon="9.205988653421615"><ele>902.0</ele><time>2026-05-03T09:41:23.001Z</time></trkpt><trkpt lat="41.72245663321079" lon="9.205744470280447"><ele>902.0</ele><time>2026-05-03T09:41:24.001Z</time></trkpt><trkpt lat="41.72241767249838" lon="9.205502112898591"><ele>906.0</ele><time>2026-05-03T09:41:25.001Z</time></trkpt><trkpt lat="41.722327707126794" lon="9.205262416989571"><ele>910.0</ele><time>2026-05-03T09:41:26.001Z</time></trkpt><trkpt lat="41.722214383398246" lon="9.205014973149312"><ele>914.0</ele><time>2026-05-03T09:41:27.001Z</time></trkpt><trkpt lat="41.72210802449185" lon="9.20477625578675"><ele>918.0</ele><time>2026-05-03T09:41:28.001Z</time></trkpt><trkpt lat="41.72200710894638" lon="9.20456640883948"><ele>922.0</ele><time>2026-05-03T09:41:29.001Z</time></trkpt><trkpt lat="41.72189462487617" lon="9.204409313039701"><ele>926.0</ele><time>2026-05-03T09:41:30.001Z</time></trkpt><trkpt lat="41.72176449573906" lon="9.204319126080254"><ele>917.25</ele><time>2026-05-03T09:41:31.001Z</time></trkpt><trkpt lat="41.72164912856863" lon="9.204256925809938"><ele>908.5</ele><time>2026-05-03T09:41:32.001Z</time></trkpt><trkpt lat="41.721586037680005" lon="9.204121060169317"><ele>899.75</ele><time>2026-05-03T09:41:33.001Z</time></trkpt><trkpt lat="41.72157229408816" lon="9.203949850648034"><ele>891.0</ele><time>2026-05-03T09:41:34.001Z</time></trkpt><trkpt lat="41.72158852715414" lon="9.203745251269488"><ele>891.0</ele><time>2026-05-03T09:41:35.001Z</time></trkpt><trkpt lat="41.72163761978059" lon="9.203532070127087"><ele>891.0</ele><time>2026-05-03T09:41:36.001Z</time></trkpt><trkpt lat="41.721668585374914" lon="9.203314290039254"><ele>891.0</ele><time>2026-05-03T09:41:37.002Z</time></trkpt><trkpt lat="41.72169970046273" lon="9.203115697369736"><ele>892.0</ele><time>2026-05-03T09:41:38.002Z</time></trkpt><trkpt lat="41.72171127956463" lon="9.20292571210749"><ele>893.0</ele><time>2026-05-03T09:41:39.002Z</time></trkpt><trkpt lat="41.72175351710254" lon="9.202760281638426"><ele>894.0</ele><time>2026-05-03T09:41:40.002Z</time></trkpt><trkpt lat="41.72184344961443" lon="9.202648841004391"><ele>895.0</ele><time>2026-05-03T09:41:41.002Z</time></trkpt><trkpt lat="41.72196821003135" lon="9.202587086933473"><ele>895.0</ele><time>2026-05-03T09:41:42.002Z</time></trkpt><trkpt lat="41.72212886642724" lon="9.202555349718503"><ele>895.0</ele><time>2026-05-03T09:41:43.002Z</time></trkpt><trkpt lat="41.7222966965977" lon="9.20252327026167"><ele>895.0</ele><time>2026-05-03T09:41:44.002Z</time></trkpt><trkpt lat="41.72246568959303" lon="9.202468768262511"><ele>895.0</ele><time>2026-05-03T09:41:45.002Z</time></trkpt><trkpt lat="41.72261279288695" lon="9.202379178592002"><ele>895.0</ele><time>2026-05-03T09:41:46.002Z</time></trkpt><trkpt lat="41.7227460618467" lon="9.202249758706287"><ele>895.0</ele><time>2026-05-03T09:41:47.002Z</time></trkpt><trkpt lat="41.722864795714834" lon="9.202110001190265"><ele>889.5</ele><time>2026-05-03T09:41:48.002Z</time></trkpt><trkpt lat="41.72297396567151" lon="9.202003555956043"><ele>884.0</ele><time>2026-05-03T09:41:49.002Z</time></trkpt><trkpt lat="41.72311995337219" lon="9.201977910755021"><ele>878.5</ele><time>2026-05-03T09:41:50.002Z</time></trkpt><trkpt lat="41.72324782971956" lon="9.202061672631642"><ele>873.0</ele><time>2026-05-03T09:41:51.002Z</time></trkpt><trkpt lat="41.723382777745684" lon="9.202154003275531"><ele>873.0</ele><time>2026-05-03T09:41:52.002Z</time></trkpt><trkpt lat="41.72354774543898" lon="9.202241519915336"><ele>873.0</ele><time>2026-05-03T09:41:53.002Z</time></trkpt><trkpt lat="41.72371883307231" lon="9.202334903494753"><ele>873.0</ele><time>2026-05-03T09:41:54.002Z</time></trkpt><trkpt lat="41.72390128999573" lon="9.202397076502494"><ele>876.3333333333333</ele><time>2026-05-03T09:41:55.002Z</time></trkpt><trkpt lat="41.724102553722545" lon="9.202464543982988"><ele>879.6666666666666</ele><time>2026-05-03T09:41:56.002Z</time></trkpt><trkpt lat="41.72431354097964" lon="9.202491452218787"><ele>883.0</ele><time>2026-05-03T09:41:57.002Z</time></trkpt><trkpt lat="41.724518954217615" lon="9.20252127916185"><ele>883.0</ele><time>2026-05-03T09:41:58.002Z</time></trkpt><trkpt lat="41.724714569774086" lon="9.20255448978684"><ele>883.0</ele><time>2026-05-03T09:41:59.002Z</time></trkpt><trkpt lat="41.72489769312168" lon="9.202619256426884"><ele>883.0</ele><time>2026-05-03T09:41:59.998Z</time></trkpt><trkpt lat="41.72506658686571" lon="9.202674419802747"><ele>880.3333333333333</ele><time>2026-05-03T09:42:00.998Z</time></trkpt><trkpt lat="41.72522961384409" lon="9.20271300190501"><ele>877.6666666666667</ele><time>2026-05-03T09:42:01.998Z</time></trkpt><trkpt lat="41.725380361952574" lon="9.202769433665516"><ele>875.0</ele><time>2026-05-03T09:42:02.998Z</time></trkpt><trkpt lat="41.72553393750948" lon="9.202797274968093"><ele>875.0</ele><time>2026-05-03T09:42:03.998Z</time></trkpt><trkpt lat="41.72569722342308" lon="9.202825409958312"><ele>875.0</ele><time>2026-05-03T09:42:04.999Z</time></trkpt><trkpt lat="41.725862570541814" lon="9.202853500263405"><ele>875.0</ele><time>2026-05-03T09:42:05.999Z</time></trkpt><trkpt lat="41.72602640192785" lon="9.202875457341726"><ele>871.6666666666667</ele><time>2026-05-03T09:42:06.999Z</time></trkpt><trkpt lat="41.72618314868351" lon="9.202916605920134"><ele>868.3333333333333</ele><time>2026-05-03T09:42:07.999Z</time></trkpt><trkpt lat="41.72632945238015" lon="9.202973652431556"><ele>865.0</ele><time>2026-05-03T09:42:08.999Z</time></trkpt><trkpt lat="41.72647921563234" lon="9.203053398545201"><ele>865.0</ele><time>2026-05-03T09:42:09.999Z</time></trkpt><trkpt lat="41.726620098356335" lon="9.203156768898218"><ele>865.0</ele><time>2026-05-03T09:42:10.999Z</time></trkpt><trkpt lat="41.72690160930756" lon="9.203458685571213"><ele>867.3333333333333</ele><time>2026-05-03T09:42:12.999Z</time></trkpt><trkpt lat="41.727048011940056" lon="9.203579037566854"><ele>869.6666666666667</ele><time>2026-05-03T09:42:13.999Z</time></trkpt><trkpt lat="41.727188717500056" lon="9.203656438611212"><ele>872.0</ele><time>2026-05-03T09:42:14.999Z</time></trkpt><trkpt lat="41.72731293116281" lon="9.203702312479164"><ele>872.0</ele><time>2026-05-03T09:42:15.999Z</time></trkpt><trkpt lat="41.72743190458806" lon="9.203760472973737"><ele>872.0</ele><time>2026-05-03T09:42:16.999Z</time></trkpt><trkpt lat="41.727502868700434" lon="9.203901759447275"><ele>872.0</ele><time>2026-05-03T09:42:17.999Z</time></trkpt><trkpt lat="41.727560088650584" lon="9.204079760474773"><ele>872.0</ele><time>2026-05-03T09:42:18.999Z</time></trkpt><trkpt lat="41.72761886000472" lon="9.204273944521127"><ele>875.0</ele><time>2026-05-03T09:42:19.999Z</time></trkpt><trkpt lat="41.727663527493256" lon="9.204463116083124"><ele>878.0</ele><time>2026-05-03T09:42:20.999Z</time></trkpt><trkpt lat="41.72771882258848" lon="9.2046222513313"><ele>881.0</ele><time>2026-05-03T09:42:21.999Z</time></trkpt><trkpt lat="41.727779202208566" lon="9.2047290972987"><ele>884.0</ele><time>2026-05-03T09:42:22.999Z</time></trkpt><trkpt lat="41.72788581069234" lon="9.2047814840792"><ele>884.0</ele><time>2026-05-03T09:42:23.999Z</time></trkpt><trkpt lat="41.72799808272231" lon="9.204774976603026"><ele>884.0000000000001</ele><time>2026-05-03T09:42:24.999Z</time></trkpt><trkpt lat="41.728106909165895" lon="9.204724587846814"><ele>884.0000000000001</ele><time>2026-05-03T09:42:26Z</time></trkpt><trkpt lat="41.7281733179932" lon="9.2046032335961"><ele>884.0</ele><time>2026-05-03T09:42:27Z</time></trkpt><trkpt lat="41.72821721894436" lon="9.204472444863994"><ele>884.0</ele><time>2026-05-03T09:42:28Z</time></trkpt><trkpt lat="41.72822077200338" lon="9.204283916323442"><ele>884.0</ele><time>2026-05-03T09:42:29Z</time></trkpt><trkpt lat="41.728248701304246" lon="9.20414403961164"><ele>884.0</ele><time>2026-05-03T09:42:30Z</time></trkpt><trkpt lat="41.72835204383789" lon="9.204044844944967"><ele>884.0</ele><time>2026-05-03T09:42:31Z</time></trkpt><trkpt lat="41.72847652191341" lon="9.203961080158528"><ele>884.0</ele><time>2026-05-03T09:42:32Z</time></trkpt><trkpt lat="41.72861701538405" lon="9.203869628883703"><ele>879.0</ele><time>2026-05-03T09:42:33Z</time></trkpt><trkpt lat="41.72878061040657" lon="9.203798609710958"><ele>874.0</ele><time>2026-05-03T09:42:34Z</time></trkpt><trkpt lat="41.72891002371508" lon="9.203692189944816"><ele>869.0</ele><time>2026-05-03T09:42:35Z</time></trkpt><trkpt lat="41.72901821547448" lon="9.203624406924005"><ele>864.0</ele><time>2026-05-03T09:42:36Z</time></trkpt><trkpt lat="41.7291363869562" lon="9.20362065899394"><ele>864.0</ele><time>2026-05-03T09:42:37Z</time></trkpt><trkpt lat="41.729246587494174" lon="9.203715496165952"><ele>864.0</ele><time>2026-05-03T09:42:38Z</time></trkpt><trkpt lat="41.729374145163035" lon="9.203821028465624"><ele>864.0</ele><time>2026-05-03T09:42:39Z</time></trkpt><trkpt lat="41.72951047986963" lon="9.203897948004656"><ele>864.0</ele><time>2026-05-03T09:42:40Z</time></trkpt><trkpt lat="41.729648640937384" lon="9.203945641157606"><ele>865.5</ele><time>2026-05-03T09:42:41Z</time></trkpt><trkpt lat="41.72979873505469" lon="9.20394406032163"><ele>867.0</ele><time>2026-05-03T09:42:42Z</time></trkpt><trkpt lat="41.72994671027889" lon="9.203902150040022"><ele>868.5</ele><time>2026-05-03T09:42:43Z</time></trkpt><trkpt lat="41.730074096119495" lon="9.203818185482996"><ele>870.0</ele><time>2026-05-03T09:42:44Z</time></trkpt><trkpt lat="41.73017468344451" lon="9.203688493421827"><ele>868.5</ele><time>2026-05-03T09:42:45Z</time></trkpt><trkpt lat="41.730255921469656" lon="9.20355525704453"><ele>867.0</ele><time>2026-05-03T09:42:46Z</time></trkpt><trkpt lat="41.730367695968944" lon="9.203466788185978"><ele>865.5</ele><time>2026-05-03T09:42:47Z</time></trkpt><trkpt lat="41.730508252333685" lon="9.203432298177157"><ele>864.0</ele><time>2026-05-03T09:42:48Z</time></trkpt><trkpt lat="41.73063581627984" lon="9.203429777323489"><ele>864.0</ele><time>2026-05-03T09:42:49Z</time></trkpt><trkpt lat="41.73075809964634" lon="9.203471563543735"><ele>864.0</ele><time>2026-05-03T09:42:50Z</time></trkpt><trkpt lat="41.7308775788419" lon="9.203561464128292"><ele>864.0</ele><time>2026-05-03T09:42:51Z</time></trkpt><trkpt lat="41.73097657786477" lon="9.203664630713707"><ele>864.0</ele><time>2026-05-03T09:42:52.001Z</time></trkpt><trkpt lat="41.731052091885765" lon="9.203797659194574"><ele>867.25</ele><time>2026-05-03T09:42:53.001Z</time></trkpt><trkpt lat="41.731105255241125" lon="9.203960092647915"><ele>870.5</ele><time>2026-05-03T09:42:54.001Z</time></trkpt><trkpt lat="41.73118047150981" lon="9.204092679576325"><ele>873.75</ele><time>2026-05-03T09:42:55.001Z</time></trkpt><trkpt lat="41.73129892758054" lon="9.204154962167681"><ele>877.0</ele><time>2026-05-03T09:42:56.001Z</time></trkpt><trkpt lat="41.731431337295156" lon="9.204160172873896"><ele>877.0</ele><time>2026-05-03T09:42:57.001Z</time></trkpt><trkpt lat="41.73158179698299" lon="9.204147973202224"><ele>877.0</ele><time>2026-05-03T09:42:58.001Z</time></trkpt><trkpt lat="41.731715561715454" lon="9.204205853648684"><ele>877.0</ele><time>2026-05-03T09:42:59.001Z</time></trkpt><trkpt lat="41.731832787990285" lon="9.204308160771673"><ele>877.0</ele><time>2026-05-03T09:43:00.001Z</time></trkpt><trkpt lat="41.731962401070504" lon="9.204402185304952"><ele>876.0</ele><time>2026-05-03T09:43:01.001Z</time></trkpt><trkpt lat="41.732121468383056" lon="9.204435694624618"><ele>875.0</ele><time>2026-05-03T09:43:02.001Z</time></trkpt><trkpt lat="41.73229433867997" lon="9.204428195964338"><ele>874.0</ele><time>2026-05-03T09:43:03.001Z</time></trkpt><trkpt lat="41.732469693199995" lon="9.204406497595118"><ele>874.0</ele><time>2026-05-03T09:43:04.001Z</time></trkpt><trkpt lat="41.732638444712876" lon="9.204402354986653"><ele>874.0</ele><time>2026-05-03T09:43:05.001Z</time></trkpt><trkpt lat="41.732793777458085" lon="9.204370705678505"><ele>874.0</ele><time>2026-05-03T09:43:06.001Z</time></trkpt><trkpt lat="41.73294279441746" lon="9.204388700841928"><ele>874.3333333333333</ele><time>2026-05-03T09:43:07.001Z</time></trkpt><trkpt lat="41.73309151623944" lon="9.204449752798466"><ele>874.6666666666667</ele><time>2026-05-03T09:43:08.001Z</time></trkpt><trkpt lat="41.73323159799995" lon="9.204563161676484"><ele>875.0</ele><time>2026-05-03T09:43:09.001Z</time></trkpt><trkpt lat="41.73338521921557" lon="9.204648527997946"><ele>875.0</ele><time>2026-05-03T09:43:10.001Z</time></trkpt><trkpt lat="41.73351580056221" lon="9.204745127643113"><ele>875.0</ele><time>2026-05-03T09:43:11.001Z</time></trkpt><trkpt lat="41.73364866147975" lon="9.204836822335212"><ele>875.0</ele><time>2026-05-03T09:43:12.001Z</time></trkpt><trkpt lat="41.733770233279245" lon="9.204924587567406"><ele>875.0</ele><time>2026-05-03T09:43:13.001Z</time></trkpt><trkpt lat="41.73390588914749" lon="9.20500071341676"><ele>876.25</ele><time>2026-05-03T09:43:14.001Z</time></trkpt><trkpt lat="41.73403237632945" lon="9.205083495646369"><ele>877.5</ele><time>2026-05-03T09:43:15.001Z</time></trkpt><trkpt lat="41.73414092454571" lon="9.205159398911233"><ele>878.75</ele><time>2026-05-03T09:43:16.001Z</time></trkpt><trkpt lat="41.73424684850326" lon="9.20523380130679"><ele>880.0</ele><time>2026-05-03T09:43:17.001Z</time></trkpt><trkpt lat="41.734363764799504" lon="9.205256042487887"><ele>881.0</ele><time>2026-05-03T09:43:18.001Z</time></trkpt><trkpt lat="41.73449905749508" lon="9.205220892800892"><ele>882.0</ele><time>2026-05-03T09:43:19.001Z</time></trkpt><trkpt lat="41.7346258208289" lon="9.205129399619432"><ele>883.0</ele><time>2026-05-03T09:43:20.001Z</time></trkpt><trkpt lat="41.73474878071912" lon="9.205031359917038"><ele>884.0</ele><time>2026-05-03T09:43:21.001Z</time></trkpt><trkpt lat="41.734850065776556" lon="9.204937387202301"><ele>884.0</ele><time>2026-05-03T09:43:22.001Z</time></trkpt><trkpt lat="41.734950278683314" lon="9.204854995178616"><ele>884.0</ele><time>2026-05-03T09:43:23.001Z</time></trkpt><trkpt lat="41.73503955138803" lon="9.204744434802505"><ele>884.0</ele><time>2026-05-03T09:43:24.002Z</time></trkpt><trkpt lat="41.73510872961529" lon="9.204599997613546"><ele>884.0</ele><time>2026-05-03T09:43:25.002Z</time></trkpt><trkpt lat="41.73515596502336" lon="9.204445753224066"><ele>883.6</ele><time>2026-05-03T09:43:26.002Z</time></trkpt><trkpt lat="41.735222215760004" lon="9.2043168314708"><ele>883.2</ele><time>2026-05-03T09:43:27.002Z</time></trkpt><trkpt lat="41.73529836140303" lon="9.204219134173181"><ele>882.8000000000001</ele><time>2026-05-03T09:43:28.002Z</time></trkpt><trkpt lat="41.73539069419041" lon="9.20417378219781"><ele>882.4000000000001</ele><time>2026-05-03T09:43:29.002Z</time></trkpt><trkpt lat="41.73549355149984" lon="9.204168000529569"><ele>882.0</ele><time>2026-05-03T09:43:30.002Z</time></trkpt><trkpt lat="41.7356055659961" lon="9.204142444421917"><ele>882.0</ele><time>2026-05-03T09:43:31.002Z</time></trkpt><trkpt lat="41.73570143181439" lon="9.204118566223393"><ele>882.0</ele><time>2026-05-03T09:43:32.002Z</time></trkpt><trkpt lat="41.73578533959579" lon="9.204096228706367"><ele>882.0</ele><time>2026-05-03T09:43:33.002Z</time></trkpt><trkpt lat="41.73585669627644" lon="9.204078192942688"><ele>882.0</ele><time>2026-05-03T09:43:34.002Z</time></trkpt><trkpt lat="41.735935196265004" lon="9.204053370648822"><ele>882.0</ele><time>2026-05-03T09:43:35.002Z</time></trkpt><trkpt lat="41.73599767196382" lon="9.204027303950436"><ele>882.0</ele><time>2026-05-03T09:43:36.002Z</time></trkpt><trkpt lat="41.73606252770306" lon="9.204021789752549"><ele>880.8</ele><time>2026-05-03T09:43:37.002Z</time></trkpt><trkpt lat="41.73614105090494" lon="9.204038333257245"><ele>879.6</ele><time>2026-05-03T09:43:38.002Z</time></trkpt><trkpt lat="41.73623218173168" lon="9.204089191896106"><ele>878.3999999999999</ele><time>2026-05-03T09:43:39.002Z</time></trkpt><trkpt lat="41.73633379354508" lon="9.204193175873014"><ele>877.1999999999999</ele><time>2026-05-03T09:43:40.002Z</time></trkpt><trkpt lat="41.736440226855976" lon="9.204305914913501"><ele>876.0</ele><time>2026-05-03T09:43:41.002Z</time></trkpt><trkpt lat="41.736553472344475" lon="9.20442443461656"><ele>876.0</ele><time>2026-05-03T09:43:42.002Z</time></trkpt><trkpt lat="41.73666280720154" lon="9.204539916393943"><ele>876.0</ele><time>2026-05-03T09:43:43.002Z</time></trkpt><trkpt lat="41.73675836323981" lon="9.20463869558774"><ele>876.0</ele><time>2026-05-03T09:43:44.002Z</time></trkpt><trkpt lat="41.73682893698049" lon="9.20473853374883"><ele>876.0</ele><time>2026-05-03T09:43:45.002Z</time></trkpt><trkpt lat="41.73686489977429" lon="9.2048486954498"><ele>876.1999999999999</ele><time>2026-05-03T09:43:46.002Z</time></trkpt><trkpt lat="41.73684940966785" lon="9.204963283475285"><ele>876.3999999999999</ele><time>2026-05-03T09:43:47.002Z</time></trkpt><trkpt lat="41.73678307037951" lon="9.205050720030851"><ele>876.6</ele><time>2026-05-03T09:43:48.002Z</time></trkpt><trkpt lat="41.736694864954956" lon="9.205117524147624"><ele>876.8</ele><time>2026-05-03T09:43:49.002Z</time></trkpt><trkpt lat="41.73661829555214" lon="9.205202745108187"><ele>877.0</ele><time>2026-05-03T09:43:50.002Z</time></trkpt><trkpt lat="41.73657639205662" lon="9.205318523228495"><ele>877.0</ele><time>2026-05-03T09:43:51.002Z</time></trkpt><trkpt lat="41.73656893280158" lon="9.20545678732023"><ele>877.0</ele><time>2026-05-03T09:43:52.002Z</time></trkpt><trkpt lat="41.73658960717205" lon="9.205577412337938"><ele>877.0</ele><time>2026-05-03T09:43:53.002Z</time></trkpt><trkpt lat="41.73660035949321" lon="9.205695705537684"><ele>877.0</ele><time>2026-05-03T09:43:54.002Z</time></trkpt><trkpt lat="41.7366423479397" lon="9.205809572558374"><ele>877.0</ele><time>2026-05-03T09:43:55.002Z</time></trkpt><trkpt lat="41.73665249748026" lon="9.205942500911355"><ele>875.8</ele><time>2026-05-03T09:43:56.002Z</time></trkpt><trkpt lat="41.736641998581085" lon="9.206079543298996"><ele>874.6</ele><time>2026-05-03T09:43:57.003Z</time></trkpt><trkpt lat="41.736612825508054" lon="9.206215534056758"><ele>873.3999999999999</ele><time>2026-05-03T09:43:58.003Z</time></trkpt><trkpt lat="41.73655766647882" lon="9.206332796127569"><ele>872.1999999999999</ele><time>2026-05-03T09:43:59.003Z</time></trkpt><trkpt lat="41.73651352390506" lon="9.206443217500244"><ele>871.0</ele><time>2026-05-03T09:44:00.003Z</time></trkpt><trkpt lat="41.73647011505178" lon="9.206552852656507"><ele>869.4</ele><time>2026-05-03T09:44:01.003Z</time></trkpt><trkpt lat="41.73641531738605" lon="9.206665521109292"><ele>867.8</ele><time>2026-05-03T09:44:02.003Z</time></trkpt><trkpt lat="41.73637869385095" lon="9.206785195346711"><ele>866.1999999999999</ele><time>2026-05-03T09:44:03.003Z</time></trkpt><trkpt lat="41.73634910004156" lon="9.206898268904629"><ele>864.5999999999999</ele><time>2026-05-03T09:44:04.003Z</time></trkpt><trkpt lat="41.736335173104585" lon="9.207011967209498"><ele>863.0</ele><time>2026-05-03T09:44:05.003Z</time></trkpt><trkpt lat="41.73629969544341" lon="9.207119165656472"><ele>863.0</ele><time>2026-05-03T09:44:05.999Z</time></trkpt><trkpt lat="41.73625168237966" lon="9.20722689265759"><ele>863.0</ele><time>2026-05-03T09:44:06.999Z</time></trkpt><trkpt lat="41.73619636032896" lon="9.20733533422027"><ele>863.0</ele><time>2026-05-03T09:44:07.999Z</time></trkpt><trkpt lat="41.7361280994672" lon="9.20743356989596"><ele>863.0</ele><time>2026-05-03T09:44:08.999Z</time></trkpt><trkpt lat="41.73605230825897" lon="9.207524937892554"><ele>863.0</ele><time>2026-05-03T09:44:09.999Z</time></trkpt><trkpt lat="41.73598889238182" lon="9.207619542234113"><ele>865.1666666666667</ele><time>2026-05-03T09:44:10.999Z</time></trkpt><trkpt lat="41.73593834814549" lon="9.207726533462752"><ele>867.3333333333334</ele><time>2026-05-03T09:44:11.999Z</time></trkpt><trkpt lat="41.735903706498675" lon="9.207835169930915"><ele>869.5</ele><time>2026-05-03T09:44:12.999Z</time></trkpt><trkpt lat="41.73586601780612" lon="9.207941611455492"><ele>871.6666666666667</ele><time>2026-05-03T09:44:13.999Z</time></trkpt><trkpt lat="41.73586354579907" lon="9.208051795106948"><ele>873.8333333333334</ele><time>2026-05-03T09:44:14.999Z</time></trkpt><trkpt lat="41.73590907881362" lon="9.208156972200053"><ele>876.0</ele><time>2026-05-03T09:44:15.999Z</time></trkpt><trkpt lat="41.73598606142707" lon="9.208226621333283"><ele>876.1999999999999</ele><time>2026-05-03T09:44:16.999Z</time></trkpt><trkpt lat="41.73606624913995" lon="9.20828994116038"><ele>876.3999999999999</ele><time>2026-05-03T09:44:17.999Z</time></trkpt><trkpt lat="41.73618055202847" lon="9.208264404693608"><ele>876.6</ele><time>2026-05-03T09:44:19Z</time></trkpt><trkpt lat="41.73628070329852" lon="9.208174468243653"><ele>876.8</ele><time>2026-05-03T09:44:20Z</time></trkpt><trkpt lat="41.736383206302065" lon="9.208104084299762"><ele>877.0</ele><time>2026-05-03T09:44:21Z</time></trkpt><trkpt lat="41.73649253478228" lon="9.20803328215356"><ele>876.4000000000001</ele><time>2026-05-03T09:44:22Z</time></trkpt><trkpt lat="41.736596975600925" lon="9.207971808421966"><ele>875.8000000000001</ele><time>2026-05-03T09:44:23Z</time></trkpt><trkpt lat="41.73669716838711" lon="9.207917208734083"><ele>875.2</ele><time>2026-05-03T09:44:24Z</time></trkpt><trkpt lat="41.73679261540387" lon="9.20786593210526"><ele>874.6</ele><time>2026-05-03T09:44:25Z</time></trkpt><trkpt lat="41.73689047834334" lon="9.20781966434512"><ele>874.0</ele><time>2026-05-03T09:44:26Z</time></trkpt><trkpt lat="41.736978303395816" lon="9.207755635228121"><ele>874.0</ele><time>2026-05-03T09:44:27Z</time></trkpt><trkpt lat="41.7370506883202" lon="9.207660555700945"><ele>874.0000000000001</ele><time>2026-05-03T09:44:28Z</time></trkpt><trkpt lat="41.73710511068145" lon="9.207541396245844"><ele>874.0000000000001</ele><time>2026-05-03T09:44:29Z</time></trkpt><trkpt lat="41.737153071900515" lon="9.207412856825545"><ele>874.0</ele><time>2026-05-03T09:44:30Z</time></trkpt><trkpt lat="41.73719533911757" lon="9.207289791930338"><ele>874.0</ele><time>2026-05-03T09:44:31Z</time></trkpt><trkpt lat="41.73724125606408" lon="9.207179650370412"><ele>871.2</ele><time>2026-05-03T09:44:32Z</time></trkpt><trkpt lat="41.73729191145848" lon="9.207074656861717"><ele>868.4000000000001</ele><time>2026-05-03T09:44:33Z</time></trkpt><trkpt lat="41.7373534080598" lon="9.206972097462538"><ele>865.6</ele><time>2026-05-03T09:44:34Z</time></trkpt><trkpt lat="41.7374426154433" lon="9.206861182823172"><ele>862.8</ele><time>2026-05-03T09:44:35Z</time></trkpt><trkpt lat="41.73755042801749" lon="9.206781884123851"><ele>860.0</ele><time>2026-05-03T09:44:36Z</time></trkpt><trkpt lat="41.73766386153075" lon="9.206731525846555"><ele>861.4</ele><time>2026-05-03T09:44:37Z</time></trkpt><trkpt lat="41.737774709828834" lon="9.206691581231054"><ele>862.8</ele><time>2026-05-03T09:44:38Z</time></trkpt><trkpt lat="41.73787682955212" lon="9.206679287077828"><ele>864.2</ele><time>2026-05-03T09:44:39Z</time></trkpt><trkpt lat="41.73797612824853" lon="9.206626799387571"><ele>865.6</ele><time>2026-05-03T09:44:40.001Z</time></trkpt><trkpt lat="41.73807971663179" lon="9.206603621999099"><ele>867.0</ele><time>2026-05-03T09:44:41.001Z</time></trkpt><trkpt lat="41.73818019929991" lon="9.206568752852258"><ele>867.0</ele><time>2026-05-03T09:44:42.001Z</time></trkpt><trkpt lat="41.73827908532086" lon="9.206540012488457"><ele>867.0</ele><time>2026-05-03T09:44:43.001Z</time></trkpt><trkpt lat="41.738380218604746" lon="9.206493818276451"><ele>867.0</ele><time>2026-05-03T09:44:44.001Z</time></trkpt><trkpt lat="41.738485438217204" lon="9.206426991370542"><ele>867.0</ele><time>2026-05-03T09:44:45.001Z</time></trkpt><trkpt lat="41.73858564426712" lon="9.206356364430093"><ele>867.0</ele><time>2026-05-03T09:44:46.001Z</time></trkpt><trkpt lat="41.73867594827912" lon="9.206250807930434"><ele>864.4000000000001</ele><time>2026-05-03T09:44:47.001Z</time></trkpt><trkpt lat="41.73875665573774" lon="9.206139247544666"><ele>861.8000000000001</ele><time>2026-05-03T09:44:48.001Z</time></trkpt><trkpt lat="41.73884321856034" lon="9.206048196227753"><ele>859.2</ele><time>2026-05-03T09:44:49.001Z</time></trkpt><trkpt lat="41.73893493114713" lon="9.20596409463077"><ele>856.6</ele><time>2026-05-03T09:44:50.001Z</time></trkpt><trkpt lat="41.73901860450237" lon="9.20589999466965"><ele>854.0</ele><time>2026-05-03T09:44:51.001Z</time></trkpt><trkpt lat="41.73910298922458" lon="9.205823142793939"><ele>854.0</ele><time>2026-05-03T09:44:52.001Z</time></trkpt><trkpt lat="41.73918625301106" lon="9.205767819989152"><ele>854.0000000000001</ele><time>2026-05-03T09:44:53.001Z</time></trkpt><trkpt lat="41.73927817499005" lon="9.205752201637692"><ele>854.0000000000001</ele><time>2026-05-03T09:44:54.001Z</time></trkpt><trkpt lat="41.73937555438718" lon="9.205806047675068"><ele>854.0</ele><time>2026-05-03T09:44:55.001Z</time></trkpt><trkpt lat="41.739466421771006" lon="9.205913257572014"><ele>854.0</ele><time>2026-05-03T09:44:56.001Z</time></trkpt><trkpt lat="41.73953119261577" lon="9.206042144530537"><ele>854.2</ele><time>2026-05-03T09:44:57.001Z</time></trkpt><trkpt lat="41.73957627181588" lon="9.20616974816737"><ele>854.4000000000001</ele><time>2026-05-03T09:44:58.001Z</time></trkpt><trkpt lat="41.73963746969448" lon="9.206290816201047"><ele>854.6</ele><time>2026-05-03T09:44:59.001Z</time></trkpt><trkpt lat="41.73970274369812" lon="9.206415404050066"><ele>854.8</ele><time>2026-05-03T09:45:00.001Z</time></trkpt><trkpt lat="41.739775625522185" lon="9.206530520725655"><ele>855.0</ele><time>2026-05-03T09:45:01.001Z</time></trkpt><trkpt lat="41.739846729306976" lon="9.206643133482032"><ele>855.0</ele><time>2026-05-03T09:45:02.001Z</time></trkpt><trkpt lat="41.739911625761685" lon="9.206739611671154"><ele>855.0</ele><time>2026-05-03T09:45:03.001Z</time></trkpt><trkpt lat="41.73997640187742" lon="9.20683020556206"><ele>855.0</ele><time>2026-05-03T09:45:04.001Z</time></trkpt><trkpt lat="41.74005720779416" lon="9.206883569126136"><ele>855.0</ele><time>2026-05-03T09:45:05.001Z</time></trkpt><trkpt lat="41.74014600037203" lon="9.206890752816587"><ele>855.0</ele><time>2026-05-03T09:45:06.001Z</time></trkpt><trkpt lat="41.74023981137164" lon="9.206853422352006"><ele>855.6</ele><time>2026-05-03T09:45:07.001Z</time></trkpt><trkpt lat="41.74032789751709" lon="9.206767160259629"><ele>856.2</ele><time>2026-05-03T09:45:08.001Z</time></trkpt><trkpt lat="41.74037093349838" lon="9.206628657308999"><ele>856.8</ele><time>2026-05-03T09:45:09.001Z</time></trkpt><trkpt lat="41.74037580061964" lon="9.206491314763273"><ele>857.4</ele><time>2026-05-03T09:45:10.002Z</time></trkpt><trkpt lat="41.7403627721918" lon="9.206343928483745"><ele>858.0</ele><time>2026-05-03T09:45:11.002Z</time></trkpt><trkpt lat="41.740344451134355" lon="9.20619044733744"><ele>856.25</ele><time>2026-05-03T09:45:12.002Z</time></trkpt><trkpt lat="41.740347366361654" lon="9.206031230208957"><ele>854.5</ele><time>2026-05-03T09:45:13.002Z</time></trkpt><trkpt lat="41.74037894115152" lon="9.205877183859698"><ele>852.75</ele><time>2026-05-03T09:45:14.002Z</time></trkpt><trkpt lat="41.74042454646639" lon="9.205721704657206"><ele>851.0</ele><time>2026-05-03T09:45:15.002Z</time></trkpt><trkpt lat="41.74046790830708" lon="9.205569587756656"><ele>849.1999999999999</ele><time>2026-05-03T09:45:16.002Z</time></trkpt><trkpt lat="41.74050231661264" lon="9.205411677164557"><ele>847.4</ele><time>2026-05-03T09:45:17.002Z</time></trkpt><trkpt lat="41.74052322095873" lon="9.205258294237419"><ele>845.6</ele><time>2026-05-03T09:45:18.002Z</time></trkpt><trkpt lat="41.74054301897885" lon="9.205113359589527"><ele>843.8</ele><time>2026-05-03T09:45:19.002Z</time></trkpt><trkpt lat="41.7405627234873" lon="9.204985497609067"><ele>842.0</ele><time>2026-05-03T09:45:20.002Z</time></trkpt><trkpt lat="41.740583622198756" lon="9.20486872607628"><ele>840.3333333333334</ele><time>2026-05-03T09:45:21.002Z</time></trkpt><trkpt lat="41.740613432147406" lon="9.204761836190075"><ele>838.6666666666667</ele><time>2026-05-03T09:45:22.002Z</time></trkpt><trkpt lat="41.740657760985975" lon="9.204672610427476"><ele>837.0</ele><time>2026-05-03T09:45:23.002Z</time></trkpt><trkpt lat="41.74071058430773" lon="9.204602765541432"><ele>835.3333333333333</ele><time>2026-05-03T09:45:24.002Z</time></trkpt><trkpt lat="41.74077734907749" lon="9.204552348292752"><ele>833.6666666666666</ele><time>2026-05-03T09:45:25.002Z</time></trkpt><trkpt lat="41.740882760033536" lon="9.2045473491493"><ele>832.0</ele><time>2026-05-03T09:45:26.002Z</time></trkpt><trkpt lat="41.740990997872345" lon="9.204494214855064"><ele>830.75</ele><time>2026-05-03T09:45:27.002Z</time></trkpt><trkpt lat="41.741121607955115" lon="9.204452242493582"><ele>829.5</ele><time>2026-05-03T09:45:28.002Z</time></trkpt><trkpt lat="41.741255695031086" lon="9.20443294697868"><ele>828.25</ele><time>2026-05-03T09:45:29.002Z</time></trkpt><trkpt lat="41.74138278826437" lon="9.20444930949364"><ele>827.0</ele><time>2026-05-03T09:45:30.002Z</time></trkpt><trkpt lat="41.74153068123064" lon="9.20446728439138"><ele>827.0</ele><time>2026-05-03T09:45:31.002Z</time></trkpt><trkpt lat="41.74169632649419" lon="9.204521257452482"><ele>827.0</ele><time>2026-05-03T09:45:32.002Z</time></trkpt><trkpt lat="41.74185877766417" lon="9.204554437378372"><ele>827.0</ele><time>2026-05-03T09:45:33.002Z</time></trkpt><trkpt lat="41.742026613607244" lon="9.204606236912012"><ele>826.75</ele><time>2026-05-03T09:45:34.002Z</time></trkpt><trkpt lat="41.74217951719656" lon="9.204618676429856"><ele>826.5</ele><time>2026-05-03T09:45:35.002Z</time></trkpt><trkpt lat="41.74232743721185" lon="9.204584067264742"><ele>826.25</ele><time>2026-05-03T09:45:36.002Z</time></trkpt><trkpt lat="41.74244703370652" lon="9.204497498846928"><ele>826.0</ele><time>2026-05-03T09:45:37.002Z</time></trkpt><trkpt lat="41.74253233965055" lon="9.204352987892433"><ele>826.0</ele><time>2026-05-03T09:45:38.002Z</time></trkpt><trkpt lat="41.742567916122155" lon="9.204178835262228"><ele>826.0</ele><time>2026-05-03T09:45:39.002Z</time></trkpt><trkpt lat="41.74256546002059" lon="9.203995830404843"><ele>826.0</ele><time>2026-05-03T09:45:40.002Z</time></trkpt><trkpt lat="41.74251629013446" lon="9.203818093285415"><ele>826.0</ele><time>2026-05-03T09:45:41.002Z</time></trkpt><trkpt lat="41.74240005733926" lon="9.203639722965306"><ele>826.6666666666666</ele><time>2026-05-03T09:45:42.003Z</time></trkpt><trkpt lat="41.742265758898164" lon="9.203466432725197"><ele>827.3333333333333</ele><time>2026-05-03T09:45:43.003Z</time></trkpt><trkpt lat="41.742150445575156" lon="9.203270522562919"><ele>828.0</ele><time>2026-05-03T09:45:44.003Z</time></trkpt><trkpt lat="41.7420419933399" lon="9.203073764169158"><ele>828.6666666666667</ele><time>2026-05-03T09:45:45.003Z</time></trkpt><trkpt lat="41.74199771692481" lon="9.202869512112342"><ele>829.3333333333334</ele><time>2026-05-03T09:45:46.003Z</time></trkpt><trkpt lat="41.74199054111109" lon="9.202656118582555"><ele>830.0</ele><time>2026-05-03T09:45:47.003Z</time></trkpt><trkpt lat="41.741972502318994" lon="9.20242699191778"><ele>831.6666666666667</ele><time>2026-05-03T09:45:48.003Z</time></trkpt><trkpt lat="41.74196123555069" lon="9.202210791119903"><ele>833.3333333333333</ele><time>2026-05-03T09:45:49.003Z</time></trkpt><trkpt lat="41.74193228333494" lon="9.202004924473806"><ele>835.0</ele><time>2026-05-03T09:45:50.003Z</time></trkpt><trkpt lat="41.74185923699909" lon="9.2018324299162"><ele>830.0</ele><time>2026-05-03T09:45:51.003Z</time></trkpt><trkpt lat="41.74174715001055" lon="9.201697200565913"><ele>825.0</ele><time>2026-05-03T09:45:52.003Z</time></trkpt><trkpt lat="41.741602505334775" lon="9.201568261390323"><ele>820.0</ele><time>2026-05-03T09:45:53.003Z</time></trkpt><trkpt lat="41.74146799289223" lon="9.201428349950284"><ele>820.0</ele><time>2026-05-03T09:45:54.003Z</time></trkpt><trkpt lat="41.74137008906346" lon="9.201269815311933"><ele>820.0</ele><time>2026-05-03T09:45:55.003Z</time></trkpt><trkpt lat="41.74130520394375" lon="9.201065663308395"><ele>820.0</ele><time>2026-05-03T09:45:56.003Z</time></trkpt><trkpt lat="41.74126946806314" lon="9.200835681422065"><ele>819.3333333333333</ele><time>2026-05-03T09:45:57.003Z</time></trkpt><trkpt lat="41.741284044753506" lon="9.200594954965727"><ele>818.6666666666667</ele><time>2026-05-03T09:45:58.003Z</time></trkpt><trkpt lat="41.74134317332307" lon="9.200358138960741"><ele>818.0</ele><time>2026-05-03T09:45:59.003Z</time></trkpt><trkpt lat="41.74143021489986" lon="9.200119033423936"><ele>818.0</ele><time>2026-05-03T09:46:00.003Z</time></trkpt><trkpt lat="41.741552250826985" lon="9.199884954294085"><ele>818.0</ele><time>2026-05-03T09:46:01.003Z</time></trkpt><trkpt lat="41.741675907708" lon="9.199660014910767"><ele>818.0</ele><time>2026-05-03T09:46:02.003Z</time></trkpt><trkpt lat="41.74179380245246" lon="9.199434962980227"><ele>817.0</ele><time>2026-05-03T09:46:03.003Z</time></trkpt><trkpt lat="41.74188724581478" lon="9.199214504057705"><ele>816.0</ele><time>2026-05-03T09:46:04.003Z</time></trkpt><trkpt lat="41.74199001562577" lon="9.199022347716861"><ele>815.0</ele><time>2026-05-03T09:46:05.003Z</time></trkpt><trkpt lat="41.742113969524496" lon="9.198886206970208"><ele>812.5</ele><time>2026-05-03T09:46:06.003Z</time></trkpt><trkpt lat="41.742258667898504" lon="9.19881260964422"><ele>810.0</ele><time>2026-05-03T09:46:07.003Z</time></trkpt><trkpt lat="41.74240564993994" lon="9.19877706955749"><ele>807.5</ele><time>2026-05-03T09:46:08.003Z</time></trkpt><trkpt lat="41.74251285058291" lon="9.198824205223207"><ele>805.0</ele><time>2026-05-03T09:46:09.003Z</time></trkpt><trkpt lat="41.742606880755545" lon="9.198911203323695"><ele>806.3333333333333</ele><time>2026-05-03T09:46:10.003Z</time></trkpt><trkpt lat="41.74273906506599" lon="9.199031797205022"><ele>807.6666666666667</ele><time>2026-05-03T09:46:11.003Z</time></trkpt><trkpt lat="41.742869153916764" lon="9.199134175999456"><ele>809.0</ele><time>2026-05-03T09:46:12Z</time></trkpt><trkpt lat="41.74302962087023" lon="9.199223965853406"><ele>809.0</ele><time>2026-05-03T09:46:13Z</time></trkpt><trkpt lat="41.743218139631615" lon="9.19928577774662"><ele>809.0</ele><time>2026-05-03T09:46:14Z</time></trkpt><trkpt lat="41.743393322097795" lon="9.199333666470167"><ele>809.0</ele><time>2026-05-03T09:46:15Z</time></trkpt><trkpt lat="41.74354356725504" lon="9.199326537226545"><ele>809.0</ele><time>2026-05-03T09:46:16Z</time></trkpt><trkpt lat="41.74365711542896" lon="9.1992400007306"><ele>809.0</ele><time>2026-05-03T09:46:17Z</time></trkpt><trkpt lat="41.74374294724209" lon="9.199095196689722"><ele>809.0</ele><time>2026-05-03T09:46:18Z</time></trkpt><trkpt lat="41.74384076610495" lon="9.198989834270437"><ele>809.0</ele><time>2026-05-03T09:46:19Z</time></trkpt><trkpt lat="41.74397760697098" lon="9.19893369727043"><ele>804.3333333333334</ele><time>2026-05-03T09:46:20Z</time></trkpt><trkpt lat="41.74414412607995" lon="9.198916171957471"><ele>799.6666666666667</ele><time>2026-05-03T09:46:21Z</time></trkpt><trkpt lat="41.744326920092846" lon="9.198873213365943"><ele>795.0</ele><time>2026-05-03T09:46:22Z</time></trkpt><trkpt lat="41.74453175365526" lon="9.198852880800331"><ele>794.3333333333333</ele><time>2026-05-03T09:46:23Z</time></trkpt><trkpt lat="41.74472459227248" lon="9.198834185455262"><ele>793.6666666666666</ele><time>2026-05-03T09:46:24Z</time></trkpt><trkpt lat="41.74489634201088" lon="9.198801260872044"><ele>793.0</ele><time>2026-05-03T09:46:25Z</time></trkpt><trkpt lat="41.74506814705564" lon="9.198784208087861"><ele>794.0</ele><time>2026-05-03T09:46:26Z</time></trkpt><trkpt lat="41.74521841361364" lon="9.19873205706728"><ele>795.0</ele><time>2026-05-03T09:46:27Z</time></trkpt><trkpt lat="41.74536379757482" lon="9.198658479730891"><ele>796.0</ele><time>2026-05-03T09:46:28Z</time></trkpt><trkpt lat="41.74549652328725" lon="9.198508014207242"><ele>796.0</ele><time>2026-05-03T09:46:29Z</time></trkpt><trkpt lat="41.74562656631194" lon="9.198340811816605"><ele>796.0</ele><time>2026-05-03T09:46:30Z</time></trkpt><trkpt lat="41.74575778687201" lon="9.198171005774908"><ele>796.0</ele><time>2026-05-03T09:46:31Z</time></trkpt><trkpt lat="41.74589660305392" lon="9.198009949724145"><ele>793.3333333333333</ele><time>2026-05-03T09:46:32Z</time></trkpt><trkpt lat="41.7460203969167" lon="9.197849655562498"><ele>790.6666666666667</ele><time>2026-05-03T09:46:33Z</time></trkpt><trkpt lat="41.746137879264296" lon="9.197678808460275"><ele>788.0</ele><time>2026-05-03T09:46:34Z</time></trkpt><trkpt lat="41.74626539372415" lon="9.197506754136938"><ele>788.0</ele><time>2026-05-03T09:46:35Z</time></trkpt><trkpt lat="41.74641717677132" lon="9.197351684359976"><ele>788.0</ele><time>2026-05-03T09:46:36Z</time></trkpt><trkpt lat="41.746591245834544" lon="9.197212277724404"><ele>788.0</ele><time>2026-05-03T09:46:37Z</time></trkpt><trkpt lat="41.74675307627841" lon="9.197063951348289"><ele>785.0</ele><time>2026-05-03T09:46:38Z</time></trkpt><trkpt lat="41.746896669135694" lon="9.196914220685752"><ele>782.0</ele><time>2026-05-03T09:46:39Z</time></trkpt><trkpt lat="41.74716560111514" lon="9.19698692122585"><ele>782.0</ele><time>2026-05-03T09:46:40Z</time></trkpt><trkpt lat="41.747388121698" lon="9.196976196386366"><ele>782.0</ele><time>2026-05-03T09:46:41Z</time></trkpt><trkpt lat="41.74759803468658" lon="9.196979585424586"><ele>782.0</ele><time>2026-05-03T09:46:42.001Z</time></trkpt><trkpt lat="41.747798477442025" lon="9.196974346483465"><ele>783.0</ele><time>2026-05-03T09:46:43.001Z</time></trkpt><trkpt lat="41.747983422594885" lon="9.19695304963495"><ele>784.0</ele><time>2026-05-03T09:46:44.001Z</time></trkpt><trkpt lat="41.74813835161037" lon="9.19692977212343"><ele>785.0</ele><time>2026-05-03T09:46:45.001Z</time></trkpt><trkpt lat="41.74826333302785" lon="9.196903511194694"><ele>785.0</ele><time>2026-05-03T09:46:46.001Z</time></trkpt><trkpt lat="41.748373332404974" lon="9.196856983438948"><ele>785.0</ele><time>2026-05-03T09:46:47.001Z</time></trkpt><trkpt lat="41.748465616728055" lon="9.196755466666312"><ele>785.0</ele><time>2026-05-03T09:46:48.001Z</time></trkpt><trkpt lat="41.74854031447659" lon="9.1965777748098"><ele>785.0</ele><time>2026-05-03T09:46:49.001Z</time></trkpt><trkpt lat="41.74863010293205" lon="9.196367355585375"><ele>785.3333333333334</ele><time>2026-05-03T09:46:50.001Z</time></trkpt><trkpt lat="41.748756593552" lon="9.196194842978759"><ele>785.6666666666667</ele><time>2026-05-03T09:46:51.001Z</time></trkpt><trkpt lat="41.74890775676432" lon="9.196003573646067"><ele>786.0</ele><time>2026-05-03T09:46:52.001Z</time></trkpt><trkpt lat="41.7490766498456" lon="9.195812609763097"><ele>785.5</ele><time>2026-05-03T09:46:53.001Z</time></trkpt><trkpt lat="41.74924645918971" lon="9.19561725063708"><ele>785.0</ele><time>2026-05-03T09:46:54.001Z</time></trkpt><trkpt lat="41.749424821660206" lon="9.195411920599803"><ele>785.0</ele><time>2026-05-03T09:46:55.001Z</time></trkpt><trkpt lat="41.7496097241259" lon="9.195206045889185"><ele>785.0</ele><time>2026-05-03T09:46:56.001Z</time></trkpt><trkpt lat="41.74981902817717" lon="9.194969540664822"><ele>785.0</ele><time>2026-05-03T09:46:57.001Z</time></trkpt><trkpt lat="41.74998111156478" lon="9.19477489757302"><ele>785.0</ele><time>2026-05-03T09:46:58.001Z</time></trkpt><trkpt lat="41.75013214638668" lon="9.194598656009969"><ele>785.0</ele><time>2026-05-03T09:46:59.001Z</time></trkpt><trkpt lat="41.750277834005956" lon="9.19443112507244"><ele>785.0</ele><time>2026-05-03T09:47:00.001Z</time></trkpt><trkpt lat="41.750421035170255" lon="9.19427569131398"><ele>785.0</ele><time>2026-05-03T09:47:01.001Z</time></trkpt><trkpt lat="41.75058193831833" lon="9.194127652977318"><ele>785.0</ele><time>2026-05-03T09:47:02.001Z</time></trkpt><trkpt lat="41.750735778645854" lon="9.193992462665012"><ele>784.25</ele><time>2026-05-03T09:47:03.001Z</time></trkpt><trkpt lat="41.7508692646297" lon="9.193925660296523"><ele>783.5</ele><time>2026-05-03T09:47:04.001Z</time></trkpt><trkpt lat="41.75102094997585" lon="9.193946143131424"><ele>782.75</ele><time>2026-05-03T09:47:05.001Z</time></trkpt><trkpt lat="41.75114510758819" lon="9.19400792809756"><ele>782.0</ele><time>2026-05-03T09:47:06.001Z</time></trkpt><trkpt lat="41.75130370156457" lon="9.194167647730339"><ele>782.0</ele><time>2026-05-03T09:47:07.001Z</time></trkpt><trkpt lat="41.75144625144398" lon="9.194274618518657"><ele>782.0</ele><time>2026-05-03T09:47:08.001Z</time></trkpt><trkpt lat="41.751595918821316" lon="9.194337206971207"><ele>782.0</ele><time>2026-05-03T09:47:09.001Z</time></trkpt><trkpt lat="41.751757798474976" lon="9.194327142678267"><ele>783.3333333333334</ele><time>2026-05-03T09:47:10.001Z</time></trkpt><trkpt lat="41.75192031868919" lon="9.19427103519925"><ele>784.6666666666667</ele><time>2026-05-03T09:47:11.001Z</time></trkpt><trkpt lat="41.752068539142826" lon="9.194150810288063"><ele>786.0</ele><time>2026-05-03T09:47:12.001Z</time></trkpt><trkpt lat="41.75220159607314" lon="9.193984492469957"><ele>786.3333333333333</ele><time>2026-05-03T09:47:13.001Z</time></trkpt><trkpt lat="41.75228820348838" lon="9.193789561345914"><ele>786.6666666666666</ele><time>2026-05-03T09:47:14.001Z</time></trkpt><trkpt lat="41.75233637078225" lon="9.193585236661894"><ele>787.0</ele><time>2026-05-03T09:47:15.002Z</time></trkpt><trkpt lat="41.752344891905786" lon="9.193342822895366"><ele>788.3333333333333</ele><time>2026-05-03T09:47:16.002Z</time></trkpt><trkpt lat="41.75233142500234" lon="9.193076239844768"><ele>789.6666666666667</ele><time>2026-05-03T09:47:17.002Z</time></trkpt><trkpt lat="41.752266596428434" lon="9.192826216439467"><ele>791.0</ele><time>2026-05-03T09:47:18.002Z</time></trkpt><trkpt lat="41.75218864757633" lon="9.192617547950618"><ele>791.0</ele><time>2026-05-03T09:47:19.002Z</time></trkpt><trkpt lat="41.75211950687701" lon="9.192426261262758"><ele>791.0</ele><time>2026-05-03T09:47:20.002Z</time></trkpt><trkpt lat="41.75207297135765" lon="9.192254746925425"><ele>791.0</ele><time>2026-05-03T09:47:21.002Z</time></trkpt><trkpt lat="41.75211134412974" lon="9.192067958578177"><ele>791.0</ele><time>2026-05-03T09:47:22.002Z</time></trkpt><trkpt lat="41.752163595457134" lon="9.191853088722011"><ele>790.6666666666667</ele><time>2026-05-03T09:47:23.002Z</time></trkpt><trkpt lat="41.75224831516657" lon="9.191620411983171"><ele>790.3333333333333</ele><time>2026-05-03T09:47:24.002Z</time></trkpt><trkpt lat="41.75232278612486" lon="9.191416747550146"><ele>790.0</ele><time>2026-05-03T09:47:25.002Z</time></trkpt><trkpt lat="41.75238009462432" lon="9.191236068946548"><ele>791.5</ele><time>2026-05-03T09:47:26.002Z</time></trkpt><trkpt lat="41.75241254329469" lon="9.191091132310376"><ele>793.0</ele><time>2026-05-03T09:47:27.002Z</time></trkpt><trkpt lat="41.75240972417983" lon="9.190954900095688"><ele>794.5</ele><time>2026-05-03T09:47:28.002Z</time></trkpt><trkpt lat="41.752346032196584" lon="9.190815327505605"><ele>796.0</ele><time>2026-05-03T09:47:29.002Z</time></trkpt><trkpt lat="41.7522193361438" lon="9.190694822761687"><ele>798.3333333333333</ele><time>2026-05-03T09:47:30.002Z</time></trkpt><trkpt lat="41.752069071901644" lon="9.190580719750645"><ele>800.6666666666667</ele><time>2026-05-03T09:47:31.002Z</time></trkpt><trkpt lat="41.751925898984986" lon="9.190433618488136"><ele>803.0</ele><time>2026-05-03T09:47:32.002Z</time></trkpt><trkpt lat="41.75180790111673" lon="9.190224632082364"><ele>799.6666666666667</ele><time>2026-05-03T09:47:33.002Z</time></trkpt><trkpt lat="41.75166788928444" lon="9.190021988679586"><ele>796.3333333333333</ele><time>2026-05-03T09:47:34.002Z</time></trkpt><trkpt lat="41.75150869882288" lon="9.189838063737199"><ele>793.0</ele><time>2026-05-03T09:47:35.002Z</time></trkpt><trkpt lat="41.751362768145604" lon="9.189648865070813"><ele>793.0</ele><time>2026-05-03T09:47:36.002Z</time></trkpt><trkpt lat="41.75122596310868" lon="9.189491995236347"><ele>793.0</ele><time>2026-05-03T09:47:37.002Z</time></trkpt><trkpt lat="41.75113195081958" lon="9.189307174717593"><ele>793.0</ele><time>2026-05-03T09:47:38.002Z</time></trkpt><trkpt lat="41.751061867605856" lon="9.189123376625801"><ele>794.6666666666666</ele><time>2026-05-03T09:47:39.002Z</time></trkpt><trkpt lat="41.75102975163747" lon="9.188928481084462"><ele>796.3333333333333</ele><time>2026-05-03T09:47:40.002Z</time></trkpt><trkpt lat="41.75102157915183" lon="9.188711990076104"><ele>798.0</ele><time>2026-05-03T09:47:41.002Z</time></trkpt><trkpt lat="41.75104123403223" lon="9.18848794800933"><ele>798.0</ele><time>2026-05-03T09:47:42.002Z</time></trkpt><trkpt lat="41.751056484393004" lon="9.188248390885411"><ele>798.0</ele><time>2026-05-03T09:47:43.002Z</time></trkpt><trkpt lat="41.751048389299996" lon="9.188007472870634"><ele>798.0</ele><time>2026-05-03T09:47:44.002Z</time></trkpt><trkpt lat="41.7510006220658" lon="9.187760634609342"><ele>789.0</ele><time>2026-05-03T09:47:45.002Z</time></trkpt><trkpt lat="41.75096620063919" lon="9.187524404527936"><ele>780.0</ele><time>2026-05-03T09:47:46.002Z</time></trkpt><trkpt lat="41.750943072576646" lon="9.187294071785486"><ele>771.0</ele><time>2026-05-03T09:47:47.002Z</time></trkpt><trkpt lat="41.750985917473606" lon="9.187067369316468"><ele>782.3333333333333</ele><time>2026-05-03T09:47:48.002Z</time></trkpt><trkpt lat="41.7510417191062" lon="9.186830781092974"><ele>793.6666666666666</ele><time>2026-05-03T09:47:49.003Z</time></trkpt><trkpt lat="41.75106191165812" lon="9.186559280622971"><ele>805.0</ele><time>2026-05-03T09:47:50.003Z</time></trkpt><trkpt lat="41.75106270533236" lon="9.186271900032883"><ele>795.3333333333333</ele><time>2026-05-03T09:47:51.003Z</time></trkpt><trkpt lat="41.75103983252332" lon="9.185967554101166"><ele>785.6666666666667</ele><time>2026-05-03T09:47:52.003Z</time></trkpt><trkpt lat="41.75102890067197" lon="9.185700889692304"><ele>776.0</ele><time>2026-05-03T09:47:53.003Z</time></trkpt><trkpt lat="41.75103216553472" lon="9.185479404501704"><ele>778.25</ele><time>2026-05-03T09:47:54.003Z</time></trkpt><trkpt lat="41.75105124246243" lon="9.18528963622963"><ele>780.5</ele><time>2026-05-03T09:47:55.003Z</time></trkpt><trkpt lat="41.75110570195147" lon="9.185105261893051"><ele>782.75</ele><time>2026-05-03T09:47:56.003Z</time></trkpt><trkpt lat="41.751167496046605" lon="9.18492591170325"><ele>785.0</ele><time>2026-05-03T09:47:57.003Z</time></trkpt><trkpt lat="41.75125227319444" lon="9.184789488152902"><ele>785.0</ele><time>2026-05-03T09:47:58.003Z</time></trkpt><trkpt lat="41.75136671428639" lon="9.184723037660666"><ele>785.0</ele><time>2026-05-03T09:47:59.003Z</time></trkpt><trkpt lat="41.75150243084114" lon="9.184682126731355"><ele>785.0</ele><time>2026-05-03T09:48:00.003Z</time></trkpt><trkpt lat="41.7516485974503" lon="9.184654585065376"><ele>785.0</ele><time>2026-05-03T09:48:01.003Z</time></trkpt><trkpt lat="41.75179474223281" lon="9.184659666994861"><ele>788.5</ele><time>2026-05-03T09:48:02.003Z</time></trkpt><trkpt lat="41.75192688055025" lon="9.184669603614886"><ele>792.0</ele><time>2026-05-03T09:48:03.003Z</time></trkpt><trkpt lat="41.75203789094435" lon="9.18463252942068"><ele>795.5</ele><time>2026-05-03T09:48:04.003Z</time></trkpt><trkpt lat="41.7521042895302" lon="9.184531404855509"><ele>799.0</ele><time>2026-05-03T09:48:05.003Z</time></trkpt><trkpt lat="41.75213117427386" lon="9.184387099181189"><ele>799.0</ele><time>2026-05-03T09:48:06.003Z</time></trkpt><trkpt lat="41.752131504483714" lon="9.184227305742645"><ele>799.0</ele><time>2026-05-03T09:48:07.003Z</time></trkpt><trkpt lat="41.75209005884504" lon="9.184057537102285"><ele>799.0</ele><time>2026-05-03T09:48:08.003Z</time></trkpt><trkpt lat="41.75201069407511" lon="9.183882691825973"><ele>799.0</ele><time>2026-05-03T09:48:09.003Z</time></trkpt><trkpt lat="41.75189638650304" lon="9.18369624397494"><ele>798.0</ele><time>2026-05-03T09:48:10.003Z</time></trkpt><trkpt lat="41.75177197908399" lon="9.183521702624892"><ele>797.0</ele><time>2026-05-03T09:48:11.003Z</time></trkpt><trkpt lat="41.75165022386908" lon="9.1833878448454"><ele>796.0</ele><time>2026-05-03T09:48:12.003Z</time></trkpt><trkpt lat="41.75150030961824" lon="9.183310152848541"><ele>796.0</ele><time>2026-05-03T09:48:13.003Z</time></trkpt><trkpt lat="41.751307756076656" lon="9.183275707065105"><ele>796.0</ele><time>2026-05-03T09:48:14.003Z</time></trkpt><trkpt lat="41.7511116467046" lon="9.183235517334694"><ele>796.0</ele><time>2026-05-03T09:48:15.003Z</time></trkpt><trkpt lat="41.75093661536623" lon="9.183120895813815"><ele>798.3333333333333</ele><time>2026-05-03T09:48:16.003Z</time></trkpt><trkpt lat="41.75077338520483" lon="9.182989805703427"><ele>800.6666666666667</ele><time>2026-05-03T09:48:17.003Z</time></trkpt><trkpt lat="41.750616235016594" lon="9.18283780478017"><ele>803.0</ele><time>2026-05-03T09:48:18Z</time></trkpt><trkpt lat="41.750489024520824" lon="9.182661747112814"><ele>803.0</ele><time>2026-05-03T09:48:19Z</time></trkpt><trkpt lat="41.75038101551132" lon="9.182442044039673"><ele>803.0</ele><time>2026-05-03T09:48:20Z</time></trkpt><trkpt lat="41.750234313807816" lon="9.182248480565555"><ele>803.0</ele><time>2026-05-03T09:48:21Z</time></trkpt><trkpt lat="41.75006499271152" lon="9.182061567466587"><ele>802.3333333333334</ele><time>2026-05-03T09:48:22Z</time></trkpt><trkpt lat="41.74990014706685" lon="9.18186743556649"><ele>801.6666666666667</ele><time>2026-05-03T09:48:23Z</time></trkpt><trkpt lat="41.749763358486476" lon="9.181659741573377"><ele>801.0</ele><time>2026-05-03T09:48:24Z</time></trkpt><trkpt lat="41.74963215642909" lon="9.181492704189823"><ele>803.6666666666667</ele><time>2026-05-03T09:48:25Z</time></trkpt><trkpt lat="41.74945772003489" lon="9.181390664925251"><ele>806.3333333333334</ele><time>2026-05-03T09:48:26Z</time></trkpt><trkpt lat="41.74924959762728" lon="9.18129410679457"><ele>809.0</ele><time>2026-05-03T09:48:27Z</time></trkpt><trkpt lat="41.74904325097888" lon="9.181198801791815"><ele>809.0</ele><time>2026-05-03T09:48:28Z</time></trkpt><trkpt lat="41.74885140023372" lon="9.181093693859962"><ele>809.0</ele><time>2026-05-03T09:48:29Z</time></trkpt><trkpt lat="41.748671784712386" lon="9.180995048066901"><ele>809.0</ele><time>2026-05-03T09:48:30Z</time></trkpt><trkpt lat="41.74849258204504" lon="9.180888801933254"><ele>812.3333333333334</ele><time>2026-05-03T09:48:31Z</time></trkpt><trkpt lat="41.74831912037403" lon="9.180760636147799"><ele>815.6666666666667</ele><time>2026-05-03T09:48:32Z</time></trkpt><trkpt lat="41.74815832178591" lon="9.180606811912991"><ele>819.0</ele><time>2026-05-03T09:48:33Z</time></trkpt><trkpt lat="41.74800706239868" lon="9.18044281348995"><ele>819.0</ele><time>2026-05-03T09:48:34Z</time></trkpt><trkpt lat="41.74786598790777" lon="9.180271298221"><ele>819.0</ele><time>2026-05-03T09:48:35Z</time></trkpt><trkpt lat="41.747747667583226" lon="9.180082591917389"><ele>819.0</ele><time>2026-05-03T09:48:36Z</time></trkpt><trkpt lat="41.74763528660354" lon="9.17988410897189"><ele>818.3333333333333</ele><time>2026-05-03T09:48:37Z</time></trkpt><trkpt lat="41.7475040370267" lon="9.179685569727061"><ele>817.6666666666666</ele><time>2026-05-03T09:48:38Z</time></trkpt><trkpt lat="41.747333577099795" lon="9.179523625941641"><ele>817.0</ele><time>2026-05-03T09:48:39Z</time></trkpt><trkpt lat="41.747161705593506" lon="9.179347806767973"><ele>817.0</ele><time>2026-05-03T09:48:40Z</time></trkpt><trkpt lat="41.746974656352705" lon="9.179168137658756"><ele>817.0</ele><time>2026-05-03T09:48:41Z</time></trkpt><trkpt lat="41.7468116997564" lon="9.178980268427452"><ele>817.0</ele><time>2026-05-03T09:48:42Z</time></trkpt><trkpt lat="41.74666637640272" lon="9.178773489577832"><ele>818.6666666666666</ele><time>2026-05-03T09:48:43.001Z</time></trkpt><trkpt lat="41.746549092074474" lon="9.17856516861403"><ele>820.3333333333333</ele><time>2026-05-03T09:48:44.001Z</time></trkpt><trkpt lat="41.74646151979297" lon="9.178366521346726"><ele>822.0</ele><time>2026-05-03T09:48:45.001Z</time></trkpt><trkpt lat="41.74638677912828" lon="9.178164583036876"><ele>822.0</ele><time>2026-05-03T09:48:46.001Z</time></trkpt><trkpt lat="41.74633243456671" lon="9.177978508242639"><ele>822.0</ele><time>2026-05-03T09:48:47.001Z</time></trkpt><trkpt lat="41.74630919677213" lon="9.177790874983884"><ele>822.0</ele><time>2026-05-03T09:48:48.001Z</time></trkpt><trkpt lat="41.74632177945192" lon="9.177595056085963"><ele>822.0</ele><time>2026-05-03T09:48:49.001Z</time></trkpt><trkpt lat="41.746340083139316" lon="9.177393309467027"><ele>824.3333333333333</ele><time>2026-05-03T09:48:50.001Z</time></trkpt><trkpt lat="41.7463328623642" lon="9.177191552135442"><ele>826.6666666666666</ele><time>2026-05-03T09:48:51.001Z</time></trkpt><trkpt lat="41.74629489914138" lon="9.176985226660971"><ele>829.0</ele><time>2026-05-03T09:48:52.001Z</time></trkpt><trkpt lat="41.746199613695296" lon="9.17678483413169"><ele>829.0</ele><time>2026-05-03T09:48:53.001Z</time></trkpt><trkpt lat="41.74605704736744" lon="9.176610864871485"><ele>829.0</ele><time>2026-05-03T09:48:54.001Z</time></trkpt><trkpt lat="41.745899937958974" lon="9.176442296729162"><ele>829.0</ele><time>2026-05-03T09:48:55.001Z</time></trkpt><trkpt lat="41.74577059669487" lon="9.176250079542616"><ele>825.6666666666666</ele><time>2026-05-03T09:48:56.001Z</time></trkpt><trkpt lat="41.74564698411985" lon="9.17608730323248"><ele>822.3333333333333</ele><time>2026-05-03T09:48:57.001Z</time></trkpt><trkpt lat="41.745536364334974" lon="9.175937207995165"><ele>819.0</ele><time>2026-05-03T09:48:58.001Z</time></trkpt><trkpt lat="41.74542889443628" lon="9.175780991572854"><ele>824.0</ele><time>2026-05-03T09:48:59.001Z</time></trkpt><trkpt lat="41.74537929648984" lon="9.17557531973793"><ele>829.0</ele><time>2026-05-03T09:49:00.001Z</time></trkpt><trkpt lat="41.74534562813389" lon="9.17536718724316"><ele>834.0</ele><time>2026-05-03T09:49:01.001Z</time></trkpt><trkpt lat="41.745307645676924" lon="9.175132086457966"><ele>834.0</ele><time>2026-05-03T09:49:02.001Z</time></trkpt><trkpt lat="41.74528359135456" lon="9.174888079147344"><ele>834.0</ele><time>2026-05-03T09:49:03.001Z</time></trkpt><trkpt lat="41.74523962169831" lon="9.174657220990959"><ele>834.0</ele><time>2026-05-03T09:49:04.001Z</time></trkpt><trkpt lat="41.74517448757432" lon="9.174425449516404"><ele>825.3333333333333</ele><time>2026-05-03T09:49:05.001Z</time></trkpt><trkpt lat="41.74509669602445" lon="9.174224954667224"><ele>816.6666666666666</ele><time>2026-05-03T09:49:06.001Z</time></trkpt><trkpt lat="41.745018447024464" lon="9.174048885245915"><ele>808.0</ele><time>2026-05-03T09:49:07.001Z</time></trkpt><trkpt lat="41.744933749423886" lon="9.173898586403741"><ele>808.0</ele><time>2026-05-03T09:49:08.001Z</time></trkpt><trkpt lat="41.74484795753096" lon="9.173762456695387"><ele>808.0</ele><time>2026-05-03T09:49:09.001Z</time></trkpt><trkpt lat="41.74478560145694" lon="9.17361082821285"><ele>808.0</ele><time>2026-05-03T09:49:10.001Z</time></trkpt><trkpt lat="41.74476174922568" lon="9.173448701382947"><ele>808.0</ele><time>2026-05-03T09:49:11.001Z</time></trkpt><trkpt lat="41.744770683464864" lon="9.173284662194966"><ele>805.5</ele><time>2026-05-03T09:49:12.001Z</time></trkpt><trkpt lat="41.74481185062516" lon="9.173094981500928"><ele>803.0</ele><time>2026-05-03T09:49:13.001Z</time></trkpt><trkpt lat="41.74486233970485" lon="9.17292218110576"><ele>800.5</ele><time>2026-05-03T09:49:14.001Z</time></trkpt><trkpt lat="41.74492350153281" lon="9.172762390588918"><ele>798.0</ele><time>2026-05-03T09:49:15.001Z</time></trkpt><trkpt lat="41.74501194399467" lon="9.172641365280008"><ele>798.0</ele><time>2026-05-03T09:49:16.001Z</time></trkpt><trkpt lat="41.74512258391514" lon="9.172548323425781"><ele>798.0</ele><time>2026-05-03T09:49:17.001Z</time></trkpt><trkpt lat="41.74525051700708" lon="9.172485120549883"><ele>798.0</ele><time>2026-05-03T09:49:18.001Z</time></trkpt><trkpt lat="41.745399086503674" lon="9.172458552918302"><ele>798.0</ele><time>2026-05-03T09:49:19.001Z</time></trkpt><trkpt lat="41.74553660099536" lon="9.17244444834277"><ele>796.75</ele><time>2026-05-03T09:49:20.001Z</time></trkpt><trkpt lat="41.745657790453016" lon="9.172392884622015"><ele>795.5</ele><time>2026-05-03T09:49:21.001Z</time></trkpt><trkpt lat="41.74576744115681" lon="9.172316223581769"><ele>794.25</ele><time>2026-05-03T09:49:22.001Z</time></trkpt><trkpt lat="41.745859212043776" lon="9.17221897948781"><ele>793.0</ele><time>2026-05-03T09:49:23.001Z</time></trkpt><trkpt lat="41.745944177101286" lon="9.172119093787211"><ele>793.0</ele><time>2026-05-03T09:49:24.001Z</time></trkpt><trkpt lat="41.746005532038154" lon="9.172007115129736"><ele>793.0</ele><time>2026-05-03T09:49:25.001Z</time></trkpt><trkpt lat="41.746044750926124" lon="9.171889442844222"><ele>793.0</ele><time>2026-05-03T09:49:26.001Z</time></trkpt><trkpt lat="41.74605805706591" lon="9.171767717594374"><ele>793.0</ele><time>2026-05-03T09:49:27.002Z</time></trkpt><trkpt lat="41.74605065695787" lon="9.171650641581257"><ele>793.0</ele><time>2026-05-03T09:49:28.002Z</time></trkpt><trkpt lat="41.746066894887974" lon="9.171536103949391"><ele>790.5999999999999</ele><time>2026-05-03T09:49:29.002Z</time></trkpt><trkpt lat="41.74611130937153" lon="9.171437665843154"><ele>788.1999999999999</ele><time>2026-05-03T09:49:30.002Z</time></trkpt><trkpt lat="41.74617859251041" lon="9.171350383270692"><ele>785.8</ele><time>2026-05-03T09:49:31.002Z</time></trkpt><trkpt lat="41.746268632714546" lon="9.171293120468793"><ele>783.4</ele><time>2026-05-03T09:49:32.002Z</time></trkpt><trkpt lat="41.74638221585361" lon="9.171265138867591"><ele>781.0</ele><time>2026-05-03T09:49:33.002Z</time></trkpt><trkpt lat="41.74650619736238" lon="9.171279138562904"><ele>780.9999999999999</ele><time>2026-05-03T09:49:34.002Z</time></trkpt><trkpt lat="41.74662691204852" lon="9.171284705223238"><ele>781.0</ele><time>2026-05-03T09:49:35.002Z</time></trkpt><trkpt lat="41.74670692868813" lon="9.171277156798435"><ele>781.0</ele><time>2026-05-03T09:49:36.002Z</time></trkpt><trkpt lat="41.74678164595907" lon="9.17128730625858"><ele>781.0</ele><time>2026-05-03T09:49:37.002Z</time></trkpt><trkpt lat="41.74685273033448" lon="9.171304027872374"><ele>780.9999999999999</ele><time>2026-05-03T09:49:38.002Z</time></trkpt><trkpt lat="41.7469290648667" lon="9.171316573842955"><ele>781.0</ele><time>2026-05-03T09:49:39.002Z</time></trkpt><trkpt lat="41.746999393261454" lon="9.171326907734414"><ele>779.8333333333333</ele><time>2026-05-03T09:49:40.002Z</time></trkpt><trkpt lat="41.747069612599084" lon="9.17133630459786"><ele>778.6666666666666</ele><time>2026-05-03T09:49:41.002Z</time></trkpt><trkpt lat="41.74713378541816" lon="9.171346825960724"><ele>777.5</ele><time>2026-05-03T09:49:42.002Z</time></trkpt><trkpt lat="41.74719818002237" lon="9.171363369424272"><ele>776.3333333333333</ele><time>2026-05-03T09:49:43.002Z</time></trkpt><trkpt lat="41.747269182782794" lon="9.171385973689121"><ele>775.1666666666666</ele><time>2026-05-03T09:49:44.002Z</time></trkpt><trkpt lat="41.74735087729606" lon="9.171425652654422"><ele>774.0</ele><time>2026-05-03T09:49:45.002Z</time></trkpt><trkpt lat="41.74743247315636" lon="9.171482644179656"><ele>775.4285714285714</ele><time>2026-05-03T09:49:46.002Z</time></trkpt><trkpt lat="41.747502524922915" lon="9.171540674989012"><ele>776.8571428571429</ele><time>2026-05-03T09:49:47.002Z</time></trkpt><trkpt lat="41.74756160923345" lon="9.171601451759726"><ele>778.2857142857142</ele><time>2026-05-03T09:49:48.002Z</time></trkpt><trkpt lat="41.74762041142528" lon="9.171670717790658"><ele>779.7142857142858</ele><time>2026-05-03T09:49:50.002Z</time></trkpt><trkpt lat="41.74768525301072" lon="9.171715195189401"><ele>781.1428571428571</ele><time>2026-05-03T09:52:00.002Z</time></trkpt><trkpt lat="41.7477474210664" lon="9.171729562555297"><ele>782.5714285714286</ele><time>2026-05-03T09:52:01.002Z</time></trkpt><trkpt lat="41.74782046273318" lon="9.171738910320048"><ele>784.0</ele><time>2026-05-03T09:52:02.002Z</time></trkpt><trkpt lat="41.747900260460575" lon="9.17174944003631"><ele>784.0</ele><time>2026-05-03T09:52:03.002Z</time></trkpt><trkpt lat="41.74798823185976" lon="9.171762446977143"><ele>784.0</ele><time>2026-05-03T09:52:04.002Z</time></trkpt><trkpt lat="41.74808205001822" lon="9.171774040342562"><ele>784.0</ele><time>2026-05-03T09:52:05.002Z</time></trkpt><trkpt lat="41.74817891923829" lon="9.171803266888675"><ele>784.0</ele><time>2026-05-03T09:52:06.002Z</time></trkpt><trkpt lat="41.748276010770034" lon="9.17181365570638"><ele>784.0</ele><time>2026-05-03T09:52:07.002Z</time></trkpt><trkpt lat="41.74837362950428" lon="9.171801787762044"><ele>784.0</ele><time>2026-05-03T09:52:08.002Z</time></trkpt><trkpt lat="41.748474879092164" lon="9.171819450579042"><ele>784.0</ele><time>2026-05-03T09:52:09.002Z</time></trkpt><trkpt lat="41.74856647587389" lon="9.171828456574351"><ele>784.0</ele><time>2026-05-03T09:52:10.002Z</time></trkpt><trkpt lat="41.74865997947328" lon="9.171838270876586"><ele>784.0</ele><time>2026-05-03T09:52:11.002Z</time></trkpt><trkpt lat="41.74875802049181" lon="9.171854559283638"><ele>784.0</ele><time>2026-05-03T09:52:12.002Z</time></trkpt><trkpt lat="41.74885899527422" lon="9.17181717763009"><ele>784.8000000000001</ele><time>2026-05-03T09:52:13.002Z</time></trkpt><trkpt lat="41.74893765708283" lon="9.171732371352334"><ele>785.6</ele><time>2026-05-03T09:52:14.002Z</time></trkpt><trkpt lat="41.749007478749604" lon="9.171628778473764"><ele>786.4</ele><time>2026-05-03T09:52:15.002Z</time></trkpt><trkpt lat="41.74906581194706" lon="9.171499075140185"><ele>787.2</ele><time>2026-05-03T09:52:16.002Z</time></trkpt><trkpt lat="41.749124425887" lon="9.171389320102646"><ele>788.0</ele><time>2026-05-03T09:52:17.002Z</time></trkpt><trkpt lat="41.74919162135076" lon="9.171307507137827"><ele>785.5999999999999</ele><time>2026-05-03T09:52:18.002Z</time></trkpt><trkpt lat="41.749279852962715" lon="9.171232652364742"><ele>783.1999999999999</ele><time>2026-05-03T09:52:19.002Z</time></trkpt><trkpt lat="41.74937893413453" lon="9.171212981042133"><ele>780.8</ele><time>2026-05-03T09:52:20.002Z</time></trkpt><trkpt lat="41.74946547520011" lon="9.171192649528471"><ele>778.4</ele><time>2026-05-03T09:52:21.002Z</time></trkpt><trkpt lat="41.749542562782665" lon="9.171165023075867"><ele>776.0</ele><time>2026-05-03T09:52:22.002Z</time></trkpt><trkpt lat="41.749622468775556" lon="9.171170673316778"><ele>775.8333333333334</ele><time>2026-05-03T09:52:23.002Z</time></trkpt><trkpt lat="41.7496930490152" lon="9.171204360362506"><ele>775.6666666666667</ele><time>2026-05-03T09:52:24.002Z</time></trkpt><trkpt lat="41.74977598122629" lon="9.171233186787788"><ele>775.5</ele><time>2026-05-03T09:52:25.002Z</time></trkpt><trkpt lat="41.74986870109925" lon="9.17126633317233"><ele>775.3333333333333</ele><time>2026-05-03T09:52:26.002Z</time></trkpt><trkpt lat="41.74995329617237" lon="9.17129305220573"><ele>775.1666666666666</ele><time>2026-05-03T09:52:27.002Z</time></trkpt><trkpt lat="41.75004350774938" lon="9.171321545158609"><ele>775.0</ele><time>2026-05-03T09:52:28.002Z</time></trkpt><trkpt lat="41.75012609122363" lon="9.171340031073855"><ele>774.9999999999999</ele><time>2026-05-03T09:52:29.002Z</time></trkpt><trkpt lat="41.75019837722472" lon="9.171357339713756"><ele>775.0</ele><time>2026-05-03T09:52:30.001Z</time></trkpt><trkpt lat="41.75026903730014" lon="9.171398884071419"><ele>775.0</ele><time>2026-05-03T09:52:31Z</time></trkpt><trkpt lat="41.75035367131119" lon="9.171417470480712"><ele>775.0</ele><time>2026-05-03T09:52:32.001Z</time></trkpt><trkpt lat="41.75043262067235" lon="9.171454999392319"><ele>774.9999999999999</ele><time>2026-05-03T09:52:33Z</time></trkpt><trkpt lat="41.75051500835233" lon="9.171500622407303"><ele>775.0</ele><time>2026-05-03T09:52:34Z</time></trkpt><trkpt lat="41.750598781649956" lon="9.171557554022943"><ele>775.4999999999999</ele><time>2026-05-03T09:52:35Z</time></trkpt><trkpt lat="41.750683206375406" lon="9.171628365672728"><ele>776.0</ele><time>2026-05-03T09:52:36Z</time></trkpt><trkpt lat="41.75076076318271" lon="9.17169051508991"><ele>776.5</ele><time>2026-05-03T09:52:37Z</time></trkpt><trkpt lat="41.75082925418121" lon="9.171750118790605"><ele>777.0</ele><time>2026-05-03T09:52:38Z</time></trkpt><trkpt lat="41.75089655433665" lon="9.171794512607033"><ele>777.4999999999999</ele><time>2026-05-03T09:52:39Z</time></trkpt><trkpt lat="41.75096073057453" lon="9.171823326811241"><ele>778.0</ele><time>2026-05-03T09:52:40Z</time></trkpt><trkpt lat="41.751023731386994" lon="9.171850484945"><ele>776.3333333333333</ele><time>2026-05-03T09:52:41Z</time></trkpt><trkpt lat="41.751087755629975" lon="9.171887245580738"><ele>774.6666666666666</ele><time>2026-05-03T09:52:42Z</time></trkpt><trkpt lat="41.75115631364698" lon="9.17192198163306"><ele>773.0</ele><time>2026-05-03T09:52:43Z</time></trkpt><trkpt lat="41.75123169838419" lon="9.171960326978846"><ele>771.3333333333333</ele><time>2026-05-03T09:52:44Z</time></trkpt><trkpt lat="41.75130838631614" lon="9.17196834980632"><ele>769.6666666666666</ele><time>2026-05-03T09:52:45Z</time></trkpt><trkpt lat="41.751393589866176" lon="9.17197892256885"><ele>768.0</ele><time>2026-05-03T09:52:46Z</time></trkpt><trkpt lat="41.75147189356641" lon="9.17199978209738"><ele>768.0</ele><time>2026-05-03T09:52:47Z</time></trkpt><trkpt lat="41.75154634237711" lon="9.172013376507133"><ele>768.0</ele><time>2026-05-03T09:52:48Z</time></trkpt><trkpt lat="41.75161563626924" lon="9.172031778426472"><ele>768.0</ele><time>2026-05-03T09:52:49Z</time></trkpt><trkpt lat="41.75168216546232" lon="9.172048324158844"><ele>768.0</ele><time>2026-05-03T09:52:50Z</time></trkpt><trkpt lat="41.75179744090434" lon="9.172078111634683"><ele>768.0</ele><time>2026-05-03T09:52:52Z</time></trkpt><trkpt lat="41.75190223857501" lon="9.172091974314414"><ele>768.0</ele><time>2026-05-03T09:52:54Z</time></trkpt><trkpt lat="41.75198823995967" lon="9.17209316563373"><ele>767.2</ele><time>2026-05-03T09:52:56Z</time></trkpt><trkpt lat="41.752094988259074" lon="9.172094938017478"><ele>766.4</ele><time>2026-05-03T09:52:58Z</time></trkpt><trkpt lat="41.75220295281904" lon="9.172056914643663"><ele>765.6</ele><time>2026-05-03T09:53:00Z</time></trkpt><trkpt lat="41.75227449554257" lon="9.172042025364256"><ele>764.8000000000001</ele><time>2026-05-03T09:53:02Z</time></trkpt><trkpt lat="41.75234216639209" lon="9.171993520610453"><ele>764.0</ele><time>2026-05-03T09:53:13.001Z</time></trkpt><trkpt lat="41.7524578721435" lon="9.17192998303863"><ele>764.0</ele><time>2026-05-03T09:53:15.001Z</time></trkpt><trkpt lat="41.75252773084806" lon="9.171895963580514"><ele>764.0</ele><time>2026-05-03T09:53:16.001Z</time></trkpt><trkpt lat="41.75260499157582" lon="9.171867719547437"><ele>764.0</ele><time>2026-05-03T09:53:17.001Z</time></trkpt><trkpt lat="41.752697133819524" lon="9.171860446208822"><ele>764.0</ele><time>2026-05-03T09:53:18.001Z</time></trkpt><trkpt lat="41.75280398527031" lon="9.171872450140121"><ele>764.0</ele><time>2026-05-03T09:53:19.001Z</time></trkpt><trkpt lat="41.75290140737289" lon="9.171948943404885"><ele>762.8000000000001</ele><time>2026-05-03T09:53:20.001Z</time></trkpt><trkpt lat="41.752995754378375" lon="9.172027209480238"><ele>761.6</ele><time>2026-05-03T09:53:21.001Z</time></trkpt><trkpt lat="41.75308993674635" lon="9.172089634485237"><ele>760.4</ele><time>2026-05-03T09:53:22.001Z</time></trkpt><trkpt lat="41.753160200224904" lon="9.172149687429503"><ele>759.2</ele><time>2026-05-03T09:53:23.001Z</time></trkpt><trkpt lat="41.753231463906" lon="9.172208848329078"><ele>758.0</ele><time>2026-05-03T09:53:25.001Z</time></trkpt><trkpt lat="41.75333315010112" lon="9.172293162142473"><ele>758.0</ele><time>2026-05-03T09:53:29.001Z</time></trkpt><trkpt lat="41.75338718903846" lon="9.17233862129307"><ele>758.0</ele><time>2026-05-03T09:53:30.001Z</time></trkpt><trkpt lat="41.75350097449552" lon="9.172399857757664"><ele>758.0</ele><time>2026-05-03T09:53:32.001Z</time></trkpt><trkpt lat="41.75356764375737" lon="9.172420293160526"><ele>758.0</ele><time>2026-05-03T09:53:33.001Z</time></trkpt><trkpt lat="41.753637756321666" lon="9.172416303440729"><ele>758.0</ele><time>2026-05-03T09:53:34.001Z</time></trkpt><trkpt lat="41.75370805752772" lon="9.172411311083561"><ele>758.0</ele><time>2026-05-03T09:53:35.001Z</time></trkpt><trkpt lat="41.75376944453761" lon="9.17239145658222"><ele>757.1666666666666</ele><time>2026-05-03T09:53:36.001Z</time></trkpt><trkpt lat="41.75383317167387" lon="9.172372102182788"><ele>756.3333333333333</ele><time>2026-05-03T09:53:37.001Z</time></trkpt><trkpt lat="41.75394678032674" lon="9.17229145811282"><ele>755.5</ele><time>2026-05-03T09:53:39.001Z</time></trkpt><trkpt lat="41.7540131170516" lon="9.17224313493381"><ele>754.6666666666666</ele><time>2026-05-03T09:53:40.001Z</time></trkpt><trkpt lat="41.75407770391901" lon="9.17219576815003"><ele>753.8333333333334</ele><time>2026-05-03T09:53:41.001Z</time></trkpt><trkpt lat="41.75413864980324" lon="9.172142254311673"><ele>753.0</ele><time>2026-05-03T09:53:42.001Z</time></trkpt><trkpt lat="41.75420247704653" lon="9.17208357735942"><ele>753.0</ele><time>2026-05-03T09:53:43.001Z</time></trkpt><trkpt lat="41.754262107096594" lon="9.172036900371264"><ele>753.0</ele><time>2026-05-03T09:53:44.001Z</time></trkpt><trkpt lat="41.75431736805817" lon="9.171993846987204"><ele>753.0</ele><time>2026-05-03T09:53:45.001Z</time></trkpt><trkpt lat="41.75437865739196" lon="9.171961597221477"><ele>753.0</ele><time>2026-05-03T09:53:46.001Z</time></trkpt><trkpt lat="41.75446340729834" lon="9.171956665866436"><ele>753.0</ele><time>2026-05-03T09:53:47.001Z</time></trkpt><trkpt lat="41.75455352372435" lon="9.17198334145418"><ele>753.0</ele><time>2026-05-03T09:53:48.001Z</time></trkpt><trkpt lat="41.75464827953804" lon="9.172065844369754"><ele>753.2</ele><time>2026-05-03T09:53:49.001Z</time></trkpt><trkpt lat="41.75471628559458" lon="9.172153292887312"><ele>753.4</ele><time>2026-05-03T09:53:50.001Z</time></trkpt><trkpt lat="41.75477353728463" lon="9.172282377389273"><ele>753.6</ele><time>2026-05-03T09:53:51.001Z</time></trkpt><trkpt lat="41.75483879807674" lon="9.172402175553215"><ele>753.8000000000001</ele><time>2026-05-03T09:53:52.001Z</time></trkpt><trkpt lat="41.75489462821679" lon="9.172519759993312"><ele>754.0</ele><time>2026-05-03T09:53:53.001Z</time></trkpt><trkpt lat="41.75496832127419" lon="9.172637656844694"><ele>754.0</ele><time>2026-05-03T09:53:54.001Z</time></trkpt><trkpt lat="41.75506654012901" lon="9.172727370289621"><ele>754.0</ele><time>2026-05-03T09:53:55.001Z</time></trkpt><trkpt lat="41.75518135979786" lon="9.172797413652656"><ele>754.0</ele><time>2026-05-03T09:53:56.001Z</time></trkpt><trkpt lat="41.755301644509494" lon="9.172839490598017"><ele>754.0</ele><time>2026-05-03T09:53:57.001Z</time></trkpt><trkpt lat="41.75542422269145" lon="9.172861695093022"><ele>752.0</ele><time>2026-05-03T09:53:58.001Z</time></trkpt><trkpt lat="41.75555355643959" lon="9.172892424870005"><ele>750.0</ele><time>2026-05-03T09:53:59.001Z</time></trkpt><trkpt lat="41.7556740528986" lon="9.172934093594034"><ele>748.0</ele><time>2026-05-03T09:54:00.001Z</time></trkpt><trkpt lat="41.75579243554428" lon="9.173008644287403"><ele>746.0</ele><time>2026-05-03T09:54:01.001Z</time></trkpt><trkpt lat="41.755908708711495" lon="9.173105773031253"><ele>745.5</ele><time>2026-05-03T09:54:02.001Z</time></trkpt><trkpt lat="41.756022713612154" lon="9.173195047722317"><ele>745.0</ele><time>2026-05-03T09:54:03.001Z</time></trkpt><trkpt lat="41.75613077652179" lon="9.173279026895617"><ele>744.5</ele><time>2026-05-03T09:54:04.001Z</time></trkpt><trkpt lat="41.7562356203662" lon="9.173359222031433"><ele>744.0</ele><time>2026-05-03T09:54:05.001Z</time></trkpt><trkpt lat="41.75633314437103" lon="9.173453411904752"><ele>744.0</ele><time>2026-05-03T09:54:06.001Z</time></trkpt><trkpt lat="41.75640863354254" lon="9.173588832317076"><ele>744.0</ele><time>2026-05-03T09:54:07.001Z</time></trkpt><trkpt lat="41.756432763832294" lon="9.173756996730292"><ele>744.0</ele><time>2026-05-03T09:54:08.001Z</time></trkpt><trkpt lat="41.756488609594236" lon="9.173897282984031"><ele>744.0</ele><time>2026-05-03T09:54:09.001Z</time></trkpt><trkpt lat="41.75655381624431" lon="9.174041278979955"><ele>744.5</ele><time>2026-05-03T09:54:10.001Z</time></trkpt><trkpt lat="41.75665067314724" lon="9.174169773495095"><ele>745.0</ele><time>2026-05-03T09:54:11.001Z</time></trkpt><trkpt lat="41.75674913934625" lon="9.174285835272203"><ele>745.5</ele><time>2026-05-03T09:54:12.001Z</time></trkpt><trkpt lat="41.75683668156059" lon="9.174422828051963"><ele>746.0</ele><time>2026-05-03T09:54:13.002Z</time></trkpt><trkpt lat="41.756899949606755" lon="9.174592657725002"><ele>744.0</ele><time>2026-05-03T09:54:14.002Z</time></trkpt><trkpt lat="41.756958508517954" lon="9.174766001111363"><ele>742.0</ele><time>2026-05-03T09:54:15.002Z</time></trkpt><trkpt lat="41.75702835345132" lon="9.174931362321844"><ele>740.0</ele><time>2026-05-03T09:54:16.002Z</time></trkpt><trkpt lat="41.757107285711086" lon="9.175080198470154"><ele>738.0</ele><time>2026-05-03T09:54:17.002Z</time></trkpt><trkpt lat="41.757188957314156" lon="9.175216817126199"><ele>738.0</ele><time>2026-05-03T09:54:18.002Z</time></trkpt><trkpt lat="41.757280721968314" lon="9.175336239902217"><ele>738.0</ele><time>2026-05-03T09:54:19.002Z</time></trkpt><trkpt lat="41.757378488603514" lon="9.175433667856177"><ele>738.0</ele><time>2026-05-03T09:54:20.002Z</time></trkpt><trkpt lat="41.75748524105015" lon="9.175528818730129"><ele>738.0</ele><time>2026-05-03T09:54:21.002Z</time></trkpt><trkpt lat="41.75760072946857" lon="9.175630422304817"><ele>737.25</ele><time>2026-05-03T09:54:22.002Z</time></trkpt><trkpt lat="41.75771743521684" lon="9.175745444784734"><ele>736.5</ele><time>2026-05-03T09:54:23.002Z</time></trkpt><trkpt lat="41.75784394848917" lon="9.175853804451128"><ele>735.75</ele><time>2026-05-03T09:54:24.002Z</time></trkpt><trkpt lat="41.757970351904596" lon="9.175925441717224"><ele>735.0</ele><time>2026-05-03T09:54:25.002Z</time></trkpt><trkpt lat="41.758095145505486" lon="9.175953803311119"><ele>735.0</ele><time>2026-05-03T09:54:26.002Z</time></trkpt><trkpt lat="41.75822057987794" lon="9.175922821488138"><ele>735.0</ele><time>2026-05-03T09:54:27.002Z</time></trkpt><trkpt lat="41.75832457755108" lon="9.175835944204227"><ele>735.0</ele><time>2026-05-03T09:54:28.002Z</time></trkpt><trkpt lat="41.758394992633406" lon="9.175693256839125"><ele>735.0</ele><time>2026-05-03T09:54:29.002Z</time></trkpt><trkpt lat="41.75843008288956" lon="9.175500742343702"><ele>733.5</ele><time>2026-05-03T09:54:30.002Z</time></trkpt><trkpt lat="41.75846064079704" lon="9.17531161801725"><ele>732.0</ele><time>2026-05-03T09:54:31.002Z</time></trkpt><trkpt lat="41.75850655178266" lon="9.175139558572111"><ele>730.5</ele><time>2026-05-03T09:54:32.002Z</time></trkpt><trkpt lat="41.75857793757982" lon="9.174990041266335"><ele>729.0</ele><time>2026-05-03T09:54:33.002Z</time></trkpt><trkpt lat="41.75868233677836" lon="9.17486148195569"><ele>726.0</ele><time>2026-05-03T09:54:34.002Z</time></trkpt><trkpt lat="41.75880311010118" lon="9.174802815255495"><ele>723.0</ele><time>2026-05-03T09:54:35.002Z</time></trkpt><trkpt lat="41.7589564670144" lon="9.174810078079885"><ele>720.0</ele><time>2026-05-03T09:54:35.999Z</time></trkpt><trkpt lat="41.75911835458458" lon="9.174818081277"><ele>717.0</ele><time>2026-05-03T09:54:36.999Z</time></trkpt><trkpt lat="41.759295972650676" lon="9.174819470021689"><ele>718.0</ele><time>2026-05-03T09:54:37.999Z</time></trkpt><trkpt lat="41.759462314626816" lon="9.174845817953253"><ele>719.0</ele><time>2026-05-03T09:54:38.999Z</time></trkpt><trkpt lat="41.759632312244605" lon="9.174858404633346"><ele>720.0</ele><time>2026-05-03T09:54:39.999Z</time></trkpt><trkpt lat="41.759800814759586" lon="9.174869253622832"><ele>720.0</ele><time>2026-05-03T09:54:40.999Z</time></trkpt><trkpt lat="41.75995462728529" lon="9.17487811785738"><ele>720.0</ele><time>2026-05-03T09:54:41.999Z</time></trkpt><trkpt lat="41.76009900737078" lon="9.174913934308979"><ele>720.0</ele><time>2026-05-03T09:54:42.999Z</time></trkpt><trkpt lat="41.76023635478547" lon="9.175017649244154"><ele>717.6666666666666</ele><time>2026-05-03T09:54:43.999Z</time></trkpt><trkpt lat="41.76037996797496" lon="9.175145172300219"><ele>715.3333333333333</ele><time>2026-05-03T09:54:44.999Z</time></trkpt><trkpt lat="41.7605411690744" lon="9.175239852937356"><ele>713.0</ele><time>2026-05-03T09:54:45.999Z</time></trkpt><trkpt lat="41.760703056286744" lon="9.175297450904754"><ele>713.0</ele><time>2026-05-03T09:54:46.999Z</time></trkpt><trkpt lat="41.76087784762685" lon="9.175328720136172"><ele>713.0</ele><time>2026-05-03T09:54:47.999Z</time></trkpt><trkpt lat="41.76105248788618" lon="9.175367613392796"><ele>713.0</ele><time>2026-05-03T09:54:48.999Z</time></trkpt><trkpt lat="41.7612438807055" lon="9.175435094048977"><ele>710.6666666666666</ele><time>2026-05-03T09:54:49.999Z</time></trkpt><trkpt lat="41.76143038182139" lon="9.175500432604629"><ele>708.3333333333334</ele><time>2026-05-03T09:54:50.999Z</time></trkpt><trkpt lat="41.76160780521682" lon="9.175563008181715"><ele>706.0</ele><time>2026-05-03T09:54:51.999Z</time></trkpt><trkpt lat="41.76177673190753" lon="9.175622572311115"><ele>704.6666666666667</ele><time>2026-05-03T09:54:52.999Z</time></trkpt><trkpt lat="41.76191319863334" lon="9.175746422767105"><ele>703.3333333333334</ele><time>2026-05-03T09:54:53.999Z</time></trkpt><trkpt lat="41.76204285028466" lon="9.175889778796893"><ele>702.0</ele><time>2026-05-03T09:54:54.999Z</time></trkpt><trkpt lat="41.76217630057343" lon="9.176013663693507"><ele>702.0</ele><time>2026-05-03T09:54:55.999Z</time></trkpt><trkpt lat="41.76232523075903" lon="9.176063940142727"><ele>702.0</ele><time>2026-05-03T09:54:56.999Z</time></trkpt><trkpt lat="41.76249050665034" lon="9.1760456307126"><ele>702.0</ele><time>2026-05-03T09:54:57.999Z</time></trkpt><trkpt lat="41.76265301497932" lon="9.17600210657958"><ele>701.0</ele><time>2026-05-03T09:54:58.999Z</time></trkpt><trkpt lat="41.762799471763344" lon="9.17594783780161"><ele>700.0</ele><time>2026-05-03T09:54:59.999Z</time></trkpt><trkpt lat="41.762947948005234" lon="9.175844541321634"><ele>699.0</ele><time>2026-05-03T09:55:00.999Z</time></trkpt><trkpt lat="41.76310472699773" lon="9.1757231566737"><ele>696.0</ele><time>2026-05-03T09:55:01.999Z</time></trkpt><trkpt lat="41.76326606650804" lon="9.175627358502883"><ele>693.0</ele><time>2026-05-03T09:55:03Z</time></trkpt><trkpt lat="41.76342412674356" lon="9.17558020935014"><ele>690.0</ele><time>2026-05-03T09:55:04Z</time></trkpt><trkpt lat="41.76360136711266" lon="9.17558617786224"><ele>689.6666666666666</ele><time>2026-05-03T09:55:05Z</time></trkpt><trkpt lat="41.76378601763321" lon="9.175616478719348"><ele>689.3333333333333</ele><time>2026-05-03T09:55:06Z</time></trkpt><trkpt lat="41.76395941706705" lon="9.17562303819298"><ele>689.0</ele><time>2026-05-03T09:55:07Z</time></trkpt><trkpt lat="41.76411598711019" lon="9.175590384319703"><ele>689.0</ele><time>2026-05-03T09:55:08Z</time></trkpt><trkpt lat="41.76426601033882" lon="9.175520618086841"><ele>689.0</ele><time>2026-05-03T09:55:09Z</time></trkpt><trkpt lat="41.764401239651264" lon="9.17543821413546"><ele>689.0</ele><time>2026-05-03T09:55:10Z</time></trkpt><trkpt lat="41.76452617482158" lon="9.175357373134098"><ele>689.0</ele><time>2026-05-03T09:55:11Z</time></trkpt><trkpt lat="41.764640534847636" lon="9.175316428071158"><ele>688.75</ele><time>2026-05-03T09:55:12Z</time></trkpt><trkpt lat="41.764737225522325" lon="9.17534078958772"><ele>688.5</ele><time>2026-05-03T09:55:13Z</time></trkpt><trkpt lat="41.76481532725087" lon="9.175435331862003"><ele>688.25</ele><time>2026-05-03T09:55:14Z</time></trkpt><trkpt lat="41.764891412064415" lon="9.175598849369724"><ele>688.0</ele><time>2026-05-03T09:55:15Z</time></trkpt><trkpt lat="41.764983517538866" lon="9.175738312366471"><ele>688.0</ele><time>2026-05-03T09:55:16Z</time></trkpt><trkpt lat="41.76510128002988" lon="9.17584642372268"><ele>688.0</ele><time>2026-05-03T09:55:17Z</time></trkpt><trkpt lat="41.76524072622699" lon="9.175927702237093"><ele>688.0</ele><time>2026-05-03T09:55:18Z</time></trkpt><trkpt lat="41.76540186471369" lon="9.17597988462079"><ele>684.6666666666667</ele><time>2026-05-03T09:55:19Z</time></trkpt><trkpt lat="41.76557319982997" lon="9.176025213014315"><ele>681.3333333333334</ele><time>2026-05-03T09:55:20Z</time></trkpt><trkpt lat="41.76574437617633" lon="9.176153496501358"><ele>678.0</ele><time>2026-05-03T09:55:21Z</time></trkpt><trkpt lat="41.76591465593451" lon="9.17625984756388"><ele>674.6666666666666</ele><time>2026-05-03T09:55:22Z</time></trkpt><trkpt lat="41.76609049475471" lon="9.17631692579637"><ele>671.3333333333333</ele><time>2026-05-03T09:55:23Z</time></trkpt><trkpt lat="41.76628712173334" lon="9.176371487598745"><ele>668.0</ele><time>2026-05-03T09:55:24Z</time></trkpt><trkpt lat="41.766483269350566" lon="9.17639179394659"><ele>668.0</ele><time>2026-05-03T09:55:25Z</time></trkpt><trkpt lat="41.76667167697207" lon="9.17639951642196"><ele>668.0</ele><time>2026-05-03T09:55:26Z</time></trkpt><trkpt lat="41.76684057907948" lon="9.17640546212998"><ele>668.0</ele><time>2026-05-03T09:55:27Z</time></trkpt><trkpt lat="41.76697708756024" lon="9.176421077849875"><ele>667.0</ele><time>2026-05-03T09:55:28Z</time></trkpt><trkpt lat="41.76710023566909" lon="9.176470242025422"><ele>666.0</ele><time>2026-05-03T09:55:29Z</time></trkpt><trkpt lat="41.76721352177881" lon="9.176593356474196"><ele>665.0</ele><time>2026-05-03T09:55:30Z</time></trkpt><trkpt lat="41.767328789834984" lon="9.17675557740966"><ele>664.0</ele><time>2026-05-03T09:55:31Z</time></trkpt><trkpt lat="41.767447191169104" lon="9.176915809213481"><ele>666.6666666666667</ele><time>2026-05-03T09:55:32Z</time></trkpt><trkpt lat="41.76757863913228" lon="9.17705165180308"><ele>669.3333333333334</ele><time>2026-05-03T09:55:33Z</time></trkpt><trkpt lat="41.76772654313983" lon="9.17717335269021"><ele>672.0</ele><time>2026-05-03T09:55:34Z</time></trkpt><trkpt lat="41.767878821871825" lon="9.17728343429099"><ele>671.75</ele><time>2026-05-03T09:55:35Z</time></trkpt><trkpt lat="41.76798214714803" lon="9.177441645491369"><ele>671.5</ele><time>2026-05-03T09:55:36Z</time></trkpt><trkpt lat="41.76806797337023" lon="9.177605777315982"><ele>671.25</ele><time>2026-05-03T09:55:37Z</time></trkpt><trkpt lat="41.768154873071715" lon="9.177744181049702"><ele>671.0</ele><time>2026-05-03T09:55:38Z</time></trkpt><trkpt lat="41.76825185870574" lon="9.17783046479481"><ele>671.0</ele><time>2026-05-03T09:55:39Z</time></trkpt><trkpt lat="41.76835563480647" lon="9.177872127721244"><ele>671.0</ele><time>2026-05-03T09:55:40.001Z</time></trkpt><trkpt lat="41.76845880803926" lon="9.177856087671703"><ele>671.0</ele><time>2026-05-03T09:55:41.001Z</time></trkpt><trkpt lat="41.76855091900503" lon="9.177807058802413"><ele>671.0</ele><time>2026-05-03T09:55:42.001Z</time></trkpt><trkpt lat="41.76861761438868" lon="9.177643626791278"><ele>671.25</ele><time>2026-05-03T09:55:43.001Z</time></trkpt><trkpt lat="41.76863739655165" lon="9.177464706825933"><ele>671.5</ele><time>2026-05-03T09:55:44.001Z</time></trkpt><trkpt lat="41.76859792371428" lon="9.177289502185557"><ele>671.75</ele><time>2026-05-03T09:55:45.001Z</time></trkpt><trkpt lat="41.76850775351753" lon="9.177104277179321"><ele>672.0</ele><time>2026-05-03T09:55:46.001Z</time></trkpt><trkpt lat="41.76838079682227" lon="9.176903199029537"><ele>672.0</ele><time>2026-05-03T09:55:47.001Z</time></trkpt><trkpt lat="41.768262594992834" lon="9.176674453059112"><ele>672.0</ele><time>2026-05-03T09:55:48.001Z</time></trkpt><trkpt lat="41.76815503585485" lon="9.176431277777182"><ele>672.0</ele><time>2026-05-03T09:55:49.001Z</time></trkpt><trkpt lat="41.76809467814738" lon="9.176138094713345"><ele>673.0</ele><time>2026-05-03T09:55:50.001Z</time></trkpt><trkpt lat="41.76803606369396" lon="9.175853155199405"><ele>674.0</ele><time>2026-05-03T09:55:51.001Z</time></trkpt><trkpt lat="41.76797116510698" lon="9.175594009766176"><ele>675.0</ele><time>2026-05-03T09:55:52.001Z</time></trkpt><trkpt lat="41.767914765543885" lon="9.175352759397489"><ele>673.3333333333334</ele><time>2026-05-03T09:55:53.001Z</time></trkpt><trkpt lat="41.767850846609406" lon="9.175119938626082"><ele>671.6666666666667</ele><time>2026-05-03T09:55:54.001Z</time></trkpt><trkpt lat="41.767797403864776" lon="9.174901537048296"><ele>670.0</ele><time>2026-05-03T09:55:55.001Z</time></trkpt><trkpt lat="41.76774016521133" lon="9.174712093332491"><ele>670.0</ele><time>2026-05-03T09:55:56.001Z</time></trkpt><trkpt lat="41.76769724846516" lon="9.174529998357277"><ele>670.0</ele><time>2026-05-03T09:55:57.001Z</time></trkpt><trkpt lat="41.76768821244835" lon="9.174356059853807"><ele>670.0</ele><time>2026-05-03T09:55:58.001Z</time></trkpt><trkpt lat="41.76772523863133" lon="9.174199168880888"><ele>670.0</ele><time>2026-05-03T09:55:59.001Z</time></trkpt><trkpt lat="41.76783085013141" lon="9.174104978825529"><ele>668.75</ele><time>2026-05-03T09:56:00.001Z</time></trkpt><trkpt lat="41.7679533282934" lon="9.174003257297741"><ele>667.5</ele><time>2026-05-03T09:56:01.001Z</time></trkpt><trkpt lat="41.76810048660248" lon="9.173946285631658"><ele>666.25</ele><time>2026-05-03T09:56:02.001Z</time></trkpt><trkpt lat="41.76824973454801" lon="9.1739575557357"><ele>665.0</ele><time>2026-05-03T09:56:03.001Z</time></trkpt><trkpt lat="41.76839656546583" lon="9.174013091920678"><ele>667.5</ele><time>2026-05-03T09:56:04.001Z</time></trkpt><trkpt lat="41.76854429823186" lon="9.174075332879157"><ele>670.0</ele><time>2026-05-03T09:56:05.001Z</time></trkpt><trkpt lat="41.768670429090044" lon="9.174132145920137"><ele>672.5</ele><time>2026-05-03T09:56:06.001Z</time></trkpt><trkpt lat="41.768772985539634" lon="9.174169010309514"><ele>675.0</ele><time>2026-05-03T09:56:07.001Z</time></trkpt><trkpt lat="41.768863074923196" lon="9.174141872029399"><ele>675.0</ele><time>2026-05-03T09:56:08.001Z</time></trkpt><trkpt lat="41.76890982505851" lon="9.17403766534156"><ele>675.0</ele><time>2026-05-03T09:56:09.001Z</time></trkpt><trkpt lat="41.76894105329799" lon="9.173907338104405"><ele>675.0</ele><time>2026-05-03T09:56:10.001Z</time></trkpt><trkpt lat="41.768975608888454" lon="9.173778490377593"><ele>675.0</ele><time>2026-05-03T09:56:11.001Z</time></trkpt><trkpt lat="41.768997487909225" lon="9.17365002491951"><ele>675.0</ele><time>2026-05-03T09:56:12.001Z</time></trkpt><trkpt lat="41.76895410272327" lon="9.173516038137821"><ele>678.0</ele><time>2026-05-03T09:56:13.001Z</time></trkpt><trkpt lat="41.76884951003654" lon="9.173371429558246"><ele>681.0</ele><time>2026-05-03T09:56:14.001Z</time></trkpt><trkpt lat="41.76869768399389" lon="9.17324259160463"><ele>684.0</ele><time>2026-05-03T09:56:15.001Z</time></trkpt><trkpt lat="41.76852190771818" lon="9.173126412910243"><ele>684.0</ele><time>2026-05-03T09:56:16.001Z</time></trkpt><trkpt lat="41.7683541109999" lon="9.172976717657479"><ele>684.0</ele><time>2026-05-03T09:56:17.001Z</time></trkpt><trkpt lat="41.76817940619562" lon="9.172839403240742"><ele>684.0</ele><time>2026-05-03T09:56:18.001Z</time></trkpt><trkpt lat="41.76803267001669" lon="9.172702238952668"><ele>684.0</ele><time>2026-05-03T09:56:19.001Z</time></trkpt><trkpt lat="41.767939603706076" lon="9.172543157555248"><ele>684.0</ele><time>2026-05-03T09:56:20.001Z</time></trkpt><trkpt lat="41.76787261291212" lon="9.17235319849651"><ele>684.0</ele><time>2026-05-03T09:56:21.001Z</time></trkpt><trkpt lat="41.767843016313385" lon="9.172142446102592"><ele>686.3333333333334</ele><time>2026-05-03T09:56:22.001Z</time></trkpt><trkpt lat="41.76786172542282" lon="9.171937741814988"><ele>688.6666666666667</ele><time>2026-05-03T09:56:23.001Z</time></trkpt><trkpt lat="41.76789128775694" lon="9.171714332730708"><ele>691.0</ele><time>2026-05-03T09:56:24.001Z</time></trkpt><trkpt lat="41.76795368371575" lon="9.171506022286755"><ele>692.75</ele><time>2026-05-03T09:56:25.001Z</time></trkpt><trkpt lat="41.76798337939154" lon="9.171329774561679"><ele>694.5</ele><time>2026-05-03T09:56:26.001Z</time></trkpt><trkpt lat="41.767968828251256" lon="9.171168410132914"><ele>696.25</ele><time>2026-05-03T09:56:27.001Z</time></trkpt><trkpt lat="41.76790002746104" lon="9.17104085715655"><ele>698.0</ele><time>2026-05-03T09:56:28.002Z</time></trkpt><trkpt lat="41.76778550677144" lon="9.170978857536639"><ele>693.3333333333333</ele><time>2026-05-03T09:56:29.002Z</time></trkpt><trkpt lat="41.76763357054999" lon="9.170967873442521"><ele>688.6666666666666</ele><time>2026-05-03T09:56:30.002Z</time></trkpt><trkpt lat="41.76746463539713" lon="9.170986253955787"><ele>684.0</ele><time>2026-05-03T09:56:31.002Z</time></trkpt><trkpt lat="41.767322538243505" lon="9.170964948799659"><ele>684.0</ele><time>2026-05-03T09:56:32.002Z</time></trkpt><trkpt lat="41.7672373259763" lon="9.170860933314179"><ele>684.0</ele><time>2026-05-03T09:56:33.002Z</time></trkpt><trkpt lat="41.76717372918966" lon="9.170735868423066"><ele>684.0</ele><time>2026-05-03T09:56:34.002Z</time></trkpt><trkpt lat="41.76718913677508" lon="9.1705689451764"><ele>684.0</ele><time>2026-05-03T09:56:35.002Z</time></trkpt><trkpt lat="41.767232024151994" lon="9.170414703736407"><ele>686.25</ele><time>2026-05-03T09:56:36.002Z</time></trkpt><trkpt lat="41.76729429165557" lon="9.1702578878578"><ele>688.5</ele><time>2026-05-03T09:56:37.002Z</time></trkpt><trkpt lat="41.767322034655244" lon="9.170098681578551"><ele>690.75</ele><time>2026-05-03T09:56:38.002Z</time></trkpt><trkpt lat="41.7672791707662" lon="9.169897500784925"><ele>693.0</ele><time>2026-05-03T09:56:39.002Z</time></trkpt><trkpt lat="41.76721746847425" lon="9.16969857746511"><ele>693.0</ele><time>2026-05-03T09:56:40.002Z</time></trkpt><trkpt lat="41.76721603012154" lon="9.16950890970676"><ele>693.0</ele><time>2026-05-03T09:56:41.002Z</time></trkpt><trkpt lat="41.76724924854059" lon="9.169334178343869"><ele>693.0</ele><time>2026-05-03T09:56:41.998Z</time></trkpt><trkpt lat="41.767316914534916" lon="9.169170838062714"><ele>693.0</ele><time>2026-05-03T09:56:42.998Z</time></trkpt><trkpt lat="41.76742584490766" lon="9.169075925753134"><ele>693.0</ele><time>2026-05-03T09:56:43.998Z</time></trkpt><trkpt lat="41.76752002216444" lon="9.169104393913365"><ele>693.0</ele><time>2026-05-03T09:56:44.998Z</time></trkpt><trkpt lat="41.76761608535169" lon="9.169171728761398"><ele>693.0</ele><time>2026-05-03T09:56:45.998Z</time></trkpt><trkpt lat="41.76774612664984" lon="9.169180844826203"><ele>693.0</ele><time>2026-05-03T09:56:46.998Z</time></trkpt><trkpt lat="41.76790417170896" lon="9.169128830775593"><ele>694.75</ele><time>2026-05-03T09:56:47.998Z</time></trkpt><trkpt lat="41.768044122480326" lon="9.169014002014546"><ele>696.5</ele><time>2026-05-03T09:56:48.998Z</time></trkpt><trkpt lat="41.76818416897482" lon="9.16896770540207"><ele>698.25</ele><time>2026-05-03T09:56:49.999Z</time></trkpt><trkpt lat="41.76830173475176" lon="9.169065891366756"><ele>700.0</ele><time>2026-05-03T09:56:50.999Z</time></trkpt><trkpt lat="41.768454850724076" lon="9.169154059734675"><ele>703.6666666666667</ele><time>2026-05-03T09:56:51.999Z</time></trkpt><trkpt lat="41.76862598369755" lon="9.169218617858851"><ele>707.3333333333334</ele><time>2026-05-03T09:56:52.999Z</time></trkpt><trkpt lat="41.768799071784656" lon="9.169257080370524"><ele>711.0</ele><time>2026-05-03T09:56:53.999Z</time></trkpt><trkpt lat="41.76895828396756" lon="9.169254694248549"><ele>711.0</ele><time>2026-05-03T09:56:54.999Z</time></trkpt><trkpt lat="41.76906773883276" lon="9.169184016297677"><ele>711.0</ele><time>2026-05-03T09:56:55.999Z</time></trkpt><trkpt lat="41.769148453637406" lon="9.169049786761297"><ele>711.0</ele><time>2026-05-03T09:56:56.999Z</time></trkpt><trkpt lat="41.76918010748057" lon="9.16885097973898"><ele>711.0</ele><time>2026-05-03T09:56:57.999Z</time></trkpt><trkpt lat="41.769165257216535" lon="9.168632207810656"><ele>710.75</ele><time>2026-05-03T09:56:58.999Z</time></trkpt><trkpt lat="41.76912773671478" lon="9.168423465894849"><ele>710.5</ele><time>2026-05-03T09:56:59.999Z</time></trkpt><trkpt lat="41.76909557997709" lon="9.168247039060502"><ele>710.25</ele><time>2026-05-03T09:57:00.999Z</time></trkpt><trkpt lat="41.76904557942096" lon="9.168090597551398"><ele>710.0</ele><time>2026-05-03T09:57:01.999Z</time></trkpt><trkpt lat="41.76895420154863" lon="9.167947297781991"><ele>712.0</ele><time>2026-05-03T09:57:02.999Z</time></trkpt><trkpt lat="41.768817196539665" lon="9.167832953629823"><ele>714.0</ele><time>2026-05-03T09:57:03.999Z</time></trkpt><trkpt lat="41.76865932498006" lon="9.16775524848911"><ele>716.0</ele><time>2026-05-03T09:57:04.999Z</time></trkpt><trkpt lat="41.768531000815415" lon="9.16763326707248"><ele>716.6666666666666</ele><time>2026-05-03T09:57:05.999Z</time></trkpt><trkpt lat="41.76841108490362" lon="9.167504330941137"><ele>717.3333333333334</ele><time>2026-05-03T09:57:06.999Z</time></trkpt><trkpt lat="41.76833175564701" lon="9.167342288841006"><ele>718.0</ele><time>2026-05-03T09:57:07.999Z</time></trkpt><trkpt lat="41.76826858680335" lon="9.167144880874082"><ele>718.0</ele><time>2026-05-03T09:57:08.999Z</time></trkpt><trkpt lat="41.768219673625055" lon="9.166927336987898"><ele>718.0</ele><time>2026-05-03T09:57:09.999Z</time></trkpt><trkpt lat="41.76816658781258" lon="9.16671902941074"><ele>718.0</ele><time>2026-05-03T09:57:10.999Z</time></trkpt><trkpt lat="41.7681161556621" lon="9.166511370706317"><ele>718.3333333333334</ele><time>2026-05-03T09:57:12Z</time></trkpt><trkpt lat="41.76805341649858" lon="9.16630598322845"><ele>718.6666666666666</ele><time>2026-05-03T09:57:13Z</time></trkpt><trkpt lat="41.767963099207975" lon="9.16610399323756"><ele>719.0</ele><time>2026-05-03T09:57:14Z</time></trkpt><trkpt lat="41.76785272220156" lon="9.165917686534124"><ele>719.0</ele><time>2026-05-03T09:57:15Z</time></trkpt><trkpt lat="41.76779007832468" lon="9.165720058246887"><ele>719.0</ele><time>2026-05-03T09:57:16Z</time></trkpt><trkpt lat="41.76782202205598" lon="9.165533226392943"><ele>719.0</ele><time>2026-05-03T09:57:17Z</time></trkpt><trkpt lat="41.76788010312341" lon="9.165368684916952"><ele>719.0</ele><time>2026-05-03T09:57:18Z</time></trkpt><trkpt lat="41.76795851917566" lon="9.165263908033506"><ele>716.75</ele><time>2026-05-03T09:57:19Z</time></trkpt><trkpt lat="41.76806645667793" lon="9.165261787123834"><ele>714.5</ele><time>2026-05-03T09:57:20Z</time></trkpt><trkpt lat="41.76817654189422" lon="9.165328645668518"><ele>712.25</ele><time>2026-05-03T09:57:21Z</time></trkpt><trkpt lat="41.768304682834085" lon="9.165420681090925"><ele>710.0</ele><time>2026-05-03T09:57:22Z</time></trkpt><trkpt lat="41.768450906376046" lon="9.16550953243341"><ele>712.25</ele><time>2026-05-03T09:57:23Z</time></trkpt><trkpt lat="41.76860296369933" lon="9.165593758187388"><ele>714.5</ele><time>2026-05-03T09:57:24Z</time></trkpt><trkpt lat="41.768732815012605" lon="9.165668726730296"><ele>716.75</ele><time>2026-05-03T09:57:25Z</time></trkpt><trkpt lat="41.76884619450279" lon="9.165711671413234"><ele>719.0</ele><time>2026-05-03T09:57:26Z</time></trkpt><trkpt lat="41.76896173263911" lon="9.165678384319547"><ele>719.0</ele><time>2026-05-03T09:57:27Z</time></trkpt><trkpt lat="41.76908229751744" lon="9.165541551039253"><ele>719.0</ele><time>2026-05-03T09:57:28Z</time></trkpt><trkpt lat="41.76917489668082" lon="9.165360812720458"><ele>719.0</ele><time>2026-05-03T09:57:29Z</time></trkpt><trkpt lat="41.7692776412939" lon="9.165192208313032"><ele>722.3333333333333</ele><time>2026-05-03T09:57:30Z</time></trkpt><trkpt lat="41.76939236909828" lon="9.165047436918005"><ele>725.6666666666666</ele><time>2026-05-03T09:57:31Z</time></trkpt><trkpt lat="41.76952184103642" lon="9.16489506454086"><ele>729.0</ele><time>2026-05-03T09:57:32Z</time></trkpt><trkpt lat="41.7696549870173" lon="9.164738294609672"><ele>729.0</ele><time>2026-05-03T09:57:33Z</time></trkpt><trkpt lat="41.76978582253923" lon="9.164570517985968"><ele>729.0</ele><time>2026-05-03T09:57:34Z</time></trkpt><trkpt lat="41.76992032302747" lon="9.164429636812228"><ele>729.0</ele><time>2026-05-03T09:57:35Z</time></trkpt><trkpt lat="41.77004766529262" lon="9.16431546815838"><ele>729.0</ele><time>2026-05-03T09:57:36Z</time></trkpt><trkpt lat="41.770145947619476" lon="9.16416003123455"><ele>729.0</ele><time>2026-05-03T09:57:37Z</time></trkpt><trkpt lat="41.77020401597608" lon="9.163935081501693"><ele>729.0</ele><time>2026-05-03T09:57:38Z</time></trkpt><trkpt lat="41.77023102244945" lon="9.163697780608256"><ele>728.75</ele><time>2026-05-03T09:57:39Z</time></trkpt><trkpt lat="41.77028534910197" lon="9.163510572916751"><ele>728.5</ele><time>2026-05-03T09:57:40Z</time></trkpt><trkpt lat="41.770377020010386" lon="9.163389326546966"><ele>728.25</ele><time>2026-05-03T09:57:41Z</time></trkpt><trkpt lat="41.77049145679026" lon="9.163348911760469"><ele>728.0</ele><time>2026-05-03T09:57:42Z</time></trkpt><trkpt lat="41.77062106476224" lon="9.163304403343048"><ele>728.0</ele><time>2026-05-03T09:57:43.001Z</time></trkpt><trkpt lat="41.770773569733485" lon="9.163291385964934"><ele>728.0</ele><time>2026-05-03T09:57:44.001Z</time></trkpt><trkpt lat="41.77091494690843" lon="9.163288565122539"><ele>728.0</ele><time>2026-05-03T09:57:45.001Z</time></trkpt><trkpt lat="41.77105944122171" lon="9.163317802197662"><ele>728.0</ele><time>2026-05-03T09:57:46.001Z</time></trkpt><trkpt lat="41.771202620892815" lon="9.163390486592913"><ele>727.3333333333333</ele><time>2026-05-03T09:57:47.001Z</time></trkpt><trkpt lat="41.77134880417593" lon="9.163507000963298"><ele>726.6666666666666</ele><time>2026-05-03T09:57:48.001Z</time></trkpt><trkpt lat="41.77150124363098" lon="9.163603509420001"><ele>726.0</ele><time>2026-05-03T09:57:49.001Z</time></trkpt><trkpt lat="41.77166890490889" lon="9.163651345394324"><ele>726.0</ele><time>2026-05-03T09:57:50.001Z</time></trkpt><trkpt lat="41.77182355336977" lon="9.163662067195865"><ele>726.0</ele><time>2026-05-03T09:57:51.001Z</time></trkpt><trkpt lat="41.77194743851915" lon="9.163667438131858"><ele>726.0</ele><time>2026-05-03T09:57:52.001Z</time></trkpt><trkpt lat="41.7720498795109" lon="9.163642562126714"><ele>726.0</ele><time>2026-05-03T09:57:53.001Z</time></trkpt><trkpt lat="41.77213732498146" lon="9.163556460518041"><ele>727.25</ele><time>2026-05-03T09:57:54.001Z</time></trkpt><trkpt lat="41.772178705386686" lon="9.16341258340877"><ele>728.5</ele><time>2026-05-03T09:57:55.001Z</time></trkpt><trkpt lat="41.772200955650675" lon="9.163214195140611"><ele>729.75</ele><time>2026-05-03T09:57:56.001Z</time></trkpt><trkpt lat="41.77222721288875" lon="9.163020592862967"><ele>731.0</ele><time>2026-05-03T09:57:57.001Z</time></trkpt><trkpt lat="41.77225296742555" lon="9.162828289761169"><ele>731.3333333333333</ele><time>2026-05-03T09:57:58.001Z</time></trkpt><trkpt lat="41.77223881661441" lon="9.162628677062738"><ele>731.6666666666666</ele><time>2026-05-03T09:57:59.001Z</time></trkpt><trkpt lat="41.77218191446749" lon="9.162435229916964"><ele>732.0</ele><time>2026-05-03T09:58:00.001Z</time></trkpt><trkpt lat="41.77206478058364" lon="9.162271224469048"><ele>734.3333333333334</ele><time>2026-05-03T09:58:01.001Z</time></trkpt><trkpt lat="41.77191274590776" lon="9.16214904911372"><ele>736.6666666666667</ele><time>2026-05-03T09:58:02.001Z</time></trkpt><trkpt lat="41.77174561532971" lon="9.162065361005977"><ele>739.0</ele><time>2026-05-03T09:58:03.001Z</time></trkpt><trkpt lat="41.77156826285702" lon="9.1620195929408"><ele>741.3333333333334</ele><time>2026-05-03T09:58:04.001Z</time></trkpt><trkpt lat="41.77139125083989" lon="9.162014165721564"><ele>743.6666666666666</ele><time>2026-05-03T09:58:05.001Z</time></trkpt><trkpt lat="41.7712229979362" lon="9.161977654993429"><ele>746.0</ele><time>2026-05-03T09:58:06.001Z</time></trkpt><trkpt lat="41.77105652229081" lon="9.161921466322017"><ele>744.6666666666666</ele><time>2026-05-03T09:58:07.001Z</time></trkpt><trkpt lat="41.77090659168548" lon="9.161820642053902"><ele>743.3333333333334</ele><time>2026-05-03T09:58:08.001Z</time></trkpt><trkpt lat="41.77078123491817" lon="9.161692649223118"><ele>742.0</ele><time>2026-05-03T09:58:09.001Z</time></trkpt><trkpt lat="41.770684831696315" lon="9.16155648473245"><ele>745.0</ele><time>2026-05-03T09:58:10.001Z</time></trkpt><trkpt lat="41.77060077905891" lon="9.161405204526579"><ele>748.0</ele><time>2026-05-03T09:58:11.001Z</time></trkpt><trkpt lat="41.77052085597649" lon="9.16122702866425"><ele>751.0</ele><time>2026-05-03T09:58:12.001Z</time></trkpt><trkpt lat="41.77044354135163" lon="9.161029053231319"><ele>751.0</ele><time>2026-05-03T09:58:13.001Z</time></trkpt><trkpt lat="41.77036054760461" lon="9.16081600089293"><ele>751.0</ele><time>2026-05-03T09:58:14.001Z</time></trkpt><trkpt lat="41.77027682782271" lon="9.16060364141199"><ele>751.0</ele><time>2026-05-03T09:58:15.001Z</time></trkpt><trkpt lat="41.77019474375027" lon="9.160398942300219"><ele>750.6666666666667</ele><time>2026-05-03T09:58:16.001Z</time></trkpt><trkpt lat="41.77011695690886" lon="9.160213074853385"><ele>750.3333333333334</ele><time>2026-05-03T09:58:17.001Z</time></trkpt><trkpt lat="41.7700316626438" lon="9.160037018515736"><ele>750.0</ele><time>2026-05-03T09:58:18.001Z</time></trkpt><trkpt lat="41.769909669938066" lon="9.159891586923903"><ele>753.6666666666666</ele><time>2026-05-03T09:58:19.001Z</time></trkpt><trkpt lat="41.769768412865766" lon="9.159735342714473"><ele>757.3333333333333</ele><time>2026-05-03T09:58:20.001Z</time></trkpt><trkpt lat="41.7696156556118" lon="9.159596872951306"><ele>761.0</ele><time>2026-05-03T09:58:21.001Z</time></trkpt><trkpt lat="41.76948830206961" lon="9.159453377225061"><ele>761.0</ele><time>2026-05-03T09:58:22.001Z</time></trkpt><trkpt lat="41.769404927958945" lon="9.159297621534039"><ele>761.0</ele><time>2026-05-03T09:58:23.002Z</time></trkpt><trkpt lat="41.76937423918054" lon="9.159136997552714"><ele>761.0</ele><time>2026-05-03T09:58:24.002Z</time></trkpt><trkpt lat="41.769401332489096" lon="9.158961777359032"><ele>761.0</ele><time>2026-05-03T09:58:25.002Z</time></trkpt><trkpt lat="41.769444545276585" lon="9.158761947717553"><ele>762.3333333333333</ele><time>2026-05-03T09:58:26.002Z</time></trkpt><trkpt lat="41.76949647949662" lon="9.15856434578629"><ele>763.6666666666666</ele><time>2026-05-03T09:58:27.002Z</time></trkpt><trkpt lat="41.76949334673129" lon="9.15834112659721"><ele>765.0</ele><time>2026-05-03T09:58:28.002Z</time></trkpt><trkpt lat="41.76943585484224" lon="9.158132628969598"><ele>767.0</ele><time>2026-05-03T09:58:29.002Z</time></trkpt><trkpt lat="41.769312690575944" lon="9.157993124108547"><ele>769.0</ele><time>2026-05-03T09:58:30.002Z</time></trkpt><trkpt lat="41.769177385481406" lon="9.157890195912803"><ele>771.0</ele><time>2026-05-03T09:58:31.002Z</time></trkpt><trkpt lat="41.76901235194832" lon="9.157812286701951"><ele>771.0</ele><time>2026-05-03T09:58:32.002Z</time></trkpt><trkpt lat="41.768819257520576" lon="9.157735086783662"><ele>771.0</ele><time>2026-05-03T09:58:33.002Z</time></trkpt><trkpt lat="41.76862074840921" lon="9.15768201368581"><ele>771.0</ele><time>2026-05-03T09:58:34.002Z</time></trkpt><trkpt lat="41.76843520397116" lon="9.157647699058154"><ele>772.0</ele><time>2026-05-03T09:58:35.002Z</time></trkpt><trkpt lat="41.76825267961871" lon="9.157628666640147"><ele>773.0</ele><time>2026-05-03T09:58:36.002Z</time></trkpt><trkpt lat="41.76807365584243" lon="9.15760595693384"><ele>774.0</ele><time>2026-05-03T09:58:37.002Z</time></trkpt><trkpt lat="41.7678970130759" lon="9.157589580608724"><ele>774.0</ele><time>2026-05-03T09:58:38.002Z</time></trkpt><trkpt lat="41.7677159216832" lon="9.157503479400273"><ele>774.0</ele><time>2026-05-03T09:58:39.002Z</time></trkpt><trkpt lat="41.767537982343136" lon="9.157403639254854"><ele>774.0</ele><time>2026-05-03T09:58:40.002Z</time></trkpt><trkpt lat="41.76738241975006" lon="9.157298604089414"><ele>779.0</ele><time>2026-05-03T09:58:41.002Z</time></trkpt><trkpt lat="41.76728239805295" lon="9.157131657591327"><ele>784.0</ele><time>2026-05-03T09:58:42.002Z</time></trkpt><trkpt lat="41.767200500620504" lon="9.156968511811932"><ele>789.0</ele><time>2026-05-03T09:58:43.002Z</time></trkpt><trkpt lat="41.76713321103969" lon="9.156763950927099"><ele>789.0</ele><time>2026-05-03T09:58:44.002Z</time></trkpt><trkpt lat="41.767060508633826" lon="9.156552205330641"><ele>789.0</ele><time>2026-05-03T09:58:45.002Z</time></trkpt><trkpt lat="41.767005961322766" lon="9.156313967980683"><ele>789.0</ele><time>2026-05-03T09:58:46.002Z</time></trkpt><trkpt lat="41.7669271990658" lon="9.156063591534348"><ele>788.0</ele><time>2026-05-03T09:58:47.002Z</time></trkpt><trkpt lat="41.766865000657845" lon="9.155817448124951"><ele>787.0</ele><time>2026-05-03T09:58:47.999Z</time></trkpt><trkpt lat="41.76681224337398" lon="9.155574536613027"><ele>786.0</ele><time>2026-05-03T09:58:48.999Z</time></trkpt><trkpt lat="41.76675586772959" lon="9.155344578721476"><ele>786.0</ele><time>2026-05-03T09:58:49.999Z</time></trkpt><trkpt lat="41.76671535467905" lon="9.155124136468155"><ele>786.0</ele><time>2026-05-03T09:58:50.999Z</time></trkpt><trkpt lat="41.76668303253178" lon="9.154924185681319"><ele>786.0</ele><time>2026-05-03T09:58:51.999Z</time></trkpt><trkpt lat="41.766625999924834" lon="9.154724353380317"><ele>788.3333333333333</ele><time>2026-05-03T09:58:52.999Z</time></trkpt><trkpt lat="41.766532608595796" lon="9.154540005605085"><ele>790.6666666666666</ele><time>2026-05-03T09:58:53.999Z</time></trkpt><trkpt lat="41.766375732469506" lon="9.154369772079205"><ele>793.0</ele><time>2026-05-03T09:58:54.999Z</time></trkpt><trkpt lat="41.76619067316466" lon="9.154250981674155"><ele>794.0</ele><time>2026-05-03T09:58:55.999Z</time></trkpt><trkpt lat="41.76601411503348" lon="9.154150506490787"><ele>795.0</ele><time>2026-05-03T09:58:56.999Z</time></trkpt><trkpt lat="41.76585124151335" lon="9.154041921656578"><ele>796.0</ele><time>2026-05-03T09:58:57.999Z</time></trkpt><trkpt lat="41.765688862586515" lon="9.153923341342441"><ele>800.0</ele><time>2026-05-03T09:58:58.999Z</time></trkpt><trkpt lat="41.765537207450656" lon="9.15378710096159"><ele>804.0</ele><time>2026-05-03T09:58:59.999Z</time></trkpt><trkpt lat="41.76539093021025" lon="9.153672659610878"><ele>808.0</ele><time>2026-05-03T09:59:00.999Z</time></trkpt><trkpt lat="41.76527454649894" lon="9.153548940980466"><ele>808.0</ele><time>2026-05-03T09:59:01.999Z</time></trkpt><trkpt lat="41.76519742094588" lon="9.153403328122108"><ele>808.0</ele><time>2026-05-03T09:59:02.999Z</time></trkpt><trkpt lat="41.765136060744304" lon="9.153227847374357"><ele>808.0</ele><time>2026-05-03T09:59:03.999Z</time></trkpt><trkpt lat="41.7650761648561" lon="9.153021507285324"><ele>808.0</ele><time>2026-05-03T09:59:04.999Z</time></trkpt><trkpt lat="41.7650125443107" lon="9.152802579995178"><ele>808.6666666666666</ele><time>2026-05-03T09:59:05.999Z</time></trkpt><trkpt lat="41.76494866205928" lon="9.152581967628862"><ele>809.3333333333333</ele><time>2026-05-03T09:59:06.999Z</time></trkpt><trkpt lat="41.764884730665386" lon="9.152357430351111"><ele>810.0</ele><time>2026-05-03T09:59:07.999Z</time></trkpt><trkpt lat="41.76483178516945" lon="9.152143808064443"><ele>810.0</ele><time>2026-05-03T09:59:09Z</time></trkpt><trkpt lat="41.764788459765256" lon="9.151916457249664"><ele>810.0</ele><time>2026-05-03T09:59:10Z</time></trkpt><trkpt lat="41.76475491022008" lon="9.151693827648842"><ele>810.0</ele><time>2026-05-03T09:59:11Z</time></trkpt><trkpt lat="41.764707772809764" lon="9.151451896208034"><ele>811.0</ele><time>2026-05-03T09:59:12Z</time></trkpt><trkpt lat="41.76467702746443" lon="9.151200076066415"><ele>812.0</ele><time>2026-05-03T09:59:13Z</time></trkpt><trkpt lat="41.76465417525848" lon="9.150945436488206"><ele>813.0</ele><time>2026-05-03T09:59:14Z</time></trkpt><trkpt lat="41.764628911011926" lon="9.150700158412958"><ele>813.0</ele><time>2026-05-03T09:59:15Z</time></trkpt><trkpt lat="41.76460337228568" lon="9.150460087593052"><ele>813.0</ele><time>2026-05-03T09:59:16Z</time></trkpt><trkpt lat="41.76456618529522" lon="9.150222569470378"><ele>813.0</ele><time>2026-05-03T09:59:17Z</time></trkpt><trkpt lat="41.76451129337546" lon="9.14997524414355"><ele>813.3333333333333</ele><time>2026-05-03T09:59:18Z</time></trkpt><trkpt lat="41.76445702562437" lon="9.14973274999914"><ele>813.6666666666666</ele><time>2026-05-03T09:59:19Z</time></trkpt><trkpt lat="41.764438413645635" lon="9.149483459367282"><ele>814.0</ele><time>2026-05-03T09:59:20Z</time></trkpt><trkpt lat="41.764450756644756" lon="9.149265288981171"><ele>814.0</ele><time>2026-05-03T09:59:21Z</time></trkpt><trkpt lat="41.764507904519725" lon="9.149053155664365"><ele>814.0</ele><time>2026-05-03T09:59:22Z</time></trkpt><trkpt lat="41.764572802400366" lon="9.148816324302057"><ele>814.0</ele><time>2026-05-03T09:59:23Z</time></trkpt><trkpt lat="41.76464732773171" lon="9.148596400597453"><ele>813.6666666666666</ele><time>2026-05-03T09:59:24Z</time></trkpt><trkpt lat="41.764702479404654" lon="9.148344779312236"><ele>813.3333333333333</ele><time>2026-05-03T09:59:25Z</time></trkpt><trkpt lat="41.76475354821985" lon="9.148084018927932"><ele>813.0</ele><time>2026-05-03T09:59:26Z</time></trkpt><trkpt lat="41.76479816483938" lon="9.147825081462766"><ele>813.0</ele><time>2026-05-03T09:59:27Z</time></trkpt><trkpt lat="41.76489372104049" lon="9.147617728261215"><ele>813.0</ele><time>2026-05-03T09:59:28Z</time></trkpt><trkpt lat="41.76500712151528" lon="9.1474019611677"><ele>813.0</ele><time>2026-05-03T09:59:29Z</time></trkpt><trkpt lat="41.76511193811382" lon="9.147176104950173"><ele>813.0</ele><time>2026-05-03T09:59:30Z</time></trkpt><trkpt lat="41.765225176063666" lon="9.146962220927831"><ele>813.0</ele><time>2026-05-03T09:59:31Z</time></trkpt><trkpt lat="41.765314571370645" lon="9.146768450297357"><ele>813.0</ele><time>2026-05-03T09:59:32Z</time></trkpt><trkpt lat="41.76537525556186" lon="9.14655396919765"><ele>812.0</ele><time>2026-05-03T09:59:33Z</time></trkpt><trkpt lat="41.765389456055885" lon="9.14630683226825"><ele>811.0</ele><time>2026-05-03T09:59:34Z</time></trkpt><trkpt lat="41.76538401829412" lon="9.146050781010763"><ele>810.0</ele><time>2026-05-03T09:59:35Z</time></trkpt><trkpt lat="41.76536192056592" lon="9.14580410976381"><ele>810.6666666666667</ele><time>2026-05-03T09:59:36.001Z</time></trkpt><trkpt lat="41.765369492831056" lon="9.145549020085843"><ele>811.3333333333334</ele><time>2026-05-03T09:59:37.001Z</time></trkpt><trkpt lat="41.76536691300594" lon="9.145310238736883"><ele>812.0</ele><time>2026-05-03T09:59:38.001Z</time></trkpt><trkpt lat="41.76536443630732" lon="9.145081002505455"><ele>813.0</ele><time>2026-05-03T09:59:39.001Z</time></trkpt><trkpt lat="41.765366355740404" lon="9.144877779221261"><ele>814.0</ele><time>2026-05-03T09:59:40.001Z</time></trkpt><trkpt lat="41.765373808504044" lon="9.144699209009566"><ele>815.0</ele><time>2026-05-03T09:59:41.001Z</time></trkpt><trkpt lat="41.7654137588422" lon="9.144537630817883"><ele>816.0</ele><time>2026-05-03T09:59:42.001Z</time></trkpt><trkpt lat="41.765475347441274" lon="9.144363936872184"><ele>816.0</ele><time>2026-05-03T09:59:43.001Z</time></trkpt><trkpt lat="41.76553402139987" lon="9.14417411607654"><ele>816.0</ele><time>2026-05-03T09:59:44.001Z</time></trkpt><trkpt lat="41.7655962018699" lon="9.14401729015557"><ele>816.0</ele><time>2026-05-03T09:59:45.001Z</time></trkpt><trkpt lat="41.76563507835287" lon="9.143877982438942"><ele>816.0</ele><time>2026-05-03T09:59:46.001Z</time></trkpt><trkpt lat="41.765669555364624" lon="9.14374907909862"><ele>816.0</ele><time>2026-05-03T09:59:47.001Z</time></trkpt><trkpt lat="41.765716246018286" lon="9.143643718081183"><ele>816.0</ele><time>2026-05-03T09:59:48.001Z</time></trkpt><trkpt lat="41.76572976347188" lon="9.143525898291461"><ele>816.0</ele><time>2026-05-03T09:59:49.001Z</time></trkpt><trkpt lat="41.76576282549579" lon="9.143427031342808"><ele>816.0</ele><time>2026-05-03T09:59:50.001Z</time></trkpt><trkpt lat="41.76579204400194" lon="9.143324403480973"><ele>816.0</ele><time>2026-05-03T09:59:51.001Z</time></trkpt><trkpt lat="41.7658173533255" lon="9.143228790835716"><ele>816.0</ele><time>2026-05-03T09:59:52.001Z</time></trkpt><trkpt lat="41.76584123538209" lon="9.143125422434357"><ele>815.5999999999999</ele><time>2026-05-03T09:59:53.001Z</time></trkpt><trkpt lat="41.76587353134715" lon="9.14301185532488"><ele>815.2</ele><time>2026-05-03T09:59:54.001Z</time></trkpt><trkpt lat="41.765914755659836" lon="9.142882129965924"><ele>814.8</ele><time>2026-05-03T09:59:55.001Z</time></trkpt><trkpt lat="41.765957947485454" lon="9.142744782470016"><ele>814.4000000000001</ele><time>2026-05-03T09:59:56.001Z</time></trkpt><trkpt lat="41.766003721580994" lon="9.142619810263557"><ele>814.0</ele><time>2026-05-03T09:59:57.001Z</time></trkpt><trkpt lat="41.76604499772677" lon="9.142518919356977"><ele>814.4999999999999</ele><time>2026-05-03T09:59:58.001Z</time></trkpt><trkpt lat="41.76607028857788" lon="9.142419488767223"><ele>815.0</ele><time>2026-05-03T09:59:59.001Z</time></trkpt><trkpt lat="41.766101426790094" lon="9.142309022109341"><ele>815.5</ele><time>2026-05-03T10:00:00.001Z</time></trkpt><trkpt lat="41.766134835376846" lon="9.142202148849721"><ele>816.0</ele><time>2026-05-03T10:00:01.001Z</time></trkpt><trkpt lat="41.76616537922428" lon="9.142102019075303"><ele>816.4999999999999</ele><time>2026-05-03T10:00:02.001Z</time></trkpt><trkpt lat="41.76619247731364" lon="9.142018736749435"><ele>817.0</ele><time>2026-05-03T10:00:03.001Z</time></trkpt><trkpt lat="41.76623294445823" lon="9.141853662216459"><ele>816.9999999999999</ele><time>2026-05-03T10:00:05.001Z</time></trkpt><trkpt lat="41.766255872028665" lon="9.141753386730151"><ele>817.0</ele><time>2026-05-03T10:00:06.001Z</time></trkpt><trkpt lat="41.7662931633985" lon="9.141657254644816"><ele>817.0</ele><time>2026-05-03T10:00:07.001Z</time></trkpt><trkpt lat="41.76629669125531" lon="9.141545969194494"><ele>817.0</ele><time>2026-05-03T10:00:08.001Z</time></trkpt><trkpt lat="41.76631769521927" lon="9.141449374124004"><ele>816.9999999999999</ele><time>2026-05-03T10:00:09.001Z</time></trkpt><trkpt lat="41.76633712125753" lon="9.14136848239021"><ele>817.0</ele><time>2026-05-03T10:00:10.002Z</time></trkpt><trkpt lat="41.766371201234" lon="9.14122246601271"><ele>817.2</ele><time>2026-05-03T10:00:12.002Z</time></trkpt><trkpt lat="41.76642058730991" lon="9.141076043969587"><ele>817.4000000000001</ele><time>2026-05-03T10:00:14.002Z</time></trkpt><trkpt lat="41.76644349248297" lon="9.14092470013924"><ele>817.5999999999999</ele><time>2026-05-03T10:00:16.002Z</time></trkpt><trkpt lat="41.766444242026495" lon="9.140824858836318"><ele>817.8</ele><time>2026-05-03T10:00:17.002Z</time></trkpt><trkpt lat="41.766425803525124" lon="9.140721186292824"><ele>818.0</ele><time>2026-05-03T10:00:18.002Z</time></trkpt><trkpt lat="41.76639790628691" lon="9.140634791516513"><ele>818.0000000000001</ele><time>2026-05-03T10:00:19.002Z</time></trkpt><trkpt lat="41.76637108950395" lon="9.140557143816872"><ele>818.0</ele><time>2026-05-03T10:00:20.002Z</time></trkpt><trkpt lat="41.766312986527126" lon="9.140410640359406"><ele>818.0</ele><time>2026-05-03T10:00:22.002Z</time></trkpt><trkpt lat="41.76627849281712" lon="9.140323736142767"><ele>818.0</ele><time>2026-05-03T10:00:23.002Z</time></trkpt><trkpt lat="41.76621782580804" lon="9.140237191657565"><ele>818.0000000000001</ele><time>2026-05-03T10:00:24.002Z</time></trkpt><trkpt lat="41.766174269713886" lon="9.14013718008504"><ele>818.0</ele><time>2026-05-03T10:00:25.002Z</time></trkpt><trkpt lat="41.7661348599664" lon="9.140044909229122"><ele>818.0</ele><time>2026-05-03T10:00:26.002Z</time></trkpt><trkpt lat="41.76609383831693" lon="9.139962117803446"><ele>818.0</ele><time>2026-05-03T10:00:27.002Z</time></trkpt><trkpt lat="41.76606894596537" lon="9.139874282344623"><ele>818.0</ele><time>2026-05-03T10:00:28.002Z</time></trkpt><trkpt lat="41.76604339395179" lon="9.139793926388988"><ele>818.0</ele><time>2026-05-03T10:00:29.002Z</time></trkpt><trkpt lat="41.76601309700742" lon="9.139710427050789"><ele>818.0</ele><time>2026-05-03T10:00:30.002Z</time></trkpt><trkpt lat="41.76600380929821" lon="9.139612683825876"><ele>818.0</ele><time>2026-05-03T10:00:31.002Z</time></trkpt><trkpt lat="41.76599338171027" lon="9.13950752634899"><ele>818.0</ele><time>2026-05-03T10:00:32.002Z</time></trkpt><trkpt lat="41.765983422727125" lon="9.139399504041995"><ele>815.3333333333334</ele><time>2026-05-03T10:00:33.002Z</time></trkpt><trkpt lat="41.765969861330774" lon="9.139289598699433"><ele>812.6666666666667</ele><time>2026-05-03T10:00:34.002Z</time></trkpt><trkpt lat="41.76595945743188" lon="9.139173846700274"><ele>810.0</ele><time>2026-05-03T10:00:35.002Z</time></trkpt><trkpt lat="41.7659605384747" lon="9.139062692689265"><ele>807.3333333333333</ele><time>2026-05-03T10:00:36.002Z</time></trkpt><trkpt lat="41.76597090081692" lon="9.13895912465017"><ele>804.6666666666666</ele><time>2026-05-03T10:00:37.002Z</time></trkpt><trkpt lat="41.76598262482152" lon="9.138862181898425"><ele>802.0</ele><time>2026-05-03T10:00:38.002Z</time></trkpt><trkpt lat="41.765993194373245" lon="9.138766125263542"><ele>801.9999999999999</ele><time>2026-05-03T10:00:39.002Z</time></trkpt><trkpt lat="41.7659977204243" lon="9.138673288571544"><ele>802.0</ele><time>2026-05-03T10:00:40.002Z</time></trkpt><trkpt lat="41.76600317332109" lon="9.138574755289985"><ele>802.0</ele><time>2026-05-03T10:00:41.002Z</time></trkpt><trkpt lat="41.76597587943969" lon="9.138473674869305"><ele>802.0</ele><time>2026-05-03T10:00:42.002Z</time></trkpt><trkpt lat="41.76592747964675" lon="9.138373919566208"><ele>801.9999999999999</ele><time>2026-05-03T10:00:43.002Z</time></trkpt><trkpt lat="41.76587269931983" lon="9.138290495235836"><ele>802.0</ele><time>2026-05-03T10:00:44.002Z</time></trkpt><trkpt lat="41.76583371199691" lon="9.13820587720444"><ele>801.9999999999999</ele><time>2026-05-03T10:00:45.003Z</time></trkpt><trkpt lat="41.76579674691742" lon="9.13812810999363"><ele>802.0</ele><time>2026-05-03T10:00:46.003Z</time></trkpt><trkpt lat="41.76576071546552" lon="9.138057120444183"><ele>802.0</ele><time>2026-05-03T10:00:47.003Z</time></trkpt><trkpt lat="41.76572545260127" lon="9.13797479258505"><ele>802.0</ele><time>2026-05-03T10:00:48.003Z</time></trkpt><trkpt lat="41.76567749666341" lon="9.13788144946409"><ele>801.9999999999999</ele><time>2026-05-03T10:00:49.003Z</time></trkpt><trkpt lat="41.76563014715611" lon="9.137776954749425"><ele>802.0</ele><time>2026-05-03T10:00:50.003Z</time></trkpt><trkpt lat="41.76559219059688" lon="9.13767685056523"><ele>801.9999999999999</ele><time>2026-05-03T10:00:51.003Z</time></trkpt><trkpt lat="41.765559111811356" lon="9.137579237657947"><ele>802.0</ele><time>2026-05-03T10:00:52.003Z</time></trkpt><trkpt lat="41.765524442120864" lon="9.13748544788845"><ele>802.0</ele><time>2026-05-03T10:00:53.003Z</time></trkpt><trkpt lat="41.765487931982896" lon="9.137395918724405"><ele>802.0</ele><time>2026-05-03T10:00:53.999Z</time></trkpt><trkpt lat="41.76545030769958" lon="9.137309269890247"><ele>801.9999999999999</ele><time>2026-05-03T10:00:54.999Z</time></trkpt><trkpt lat="41.765405265381915" lon="9.13723223816657"><ele>802.0</ele><time>2026-05-03T10:00:55.999Z</time></trkpt><trkpt lat="41.765357713611444" lon="9.137157994206943"><ele>802.5714285714286</ele><time>2026-05-03T10:00:56.999Z</time></trkpt><trkpt lat="41.76530376402216" lon="9.137092045640284"><ele>803.1428571428571</ele><time>2026-05-03T10:00:57.999Z</time></trkpt><trkpt lat="41.76525019392434" lon="9.137025329997359"><ele>803.7142857142858</ele><time>2026-05-03T10:00:58.999Z</time></trkpt><trkpt lat="41.76519480987438" lon="9.136961255264545"><ele>804.2857142857142</ele><time>2026-05-03T10:00:59.999Z</time></trkpt><trkpt lat="41.76513882387413" lon="9.136901230312834"><ele>804.8571428571428</ele><time>2026-05-03T10:01:00.999Z</time></trkpt><trkpt lat="41.76508154633726" lon="9.136840515053931"><ele>805.4285714285714</ele><time>2026-05-03T10:01:01.999Z</time></trkpt><trkpt lat="41.76502391256922" lon="9.136776319571506"><ele>806.0</ele><time>2026-05-03T10:01:02.999Z</time></trkpt><trkpt lat="41.764972617087814" lon="9.136696031858396"><ele>804.6666666666667</ele><time>2026-05-03T10:01:03.999Z</time></trkpt><trkpt lat="41.76492958406245" lon="9.13660529906481"><ele>803.3333333333334</ele><time>2026-05-03T10:01:04.999Z</time></trkpt><trkpt lat="41.764898240037766" lon="9.136513867993708"><ele>802.0</ele><time>2026-05-03T10:01:05.999Z</time></trkpt><trkpt lat="41.764873487955185" lon="9.136424345469154"><ele>800.6666666666667</ele><time>2026-05-03T10:01:06.999Z</time></trkpt><trkpt lat="41.764854053870785" lon="9.136333262942863"><ele>799.3333333333334</ele><time>2026-05-03T10:01:07.999Z</time></trkpt><trkpt lat="41.764796069838006" lon="9.136264805862417"><ele>798.0</ele><time>2026-05-03T10:01:08.999Z</time></trkpt><trkpt lat="41.76475036072934" lon="9.136182004791463"><ele>798.0</ele><time>2026-05-03T10:01:09.999Z</time></trkpt><trkpt lat="41.76470484721725" lon="9.136090388712972"><ele>798.0</ele><time>2026-05-03T10:01:11Z</time></trkpt><trkpt lat="41.76465320190641" lon="9.13600271870167"><ele>798.0</ele><time>2026-05-03T10:01:12Z</time></trkpt><trkpt lat="41.76460686082504" lon="9.13592118061975"><ele>798.0</ele><time>2026-05-03T10:01:13Z</time></trkpt><trkpt lat="41.76456195878981" lon="9.135841225258226"><ele>798.0</ele><time>2026-05-03T10:01:14Z</time></trkpt><trkpt lat="41.764517175783126" lon="9.135758024186647"><ele>798.0</ele><time>2026-05-03T10:01:15Z</time></trkpt><trkpt lat="41.764470091594" lon="9.135677435432836"><ele>798.8</ele><time>2026-05-03T10:01:16Z</time></trkpt><trkpt lat="41.76442442366263" lon="9.135587733208775"><ele>799.5999999999999</ele><time>2026-05-03T10:01:17Z</time></trkpt><trkpt lat="41.76437689114965" lon="9.135498886076125"><ele>800.4000000000001</ele><time>2026-05-03T10:01:18Z</time></trkpt><trkpt lat="41.76432330406054" lon="9.1353959252792"><ele>801.2</ele><time>2026-05-03T10:01:19Z</time></trkpt><trkpt lat="41.76426135357544" lon="9.135294112565727"><ele>802.0</ele><time>2026-05-03T10:01:20Z</time></trkpt><trkpt lat="41.76420188294403" lon="9.135185857404963"><ele>801.75</ele><time>2026-05-03T10:01:21Z</time></trkpt><trkpt lat="41.76413561866142" lon="9.135078174267186"><ele>801.5</ele><time>2026-05-03T10:01:22Z</time></trkpt><trkpt lat="41.764064713383824" lon="9.134964402907672"><ele>801.25</ele><time>2026-05-03T10:01:23Z</time></trkpt><trkpt lat="41.76398607089687" lon="9.13484765122747"><ele>801.0</ele><time>2026-05-03T10:01:24Z</time></trkpt><trkpt lat="41.76389607081399" lon="9.13473151907285"><ele>801.0</ele><time>2026-05-03T10:01:25Z</time></trkpt><trkpt lat="41.76379859368827" lon="9.134621482807622"><ele>801.0</ele><time>2026-05-03T10:01:26Z</time></trkpt><trkpt lat="41.76369841450798" lon="9.134524641391048"><ele>801.0</ele><time>2026-05-03T10:01:27Z</time></trkpt><trkpt lat="41.76360415488227" lon="9.134433219160298"><ele>801.0</ele><time>2026-05-03T10:01:28Z</time></trkpt><trkpt lat="41.76351866656337" lon="9.134339020611417"><ele>799.5</ele><time>2026-05-03T10:01:29Z</time></trkpt><trkpt lat="41.76343686345349" lon="9.134246385077692"><ele>798.0</ele><time>2026-05-03T10:01:30Z</time></trkpt><trkpt lat="41.763347897058964" lon="9.134158606557799"><ele>796.5</ele><time>2026-05-03T10:01:31Z</time></trkpt><trkpt lat="41.76324702256407" lon="9.134077887284105"><ele>795.0</ele><time>2026-05-03T10:01:32Z</time></trkpt><trkpt lat="41.76313720724868" lon="9.134008447082355"><ele>795.0</ele><time>2026-05-03T10:01:33Z</time></trkpt><trkpt lat="41.76302213832621" lon="9.133936584035219"><ele>795.0</ele><time>2026-05-03T10:01:34Z</time></trkpt><trkpt lat="41.76290692566842" lon="9.133848306347229"><ele>795.0</ele><time>2026-05-03T10:01:35Z</time></trkpt><trkpt lat="41.76279214931511" lon="9.133737138707172"><ele>795.0</ele><time>2026-05-03T10:01:36Z</time></trkpt><trkpt lat="41.76267675970873" lon="9.133647431515643"><ele>792.25</ele><time>2026-05-03T10:01:37.001Z</time></trkpt><trkpt lat="41.76255873468947" lon="9.133559668814542"><ele>789.5</ele><time>2026-05-03T10:01:38.001Z</time></trkpt><trkpt lat="41.76243636563393" lon="9.133494379952419"><ele>786.75</ele><time>2026-05-03T10:01:39.001Z</time></trkpt><trkpt lat="41.76231613583938" lon="9.133454497576892"><ele>784.0</ele><time>2026-05-03T10:01:40.001Z</time></trkpt><trkpt lat="41.76219114827547" lon="9.133419813709626"><ele>784.0</ele><time>2026-05-03T10:01:41.001Z</time></trkpt><trkpt lat="41.76205946006542" lon="9.133389070229699"><ele>784.0</ele><time>2026-05-03T10:01:42.001Z</time></trkpt><trkpt lat="41.76192480791602" lon="9.133337279368442"><ele>784.0</ele><time>2026-05-03T10:01:43.001Z</time></trkpt><trkpt lat="41.76180351200542" lon="9.133251785272174"><ele>784.0</ele><time>2026-05-03T10:01:44.001Z</time></trkpt><trkpt lat="41.76171255988339" lon="9.133104389666066"><ele>782.25</ele><time>2026-05-03T10:01:45.001Z</time></trkpt><trkpt lat="41.7616133025194" lon="9.132965802751421"><ele>780.5</ele><time>2026-05-03T10:01:46.001Z</time></trkpt><trkpt lat="41.76151148764361" lon="9.132837761625176"><ele>778.75</ele><time>2026-05-03T10:01:47.001Z</time></trkpt><trkpt lat="41.761422869098865" lon="9.132700453452165"><ele>777.0</ele><time>2026-05-03T10:01:48.001Z</time></trkpt><trkpt lat="41.761341387417346" lon="9.132570970257943"><ele>777.0</ele><time>2026-05-03T10:01:49.001Z</time></trkpt><trkpt lat="41.76128979908104" lon="9.132425215581305"><ele>777.0</ele><time>2026-05-03T10:01:50.001Z</time></trkpt><trkpt lat="41.76132199297967" lon="9.132255714427867"><ele>777.0</ele><time>2026-05-03T10:01:51.001Z</time></trkpt><trkpt lat="41.76132132098839" lon="9.13208937448522"><ele>777.0</ele><time>2026-05-03T10:01:52.001Z</time></trkpt><trkpt lat="41.76131724450685" lon="9.131938594669938"><ele>776.25</ele><time>2026-05-03T10:01:53.001Z</time></trkpt><trkpt lat="41.76126581447662" lon="9.131802798999871"><ele>775.5</ele><time>2026-05-03T10:01:54.001Z</time></trkpt><trkpt lat="41.76115210262883" lon="9.131704611247734"><ele>774.75</ele><time>2026-05-03T10:01:55.001Z</time></trkpt><trkpt lat="41.761012636685635" lon="9.131624728940265"><ele>774.0</ele><time>2026-05-03T10:01:56.001Z</time></trkpt><trkpt lat="41.76088752144244" lon="9.131526805200918"><ele>767.8000000000001</ele><time>2026-05-03T10:01:57.001Z</time></trkpt><trkpt lat="41.760798482398826" lon="9.131395400366916"><ele>761.6</ele><time>2026-05-03T10:01:58.001Z</time></trkpt><trkpt lat="41.760730697567624" lon="9.131286985360052"><ele>755.4</ele><time>2026-05-03T10:01:59.001Z</time></trkpt><trkpt lat="41.760683489775325" lon="9.131185719364906"><ele>749.2</ele><time>2026-05-03T10:02:00.001Z</time></trkpt><trkpt lat="41.7606929994733" lon="9.131060106300218"><ele>743.0</ele><time>2026-05-03T10:02:01.001Z</time></trkpt><trkpt lat="41.76077019290954" lon="9.13095344693205"><ele>743.0</ele><time>2026-05-03T10:02:02.001Z</time></trkpt><trkpt lat="41.7608815315968" lon="9.13090982181054"><ele>743.0</ele><time>2026-05-03T10:02:03.001Z</time></trkpt><trkpt lat="41.76100987678454" lon="9.13090317664432"><ele>743.0</ele><time>2026-05-03T10:02:04.001Z</time></trkpt><trkpt lat="41.761154392409814" lon="9.130921999207445"><ele>743.0</ele><time>2026-05-03T10:02:05.001Z</time></trkpt><trkpt lat="41.76129943316016" lon="9.130913682873"><ele>746.3333333333333</ele><time>2026-05-03T10:02:06.001Z</time></trkpt><trkpt lat="41.76144056928119" lon="9.1308497463574"><ele>749.6666666666666</ele><time>2026-05-03T10:02:07.001Z</time></trkpt><trkpt lat="41.76156468012386" lon="9.13073445772312"><ele>753.0</ele><time>2026-05-03T10:02:08.001Z</time></trkpt><trkpt lat="41.761660116321295" lon="9.130576406694319"><ele>749.25</ele><time>2026-05-03T10:02:09.002Z</time></trkpt><trkpt lat="41.761743397471236" lon="9.130442811171987"><ele>745.5</ele><time>2026-05-03T10:02:10.002Z</time></trkpt><trkpt lat="41.76185755206582" lon="9.130378058438087"><ele>741.75</ele><time>2026-05-03T10:02:11.002Z</time></trkpt><trkpt lat="41.761987423748494" lon="9.13043395853858"><ele>738.0</ele><time>2026-05-03T10:02:12.002Z</time></trkpt><trkpt lat="41.76210846406114" lon="9.130511694951547"><ele>738.0</ele><time>2026-05-03T10:02:13.002Z</time></trkpt><trkpt lat="41.76222413523538" lon="9.13054644906479"><ele>738.0</ele><time>2026-05-03T10:02:14.002Z</time></trkpt><trkpt lat="41.76233768487885" lon="9.130541685900948"><ele>738.0</ele><time>2026-05-03T10:02:15.002Z</time></trkpt><trkpt lat="41.76244383508711" lon="9.13046992397613"><ele>738.0</ele><time>2026-05-03T10:02:16.002Z</time></trkpt><trkpt lat="41.76253046205634" lon="9.130314688280073"><ele>738.0</ele><time>2026-05-03T10:02:17.002Z</time></trkpt><trkpt lat="41.762611942925126" lon="9.13012981207566"><ele>738.0</ele><time>2026-05-03T10:02:18.002Z</time></trkpt><trkpt lat="41.76269684181058" lon="9.129949457584237"><ele>738.0</ele><time>2026-05-03T10:02:19.002Z</time></trkpt><trkpt lat="41.762780300885424" lon="9.129786785680848"><ele>740.6666666666666</ele><time>2026-05-03T10:02:20.002Z</time></trkpt><trkpt lat="41.762867338722195" lon="9.12961886583589"><ele>743.3333333333333</ele><time>2026-05-03T10:02:21.002Z</time></trkpt><trkpt lat="41.762950557429264" lon="9.129437405687614"><ele>746.0</ele><time>2026-05-03T10:02:22.002Z</time></trkpt><trkpt lat="41.763030041475126" lon="9.129239627800402"><ele>745.25</ele><time>2026-05-03T10:02:23.002Z</time></trkpt><trkpt lat="41.763100347205864" lon="9.129056025398313"><ele>744.5</ele><time>2026-05-03T10:02:24.002Z</time></trkpt><trkpt lat="41.76316667176091" lon="9.12889112085204"><ele>743.75</ele><time>2026-05-03T10:02:25.002Z</time></trkpt><trkpt lat="41.76322264577583" lon="9.128743298101089"><ele>743.0</ele><time>2026-05-03T10:02:26.002Z</time></trkpt><trkpt lat="41.76325814848718" lon="9.128592445471833"><ele>743.0</ele><time>2026-05-03T10:02:27.002Z</time></trkpt><trkpt lat="41.76325098780788" lon="9.128444341941249"><ele>743.0</ele><time>2026-05-03T10:02:28.002Z</time></trkpt><trkpt lat="41.76319562812386" lon="9.128306432862246"><ele>743.0</ele><time>2026-05-03T10:02:29.002Z</time></trkpt><trkpt lat="41.76312919069355" lon="9.128205204033081"><ele>743.0</ele><time>2026-05-03T10:02:30.002Z</time></trkpt><trkpt lat="41.763058150645584" lon="9.1281425291347"><ele>743.0</ele><time>2026-05-03T10:02:31.002Z</time></trkpt><trkpt lat="41.762976111619764" lon="9.128132052023568"><ele>743.0</ele><time>2026-05-03T10:02:32.002Z</time></trkpt><trkpt lat="41.76288853935472" lon="9.128236532616787"><ele>743.0</ele><time>2026-05-03T10:02:33.002Z</time></trkpt><trkpt lat="41.76280866477726" lon="9.128366443274853"><ele>743.0</ele><time>2026-05-03T10:02:34.002Z</time></trkpt><trkpt lat="41.76273304238254" lon="9.128514471679694"><ele>743.0</ele><time>2026-05-03T10:02:35.002Z</time></trkpt><trkpt lat="41.76269465705307" lon="9.12868055875268"><ele>740.75</ele><time>2026-05-03T10:02:36.002Z</time></trkpt><trkpt lat="41.762667559638395" lon="9.128840208054951"><ele>738.5</ele><time>2026-05-03T10:02:37.002Z</time></trkpt><trkpt lat="41.76259260570916" lon="9.128958352441018"><ele>736.25</ele><time>2026-05-03T10:02:38.002Z</time></trkpt><trkpt lat="41.76249345935717" lon="9.129050983859884"><ele>734.0</ele><time>2026-05-03T10:02:39.002Z</time></trkpt><trkpt lat="41.76238174446169" lon="9.129105133818744"><ele>734.0</ele><time>2026-05-03T10:02:40.002Z</time></trkpt><trkpt lat="41.76227734538259" lon="9.129069912724978"><ele>734.0</ele><time>2026-05-03T10:02:41.002Z</time></trkpt><trkpt lat="41.762182854200645" lon="9.128988891819912"><ele>734.0</ele><time>2026-05-03T10:02:42.003Z</time></trkpt><trkpt lat="41.76207411450173" lon="9.128893723769105"><ele>734.0</ele><time>2026-05-03T10:02:43.003Z</time></trkpt><trkpt lat="41.761954752621236" lon="9.128789384980966"><ele>744.0</ele><time>2026-05-03T10:02:44.003Z</time></trkpt><trkpt lat="41.761813148882176" lon="9.128721956755259"><ele>754.0</ele><time>2026-05-03T10:02:45.003Z</time></trkpt><trkpt lat="41.761647756143475" lon="9.128698543023441"><ele>764.0</ele><time>2026-05-03T10:02:46.003Z</time></trkpt><trkpt lat="41.76148896768985" lon="9.12876968394658"><ele>764.0</ele><time>2026-05-03T10:02:47.003Z</time></trkpt><trkpt lat="41.76131600808793" lon="9.128854021972337"><ele>764.0</ele><time>2026-05-03T10:02:48.003Z</time></trkpt><trkpt lat="41.76114619464083" lon="9.128870823423705"><ele>764.0</ele><time>2026-05-03T10:02:49.003Z</time></trkpt><trkpt lat="41.76098470972916" lon="9.128852643081965"><ele>762.3333333333333</ele><time>2026-05-03T10:02:50.003Z</time></trkpt><trkpt lat="41.76082585809048" lon="9.128777113356904"><ele>760.6666666666666</ele><time>2026-05-03T10:02:51.003Z</time></trkpt><trkpt lat="41.760683841269056" lon="9.128640990993922"><ele>759.0</ele><time>2026-05-03T10:02:52.003Z</time></trkpt><trkpt lat="41.76054027372521" lon="9.128487266995137"><ele>759.0</ele><time>2026-05-03T10:02:53.003Z</time></trkpt><trkpt lat="41.76037850135896" lon="9.12835106890529"><ele>759.0</ele><time>2026-05-03T10:02:54.003Z</time></trkpt><trkpt lat="41.76019667425871" lon="9.128236475065934"><ele>759.0</ele><time>2026-05-03T10:02:55.003Z</time></trkpt><trkpt lat="41.75997845012137" lon="9.128172714529153"><ele>764.5</ele><time>2026-05-03T10:02:56.003Z</time></trkpt><trkpt lat="41.759749749151126" lon="9.128088502813899"><ele>770.0</ele><time>2026-05-03T10:02:57.003Z</time></trkpt><trkpt lat="41.75953624725488" lon="9.127980538777791"><ele>764.6666666666667</ele><time>2026-05-03T10:02:58.003Z</time></trkpt><trkpt lat="41.75932742583671" lon="9.127862764925267"><ele>759.3333333333334</ele><time>2026-05-03T10:02:59.003Z</time></trkpt><trkpt lat="41.75913564138908" lon="9.127747372454795"><ele>754.0</ele><time>2026-05-03T10:02:59.999Z</time></trkpt><trkpt lat="41.758940113780454" lon="9.127627110207971"><ele>754.0</ele><time>2026-05-03T10:03:00.999Z</time></trkpt><trkpt lat="41.75875197750476" lon="9.127489190667921"><ele>754.0</ele><time>2026-05-03T10:03:01.999Z</time></trkpt><trkpt lat="41.75856467480749" lon="9.127341442209826"><ele>754.0</ele><time>2026-05-03T10:03:02.999Z</time></trkpt><trkpt lat="41.75837806329424" lon="9.12719794500024"><ele>755.6666666666667</ele><time>2026-05-03T10:03:03.999Z</time></trkpt><trkpt lat="41.75819282360424" lon="9.127082637801006"><ele>757.3333333333334</ele><time>2026-05-03T10:03:04.999Z</time></trkpt><trkpt lat="41.75802574639283" lon="9.126950057883978"><ele>759.0</ele><time>2026-05-03T10:03:05.999Z</time></trkpt><trkpt lat="41.75787414448324" lon="9.126823854730924"><ele>759.0</ele><time>2026-05-03T10:03:06.999Z</time></trkpt><trkpt lat="41.75773721566181" lon="9.126717538511436"><ele>759.0</ele><time>2026-05-03T10:03:07.999Z</time></trkpt><trkpt lat="41.75762092629695" lon="9.126627777049862"><ele>759.0</ele><time>2026-05-03T10:03:08.999Z</time></trkpt><trkpt lat="41.75751983224458" lon="9.126531042639522"><ele>759.0</ele><time>2026-05-03T10:03:09.999Z</time></trkpt><trkpt lat="41.757435095794065" lon="9.126419324899032"><ele>757.4000000000001</ele><time>2026-05-03T10:03:11Z</time></trkpt><trkpt lat="41.7573534920189" lon="9.126317784901591"><ele>755.8</ele><time>2026-05-03T10:03:12Z</time></trkpt><trkpt lat="41.757284796388774" lon="9.126209001069784"><ele>754.2</ele><time>2026-05-03T10:03:13Z</time></trkpt><trkpt lat="41.75723526790411" lon="9.126086837218077"><ele>752.5999999999999</ele><time>2026-05-03T10:03:14Z</time></trkpt><trkpt lat="41.75717525295201" lon="9.125963733465609"><ele>751.0</ele><time>2026-05-03T10:03:15Z</time></trkpt><trkpt lat="41.75715214284421" lon="9.125814042723391"><ele>752.75</ele><time>2026-05-03T10:03:16Z</time></trkpt><trkpt lat="41.757126574331124" lon="9.125659734831547"><ele>754.5</ele><time>2026-05-03T10:03:17Z</time></trkpt><trkpt lat="41.757100398633234" lon="9.12549853319428"><ele>756.25</ele><time>2026-05-03T10:03:18Z</time></trkpt><trkpt lat="41.75707978124875" lon="9.12534766471461"><ele>758.0</ele><time>2026-05-03T10:03:19Z</time></trkpt><trkpt lat="41.757056245922676" lon="9.125196813058631"><ele>758.0</ele><time>2026-05-03T10:03:20Z</time></trkpt><trkpt lat="41.75701024740706" lon="9.125044471507705"><ele>758.0</ele><time>2026-05-03T10:03:21Z</time></trkpt><trkpt lat="41.75693954276521" lon="9.12489765518915"><ele>758.0</ele><time>2026-05-03T10:03:22Z</time></trkpt><trkpt lat="41.75683521043366" lon="9.12476428541214"><ele>758.0</ele><time>2026-05-03T10:03:23Z</time></trkpt><trkpt lat="41.756743141195486" lon="9.124638779041279"><ele>754.4</ele><time>2026-05-03T10:03:24Z</time></trkpt><trkpt lat="41.756680606231114" lon="9.124513633970555"><ele>750.8</ele><time>2026-05-03T10:03:25Z</time></trkpt><trkpt lat="41.75663006543095" lon="9.124389284110068"><ele>747.2</ele><time>2026-05-03T10:03:26Z</time></trkpt><trkpt lat="41.7566008225575" lon="9.12426321678543"><ele>743.6</ele><time>2026-05-03T10:03:27Z</time></trkpt><trkpt lat="41.75660576761657" lon="9.124123674944112"><ele>740.0</ele><time>2026-05-03T10:03:28Z</time></trkpt><trkpt lat="41.7565881955053" lon="9.123987020564535"><ele>739.75</ele><time>2026-05-03T10:03:29Z</time></trkpt><trkpt lat="41.75660103065466" lon="9.123838741511927"><ele>739.5</ele><time>2026-05-03T10:03:30Z</time></trkpt><trkpt lat="41.75661974983562" lon="9.123682531078117"><ele>739.25</ele><time>2026-05-03T10:03:31Z</time></trkpt><trkpt lat="41.75663393168939" lon="9.123514874204043"><ele>739.0</ele><time>2026-05-03T10:03:32Z</time></trkpt><trkpt lat="41.75662967597803" lon="9.123327155411397"><ele>737.6666666666667</ele><time>2026-05-03T10:03:33Z</time></trkpt><trkpt lat="41.756627421999674" lon="9.123107734620302"><ele>736.3333333333334</ele><time>2026-05-03T10:03:34Z</time></trkpt><trkpt lat="41.75661368437415" lon="9.122869893916574"><ele>735.0</ele><time>2026-05-03T10:03:35.001Z</time></trkpt><trkpt lat="41.75660675446126" lon="9.122634728245172"><ele>735.0</ele><time>2026-05-03T10:03:36.001Z</time></trkpt><trkpt lat="41.75660295082247" lon="9.122425125623764"><ele>735.0</ele><time>2026-05-03T10:03:37.001Z</time></trkpt><trkpt lat="41.75663397527739" lon="9.122238990211386"><ele>735.0</ele><time>2026-05-03T10:03:38.001Z</time></trkpt><trkpt lat="41.75663876330035" lon="9.122066745716836"><ele>735.0</ele><time>2026-05-03T10:03:39.001Z</time></trkpt><trkpt lat="41.756605763809006" lon="9.121916755849226"><ele>737.8</ele><time>2026-05-03T10:03:40.001Z</time></trkpt><trkpt lat="41.75653904444926" lon="9.121812513903544"><ele>740.6</ele><time>2026-05-03T10:03:41.001Z</time></trkpt><trkpt lat="41.756442245022406" lon="9.121759041941347"><ele>743.4000000000001</ele><time>2026-05-03T10:03:42.001Z</time></trkpt><trkpt lat="41.75634267162138" lon="9.121748875280884"><ele>746.2</ele><time>2026-05-03T10:03:43.001Z</time></trkpt><trkpt lat="41.756222850057334" lon="9.12177719767469"><ele>749.0</ele><time>2026-05-03T10:03:44.001Z</time></trkpt><trkpt lat="41.75607549826962" lon="9.121888098105703"><ele>747.0</ele><time>2026-05-03T10:03:45.001Z</time></trkpt><trkpt lat="41.755926911084735" lon="9.12203988035524"><ele>745.0</ele><time>2026-05-03T10:03:46.001Z</time></trkpt><trkpt lat="41.75577660522573" lon="9.122115120263812"><ele>743.0</ele><time>2026-05-03T10:03:47.001Z</time></trkpt><trkpt lat="41.75564438780148" lon="9.12212049039664"><ele>743.0</ele><time>2026-05-03T10:03:48.001Z</time></trkpt><trkpt lat="41.755544194203004" lon="9.122047492142272"><ele>743.0</ele><time>2026-05-03T10:03:49.001Z</time></trkpt><trkpt lat="41.75544676037954" lon="9.121935166283242"><ele>743.0</ele><time>2026-05-03T10:03:50.001Z</time></trkpt><trkpt lat="41.7553036330282" lon="9.121779032930489"><ele>743.0</ele><time>2026-05-03T10:03:51.001Z</time></trkpt><trkpt lat="41.755114121443555" lon="9.121684383304821"><ele>743.3333333333333</ele><time>2026-05-03T10:03:52.001Z</time></trkpt><trkpt lat="41.75492209358458" lon="9.12157920370099"><ele>743.6666666666666</ele><time>2026-05-03T10:03:53.001Z</time></trkpt><trkpt lat="41.754770735833304" lon="9.121463021084377"><ele>744.0</ele><time>2026-05-03T10:03:54.001Z</time></trkpt><trkpt lat="41.75468507288828" lon="9.121299011558527"><ele>744.0</ele><time>2026-05-03T10:03:55.001Z</time></trkpt><trkpt lat="41.75463831534051" lon="9.121076669152332"><ele>744.0</ele><time>2026-05-03T10:03:56.001Z</time></trkpt><trkpt lat="41.75455260060015" lon="9.12081978578049"><ele>744.0</ele><time>2026-05-03T10:03:57.001Z</time></trkpt><trkpt lat="41.754399082703095" lon="9.120593279321561"><ele>739.0</ele><time>2026-05-03T10:03:58.001Z</time></trkpt><trkpt lat="41.75421058241675" lon="9.120391095233364"><ele>734.0</ele><time>2026-05-03T10:03:59.001Z</time></trkpt><trkpt lat="41.75408038786915" lon="9.120198159888481"><ele>729.0</ele><time>2026-05-03T10:04:00.001Z</time></trkpt><trkpt lat="41.75397100203539" lon="9.12004855372037"><ele>729.0</ele><time>2026-05-03T10:04:01.001Z</time></trkpt><trkpt lat="41.75389364520969" lon="9.119911092660589"><ele>729.0</ele><time>2026-05-03T10:04:02.001Z</time></trkpt><trkpt lat="41.753871474121084" lon="9.119761553734383"><ele>729.0</ele><time>2026-05-03T10:04:03.001Z</time></trkpt><trkpt lat="41.75388877924144" lon="9.119581109400619"><ele>729.0</ele><time>2026-05-03T10:04:04.001Z</time></trkpt><trkpt lat="41.75394356160797" lon="9.119398288780994"><ele>727.6666666666666</ele><time>2026-05-03T10:04:05.002Z</time></trkpt><trkpt lat="41.754045700317995" lon="9.11927045683219"><ele>726.3333333333333</ele><time>2026-05-03T10:04:06.002Z</time></trkpt><trkpt lat="41.75417381697841" lon="9.119172672185853"><ele>725.0</ele><time>2026-05-03T10:04:07.002Z</time></trkpt><trkpt lat="41.75430733657836" lon="9.119036020789345"><ele>729.75</ele><time>2026-05-03T10:04:08.002Z</time></trkpt><trkpt lat="41.75441954398701" lon="9.118907225406097"><ele>734.5</ele><time>2026-05-03T10:04:09.002Z</time></trkpt><trkpt lat="41.75448918798269" lon="9.118736765121486"><ele>739.25</ele><time>2026-05-03T10:04:10.002Z</time></trkpt><trkpt lat="41.754517094395055" lon="9.118539874435628"><ele>744.0</ele><time>2026-05-03T10:04:11.002Z</time></trkpt><trkpt lat="41.754482519416825" lon="9.118347366142398"><ele>746.5</ele><time>2026-05-03T10:04:12.002Z</time></trkpt><trkpt lat="41.75440046207625" lon="9.118193123374734"><ele>749.0</ele><time>2026-05-03T10:04:13.002Z</time></trkpt><trkpt lat="41.75427240719908" lon="9.118082108978696"><ele>751.5</ele><time>2026-05-03T10:04:14.002Z</time></trkpt><trkpt lat="41.754135292181076" lon="9.117990186194383"><ele>754.0</ele><time>2026-05-03T10:04:15.002Z</time></trkpt><trkpt lat="41.75402218228793" lon="9.117873730007599"><ele>747.25</ele><time>2026-05-03T10:04:16.002Z</time></trkpt><trkpt lat="41.75391507850857" lon="9.117763835930118"><ele>740.5</ele><time>2026-05-03T10:04:17.002Z</time></trkpt><trkpt lat="41.75379166778634" lon="9.117665334128183"><ele>733.75</ele><time>2026-05-03T10:04:18.002Z</time></trkpt><trkpt lat="41.75365710069444" lon="9.117566982434791"><ele>727.0</ele><time>2026-05-03T10:04:19.002Z</time></trkpt><trkpt lat="41.7534976919129" lon="9.117529230059528"><ele>725.0</ele><time>2026-05-03T10:04:20.002Z</time></trkpt><trkpt lat="41.75333320672813" lon="9.117544175404047"><ele>723.0</ele><time>2026-05-03T10:04:21.002Z</time></trkpt><trkpt lat="41.75318120969683" lon="9.117575375372672"><ele>721.0</ele><time>2026-05-03T10:04:22.002Z</time></trkpt><trkpt lat="41.753046824590605" lon="9.117603932904279"><ele>721.0</ele><time>2026-05-03T10:04:23.002Z</time></trkpt><trkpt lat="41.752917790897854" lon="9.117574027392678"><ele>721.0</ele><time>2026-05-03T10:04:24.002Z</time></trkpt><trkpt lat="41.75281446551505" lon="9.117480829100757"><ele>721.0</ele><time>2026-05-03T10:04:25.002Z</time></trkpt><trkpt lat="41.75271305865712" lon="9.117387332509967"><ele>721.0</ele><time>2026-05-03T10:04:26.002Z</time></trkpt><trkpt lat="41.75261709737697" lon="9.117292020491835"><ele>720.6666666666667</ele><time>2026-05-03T10:04:27.002Z</time></trkpt><trkpt lat="41.75251802311563" lon="9.117225271804648"><ele>720.3333333333334</ele><time>2026-05-03T10:04:28.002Z</time></trkpt><trkpt lat="41.75244601358602" lon="9.117145575566134"><ele>720.0</ele><time>2026-05-03T10:04:29.002Z</time></trkpt><trkpt lat="41.75238439800321" lon="9.117076177994813"><ele>719.6666666666666</ele><time>2026-05-03T10:04:30.002Z</time></trkpt><trkpt lat="41.7523330980121" lon="9.11700688688989"><ele>719.3333333333333</ele><time>2026-05-03T10:04:31.002Z</time></trkpt><trkpt lat="41.75229080150676" lon="9.116931335781379"><ele>719.0</ele><time>2026-05-03T10:04:32.002Z</time></trkpt><trkpt lat="41.75227538154454" lon="9.11684380862112"><ele>719.0</ele><time>2026-05-03T10:04:33.002Z</time></trkpt><trkpt lat="41.752287972827915" lon="9.116754313091844"><ele>719.0</ele><time>2026-05-03T10:04:34.002Z</time></trkpt><trkpt lat="41.752320146529" lon="9.116677804875929"><ele>719.0</ele><time>2026-05-03T10:04:35.002Z</time></trkpt><trkpt lat="41.75235702430436" lon="9.116606002477672"><ele>719.0</ele><time>2026-05-03T10:04:36.002Z</time></trkpt><trkpt lat="41.75239563292226" lon="9.116534702208972"><ele>719.0</ele><time>2026-05-03T10:04:37.002Z</time></trkpt><trkpt lat="41.75246815482187" lon="9.116393785645233"><ele>719.0</ele><time>2026-05-03T10:04:39.003Z</time></trkpt><trkpt lat="41.752506595420584" lon="9.116324499420456"><ele>718.4285714285713</ele><time>2026-05-03T10:04:40.003Z</time></trkpt><trkpt lat="41.752547390369244" lon="9.116250398650159"><ele>717.8571428571429</ele><time>2026-05-03T10:04:41.003Z</time></trkpt><trkpt lat="41.7525822794956" lon="9.116158607538006"><ele>717.2857142857142</ele><time>2026-05-03T10:04:42.003Z</time></trkpt><trkpt lat="41.75260569559149" lon="9.116065587923366"><ele>716.7142857142857</ele><time>2026-05-03T10:04:43.003Z</time></trkpt><trkpt lat="41.75261743002617" lon="9.11597017756781"><ele>716.1428571428571</ele><time>2026-05-03T10:04:44.003Z</time></trkpt><trkpt lat="41.752626158058945" lon="9.115876720549684"><ele>715.5714285714286</ele><time>2026-05-03T10:04:45.003Z</time></trkpt><trkpt lat="41.75262958835676" lon="9.115785217815885"><ele>715.0</ele><time>2026-05-03T10:04:46.003Z</time></trkpt><trkpt lat="41.75263142191407" lon="9.115693697418228"><ele>714.6666666666667</ele><time>2026-05-03T10:04:47.003Z</time></trkpt><trkpt lat="41.752634568880566" lon="9.11559855117698"><ele>714.3333333333334</ele><time>2026-05-03T10:04:48.003Z</time></trkpt><trkpt lat="41.75263702012524" lon="9.115507528168012"><ele>714.0</ele><time>2026-05-03T10:04:49.003Z</time></trkpt><trkpt lat="41.75263621642927" lon="9.11536490212989"><ele>713.6666666666666</ele><time>2026-05-03T10:04:51.003Z</time></trkpt><trkpt lat="41.752641024778235" lon="9.115194390182833"><ele>713.3333333333333</ele><time>2026-05-03T10:04:53.003Z</time></trkpt><trkpt lat="41.75265189123431" lon="9.115103686670516"><ele>713.0</ele><time>2026-05-03T10:04:54.003Z</time></trkpt><trkpt lat="41.75266627605143" lon="9.115007874952465"><ele>713.0</ele><time>2026-05-03T10:04:55.003Z</time></trkpt><trkpt lat="41.75268805304973" lon="9.114910354238829"><ele>713.0</ele><time>2026-05-03T10:04:56.003Z</time></trkpt><trkpt lat="41.752711461030984" lon="9.11481319891804"><ele>713.0</ele><time>2026-05-03T10:04:57.003Z</time></trkpt><trkpt lat="41.752737025182974" lon="9.114725987268365"><ele>713.0</ele><time>2026-05-03T10:04:58.003Z</time></trkpt><trkpt lat="41.752767397741685" lon="9.114644542952044"><ele>713.0</ele><time>2026-05-03T10:04:59.003Z</time></trkpt><trkpt lat="41.75279581181261" lon="9.114560702145726"><ele>713.0</ele><time>2026-05-03T10:05:00.003Z</time></trkpt><trkpt lat="41.75282358977838" lon="9.114476953149282"><ele>713.0</ele><time>2026-05-03T10:05:01.003Z</time></trkpt><trkpt lat="41.75284809658099" lon="9.114385858081612"><ele>718.8</ele><time>2026-05-03T10:05:02.003Z</time></trkpt><trkpt lat="41.752874533933955" lon="9.114290048626842"><ele>724.5999999999999</ele><time>2026-05-03T10:05:03.003Z</time></trkpt><trkpt lat="41.75290371122046" lon="9.114182519325961"><ele>730.4000000000001</ele><time>2026-05-03T10:05:04.003Z</time></trkpt><trkpt lat="41.75292833863631" lon="9.114056917448748"><ele>736.2</ele><time>2026-05-03T10:05:05.003Z</time></trkpt><trkpt lat="41.752959821502465" lon="9.113914948197852"><ele>742.0</ele><time>2026-05-03T10:05:05.999Z</time></trkpt><trkpt lat="41.75301486535066" lon="9.113761592900811"><ele>742.0</ele><time>2026-05-03T10:05:06.999Z</time></trkpt><trkpt lat="41.753096316636714" lon="9.113607737296068"><ele>742.0</ele><time>2026-05-03T10:05:07.999Z</time></trkpt><trkpt lat="41.75319193025348" lon="9.113435690208306"><ele>742.0</ele><time>2026-05-03T10:05:08.999Z</time></trkpt><trkpt lat="41.75328138158262" lon="9.113271924768659"><ele>742.6666666666667</ele><time>2026-05-03T10:05:09.999Z</time></trkpt><trkpt lat="41.75332641440501" lon="9.11306739049858"><ele>743.3333333333334</ele><time>2026-05-03T10:05:10.999Z</time></trkpt><trkpt lat="41.753313992448575" lon="9.112840824050126"><ele>744.0</ele><time>2026-05-03T10:05:11.999Z</time></trkpt><trkpt lat="41.753259963689935" lon="9.112619055831452"><ele>744.0</ele><time>2026-05-03T10:05:12.999Z</time></trkpt><trkpt lat="41.75318144736585" lon="9.112430965292159"><ele>744.0</ele><time>2026-05-03T10:05:13.999Z</time></trkpt><trkpt lat="41.7530874891987" lon="9.11227821306914"><ele>744.0</ele><time>2026-05-03T10:05:14.999Z</time></trkpt><trkpt lat="41.75301199195601" lon="9.112099804750889"><ele>750.6666666666666</ele><time>2026-05-03T10:05:15.999Z</time></trkpt><trkpt lat="41.75295231747065" lon="9.111893664664029"><ele>757.3333333333333</ele><time>2026-05-03T10:05:16.999Z</time></trkpt><trkpt lat="41.75290289534379" lon="9.11166841388807"><ele>764.0</ele><time>2026-05-03T10:05:17.999Z</time></trkpt><trkpt lat="41.7528640417006" lon="9.111435527034205"><ele>769.3333333333333</ele><time>2026-05-03T10:05:18.999Z</time></trkpt><trkpt lat="41.75279766223114" lon="9.111219178862255"><ele>774.6666666666666</ele><time>2026-05-03T10:05:20Z</time></trkpt><trkpt lat="41.75270624046442" lon="9.111031173303333"><ele>780.0</ele><time>2026-05-03T10:05:21Z</time></trkpt><trkpt lat="41.75264229765078" lon="9.110823695555741"><ele>767.3333333333334</ele><time>2026-05-03T10:05:22Z</time></trkpt><trkpt lat="41.75262527101578" lon="9.110604040387116"><ele>754.6666666666667</ele><time>2026-05-03T10:05:23Z</time></trkpt><trkpt lat="41.752594099121794" lon="9.110395372499596"><ele>742.0</ele><time>2026-05-03T10:05:24Z</time></trkpt><trkpt lat="41.75259940623424" lon="9.11019385204801"><ele>742.0</ele><time>2026-05-03T10:05:25Z</time></trkpt><trkpt lat="41.75261705551706" lon="9.110016620367137"><ele>742.0</ele><time>2026-05-03T10:05:26Z</time></trkpt><trkpt lat="41.75264640710219" lon="9.10985960000888"><ele>742.0</ele><time>2026-05-03T10:05:27Z</time></trkpt><trkpt lat="41.75269763366595" lon="9.10970889581091"><ele>742.0</ele><time>2026-05-03T10:05:28Z</time></trkpt><trkpt lat="41.75275148581585" lon="9.109560966452003"><ele>746.0</ele><time>2026-05-03T10:05:29Z</time></trkpt><trkpt lat="41.752809956464944" lon="9.109412012786693"><ele>750.0</ele><time>2026-05-03T10:05:30Z</time></trkpt><trkpt lat="41.75288557065429" lon="9.109275481456079"><ele>754.0</ele><time>2026-05-03T10:05:31Z</time></trkpt><trkpt lat="41.752987089164534" lon="9.109174129815615"><ele>758.0</ele><time>2026-05-03T10:05:32Z</time></trkpt><trkpt lat="41.75311180806039" lon="9.109111960135387"><ele>758.0</ele><time>2026-05-03T10:05:33Z</time></trkpt><trkpt lat="41.75325072202247" lon="9.109073716988252"><ele>758.0</ele><time>2026-05-03T10:05:34Z</time></trkpt><trkpt lat="41.753389680942774" lon="9.109066503050252"><ele>758.0</ele><time>2026-05-03T10:05:35Z</time></trkpt><trkpt lat="41.75353447833066" lon="9.109100517784285"><ele>758.0</ele><time>2026-05-03T10:05:36Z</time></trkpt><trkpt lat="41.75369084716942" lon="9.10914258327299"><ele>759.0</ele><time>2026-05-03T10:05:37Z</time></trkpt><trkpt lat="41.753849311036454" lon="9.109186936810461"><ele>760.0</ele><time>2026-05-03T10:05:38Z</time></trkpt><trkpt lat="41.75400850448023" lon="9.109229701073723"><ele>761.0</ele><time>2026-05-03T10:05:39Z</time></trkpt><trkpt lat="41.754173938881664" lon="9.109285391545196"><ele>761.0</ele><time>2026-05-03T10:05:40Z</time></trkpt><trkpt lat="41.75434513141765" lon="9.109340946030011"><ele>761.0</ele><time>2026-05-03T10:05:41Z</time></trkpt><trkpt lat="41.75451409331212" lon="9.109394966823384"><ele>761.0</ele><time>2026-05-03T10:05:42.001Z</time></trkpt><trkpt lat="41.75468641476161" lon="9.109459395371893"><ele>759.6666666666666</ele><time>2026-05-03T10:05:43.001Z</time></trkpt><trkpt lat="41.75486200503592" lon="9.109500700383585"><ele>758.3333333333334</ele><time>2026-05-03T10:05:44.001Z</time></trkpt><trkpt lat="41.75504760223349" lon="9.109526972638097"><ele>757.0</ele><time>2026-05-03T10:05:45.001Z</time></trkpt><trkpt lat="41.75523540089884" lon="9.109519734010966"><ele>760.0</ele><time>2026-05-03T10:05:46.001Z</time></trkpt><trkpt lat="41.75541826016903" lon="9.1095119196198"><ele>763.0</ele><time>2026-05-03T10:05:47.001Z</time></trkpt><trkpt lat="41.755604844507126" lon="9.10950429080154"><ele>766.0</ele><time>2026-05-03T10:05:48.001Z</time></trkpt><trkpt lat="41.75578440373615" lon="9.10951918220419"><ele>766.0</ele><time>2026-05-03T10:05:49.001Z</time></trkpt><trkpt lat="41.755966557309875" lon="9.109472250022037"><ele>766.0</ele><time>2026-05-03T10:05:50.001Z</time></trkpt><trkpt lat="41.756150645900355" lon="9.109420642064526"><ele>766.0</ele><time>2026-05-03T10:05:51.001Z</time></trkpt><trkpt lat="41.75634646501297" lon="9.109348548022998"><ele>770.6666666666667</ele><time>2026-05-03T10:05:52.001Z</time></trkpt><trkpt lat="41.756545658258815" lon="9.109315446316067"><ele>775.3333333333334</ele><time>2026-05-03T10:05:53.001Z</time></trkpt><trkpt lat="41.75674491035064" lon="9.10928294639134"><ele>780.0</ele><time>2026-05-03T10:05:54.001Z</time></trkpt><trkpt lat="41.75692925120604" lon="9.109238190552576"><ele>788.3333333333333</ele><time>2026-05-03T10:05:55.001Z</time></trkpt><trkpt lat="41.757098576154654" lon="9.10919563983577"><ele>796.6666666666666</ele><time>2026-05-03T10:05:56.001Z</time></trkpt><trkpt lat="41.75724145039169" lon="9.109117214016612"><ele>805.0</ele><time>2026-05-03T10:05:57.001Z</time></trkpt><trkpt lat="41.75733864413333" lon="9.10897671664371"><ele>805.6666666666666</ele><time>2026-05-03T10:05:58.001Z</time></trkpt><trkpt lat="41.75738828268656" lon="9.108801453755039"><ele>806.3333333333333</ele><time>2026-05-03T10:05:59.001Z</time></trkpt><trkpt lat="41.757383800790905" lon="9.10859809132669"><ele>807.0</ele><time>2026-05-03T10:06:00.001Z</time></trkpt><trkpt lat="41.75732591262172" lon="9.108388585549587"><ele>809.3333333333333</ele><time>2026-05-03T10:06:01.001Z</time></trkpt><trkpt lat="41.75723910683169" lon="9.10818489058263"><ele>811.6666666666666</ele><time>2026-05-03T10:06:02.001Z</time></trkpt><trkpt lat="41.75715004090733" lon="9.107983935210383"><ele>814.0</ele><time>2026-05-03T10:06:03.001Z</time></trkpt><trkpt lat="41.75707485757925" lon="9.107813070222354"><ele>814.0</ele><time>2026-05-03T10:06:04.001Z</time></trkpt><trkpt lat="41.757018990667106" lon="9.107676917654397"><ele>814.0</ele><time>2026-05-03T10:06:05.001Z</time></trkpt><trkpt lat="41.757012303170654" lon="9.10755023847931"><ele>814.0</ele><time>2026-05-03T10:06:06.001Z</time></trkpt><trkpt lat="41.75705754474858" lon="9.107434310387701"><ele>814.0</ele><time>2026-05-03T10:06:07.001Z</time></trkpt><trkpt lat="41.75717793073302" lon="9.107387231646344"><ele>814.0</ele><time>2026-05-03T10:06:08.001Z</time></trkpt><trkpt lat="41.75729004269935" lon="9.1072808828623"><ele>813.5</ele><time>2026-05-03T10:06:09.001Z</time></trkpt><trkpt lat="41.75741567778066" lon="9.107158411274492"><ele>813.0</ele><time>2026-05-03T10:06:10.001Z</time></trkpt><trkpt lat="41.75751037397646" lon="9.107034679882533"><ele>812.5</ele><time>2026-05-03T10:06:11.002Z</time></trkpt><trkpt lat="41.75759957134412" lon="9.106920998400298"><ele>812.0</ele><time>2026-05-03T10:06:12.002Z</time></trkpt><trkpt lat="41.75768013392463" lon="9.10680306768393"><ele>815.75</ele><time>2026-05-03T10:06:13.002Z</time></trkpt><trkpt lat="41.75773160679232" lon="9.1066719986418"><ele>819.5</ele><time>2026-05-03T10:06:14.002Z</time></trkpt><trkpt lat="41.75772626928671" lon="9.106529819440874"><ele>823.25</ele><time>2026-05-03T10:06:15.002Z</time></trkpt><trkpt lat="41.75764225376681" lon="9.106412124065415"><ele>827.0</ele><time>2026-05-03T10:06:16.002Z</time></trkpt><trkpt lat="41.75752057193396" lon="9.106361371821446"><ele>831.6666666666667</ele><time>2026-05-03T10:06:17.002Z</time></trkpt><trkpt lat="41.757381912132374" lon="9.106375239078178"><ele>836.3333333333333</ele><time>2026-05-03T10:06:18.002Z</time></trkpt><trkpt lat="41.75722919643917" lon="9.10641556047919"><ele>841.0</ele><time>2026-05-03T10:06:19.002Z</time></trkpt><trkpt lat="41.75706492179472" lon="9.106376734634217"><ele>841.0</ele><time>2026-05-03T10:06:20.002Z</time></trkpt><trkpt lat="41.75688325852751" lon="9.106306137824932"><ele>841.0</ele><time>2026-05-03T10:06:21.002Z</time></trkpt><trkpt lat="41.75668615203364" lon="9.106269345427881"><ele>841.0</ele><time>2026-05-03T10:06:22.002Z</time></trkpt><trkpt lat="41.75648405210587" lon="9.10627644568493"><ele>839.6666666666666</ele><time>2026-05-03T10:06:23.002Z</time></trkpt><trkpt lat="41.75628778746986" lon="9.106222940471785"><ele>838.3333333333333</ele><time>2026-05-03T10:06:24.002Z</time></trkpt><trkpt lat="41.756114810470876" lon="9.10617498548847"><ele>837.0</ele><time>2026-05-03T10:06:25.002Z</time></trkpt><trkpt lat="41.75596129488691" lon="9.106112685130851"><ele>835.0</ele><time>2026-05-03T10:06:26.002Z</time></trkpt><trkpt lat="41.75582698408331" lon="9.106002149743421"><ele>833.0</ele><time>2026-05-03T10:06:27.002Z</time></trkpt><trkpt lat="41.75567118083224" lon="9.105845341792541"><ele>831.0</ele><time>2026-05-03T10:06:28.002Z</time></trkpt><trkpt lat="41.75549301312415" lon="9.105732147766567"><ele>830.0</ele><time>2026-05-03T10:06:29.002Z</time></trkpt><trkpt lat="41.75531030215631" lon="9.105670583191896"><ele>829.0</ele><time>2026-05-03T10:06:30.002Z</time></trkpt><trkpt lat="41.7551657637882" lon="9.105567816012561"><ele>828.0</ele><time>2026-05-03T10:06:31.002Z</time></trkpt><trkpt lat="41.75505490082492" lon="9.1054765390437"><ele>828.0</ele><time>2026-05-03T10:06:32.002Z</time></trkpt><trkpt lat="41.754967555565436" lon="9.105365933303432"><ele>828.0</ele><time>2026-05-03T10:06:33.002Z</time></trkpt><trkpt lat="41.75493670473079" lon="9.10522468917826"><ele>828.0</ele><time>2026-05-03T10:06:34.002Z</time></trkpt><trkpt lat="41.75493844969305" lon="9.10506867244445"><ele>828.0</ele><time>2026-05-03T10:06:35.002Z</time></trkpt><trkpt lat="41.754940881734946" lon="9.104876647295274"><ele>831.6666666666667</ele><time>2026-05-03T10:06:36.002Z</time></trkpt><trkpt lat="41.75495648500274" lon="9.104675512391424"><ele>835.3333333333334</ele><time>2026-05-03T10:06:37.002Z</time></trkpt><trkpt lat="41.754911407191486" lon="9.104466190437641"><ele>839.0</ele><time>2026-05-03T10:06:38.002Z</time></trkpt><trkpt lat="41.75484113712671" lon="9.104240888761586"><ele>838.0</ele><time>2026-05-03T10:06:39.002Z</time></trkpt><trkpt lat="41.7547981384097" lon="9.104008448221856"><ele>837.0</ele><time>2026-05-03T10:06:40.002Z</time></trkpt><trkpt lat="41.754774400690394" lon="9.103771160748265"><ele>836.0</ele><time>2026-05-03T10:06:41.002Z</time></trkpt><trkpt lat="41.754725201708254" lon="9.103554806545075"><ele>836.0</ele><time>2026-05-03T10:06:42.002Z</time></trkpt><trkpt lat="41.754737401463615" lon="9.103336973283534"><ele>836.0</ele><time>2026-05-03T10:06:43.002Z</time></trkpt><trkpt lat="41.75476170070795" lon="9.103150549102281"><ele>836.0</ele><time>2026-05-03T10:06:44.003Z</time></trkpt><trkpt lat="41.75480899066669" lon="9.103007920030569"><ele>836.0</ele><time>2026-05-03T10:06:45.003Z</time></trkpt><trkpt lat="41.75485859492486" lon="9.10290316737847"><ele>835.1999999999999</ele><time>2026-05-03T10:06:46.003Z</time></trkpt><trkpt lat="41.754935870851945" lon="9.10287801716708"><ele>834.4</ele><time>2026-05-03T10:06:47.003Z</time></trkpt><trkpt lat="41.755024227623394" lon="9.102912401444224"><ele>833.6</ele><time>2026-05-03T10:06:48.003Z</time></trkpt><trkpt lat="41.75512726216321" lon="9.10299644642457"><ele>832.8</ele><time>2026-05-03T10:06:49.003Z</time></trkpt><trkpt lat="41.75523803932556" lon="9.103075288096449"><ele>832.0</ele><time>2026-05-03T10:06:50.003Z</time></trkpt><trkpt lat="41.755371936224506" lon="9.103157795844504"><ele>835.5</ele><time>2026-05-03T10:06:51.003Z</time></trkpt><trkpt lat="41.75551171554304" lon="9.103243372117495"><ele>839.0</ele><time>2026-05-03T10:06:52.003Z</time></trkpt><trkpt lat="41.75563797652833" lon="9.10332324489205"><ele>842.5</ele><time>2026-05-03T10:06:53.003Z</time></trkpt><trkpt lat="41.755765017989866" lon="9.103389831126854"><ele>846.0</ele><time>2026-05-03T10:06:54.003Z</time></trkpt><trkpt lat="41.75588852179992" lon="9.103418938866183"><ele>846.25</ele><time>2026-05-03T10:06:55.003Z</time></trkpt><trkpt lat="41.75603456456787" lon="9.103380754077484"><ele>846.5</ele><time>2026-05-03T10:06:56.003Z</time></trkpt><trkpt lat="41.756161364932886" lon="9.103286765170283"><ele>846.75</ele><time>2026-05-03T10:06:57.003Z</time></trkpt><trkpt lat="41.756268822848156" lon="9.103152795530843"><ele>847.0</ele><time>2026-05-03T10:06:58.003Z</time></trkpt><trkpt lat="41.75635972783832" lon="9.103019662768999"><ele>848.25</ele><time>2026-05-03T10:06:59.003Z</time></trkpt><trkpt lat="41.75644052811127" lon="9.102901497050247"><ele>849.5</ele><time>2026-05-03T10:07:00.003Z</time></trkpt><trkpt lat="41.756528535404875" lon="9.102793722470492"><ele>850.75</ele><time>2026-05-03T10:07:01.003Z</time></trkpt><trkpt lat="41.75661446346784" lon="9.102684594900879"><ele>852.0</ele><time>2026-05-03T10:07:02.003Z</time></trkpt><trkpt lat="41.756688213687944" lon="9.102583916122361"><ele>852.0</ele><time>2026-05-03T10:07:03.003Z</time></trkpt><trkpt lat="41.75675868507776" lon="9.102489889444259"><ele>852.0</ele><time>2026-05-03T10:07:04.003Z</time></trkpt><trkpt lat="41.75682583583363" lon="9.102386674105716"><ele>852.0</ele><time>2026-05-03T10:07:05.003Z</time></trkpt><trkpt lat="41.75683847610053" lon="9.102263140581622"><ele>852.0</ele><time>2026-05-03T10:07:06.003Z</time></trkpt><trkpt lat="41.756820120155645" lon="9.102158231704417"><ele>852.0</ele><time>2026-05-03T10:07:07.003Z</time></trkpt><trkpt lat="41.756739973499194" lon="9.102085414984531"><ele>854.2</ele><time>2026-05-03T10:07:08.003Z</time></trkpt><trkpt lat="41.75663047173089" lon="9.102092726779075"><ele>856.4000000000001</ele><time>2026-05-03T10:07:09.003Z</time></trkpt><trkpt lat="41.75652921984817" lon="9.102121509615035"><ele>858.5999999999999</ele><time>2026-05-03T10:07:10.003Z</time></trkpt><trkpt lat="41.75642390554386" lon="9.102111713701783"><ele>860.8</ele><time>2026-05-03T10:07:11.003Z</time></trkpt><trkpt lat="41.75632675660607" lon="9.102108380803115"><ele>863.0</ele><time>2026-05-03T10:07:11.999Z</time></trkpt><trkpt lat="41.756222958388" lon="9.102111672277664"><ele>863.0</ele><time>2026-05-03T10:07:12.999Z</time></trkpt><trkpt lat="41.75612928211684" lon="9.10212064062228"><ele>863.0</ele><time>2026-05-03T10:07:13.999Z</time></trkpt><trkpt lat="41.7560403741869" lon="9.102172473923318"><ele>863.0</ele><time>2026-05-03T10:07:14.999Z</time></trkpt><trkpt lat="41.75594676336899" lon="9.102175726145616"><ele>863.0</ele><time>2026-05-03T10:07:15.999Z</time></trkpt><trkpt lat="41.75585283350476" lon="9.102165397349571"><ele>863.0</ele><time>2026-05-03T10:07:16.999Z</time></trkpt><trkpt lat="41.75575430196029" lon="9.102150446576614"><ele>863.5999999999999</ele><time>2026-05-03T10:07:17.999Z</time></trkpt><trkpt lat="41.75566626557803" lon="9.102122174297572"><ele>864.1999999999999</ele><time>2026-05-03T10:07:18.999Z</time></trkpt><trkpt lat="41.75558872130367" lon="9.10205273986806"><ele>864.8</ele><time>2026-05-03T10:07:19.999Z</time></trkpt><trkpt lat="41.75553762819596" lon="9.101933187166443"><ele>865.4</ele><time>2026-05-03T10:07:20.999Z</time></trkpt><trkpt lat="41.755481128993786" lon="9.101815186097284"><ele>866.0</ele><time>2026-05-03T10:07:21.999Z</time></trkpt><trkpt lat="41.75540036472001" lon="9.101716935800011"><ele>866.0</ele><time>2026-05-03T10:07:22.999Z</time></trkpt><trkpt lat="41.75529820725501" lon="9.101632544994942"><ele>866.0</ele><time>2026-05-03T10:07:24Z</time></trkpt><trkpt lat="41.755183621266944" lon="9.10156767314702"><ele>866.0</ele><time>2026-05-03T10:07:25Z</time></trkpt><trkpt lat="41.75507598989251" lon="9.10148150102613"><ele>866.0</ele><time>2026-05-03T10:07:26Z</time></trkpt><trkpt lat="41.75496204995783" lon="9.101419172632836"><ele>871.75</ele><time>2026-05-03T10:07:27Z</time></trkpt><trkpt lat="41.75484274839834" lon="9.10138053185855"><ele>877.5</ele><time>2026-05-03T10:07:28Z</time></trkpt><trkpt lat="41.754730935943115" lon="9.101353953927665"><ele>883.25</ele><time>2026-05-03T10:07:29Z</time></trkpt><trkpt lat="41.754612577677335" lon="9.101347024716006"><ele>889.0</ele><time>2026-05-03T10:07:30Z</time></trkpt><trkpt lat="41.754503377374654" lon="9.101294664912242"><ele>888.9999999999999</ele><time>2026-05-03T10:07:31Z</time></trkpt><trkpt lat="41.75441515754018" lon="9.10124144265019"><ele>889.0</ele><time>2026-05-03T10:07:32Z</time></trkpt><trkpt lat="41.75434232365687" lon="9.101186478966575"><ele>889.0</ele><time>2026-05-03T10:07:33Z</time></trkpt><trkpt lat="41.75427319352232" lon="9.101123148724708"><ele>889.0</ele><time>2026-05-03T10:07:35Z</time></trkpt><trkpt lat="41.75421037361059" lon="9.101086095354702"><ele>888.9999999999999</ele><time>2026-05-03T10:07:37Z</time></trkpt><trkpt lat="41.75414687491582" lon="9.101022294185316"><ele>889.0</ele><time>2026-05-03T10:07:39Z</time></trkpt><trkpt lat="41.75406213304601" lon="9.100924746483912"><ele>890.6</ele><time>2026-05-03T10:07:41Z</time></trkpt><trkpt lat="41.7540098994011" lon="9.100874188242328"><ele>892.2</ele><time>2026-05-03T10:07:42Z</time></trkpt><trkpt lat="41.75393237266716" lon="9.100790946993321"><ele>893.8000000000001</ele><time>2026-05-03T10:07:44Z</time></trkpt><trkpt lat="41.75388606821584" lon="9.10070229050956"><ele>895.4000000000001</ele><time>2026-05-03T10:07:46Z</time></trkpt><trkpt lat="41.75381085447757" lon="9.1005534478699"><ele>897.0</ele><time>2026-05-03T10:07:48.001Z</time></trkpt><trkpt lat="41.75377439695282" lon="9.100445478076994"><ele>897.0</ele><time>2026-05-03T10:07:49.001Z</time></trkpt><trkpt lat="41.75374143552265" lon="9.100332832572905"><ele>897.0</ele><time>2026-05-03T10:07:50.001Z</time></trkpt><trkpt lat="41.75371155892013" lon="9.100210143016884"><ele>897.0</ele><time>2026-05-03T10:07:51.001Z</time></trkpt><trkpt lat="41.753684733371514" lon="9.100075585586977"><ele>897.0</ele><time>2026-05-03T10:07:52.001Z</time></trkpt><trkpt lat="41.75365645955232" lon="9.099925802592644"><ele>897.0</ele><time>2026-05-03T10:07:53.001Z</time></trkpt><trkpt lat="41.753630321873665" lon="9.099765632985617"><ele>899.25</ele><time>2026-05-03T10:07:54.001Z</time></trkpt><trkpt lat="41.75361062756745" lon="9.099597400256135"><ele>901.5</ele><time>2026-05-03T10:07:55.001Z</time></trkpt><trkpt lat="41.75359400364319" lon="9.099427162903591"><ele>903.75</ele><time>2026-05-03T10:07:56.001Z</time></trkpt><trkpt lat="41.75357809395106" lon="9.099253095179995"><ele>906.0</ele><time>2026-05-03T10:07:57.001Z</time></trkpt><trkpt lat="41.753563971427525" lon="9.099071923071234"><ele>906.0</ele><time>2026-05-03T10:07:58.001Z</time></trkpt><trkpt lat="41.75355185019876" lon="9.0988932205741"><ele>906.0</ele><time>2026-05-03T10:07:59.001Z</time></trkpt><trkpt lat="41.75354864470824" lon="9.098722906289469"><ele>906.0</ele><time>2026-05-03T10:08:00.001Z</time></trkpt><trkpt lat="41.75355410947471" lon="9.098572387662966"><ele>906.0</ele><time>2026-05-03T10:08:01.001Z</time></trkpt><trkpt lat="41.7535568387978" lon="9.098428581007333"><ele>906.0</ele><time>2026-05-03T10:08:02.001Z</time></trkpt><trkpt lat="41.75354379478891" lon="9.098269532537959"><ele>905.9999999999999</ele><time>2026-05-03T10:08:03.001Z</time></trkpt><trkpt lat="41.753512069611176" lon="9.09811475020142"><ele>905.9999999999999</ele><time>2026-05-03T10:08:04.001Z</time></trkpt><trkpt lat="41.75347511265733" lon="9.097983258903444"><ele>906.0</ele><time>2026-05-03T10:08:05.001Z</time></trkpt><trkpt lat="41.7534586608261" lon="9.097847555547208"><ele>906.0</ele><time>2026-05-03T10:08:06.001Z</time></trkpt><trkpt lat="41.75346496507853" lon="9.097687217262123"><ele>904.25</ele><time>2026-05-03T10:08:07.001Z</time></trkpt><trkpt lat="41.75348501686105" lon="9.097514328425643"><ele>902.5</ele><time>2026-05-03T10:08:08.001Z</time></trkpt><trkpt lat="41.753508234759536" lon="9.097346511658653"><ele>900.75</ele><time>2026-05-03T10:08:09.001Z</time></trkpt><trkpt lat="41.753523514602485" lon="9.097182234355227"><ele>899.0</ele><time>2026-05-03T10:08:10.001Z</time></trkpt><trkpt lat="41.75353976068147" lon="9.09702195897571"><ele>899.0</ele><time>2026-05-03T10:08:11.001Z</time></trkpt><trkpt lat="41.75355392994749" lon="9.096870407316699"><ele>899.0</ele><time>2026-05-03T10:08:12.001Z</time></trkpt><trkpt lat="41.753564304900785" lon="9.096718924319052"><ele>899.0</ele><time>2026-05-03T10:08:13.001Z</time></trkpt><trkpt lat="41.75358783755675" lon="9.096566623803175"><ele>899.0</ele><time>2026-05-03T10:08:14.001Z</time></trkpt><trkpt lat="41.75363410654363" lon="9.096420139181927"><ele>897.75</ele><time>2026-05-03T10:08:15.001Z</time></trkpt><trkpt lat="41.75371016819965" lon="9.096288843354934"><ele>896.5</ele><time>2026-05-03T10:08:16.002Z</time></trkpt><trkpt lat="41.75381061661568" lon="9.096176668677632"><ele>895.25</ele><time>2026-05-03T10:08:17.002Z</time></trkpt><trkpt lat="41.753923732269335" lon="9.096107086811442"><ele>894.0</ele><time>2026-05-03T10:08:18.002Z</time></trkpt><trkpt lat="41.754029329385226" lon="9.09606461747532"><ele>894.0</ele><time>2026-05-03T10:08:19.002Z</time></trkpt><trkpt lat="41.754124685360054" lon="9.0960101820126"><ele>894.0</ele><time>2026-05-03T10:08:20.002Z</time></trkpt><trkpt lat="41.75420321110437" lon="9.09589365317386"><ele>894.0</ele><time>2026-05-03T10:08:21.002Z</time></trkpt><trkpt lat="41.754236993856196" lon="9.095716639076828"><ele>894.0</ele><time>2026-05-03T10:08:22.002Z</time></trkpt><trkpt lat="41.754221810716565" lon="9.095557323290363"><ele>894.8000000000001</ele><time>2026-05-03T10:08:23.002Z</time></trkpt><trkpt lat="41.754197529234204" lon="9.095433781213073"><ele>895.6000000000001</ele><time>2026-05-03T10:08:24.002Z</time></trkpt><trkpt lat="41.754190372964096" lon="9.095303486227882"><ele>896.4</ele><time>2026-05-03T10:08:25.002Z</time></trkpt><trkpt lat="41.754197242236735" lon="9.09517498075168"><ele>897.2</ele><time>2026-05-03T10:08:26.002Z</time></trkpt><trkpt lat="41.75419584204081" lon="9.09504781238695"><ele>898.0</ele><time>2026-05-03T10:08:27.002Z</time></trkpt><trkpt lat="41.75416370571047" lon="9.094927451314994"><ele>899.4</ele><time>2026-05-03T10:08:28.002Z</time></trkpt><trkpt lat="41.7541060561787" lon="9.094810014081332"><ele>900.8</ele><time>2026-05-03T10:08:29.002Z</time></trkpt><trkpt lat="41.75406900694883" lon="9.094683861888038"><ele>902.2</ele><time>2026-05-03T10:08:30.002Z</time></trkpt><trkpt lat="41.75406790552826" lon="9.094542898361182"><ele>903.6</ele><time>2026-05-03T10:08:31.002Z</time></trkpt><trkpt lat="41.75405996513646" lon="9.094377856321877"><ele>905.0</ele><time>2026-05-03T10:08:32.002Z</time></trkpt><trkpt lat="41.75405425425332" lon="9.094216321124536"><ele>904.75</ele><time>2026-05-03T10:08:33.002Z</time></trkpt><trkpt lat="41.75405120421429" lon="9.094057057222376"><ele>904.5</ele><time>2026-05-03T10:08:34.002Z</time></trkpt><trkpt lat="41.7540521868087" lon="9.093904264241822"><ele>904.25</ele><time>2026-05-03T10:08:35.002Z</time></trkpt><trkpt lat="41.754056929424934" lon="9.093752436336539"><ele>904.0</ele><time>2026-05-03T10:08:36.002Z</time></trkpt><trkpt lat="41.75408352454925" lon="9.093602526105238"><ele>904.0</ele><time>2026-05-03T10:08:37.002Z</time></trkpt><trkpt lat="41.754154648948365" lon="9.093464141977401"><ele>904.0</ele><time>2026-05-03T10:08:38.002Z</time></trkpt><trkpt lat="41.75423284556882" lon="9.093328439405123"><ele>904.0</ele><time>2026-05-03T10:08:39.002Z</time></trkpt><trkpt lat="41.7543020507363" lon="9.09320337788282"><ele>904.0</ele><time>2026-05-03T10:08:40.002Z</time></trkpt><trkpt lat="41.75435292424311" lon="9.093050896730142"><ele>910.25</ele><time>2026-05-03T10:08:41.002Z</time></trkpt><trkpt lat="41.754407254138926" lon="9.092897751124514"><ele>916.5</ele><time>2026-05-03T10:08:42.002Z</time></trkpt><trkpt lat="41.7544630713968" lon="9.09274835098872"><ele>922.75</ele><time>2026-05-03T10:08:43.002Z</time></trkpt><trkpt lat="41.75451488287124" lon="9.092617042517453"><ele>929.0</ele><time>2026-05-03T10:08:44.002Z</time></trkpt><trkpt lat="41.75455217135487" lon="9.092502088335904"><ele>929.5</ele><time>2026-05-03T10:08:45.002Z</time></trkpt><trkpt lat="41.75455467566258" lon="9.092380780016004"><ele>930.0</ele><time>2026-05-03T10:08:46.002Z</time></trkpt><trkpt lat="41.754505842744216" lon="9.092245794413975"><ele>930.5</ele><time>2026-05-03T10:08:47.002Z</time></trkpt><trkpt lat="41.754407564744724" lon="9.092118477088787"><ele>931.0</ele><time>2026-05-03T10:08:48.002Z</time></trkpt><trkpt lat="41.75431747928847" lon="9.091968542816128"><ele>930.25</ele><time>2026-05-03T10:08:49.003Z</time></trkpt><trkpt lat="41.75422343724139" lon="9.091824458251688"><ele>929.5</ele><time>2026-05-03T10:08:50.003Z</time></trkpt><trkpt lat="41.754142969921794" lon="9.091701172039675"><ele>928.75</ele><time>2026-05-03T10:08:51.003Z</time></trkpt><trkpt lat="41.75405959914822" lon="9.091580772693202"><ele>928.0</ele><time>2026-05-03T10:08:52.003Z</time></trkpt><trkpt lat="41.7539562109706" lon="9.091485395267284"><ele>928.0</ele><time>2026-05-03T10:08:53.003Z</time></trkpt><trkpt lat="41.753871047410065" lon="9.09136631044286"><ele>928.0</ele><time>2026-05-03T10:08:54.003Z</time></trkpt><trkpt lat="41.753815728411276" lon="9.091210516828774"><ele>928.0</ele><time>2026-05-03T10:08:55.003Z</time></trkpt><trkpt lat="41.753783399592734" lon="9.091039317730024"><ele>928.0</ele><time>2026-05-03T10:08:56.003Z</time></trkpt><trkpt lat="41.75377290572173" lon="9.090856661505118"><ele>927.5</ele><time>2026-05-03T10:08:57.003Z</time></trkpt><trkpt lat="41.75382584733706" lon="9.090683814885022"><ele>927.0</ele><time>2026-05-03T10:08:58.003Z</time></trkpt><trkpt lat="41.75392311479818" lon="9.090539709765677"><ele>926.5</ele><time>2026-05-03T10:08:59.003Z</time></trkpt><trkpt lat="41.75400058301387" lon="9.090376852133565"><ele>926.0</ele><time>2026-05-03T10:09:00.003Z</time></trkpt><trkpt lat="41.754078314032306" lon="9.090232641180757"><ele>926.0</ele><time>2026-05-03T10:09:01.003Z</time></trkpt><trkpt lat="41.75414374293749" lon="9.090075007320916"><ele>926.0</ele><time>2026-05-03T10:09:02.003Z</time></trkpt><trkpt lat="41.75421020896396" lon="9.0899111112216"><ele>926.0</ele><time>2026-05-03T10:09:03.003Z</time></trkpt><trkpt lat="41.75428434562639" lon="9.089739119326781"><ele>926.0</ele><time>2026-05-03T10:09:04.003Z</time></trkpt><trkpt lat="41.75437119680436" lon="9.089574903909712"><ele>928.75</ele><time>2026-05-03T10:09:05.003Z</time></trkpt><trkpt lat="41.75447653697021" lon="9.089425531101588"><ele>931.5</ele><time>2026-05-03T10:09:06.003Z</time></trkpt><trkpt lat="41.75458828538382" lon="9.089291773873377"><ele>934.25</ele><time>2026-05-03T10:09:07.003Z</time></trkpt><trkpt lat="41.75468171802132" lon="9.08914101737305"><ele>937.0</ele><time>2026-05-03T10:09:08.003Z</time></trkpt><trkpt lat="41.75474617508038" lon="9.088965972973135"><ele>937.6666666666666</ele><time>2026-05-03T10:09:09.003Z</time></trkpt><trkpt lat="41.75477668516524" lon="9.088761325711175"><ele>938.3333333333333</ele><time>2026-05-03T10:09:10.003Z</time></trkpt><trkpt lat="41.75476246601325" lon="9.088526867050762"><ele>939.0</ele><time>2026-05-03T10:09:11.003Z</time></trkpt><trkpt lat="41.754730757317155" lon="9.088294274837837"><ele>940.6666666666667</ele><time>2026-05-03T10:09:12.003Z</time></trkpt><trkpt lat="41.75469250165827" lon="9.088071432708933"><ele>942.3333333333334</ele><time>2026-05-03T10:09:13.003Z</time></trkpt><trkpt lat="41.75463589245538" lon="9.087864839628615"><ele>944.0</ele><time>2026-05-03T10:09:14.003Z</time></trkpt><trkpt lat="41.754564060943366" lon="9.087666437221706"><ele>944.0</ele><time>2026-05-03T10:09:15.003Z</time></trkpt><trkpt lat="41.754504496231" lon="9.087483371252278"><ele>944.0</ele><time>2026-05-03T10:09:16.003Z</time></trkpt><trkpt lat="41.75448596817841" lon="9.087310152722061"><ele>944.0</ele><time>2026-05-03T10:09:17.003Z</time></trkpt><trkpt lat="41.75447071603168" lon="9.08713638563077"><ele>944.0</ele><time>2026-05-03T10:09:17.999Z</time></trkpt><trkpt lat="41.75445504569635" lon="9.08695514982255"><ele>944.0</ele><time>2026-05-03T10:09:18.999Z</time></trkpt><trkpt lat="41.75445306980908" lon="9.086784051983939"><ele>944.0</ele><time>2026-05-03T10:09:19.999Z</time></trkpt><trkpt lat="41.75446849485579" lon="9.086614352765007"><ele>944.0</ele><time>2026-05-03T10:09:20.999Z</time></trkpt><trkpt lat="41.754459630485684" lon="9.08642833963252"><ele>944.0</ele><time>2026-05-03T10:09:21.999Z</time></trkpt><trkpt lat="41.754466197837154" lon="9.086237986847514"><ele>942.75</ele><time>2026-05-03T10:09:22.999Z</time></trkpt><trkpt lat="41.75447659844251" lon="9.086053586724672"><ele>941.5</ele><time>2026-05-03T10:09:23.999Z</time></trkpt><trkpt lat="41.754481252551024" lon="9.085880015675645"><ele>940.25</ele><time>2026-05-03T10:09:24.999Z</time></trkpt><trkpt lat="41.75447566717223" lon="9.085709772006016"><ele>939.0</ele><time>2026-05-03T10:09:25.999Z</time></trkpt><trkpt lat="41.754455335634646" lon="9.085543954003665"><ele>938.5</ele><time>2026-05-03T10:09:26.999Z</time></trkpt><trkpt lat="41.754414661809456" lon="9.08538907699552"><ele>938.0</ele><time>2026-05-03T10:09:27.999Z</time></trkpt><trkpt lat="41.75434987010005" lon="9.085241375153283"><ele>937.5</ele><time>2026-05-03T10:09:28.999Z</time></trkpt><trkpt lat="41.754253842205294" lon="9.085115299249166"><ele>937.0</ele><time>2026-05-03T10:09:29.999Z</time></trkpt><trkpt lat="41.754145265622114" lon="9.084992766489405"><ele>933.5</ele><time>2026-05-03T10:09:30.999Z</time></trkpt><trkpt lat="41.75407644023603" lon="9.084836525529242"><ele>930.0</ele><time>2026-05-03T10:09:32Z</time></trkpt><trkpt lat="41.7540156462589" lon="9.084669130407983"><ele>926.5</ele><time>2026-05-03T10:09:33Z</time></trkpt><trkpt lat="41.753954479120836" lon="9.08449982428807"><ele>923.0</ele><time>2026-05-03T10:09:34Z</time></trkpt><trkpt lat="41.75392711785433" lon="9.084321841009725"><ele>923.0</ele><time>2026-05-03T10:09:35Z</time></trkpt><trkpt lat="41.753929859263835" lon="9.084150517514615"><ele>923.0</ele><time>2026-05-03T10:09:36Z</time></trkpt><trkpt lat="41.75397338893654" lon="9.083991089607728"><ele>923.0</ele><time>2026-05-03T10:09:37Z</time></trkpt><trkpt lat="41.754058130951016" lon="9.08385293739265"><ele>923.0</ele><time>2026-05-03T10:09:38Z</time></trkpt><trkpt lat="41.75416033380915" lon="9.083724454903107"><ele>921.75</ele><time>2026-05-03T10:09:39Z</time></trkpt><trkpt lat="41.75426516151263" lon="9.083597053015334"><ele>920.5</ele><time>2026-05-03T10:09:40Z</time></trkpt><trkpt lat="41.75436760079714" lon="9.083460034068969"><ele>919.25</ele><time>2026-05-03T10:09:41Z</time></trkpt><trkpt lat="41.754462688192305" lon="9.083310203176097"><ele>918.0</ele><time>2026-05-03T10:09:42Z</time></trkpt><trkpt lat="41.754556213977345" lon="9.083149895783945"><ele>918.0</ele><time>2026-05-03T10:09:43Z</time></trkpt><trkpt lat="41.754650514729356" lon="9.082987159540508"><ele>918.0</ele><time>2026-05-03T10:09:44Z</time></trkpt><trkpt lat="41.754751084120066" lon="9.082822568401848"><ele>918.0</ele><time>2026-05-03T10:09:45Z</time></trkpt><trkpt lat="41.75485672790422" lon="9.082672852948907"><ele>918.0</ele><time>2026-05-03T10:09:46Z</time></trkpt><trkpt lat="41.754914091576275" lon="9.0824770228705"><ele>918.0</ele><time>2026-05-03T10:09:47Z</time></trkpt><trkpt lat="41.754975124475266" lon="9.082272496552637"><ele>918.0</ele><time>2026-05-03T10:09:48Z</time></trkpt><trkpt lat="41.75503590296102" lon="9.082061392990349"><ele>914.6666666666667</ele><time>2026-05-03T10:09:49Z</time></trkpt><trkpt lat="41.75510413628629" lon="9.081840725715237"><ele>911.3333333333334</ele><time>2026-05-03T10:09:50Z</time></trkpt><trkpt lat="41.755178541354326" lon="9.081626224914352"><ele>908.0</ele><time>2026-05-03T10:09:51Z</time></trkpt><trkpt lat="41.755256773626655" lon="9.0814133676723"><ele>908.0</ele><time>2026-05-03T10:09:52Z</time></trkpt><trkpt lat="41.755330294682146" lon="9.081207507201606"><ele>908.0</ele><time>2026-05-03T10:09:53.001Z</time></trkpt><trkpt lat="41.75539840907743" lon="9.081013369051648"><ele>908.0</ele><time>2026-05-03T10:09:54.001Z</time></trkpt><trkpt lat="41.75546759588258" lon="9.080828575463064"><ele>901.0</ele><time>2026-05-03T10:09:55.001Z</time></trkpt><trkpt lat="41.755554130498815" lon="9.0806637550193"><ele>894.0</ele><time>2026-05-03T10:09:56.001Z</time></trkpt><trkpt lat="41.75566802756544" lon="9.080536123749239"><ele>887.0</ele><time>2026-05-03T10:09:57.001Z</time></trkpt><trkpt lat="41.75580169356816" lon="9.080453560074128"><ele>880.0</ele><time>2026-05-03T10:09:58.001Z</time></trkpt><trkpt lat="41.75594650842836" lon="9.080445893598613"><ele>879.0</ele><time>2026-05-03T10:09:59.001Z</time></trkpt><trkpt lat="41.75609899338118" lon="9.080451134787662"><ele>878.0</ele><time>2026-05-03T10:10:00.001Z</time></trkpt><trkpt lat="41.75626582926445" lon="9.080455235033654"><ele>877.0</ele><time>2026-05-03T10:10:01.001Z</time></trkpt><trkpt lat="41.75645389793272" lon="9.080509031393294"><ele>877.0</ele><time>2026-05-03T10:10:02.001Z</time></trkpt><trkpt lat="41.756631394433285" lon="9.080573656635016"><ele>877.0</ele><time>2026-05-03T10:10:03.001Z</time></trkpt><trkpt lat="41.75679863399449" lon="9.080643214183114"><ele>877.0</ele><time>2026-05-03T10:10:04.001Z</time></trkpt><trkpt lat="41.75696637747" lon="9.080700545091782"><ele>873.3333333333333</ele><time>2026-05-03T10:10:05.001Z</time></trkpt><trkpt lat="41.75714502774217" lon="9.080713431155786"><ele>869.6666666666667</ele><time>2026-05-03T10:10:06.001Z</time></trkpt><trkpt lat="41.757312201107005" lon="9.080673433997557"><ele>866.0</ele><time>2026-05-03T10:10:07.001Z</time></trkpt><trkpt lat="41.75746989446838" lon="9.080620563006647"><ele>866.0</ele><time>2026-05-03T10:10:08.001Z</time></trkpt><trkpt lat="41.75760780541619" lon="9.080560808811537"><ele>866.0</ele><time>2026-05-03T10:10:09.001Z</time></trkpt><trkpt lat="41.75772586361283" lon="9.080543418766721"><ele>866.0</ele><time>2026-05-03T10:10:10.001Z</time></trkpt><trkpt lat="41.75781640863687" lon="9.080600683422078"><ele>866.0</ele><time>2026-05-03T10:10:11.001Z</time></trkpt><trkpt lat="41.7578771529429" lon="9.080707868062163"><ele>869.5</ele><time>2026-05-03T10:10:12.001Z</time></trkpt><trkpt lat="41.75797943226401" lon="9.080817376069001"><ele>873.0</ele><time>2026-05-03T10:10:13.001Z</time></trkpt><trkpt lat="41.758076845645455" lon="9.080951579064271"><ele>876.5</ele><time>2026-05-03T10:10:14.001Z</time></trkpt><trkpt lat="41.75820057296375" lon="9.081063154765166"><ele>880.0</ele><time>2026-05-03T10:10:15.001Z</time></trkpt><trkpt lat="41.758336024105816" lon="9.081179038760196"><ele>880.0</ele><time>2026-05-03T10:10:16.001Z</time></trkpt><trkpt lat="41.75845391006313" lon="9.081328947566371"><ele>880.0</ele><time>2026-05-03T10:10:17.001Z</time></trkpt><trkpt lat="41.75859422862149" lon="9.081457223110675"><ele>880.0</ele><time>2026-05-03T10:10:18.001Z</time></trkpt><trkpt lat="41.75875452935375" lon="9.081554450919926"><ele>880.75</ele><time>2026-05-03T10:10:19.001Z</time></trkpt><trkpt lat="41.75889322335899" lon="9.081608626242634"><ele>881.5</ele><time>2026-05-03T10:10:20.001Z</time></trkpt><trkpt lat="41.75903415939497" lon="9.081665709391451"><ele>882.25</ele><time>2026-05-03T10:10:21.001Z</time></trkpt><trkpt lat="41.759172613565255" lon="9.081696500086517"><ele>883.0</ele><time>2026-05-03T10:10:22.002Z</time></trkpt><trkpt lat="41.75930142480014" lon="9.081783788386646"><ele>878.0</ele><time>2026-05-03T10:10:23.002Z</time></trkpt><trkpt lat="41.75941825969661" lon="9.081912176775973"><ele>873.0</ele><time>2026-05-03T10:10:24.002Z</time></trkpt><trkpt lat="41.759517874353094" lon="9.082071130719024"><ele>868.0</ele><time>2026-05-03T10:10:25.002Z</time></trkpt><trkpt lat="41.75962816992029" lon="9.082184147826325"><ele>863.0</ele><time>2026-05-03T10:10:26.002Z</time></trkpt><trkpt lat="41.75977700644035" lon="9.082218480321263"><ele>863.0</ele><time>2026-05-03T10:10:27.002Z</time></trkpt><trkpt lat="41.75993813865256" lon="9.082198484476878"><ele>863.0</ele><time>2026-05-03T10:10:28.002Z</time></trkpt><trkpt lat="41.760085294655596" lon="9.082226642737684"><ele>863.0</ele><time>2026-05-03T10:10:29.002Z</time></trkpt><trkpt lat="41.760220541827636" lon="9.082257428669232"><ele>863.0</ele><time>2026-05-03T10:10:30.002Z</time></trkpt><trkpt lat="41.7603212827685" lon="9.082373575803254"><ele>865.0</ele><time>2026-05-03T10:10:31.002Z</time></trkpt><trkpt lat="41.760397663632006" lon="9.08251020076665"><ele>867.0</ele><time>2026-05-03T10:10:32.002Z</time></trkpt><trkpt lat="41.76049822123149" lon="9.0826547787633"><ele>869.0</ele><time>2026-05-03T10:10:33.002Z</time></trkpt><trkpt lat="41.7606148289707" lon="9.082777416026872"><ele>871.0</ele><time>2026-05-03T10:10:34.002Z</time></trkpt><trkpt lat="41.760763761713854" lon="9.0828525380506"><ele>871.0</ele><time>2026-05-03T10:10:35.002Z</time></trkpt><trkpt lat="41.760924927833756" lon="9.082876063409957"><ele>871.0</ele><time>2026-05-03T10:10:36.002Z</time></trkpt><trkpt lat="41.761090480843734" lon="9.082891609635702"><ele>871.0</ele><time>2026-05-03T10:10:37.002Z</time></trkpt><trkpt lat="41.76124983608353" lon="9.082936086214003"><ele>864.6666666666666</ele><time>2026-05-03T10:10:38.002Z</time></trkpt><trkpt lat="41.76140179319245" lon="9.083012943592223"><ele>858.3333333333333</ele><time>2026-05-03T10:10:39.002Z</time></trkpt><trkpt lat="41.76154787778803" lon="9.08311917232141"><ele>852.0</ele><time>2026-05-03T10:10:40.002Z</time></trkpt><trkpt lat="41.76169536123619" lon="9.083244551085471"><ele>853.6666666666667</ele><time>2026-05-03T10:10:41.002Z</time></trkpt><trkpt lat="41.761841216877905" lon="9.083386014795655"><ele>855.3333333333334</ele><time>2026-05-03T10:10:42.002Z</time></trkpt><trkpt lat="41.7619723016299" lon="9.083502597716897"><ele>857.0</ele><time>2026-05-03T10:10:43.002Z</time></trkpt><trkpt lat="41.76209446465646" lon="9.083610771952491"><ele>857.0</ele><time>2026-05-03T10:10:44.002Z</time></trkpt><trkpt lat="41.76219625711195" lon="9.083735322069426"><ele>857.0</ele><time>2026-05-03T10:10:45.002Z</time></trkpt><trkpt lat="41.76227880140116" lon="9.083880913960082"><ele>857.0</ele><time>2026-05-03T10:10:46.002Z</time></trkpt><trkpt lat="41.7623388889596" lon="9.084071184004548"><ele>857.0</ele><time>2026-05-03T10:10:47.002Z</time></trkpt><trkpt lat="41.76239738503477" lon="9.08426854525631"><ele>861.3333333333334</ele><time>2026-05-03T10:10:48.002Z</time></trkpt><trkpt lat="41.762474832825504" lon="9.084457095477719"><ele>865.6666666666667</ele><time>2026-05-03T10:10:49.002Z</time></trkpt><trkpt lat="41.76258879717553" lon="9.084613940641715"><ele>870.0</ele><time>2026-05-03T10:10:50.002Z</time></trkpt><trkpt lat="41.76264916454543" lon="9.08479569659895"><ele>873.75</ele><time>2026-05-03T10:10:51.002Z</time></trkpt><trkpt lat="41.76268205623764" lon="9.084974417274598"><ele>877.5</ele><time>2026-05-03T10:10:52.002Z</time></trkpt><trkpt lat="41.76270230524419" lon="9.085167202554517"><ele>881.25</ele><time>2026-05-03T10:10:53.002Z</time></trkpt><trkpt lat="41.76271933243192" lon="9.08537296816912"><ele>885.0</ele><time>2026-05-03T10:10:54.002Z</time></trkpt><trkpt lat="41.76274835373268" lon="9.085582933051244"><ele>874.6666666666667</ele><time>2026-05-03T10:10:55.003Z</time></trkpt><trkpt lat="41.76279884838473" lon="9.085792419241056"><ele>864.3333333333334</ele><time>2026-05-03T10:10:56.003Z</time></trkpt><trkpt lat="41.76286763956531" lon="9.086009687102935"><ele>854.0</ele><time>2026-05-03T10:10:57.003Z</time></trkpt><trkpt lat="41.7629528236208" lon="9.086236704043479"><ele>854.0</ele><time>2026-05-03T10:10:58.003Z</time></trkpt><trkpt lat="41.76305345269251" lon="9.08647279203342"><ele>854.0</ele><time>2026-05-03T10:10:59.003Z</time></trkpt><trkpt lat="41.76316446275329" lon="9.08670615036498"><ele>854.0</ele><time>2026-05-03T10:11:00.003Z</time></trkpt><trkpt lat="41.76328193175629" lon="9.086931901819769"><ele>857.0</ele><time>2026-05-03T10:11:01.003Z</time></trkpt><trkpt lat="41.763381705291906" lon="9.087182381434168"><ele>860.0</ele><time>2026-05-03T10:11:02.003Z</time></trkpt><trkpt lat="41.763477974199134" lon="9.087437716296535"><ele>863.0</ele><time>2026-05-03T10:11:03.003Z</time></trkpt><trkpt lat="41.76356539703976" lon="9.087678696225883"><ele>858.3333333333334</ele><time>2026-05-03T10:11:04.003Z</time></trkpt><trkpt lat="41.76364056489008" lon="9.087897324439817"><ele>853.6666666666667</ele><time>2026-05-03T10:11:05.003Z</time></trkpt><trkpt lat="41.76370425880546" lon="9.088101805523829"><ele>849.0</ele><time>2026-05-03T10:11:06.003Z</time></trkpt><trkpt lat="41.763739650877596" lon="9.088289666377483"><ele>849.0</ele><time>2026-05-03T10:11:07.003Z</time></trkpt><trkpt lat="41.76373184492322" lon="9.088474318409448"><ele>849.0</ele><time>2026-05-03T10:11:08.003Z</time></trkpt><trkpt lat="41.76372885495561" lon="9.088668082093854"><ele>849.0</ele><time>2026-05-03T10:11:09.003Z</time></trkpt><trkpt lat="41.7637617467837" lon="9.088836600698931"><ele>849.0</ele><time>2026-05-03T10:11:10.003Z</time></trkpt><trkpt lat="41.763800636194766" lon="9.089027265831772"><ele>850.75</ele><time>2026-05-03T10:11:11.003Z</time></trkpt><trkpt lat="41.763813626340955" lon="9.08923689931256"><ele>852.5</ele><time>2026-05-03T10:11:12.003Z</time></trkpt><trkpt lat="41.763807162558166" lon="9.089435248984723"><ele>854.25</ele><time>2026-05-03T10:11:13.003Z</time></trkpt><trkpt lat="41.76382562823615" lon="9.08959539403044"><ele>856.0</ele><time>2026-05-03T10:11:14.003Z</time></trkpt><trkpt lat="41.76386774453214" lon="9.0897277264468"><ele>856.0</ele><time>2026-05-03T10:11:15.003Z</time></trkpt><trkpt lat="41.763934051729535" lon="9.089801606091454"><ele>855.9999999999999</ele><time>2026-05-03T10:11:16.003Z</time></trkpt><trkpt lat="41.76402984546883" lon="9.089821805642194"><ele>855.9999999999999</ele><time>2026-05-03T10:11:17.003Z</time></trkpt><trkpt lat="41.76416526726701" lon="9.089774504170771"><ele>856.0</ele><time>2026-05-03T10:11:18.003Z</time></trkpt><trkpt lat="41.76427807255663" lon="9.089715518408829"><ele>856.0</ele><time>2026-05-03T10:11:19.003Z</time></trkpt><trkpt lat="41.7644165288303" lon="9.089672165817786"><ele>856.75</ele><time>2026-05-03T10:11:20.003Z</time></trkpt><trkpt lat="41.76455205570963" lon="9.089632428512862"><ele>857.5</ele><time>2026-05-03T10:11:21.003Z</time></trkpt><trkpt lat="41.764683850447426" lon="9.089568396332261"><ele>858.25</ele><time>2026-05-03T10:11:22.003Z</time></trkpt><trkpt lat="41.764770594775555" lon="9.08938613837009"><ele>859.0</ele><time>2026-05-03T10:11:23.003Z</time></trkpt><trkpt lat="41.76486005678652" lon="9.08921059750002"><ele>857.3333333333333</ele><time>2026-05-03T10:11:23.999Z</time></trkpt><trkpt lat="41.76499794240345" lon="9.089086666302702"><ele>855.6666666666667</ele><time>2026-05-03T10:11:24.999Z</time></trkpt><trkpt lat="41.76515045691069" lon="9.088957285848007"><ele>854.0</ele><time>2026-05-03T10:11:25.999Z</time></trkpt><trkpt lat="41.765297723217316" lon="9.088857014027287"><ele>854.0</ele><time>2026-05-03T10:11:26.999Z</time></trkpt><trkpt lat="41.765435864764605" lon="9.08876103258242"><ele>854.0</ele><time>2026-05-03T10:11:27.999Z</time></trkpt><trkpt lat="41.765585636460465" lon="9.088682574169889"><ele>854.0</ele><time>2026-05-03T10:11:28.999Z</time></trkpt><trkpt lat="41.765740684071666" lon="9.088659854746822"><ele>854.0</ele><time>2026-05-03T10:11:29.999Z</time></trkpt><trkpt lat="41.76587938124083" lon="9.088699145047602"><ele>854.0</ele><time>2026-05-03T10:11:30.999Z</time></trkpt><trkpt lat="41.765998334000244" lon="9.088734710193895"><ele>854.0</ele><time>2026-05-03T10:11:31.999Z</time></trkpt><trkpt lat="41.76609198506915" lon="9.08869715984188"><ele>854.0</ele><time>2026-05-03T10:11:32.999Z</time></trkpt><trkpt lat="41.766164500338405" lon="9.088619560797342"><ele>857.5</ele><time>2026-05-03T10:11:33.999Z</time></trkpt><trkpt lat="41.766154893017166" lon="9.088464316441279"><ele>861.0</ele><time>2026-05-03T10:11:34.999Z</time></trkpt><trkpt lat="41.7661153202362" lon="9.088282430815244"><ele>864.5</ele><time>2026-05-03T10:11:35.999Z</time></trkpt><trkpt lat="41.76608200551319" lon="9.088108863555794"><ele>868.0</ele><time>2026-05-03T10:11:37Z</time></trkpt><trkpt lat="41.76606316321307" lon="9.087919375630111"><ele>868.0</ele><time>2026-05-03T10:11:38Z</time></trkpt><trkpt lat="41.766032818998525" lon="9.087731713527445"><ele>868.0</ele><time>2026-05-03T10:11:39Z</time></trkpt><trkpt lat="41.76599264533267" lon="9.087536171188898"><ele>868.0</ele><time>2026-05-03T10:11:40Z</time></trkpt><trkpt lat="41.766008606552575" lon="9.08732646209949"><ele>867.0</ele><time>2026-05-03T10:11:41Z</time></trkpt><trkpt lat="41.766062900830164" lon="9.087111376625128"><ele>866.0</ele><time>2026-05-03T10:11:42Z</time></trkpt><trkpt lat="41.76615562498919" lon="9.086927119427422"><ele>865.0</ele><time>2026-05-03T10:11:43Z</time></trkpt><trkpt lat="41.76626795229524" lon="9.086773552653035"><ele>865.0</ele><time>2026-05-03T10:11:44Z</time></trkpt><trkpt lat="41.766389685388695" lon="9.086607808614724"><ele>865.0</ele><time>2026-05-03T10:11:45Z</time></trkpt><trkpt lat="41.7665113387252" lon="9.08642768983157"><ele>865.0</ele><time>2026-05-03T10:11:46Z</time></trkpt><trkpt lat="41.76664017846817" lon="9.086243892481416"><ele>863.0</ele><time>2026-05-03T10:11:47Z</time></trkpt><trkpt lat="41.76679064623879" lon="9.086073071346327"><ele>861.0</ele><time>2026-05-03T10:11:48Z</time></trkpt><trkpt lat="41.76693369768456" lon="9.085919432050101"><ele>859.0</ele><time>2026-05-03T10:11:49Z</time></trkpt><trkpt lat="41.767067258002996" lon="9.085770933358969"><ele>853.5</ele><time>2026-05-03T10:11:50Z</time></trkpt><trkpt lat="41.76719068326705" lon="9.085634759111734"><ele>848.0</ele><time>2026-05-03T10:11:51Z</time></trkpt><trkpt lat="41.76730368823542" lon="9.085504878583789"><ele>842.5</ele><time>2026-05-03T10:11:52Z</time></trkpt><trkpt lat="41.767410327862066" lon="9.085405689318966"><ele>837.0</ele><time>2026-05-03T10:11:53Z</time></trkpt><trkpt lat="41.76752451988868" lon="9.085369063045171"><ele>837.0</ele><time>2026-05-03T10:11:54Z</time></trkpt><trkpt lat="41.76763963341999" lon="9.085405168626998"><ele>837.0</ele><time>2026-05-03T10:11:55Z</time></trkpt><trkpt lat="41.76775620309966" lon="9.085498879959816"><ele>837.0</ele><time>2026-05-03T10:11:56Z</time></trkpt><trkpt lat="41.76787172418105" lon="9.08562647905549"><ele>837.0</ele><time>2026-05-03T10:11:57Z</time></trkpt><trkpt lat="41.7680017267487" lon="9.085736099840258"><ele>843.3333333333333</ele><time>2026-05-03T10:11:58.001Z</time></trkpt><trkpt lat="41.76814525067745" lon="9.085809821174864"><ele>849.6666666666666</ele><time>2026-05-03T10:11:59.001Z</time></trkpt><trkpt lat="41.7683022023866" lon="9.085836872200844"><ele>856.0</ele><time>2026-05-03T10:12:00.001Z</time></trkpt><trkpt lat="41.768445451420554" lon="9.085798892168414"><ele>859.0</ele><time>2026-05-03T10:12:01.001Z</time></trkpt><trkpt lat="41.768570922904864" lon="9.085740021607501"><ele>862.0</ele><time>2026-05-03T10:12:02.001Z</time></trkpt><trkpt lat="41.768695630280725" lon="9.085714583164055"><ele>865.0</ele><time>2026-05-03T10:12:03.001Z</time></trkpt><trkpt lat="41.76881402476324" lon="9.085716491811196"><ele>868.0</ele><time>2026-05-03T10:12:04.001Z</time></trkpt><trkpt lat="41.76889560968131" lon="9.085702560153267"><ele>868.0</ele><time>2026-05-03T10:12:05.001Z</time></trkpt><trkpt lat="41.76894816128703" lon="9.085636089089558"><ele>868.0</ele><time>2026-05-03T10:12:06.001Z</time></trkpt><trkpt lat="41.76898551514136" lon="9.085525715272576"><ele>868.0</ele><time>2026-05-03T10:12:07.001Z</time></trkpt><trkpt lat="41.76893933952349" lon="9.085365111645313"><ele>868.0</ele><time>2026-05-03T10:12:08.001Z</time></trkpt><trkpt lat="41.76886076327239" lon="9.08520173462006"><ele>868.0</ele><time>2026-05-03T10:12:09.001Z</time></trkpt><trkpt lat="41.76878494534746" lon="9.085030044808043"><ele>871.5</ele><time>2026-05-03T10:12:10.001Z</time></trkpt><trkpt lat="41.768699817494976" lon="9.08487446044434"><ele>875.0</ele><time>2026-05-03T10:12:11.001Z</time></trkpt><trkpt lat="41.7686232560748" lon="9.084714214805036"><ele>878.5</ele><time>2026-05-03T10:12:12.001Z</time></trkpt><trkpt lat="41.76856180538466" lon="9.084520844821343"><ele>882.0</ele><time>2026-05-03T10:12:13.001Z</time></trkpt><trkpt lat="41.76854535451155" lon="9.08428032235735"><ele>881.0</ele><time>2026-05-03T10:12:14.001Z</time></trkpt><trkpt lat="41.76853931514775" lon="9.084039624494867"><ele>880.0</ele><time>2026-05-03T10:12:15.001Z</time></trkpt><trkpt lat="41.768530230969944" lon="9.083809770339851"><ele>879.0</ele><time>2026-05-03T10:12:16.001Z</time></trkpt><trkpt lat="41.76854220295004" lon="9.083574870283694"><ele>879.0</ele><time>2026-05-03T10:12:17.001Z</time></trkpt><trkpt lat="41.768530236120654" lon="9.083353452683134"><ele>879.0</ele><time>2026-05-03T10:12:18.001Z</time></trkpt><trkpt lat="41.76857206380479" lon="9.083150049265251"><ele>879.0</ele><time>2026-05-03T10:12:19.001Z</time></trkpt><trkpt lat="41.76864768258925" lon="9.082945498890354"><ele>876.5</ele><time>2026-05-03T10:12:20.001Z</time></trkpt><trkpt lat="41.76871593847326" lon="9.082757142536868"><ele>874.0</ele><time>2026-05-03T10:12:21.001Z</time></trkpt><trkpt lat="41.76876589874445" lon="9.082575357287505"><ele>871.5</ele><time>2026-05-03T10:12:22.001Z</time></trkpt><trkpt lat="41.76879921854782" lon="9.082387202165132"><ele>869.0</ele><time>2026-05-03T10:12:23.001Z</time></trkpt><trkpt lat="41.76881377708673" lon="9.082196789562882"><ele>868.5</ele><time>2026-05-03T10:12:24.001Z</time></trkpt><trkpt lat="41.768800111225886" lon="9.08201466611013"><ele>868.0</ele><time>2026-05-03T10:12:25.001Z</time></trkpt><trkpt lat="41.76878888029366" lon="9.081852867308886"><ele>867.5</ele><time>2026-05-03T10:12:26.001Z</time></trkpt><trkpt lat="41.768798603118626" lon="9.08170211898221"><ele>867.0</ele><time>2026-05-03T10:12:27.002Z</time></trkpt><trkpt lat="41.768780655749616" lon="9.081568062736338"><ele>865.7142857142857</ele><time>2026-05-03T10:12:28.002Z</time></trkpt><trkpt lat="41.76878346652594" lon="9.081455874972928"><ele>864.4285714285714</ele><time>2026-05-03T10:12:29.002Z</time></trkpt><trkpt lat="41.76878698077677" lon="9.081359066903866"><ele>863.1428571428571</ele><time>2026-05-03T10:12:30.002Z</time></trkpt><trkpt lat="41.76878666474109" lon="9.081271491799729"><ele>861.8571428571429</ele><time>2026-05-03T10:12:31.002Z</time></trkpt><trkpt lat="41.76878882042062" lon="9.081183721627292"><ele>860.5714285714287</ele><time>2026-05-03T10:12:32.002Z</time></trkpt><trkpt lat="41.76879638374955" lon="9.081089292393088"><ele>859.2857142857143</ele><time>2026-05-03T10:12:33.002Z</time></trkpt><trkpt lat="41.76880986659759" lon="9.080989388311671"><ele>858.0</ele><time>2026-05-03T10:12:34.002Z</time></trkpt><trkpt lat="41.76882482817744" lon="9.080883877376916"><ele>858.0</ele><time>2026-05-03T10:12:35.002Z</time></trkpt><trkpt lat="41.76884344820404" lon="9.080781459883156"><ele>858.0</ele><time>2026-05-03T10:12:36.002Z</time></trkpt><trkpt lat="41.76887023405439" lon="9.080687341511425"><ele>858.0</ele><time>2026-05-03T10:12:37.002Z</time></trkpt><trkpt lat="41.76889230553609" lon="9.080602324767073"><ele>858.0</ele><time>2026-05-03T10:12:38.002Z</time></trkpt><trkpt lat="41.76891044555574" lon="9.080519690054885"><ele>858.0</ele><time>2026-05-03T10:12:39.002Z</time></trkpt><trkpt lat="41.768957360516076" lon="9.080382012963478"><ele>858.0</ele><time>2026-05-03T10:12:41.002Z</time></trkpt><trkpt lat="41.7689952393722" lon="9.080233507815969"><ele>856.2</ele><time>2026-05-03T10:12:43.002Z</time></trkpt><trkpt lat="41.76902283408451" lon="9.080072865531864"><ele>854.4</ele><time>2026-05-03T10:12:45.002Z</time></trkpt><trkpt lat="41.76908130926986" lon="9.079922186331535"><ele>852.6</ele><time>2026-05-03T10:12:47.002Z</time></trkpt><trkpt lat="41.76913697613653" lon="9.079881386822585"><ele>850.8000000000001</ele><time>2026-05-03T10:12:48.002Z</time></trkpt><trkpt lat="41.76926774146745" lon="9.0799261793496"><ele>849.0</ele><time>2026-05-03T10:12:50.002Z</time></trkpt><trkpt lat="41.769335500184155" lon="9.07996442159563"><ele>848.3333333333334</ele><time>2026-05-03T10:12:51.002Z</time></trkpt><trkpt lat="41.76941182771011" lon="9.079972112914923"><ele>847.6666666666667</ele><time>2026-05-03T10:12:52.002Z</time></trkpt><trkpt lat="41.76949430559263" lon="9.079985223984972"><ele>847.0</ele><time>2026-05-03T10:12:53.002Z</time></trkpt><trkpt lat="41.769575625112765" lon="9.080066006253602"><ele>846.3333333333334</ele><time>2026-05-03T10:12:54.002Z</time></trkpt><trkpt lat="41.76965757537313" lon="9.080096060744241"><ele>845.6666666666667</ele><time>2026-05-03T10:12:55.002Z</time></trkpt><trkpt lat="41.76973380767844" lon="9.080113754315928"><ele>845.0</ele><time>2026-05-03T10:12:56.002Z</time></trkpt><trkpt lat="41.76979764266252" lon="9.08016135205361"><ele>845.0</ele><time>2026-05-03T10:12:57.002Z</time></trkpt><trkpt lat="41.76986165583933" lon="9.080170856918906"><ele>845.0</ele><time>2026-05-03T10:12:58.002Z</time></trkpt><trkpt lat="41.76997624814952" lon="9.080223806123444"><ele>845.0</ele><time>2026-05-03T10:13:00.003Z</time></trkpt><trkpt lat="41.77008365361262" lon="9.080254914652135"><ele>845.0</ele><time>2026-05-03T10:13:02.003Z</time></trkpt><trkpt lat="41.77018377348838" lon="9.080258535445374"><ele>845.0</ele><time>2026-05-03T10:13:04.003Z</time></trkpt><trkpt lat="41.77027599513708" lon="9.080273801490577"><ele>843.25</ele><time>2026-05-03T10:13:06.003Z</time></trkpt><trkpt lat="41.77037901247392" lon="9.08028620687958"><ele>841.5</ele><time>2026-05-03T10:13:08.003Z</time></trkpt><trkpt lat="41.77048864557975" lon="9.080307865403647"><ele>839.75</ele><time>2026-05-03T10:13:10.003Z</time></trkpt><trkpt lat="41.77061562786351" lon="9.080320809061652"><ele>838.0</ele><time>2026-05-03T10:13:12.003Z</time></trkpt><trkpt lat="41.770733503336714" lon="9.080340708461955"><ele>837.9999999999999</ele><time>2026-05-03T10:13:14.003Z</time></trkpt><trkpt lat="41.77084779070302" lon="9.080355284043234"><ele>838.0</ele><time>2026-05-03T10:13:16.003Z</time></trkpt><trkpt lat="41.77091110292151" lon="9.080364373861588"><ele>838.0</ele><time>2026-05-03T10:13:17.003Z</time></trkpt><trkpt lat="41.7709810831515" lon="9.080360070673963"><ele>838.0</ele><time>2026-05-03T10:13:18.003Z</time></trkpt><trkpt lat="41.77105648087538" lon="9.080354437275068"><ele>837.9999999999999</ele><time>2026-05-03T10:13:19.003Z</time></trkpt><trkpt lat="41.77113469554211" lon="9.080354957707296"><ele>838.0</ele><time>2026-05-03T10:13:20.003Z</time></trkpt><trkpt lat="41.77121680008368" lon="9.080345881685744"><ele>837.3333333333333</ele><time>2026-05-03T10:13:21.003Z</time></trkpt><trkpt lat="41.77129402124644" lon="9.080338957467527"><ele>836.6666666666666</ele><time>2026-05-03T10:13:22.003Z</time></trkpt><trkpt lat="41.77136855561723" lon="9.080334275872453"><ele>836.0</ele><time>2026-05-03T10:13:23.003Z</time></trkpt><trkpt lat="41.77144137911603" lon="9.080335205964555"><ele>835.3333333333333</ele><time>2026-05-03T10:13:24.003Z</time></trkpt><trkpt lat="41.77150472990142" lon="9.080336871693797"><ele>834.6666666666666</ele><time>2026-05-03T10:13:25.003Z</time></trkpt><trkpt lat="41.77162803309534" lon="9.080333619985476"><ele>834.0</ele><time>2026-05-03T10:13:27.003Z</time></trkpt><trkpt lat="41.771741881998366" lon="9.08033113810799"><ele>834.0</ele><time>2026-05-03T10:13:29.003Z</time></trkpt><trkpt lat="41.771856044851766" lon="9.080336644073224"><ele>834.0</ele><time>2026-05-03T10:13:30.999Z</time></trkpt><trkpt lat="41.77196114330394" lon="9.080278313904527"><ele>834.0</ele><time>2026-05-03T10:13:32.999Z</time></trkpt><trkpt lat="41.772040021290564" lon="9.080193644156488"><ele>834.0</ele><time>2026-05-03T10:13:34.999Z</time></trkpt><trkpt lat="41.772096757650566" lon="9.080110871059905"><ele>834.0</ele><time>2026-05-03T10:13:36.999Z</time></trkpt><trkpt lat="41.77216929081208" lon="9.080057838862212"><ele>833.6666666666666</ele><time>2026-05-03T10:13:39.999Z</time></trkpt><trkpt lat="41.77223375785477" lon="9.080038669767124"><ele>833.3333333333333</ele><time>2026-05-03T10:13:42Z</time></trkpt><trkpt lat="41.772316806864" lon="9.080068930168586"><ele>833.0</ele><time>2026-05-03T10:13:44Z</time></trkpt><trkpt lat="41.77238421354591" lon="9.080159200975585"><ele>832.6666666666666</ele><time>2026-05-03T10:13:46Z</time></trkpt><trkpt lat="41.77243046077262" lon="9.080276855788288"><ele>832.3333333333333</ele><time>2026-05-03T10:13:48Z</time></trkpt><trkpt lat="41.77246949171385" lon="9.08039309829955"><ele>832.0</ele><time>2026-05-03T10:13:50Z</time></trkpt><trkpt lat="41.77250093883194" lon="9.080500494888538"><ele>831.9999999999999</ele><time>2026-05-03T10:13:52Z</time></trkpt><trkpt lat="41.772533178048604" lon="9.080599113394424"><ele>832.0</ele><time>2026-05-03T10:13:54Z</time></trkpt><trkpt lat="41.7725719916969" lon="9.080692516249867"><ele>832.0</ele><time>2026-05-03T10:13:56Z</time></trkpt><trkpt lat="41.772631912486105" lon="9.08076178914214"><ele>832.0</ele><time>2026-05-03T10:13:58Z</time></trkpt><trkpt lat="41.77271398405536" lon="9.080813650452052"><ele>831.9999999999999</ele><time>2026-05-03T10:14:00Z</time></trkpt><trkpt lat="41.77281419246875" lon="9.080843893262038"><ele>832.0</ele><time>2026-05-03T10:14:02Z</time></trkpt><trkpt lat="41.772921720629235" lon="9.08084884032792"><ele>832.1666666666666</ele><time>2026-05-03T10:14:04Z</time></trkpt><trkpt lat="41.773035908654784" lon="9.080872825509243"><ele>832.3333333333333</ele><time>2026-05-03T10:14:06.001Z</time></trkpt><trkpt lat="41.773102831130686" lon="9.080888300582064"><ele>832.5</ele><time>2026-05-03T10:14:07.001Z</time></trkpt><trkpt lat="41.773179634883824" lon="9.080912468777766"><ele>832.6666666666667</ele><time>2026-05-03T10:14:08.001Z</time></trkpt><trkpt lat="41.773250514009284" lon="9.080937721466322"><ele>832.8333333333334</ele><time>2026-05-03T10:14:09.001Z</time></trkpt><trkpt lat="41.773317122985134" lon="9.08096188076797"><ele>833.0</ele><time>2026-05-03T10:14:10.001Z</time></trkpt><trkpt lat="41.77341915263883" lon="9.08100481134875"><ele>830.0</ele><time>2026-05-03T10:14:12.001Z</time></trkpt><trkpt lat="41.773526986811525" lon="9.081100268672131"><ele>827.0</ele><time>2026-05-03T10:14:14.001Z</time></trkpt><trkpt lat="41.77357044357911" lon="9.08116179838294"><ele>824.0</ele><time>2026-05-03T10:14:15.001Z</time></trkpt><trkpt lat="41.7736490852601" lon="9.08129861776903"><ele>821.0</ele><time>2026-05-03T10:14:17.001Z</time></trkpt><trkpt lat="41.77368493452532" lon="9.081376297215684"><ele>818.0</ele><time>2026-05-03T10:14:18.001Z</time></trkpt><trkpt lat="41.773751689268835" lon="9.081502934960984"><ele>820.5999999999999</ele><time>2026-05-03T10:14:20.001Z</time></trkpt><trkpt lat="41.773812624741474" lon="9.081626150003622"><ele>823.1999999999999</ele><time>2026-05-03T10:14:22.001Z</time></trkpt><trkpt lat="41.77388017512279" lon="9.081754341655111"><ele>825.8</ele><time>2026-05-03T10:14:24.001Z</time></trkpt><trkpt lat="41.773953872290754" lon="9.081894775740057"><ele>828.4</ele><time>2026-05-03T10:14:26.001Z</time></trkpt><trkpt lat="41.77398955715786" lon="9.081967497632766"><ele>831.0</ele><time>2026-05-03T10:14:27.001Z</time></trkpt><trkpt lat="41.77402446928934" lon="9.082040994333916"><ele>831.0</ele><time>2026-05-03T10:14:28.001Z</time></trkpt><trkpt lat="41.7740611373838" lon="9.082120150782979"><ele>831.0</ele><time>2026-05-03T10:14:29.001Z</time></trkpt><trkpt lat="41.774102956394174" lon="9.082207582776704"><ele>831.0</ele><time>2026-05-03T10:14:30.001Z</time></trkpt><trkpt lat="41.7741433873255" lon="9.082304406126058"><ele>831.0</ele><time>2026-05-03T10:14:31.001Z</time></trkpt><trkpt lat="41.77418129365204" lon="9.082412063529727"><ele>831.0</ele><time>2026-05-03T10:14:32.001Z</time></trkpt><trkpt lat="41.774214925253936" lon="9.082530350416459"><ele>831.0</ele><time>2026-05-03T10:14:33.001Z</time></trkpt><trkpt lat="41.774239570274354" lon="9.082652832644344"><ele>833.1999999999999</ele><time>2026-05-03T10:14:34.001Z</time></trkpt><trkpt lat="41.77424601442977" lon="9.082790134552043"><ele>835.4</ele><time>2026-05-03T10:14:35.002Z</time></trkpt><trkpt lat="41.77423357072836" lon="9.082931596714431"><ele>837.6</ele><time>2026-05-03T10:14:36.002Z</time></trkpt><trkpt lat="41.77421936946252" lon="9.083084414928965"><ele>839.8</ele><time>2026-05-03T10:14:37.002Z</time></trkpt><trkpt lat="41.774228403027124" lon="9.08324805637259"><ele>842.0</ele><time>2026-05-03T10:14:38.002Z</time></trkpt><trkpt lat="41.7742833801592" lon="9.083395563592878"><ele>836.5</ele><time>2026-05-03T10:14:39.002Z</time></trkpt><trkpt lat="41.77435483630959" lon="9.083518056476812"><ele>831.0</ele><time>2026-05-03T10:14:40.002Z</time></trkpt><trkpt lat="41.77440476472157" lon="9.083660379729107"><ele>825.5</ele><time>2026-05-03T10:14:41.002Z</time></trkpt><trkpt lat="41.774420176392816" lon="9.083852920666683"><ele>820.0</ele><time>2026-05-03T10:14:42.002Z</time></trkpt><trkpt lat="41.7744251887334" lon="9.08406799981113"><ele>821.0</ele><time>2026-05-03T10:14:43.002Z</time></trkpt><trkpt lat="41.77449811160543" lon="9.084273981766643"><ele>822.0</ele><time>2026-05-03T10:14:44.002Z</time></trkpt><trkpt lat="41.774569676002415" lon="9.084447744516456"><ele>823.0</ele><time>2026-05-03T10:14:45.002Z</time></trkpt><trkpt lat="41.7746087958145" lon="9.08458360194438"><ele>824.0</ele><time>2026-05-03T10:14:46.002Z</time></trkpt><trkpt lat="41.77461994805012" lon="9.084700626418787"><ele>824.0000000000001</ele><time>2026-05-03T10:14:47.002Z</time></trkpt><trkpt lat="41.77459712373971" lon="9.084811957456932"><ele>824.0</ele><time>2026-05-03T10:14:48.002Z</time></trkpt><trkpt lat="41.774542407632225" lon="9.084900837856743"><ele>824.0</ele><time>2026-05-03T10:14:49.002Z</time></trkpt><trkpt lat="41.774449297095295" lon="9.084910187282665"><ele>824.0</ele><time>2026-05-03T10:14:50.002Z</time></trkpt><trkpt lat="41.77436838117936" lon="9.084945725329888"><ele>824.0000000000001</ele><time>2026-05-03T10:14:51.002Z</time></trkpt><trkpt lat="41.77427840592835" lon="9.084989164910041"><ele>824.0</ele><time>2026-05-03T10:14:52.002Z</time></trkpt><trkpt lat="41.774202041977794" lon="9.085094557511342"><ele>828.6</ele><time>2026-05-03T10:14:53.002Z</time></trkpt><trkpt lat="41.77417049793558" lon="9.085228769332756"><ele>833.2</ele><time>2026-05-03T10:14:54.002Z</time></trkpt><trkpt lat="41.77418335753928" lon="9.085360183469868"><ele>837.8000000000001</ele><time>2026-05-03T10:14:55.002Z</time></trkpt><trkpt lat="41.77421766679752" lon="9.085462473071667"><ele>842.4000000000001</ele><time>2026-05-03T10:14:56.002Z</time></trkpt><trkpt lat="41.77425449104086" lon="9.085558668410954"><ele>847.0</ele><time>2026-05-03T10:14:57.002Z</time></trkpt><trkpt lat="41.7742992117104" lon="9.085709364256845"><ele>847.5</ele><time>2026-05-03T10:14:58.002Z</time></trkpt><trkpt lat="41.77434873553702" lon="9.085899086346833"><ele>848.0</ele><time>2026-05-03T10:14:59.002Z</time></trkpt><trkpt lat="41.77438347684936" lon="9.086058777074912"><ele>848.5</ele><time>2026-05-03T10:15:00.002Z</time></trkpt><trkpt lat="41.77437245458562" lon="9.086194953607885"><ele>849.0</ele><time>2026-05-03T10:15:01.002Z</time></trkpt><trkpt lat="41.774337169425344" lon="9.086295613258354"><ele>849.0</ele><time>2026-05-03T10:15:02.002Z</time></trkpt><trkpt lat="41.77426293356574" lon="9.086363176291682"><ele>849.0</ele><time>2026-05-03T10:15:03.002Z</time></trkpt><trkpt lat="41.77420145478913" lon="9.086470043939464"><ele>849.0</ele><time>2026-05-03T10:15:04.002Z</time></trkpt><trkpt lat="41.7741633364301" lon="9.086599798230681"><ele>849.0</ele><time>2026-05-03T10:15:05.002Z</time></trkpt><trkpt lat="41.7741522644046" lon="9.086766682176705"><ele>849.0</ele><time>2026-05-03T10:15:06.002Z</time></trkpt><trkpt lat="41.7741646138234" lon="9.086946114042846"><ele>848.8000000000001</ele><time>2026-05-03T10:15:07.003Z</time></trkpt><trkpt lat="41.77414430087775" lon="9.087099551004593"><ele>848.6</ele><time>2026-05-03T10:15:08.003Z</time></trkpt><trkpt lat="41.77414475283021" lon="9.087230161861575"><ele>848.4</ele><time>2026-05-03T10:15:09.003Z</time></trkpt><trkpt lat="41.77407500202245" lon="9.087330540059513"><ele>848.2</ele><time>2026-05-03T10:15:10.003Z</time></trkpt><trkpt lat="41.77401917402429" lon="9.087451965084487"><ele>848.0</ele><time>2026-05-03T10:15:11.003Z</time></trkpt><trkpt lat="41.773978071938956" lon="9.087567489524467"><ele>846.5999999999999</ele><time>2026-05-03T10:15:12.003Z</time></trkpt><trkpt lat="41.77392973265145" lon="9.087658999726695"><ele>845.1999999999999</ele><time>2026-05-03T10:15:13.003Z</time></trkpt><trkpt lat="41.77385984474821" lon="9.087717483074057"><ele>843.8</ele><time>2026-05-03T10:15:14.003Z</time></trkpt><trkpt lat="41.77377848768271" lon="9.087773286268973"><ele>842.4</ele><time>2026-05-03T10:15:15.003Z</time></trkpt><trkpt lat="41.773686008841345" lon="9.087829631953948"><ele>841.0</ele><time>2026-05-03T10:15:16.003Z</time></trkpt><trkpt lat="41.773604096219174" lon="9.087902947173307"><ele>841.0</ele><time>2026-05-03T10:15:17.003Z</time></trkpt><trkpt lat="41.773539423970604" lon="9.088021514488515"><ele>841.0</ele><time>2026-05-03T10:15:18.003Z</time></trkpt><trkpt lat="41.773502538595025" lon="9.088139381484376"><ele>841.0</ele><time>2026-05-03T10:15:19.003Z</time></trkpt><trkpt lat="41.77351484565866" lon="9.08830186098594"><ele>841.0</ele><time>2026-05-03T10:15:20.003Z</time></trkpt><trkpt lat="41.773547339777046" lon="9.088493928892271"><ele>840.5</ele><time>2026-05-03T10:15:21.003Z</time></trkpt><trkpt lat="41.77354186176202" lon="9.088694102633612"><ele>840.0</ele><time>2026-05-03T10:15:22.003Z</time></trkpt><trkpt lat="41.773534562054216" lon="9.08889735626188"><ele>839.5</ele><time>2026-05-03T10:15:23.003Z</time></trkpt><trkpt lat="41.77352691902278" lon="9.089074368769413"><ele>839.0</ele><time>2026-05-03T10:15:24.003Z</time></trkpt><trkpt lat="41.77351812041411" lon="9.089231704154269"><ele>844.5</ele><time>2026-05-03T10:15:25.003Z</time></trkpt><trkpt lat="41.773492914081054" lon="9.089367125288637"><ele>850.0</ele><time>2026-05-03T10:15:26.003Z</time></trkpt><trkpt lat="41.773434468810756" lon="9.08949386452949"><ele>855.5</ele><time>2026-05-03T10:15:27.003Z</time></trkpt><trkpt lat="41.773364220619456" lon="9.089640054187084"><ele>861.0</ele><time>2026-05-03T10:15:28.003Z</time></trkpt><trkpt lat="41.77329238368122" lon="9.0897910767392"><ele>860.0</ele><time>2026-05-03T10:15:29.003Z</time></trkpt><trkpt lat="41.77323891127638" lon="9.089940115572054"><ele>858.9999999999999</ele><time>2026-05-03T10:15:30.003Z</time></trkpt><trkpt lat="41.77319898974163" lon="9.090062951230603"><ele>857.9999999999999</ele><time>2026-05-03T10:15:31.003Z</time></trkpt><trkpt lat="41.77319223593958" lon="9.090177044184117"><ele>857.0</ele><time>2026-05-03T10:15:32.003Z</time></trkpt><trkpt lat="41.773227612651354" lon="9.090286004713752"><ele>856.0</ele><time>2026-05-03T10:15:33.003Z</time></trkpt><trkpt lat="41.77330967680135" lon="9.0903727275022"><ele>856.0</ele><time>2026-05-03T10:15:34.003Z</time></trkpt><trkpt lat="41.77341207689094" lon="9.090424709853808"><ele>856.0</ele><time>2026-05-03T10:15:35.003Z</time></trkpt><trkpt lat="41.7735256303335" lon="9.090430951561363"><ele>856.0</ele><time>2026-05-03T10:15:35.999Z</time></trkpt><trkpt lat="41.77365147345666" lon="9.09038028723073"><ele>856.0</ele><time>2026-05-03T10:15:36.999Z</time></trkpt><trkpt lat="41.77379039195346" lon="9.090288784593405"><ele>856.3333333333333</ele><time>2026-05-03T10:15:37.999Z</time></trkpt><trkpt lat="41.773938566258785" lon="9.090185608581054"><ele>856.6666666666667</ele><time>2026-05-03T10:15:38.999Z</time></trkpt><trkpt lat="41.7741065897415" lon="9.090093284387995"><ele>857.0</ele><time>2026-05-03T10:15:39.999Z</time></trkpt><trkpt lat="41.77428879831361" lon="9.089987376960314"><ele>857.0</ele><time>2026-05-03T10:15:40.999Z</time></trkpt><trkpt lat="41.77447141032948" lon="9.089869969076542"><ele>857.0</ele><time>2026-05-03T10:15:41.999Z</time></trkpt><trkpt lat="41.774652287664146" lon="9.089751418012714"><ele>857.0</ele><time>2026-05-03T10:15:42.999Z</time></trkpt><trkpt lat="41.774822652532166" lon="9.089606553176347"><ele>857.0</ele><time>2026-05-03T10:15:43.999Z</time></trkpt><trkpt lat="41.774989924584446" lon="9.089484066562948"><ele>857.0</ele><time>2026-05-03T10:15:44.999Z</time></trkpt><trkpt lat="41.77513244504873" lon="9.089362383524483"><ele>857.0</ele><time>2026-05-03T10:15:45.999Z</time></trkpt><trkpt lat="41.77526401637154" lon="9.089234187998965"><ele>858.25</ele><time>2026-05-03T10:15:46.999Z</time></trkpt><trkpt lat="41.775396143414426" lon="9.089122464766337"><ele>859.5</ele><time>2026-05-03T10:15:47.999Z</time></trkpt><trkpt lat="41.77551308572762" lon="9.089016654729306"><ele>860.75</ele><time>2026-05-03T10:15:48.999Z</time></trkpt><trkpt lat="41.77562705689488" lon="9.088940717607334"><ele>862.0</ele><time>2026-05-03T10:15:50Z</time></trkpt><trkpt lat="41.775736307166156" lon="9.088909115290752"><ele>862.0</ele><time>2026-05-03T10:15:51Z</time></trkpt><trkpt lat="41.77582660724461" lon="9.088940747225417"><ele>862.0</ele><time>2026-05-03T10:15:52Z</time></trkpt><trkpt lat="41.77589835849204" lon="9.089028186518929"><ele>862.0</ele><time>2026-05-03T10:15:53Z</time></trkpt><trkpt lat="41.77594903671095" lon="9.089154254021624"><ele>862.0</ele><time>2026-05-03T10:15:54Z</time></trkpt><trkpt lat="41.77600882462305" lon="9.089270001507023"><ele>862.0</ele><time>2026-05-03T10:15:55Z</time></trkpt><trkpt lat="41.77607902122246" lon="9.089381514249443"><ele>862.0</ele><time>2026-05-03T10:15:56Z</time></trkpt><trkpt lat="41.77616065444761" lon="9.089498470759585"><ele>862.0</ele><time>2026-05-03T10:15:57Z</time></trkpt><trkpt lat="41.7762673266372" lon="9.089602655554607"><ele>862.0</ele><time>2026-05-03T10:15:58Z</time></trkpt><trkpt lat="41.77641014534556" lon="9.089667498194713"><ele>862.0</ele><time>2026-05-03T10:15:59Z</time></trkpt><trkpt lat="41.77656330082805" lon="9.089689387205336"><ele>862.0</ele><time>2026-05-03T10:16:00Z</time></trkpt><trkpt lat="41.77672073011957" lon="9.089704599441763"><ele>862.0</ele><time>2026-05-03T10:16:01Z</time></trkpt><trkpt lat="41.776878056693576" lon="9.089733915520954"><ele>862.0</ele><time>2026-05-03T10:16:02Z</time></trkpt><trkpt lat="41.77703809268321" lon="9.089768962067675"><ele>862.3333333333333</ele><time>2026-05-03T10:16:03Z</time></trkpt><trkpt lat="41.77719672396905" lon="9.089807428760166"><ele>862.6666666666667</ele><time>2026-05-03T10:16:04Z</time></trkpt><trkpt lat="41.777365502851765" lon="9.089840802494871"><ele>863.0</ele><time>2026-05-03T10:16:05Z</time></trkpt><trkpt lat="41.77754374679107" lon="9.08987126122294"><ele>863.75</ele><time>2026-05-03T10:16:06Z</time></trkpt><trkpt lat="41.77769926146833" lon="9.089905695600452"><ele>864.5</ele><time>2026-05-03T10:16:07Z</time></trkpt><trkpt lat="41.7778393103809" lon="9.08994597344992"><ele>865.25</ele><time>2026-05-03T10:16:08Z</time></trkpt><trkpt lat="41.77794272760552" lon="9.090055891278823"><ele>866.0</ele><time>2026-05-03T10:16:09Z</time></trkpt><trkpt lat="41.778034684204684" lon="9.090161846566561"><ele>866.0</ele><time>2026-05-03T10:16:10Z</time></trkpt><trkpt lat="41.77808319699987" lon="9.090336495968764"><ele>866.0</ele><time>2026-05-03T10:16:11.001Z</time></trkpt><trkpt lat="41.77817405753757" lon="9.090455694260855"><ele>866.0</ele><time>2026-05-03T10:16:12.001Z</time></trkpt><trkpt lat="41.7782774175677" lon="9.090520225635718"><ele>866.0</ele><time>2026-05-03T10:16:13.001Z</time></trkpt><trkpt lat="41.77842540334439" lon="9.090492208640656"><ele>864.5</ele><time>2026-05-03T10:16:14.001Z</time></trkpt><trkpt lat="41.77858517714716" lon="9.090443260580232"><ele>863.0</ele><time>2026-05-03T10:16:15.001Z</time></trkpt><trkpt lat="41.77870673485148" lon="9.090388215152116"><ele>861.5</ele><time>2026-05-03T10:16:16.001Z</time></trkpt><trkpt lat="41.77881140357942" lon="9.090381256994672"><ele>860.0</ele><time>2026-05-03T10:16:17.001Z</time></trkpt><trkpt lat="41.77889783431749" lon="9.090451909051618"><ele>860.0</ele><time>2026-05-03T10:16:18.001Z</time></trkpt><trkpt lat="41.77895937479782" lon="9.090514530032127"><ele>860.0</ele><time>2026-05-03T10:16:19.001Z</time></trkpt><trkpt lat="41.77896053219653" lon="9.09067562707683"><ele>860.0</ele><time>2026-05-03T10:16:20.001Z</time></trkpt><trkpt lat="41.779022458658474" lon="9.090788322080913"><ele>860.0</ele><time>2026-05-03T10:16:21.001Z</time></trkpt><trkpt lat="41.77911400867245" lon="9.09087625473651"><ele>860.0</ele><time>2026-05-03T10:16:22.001Z</time></trkpt><trkpt lat="41.77923733492675" lon="9.090949000202173"><ele>862.0</ele><time>2026-05-03T10:16:23.001Z</time></trkpt><trkpt lat="41.77938888909196" lon="9.091047680425865"><ele>864.0</ele><time>2026-05-03T10:16:24.001Z</time></trkpt><trkpt lat="41.779533985257736" lon="9.09115934698754"><ele>866.0</ele><time>2026-05-03T10:16:25.001Z</time></trkpt><trkpt lat="41.779665157054836" lon="9.091264153683456"><ele>866.0</ele><time>2026-05-03T10:16:26.001Z</time></trkpt><trkpt lat="41.779782823276875" lon="9.091351682115322"><ele>866.0</ele><time>2026-05-03T10:16:27.001Z</time></trkpt><trkpt lat="41.77990120528589" lon="9.091439763398501"><ele>866.0</ele><time>2026-05-03T10:16:28.001Z</time></trkpt><trkpt lat="41.780001210224405" lon="9.091545756319247"><ele>866.0</ele><time>2026-05-03T10:16:29.001Z</time></trkpt><trkpt lat="41.780071002303856" lon="9.09171170538192"><ele>865.5</ele><time>2026-05-03T10:16:30.001Z</time></trkpt><trkpt lat="41.78014078032275" lon="9.091905607150592"><ele>865.0</ele><time>2026-05-03T10:16:31.001Z</time></trkpt><trkpt lat="41.780208671125585" lon="9.092084313797516"><ele>864.5</ele><time>2026-05-03T10:16:32.001Z</time></trkpt><trkpt lat="41.78026063011395" lon="9.092242757652514"><ele>864.0</ele><time>2026-05-03T10:16:33.001Z</time></trkpt><trkpt lat="41.780317390588806" lon="9.092379128199"><ele>868.75</ele><time>2026-05-03T10:16:34.001Z</time></trkpt><trkpt lat="41.780396520724906" lon="9.092494547583359"><ele>873.5</ele><time>2026-05-03T10:16:35.001Z</time></trkpt><trkpt lat="41.78049763593792" lon="9.092586443223349"><ele>878.25</ele><time>2026-05-03T10:16:36.001Z</time></trkpt><trkpt lat="41.78061893326511" lon="9.092650227516238"><ele>883.0</ele><time>2026-05-03T10:16:37.001Z</time></trkpt><trkpt lat="41.78074229639892" lon="9.092664499164666"><ele>883.0</ele><time>2026-05-03T10:16:38.001Z</time></trkpt><trkpt lat="41.780879737184684" lon="9.092598211277823"><ele>883.0</ele><time>2026-05-03T10:16:39.001Z</time></trkpt><trkpt lat="41.781013764760544" lon="9.09250037840561"><ele>883.0</ele><time>2026-05-03T10:16:40.002Z</time></trkpt><trkpt lat="41.78115033577498" lon="9.09246824159274"><ele>883.0</ele><time>2026-05-03T10:16:41.002Z</time></trkpt><trkpt lat="41.78126945430793" lon="9.092474682966122"><ele>881.0</ele><time>2026-05-03T10:16:42.002Z</time></trkpt><trkpt lat="41.78137568181238" lon="9.09246412549798"><ele>879.0</ele><time>2026-05-03T10:16:43.002Z</time></trkpt><trkpt lat="41.78147598550833" lon="9.092476653811698"><ele>877.0</ele><time>2026-05-03T10:16:44.002Z</time></trkpt><trkpt lat="41.78158638200217" lon="9.09242535901145"><ele>875.0</ele><time>2026-05-03T10:16:45.002Z</time></trkpt><trkpt lat="41.781685997303015" lon="9.092303326243297"><ele>875.0</ele><time>2026-05-03T10:16:46.002Z</time></trkpt><trkpt lat="41.78176565150528" lon="9.09214268628594"><ele>875.0</ele><time>2026-05-03T10:16:47.002Z</time></trkpt><trkpt lat="41.78181924898595" lon="9.091986103641858"><ele>875.0</ele><time>2026-05-03T10:16:48.002Z</time></trkpt><trkpt lat="41.78189137222322" lon="9.091871902867696"><ele>875.0</ele><time>2026-05-03T10:16:49.002Z</time></trkpt><trkpt lat="41.78199319471388" lon="9.091839712990952"><ele>878.0</ele><time>2026-05-03T10:16:50.002Z</time></trkpt><trkpt lat="41.7820930815224" lon="9.091869449758375"><ele>881.0</ele><time>2026-05-03T10:16:51.002Z</time></trkpt><trkpt lat="41.782204380568366" lon="9.091879893335928"><ele>884.0</ele><time>2026-05-03T10:16:52.002Z</time></trkpt><trkpt lat="41.78232341030133" lon="9.091879977533601"><ele>887.0</ele><time>2026-05-03T10:16:53.002Z</time></trkpt><trkpt lat="41.7824475113599" lon="9.09189442223299"><ele>887.0</ele><time>2026-05-03T10:16:54.002Z</time></trkpt><trkpt lat="41.78256085809779" lon="9.091865942396328"><ele>887.0</ele><time>2026-05-03T10:16:55.002Z</time></trkpt><trkpt lat="41.78265056779726" lon="9.09174520337164"><ele>887.0</ele><time>2026-05-03T10:16:56.002Z</time></trkpt><trkpt lat="41.78272798053542" lon="9.091599808219335"><ele>887.0</ele><time>2026-05-03T10:16:57.002Z</time></trkpt><trkpt lat="41.78281141212906" lon="9.091449113112967"><ele>889.25</ele><time>2026-05-03T10:16:58.002Z</time></trkpt><trkpt lat="41.78289938291828" lon="9.091302111423046"><ele>891.5</ele><time>2026-05-03T10:16:59.002Z</time></trkpt><trkpt lat="41.78299443281176" lon="9.091159045447357"><ele>893.75</ele><time>2026-05-03T10:17:00.002Z</time></trkpt><trkpt lat="41.78308418729224" lon="9.091004977849583"><ele>896.0</ele><time>2026-05-03T10:17:01.002Z</time></trkpt><trkpt lat="41.78315330049576" lon="9.090819317235313"><ele>894.25</ele><time>2026-05-03T10:17:02.002Z</time></trkpt><trkpt lat="41.78318185665343" lon="9.090608854664476"><ele>892.5</ele><time>2026-05-03T10:17:03.002Z</time></trkpt><trkpt lat="41.78320289928415" lon="9.09043289357987"><ele>890.75</ele><time>2026-05-03T10:17:04.002Z</time></trkpt><trkpt lat="41.783230900013294" lon="9.090293189742182"><ele>889.0</ele><time>2026-05-03T10:17:05.002Z</time></trkpt><trkpt lat="41.78325481424195" lon="9.090184410106216"><ele>889.0</ele><time>2026-05-03T10:17:06.002Z</time></trkpt><trkpt lat="41.78333156613325" lon="9.09013630777505"><ele>889.0000000000001</ele><time>2026-05-03T10:17:07.002Z</time></trkpt><trkpt lat="41.783411497115615" lon="9.090147353296627"><ele>889.0000000000001</ele><time>2026-05-03T10:17:08.002Z</time></trkpt><trkpt lat="41.783494950072686" lon="9.090149124206327"><ele>889.0</ele><time>2026-05-03T10:17:09.002Z</time></trkpt><trkpt lat="41.78361449392435" lon="9.090154844838152"><ele>889.0</ele><time>2026-05-03T10:17:10.002Z</time></trkpt><trkpt lat="41.783753953837625" lon="9.09016418124681"><ele>889.6666666666666</ele><time>2026-05-03T10:17:11.002Z</time></trkpt><trkpt lat="41.783924419117895" lon="9.090178219568102"><ele>890.3333333333333</ele><time>2026-05-03T10:17:12.002Z</time></trkpt><trkpt lat="41.78411168200776" lon="9.090192950869033"><ele>891.0</ele><time>2026-05-03T10:17:13.003Z</time></trkpt><trkpt lat="41.78430740859711" lon="9.090182271567015"><ele>894.6666666666667</ele><time>2026-05-03T10:17:14.003Z</time></trkpt><trkpt lat="41.78447379470839" lon="9.09018445827785"><ele>898.3333333333334</ele><time>2026-05-03T10:17:15.003Z</time></trkpt><trkpt lat="41.78461351376009" lon="9.090119790039212"><ele>902.0</ele><time>2026-05-03T10:17:16.003Z</time></trkpt><trkpt lat="41.78475368113101" lon="9.08997702063962"><ele>899.3333333333334</ele><time>2026-05-03T10:17:17.003Z</time></trkpt><trkpt lat="41.7848949947776" lon="9.089857975162486"><ele>896.6666666666667</ele><time>2026-05-03T10:17:18.003Z</time></trkpt><trkpt lat="41.78502956743817" lon="9.089749948017658"><ele>894.0</ele><time>2026-05-03T10:17:19.003Z</time></trkpt><trkpt lat="41.78516165219818" lon="9.08962040037312"><ele>896.6666666666667</ele><time>2026-05-03T10:17:20.003Z</time></trkpt><trkpt lat="41.78530626153676" lon="9.089514868377796"><ele>899.3333333333334</ele><time>2026-05-03T10:17:21.003Z</time></trkpt><trkpt lat="41.78545736168769" lon="9.089405767725854"><ele>902.0</ele><time>2026-05-03T10:17:22.003Z</time></trkpt><trkpt lat="41.78560190156561" lon="9.089296214093237"><ele>902.0</ele><time>2026-05-03T10:17:23.003Z</time></trkpt><trkpt lat="41.785726432915475" lon="9.089189092188198"><ele>902.0</ele><time>2026-05-03T10:17:24.003Z</time></trkpt><trkpt lat="41.78584127903822" lon="9.089088619427802"><ele>902.0</ele><time>2026-05-03T10:17:25.003Z</time></trkpt><trkpt lat="41.7859513055483" lon="9.089008858529466"><ele>902.0</ele><time>2026-05-03T10:17:26.003Z</time></trkpt><trkpt lat="41.786064407303385" lon="9.089022962339346"><ele>901.0</ele><time>2026-05-03T10:17:27.003Z</time></trkpt><trkpt lat="41.78616351115379" lon="9.089088205180747"><ele>900.0</ele><time>2026-05-03T10:17:28.003Z</time></trkpt><trkpt lat="41.786265164462925" lon="9.08919236886694"><ele>899.0</ele><time>2026-05-03T10:17:29.003Z</time></trkpt><trkpt lat="41.78638550453992" lon="9.089285876803832"><ele>898.0</ele><time>2026-05-03T10:17:30.003Z</time></trkpt><trkpt lat="41.78650399774995" lon="9.089364032931153"><ele>898.0</ele><time>2026-05-03T10:17:31.003Z</time></trkpt><trkpt lat="41.78664450795771" lon="9.089420279126912"><ele>898.0</ele><time>2026-05-03T10:17:32.003Z</time></trkpt><trkpt lat="41.78680180727053" lon="9.089452198150639"><ele>898.0</ele><time>2026-05-03T10:17:33.003Z</time></trkpt><trkpt lat="41.78697443052062" lon="9.089437057924716"><ele>899.0</ele><time>2026-05-03T10:17:34.003Z</time></trkpt><trkpt lat="41.78713478253639" lon="9.08944369299288"><ele>900.0</ele><time>2026-05-03T10:17:35.003Z</time></trkpt><trkpt lat="41.78726776337323" lon="9.089435593973835"><ele>901.0</ele><time>2026-05-03T10:17:36.003Z</time></trkpt><trkpt lat="41.78738596245739" lon="9.089387752109571"><ele>902.0</ele><time>2026-05-03T10:17:37.003Z</time></trkpt><trkpt lat="41.78749209912557" lon="9.089257593418095"><ele>902.0</ele><time>2026-05-03T10:17:38.003Z</time></trkpt><trkpt lat="41.78758414515681" lon="9.089105429550663"><ele>902.0</ele><time>2026-05-03T10:17:39.003Z</time></trkpt><trkpt lat="41.787666551028245" lon="9.08898491693921"><ele>902.0</ele><time>2026-05-03T10:17:40.003Z</time></trkpt><trkpt lat="41.78775988643595" lon="9.088930042565448"><ele>902.0</ele><time>2026-05-03T10:17:41.003Z</time></trkpt><trkpt lat="41.78786254037358" lon="9.088920521336396"><ele>903.5</ele><time>2026-05-03T10:17:41.999Z</time></trkpt><trkpt lat="41.78797112846869" lon="9.088953074218121"><ele>905.0</ele><time>2026-05-03T10:17:42.999Z</time></trkpt><trkpt lat="41.78806245682454" lon="9.089051815938449"><ele>906.5</ele><time>2026-05-03T10:17:43.999Z</time></trkpt><trkpt lat="41.78817163045969" lon="9.089102320439888"><ele>908.0</ele><time>2026-05-03T10:17:44.999Z</time></trkpt><trkpt lat="41.788319092307816" lon="9.089066295904003"><ele>899.6666666666667</ele><time>2026-05-03T10:17:45.999Z</time></trkpt><trkpt lat="41.78847544154446" lon="9.088995456380838"><ele>891.3333333333333</ele><time>2026-05-03T10:17:46.999Z</time></trkpt><trkpt lat="41.788620202586976" lon="9.088938854922299"><ele>883.0</ele><time>2026-05-03T10:17:47.999Z</time></trkpt><trkpt lat="41.78875375268202" lon="9.08890676530413"><ele>883.0</ele><time>2026-05-03T10:17:49Z</time></trkpt><trkpt lat="41.7888639268112" lon="9.088907794829574"><ele>883.0</ele><time>2026-05-03T10:17:50Z</time></trkpt><trkpt lat="41.78896175237591" lon="9.088929701928093"><ele>883.0</ele><time>2026-05-03T10:17:51Z</time></trkpt><trkpt lat="41.78907119023699" lon="9.088987605668002"><ele>883.0</ele><time>2026-05-03T10:17:52Z</time></trkpt><trkpt lat="41.78917731464579" lon="9.08911800297496"><ele>884.75</ele><time>2026-05-03T10:17:53Z</time></trkpt><trkpt lat="41.789295500688695" lon="9.089233931564147"><ele>886.5</ele><time>2026-05-03T10:17:54Z</time></trkpt><trkpt lat="41.789396113811" lon="9.089342161552475"><ele>888.25</ele><time>2026-05-03T10:17:55Z</time></trkpt><trkpt lat="41.78948715494825" lon="9.08942374902"><ele>890.0</ele><time>2026-05-03T10:17:56Z</time></trkpt><trkpt lat="41.78953482049" lon="9.089538284238383"><ele>890.0</ele><time>2026-05-03T10:17:57Z</time></trkpt><trkpt lat="41.78950761171813" lon="9.089655728430154"><ele>890.0</ele><time>2026-05-03T10:17:58Z</time></trkpt><trkpt lat="41.7894648081383" lon="9.089743992226742"><ele>890.0</ele><time>2026-05-03T10:17:59Z</time></trkpt><trkpt lat="41.789468604980996" lon="9.0898559282611"><ele>890.0</ele><time>2026-05-03T10:18:00Z</time></trkpt><trkpt lat="41.7894888187712" lon="9.089980817329655"><ele>890.0</ele><time>2026-05-03T10:18:01Z</time></trkpt><trkpt lat="41.78957061087852" lon="9.090123602245773"><ele>894.0</ele><time>2026-05-03T10:18:02Z</time></trkpt><trkpt lat="41.78968977081523" lon="9.090265733192123"><ele>898.0</ele><time>2026-05-03T10:18:03Z</time></trkpt><trkpt lat="41.789801461536264" lon="9.090416663498727"><ele>902.0</ele><time>2026-05-03T10:18:04Z</time></trkpt><trkpt lat="41.78991123093491" lon="9.090560956987156"><ele>902.0</ele><time>2026-05-03T10:18:05Z</time></trkpt><trkpt lat="41.79001904877397" lon="9.090709014008665"><ele>902.0</ele><time>2026-05-03T10:18:06Z</time></trkpt><trkpt lat="41.790115975221745" lon="9.09086597759743"><ele>902.0</ele><time>2026-05-03T10:18:07Z</time></trkpt><trkpt lat="41.790229883051204" lon="9.09096624691988"><ele>902.0</ele><time>2026-05-03T10:18:08Z</time></trkpt><trkpt lat="41.790334688140945" lon="9.091040307157456"><ele>906.0</ele><time>2026-05-03T10:18:09Z</time></trkpt><trkpt lat="41.790461113176626" lon="9.0910702917247"><ele>910.0</ele><time>2026-05-03T10:18:10Z</time></trkpt><trkpt lat="41.790578353509524" lon="9.091048636158602"><ele>914.0</ele><time>2026-05-03T10:18:11Z</time></trkpt><trkpt lat="41.79068401177765" lon="9.090992484071755"><ele>918.0</ele><time>2026-05-03T10:18:12Z</time></trkpt><trkpt lat="41.790784802245234" lon="9.090898894891758"><ele>918.0</ele><time>2026-05-03T10:18:13Z</time></trkpt><trkpt lat="41.79086889282578" lon="9.090758791464765"><ele>918.0</ele><time>2026-05-03T10:18:14Z</time></trkpt><trkpt lat="41.790951300717595" lon="9.090623962913682"><ele>918.0</ele><time>2026-05-03T10:18:15Z</time></trkpt><trkpt lat="41.79103687560482" lon="9.090523509842233"><ele>918.0</ele><time>2026-05-03T10:18:16.001Z</time></trkpt><trkpt lat="41.79112597342736" lon="9.090479330732073"><ele>918.2</ele><time>2026-05-03T10:18:17.001Z</time></trkpt><trkpt lat="41.79121537107673" lon="9.09049568175683"><ele>918.4</ele><time>2026-05-03T10:18:18.001Z</time></trkpt><trkpt lat="41.79127998829408" lon="9.090589673209232"><ele>918.6000000000001</ele><time>2026-05-03T10:18:19.001Z</time></trkpt><trkpt lat="41.7913385983215" lon="9.090695544235757"><ele>918.8000000000001</ele><time>2026-05-03T10:18:20.001Z</time></trkpt><trkpt lat="41.79141558687457" lon="9.090816260970838"><ele>919.0</ele><time>2026-05-03T10:18:21.001Z</time></trkpt><trkpt lat="41.79149143427013" lon="9.090935164235685"><ele>919.0</ele><time>2026-05-03T10:18:22.001Z</time></trkpt><trkpt lat="41.791607790713975" lon="9.091001927352412"><ele>919.0</ele><time>2026-05-03T10:18:23.001Z</time></trkpt><trkpt lat="41.79174964241671" lon="9.091015155001351"><ele>919.0</ele><time>2026-05-03T10:18:24.001Z</time></trkpt><trkpt lat="41.79188375280531" lon="9.090966760661276"><ele>919.0</ele><time>2026-05-03T10:18:25.001Z</time></trkpt><trkpt lat="41.79200550049759" lon="9.090845509076336"><ele>919.25</ele><time>2026-05-03T10:18:26.001Z</time></trkpt><trkpt lat="41.79213828896675" lon="9.09076364622913"><ele>919.5</ele><time>2026-05-03T10:18:27.001Z</time></trkpt><trkpt lat="41.79226173253707" lon="9.090678799328078"><ele>919.75</ele><time>2026-05-03T10:18:28.001Z</time></trkpt><trkpt lat="41.79237208623729" lon="9.090573843482534"><ele>920.0</ele><time>2026-05-03T10:18:29.001Z</time></trkpt><trkpt lat="41.79247121938989" lon="9.090509071067135"><ele>918.5</ele><time>2026-05-03T10:18:30.001Z</time></trkpt><trkpt lat="41.792570299352704" lon="9.090477834026128"><ele>917.0</ele><time>2026-05-03T10:18:31.001Z</time></trkpt><trkpt lat="41.79266567227777" lon="9.090518444464823"><ele>915.5</ele><time>2026-05-03T10:18:32.001Z</time></trkpt><trkpt lat="41.792737483844164" lon="9.090650331691073"><ele>914.0</ele><time>2026-05-03T10:18:33.001Z</time></trkpt><trkpt lat="41.792804703290315" lon="9.09080543769053"><ele>914.0</ele><time>2026-05-03T10:18:34.001Z</time></trkpt><trkpt lat="41.79288025068042" lon="9.090946598924484"><ele>914.0</ele><time>2026-05-03T10:18:35.001Z</time></trkpt><trkpt lat="41.79293617930001" lon="9.091073509265648"><ele>914.0</ele><time>2026-05-03T10:18:36.001Z</time></trkpt><trkpt lat="41.793024436810406" lon="9.091167245584465"><ele>914.0</ele><time>2026-05-03T10:18:37.001Z</time></trkpt><trkpt lat="41.793156277996474" lon="9.091211220997744"><ele>914.0</ele><time>2026-05-03T10:18:38.001Z</time></trkpt><trkpt lat="41.79330111598269" lon="9.091249330108907"><ele>914.0</ele><time>2026-05-03T10:18:39.001Z</time></trkpt><trkpt lat="41.79342901366204" lon="9.091365523107115"><ele>914.0</ele><time>2026-05-03T10:18:40.001Z</time></trkpt><trkpt lat="41.7935642136785" lon="9.09147842386155"><ele>917.75</ele><time>2026-05-03T10:18:41.001Z</time></trkpt><trkpt lat="41.79367730351978" lon="9.091600789928012"><ele>921.5</ele><time>2026-05-03T10:18:42.001Z</time></trkpt><trkpt lat="41.79379361682111" lon="9.091673015880083"><ele>925.25</ele><time>2026-05-03T10:18:43.001Z</time></trkpt><trkpt lat="41.79392691140548" lon="9.091691801264197"><ele>929.0</ele><time>2026-05-03T10:18:44.001Z</time></trkpt><trkpt lat="41.79407107951903" lon="9.09167260846234"><ele>929.0</ele><time>2026-05-03T10:18:45.001Z</time></trkpt><trkpt lat="41.79421486384214" lon="9.091657765744449"><ele>929.0</ele><time>2026-05-03T10:18:46.002Z</time></trkpt><trkpt lat="41.79435588471927" lon="9.091680254281696"><ele>929.0</ele><time>2026-05-03T10:18:47.002Z</time></trkpt><trkpt lat="41.79449996909615" lon="9.091666036138001"><ele>929.0</ele><time>2026-05-03T10:18:48.002Z</time></trkpt><trkpt lat="41.79462360754776" lon="9.091668789166688"><ele>927.6</ele><time>2026-05-03T10:18:49.002Z</time></trkpt><trkpt lat="41.79473630021453" lon="9.091684261410942"><ele>926.2</ele><time>2026-05-03T10:18:50.002Z</time></trkpt><trkpt lat="41.79483140441631" lon="9.091717868091708"><ele>924.8000000000001</ele><time>2026-05-03T10:18:51.002Z</time></trkpt><trkpt lat="41.79490733128287" lon="9.091794550050615"><ele>923.4000000000001</ele><time>2026-05-03T10:18:52.002Z</time></trkpt><trkpt lat="41.794928002774235" lon="9.091918775045766"><ele>922.0</ele><time>2026-05-03T10:18:53.002Z</time></trkpt><trkpt lat="41.794930081711804" lon="9.092047871644896"><ele>922.0</ele><time>2026-05-03T10:18:54.002Z</time></trkpt><trkpt lat="41.79495521844453" lon="9.092181661355653"><ele>922.0</ele><time>2026-05-03T10:18:55.002Z</time></trkpt><trkpt lat="41.79499338879217" lon="9.092319220713987"><ele>922.0</ele><time>2026-05-03T10:18:56.002Z</time></trkpt><trkpt lat="41.795078552903135" lon="9.092395669965041"><ele>922.0</ele><time>2026-05-03T10:18:57.002Z</time></trkpt><trkpt lat="41.795183013350815" lon="9.092392579777123"><ele>922.0</ele><time>2026-05-03T10:18:58.002Z</time></trkpt><trkpt lat="41.7953014760644" lon="9.092332734244273"><ele>921.25</ele><time>2026-05-03T10:18:59.002Z</time></trkpt><trkpt lat="41.795436238212645" lon="9.09226664677904"><ele>920.5</ele><time>2026-05-03T10:19:00.002Z</time></trkpt><trkpt lat="41.79556798923226" lon="9.092280013829122"><ele>919.75</ele><time>2026-05-03T10:19:01.002Z</time></trkpt><trkpt lat="41.795694175508885" lon="9.092302907731531"><ele>919.0</ele><time>2026-05-03T10:19:02.002Z</time></trkpt><trkpt lat="41.79581036779015" lon="9.09231753709129"><ele>919.0</ele><time>2026-05-03T10:19:03.002Z</time></trkpt><trkpt lat="41.79593100498794" lon="9.092249257436617"><ele>919.0</ele><time>2026-05-03T10:19:04.002Z</time></trkpt><trkpt lat="41.79601458755742" lon="9.092112904079"><ele>919.0</ele><time>2026-05-03T10:19:05.002Z</time></trkpt><trkpt lat="41.79608320991915" lon="9.09199720864356"><ele>919.0</ele><time>2026-05-03T10:19:06.002Z</time></trkpt><trkpt lat="41.796171092905034" lon="9.091950292260586"><ele>917.0</ele><time>2026-05-03T10:19:07.002Z</time></trkpt><trkpt lat="41.79626426716014" lon="9.091983632284155"><ele>915.0000000000001</ele><time>2026-05-03T10:19:08.002Z</time></trkpt><trkpt lat="41.7963421920455" lon="9.092079941227825"><ele>913.0000000000001</ele><time>2026-05-03T10:19:09.002Z</time></trkpt><trkpt lat="41.79643083500883" lon="9.09215642043127"><ele>911.0</ele><time>2026-05-03T10:19:10.002Z</time></trkpt><trkpt lat="41.79648968980139" lon="9.092259542692114"><ele>909.0</ele><time>2026-05-03T10:19:11.002Z</time></trkpt><trkpt lat="41.796508881884826" lon="9.092363813119162"><ele>910.6</ele><time>2026-05-03T10:19:12.002Z</time></trkpt><trkpt lat="41.79646091409874" lon="9.092459324234811"><ele>912.2</ele><time>2026-05-03T10:19:13.002Z</time></trkpt><trkpt lat="41.79639942284142" lon="9.092526635317496"><ele>913.8000000000001</ele><time>2026-05-03T10:19:14.002Z</time></trkpt><trkpt lat="41.796337358859006" lon="9.092643715877264"><ele>915.4000000000001</ele><time>2026-05-03T10:19:15.002Z</time></trkpt><trkpt lat="41.796258121145506" lon="9.0927472283899"><ele>917.0</ele><time>2026-05-03T10:19:16.002Z</time></trkpt><trkpt lat="41.79619478289601" lon="9.092852670969892"><ele>917.0</ele><time>2026-05-03T10:19:17.002Z</time></trkpt><trkpt lat="41.796146970796386" lon="9.092955983248954"><ele>917.0</ele><time>2026-05-03T10:19:18.002Z</time></trkpt><trkpt lat="41.796110437149906" lon="9.093069924923142"><ele>917.0</ele><time>2026-05-03T10:19:19.003Z</time></trkpt><trkpt lat="41.79615243981948" lon="9.093220172782566"><ele>917.0</ele><time>2026-05-03T10:19:20.003Z</time></trkpt><trkpt lat="41.79623115531345" lon="9.09335387688232"><ele>917.0</ele><time>2026-05-03T10:19:21.003Z</time></trkpt><trkpt lat="41.79635761146726" lon="9.09346730682256"><ele>919.3333333333334</ele><time>2026-05-03T10:19:22.003Z</time></trkpt><trkpt lat="41.79650212376899" lon="9.09358267234652"><ele>921.6666666666667</ele><time>2026-05-03T10:19:23.003Z</time></trkpt><trkpt lat="41.79663832104796" lon="9.093713508842928"><ele>924.0</ele><time>2026-05-03T10:19:24.003Z</time></trkpt><trkpt lat="41.79677138993489" lon="9.093850625292268"><ele>925.0</ele><time>2026-05-03T10:19:25.003Z</time></trkpt><trkpt lat="41.796902205235" lon="9.093984390149437"><ele>926.0</ele><time>2026-05-03T10:19:26.003Z</time></trkpt><trkpt lat="41.79702328229761" lon="9.094103354152091"><ele>927.0</ele><time>2026-05-03T10:19:27.003Z</time></trkpt><trkpt lat="41.79711567037413" lon="9.094228027831086"><ele>928.0</ele><time>2026-05-03T10:19:28.003Z</time></trkpt><trkpt lat="41.79718001739897" lon="9.094357264162847"><ele>928.0</ele><time>2026-05-03T10:19:29.003Z</time></trkpt><trkpt lat="41.79720812146279" lon="9.09449738801941"><ele>928.0</ele><time>2026-05-03T10:19:30.003Z</time></trkpt><trkpt lat="41.797249490593686" lon="9.094629152748666"><ele>928.0</ele><time>2026-05-03T10:19:31.003Z</time></trkpt><trkpt lat="41.79731545096223" lon="9.094725200549357"><ele>928.0</ele><time>2026-05-03T10:19:32.003Z</time></trkpt><trkpt lat="41.79740059003606" lon="9.094792581755742"><ele>928.0</ele><time>2026-05-03T10:19:33.003Z</time></trkpt><trkpt lat="41.79751409125501" lon="9.09479564406792"><ele>928.0</ele><time>2026-05-03T10:19:34.003Z</time></trkpt><trkpt lat="41.79762899171243" lon="9.094751771153463"><ele>928.0</ele><time>2026-05-03T10:19:35.003Z</time></trkpt><trkpt lat="41.797733330944986" lon="9.094722632832688"><ele>928.0</ele><time>2026-05-03T10:19:36.003Z</time></trkpt><trkpt lat="41.79783868128876" lon="9.094746158735825"><ele>928.0</ele><time>2026-05-03T10:19:37.003Z</time></trkpt><trkpt lat="41.79790768245604" lon="9.094846031184105"><ele>928.0</ele><time>2026-05-03T10:19:38.003Z</time></trkpt><trkpt lat="41.797973612994625" lon="9.094954575654072"><ele>929.75</ele><time>2026-05-03T10:19:39.003Z</time></trkpt><trkpt lat="41.79801354706983" lon="9.095101545220443"><ele>931.5</ele><time>2026-05-03T10:19:40.003Z</time></trkpt><trkpt lat="41.79806708899462" lon="9.095279647619778"><ele>933.25</ele><time>2026-05-03T10:19:41.003Z</time></trkpt><trkpt lat="41.79812838985855" lon="9.09548082689628"><ele>935.0</ele><time>2026-05-03T10:19:42.003Z</time></trkpt><trkpt lat="41.79819321400868" lon="9.095684175400182"><ele>938.6666666666667</ele><time>2026-05-03T10:19:43.003Z</time></trkpt><trkpt lat="41.798259638647174" lon="9.095892895670254"><ele>942.3333333333333</ele><time>2026-05-03T10:19:44.003Z</time></trkpt><trkpt lat="41.79832777868946" lon="9.096108230979606"><ele>946.0</ele><time>2026-05-03T10:19:45.003Z</time></trkpt><trkpt lat="41.798393747594105" lon="9.096322659626784"><ele>946.0</ele><time>2026-05-03T10:19:46.003Z</time></trkpt><trkpt lat="41.79846036276187" lon="9.09654007346734"><ele>946.0</ele><time>2026-05-03T10:19:47.003Z</time></trkpt><trkpt lat="41.79852312063879" lon="9.096745110025442"><ele>946.0</ele><time>2026-05-03T10:19:47.999Z</time></trkpt><trkpt lat="41.79859269861507" lon="9.096929190313553"><ele>943.75</ele><time>2026-05-03T10:19:48.999Z</time></trkpt><trkpt lat="41.79864243723941" lon="9.097093242876788"><ele>941.5</ele><time>2026-05-03T10:19:49.999Z</time></trkpt><trkpt lat="41.79870345492764" lon="9.097228202314463"><ele>939.25</ele><time>2026-05-03T10:19:50.999Z</time></trkpt><trkpt lat="41.79881148768959" lon="9.09730443722405"><ele>937.0</ele><time>2026-05-03T10:19:51.999Z</time></trkpt><trkpt lat="41.79894174452387" lon="9.097389577333983"><ele>939.25</ele><time>2026-05-03T10:19:53Z</time></trkpt><trkpt lat="41.79906810608174" lon="9.097484452735758"><ele>941.5</ele><time>2026-05-03T10:19:54Z</time></trkpt><trkpt lat="41.799183756586054" lon="9.097572135990852"><ele>943.75</ele><time>2026-05-03T10:19:55Z</time></trkpt><trkpt lat="41.79929595450018" lon="9.097646517514505"><ele>946.0</ele><time>2026-05-03T10:19:56Z</time></trkpt><trkpt lat="41.79942590277796" lon="9.097691872484258"><ele>946.0</ele><time>2026-05-03T10:19:57Z</time></trkpt><trkpt lat="41.79956536582228" lon="9.097684599621038"><ele>946.0</ele><time>2026-05-03T10:19:58Z</time></trkpt><trkpt lat="41.7996864653857" lon="9.09765862356258"><ele>946.0</ele><time>2026-05-03T10:19:59Z</time></trkpt><trkpt lat="41.7997888189377" lon="9.097652855896548"><ele>946.0</ele><time>2026-05-03T10:20:00Z</time></trkpt><trkpt lat="41.799880897671066" lon="9.097674353044319"><ele>946.0</ele><time>2026-05-03T10:20:01Z</time></trkpt><trkpt lat="41.79992750185998" lon="9.097782647764896"><ele>945.9999999999999</ele><time>2026-05-03T10:20:02Z</time></trkpt><trkpt lat="41.79997098643377" lon="9.097876480146443"><ele>945.9999999999999</ele><time>2026-05-03T10:20:03Z</time></trkpt><trkpt lat="41.79996605015301" lon="9.098024510212362"><ele>946.0</ele><time>2026-05-03T10:20:04Z</time></trkpt><trkpt lat="41.800011151609795" lon="9.098167877865045"><ele>946.0</ele><time>2026-05-03T10:20:05Z</time></trkpt><trkpt lat="41.800098442522724" lon="9.098286455157046"><ele>945.5</ele><time>2026-05-03T10:20:06Z</time></trkpt><trkpt lat="41.80022573646765" lon="9.098359250289539"><ele>945.0</ele><time>2026-05-03T10:20:07Z</time></trkpt><trkpt lat="41.800356508505004" lon="9.098395352716606"><ele>944.5</ele><time>2026-05-03T10:20:08Z</time></trkpt><trkpt lat="41.80047250082696" lon="9.098443912518032"><ele>944.0</ele><time>2026-05-03T10:20:09Z</time></trkpt><trkpt lat="41.80056838947086" lon="9.09850764007592"><ele>944.0</ele><time>2026-05-03T10:20:10Z</time></trkpt><trkpt lat="41.80064875892663" lon="9.098587477126843"><ele>944.0</ele><time>2026-05-03T10:20:11Z</time></trkpt><trkpt lat="41.800658581832096" lon="9.098749075385102"><ele>944.0</ele><time>2026-05-03T10:20:12Z</time></trkpt><trkpt lat="41.80071519072926" lon="9.09888420009478"><ele>944.0</ele><time>2026-05-03T10:20:13Z</time></trkpt><trkpt lat="41.800830783457684" lon="9.098998082079413"><ele>944.75</ele><time>2026-05-03T10:20:14Z</time></trkpt><trkpt lat="41.80095060251756" lon="9.099112393523752"><ele>945.5</ele><time>2026-05-03T10:20:15Z</time></trkpt><trkpt lat="41.8010663012756" lon="9.099211637430173"><ele>946.25</ele><time>2026-05-03T10:20:16Z</time></trkpt><trkpt lat="41.80117735084766" lon="9.099294776453597"><ele>947.0</ele><time>2026-05-03T10:20:17Z</time></trkpt><trkpt lat="41.80130519553752" lon="9.099321480105624"><ele>947.0</ele><time>2026-05-03T10:20:18Z</time></trkpt><trkpt lat="41.80145041903092" lon="9.09935674363111"><ele>947.0</ele><time>2026-05-03T10:20:19Z</time></trkpt><trkpt lat="41.80154290509927" lon="9.099437177410804"><ele>947.0</ele><time>2026-05-03T10:20:20Z</time></trkpt><trkpt lat="41.80161368615237" lon="9.099543206192083"><ele>947.0</ele><time>2026-05-03T10:20:21Z</time></trkpt><trkpt lat="41.80168921763943" lon="9.099660811387178"><ele>947.0</ele><time>2026-05-03T10:20:22.001Z</time></trkpt><trkpt lat="41.80177056099105" lon="9.099777946468622"><ele>947.0</ele><time>2026-05-03T10:20:23.001Z</time></trkpt><trkpt lat="41.801852888929055" lon="9.099907620962739"><ele>947.0</ele><time>2026-05-03T10:20:24.001Z</time></trkpt><trkpt lat="41.80192247318819" lon="9.100022576203887"><ele>947.0</ele><time>2026-05-03T10:20:25.001Z</time></trkpt><trkpt lat="41.802000405375644" lon="9.100117665471114"><ele>949.75</ele><time>2026-05-03T10:20:26.001Z</time></trkpt><trkpt lat="41.80209693051797" lon="9.100164402703374"><ele>952.5</ele><time>2026-05-03T10:20:27.001Z</time></trkpt><trkpt lat="41.802217414872835" lon="9.100145324191162"><ele>955.25</ele><time>2026-05-03T10:20:28.001Z</time></trkpt><trkpt lat="41.802349274170716" lon="9.100084310641012"><ele>958.0</ele><time>2026-05-03T10:20:29.001Z</time></trkpt><trkpt lat="41.80248387247604" lon="9.100021930401896"><ele>958.0</ele><time>2026-05-03T10:20:30.001Z</time></trkpt><trkpt lat="41.80261234710551" lon="9.099978858370559"><ele>958.0</ele><time>2026-05-03T10:20:31.001Z</time></trkpt><trkpt lat="41.80273400759592" lon="9.099948255731379"><ele>958.0</ele><time>2026-05-03T10:20:32.001Z</time></trkpt><trkpt lat="41.80284780503676" lon="9.099918286176745"><ele>958.0</ele><time>2026-05-03T10:20:33.001Z</time></trkpt><trkpt lat="41.80295966457767" lon="9.099933990379323"><ele>957.0</ele><time>2026-05-03T10:20:34.001Z</time></trkpt><trkpt lat="41.80305285036303" lon="9.10004312879622"><ele>956.0</ele><time>2026-05-03T10:20:35.001Z</time></trkpt><trkpt lat="41.80317200906915" lon="9.10013186614715"><ele>955.0</ele><time>2026-05-03T10:20:36.001Z</time></trkpt><trkpt lat="41.803278861384484" lon="9.100259442556258"><ele>954.0</ele><time>2026-05-03T10:20:37.001Z</time></trkpt><trkpt lat="41.80339043025776" lon="9.10037201183043"><ele>954.0</ele><time>2026-05-03T10:20:38.001Z</time></trkpt><trkpt lat="41.803495937284154" lon="9.100471315515017"><ele>954.0</ele><time>2026-05-03T10:20:39.001Z</time></trkpt><trkpt lat="41.803616071482324" lon="9.100561912566446"><ele>954.0</ele><time>2026-05-03T10:20:40.001Z</time></trkpt><trkpt lat="41.8037500719761" lon="9.100632440959357"><ele>954.0</ele><time>2026-05-03T10:20:41.001Z</time></trkpt><trkpt lat="41.80388976569462" lon="9.100696581251459"><ele>957.3333333333333</ele><time>2026-05-03T10:20:42.001Z</time></trkpt><trkpt lat="41.80404323333429" lon="9.100752303812172"><ele>960.6666666666666</ele><time>2026-05-03T10:20:43.001Z</time></trkpt><trkpt lat="41.80420931777655" lon="9.100817299133901"><ele>964.0</ele><time>2026-05-03T10:20:44.001Z</time></trkpt><trkpt lat="41.80437339959034" lon="9.100888066789103"><ele>964.0</ele><time>2026-05-03T10:20:45.001Z</time></trkpt><trkpt lat="41.804539231974125" lon="9.100959219592644"><ele>964.0</ele><time>2026-05-03T10:20:46.001Z</time></trkpt><trkpt lat="41.8047059512138" lon="9.101031051434298"><ele>964.0</ele><time>2026-05-03T10:20:47.001Z</time></trkpt><trkpt lat="41.80484821667231" lon="9.101112320360924"><ele>964.0</ele><time>2026-05-03T10:20:48.001Z</time></trkpt><trkpt lat="41.80497282159854" lon="9.10117120091122"><ele>964.0</ele><time>2026-05-03T10:20:49.001Z</time></trkpt><trkpt lat="41.80510465810969" lon="9.101198949946442"><ele>964.0</ele><time>2026-05-03T10:20:50.001Z</time></trkpt><trkpt lat="41.805237140074475" lon="9.101164633672054"><ele>964.0</ele><time>2026-05-03T10:20:51.001Z</time></trkpt><trkpt lat="41.805381046967476" lon="9.101081879424237"><ele>964.6666666666666</ele><time>2026-05-03T10:20:52.001Z</time></trkpt><trkpt lat="41.805508485701615" lon="9.100949211820074"><ele>965.3333333333333</ele><time>2026-05-03T10:20:53.002Z</time></trkpt><trkpt lat="41.805635416708796" lon="9.100800484956073"><ele>966.0</ele><time>2026-05-03T10:20:54.002Z</time></trkpt><trkpt lat="41.80577439202683" lon="9.100689730997093"><ele>966.0</ele><time>2026-05-03T10:20:55.002Z</time></trkpt><trkpt lat="41.80590051868388" lon="9.100570566662476"><ele>966.0</ele><time>2026-05-03T10:20:56.002Z</time></trkpt><trkpt lat="41.806013479378315" lon="9.100448422149404"><ele>966.0</ele><time>2026-05-03T10:20:57.002Z</time></trkpt><trkpt lat="41.806138510785864" lon="9.100337483945893"><ele>966.0</ele><time>2026-05-03T10:20:58.002Z</time></trkpt><trkpt lat="41.80626449306687" lon="9.10021982710876"><ele>967.3333333333333</ele><time>2026-05-03T10:20:59.002Z</time></trkpt><trkpt lat="41.80639670709133" lon="9.10009470655023"><ele>968.6666666666666</ele><time>2026-05-03T10:21:00.002Z</time></trkpt><trkpt lat="41.80653441230182" lon="9.099969833219305"><ele>970.0</ele><time>2026-05-03T10:21:01.002Z</time></trkpt><trkpt lat="41.80668434785245" lon="9.099871872562687"><ele>970.75</ele><time>2026-05-03T10:21:02.002Z</time></trkpt><trkpt lat="41.8068325017002" lon="9.099843938238918"><ele>971.5</ele><time>2026-05-03T10:21:03.002Z</time></trkpt><trkpt lat="41.80697784763103" lon="9.099830849196659"><ele>972.25</ele><time>2026-05-03T10:21:04.002Z</time></trkpt><trkpt lat="41.807121416783446" lon="9.099882823063579"><ele>973.0</ele><time>2026-05-03T10:21:05.002Z</time></trkpt><trkpt lat="41.807264342756014" lon="9.099922800622943"><ele>973.0</ele><time>2026-05-03T10:21:06.002Z</time></trkpt><trkpt lat="41.807411968443425" lon="9.09999403512504"><ele>973.0</ele><time>2026-05-03T10:21:07.002Z</time></trkpt><trkpt lat="41.80756048754988" lon="9.10005094916544"><ele>973.0</ele><time>2026-05-03T10:21:08.002Z</time></trkpt><trkpt lat="41.80771349067681" lon="9.100106624790651"><ele>970.3333333333333</ele><time>2026-05-03T10:21:09.002Z</time></trkpt><trkpt lat="41.80786936712349" lon="9.100171503797307"><ele>967.6666666666667</ele><time>2026-05-03T10:21:10.002Z</time></trkpt><trkpt lat="41.80802534415405" lon="9.10024137426792"><ele>965.0</ele><time>2026-05-03T10:21:11.002Z</time></trkpt><trkpt lat="41.808172394963954" lon="9.100332483555974"><ele>965.0</ele><time>2026-05-03T10:21:12.002Z</time></trkpt><trkpt lat="41.80832222267278" lon="9.100430438181615"><ele>965.0</ele><time>2026-05-03T10:21:13.002Z</time></trkpt><trkpt lat="41.80846235320992" lon="9.100526491434005"><ele>965.0</ele><time>2026-05-03T10:21:14.002Z</time></trkpt><trkpt lat="41.80859029606322" lon="9.100620373946752"><ele>966.25</ele><time>2026-05-03T10:21:15.002Z</time></trkpt><trkpt lat="41.80870070981704" lon="9.100721819909145"><ele>967.5</ele><time>2026-05-03T10:21:16.002Z</time></trkpt><trkpt lat="41.808768757995054" lon="9.10086085293749"><ele>968.75</ele><time>2026-05-03T10:21:17.002Z</time></trkpt><trkpt lat="41.808847652595574" lon="9.101006727854077"><ele>970.0</ele><time>2026-05-03T10:21:18.002Z</time></trkpt><trkpt lat="41.80894712539675" lon="9.101135393376778"><ele>970.0</ele><time>2026-05-03T10:21:19.002Z</time></trkpt><trkpt lat="41.80905988322778" lon="9.1012563533784"><ele>970.0</ele><time>2026-05-03T10:21:20.002Z</time></trkpt><trkpt lat="41.80920042641123" lon="9.101329997087072"><ele>970.0</ele><time>2026-05-03T10:21:21.002Z</time></trkpt><trkpt lat="41.809338453482454" lon="9.101398859551159"><ele>970.0</ele><time>2026-05-03T10:21:22.002Z</time></trkpt><trkpt lat="41.80946782183592" lon="9.101424742924497"><ele>971.2</ele><time>2026-05-03T10:21:23.002Z</time></trkpt><trkpt lat="41.80957570828501" lon="9.101413104842074"><ele>972.4</ele><time>2026-05-03T10:21:24.002Z</time></trkpt><trkpt lat="41.809660674087446" lon="9.101476750387189"><ele>973.5999999999999</ele><time>2026-05-03T10:21:25.002Z</time></trkpt><trkpt lat="41.80970782823893" lon="9.101600243968214"><ele>974.8</ele><time>2026-05-03T10:21:26.003Z</time></trkpt><trkpt lat="41.80979248646811" lon="9.101737178571305"><ele>976.0</ele><time>2026-05-03T10:21:27.003Z</time></trkpt><trkpt lat="41.80987651808546" lon="9.10186391889073"><ele>976.0</ele><time>2026-05-03T10:21:28.003Z</time></trkpt><trkpt lat="41.80998861830118" lon="9.101956905421355"><ele>976.0</ele><time>2026-05-03T10:21:29.003Z</time></trkpt><trkpt lat="41.81011872915402" lon="9.102048004146408"><ele>976.0</ele><time>2026-05-03T10:21:30.003Z</time></trkpt><trkpt lat="41.81026543474925" lon="9.102143616575"><ele>976.0</ele><time>2026-05-03T10:21:31.003Z</time></trkpt><trkpt lat="41.81041492253971" lon="9.102252947167687"><ele>973.3333333333333</ele><time>2026-05-03T10:21:32.003Z</time></trkpt><trkpt lat="41.810559034059985" lon="9.102342290497582"><ele>970.6666666666667</ele><time>2026-05-03T10:21:33.003Z</time></trkpt><trkpt lat="41.81070570602023" lon="9.102401549686594"><ele>968.0</ele><time>2026-05-03T10:21:34.003Z</time></trkpt><trkpt lat="41.81086097426094" lon="9.102406434394366"><ele>969.4</ele><time>2026-05-03T10:21:35.003Z</time></trkpt><trkpt lat="41.81100447309545" lon="9.102382092990448"><ele>970.8</ele><time>2026-05-03T10:21:36.003Z</time></trkpt><trkpt lat="41.811118678243396" lon="9.102376250984264"><ele>972.2</ele><time>2026-05-03T10:21:37.003Z</time></trkpt><trkpt lat="41.81120398919346" lon="9.102397267500134"><ele>973.6</ele><time>2026-05-03T10:21:38.003Z</time></trkpt><trkpt lat="41.8112872451939" lon="9.102452608959359"><ele>975.0</ele><time>2026-05-03T10:21:39.003Z</time></trkpt><trkpt lat="41.811316216707446" lon="9.102587655568446"><ele>975.0</ele><time>2026-05-03T10:21:40.003Z</time></trkpt><trkpt lat="41.81136831617779" lon="9.102726331253292"><ele>975.0</ele><time>2026-05-03T10:21:41.003Z</time></trkpt><trkpt lat="41.81141600491963" lon="9.102852100667135"><ele>975.0</ele><time>2026-05-03T10:21:42.003Z</time></trkpt><trkpt lat="41.81148882597148" lon="9.102923560972439"><ele>975.0</ele><time>2026-05-03T10:21:43.003Z</time></trkpt><trkpt lat="41.81157696145221" lon="9.102976836412772"><ele>975.0</ele><time>2026-05-03T10:21:44.003Z</time></trkpt><trkpt lat="41.811691916391815" lon="9.103009053570062"><ele>974.5</ele><time>2026-05-03T10:21:45.003Z</time></trkpt><trkpt lat="41.81183296530249" lon="9.103042374018202"><ele>974.0</ele><time>2026-05-03T10:21:46.003Z</time></trkpt><trkpt lat="41.81197174135952" lon="9.103088110602775"><ele>973.5</ele><time>2026-05-03T10:21:47.003Z</time></trkpt><trkpt lat="41.81210638701958" lon="9.10311232022838"><ele>973.0</ele><time>2026-05-03T10:21:48.003Z</time></trkpt><trkpt lat="41.81223418694321" lon="9.103087339497968"><ele>973.0</ele><time>2026-05-03T10:21:49.003Z</time></trkpt><trkpt lat="41.81235795147116" lon="9.103016521070023"><ele>973.0</ele><time>2026-05-03T10:21:50.003Z</time></trkpt><trkpt lat="41.812479013821104" lon="9.102921416178063"><ele>973.0</ele><time>2026-05-03T10:21:51.003Z</time></trkpt><trkpt lat="41.81261269418301" lon="9.102849546565459"><ele>973.0</ele><time>2026-05-03T10:21:52.003Z</time></trkpt><trkpt lat="41.81276249168518" lon="9.102867759112053"><ele>974.3333333333333</ele><time>2026-05-03T10:21:53.003Z</time></trkpt><trkpt lat="41.81292339052427" lon="9.102894328707807"><ele>975.6666666666667</ele><time>2026-05-03T10:21:53.999Z</time></trkpt><trkpt lat="41.81309676531384" lon="9.102921300194113"><ele>977.0</ele><time>2026-05-03T10:21:54.999Z</time></trkpt><trkpt lat="41.81326715209601" lon="9.102924280269317"><ele>977.0</ele><time>2026-05-03T10:21:55.999Z</time></trkpt><trkpt lat="41.81341578249421" lon="9.102975631152482"><ele>977.0</ele><time>2026-05-03T10:21:56.999Z</time></trkpt><trkpt lat="41.81357412232549" lon="9.103021608674748"><ele>977.0</ele><time>2026-05-03T10:21:57.999Z</time></trkpt><trkpt lat="41.813729592997646" lon="9.10309204149463"><ele>975.6</ele><time>2026-05-03T10:21:58.999Z</time></trkpt><trkpt lat="41.81386931779371" lon="9.103170636525263"><ele>974.2</ele><time>2026-05-03T10:21:59.999Z</time></trkpt><trkpt lat="41.81398744559384" lon="9.103242587090046"><ele>972.8</ele><time>2026-05-03T10:22:01Z</time></trkpt><trkpt lat="41.81405565499411" lon="9.103288894248212"><ele>971.4</ele><time>2026-05-03T10:22:02Z</time></trkpt><trkpt lat="41.81411555446389" lon="9.103331328628533"><ele>970.0</ele><time>2026-05-03T10:22:03Z</time></trkpt><trkpt lat="41.81417245236845" lon="9.103374140229356"><ele>972.6666666666666</ele><time>2026-05-03T10:22:04Z</time></trkpt><trkpt lat="41.81423945467135" lon="9.103400606427972"><ele>975.3333333333333</ele><time>2026-05-03T10:22:05Z</time></trkpt><trkpt lat="41.81429935654025" lon="9.103460061339804"><ele>978.0</ele><time>2026-05-03T10:22:06Z</time></trkpt><trkpt lat="41.814366261705544" lon="9.103514787426716"><ele>980.6666666666667</ele><time>2026-05-03T10:22:07Z</time></trkpt><trkpt lat="41.81443887555562" lon="9.103556701771053"><ele>983.3333333333334</ele><time>2026-05-03T10:22:08Z</time></trkpt><trkpt lat="41.81452195130376" lon="9.103604075521622"><ele>986.0</ele><time>2026-05-03T10:22:09Z</time></trkpt><trkpt lat="41.814629202265216" lon="9.103664137489787"><ele>986.0</ele><time>2026-05-03T10:22:10Z</time></trkpt><trkpt lat="41.81475882253188" lon="9.103722361258907"><ele>986.0</ele><time>2026-05-03T10:22:11Z</time></trkpt><trkpt lat="41.8149114391864" lon="9.103771205010705"><ele>986.0</ele><time>2026-05-03T10:22:12Z</time></trkpt><trkpt lat="41.81509600115391" lon="9.1038130022206"><ele>989.0</ele><time>2026-05-03T10:22:13Z</time></trkpt><trkpt lat="41.815278740950596" lon="9.10383448137723"><ele>992.0</ele><time>2026-05-03T10:22:14Z</time></trkpt><trkpt lat="41.815435064192" lon="9.103838602931082"><ele>995.0</ele><time>2026-05-03T10:22:15Z</time></trkpt><trkpt lat="41.81557526075995" lon="9.103859492785388"><ele>995.0</ele><time>2026-05-03T10:22:16Z</time></trkpt><trkpt lat="41.815686572499324" lon="9.10383473958934"><ele>995.0</ele><time>2026-05-03T10:22:17Z</time></trkpt><trkpt lat="41.815795046831084" lon="9.103754270889326"><ele>995.0</ele><time>2026-05-03T10:22:18Z</time></trkpt><trkpt lat="41.81587931155104" lon="9.103611587284384"><ele>995.0</ele><time>2026-05-03T10:22:19Z</time></trkpt><trkpt lat="41.81593647082186" lon="9.103440636499773"><ele>997.4</ele><time>2026-05-03T10:22:20Z</time></trkpt><trkpt lat="41.81598991419495" lon="9.103289161534496"><ele>999.8</ele><time>2026-05-03T10:22:21Z</time></trkpt><trkpt lat="41.816069692022985" lon="9.103196000940827"><ele>1002.2</ele><time>2026-05-03T10:22:22Z</time></trkpt><trkpt lat="41.81617162952979" lon="9.103182005229678"><ele>1004.6</ele><time>2026-05-03T10:22:23Z</time></trkpt><trkpt lat="41.81628117048687" lon="9.103164499706693"><ele>1007.0</ele><time>2026-05-03T10:22:24Z</time></trkpt><trkpt lat="41.81640745980949" lon="9.103134781313804"><ele>1002.25</ele><time>2026-05-03T10:22:25Z</time></trkpt><trkpt lat="41.81654376216667" lon="9.103111580102238"><ele>997.5</ele><time>2026-05-03T10:22:26Z</time></trkpt><trkpt lat="41.81668648426704" lon="9.103080262415315"><ele>992.75</ele><time>2026-05-03T10:22:27Z</time></trkpt><trkpt lat="41.81684204780879" lon="9.103068484611324"><ele>988.0</ele><time>2026-05-03T10:22:28.001Z</time></trkpt><trkpt lat="41.81698282341001" lon="9.103129071695713"><ele>988.0</ele><time>2026-05-03T10:22:29.001Z</time></trkpt><trkpt lat="41.81709220160294" lon="9.103209021323096"><ele>988.0</ele><time>2026-05-03T10:22:30.001Z</time></trkpt><trkpt lat="41.81717892134542" lon="9.103303460858873"><ele>988.0</ele><time>2026-05-03T10:22:31.001Z</time></trkpt><trkpt lat="41.817225838312204" lon="9.103432687499863"><ele>988.0</ele><time>2026-05-03T10:22:32.001Z</time></trkpt><trkpt lat="41.817305328664084" lon="9.103570933628209"><ele>991.0</ele><time>2026-05-03T10:22:33.001Z</time></trkpt><trkpt lat="41.81740359616351" lon="9.103707769011283"><ele>994.0</ele><time>2026-05-03T10:22:34.001Z</time></trkpt><trkpt lat="41.817550151618285" lon="9.103822607660735"><ele>997.0</ele><time>2026-05-03T10:22:35.001Z</time></trkpt><trkpt lat="41.817718453976674" lon="9.103938004548459"><ele>1001.0</ele><time>2026-05-03T10:22:36.001Z</time></trkpt><trkpt lat="41.81785782712545" lon="9.104092466402328"><ele>1005.0</ele><time>2026-05-03T10:22:37.001Z</time></trkpt><trkpt lat="41.817957838713454" lon="9.104280144506149"><ele>1009.0</ele><time>2026-05-03T10:22:38.001Z</time></trkpt><trkpt lat="41.8180749782031" lon="9.1044259878678"><ele>1009.0</ele><time>2026-05-03T10:22:39.001Z</time></trkpt><trkpt lat="41.818187264748154" lon="9.104532547681991"><ele>1009.0</ele><time>2026-05-03T10:22:40.001Z</time></trkpt><trkpt lat="41.81833261041398" lon="9.104555158865347"><ele>1009.0</ele><time>2026-05-03T10:22:41.001Z</time></trkpt><trkpt lat="41.81850094830269" lon="9.104567400639734"><ele>1006.6666666666666</ele><time>2026-05-03T10:22:42.001Z</time></trkpt><trkpt lat="41.81865312938842" lon="9.104621363601495"><ele>1004.3333333333333</ele><time>2026-05-03T10:22:43.001Z</time></trkpt><trkpt lat="41.81880718010922" lon="9.104663535139688"><ele>1002.0</ele><time>2026-05-03T10:22:44.001Z</time></trkpt><trkpt lat="41.81894852738122" lon="9.104675744886153"><ele>1002.0</ele><time>2026-05-03T10:22:45.001Z</time></trkpt><trkpt lat="41.81908000138398" lon="9.104730526477361"><ele>1002.0</ele><time>2026-05-03T10:22:46.001Z</time></trkpt><trkpt lat="41.819171282886884" lon="9.104878749750593"><ele>1002.0</ele><time>2026-05-03T10:22:47.001Z</time></trkpt><trkpt lat="41.81927981979683" lon="9.1049950304063"><ele>1002.0</ele><time>2026-05-03T10:22:48.001Z</time></trkpt><trkpt lat="41.81937495630338" lon="9.105087890333616"><ele>1005.25</ele><time>2026-05-03T10:22:49.001Z</time></trkpt><trkpt lat="41.819496926299365" lon="9.105098584754705"><ele>1008.5</ele><time>2026-05-03T10:22:50.001Z</time></trkpt><trkpt lat="41.81963365610382" lon="9.10506473853458"><ele>1011.75</ele><time>2026-05-03T10:22:51.001Z</time></trkpt><trkpt lat="41.81975373536259" lon="9.105090042899228"><ele>1015.0</ele><time>2026-05-03T10:22:52.001Z</time></trkpt><trkpt lat="41.81981854055134" lon="9.105216521695597"><ele>1015.0</ele><time>2026-05-03T10:22:53.001Z</time></trkpt><trkpt lat="41.81988382047249" lon="9.105349686200697"><ele>1015.0</ele><time>2026-05-03T10:22:54.001Z</time></trkpt><trkpt lat="41.819964681957494" lon="9.105472195610139"><ele>1015.0</ele><time>2026-05-03T10:22:55.001Z</time></trkpt><trkpt lat="41.82007627047955" lon="9.105581176236345"><ele>1015.0</ele><time>2026-05-03T10:22:56.001Z</time></trkpt><trkpt lat="41.82023197279156" lon="9.105655324578168"><ele>1016.3333333333333</ele><time>2026-05-03T10:22:57.001Z</time></trkpt><trkpt lat="41.820389233187655" lon="9.105715690330001"><ele>1017.6666666666667</ele><time>2026-05-03T10:22:58.001Z</time></trkpt><trkpt lat="41.82052833698345" lon="9.105804079695078"><ele>1019.0</ele><time>2026-05-03T10:22:59.002Z</time></trkpt><trkpt lat="41.820652015987584" lon="9.105936768424819"><ele>1019.0</ele><time>2026-05-03T10:23:00.002Z</time></trkpt><trkpt lat="41.82078914832974" lon="9.106061552477886"><ele>1019.0</ele><time>2026-05-03T10:23:01.002Z</time></trkpt><trkpt lat="41.820923131506454" lon="9.106198340757302"><ele>1019.0</ele><time>2026-05-03T10:23:02.002Z</time></trkpt><trkpt lat="41.82102061775995" lon="9.106358676463273"><ele>1020.3333333333334</ele><time>2026-05-03T10:23:03.002Z</time></trkpt><trkpt lat="41.821085552256974" lon="9.106552600273767"><ele>1021.6666666666667</ele><time>2026-05-03T10:23:04.002Z</time></trkpt><trkpt lat="41.821162187578224" lon="9.106754929478468"><ele>1023.0</ele><time>2026-05-03T10:23:05.002Z</time></trkpt><trkpt lat="41.8212186134386" lon="9.106945965027558"><ele>1023.0</ele><time>2026-05-03T10:23:06.002Z</time></trkpt><trkpt lat="41.82127678379624" lon="9.107101537238067"><ele>1023.0</ele><time>2026-05-03T10:23:07.002Z</time></trkpt><trkpt lat="41.82135086003539" lon="9.10722717426146"><ele>1023.0</ele><time>2026-05-03T10:23:08.002Z</time></trkpt><trkpt lat="41.821438270561195" lon="9.107290315488447"><ele>1023.0</ele><time>2026-05-03T10:23:09.002Z</time></trkpt><trkpt lat="41.821540706007575" lon="9.107281645833542"><ele>1023.0</ele><time>2026-05-03T10:23:10.002Z</time></trkpt><trkpt lat="41.821639954814145" lon="9.107209148235807"><ele>1023.0</ele><time>2026-05-03T10:23:11.002Z</time></trkpt><trkpt lat="41.821746295492936" lon="9.107118433617188"><ele>1023.0</ele><time>2026-05-03T10:23:12.002Z</time></trkpt><trkpt lat="41.82186616562924" lon="9.107044896261538"><ele>1023.0</ele><time>2026-05-03T10:23:13.002Z</time></trkpt><trkpt lat="41.8220092515916" lon="9.10705544786204"><ele>1024.0</ele><time>2026-05-03T10:23:14.002Z</time></trkpt><trkpt lat="41.82216518319856" lon="9.107085041435104"><ele>1025.0</ele><time>2026-05-03T10:23:15.002Z</time></trkpt><trkpt lat="41.82232376814061" lon="9.107116538322579"><ele>1026.0</ele><time>2026-05-03T10:23:16.002Z</time></trkpt><trkpt lat="41.82248018931833" lon="9.107166314225605"><ele>1026.0</ele><time>2026-05-03T10:23:17.002Z</time></trkpt><trkpt lat="41.82264152849723" lon="9.107217610036448"><ele>1026.0</ele><time>2026-05-03T10:23:18.002Z</time></trkpt><trkpt lat="41.822810797286174" lon="9.107242366424684"><ele>1026.0</ele><time>2026-05-03T10:23:19.002Z</time></trkpt><trkpt lat="41.82299272044149" lon="9.107215960622256"><ele>1025.0</ele><time>2026-05-03T10:23:20.002Z</time></trkpt><trkpt lat="41.82316737522287" lon="9.107186865325147"><ele>1024.0</ele><time>2026-05-03T10:23:21.002Z</time></trkpt><trkpt lat="41.8233094191896" lon="9.107283716704512"><ele>1023.0</ele><time>2026-05-03T10:23:22.002Z</time></trkpt><trkpt lat="41.82342181301783" lon="9.107306961535976"><ele>1022.0</ele><time>2026-05-03T10:23:23.002Z</time></trkpt><trkpt lat="41.82352598366682" lon="9.107284458201832"><ele>1022.0</ele><time>2026-05-03T10:23:24.002Z</time></trkpt><trkpt lat="41.82360739335581" lon="9.10718962646057"><ele>1022.0</ele><time>2026-05-03T10:23:25.002Z</time></trkpt><trkpt lat="41.82369959039201" lon="9.107077609467733"><ele>1022.0</ele><time>2026-05-03T10:23:26.002Z</time></trkpt><trkpt lat="41.82381848171467" lon="9.107045181597902"><ele>1022.0</ele><time>2026-05-03T10:23:27.002Z</time></trkpt><trkpt lat="41.82393636203526" lon="9.107135529896318"><ele>1022.0</ele><time>2026-05-03T10:23:28.002Z</time></trkpt><trkpt lat="41.824019841386864" lon="9.1072607159547"><ele>1022.0</ele><time>2026-05-03T10:23:29.002Z</time></trkpt><trkpt lat="41.824085051025136" lon="9.107409852646057"><ele>1022.0</ele><time>2026-05-03T10:23:30.002Z</time></trkpt><trkpt lat="41.82415984999452" lon="9.107579528734986"><ele>1022.0</ele><time>2026-05-03T10:23:31.002Z</time></trkpt><trkpt lat="41.82425305433293" lon="9.10775171526495"><ele>1022.0</ele><time>2026-05-03T10:23:32.003Z</time></trkpt><trkpt lat="41.82434359283696" lon="9.107934617916605"><ele>1022.0</ele><time>2026-05-03T10:23:33.003Z</time></trkpt><trkpt lat="41.82446891860812" lon="9.1080981962987"><ele>1022.0</ele><time>2026-05-03T10:23:34.003Z</time></trkpt><trkpt lat="41.824605990456504" lon="9.10823433308164"><ele>1026.0</ele><time>2026-05-03T10:23:35.003Z</time></trkpt><trkpt lat="41.82470941402524" lon="9.108364785465344"><ele>1030.0</ele><time>2026-05-03T10:23:36.003Z</time></trkpt><trkpt lat="41.824712158073645" lon="9.10857768201174"><ele>1034.0</ele><time>2026-05-03T10:23:37.003Z</time></trkpt><trkpt lat="41.82476710121651" lon="9.108700742994833"><ele>1038.0</ele><time>2026-05-03T10:23:38.003Z</time></trkpt><trkpt lat="41.82485469082014" lon="9.108809942087994"><ele>1038.0</ele><time>2026-05-03T10:23:39.003Z</time></trkpt><trkpt lat="41.82499095275616" lon="9.10889465019772"><ele>1038.0</ele><time>2026-05-03T10:23:40.003Z</time></trkpt><trkpt lat="41.82510200808821" lon="9.109050210961174"><ele>1038.0</ele><time>2026-05-03T10:23:41.003Z</time></trkpt><trkpt lat="41.825203955558564" lon="9.109216375372093"><ele>1036.25</ele><time>2026-05-03T10:23:42.003Z</time></trkpt><trkpt lat="41.82528873293481" lon="9.109358181573917"><ele>1034.5</ele><time>2026-05-03T10:23:43.003Z</time></trkpt><trkpt lat="41.825323996448134" lon="9.1094917876077"><ele>1032.75</ele><time>2026-05-03T10:23:44.003Z</time></trkpt><trkpt lat="41.825305930176434" lon="9.109622696133613"><ele>1031.0</ele><time>2026-05-03T10:23:45.003Z</time></trkpt><trkpt lat="41.82530141136693" lon="9.109770051414138"><ele>1034.5</ele><time>2026-05-03T10:23:46.003Z</time></trkpt><trkpt lat="41.82533533539439" lon="9.109911503089275"><ele>1038.0</ele><time>2026-05-03T10:23:47.003Z</time></trkpt><trkpt lat="41.82542438691635" lon="9.110050515496363"><ele>1041.5</ele><time>2026-05-03T10:23:48.003Z</time></trkpt><trkpt lat="41.82555914758966" lon="9.110170794688377"><ele>1045.0</ele><time>2026-05-03T10:23:49.003Z</time></trkpt><trkpt lat="41.825706435847565" lon="9.110285133609299"><ele>1045.0</ele><time>2026-05-03T10:23:50.003Z</time></trkpt><trkpt lat="41.825857675467056" lon="9.110404085760237"><ele>1045.0</ele><time>2026-05-03T10:23:51.003Z</time></trkpt><trkpt lat="41.82601339759601" lon="9.11053170835366"><ele>1045.0</ele><time>2026-05-03T10:23:52.003Z</time></trkpt><trkpt lat="41.826169875402705" lon="9.110671272637997"><ele>1047.6666666666665</ele><time>2026-05-03T10:23:53.003Z</time></trkpt><trkpt lat="41.82633222896614" lon="9.110815939840029"><ele>1050.3333333333333</ele><time>2026-05-03T10:23:54.003Z</time></trkpt><trkpt lat="41.82649030886717" lon="9.110948504344757"><ele>1053.0</ele><time>2026-05-03T10:23:55.003Z</time></trkpt><trkpt lat="41.826627357368274" lon="9.111044990499076"><ele>1053.0</ele><time>2026-05-03T10:23:56.003Z</time></trkpt><trkpt lat="41.82674638261209" lon="9.111104964578036"><ele>1053.0</ele><time>2026-05-03T10:23:57.003Z</time></trkpt><trkpt lat="41.82686428019999" lon="9.111138154401372"><ele>1053.0</ele><time>2026-05-03T10:23:58.003Z</time></trkpt><trkpt lat="41.82699266855525" lon="9.11113174511481"><ele>1053.0</ele><time>2026-05-03T10:23:59.003Z</time></trkpt><trkpt lat="41.827122812393505" lon="9.111095929841097"><ele>1054.0</ele><time>2026-05-03T10:23:59.999Z</time></trkpt><trkpt lat="41.82723275874287" lon="9.111065197641688"><ele>1055.0</ele><time>2026-05-03T10:24:00.999Z</time></trkpt><trkpt lat="41.82731875232203" lon="9.11104744347308"><ele>1056.0</ele><time>2026-05-03T10:24:02Z</time></trkpt><trkpt lat="41.827419601415315" lon="9.111019997581291"><ele>1057.0</ele><time>2026-05-03T10:24:04Z</time></trkpt><trkpt lat="41.82749092377229" lon="9.110938291114177"><ele>1058.0</ele><time>2026-05-03T10:24:07Z</time></trkpt><trkpt lat="41.82753635544683" lon="9.110872814088289"><ele>1058.0</ele><time>2026-05-03T10:24:09Z</time></trkpt><trkpt lat="41.82757174142866" lon="9.110780996355258"><ele>1058.0</ele><time>2026-05-03T10:24:11Z</time></trkpt><trkpt lat="41.8275799091446" lon="9.110691201842263"><ele>1058.0</ele><time>2026-05-03T10:24:12Z</time></trkpt><trkpt lat="41.82758263739553" lon="9.110587353728649"><ele>1058.0</ele><time>2026-05-03T10:24:13Z</time></trkpt><trkpt lat="41.82759171003534" lon="9.110487793168351"><ele>1058.0</ele><time>2026-05-03T10:24:14Z</time></trkpt><trkpt lat="41.82761148492999" lon="9.110357825369528"><ele>1058.0</ele><time>2026-05-03T10:24:16Z</time></trkpt><trkpt lat="41.82760965219047" lon="9.11027069220199"><ele>1058.6666666666667</ele><time>2026-05-03T10:24:18Z</time></trkpt><trkpt lat="41.827607652513095" lon="9.110180305263224"><ele>1059.3333333333335</ele><time>2026-05-03T10:24:21Z</time></trkpt><trkpt lat="41.82750729086589" lon="9.110100421505425"><ele>1060.0</ele><time>2026-05-03T10:24:34.001Z</time></trkpt><trkpt lat="41.82744835480863" lon="9.110069550237945"><ele>1060.6666666666667</ele><time>2026-05-03T10:24:35.001Z</time></trkpt><trkpt lat="41.82738434835836" lon="9.110009490074168"><ele>1061.3333333333333</ele><time>2026-05-03T10:24:36.001Z</time></trkpt><trkpt lat="41.82730743687124" lon="9.10995764958356"><ele>1062.0</ele><time>2026-05-03T10:24:37.001Z</time></trkpt><trkpt lat="41.82722493471772" lon="9.109886487236114"><ele>1062.75</ele><time>2026-05-03T10:24:38.001Z</time></trkpt><trkpt lat="41.82716952651167" lon="9.109774259947526"><ele>1063.5</ele><time>2026-05-03T10:24:39.001Z</time></trkpt><trkpt lat="41.827149072945254" lon="9.109616288476415"><ele>1064.25</ele><time>2026-05-03T10:24:40.001Z</time></trkpt><trkpt lat="41.82717543246648" lon="9.109429770921192"><ele>1065.0</ele><time>2026-05-03T10:24:41.001Z</time></trkpt><trkpt lat="41.82719712366573" lon="9.109228704781057"><ele>1062.75</ele><time>2026-05-03T10:24:42.001Z</time></trkpt><trkpt lat="41.82722433226081" lon="9.10903573082881"><ele>1060.5</ele><time>2026-05-03T10:24:43.001Z</time></trkpt><trkpt lat="41.82730476266512" lon="9.108912704540636"><ele>1058.25</ele><time>2026-05-03T10:24:44.001Z</time></trkpt><trkpt lat="41.82743121322004" lon="9.108821905483993"><ele>1056.0</ele><time>2026-05-03T10:24:45.001Z</time></trkpt><trkpt lat="41.82758583619827" lon="9.108740573210456"><ele>1059.6666666666667</ele><time>2026-05-03T10:24:46.001Z</time></trkpt><trkpt lat="41.82774370114937" lon="9.108659203150264"><ele>1063.3333333333335</ele><time>2026-05-03T10:24:47.001Z</time></trkpt><trkpt lat="41.827907133145224" lon="9.108566600207585"><ele>1067.0</ele><time>2026-05-03T10:24:48.001Z</time></trkpt><trkpt lat="41.82805875874877" lon="9.10847992606465"><ele>1067.0</ele><time>2026-05-03T10:24:49.001Z</time></trkpt><trkpt lat="41.82818929860725" lon="9.108428798534513"><ele>1067.0</ele><time>2026-05-03T10:24:50.001Z</time></trkpt><trkpt lat="41.828296741778956" lon="9.108538665595692"><ele>1067.0</ele><time>2026-05-03T10:24:51.001Z</time></trkpt><trkpt lat="41.828395703914794" lon="9.108521150298108"><ele>1067.0</ele><time>2026-05-03T10:24:52.001Z</time></trkpt><trkpt lat="41.82850353918699" lon="9.108537898905043"><ele>1069.0</ele><time>2026-05-03T10:24:53.001Z</time></trkpt><trkpt lat="41.82860607749555" lon="9.108457824613717"><ele>1071.0</ele><time>2026-05-03T10:24:54.001Z</time></trkpt><trkpt lat="41.82867035834268" lon="9.108315518295246"><ele>1073.0</ele><time>2026-05-03T10:24:55.001Z</time></trkpt><trkpt lat="41.828711354002905" lon="9.108127808658747"><ele>1075.0</ele><time>2026-05-03T10:24:56.001Z</time></trkpt><trkpt lat="41.82874356996117" lon="9.107938199888162"><ele>1075.0</ele><time>2026-05-03T10:24:57.001Z</time></trkpt><trkpt lat="41.828800805718586" lon="9.107788411204636"><ele>1075.0</ele><time>2026-05-03T10:24:58.001Z</time></trkpt><trkpt lat="41.82883650769834" lon="9.10764586801604"><ele>1075.0</ele><time>2026-05-03T10:24:59.001Z</time></trkpt><trkpt lat="41.828904198652126" lon="9.107541753658117"><ele>1075.0</ele><time>2026-05-03T10:25:00.001Z</time></trkpt><trkpt lat="41.82901507787269" lon="9.107494719936172"><ele>1075.0</ele><time>2026-05-03T10:25:01.001Z</time></trkpt><trkpt lat="41.82914459125577" lon="9.107471886673073"><ele>1075.0</ele><time>2026-05-03T10:25:02.001Z</time></trkpt><trkpt lat="41.829271641807814" lon="9.107426969644305"><ele>1075.0</ele><time>2026-05-03T10:25:03.001Z</time></trkpt><trkpt lat="41.82937220265811" lon="9.107408601388606"><ele>1075.0</ele><time>2026-05-03T10:25:04.001Z</time></trkpt><trkpt lat="41.82947107339044" lon="9.107392878270463"><ele>1078.0</ele><time>2026-05-03T10:25:05.002Z</time></trkpt><trkpt lat="41.829567182828676" lon="9.107383828931333"><ele>1081.0</ele><time>2026-05-03T10:25:06.002Z</time></trkpt><trkpt lat="41.82964523616921" lon="9.107383987355059"><ele>1084.0</ele><time>2026-05-03T10:25:07.002Z</time></trkpt><trkpt lat="41.82970825858963" lon="9.107373357030761"><ele>1087.0</ele><time>2026-05-03T10:25:08.002Z</time></trkpt><trkpt lat="41.829814269227214" lon="9.107307117692937"><ele>1090.0</ele><time>2026-05-03T10:25:10.002Z</time></trkpt><trkpt lat="41.82989019035589" lon="9.10719177755119"><ele>1090.0</ele><time>2026-05-03T10:25:12.002Z</time></trkpt><trkpt lat="41.82991597667576" lon="9.107040419683585"><ele>1090.0</ele><time>2026-05-03T10:25:14.002Z</time></trkpt><trkpt lat="41.829883206225254" lon="9.106880118179582"><ele>1090.0</ele><time>2026-05-03T10:25:16.002Z</time></trkpt><trkpt lat="41.82981389334724" lon="9.106778937360785"><ele>1090.0</ele><time>2026-05-03T10:25:18.002Z</time></trkpt><trkpt lat="41.82973930085526" lon="9.10671651029828"><ele>1090.0</ele><time>2026-05-03T10:25:20.002Z</time></trkpt><trkpt lat="41.82964599251604" lon="9.1066584770086"><ele>1090.0</ele><time>2026-05-03T10:25:22.002Z</time></trkpt><trkpt lat="41.829582196071286" lon="9.106599123815933"><ele>1090.0</ele><time>2026-05-03T10:25:24.002Z</time></trkpt><trkpt lat="41.82949777183666" lon="9.1065953807676"><ele>1090.0</ele><time>2026-05-03T10:37:08.002Z</time></trkpt><trkpt lat="41.8294471352961" lon="9.106504699433062"><ele>1090.0</ele><time>2026-05-03T10:37:10.002Z</time></trkpt><trkpt lat="41.829374490600316" lon="9.10639832603921"><ele>1090.0</ele><time>2026-05-03T10:37:12.002Z</time></trkpt><trkpt lat="41.82930045584183" lon="9.10633505919369"><ele>1090.0</ele><time>2026-05-03T10:37:13.002Z</time></trkpt><trkpt lat="41.82919694205552" lon="9.106279277849541"><ele>1093.3333333333333</ele><time>2026-05-03T10:37:14.002Z</time></trkpt><trkpt lat="41.829061161733215" lon="9.106199670715744"><ele>1096.6666666666667</ele><time>2026-05-03T10:37:15.002Z</time></trkpt><trkpt lat="41.82891647427834" lon="9.106050426860774"><ele>1100.0</ele><time>2026-05-03T10:37:16Z</time></trkpt><trkpt lat="41.82875108310331" lon="9.10588568556885"><ele>1098.0</ele><time>2026-05-03T10:37:17Z</time></trkpt><trkpt lat="41.82857138075305" lon="9.105718016330433"><ele>1096.0</ele><time>2026-05-03T10:37:18Z</time></trkpt><trkpt lat="41.828421280719105" lon="9.105514787539832"><ele>1094.0</ele><time>2026-05-03T10:37:19Z</time></trkpt><trkpt lat="41.82832069918934" lon="9.105314296250855"><ele>1094.0</ele><time>2026-05-03T10:37:20Z</time></trkpt><trkpt lat="41.828275805764044" lon="9.105136218661915"><ele>1094.0</ele><time>2026-05-03T10:37:21Z</time></trkpt><trkpt lat="41.82830270864096" lon="9.104891427849195"><ele>1094.0</ele><time>2026-05-03T10:37:22Z</time></trkpt><trkpt lat="41.8282253724835" lon="9.10469019498983"><ele>1102.0</ele><time>2026-05-03T10:37:23Z</time></trkpt><trkpt lat="41.82812355443156" lon="9.104539436229825"><ele>1110.0</ele><time>2026-05-03T10:37:24Z</time></trkpt><trkpt lat="41.82795322775674" lon="9.10440048457165"><ele>1118.0</ele><time>2026-05-03T10:37:25Z</time></trkpt><trkpt lat="41.82779046659046" lon="9.10422590248441"><ele>1124.3333333333335</ele><time>2026-05-03T10:37:26Z</time></trkpt><trkpt lat="41.82773739572896" lon="9.104019654231953"><ele>1130.6666666666667</ele><time>2026-05-03T10:37:27Z</time></trkpt><trkpt lat="41.8277159165005" lon="9.10378756189291"><ele>1137.0</ele><time>2026-05-03T10:37:28Z</time></trkpt><trkpt lat="41.827664741376964" lon="9.103481145669944"><ele>1124.0</ele><time>2026-05-03T10:37:29Z</time></trkpt><trkpt lat="41.827522440330384" lon="9.103176973161078"><ele>1111.0</ele><time>2026-05-03T10:37:30Z</time></trkpt><trkpt lat="41.82741001569913" lon="9.102836859297573"><ele>1111.0</ele><time>2026-05-03T10:37:31Z</time></trkpt><trkpt lat="41.82733641247635" lon="9.102460316013442"><ele>1111.0</ele><time>2026-05-03T10:37:32Z</time></trkpt><trkpt lat="41.8271910505792" lon="9.102187667661195"><ele>1120.5</ele><time>2026-05-03T10:37:33Z</time></trkpt><trkpt lat="41.82702644203351" lon="9.101940453710938"><ele>1130.0</ele><time>2026-05-03T10:37:34Z</time></trkpt><trkpt lat="41.82685754450324" lon="9.101756428259758"><ele>1121.0</ele><time>2026-05-03T10:37:35Z</time></trkpt><trkpt lat="41.826780587874566" lon="9.101581571180235"><ele>1112.0</ele><time>2026-05-03T10:37:36Z</time></trkpt><trkpt lat="41.826776265054065" lon="9.101395941223657"><ele>1103.0</ele><time>2026-05-03T10:37:37Z</time></trkpt><trkpt lat="41.826765428998556" lon="9.10110882307633"><ele>1103.0</ele><time>2026-05-03T10:37:38Z</time></trkpt><trkpt lat="41.826801509877924" lon="9.100804811432548"><ele>1103.0</ele><time>2026-05-03T10:37:39Z</time></trkpt><trkpt lat="41.82683659377404" lon="9.100499120924862"><ele>1108.0</ele><time>2026-05-03T10:37:40Z</time></trkpt><trkpt lat="41.82677936275148" lon="9.10029339939164"><ele>1113.0</ele><time>2026-05-03T10:37:41Z</time></trkpt><trkpt lat="41.826693976726226" lon="9.100082586816528"><ele>1118.0</ele><time>2026-05-03T10:37:42Z</time></trkpt><trkpt lat="41.82654148474123" lon="9.099873456079466"><ele>1126.0</ele><time>2026-05-03T10:37:43Z</time></trkpt><trkpt lat="41.826384469020944" lon="9.099627683068606"><ele>1134.0</ele><time>2026-05-03T10:37:44Z</time></trkpt><trkpt lat="41.826298023333585" lon="9.099271892098985"><ele>1142.5</ele><time>2026-05-03T10:37:45Z</time></trkpt><trkpt lat="41.826166964038606" lon="9.098938133369414"><ele>1151.0</ele><time>2026-05-03T10:37:46Z</time></trkpt><trkpt lat="41.82612032981469" lon="9.098576727999548"><ele>1151.0</ele><time>2026-05-03T10:37:47Z</time></trkpt><trkpt lat="41.8260257521009" lon="9.098345928368742"><ele>1151.0</ele><time>2026-05-03T10:37:48Z</time></trkpt><trkpt lat="41.82594000348123" lon="9.098190571511402"><ele>1151.0</ele><time>2026-05-03T10:37:49Z</time></trkpt><trkpt lat="41.82579549167486" lon="9.098086707178945"><ele>1147.0</ele><time>2026-05-03T10:37:50Z</time></trkpt><trkpt lat="41.825603572791294" lon="9.09801434694531"><ele>1143.0</ele><time>2026-05-03T10:37:51Z</time></trkpt><trkpt lat="41.825559061868184" lon="9.097877182948734"><ele>1139.0</ele><time>2026-05-03T10:37:52Z</time></trkpt><trkpt lat="41.82559787839809" lon="9.09772672390636"><ele>1135.0</ele><time>2026-05-03T10:37:53Z</time></trkpt><trkpt lat="41.82529550049624" lon="9.096457064160235"><ele>1138.0</ele><time>2026-05-03T10:37:58.459Z</time></trkpt><trkpt lat="41.82514860764316" lon="9.096130086117514"><ele>1141.0</ele><time>2026-05-03T10:38:00Z</time></trkpt><trkpt lat="41.825035410040826" lon="9.095935625963934"><ele>1141.0</ele><time>2026-05-03T10:38:01Z</time></trkpt><trkpt lat="41.82485058907589" lon="9.095822218814023"><ele>1141.0</ele><time>2026-05-03T10:38:02Z</time></trkpt><trkpt lat="41.82459079198709" lon="9.09578978084875"><ele>1141.0</ele><time>2026-05-03T10:38:03Z</time></trkpt><trkpt lat="41.82436104402116" lon="9.095762036749251"><ele>1141.0</ele><time>2026-05-03T10:38:03.999Z</time></trkpt><trkpt lat="41.82413988750598" lon="9.095739154153593"><ele>1145.0</ele><time>2026-05-03T10:38:04.999Z</time></trkpt><trkpt lat="41.823983606921345" lon="9.095648964875467"><ele>1149.0</ele><time>2026-05-03T10:38:05.999Z</time></trkpt><trkpt lat="41.82385867465457" lon="9.095523320146924"><ele>1153.0</ele><time>2026-05-03T10:38:06.999Z</time></trkpt><trkpt lat="41.82378415953538" lon="9.095352413141256"><ele>1153.0</ele><time>2026-05-03T10:38:07.999Z</time></trkpt><trkpt lat="41.82375842709264" lon="9.095121240251785"><ele>1153.0</ele><time>2026-05-03T10:38:08.999Z</time></trkpt><trkpt lat="41.82373730469665" lon="9.094856707387692"><ele>1153.0</ele><time>2026-05-03T10:38:09.999Z</time></trkpt><trkpt lat="41.82373137080723" lon="9.094598221311468"><ele>1152.5</ele><time>2026-05-03T10:38:10.999Z</time></trkpt><trkpt lat="41.82360034311894" lon="9.094299817411029"><ele>1152.0</ele><time>2026-05-03T10:38:11.999Z</time></trkpt><trkpt lat="41.82344034598268" lon="9.093953893260739"><ele>1152.0</ele><time>2026-05-03T10:38:12.999Z</time></trkpt><trkpt lat="41.8232832031524" lon="9.09362167496152"><ele>1152.0</ele><time>2026-05-03T10:38:13.999Z</time></trkpt><trkpt lat="41.82316695129018" lon="9.093332790174198"><ele>1154.5</ele><time>2026-05-03T10:38:14.999Z</time></trkpt><trkpt lat="41.82312573273358" lon="9.092977153539652"><ele>1157.0</ele><time>2026-05-03T10:38:15.999Z</time></trkpt><trkpt lat="41.82300436895773" lon="9.092692806326355"><ele>1157.0</ele><time>2026-05-03T10:38:16.999Z</time></trkpt><trkpt lat="41.82295862470229" lon="9.092482164045126"><ele>1157.0</ele><time>2026-05-03T10:38:17.999Z</time></trkpt><trkpt lat="41.82338689068424" lon="9.092523478167474"><ele>1161.6666666666667</ele><time>2026-05-03T10:38:18.999Z</time></trkpt><trkpt lat="41.82331679106089" lon="9.092295822188117"><ele>1166.3333333333333</ele><time>2026-05-03T10:38:19.999Z</time></trkpt><trkpt lat="41.82325983611306" lon="9.09210161171876"><ele>1171.0</ele><time>2026-05-03T10:38:20.999Z</time></trkpt><trkpt lat="41.823155206791924" lon="9.091954163048893"><ele>1171.0</ele><time>2026-05-03T10:38:21.999Z</time></trkpt><trkpt lat="41.82300706551835" lon="9.091837037557934"><ele>1171.0</ele><time>2026-05-03T10:38:22.999Z</time></trkpt><trkpt lat="41.822939544878224" lon="9.091683459029774"><ele>1171.0</ele><time>2026-05-03T10:38:23.999Z</time></trkpt><trkpt lat="41.822694624457746" lon="9.091618158386497"><ele>1163.0</ele><time>2026-05-03T10:38:25Z</time></trkpt><trkpt lat="41.82259343064357" lon="9.091271306132148"><ele>1155.0</ele><time>2026-05-03T10:38:26Z</time></trkpt><trkpt lat="41.82254301642551" lon="9.090993502557282"><ele>1155.0</ele><time>2026-05-03T10:38:27Z</time></trkpt><trkpt lat="41.82258517785894" lon="9.090764782783697"><ele>1155.0</ele><time>2026-05-03T10:38:28Z</time></trkpt><trkpt lat="41.82267742023921" lon="9.090678570091018"><ele>1155.0</ele><time>2026-05-03T10:38:29Z</time></trkpt><trkpt lat="41.822697448371386" lon="9.090541008256281"><ele>1155.0</ele><time>2026-05-03T10:38:30Z</time></trkpt><trkpt lat="41.82273555993987" lon="9.090432681735955"><ele>1159.6666666666667</ele><time>2026-05-03T10:38:31Z</time></trkpt><trkpt lat="41.82267554906276" lon="9.090280985074285"><ele>1164.3333333333335</ele><time>2026-05-03T10:38:32Z</time></trkpt><trkpt lat="41.822536827863274" lon="9.090155890216474"><ele>1169.0</ele><time>2026-05-03T10:38:33Z</time></trkpt><trkpt lat="41.82234559017645" lon="9.090027024279529"><ele>1180.5</ele><time>2026-05-03T10:38:34Z</time></trkpt><trkpt lat="41.82213232723254" lon="9.089876802839392"><ele>1192.0</ele><time>2026-05-03T10:38:35Z</time></trkpt><trkpt lat="41.821901817337924" lon="9.089705597406686"><ele>1186.0</ele><time>2026-05-03T10:38:36Z</time></trkpt><trkpt lat="41.82165028076278" lon="9.08952615122617"><ele>1180.0</ele><time>2026-05-03T10:38:37Z</time></trkpt><trkpt lat="41.82145172043598" lon="9.089402425827563"><ele>1180.0</ele><time>2026-05-03T10:38:38Z</time></trkpt><trkpt lat="41.821298165012905" lon="9.089365702959114"><ele>1180.0</ele><time>2026-05-03T10:38:39Z</time></trkpt><trkpt lat="41.82114912810022" lon="9.089418755003349"><ele>1180.0</ele><time>2026-05-03T10:38:40Z</time></trkpt><trkpt lat="41.82098319302584" lon="9.08946530977589"><ele>1182.3333333333333</ele><time>2026-05-03T10:38:41Z</time></trkpt><trkpt lat="41.820826395409064" lon="9.089385721142566"><ele>1184.6666666666667</ele><time>2026-05-03T10:38:42Z</time></trkpt><trkpt lat="41.82063955633088" lon="9.089232025586048"><ele>1187.0</ele><time>2026-05-03T10:38:43Z</time></trkpt><trkpt lat="41.820439901535586" lon="9.08901842202357"><ele>1187.0</ele><time>2026-05-03T10:38:44Z</time></trkpt><trkpt lat="41.82023028372532" lon="9.088770617572262"><ele>1187.0</ele><time>2026-05-03T10:38:45Z</time></trkpt><trkpt lat="41.820090497651925" lon="9.088574062756695"><ele>1188.75</ele><time>2026-05-03T10:38:46Z</time></trkpt><trkpt lat="41.82002581327967" lon="9.088393559649612"><ele>1190.5</ele><time>2026-05-03T10:38:47Z</time></trkpt><trkpt lat="41.82003407244607" lon="9.088209523051626"><ele>1192.25</ele><time>2026-05-03T10:38:48Z</time></trkpt><trkpt lat="41.82010258760388" lon="9.0880174052511"><ele>1194.0</ele><time>2026-05-03T10:38:49Z</time></trkpt><trkpt lat="41.82022202743323" lon="9.087785768633987"><ele>1194.0</ele><time>2026-05-03T10:38:50Z</time></trkpt><trkpt lat="41.82032541575098" lon="9.087528615503194"><ele>1194.0</ele><time>2026-05-03T10:38:51Z</time></trkpt><trkpt lat="41.82038824753281" lon="9.08726095525965"><ele>1194.0</ele><time>2026-05-03T10:38:52Z</time></trkpt><trkpt lat="41.8204315971683" lon="9.086999874139147"><ele>1194.0</ele><time>2026-05-03T10:38:53Z</time></trkpt><trkpt lat="41.82046787510332" lon="9.086751815212832"><ele>1194.0</ele><time>2026-05-03T10:38:54Z</time></trkpt><trkpt lat="41.82050616620976" lon="9.086534103682158"><ele>1194.0</ele><time>2026-05-03T10:38:55Z</time></trkpt><trkpt lat="41.82056361393545" lon="9.086296035187706"><ele>1191.0</ele><time>2026-05-03T10:38:56Z</time></trkpt><trkpt lat="41.82065930733868" lon="9.086043570478228"><ele>1188.0</ele><time>2026-05-03T10:38:57Z</time></trkpt><trkpt lat="41.82078149716671" lon="9.085821543209793"><ele>1185.0</ele><time>2026-05-03T10:38:58Z</time></trkpt><trkpt lat="41.820906523954726" lon="9.08566798438804"><ele>1188.6666666666667</ele><time>2026-05-03T10:38:59Z</time></trkpt><trkpt lat="41.82107844947354" lon="9.085569081117438"><ele>1192.3333333333335</ele><time>2026-05-03T10:39:00Z</time></trkpt><trkpt lat="41.821241071733326" lon="9.085470964120194"><ele>1196.0</ele><time>2026-05-03T10:39:01Z</time></trkpt><trkpt lat="41.821363849582376" lon="9.085287637188598"><ele>1196.0</ele><time>2026-05-03T10:39:02Z</time></trkpt><trkpt lat="41.82142669991498" lon="9.085047769535901"><ele>1196.0</ele><time>2026-05-03T10:39:03Z</time></trkpt><trkpt lat="41.821462037249646" lon="9.084853897299231"><ele>1196.0</ele><time>2026-05-03T10:39:04Z</time></trkpt><trkpt lat="41.821528311085466" lon="9.0846997028429"><ele>1195.75</ele><time>2026-05-03T10:39:05Z</time></trkpt><trkpt lat="41.82162340040206" lon="9.084591535783542"><ele>1195.5</ele><time>2026-05-03T10:39:06Z</time></trkpt><trkpt lat="41.82175256168894" lon="9.084532258107963"><ele>1195.25</ele><time>2026-05-03T10:39:07Z</time></trkpt><trkpt lat="41.821913847271844" lon="9.084483044722939"><ele>1195.0</ele><time>2026-05-03T10:39:08Z</time></trkpt><trkpt lat="41.8220904231835" lon="9.084434968824478"><ele>1195.0</ele><time>2026-05-03T10:39:09Z</time></trkpt><trkpt lat="41.82227395447326" lon="9.084379019025434"><ele>1195.0</ele><time>2026-05-03T10:39:10Z</time></trkpt><trkpt lat="41.82245860231059" lon="9.084330294512824"><ele>1195.0</ele><time>2026-05-03T10:39:11Z</time></trkpt><trkpt lat="41.82262011829884" lon="9.08426846901143"><ele>1195.0</ele><time>2026-05-03T10:39:12Z</time></trkpt><trkpt lat="41.82276247687917" lon="9.084212325700946"><ele>1195.0</ele><time>2026-05-03T10:39:13Z</time></trkpt><trkpt lat="41.82289684873365" lon="9.084165908655095"><ele>1195.0</ele><time>2026-05-03T10:39:14Z</time></trkpt><trkpt lat="41.8230442659222" lon="9.084126912111001"><ele>1195.0</ele><time>2026-05-03T10:39:15.001Z</time></trkpt><trkpt lat="41.8231971184065" lon="9.084091800734592"><ele>1193.4</ele><time>2026-05-03T10:39:16.001Z</time></trkpt><trkpt lat="41.82332989996856" lon="9.08405332555637"><ele>1191.8</ele><time>2026-05-03T10:39:17.001Z</time></trkpt><trkpt lat="41.823435357843415" lon="9.084017136546034"><ele>1190.2</ele><time>2026-05-03T10:39:18.001Z</time></trkpt><trkpt lat="41.823520067169255" lon="9.083986290920338"><ele>1188.6</ele><time>2026-05-03T10:39:19.001Z</time></trkpt><trkpt lat="41.82358695558893" lon="9.083934845389969"><ele>1187.0</ele><time>2026-05-03T10:39:20.001Z</time></trkpt><trkpt lat="41.82364938047049" lon="9.083878193345173"><ele>1185.0</ele><time>2026-05-03T10:39:21.001Z</time></trkpt><trkpt lat="41.823740332789015" lon="9.083813398369484"><ele>1183.0</ele><time>2026-05-03T10:39:22.001Z</time></trkpt><trkpt lat="41.823842801033756" lon="9.083769226887593"><ele>1181.0</ele><time>2026-05-03T10:39:23.001Z</time></trkpt><trkpt lat="41.82393889760243" lon="9.083724917420934"><ele>1179.0</ele><time>2026-05-03T10:39:24.001Z</time></trkpt><trkpt lat="41.82400694734117" lon="9.083686065401789"><ele>1177.0</ele><time>2026-05-03T10:39:25.001Z</time></trkpt><trkpt lat="41.82408740884545" lon="9.083629016021897"><ele>1177.0</ele><time>2026-05-03T10:39:27.001Z</time></trkpt><trkpt lat="41.82409682257907" lon="9.083536508311244"><ele>1177.0</ele><time>2026-05-03T10:39:30.001Z</time></trkpt><trkpt lat="41.824028404230134" lon="9.083487563924137"><ele>1177.0</ele><time>2026-05-03T10:39:38.001Z</time></trkpt><trkpt lat="41.82396069952085" lon="9.083449653401008"><ele>1177.0</ele><time>2026-05-03T10:39:39.001Z</time></trkpt><trkpt lat="41.82387665355016" lon="9.083441191397197"><ele>1177.0</ele><time>2026-05-03T10:39:40.001Z</time></trkpt><trkpt lat="41.82376559938001" lon="9.083449932869334"><ele>1177.0</ele><time>2026-05-03T10:39:41.001Z</time></trkpt><trkpt lat="41.82362740708056" lon="9.083494689384231"><ele>1177.0</ele><time>2026-05-03T10:39:42.001Z</time></trkpt><trkpt lat="41.82349823305664" lon="9.083558007307438"><ele>1177.0</ele><time>2026-05-03T10:39:43.001Z</time></trkpt><trkpt lat="41.82333809273287" lon="9.08366991185014"><ele>1177.0</ele><time>2026-05-03T10:39:44.001Z</time></trkpt><trkpt lat="41.82315103232462" lon="9.083751606629503"><ele>1180.3333333333333</ele><time>2026-05-03T10:39:45.001Z</time></trkpt><trkpt lat="41.82294055274143" lon="9.083847036801298"><ele>1183.6666666666667</ele><time>2026-05-03T10:39:46.001Z</time></trkpt><trkpt lat="41.8227574799335" lon="9.08394822592485"><ele>1187.0</ele><time>2026-05-03T10:39:47.001Z</time></trkpt><trkpt lat="41.82263222693155" lon="9.084015933375492"><ele>1188.6</ele><time>2026-05-03T10:39:48.001Z</time></trkpt><trkpt lat="41.82254317073639" lon="9.08409717553014"><ele>1190.2</ele><time>2026-05-03T10:39:49.001Z</time></trkpt><trkpt lat="41.822486874269316" lon="9.084188481874818"><ele>1191.8</ele><time>2026-05-03T10:39:50.001Z</time></trkpt><trkpt lat="41.82245595296111" lon="9.084301485067726"><ele>1193.4</ele><time>2026-05-03T10:39:52.001Z</time></trkpt><trkpt lat="41.8225162767479" lon="9.08433505330876"><ele>1195.0</ele><time>2026-05-03T10:39:54.001Z</time></trkpt><trkpt lat="41.822674400819174" lon="9.084272979581627"><ele>1195.0</ele><time>2026-05-03T10:39:56.001Z</time></trkpt><trkpt lat="41.82282183053209" lon="9.084213377486401"><ele>1195.0</ele><time>2026-05-03T10:39:57.001Z</time></trkpt><trkpt lat="41.82296114420135" lon="9.084162351806498"><ele>1195.0</ele><time>2026-05-03T10:39:58.001Z</time></trkpt><trkpt lat="41.82308080331096" lon="9.084089372820165"><ele>1195.0</ele><time>2026-05-03T10:39:59.001Z</time></trkpt><trkpt lat="41.8232097011418" lon="9.08401728359485"><ele>1193.0</ele><time>2026-05-03T10:40:00.001Z</time></trkpt><trkpt lat="41.823338337522614" lon="9.083968431710035"><ele>1191.0</ele><time>2026-05-03T10:40:01.001Z</time></trkpt><trkpt lat="41.823474962985344" lon="9.083932267496323"><ele>1189.0</ele><time>2026-05-03T10:40:02.001Z</time></trkpt><trkpt lat="41.823644607583454" lon="9.083878638515879"><ele>1187.0</ele><time>2026-05-03T10:40:03.001Z</time></trkpt><trkpt lat="41.82380612194393" lon="9.083810183397068"><ele>1185.0</ele><time>2026-05-03T10:40:04.001Z</time></trkpt><trkpt lat="41.823924241643866" lon="9.083755269509574"><ele>1183.0</ele><time>2026-05-03T10:40:05.001Z</time></trkpt><trkpt lat="41.824005306839524" lon="9.083693164348707"><ele>1181.0</ele><time>2026-05-03T10:40:06.001Z</time></trkpt><trkpt lat="41.82406386360069" lon="9.083635479817833"><ele>1179.0</ele><time>2026-05-03T10:40:07.001Z</time></trkpt><trkpt lat="41.824110477579154" lon="9.083548679701941"><ele>1177.0</ele><time>2026-05-03T10:40:09.001Z</time></trkpt><trkpt lat="41.824027864843984" lon="9.083530983870588"><ele>1177.0</ele><time>2026-05-03T10:40:11.997Z</time></trkpt><trkpt lat="41.82393991913365" lon="9.083625890728017"><ele>1177.0</ele><time>2026-05-03T10:40:13.997Z</time></trkpt><trkpt lat="41.82392470598606" lon="9.08371540888804"><ele>1177.0</ele><time>2026-05-03T10:40:14.997Z</time></trkpt><trkpt lat="41.823864261109655" lon="9.083805378532807"><ele>1177.0</ele><time>2026-05-03T10:40:16.998Z</time></trkpt><trkpt lat="41.8237980728373" lon="9.083835508809877"><ele>1177.0</ele><time>2026-05-03T10:40:17.998Z</time></trkpt><trkpt lat="41.8237253369905" lon="9.083861263732052"><ele>1177.0</ele><time>2026-05-03T10:40:18.998Z</time></trkpt><trkpt lat="41.823632882562926" lon="9.083903089121762"><ele>1177.0</ele><time>2026-05-03T10:40:20.998Z</time></trkpt><trkpt lat="41.82356552822004" lon="9.08391306985788"><ele>1177.0</ele><time>2026-05-03T10:40:22.998Z</time></trkpt><trkpt lat="41.823542095626614" lon="9.084014148741396"><ele>1177.0</ele><time>2026-05-03T10:40:26.998Z</time></trkpt><trkpt lat="41.82362699068048" lon="9.08401231719412"><ele>1177.0</ele><time>2026-05-03T10:40:29.998Z</time></trkpt><trkpt lat="41.823708264546305" lon="9.08400160195301"><ele>1177.0</ele><time>2026-05-03T10:41:06Z</time></trkpt><trkpt lat="41.82379377631857" lon="9.084119309722274"><ele>1177.0</ele><time>2026-05-03T10:41:08Z</time></trkpt><trkpt lat="41.823849579598665" lon="9.08420442893514"><ele>1179.2</ele><time>2026-05-03T10:41:09Z</time></trkpt><trkpt lat="41.82390541939833" lon="9.084300733159528"><ele>1181.4</ele><time>2026-05-03T10:41:10Z</time></trkpt><trkpt lat="41.82394871838951" lon="9.084402387649408"><ele>1183.6</ele><time>2026-05-03T10:41:11Z</time></trkpt><trkpt lat="41.82397616624786" lon="9.084492601227867"><ele>1185.8</ele><time>2026-05-03T10:41:12Z</time></trkpt><trkpt lat="41.823995606137395" lon="9.084578841513247"><ele>1188.0</ele><time>2026-05-03T10:41:13Z</time></trkpt><trkpt lat="41.82406834118752" lon="9.084764053673062"><ele>1188.0</ele><time>2026-05-03T10:41:15Z</time></trkpt><trkpt lat="41.82412581426724" lon="9.08489321523459"><ele>1188.0</ele><time>2026-05-03T10:41:16Z</time></trkpt><trkpt lat="41.82415702699389" lon="9.085048044779194"><ele>1188.0</ele><time>2026-05-03T10:41:17Z</time></trkpt><trkpt lat="41.82421197965264" lon="9.085191097175576"><ele>1188.0</ele><time>2026-05-03T10:41:18Z</time></trkpt><trkpt lat="41.82425070702117" lon="9.085323494937127"><ele>1183.75</ele><time>2026-05-03T10:41:19Z</time></trkpt><trkpt lat="41.824320614147126" lon="9.085439542793113"><ele>1179.5</ele><time>2026-05-03T10:41:20Z</time></trkpt><trkpt lat="41.824433155103485" lon="9.085536876856596"><ele>1175.25</ele><time>2026-05-03T10:41:21Z</time></trkpt><trkpt lat="41.82457189914118" lon="9.085617243604611"><ele>1171.0</ele><time>2026-05-03T10:41:22Z</time></trkpt><trkpt lat="41.82472051217401" lon="9.085701612764716"><ele>1174.3333333333333</ele><time>2026-05-03T10:41:23Z</time></trkpt><trkpt lat="41.82487768786509" lon="9.085794250148375"><ele>1177.6666666666667</ele><time>2026-05-03T10:41:24Z</time></trkpt><trkpt lat="41.825020618614076" lon="9.08588907023854"><ele>1181.0</ele><time>2026-05-03T10:41:25Z</time></trkpt><trkpt lat="41.82510656113397" lon="9.08599918768288"><ele>1181.0</ele><time>2026-05-03T10:41:26Z</time></trkpt><trkpt lat="41.82512030123779" lon="9.086165795262545"><ele>1181.0</ele><time>2026-05-03T10:41:27Z</time></trkpt><trkpt lat="41.82509998494284" lon="9.086326359262548"><ele>1181.0</ele><time>2026-05-03T10:41:28Z</time></trkpt><trkpt lat="41.82507720680882" lon="9.08652656268618"><ele>1181.0</ele><time>2026-05-03T10:41:29Z</time></trkpt><trkpt lat="41.8250620493824" lon="9.086719178125824"><ele>1184.25</ele><time>2026-05-03T10:41:30Z</time></trkpt><trkpt lat="41.82506398032431" lon="9.086888193862714"><ele>1187.5</ele><time>2026-05-03T10:41:31Z</time></trkpt><trkpt lat="41.825119189402464" lon="9.087033073896986"><ele>1190.75</ele><time>2026-05-03T10:41:32Z</time></trkpt><trkpt lat="41.82523305843318" lon="9.087140386576984"><ele>1194.0</ele><time>2026-05-03T10:41:33Z</time></trkpt><trkpt lat="41.82538078638563" lon="9.08721049171204"><ele>1190.75</ele><time>2026-05-03T10:41:34.001Z</time></trkpt><trkpt lat="41.82552508818744" lon="9.087296278586138"><ele>1187.5</ele><time>2026-05-03T10:41:35.001Z</time></trkpt><trkpt lat="41.82561615252749" lon="9.087460351351245"><ele>1184.25</ele><time>2026-05-03T10:41:36.001Z</time></trkpt><trkpt lat="41.82569886062927" lon="9.087605157214819"><ele>1181.0</ele><time>2026-05-03T10:41:37.001Z</time></trkpt><trkpt lat="41.82576498256544" lon="9.087729354408436"><ele>1181.0</ele><time>2026-05-03T10:41:38.001Z</time></trkpt><trkpt lat="41.82587321202596" lon="9.087783969926159"><ele>1181.0</ele><time>2026-05-03T10:41:39.001Z</time></trkpt><trkpt lat="41.82601511746088" lon="9.087770725800441"><ele>1181.0</ele><time>2026-05-03T10:41:40.001Z</time></trkpt><trkpt lat="41.826170780814316" lon="9.087712220750046"><ele>1181.0</ele><time>2026-05-03T10:41:41.001Z</time></trkpt><trkpt lat="41.82632800543293" lon="9.087626013299795"><ele>1181.25</ele><time>2026-05-03T10:41:42.001Z</time></trkpt><trkpt lat="41.82646537690518" lon="9.087494747370293"><ele>1181.5</ele><time>2026-05-03T10:41:43.001Z</time></trkpt><trkpt lat="41.82657262247619" lon="9.08734968254557"><ele>1181.75</ele><time>2026-05-03T10:41:44.001Z</time></trkpt><trkpt lat="41.82667680893716" lon="9.087254055424479"><ele>1182.0</ele><time>2026-05-03T10:41:45.001Z</time></trkpt><trkpt lat="41.826802066518454" lon="9.087228178829811"><ele>1179.5</ele><time>2026-05-03T10:41:46.001Z</time></trkpt><trkpt lat="41.82692836128893" lon="9.087289398790258"><ele>1177.0</ele><time>2026-05-03T10:41:47.001Z</time></trkpt><trkpt lat="41.82705098363079" lon="9.08737379757223"><ele>1174.5</ele><time>2026-05-03T10:41:48.001Z</time></trkpt><trkpt lat="41.8271903627857" lon="9.087424976953322"><ele>1172.0</ele><time>2026-05-03T10:41:49.001Z</time></trkpt><trkpt lat="41.82733535103166" lon="9.087492224653284"><ele>1172.0</ele><time>2026-05-03T10:41:50.001Z</time></trkpt><trkpt lat="41.82748438330346" lon="9.087588206700058"><ele>1172.0</ele><time>2026-05-03T10:41:51.001Z</time></trkpt><trkpt lat="41.82760349522819" lon="9.087754795455352"><ele>1172.0</ele><time>2026-05-03T10:41:52.001Z</time></trkpt><trkpt lat="41.827739946926435" lon="9.08791551372449"><ele>1164.0</ele><time>2026-05-03T10:41:53.001Z</time></trkpt><trkpt lat="41.827885999857" lon="9.088071570217032"><ele>1156.0</ele><time>2026-05-03T10:41:54.001Z</time></trkpt><trkpt lat="41.828066726328075" lon="9.088157933832552"><ele>1148.0</ele><time>2026-05-03T10:41:55.001Z</time></trkpt><trkpt lat="41.828232281455236" lon="9.088247471444644"><ele>1153.25</ele><time>2026-05-03T10:41:56.001Z</time></trkpt><trkpt lat="41.828361686257075" lon="9.088372734128622"><ele>1158.5</ele><time>2026-05-03T10:41:57.001Z</time></trkpt><trkpt lat="41.82847125116945" lon="9.088489233199748"><ele>1163.75</ele><time>2026-05-03T10:41:58.001Z</time></trkpt><trkpt lat="41.82860307379172" lon="9.088528037534667"><ele>1169.0</ele><time>2026-05-03T10:41:59.001Z</time></trkpt><trkpt lat="41.828753080682176" lon="9.088499888880952"><ele>1169.0</ele><time>2026-05-03T10:42:00.001Z</time></trkpt><trkpt lat="41.82889484365882" lon="9.088443006982569"><ele>1169.0</ele><time>2026-05-03T10:42:01.001Z</time></trkpt><trkpt lat="41.82904238384548" lon="9.08837752238574"><ele>1169.0</ele><time>2026-05-03T10:42:02.001Z</time></trkpt><trkpt lat="41.8292114590824" lon="9.088335213305994"><ele>1168.3333333333335</ele><time>2026-05-03T10:42:03.001Z</time></trkpt><trkpt lat="41.829400265140634" lon="9.088329884746303"><ele>1167.6666666666667</ele><time>2026-05-03T10:42:04.001Z</time></trkpt><trkpt lat="41.82959964875641" lon="9.0883469615164"><ele>1167.0</ele><time>2026-05-03T10:42:05.001Z</time></trkpt><trkpt lat="41.82980722692113" lon="9.088365820969079"><ele>1167.0</ele><time>2026-05-03T10:42:06.001Z</time></trkpt><trkpt lat="41.83002424181163" lon="9.088353784016599"><ele>1167.0</ele><time>2026-05-03T10:42:07.001Z</time></trkpt><trkpt lat="41.83023078060857" lon="9.088298066129667"><ele>1167.0</ele><time>2026-05-03T10:42:08.001Z</time></trkpt><trkpt lat="41.83041361282564" lon="9.088229249206616"><ele>1165.0</ele><time>2026-05-03T10:42:09.001Z</time></trkpt><trkpt lat="41.830573395538075" lon="9.088202994046895"><ele>1163.0</ele><time>2026-05-03T10:42:10.001Z</time></trkpt><trkpt lat="41.83071139985878" lon="9.088278914554289"><ele>1161.0</ele><time>2026-05-03T10:42:11.001Z</time></trkpt><trkpt lat="41.83083732073964" lon="9.088370485323704"><ele>1161.0</ele><time>2026-05-03T10:42:12.001Z</time></trkpt><trkpt lat="41.830918296048345" lon="9.088528201851293"><ele>1161.0</ele><time>2026-05-03T10:42:13.001Z</time></trkpt><trkpt lat="41.830916400606256" lon="9.088716630458926"><ele>1161.0</ele><time>2026-05-03T10:42:14.001Z</time></trkpt><trkpt lat="41.83092583493598" lon="9.088892439838515"><ele>1161.0</ele><time>2026-05-03T10:42:15.001Z</time></trkpt><trkpt lat="41.83094006039962" lon="9.089059080751891"><ele>1164.25</ele><time>2026-05-03T10:42:15.998Z</time></trkpt><trkpt lat="41.83093916821343" lon="9.089234924777752"><ele>1167.5</ele><time>2026-05-03T10:42:16.998Z</time></trkpt><trkpt lat="41.830953059175926" lon="9.089418129941281"><ele>1170.75</ele><time>2026-05-03T10:42:17.998Z</time></trkpt><trkpt lat="41.83098219709081" lon="9.089589321520751"><ele>1174.0</ele><time>2026-05-03T10:42:18.998Z</time></trkpt><trkpt lat="41.831047851966396" lon="9.08972760300411"><ele>1167.5</ele><time>2026-05-03T10:42:19.998Z</time></trkpt><trkpt lat="41.831156184220234" lon="9.089817791524741"><ele>1161.0</ele><time>2026-05-03T10:42:20.998Z</time></trkpt><trkpt lat="41.831303424795465" lon="9.089855017096633"><ele>1154.5</ele><time>2026-05-03T10:42:21.998Z</time></trkpt><trkpt lat="41.831472513393905" lon="9.08986448899075"><ele>1148.0</ele><time>2026-05-03T10:42:22.998Z</time></trkpt><trkpt lat="41.83164842407547" lon="9.089887847513978"><ele>1151.6666666666667</ele><time>2026-05-03T10:42:23.998Z</time></trkpt><trkpt lat="41.83183142685753" lon="9.089931883844502"><ele>1155.3333333333333</ele><time>2026-05-03T10:42:24.998Z</time></trkpt><trkpt lat="41.83202039620724" lon="9.089982112476509"><ele>1159.0</ele><time>2026-05-03T10:42:25.998Z</time></trkpt><trkpt lat="41.83221595669278" lon="9.090033967160355"><ele>1159.0</ele><time>2026-05-03T10:42:26.998Z</time></trkpt><trkpt lat="41.83240930411591" lon="9.090084910333749"><ele>1159.0</ele><time>2026-05-03T10:42:27.998Z</time></trkpt><trkpt lat="41.83258404294577" lon="9.090139221633319"><ele>1159.0</ele><time>2026-05-03T10:42:28.998Z</time></trkpt><trkpt lat="41.8327475570044" lon="9.090205544653168"><ele>1152.6666666666665</ele><time>2026-05-03T10:42:29.998Z</time></trkpt><trkpt lat="41.83289629304254" lon="9.090293090661408"><ele>1146.3333333333333</ele><time>2026-05-03T10:42:30.999Z</time></trkpt><trkpt lat="41.83303325445736" lon="9.090399305889967"><ele>1140.0</ele><time>2026-05-03T10:42:31.999Z</time></trkpt><trkpt lat="41.83317022994786" lon="9.090511409805556"><ele>1140.0</ele><time>2026-05-03T10:42:32.999Z</time></trkpt><trkpt lat="41.83330174830092" lon="9.090609685382253"><ele>1140.0</ele><time>2026-05-03T10:42:33.999Z</time></trkpt><trkpt lat="41.83344075067435" lon="9.090707622469012"><ele>1140.0</ele><time>2026-05-03T10:42:34.999Z</time></trkpt><trkpt lat="41.83355732494334" lon="9.090872110714182"><ele>1139.6666666666667</ele><time>2026-05-03T10:42:35.999Z</time></trkpt><trkpt lat="41.83368287159196" lon="9.091013253904933"><ele>1139.3333333333335</ele><time>2026-05-03T10:42:36.999Z</time></trkpt><trkpt lat="41.83379395226005" lon="9.091150743437518"><ele>1139.0</ele><time>2026-05-03T10:42:37.999Z</time></trkpt><trkpt lat="41.83383543314939" lon="9.091333531002388"><ele>1139.0</ele><time>2026-05-03T10:42:38.999Z</time></trkpt><trkpt lat="41.833864720136496" lon="9.091509798032428"><ele>1139.0</ele><time>2026-05-03T10:42:39.999Z</time></trkpt><trkpt lat="41.83390571964631" lon="9.091667057824944"><ele>1139.0</ele><time>2026-05-03T10:42:40.999Z</time></trkpt><trkpt lat="41.833939177305325" lon="9.091816633942488"><ele>1139.0</ele><time>2026-05-03T10:42:41.999Z</time></trkpt><trkpt lat="41.83401233606965" lon="9.091953927092115"><ele>1137.3333333333335</ele><time>2026-05-03T10:42:42.999Z</time></trkpt><trkpt lat="41.834124029605825" lon="9.092076407305067"><ele>1135.6666666666667</ele><time>2026-05-03T10:42:43.999Z</time></trkpt><trkpt lat="41.83427039722231" lon="9.092158785229127"><ele>1134.0</ele><time>2026-05-03T10:42:44.999Z</time></trkpt><trkpt lat="41.83444055267949" lon="9.092193229384241"><ele>1134.0</ele><time>2026-05-03T10:42:45.999Z</time></trkpt><trkpt lat="41.83462692114573" lon="9.092219705798533"><ele>1134.0</ele><time>2026-05-03T10:42:46.999Z</time></trkpt><trkpt lat="41.83482136684099" lon="9.092260749510565"><ele>1134.0</ele><time>2026-05-03T10:42:47.999Z</time></trkpt><trkpt lat="41.83502030337453" lon="9.092318665520702"><ele>1133.0</ele><time>2026-05-03T10:42:49Z</time></trkpt><trkpt lat="41.83520232521203" lon="9.092404479454641"><ele>1132.0</ele><time>2026-05-03T10:42:50Z</time></trkpt><trkpt lat="41.835341354504344" lon="9.092549627214622"><ele>1131.0</ele><time>2026-05-03T10:42:51Z</time></trkpt><trkpt lat="41.83545073997076" lon="9.092720748984746"><ele>1131.0</ele><time>2026-05-03T10:42:52Z</time></trkpt><trkpt lat="41.835541884726815" lon="9.09291797996154"><ele>1131.0</ele><time>2026-05-03T10:42:53Z</time></trkpt><trkpt lat="41.83564143484606" lon="9.0931137303663"><ele>1131.0</ele><time>2026-05-03T10:42:54Z</time></trkpt><trkpt lat="41.835675823510755" lon="9.09332226755801"><ele>1135.0</ele><time>2026-05-03T10:42:55Z</time></trkpt><trkpt lat="41.83570691698505" lon="9.093505915276191"><ele>1139.0</ele><time>2026-05-03T10:42:56Z</time></trkpt><trkpt lat="41.83572129673788" lon="9.093666509681723"><ele>1143.0</ele><time>2026-05-03T10:42:57Z</time></trkpt><trkpt lat="41.83577891756618" lon="9.09379957056194"><ele>1147.0</ele><time>2026-05-03T10:42:58Z</time></trkpt><trkpt lat="41.835878593638554" lon="9.09387962804129"><ele>1146.0</ele><time>2026-05-03T10:42:59Z</time></trkpt><trkpt lat="41.83600770925904" lon="9.093885947930067"><ele>1145.0</ele><time>2026-05-03T10:43:00Z</time></trkpt><trkpt lat="41.836145539230095" lon="9.093828441827586"><ele>1144.0</ele><time>2026-05-03T10:43:01Z</time></trkpt><trkpt lat="41.83628421445911" lon="9.093732775836651"><ele>1143.0</ele><time>2026-05-03T10:43:02Z</time></trkpt><trkpt lat="41.836421655436155" lon="9.093603434413025"><ele>1143.0</ele><time>2026-05-03T10:43:03Z</time></trkpt><trkpt lat="41.83655021200595" lon="9.093453392429778"><ele>1143.0</ele><time>2026-05-03T10:43:04Z</time></trkpt><trkpt lat="41.83666661975414" lon="9.093305153585606"><ele>1143.0</ele><time>2026-05-03T10:43:05Z</time></trkpt><trkpt lat="41.836797544593885" lon="9.093221827812119"><ele>1134.6666666666667</ele><time>2026-05-03T10:43:06Z</time></trkpt><trkpt lat="41.836946081630394" lon="9.093179202991875"><ele>1126.3333333333335</ele><time>2026-05-03T10:43:07Z</time></trkpt><trkpt lat="41.83711440871797" lon="9.093160540928157"><ele>1118.0</ele><time>2026-05-03T10:43:08Z</time></trkpt><trkpt lat="41.837299180750854" lon="9.093148187767857"><ele>1118.0</ele><time>2026-05-03T10:43:09Z</time></trkpt><trkpt lat="41.83747277490449" lon="9.093191076471465"><ele>1118.0</ele><time>2026-05-03T10:43:10Z</time></trkpt><trkpt lat="41.83761163643044" lon="9.093274484401457"><ele>1118.0</ele><time>2026-05-03T10:43:11Z</time></trkpt><trkpt lat="41.837678953966176" lon="9.0934356619542"><ele>1115.5</ele><time>2026-05-03T10:43:12Z</time></trkpt><trkpt lat="41.83770800328719" lon="9.093608107560556"><ele>1113.0</ele><time>2026-05-03T10:43:13Z</time></trkpt><trkpt lat="41.837741024778886" lon="9.093815449662317"><ele>1110.5</ele><time>2026-05-03T10:43:14Z</time></trkpt><trkpt lat="41.83774841994447" lon="9.094001291653987"><ele>1108.0</ele><time>2026-05-03T10:43:15Z</time></trkpt><trkpt lat="41.83767141960173" lon="9.094162321750591"><ele>1121.6666666666665</ele><time>2026-05-03T10:43:16.001Z</time></trkpt><trkpt lat="41.83761651194176" lon="9.094363075771906"><ele>1135.3333333333333</ele><time>2026-05-03T10:43:17.001Z</time></trkpt><trkpt lat="41.837539432958636" lon="9.094566531541838"><ele>1149.0</ele><time>2026-05-03T10:43:18.001Z</time></trkpt><trkpt lat="41.83748350466738" lon="9.094763080815625"><ele>1148.3333333333333</ele><time>2026-05-03T10:43:19.001Z</time></trkpt><trkpt lat="41.8374712343041" lon="9.094958139847298"><ele>1147.6666666666665</ele><time>2026-05-03T10:43:20.001Z</time></trkpt><trkpt lat="41.83750259750437" lon="9.09516525200946"><ele>1147.0</ele><time>2026-05-03T10:43:21.001Z</time></trkpt><trkpt lat="41.83755690617538" lon="9.095349773232071"><ele>1141.0</ele><time>2026-05-03T10:43:22.001Z</time></trkpt><trkpt lat="41.837639894293766" lon="9.095484271280583"><ele>1135.0</ele><time>2026-05-03T10:43:23.001Z</time></trkpt><trkpt lat="41.8377627761807" lon="9.095573483569382"><ele>1129.0</ele><time>2026-05-03T10:43:24.001Z</time></trkpt><trkpt lat="41.837916894282266" lon="9.095633091092513"><ele>1123.0</ele><time>2026-05-03T10:43:25.001Z</time></trkpt><trkpt lat="41.83808726535456" lon="9.095667061376334"><ele>1123.0</ele><time>2026-05-03T10:43:26.001Z</time></trkpt><trkpt lat="41.838264142537156" lon="9.095711679593702"><ele>1123.0</ele><time>2026-05-03T10:43:27.001Z</time></trkpt><trkpt lat="41.838438305658464" lon="9.095746588399493"><ele>1123.0</ele><time>2026-05-03T10:43:28.001Z</time></trkpt><trkpt lat="41.83860734808722" lon="9.095739297278612"><ele>1123.3333333333333</ele><time>2026-05-03T10:43:29.001Z</time></trkpt><trkpt lat="41.83876834550843" lon="9.095662193483841"><ele>1123.6666666666667</ele><time>2026-05-03T10:43:30.001Z</time></trkpt><trkpt lat="41.83893214429707" lon="9.095555858562948"><ele>1124.0</ele><time>2026-05-03T10:43:31.001Z</time></trkpt><trkpt lat="41.83907220568508" lon="9.095436388092478"><ele>1124.0</ele><time>2026-05-03T10:43:32.001Z</time></trkpt><trkpt lat="41.839187627889935" lon="9.0953253462545"><ele>1124.0</ele><time>2026-05-03T10:43:33.001Z</time></trkpt><trkpt lat="41.839282051012304" lon="9.095197318706873"><ele>1124.0</ele><time>2026-05-03T10:43:34.001Z</time></trkpt><trkpt lat="41.83936542407453" lon="9.095043577324823"><ele>1124.0</ele><time>2026-05-03T10:43:35.001Z</time></trkpt><trkpt lat="41.83947711363419" lon="9.094910271898357"><ele>1125.5</ele><time>2026-05-03T10:43:36.001Z</time></trkpt><trkpt lat="41.83958255214156" lon="9.094830419270245"><ele>1127.0</ele><time>2026-05-03T10:43:37.001Z</time></trkpt><trkpt lat="41.83968454695983" lon="9.094839566398074"><ele>1128.5</ele><time>2026-05-03T10:43:38.001Z</time></trkpt><trkpt lat="41.83980180638272" lon="9.09488398159823"><ele>1130.0</ele><time>2026-05-03T10:43:39.001Z</time></trkpt><trkpt lat="41.83996141159876" lon="9.094927866736848"><ele>1131.6666666666667</ele><time>2026-05-03T10:43:40.001Z</time></trkpt><trkpt lat="41.84013749306185" lon="9.094993457106897"><ele>1133.3333333333333</ele><time>2026-05-03T10:43:41.001Z</time></trkpt><trkpt lat="41.84032684515979" lon="9.09502096798688"><ele>1135.0</ele><time>2026-05-03T10:43:42.001Z</time></trkpt><trkpt lat="41.84052913339021" lon="9.094974468793747"><ele>1119.5</ele><time>2026-05-03T10:43:43.001Z</time></trkpt><trkpt lat="41.84074322693225" lon="9.094887104635454"><ele>1104.0</ele><time>2026-05-03T10:43:44.001Z</time></trkpt><trkpt lat="41.84096325931877" lon="9.094800303684822"><ele>1107.0</ele><time>2026-05-03T10:43:45.001Z</time></trkpt><trkpt lat="41.84119267113909" lon="9.09472483682469"><ele>1110.0</ele><time>2026-05-03T10:43:46.001Z</time></trkpt><trkpt lat="41.84142826656487" lon="9.094649154345525"><ele>1110.0</ele><time>2026-05-03T10:43:47.001Z</time></trkpt><trkpt lat="41.84166886457679" lon="9.09456926556426"><ele>1110.0</ele><time>2026-05-03T10:43:48.001Z</time></trkpt><trkpt lat="41.84190218122762" lon="9.094493329330213"><ele>1110.6666666666667</ele><time>2026-05-03T10:43:49.001Z</time></trkpt><trkpt lat="41.84211893844418" lon="9.09442906082845"><ele>1111.3333333333335</ele><time>2026-05-03T10:43:50.002Z</time></trkpt><trkpt lat="41.84230593317464" lon="9.094396703690748"><ele>1112.0</ele><time>2026-05-03T10:43:51.002Z</time></trkpt><trkpt lat="41.842464626834726" lon="9.094419034943234"><ele>1112.0</ele><time>2026-05-03T10:43:52.002Z</time></trkpt><trkpt lat="41.842558655863336" lon="9.094549047391794"><ele>1112.0</ele><time>2026-05-03T10:43:53.002Z</time></trkpt><trkpt lat="41.8426435185325" lon="9.094707763528328"><ele>1112.0</ele><time>2026-05-03T10:43:54.002Z</time></trkpt><trkpt lat="41.84276962678241" lon="9.094899101256853"><ele>1109.3333333333335</ele><time>2026-05-03T10:43:55.002Z</time></trkpt><trkpt lat="41.842890480002886" lon="9.095099150192501"><ele>1106.6666666666667</ele><time>2026-05-03T10:43:56.002Z</time></trkpt><trkpt lat="41.84299387745549" lon="9.095293874406641"><ele>1104.0</ele><time>2026-05-03T10:43:57.002Z</time></trkpt><trkpt lat="41.843072263113015" lon="9.09548934413644"><ele>1104.0</ele><time>2026-05-03T10:43:58.002Z</time></trkpt><trkpt lat="41.84314889294646" lon="9.095666539768875"><ele>1104.0</ele><time>2026-05-03T10:43:59.002Z</time></trkpt><trkpt lat="41.843227679656465" lon="9.095812345021471"><ele>1104.0</ele><time>2026-05-03T10:44:00.002Z</time></trkpt><trkpt lat="41.843305737729" lon="9.095934199756837"><ele>1104.0</ele><time>2026-05-03T10:44:01.002Z</time></trkpt><trkpt lat="41.84338823207922" lon="9.096046233179173"><ele>1102.0</ele><time>2026-05-03T10:44:02.002Z</time></trkpt><trkpt lat="41.843503755310046" lon="9.096108981686044"><ele>1100.0</ele><time>2026-05-03T10:44:03.002Z</time></trkpt><trkpt lat="41.84364586555979" lon="9.09613890197847"><ele>1098.0</ele><time>2026-05-03T10:44:04.002Z</time></trkpt><trkpt lat="41.84377779884301" lon="9.096186392354449"><ele>1096.0</ele><time>2026-05-03T10:44:05.002Z</time></trkpt><trkpt lat="41.84388082851277" lon="9.096280043211031"><ele>1096.0</ele><time>2026-05-03T10:44:06.002Z</time></trkpt><trkpt lat="41.843949047506726" lon="9.096433840485698"><ele>1096.0</ele><time>2026-05-03T10:44:07.002Z</time></trkpt><trkpt lat="41.84399173313495" lon="9.096614945323406"><ele>1096.0</ele><time>2026-05-03T10:44:08.002Z</time></trkpt><trkpt lat="41.8440537047597" lon="9.096781038838573"><ele>1096.0</ele><time>2026-05-03T10:44:09.002Z</time></trkpt><trkpt lat="41.84408877755205" lon="9.096934123130366"><ele>1094.6</ele><time>2026-05-03T10:44:10.002Z</time></trkpt><trkpt lat="41.844146757448435" lon="9.09704989113564"><ele>1093.1999999999998</ele><time>2026-05-03T10:44:11.002Z</time></trkpt><trkpt lat="41.84424939335471" lon="9.097106683564542"><ele>1091.8000000000002</ele><time>2026-05-03T10:44:12.002Z</time></trkpt><trkpt lat="41.84436046737554" lon="9.097100879529293"><ele>1090.4</ele><time>2026-05-03T10:44:13.002Z</time></trkpt><trkpt lat="41.84445562937571" lon="9.097081764493261"><ele>1089.0</ele><time>2026-05-03T10:44:14.002Z</time></trkpt><trkpt lat="41.84454340489184" lon="9.097114779741043"><ele>1089.0</ele><time>2026-05-03T10:44:15.002Z</time></trkpt><trkpt lat="41.84460479554233" lon="9.097211797421993"><ele>1089.0</ele><time>2026-05-03T10:44:16.002Z</time></trkpt><trkpt lat="41.84461534048916" lon="9.097366624855061"><ele>1089.0</ele><time>2026-05-03T10:44:17.002Z</time></trkpt><trkpt lat="41.84464196743001" lon="9.097517815789207"><ele>1089.0</ele><time>2026-05-03T10:44:18.002Z</time></trkpt><trkpt lat="41.844645314321895" lon="9.097659236464224"><ele>1089.0</ele><time>2026-05-03T10:44:19.002Z</time></trkpt><trkpt lat="41.84466037241608" lon="9.097787479485854"><ele>1092.8</ele><time>2026-05-03T10:44:20.002Z</time></trkpt><trkpt lat="41.84470270714551" lon="9.097901508134111"><ele>1096.6000000000001</ele><time>2026-05-03T10:44:21.002Z</time></trkpt><trkpt lat="41.84477881825417" lon="9.09800350290116"><ele>1100.4</ele><time>2026-05-03T10:44:21.999Z</time></trkpt><trkpt lat="41.84487350844086" lon="9.098080307626095"><ele>1104.2</ele><time>2026-05-03T10:44:22.999Z</time></trkpt><trkpt lat="41.844978233112464" lon="9.09811138830305"><ele>1108.0</ele><time>2026-05-03T10:44:23.999Z</time></trkpt><trkpt lat="41.845107541407884" lon="9.098132602594234"><ele>1104.25</ele><time>2026-05-03T10:44:24.999Z</time></trkpt><trkpt lat="41.84523235640613" lon="9.098183365999715"><ele>1100.5</ele><time>2026-05-03T10:44:25.999Z</time></trkpt><trkpt lat="41.845378374580854" lon="9.098198770507766"><ele>1096.75</ele><time>2026-05-03T10:44:26.999Z</time></trkpt><trkpt lat="41.84552987104305" lon="9.09817843206943"><ele>1093.0</ele><time>2026-05-03T10:44:27.999Z</time></trkpt><trkpt lat="41.845672424215614" lon="9.098179501165205"><ele>1093.0</ele><time>2026-05-03T10:44:28.999Z</time></trkpt><trkpt lat="41.845828475417825" lon="9.098173337574906"><ele>1093.0</ele><time>2026-05-03T10:44:29.999Z</time></trkpt><trkpt lat="41.84598931913079" lon="9.09818572948103"><ele>1093.0</ele><time>2026-05-03T10:44:30.999Z</time></trkpt><trkpt lat="41.846162115431895" lon="9.098230050081275"><ele>1094.6666666666665</ele><time>2026-05-03T10:44:31.999Z</time></trkpt><trkpt lat="41.84631675733896" lon="9.098328332457756"><ele>1096.3333333333333</ele><time>2026-05-03T10:44:32.999Z</time></trkpt><trkpt lat="41.84643806529344" lon="9.098448768876201"><ele>1098.0</ele><time>2026-05-03T10:44:33.999Z</time></trkpt><trkpt lat="41.84653457617125" lon="9.098610749555451"><ele>1098.0</ele><time>2026-05-03T10:44:34.999Z</time></trkpt><trkpt lat="41.84659336108334" lon="9.098804337604795"><ele>1098.0</ele><time>2026-05-03T10:44:35.999Z</time></trkpt><trkpt lat="41.84661356639697" lon="9.099036004300311"><ele>1098.0</ele><time>2026-05-03T10:44:36.999Z</time></trkpt><trkpt lat="41.84660553685062" lon="9.099281463617988"><ele>1100.0</ele><time>2026-05-03T10:44:37.999Z</time></trkpt><trkpt lat="41.84661306157788" lon="9.09953334875727"><ele>1102.0</ele><time>2026-05-03T10:44:38.999Z</time></trkpt><trkpt lat="41.84666608908093" lon="9.099769137241296"><ele>1104.0</ele><time>2026-05-03T10:44:39.999Z</time></trkpt><trkpt lat="41.846752205952264" lon="9.099988634067383"><ele>1095.6666666666667</ele><time>2026-05-03T10:44:40.999Z</time></trkpt><trkpt lat="41.84683705891753" lon="9.100214719194959"><ele>1087.3333333333335</ele><time>2026-05-03T10:44:41.999Z</time></trkpt><trkpt lat="41.84687888091764" lon="9.100459938395334"><ele>1079.0</ele><time>2026-05-03T10:44:42.999Z</time></trkpt><trkpt lat="41.846901450873844" lon="9.100705974139872"><ele>1084.3333333333335</ele><time>2026-05-03T10:44:43.999Z</time></trkpt><trkpt lat="41.84692422012317" lon="9.10093179463651"><ele>1089.6666666666667</ele><time>2026-05-03T10:44:44.999Z</time></trkpt><trkpt lat="41.846957510294736" lon="9.10112611513698"><ele>1095.0</ele><time>2026-05-03T10:44:46Z</time></trkpt><trkpt lat="41.847033065841764" lon="9.101278910433885"><ele>1095.0</ele><time>2026-05-03T10:44:47Z</time></trkpt><trkpt lat="41.84711944280194" lon="9.101367468861367"><ele>1095.0</ele><time>2026-05-03T10:44:48Z</time></trkpt><trkpt lat="41.847228740478194" lon="9.101380772732536"><ele>1095.0</ele><time>2026-05-03T10:44:49Z</time></trkpt><trkpt lat="41.847366667288966" lon="9.101330117901654"><ele>1095.0</ele><time>2026-05-03T10:44:50Z</time></trkpt><trkpt lat="41.8475183302003" lon="9.101240592439959"><ele>1093.5</ele><time>2026-05-03T10:44:51Z</time></trkpt><trkpt lat="41.84767796256468" lon="9.101224672251188"><ele>1092.0</ele><time>2026-05-03T10:44:52Z</time></trkpt><trkpt lat="41.84781969958803" lon="9.101276710939498"><ele>1090.5</ele><time>2026-05-03T10:44:53Z</time></trkpt><trkpt lat="41.84793375826439" lon="9.101384334942397"><ele>1089.0</ele><time>2026-05-03T10:44:54Z</time></trkpt><trkpt lat="41.84806680037997" lon="9.101467452272225"><ele>1089.0</ele><time>2026-05-03T10:44:55Z</time></trkpt><trkpt lat="41.84819476434303" lon="9.10151784273769"><ele>1089.0</ele><time>2026-05-03T10:44:56Z</time></trkpt><trkpt lat="41.84833715055082" lon="9.101457826660706"><ele>1089.0</ele><time>2026-05-03T10:44:57Z</time></trkpt><trkpt lat="41.84851004822891" lon="9.10132915331334"><ele>1091.6666666666667</ele><time>2026-05-03T10:44:58Z</time></trkpt><trkpt lat="41.848691049084366" lon="9.10119256476178"><ele>1094.3333333333335</ele><time>2026-05-03T10:44:59Z</time></trkpt><trkpt lat="41.84888205949201" lon="9.10106380393376"><ele>1097.0</ele><time>2026-05-03T10:45:00Z</time></trkpt><trkpt lat="41.84908507993696" lon="9.100957567253372"><ele>1097.0</ele><time>2026-05-03T10:45:01Z</time></trkpt><trkpt lat="41.84927760453049" lon="9.100814363619106"><ele>1097.0</ele><time>2026-05-03T10:45:02Z</time></trkpt><trkpt lat="41.849501474803674" lon="9.100715511317029"><ele>1089.0</ele><time>2026-05-03T10:45:03Z</time></trkpt><trkpt lat="41.849741847053714" lon="9.100709803409007"><ele>1081.0</ele><time>2026-05-03T10:45:04Z</time></trkpt><trkpt lat="41.84997647554989" lon="9.100653827075844"><ele>1083.5</ele><time>2026-05-03T10:45:05Z</time></trkpt><trkpt lat="41.85020391505131" lon="9.100561881752762"><ele>1086.0</ele><time>2026-05-03T10:45:06Z</time></trkpt><trkpt lat="41.850414114675395" lon="9.100438569810322"><ele>1086.0</ele><time>2026-05-03T10:45:07Z</time></trkpt><trkpt lat="41.850622881920685" lon="9.100412394960347"><ele>1086.0</ele><time>2026-05-03T10:45:08Z</time></trkpt><trkpt lat="41.850808351750395" lon="9.10031762342313"><ele>1086.0</ele><time>2026-05-03T10:45:09Z</time></trkpt><trkpt lat="41.85097982928356" lon="9.100141651400763"><ele>1087.5</ele><time>2026-05-03T10:45:10.001Z</time></trkpt><trkpt lat="41.85114968511435" lon="9.09990353377958"><ele>1089.0</ele><time>2026-05-03T10:45:11.001Z</time></trkpt><trkpt lat="41.85132381500682" lon="9.09967361536769"><ele>1089.0</ele><time>2026-05-03T10:45:12.001Z</time></trkpt><trkpt lat="41.85147806629877" lon="9.099475445339293"><ele>1089.0</ele><time>2026-05-03T10:45:13.001Z</time></trkpt><trkpt lat="41.851603920991224" lon="9.099287547917747"><ele>1089.0</ele><time>2026-05-03T10:45:14.001Z</time></trkpt><trkpt lat="41.85166489807963" lon="9.099102124910447"><ele>1087.0</ele><time>2026-05-03T10:45:15.001Z</time></trkpt><trkpt lat="41.851653778662275" lon="9.098920978167117"><ele>1085.0</ele><time>2026-05-03T10:45:16.001Z</time></trkpt><trkpt lat="41.85160478778721" lon="9.098693166116341"><ele>1083.0</ele><time>2026-05-03T10:45:17.001Z</time></trkpt><trkpt lat="41.85160373160092" lon="9.098461881258313"><ele>1083.0</ele><time>2026-05-03T10:45:18.001Z</time></trkpt><trkpt lat="41.85169133580512" lon="9.098274375537315"><ele>1083.0</ele><time>2026-05-03T10:45:19.001Z</time></trkpt><trkpt lat="41.85175219265673" lon="9.098074599286008"><ele>1083.0</ele><time>2026-05-03T10:45:20.001Z</time></trkpt><trkpt lat="41.85178862200196" lon="9.097907091734877"><ele>1082.0</ele><time>2026-05-03T10:45:21.001Z</time></trkpt><trkpt lat="41.85174317895251" lon="9.0977321329563"><ele>1081.0</ele><time>2026-05-03T10:45:22.001Z</time></trkpt><trkpt lat="41.8516441357086" lon="9.097555534896102"><ele>1080.0</ele><time>2026-05-03T10:45:23.001Z</time></trkpt><trkpt lat="41.85156611775891" lon="9.097367300078671"><ele>1077.5</ele><time>2026-05-03T10:45:24.001Z</time></trkpt><trkpt lat="41.85155429640293" lon="9.097190291413032"><ele>1075.0</ele><time>2026-05-03T10:45:25.001Z</time></trkpt><trkpt lat="41.851599701760314" lon="9.09703116583239"><ele>1072.5</ele><time>2026-05-03T10:45:26.001Z</time></trkpt><trkpt lat="41.85168671230862" lon="9.096893436690639"><ele>1070.0</ele><time>2026-05-03T10:45:27.001Z</time></trkpt><trkpt lat="41.85183460907207" lon="9.096796375472596"><ele>1065.0</ele><time>2026-05-03T10:45:28.001Z</time></trkpt><trkpt lat="41.85201278283043" lon="9.096664176803916"><ele>1060.0</ele><time>2026-05-03T10:45:29.001Z</time></trkpt><trkpt lat="41.85221773764872" lon="9.09653839087474"><ele>1055.0</ele><time>2026-05-03T10:45:30.001Z</time></trkpt><trkpt lat="41.85243312795702" lon="9.096400757729159"><ele>1057.0</ele><time>2026-05-03T10:45:31.001Z</time></trkpt><trkpt lat="41.85265063057631" lon="9.09630202322878"><ele>1059.0</ele><time>2026-05-03T10:45:32.001Z</time></trkpt><trkpt lat="41.85283351333343" lon="9.096217069601096"><ele>1061.0</ele><time>2026-05-03T10:45:33.001Z</time></trkpt><trkpt lat="41.85297905431377" lon="9.096179443066731"><ele>1061.0</ele><time>2026-05-03T10:45:34.001Z</time></trkpt><trkpt lat="41.85312705294316" lon="9.096242949309453"><ele>1061.0</ele><time>2026-05-03T10:45:35.001Z</time></trkpt><trkpt lat="41.85329867792348" lon="9.096382174731165"><ele>1061.0</ele><time>2026-05-03T10:45:36.001Z</time></trkpt><trkpt lat="41.85346932541768" lon="9.096538205591571"><ele>1061.6666666666667</ele><time>2026-05-03T10:45:37.001Z</time></trkpt><trkpt lat="41.85364685003716" lon="9.09665641435867"><ele>1062.3333333333333</ele><time>2026-05-03T10:45:38.001Z</time></trkpt><trkpt lat="41.85381699432076" lon="9.096730428504147"><ele>1063.0</ele><time>2026-05-03T10:45:39.001Z</time></trkpt><trkpt lat="41.85396016160628" lon="9.096804392237608"><ele>1063.0</ele><time>2026-05-03T10:45:40.001Z</time></trkpt><trkpt lat="41.85404622888617" lon="9.096951097298922"><ele>1063.0</ele><time>2026-05-03T10:45:41.001Z</time></trkpt><trkpt lat="41.85411327046961" lon="9.097137933928629"><ele>1063.0</ele><time>2026-05-03T10:45:42.002Z</time></trkpt><trkpt lat="41.854208470012246" lon="9.097344776451537"><ele>1062.3333333333333</ele><time>2026-05-03T10:45:43.002Z</time></trkpt><trkpt lat="41.85433844761545" lon="9.097553689372235"><ele>1061.6666666666667</ele><time>2026-05-03T10:45:44.002Z</time></trkpt><trkpt lat="41.85450774420369" lon="9.097757001878085"><ele>1061.0</ele><time>2026-05-03T10:45:45.002Z</time></trkpt><trkpt lat="41.854696002906074" lon="9.097960845645394"><ele>1061.0</ele><time>2026-05-03T10:45:46.002Z</time></trkpt><trkpt lat="41.85489576236323" lon="9.098119243260124"><ele>1061.0</ele><time>2026-05-03T10:45:47.002Z</time></trkpt><trkpt lat="41.8550791189125" lon="9.098252564714228"><ele>1061.0</ele><time>2026-05-03T10:45:48.002Z</time></trkpt><trkpt lat="41.85516307123603" lon="9.0984180256766"><ele>1061.1666666666667</ele><time>2026-05-03T10:45:49.002Z</time></trkpt><trkpt lat="41.85523076418976" lon="9.098513912169091"><ele>1061.3333333333335</ele><time>2026-05-03T10:45:50.002Z</time></trkpt><trkpt lat="41.8552705501719" lon="9.09859345442344"><ele>1061.5</ele><time>2026-05-03T10:45:51.002Z</time></trkpt><trkpt lat="41.855345127124956" lon="9.098644778593414"><ele>1061.6666666666667</ele><time>2026-05-03T10:45:52.002Z</time></trkpt><trkpt lat="41.855438449766986" lon="9.09863748148643"><ele>1061.8333333333333</ele><time>2026-05-03T10:45:53.002Z</time></trkpt><trkpt lat="41.855533648569775" lon="9.098593233148206"><ele>1062.0</ele><time>2026-05-03T10:45:54.002Z</time></trkpt><trkpt lat="41.85563709384686" lon="9.0985732735924"><ele>1062.0</ele><time>2026-05-03T10:45:55.002Z</time></trkpt><trkpt lat="41.85577298378223" lon="9.098575375344058"><ele>1062.0</ele><time>2026-05-03T10:45:56.002Z</time></trkpt><trkpt lat="41.855914297553" lon="9.098621683141838"><ele>1062.0</ele><time>2026-05-03T10:45:57.002Z</time></trkpt><trkpt lat="41.855998181760775" lon="9.098769851394701"><ele>1062.0</ele><time>2026-05-03T10:45:58.002Z</time></trkpt><trkpt lat="41.85604028819007" lon="9.098951388310475"><ele>1065.0</ele><time>2026-05-03T10:45:59.002Z</time></trkpt><trkpt lat="41.856024215507134" lon="9.09915286613364"><ele>1068.0</ele><time>2026-05-03T10:46:00.002Z</time></trkpt><trkpt lat="41.85597789176491" lon="9.09934703470452"><ele>1071.0</ele><time>2026-05-03T10:46:01.002Z</time></trkpt><trkpt lat="41.855907223871995" lon="9.099578704741473"><ele>1071.0</ele><time>2026-05-03T10:46:02.002Z</time></trkpt><trkpt lat="41.85586536347599" lon="9.099798828645184"><ele>1071.0</ele><time>2026-05-03T10:46:03.002Z</time></trkpt><trkpt lat="41.85583816532058" lon="9.099962961111585"><ele>1071.0</ele><time>2026-05-03T10:46:04.002Z</time></trkpt><trkpt lat="41.855866141517" lon="9.10010199968923"><ele>1071.0</ele><time>2026-05-03T10:46:05.002Z</time></trkpt><trkpt lat="41.85593843011037" lon="9.100214577411027"><ele>1068.0</ele><time>2026-05-03T10:46:06.002Z</time></trkpt><trkpt lat="41.85605528387679" lon="9.100289234486748"><ele>1065.0</ele><time>2026-05-03T10:46:07.002Z</time></trkpt><trkpt lat="41.85619440437939" lon="9.100327480421889"><ele>1062.0</ele><time>2026-05-03T10:46:08.002Z</time></trkpt><trkpt lat="41.85634808111911" lon="9.100350755813567"><ele>1059.0</ele><time>2026-05-03T10:46:09.002Z</time></trkpt><trkpt lat="41.856507211161095" lon="9.10038248449678"><ele>1059.0</ele><time>2026-05-03T10:46:10.002Z</time></trkpt><trkpt lat="41.85665813787574" lon="9.100427748446831"><ele>1059.0</ele><time>2026-05-03T10:46:11.002Z</time></trkpt><trkpt lat="41.85681546987331" lon="9.100470934952549"><ele>1059.0</ele><time>2026-05-03T10:46:12.002Z</time></trkpt><trkpt lat="41.85698321314672" lon="9.100461891382986"><ele>1057.6666666666667</ele><time>2026-05-03T10:46:13.002Z</time></trkpt><trkpt lat="41.857172078260405" lon="9.100379134209753"><ele>1056.3333333333335</ele><time>2026-05-03T10:46:14.002Z</time></trkpt><trkpt lat="41.85736847046733" lon="9.100238250736984"><ele>1055.0</ele><time>2026-05-03T10:46:15.003Z</time></trkpt><trkpt lat="41.85756573951174" lon="9.100148623182696"><ele>1055.3333333333335</ele><time>2026-05-03T10:46:16.003Z</time></trkpt><trkpt lat="41.8577517209681" lon="9.10006384346687"><ele>1055.6666666666667</ele><time>2026-05-03T10:46:17.003Z</time></trkpt><trkpt lat="41.857932000112314" lon="9.0999638643819"><ele>1056.0</ele><time>2026-05-03T10:46:18.003Z</time></trkpt><trkpt lat="41.85807779472627" lon="9.099808092924368"><ele>1056.0</ele><time>2026-05-03T10:46:19.003Z</time></trkpt><trkpt lat="41.85819202649177" lon="9.09957935756559"><ele>1056.0</ele><time>2026-05-03T10:46:20.003Z</time></trkpt><trkpt lat="41.858305062508094" lon="9.0993625526193"><ele>1056.0</ele><time>2026-05-03T10:46:21.003Z</time></trkpt><trkpt lat="41.85847359638071" lon="9.099224933625704"><ele>1057.3333333333333</ele><time>2026-05-03T10:46:22.003Z</time></trkpt><trkpt lat="41.85866069520379" lon="9.099095343269914"><ele>1058.6666666666665</ele><time>2026-05-03T10:46:23.003Z</time></trkpt><trkpt lat="41.85887369365384" lon="9.099053914107271"><ele>1060.0</ele><time>2026-05-03T10:46:24.003Z</time></trkpt><trkpt lat="41.85909149313587" lon="9.099020753624211"><ele>1056.3333333333333</ele><time>2026-05-03T10:46:25.003Z</time></trkpt><trkpt lat="41.85930839606398" lon="9.09897366326502"><ele>1052.6666666666667</ele><time>2026-05-03T10:46:26.003Z</time></trkpt><trkpt lat="41.85950919654559" lon="9.098918778765276"><ele>1049.0</ele><time>2026-05-03T10:46:27.003Z</time></trkpt><trkpt lat="41.859692827070766" lon="9.09884761349685"><ele>1049.0</ele><time>2026-05-03T10:46:27.999Z</time></trkpt><trkpt lat="41.85985722427322" lon="9.098713769642886"><ele>1049.0</ele><time>2026-05-03T10:46:28.999Z</time></trkpt><trkpt lat="41.86002515642315" lon="9.09854076403192"><ele>1049.0</ele><time>2026-05-03T10:46:29.999Z</time></trkpt><trkpt lat="41.860174272011704" lon="9.098387445227878"><ele>1046.75</ele><time>2026-05-03T10:46:30.999Z</time></trkpt><trkpt lat="41.86029936719894" lon="9.098258590759448"><ele>1044.5</ele><time>2026-05-03T10:46:31.999Z</time></trkpt><trkpt lat="41.86040572457222" lon="9.098169678584583"><ele>1042.25</ele><time>2026-05-03T10:46:32.999Z</time></trkpt><trkpt lat="41.86051100491449" lon="9.098160582536185"><ele>1040.0</ele><time>2026-05-03T10:46:33.999Z</time></trkpt><trkpt lat="41.86060802872163" lon="9.098186916353797"><ele>1040.0</ele><time>2026-05-03T10:46:34.999Z</time></trkpt><trkpt lat="41.86066536474849" lon="9.098315105583099"><ele>1040.0</ele><time>2026-05-03T10:46:35.999Z</time></trkpt><trkpt lat="41.860663919640984" lon="9.098501833809259"><ele>1040.0</ele><time>2026-05-03T10:46:36.999Z</time></trkpt><trkpt lat="41.86069898456358" lon="9.098715531510663"><ele>1040.0</ele><time>2026-05-03T10:46:37.999Z</time></trkpt><trkpt lat="41.8607151049424" lon="9.098965141606085"><ele>1042.0</ele><time>2026-05-03T10:46:39Z</time></trkpt><trkpt lat="41.86074330491982" lon="9.099237648446742"><ele>1044.0</ele><time>2026-05-03T10:46:40Z</time></trkpt><trkpt lat="41.860774747588515" lon="9.099517950745096"><ele>1046.0</ele><time>2026-05-03T10:46:41Z</time></trkpt><trkpt lat="41.86080213207845" lon="9.099753092581603"><ele>1045.25</ele><time>2026-05-03T10:46:42Z</time></trkpt><trkpt lat="41.86083551752599" lon="9.099934149680282"><ele>1044.5</ele><time>2026-05-03T10:46:43Z</time></trkpt><trkpt lat="41.86088289569478" lon="9.100068811695033"><ele>1043.75</ele><time>2026-05-03T10:46:44Z</time></trkpt><trkpt lat="41.860970323786326" lon="9.100174255420942"><ele>1043.0</ele><time>2026-05-03T10:46:45Z</time></trkpt><trkpt lat="41.86109118155455" lon="9.100226201234785"><ele>1043.0</ele><time>2026-05-03T10:46:46Z</time></trkpt><trkpt lat="41.86122611198769" lon="9.10022533593093"><ele>1043.0</ele><time>2026-05-03T10:46:47Z</time></trkpt><trkpt lat="41.861367069362615" lon="9.100146302292316"><ele>1043.0</ele><time>2026-05-03T10:46:48Z</time></trkpt><trkpt lat="41.861522137554495" lon="9.100088123473562"><ele>1043.0</ele><time>2026-05-03T10:46:49Z</time></trkpt><trkpt lat="41.86166791400468" lon="9.100158677403927"><ele>1038.0</ele><time>2026-05-03T10:46:50Z</time></trkpt><trkpt lat="41.861784543027156" lon="9.100281667790702"><ele>1033.0</ele><time>2026-05-03T10:46:51Z</time></trkpt><trkpt lat="41.86193668171117" lon="9.10041854188323"><ele>1028.0</ele><time>2026-05-03T10:46:52Z</time></trkpt><trkpt lat="41.862095253459124" lon="9.10054645945744"><ele>1028.0</ele><time>2026-05-03T10:46:53Z</time></trkpt><trkpt lat="41.86230025393297" lon="9.100582735064274"><ele>1028.0</ele><time>2026-05-03T10:46:54Z</time></trkpt><trkpt lat="41.862517394309386" lon="9.100544402912055"><ele>1028.0</ele><time>2026-05-03T10:46:55Z</time></trkpt><trkpt lat="41.86274178567268" lon="9.10044513977884"><ele>1027.6666666666667</ele><time>2026-05-03T10:46:56Z</time></trkpt><trkpt lat="41.862950888775" lon="9.100360895058715"><ele>1027.3333333333333</ele><time>2026-05-03T10:46:57Z</time></trkpt><trkpt lat="41.86314157514204" lon="9.100405137494908"><ele>1027.0</ele><time>2026-05-03T10:46:58Z</time></trkpt><trkpt lat="41.86331301467937" lon="9.100493171044583"><ele>1027.0</ele><time>2026-05-03T10:46:59Z</time></trkpt><trkpt lat="41.86344408398952" lon="9.10054206475864"><ele>1027.0</ele><time>2026-05-03T10:47:00Z</time></trkpt><trkpt lat="41.8635424252318" lon="9.1005320607584"><ele>1027.0</ele><time>2026-05-03T10:47:01.001Z</time></trkpt><trkpt lat="41.86362411827334" lon="9.100433459773694"><ele>1027.0</ele><time>2026-05-03T10:47:02.001Z</time></trkpt><trkpt lat="41.86369801666375" lon="9.100266109211162"><ele>1029.5</ele><time>2026-05-03T10:47:03.001Z</time></trkpt><trkpt lat="41.86373588132997" lon="9.100080017077563"><ele>1032.0</ele><time>2026-05-03T10:47:04.001Z</time></trkpt><trkpt lat="41.863784099053234" lon="9.099936151235744"><ele>1034.5</ele><time>2026-05-03T10:47:05.001Z</time></trkpt><trkpt lat="41.863903489639" lon="9.099925239247359"><ele>1037.0</ele><time>2026-05-03T10:47:06.001Z</time></trkpt><trkpt lat="41.86403934525099" lon="9.09993594233945"><ele>1037.0</ele><time>2026-05-03T10:47:07.001Z</time></trkpt><trkpt lat="41.86423692439311" lon="9.0999490657424"><ele>1037.0</ele><time>2026-05-03T10:47:08.001Z</time></trkpt><trkpt lat="41.86444446620503" lon="9.09997188116041"><ele>1037.0</ele><time>2026-05-03T10:47:09.001Z</time></trkpt><trkpt lat="41.86464063313787" lon="9.099934342386911"><ele>1032.3333333333335</ele><time>2026-05-03T10:47:10.001Z</time></trkpt><trkpt lat="41.864819930009766" lon="9.09981312943976"><ele>1027.6666666666667</ele><time>2026-05-03T10:47:11.001Z</time></trkpt><trkpt lat="41.86496481707519" lon="9.099625040473963"><ele>1023.0</ele><time>2026-05-03T10:47:12.001Z</time></trkpt><trkpt lat="41.86509222386514" lon="9.099428895726891"><ele>1026.6666666666667</ele><time>2026-05-03T10:47:13.001Z</time></trkpt><trkpt lat="41.86524881587354" lon="9.099309374070627"><ele>1030.3333333333335</ele><time>2026-05-03T10:47:14.001Z</time></trkpt><trkpt lat="41.86543078697971" lon="9.099208849111786"><ele>1034.0</ele><time>2026-05-03T10:47:15.001Z</time></trkpt><trkpt lat="41.865635711744844" lon="9.099113168619782"><ele>1027.5</ele><time>2026-05-03T10:47:16.001Z</time></trkpt><trkpt lat="41.865867789885144" lon="9.099060257374203"><ele>1021.0</ele><time>2026-05-03T10:47:17.001Z</time></trkpt><trkpt lat="41.866108504193186" lon="9.09898095776245"><ele>1021.0</ele><time>2026-05-03T10:47:18.001Z</time></trkpt><trkpt lat="41.86633302503912" lon="9.098842769448142"><ele>1021.0</ele><time>2026-05-03T10:47:19.001Z</time></trkpt><trkpt lat="41.866532767267174" lon="9.098686296228173"><ele>1021.0</ele><time>2026-05-03T10:47:20.001Z</time></trkpt><trkpt lat="41.86673850641927" lon="9.098615626922644"><ele>1021.0</ele><time>2026-05-03T10:47:21.001Z</time></trkpt><trkpt lat="41.86692556494175" lon="9.098554872655148"><ele>1021.0</ele><time>2026-05-03T10:47:22.001Z</time></trkpt><trkpt lat="41.867109869395385" lon="9.098538337931817"><ele>1020.0</ele><time>2026-05-03T10:47:23.001Z</time></trkpt><trkpt lat="41.867295627688755" lon="9.098548592009976"><ele>1019.0</ele><time>2026-05-03T10:47:24.001Z</time></trkpt><trkpt lat="41.867478328190515" lon="9.098562386227742"><ele>1018.0</ele><time>2026-05-03T10:47:25.001Z</time></trkpt><trkpt lat="41.867664116994646" lon="9.09859675539312"><ele>1016.6666666666666</ele><time>2026-05-03T10:47:26.001Z</time></trkpt><trkpt lat="41.86785586377291" lon="9.098628656643067"><ele>1015.3333333333333</ele><time>2026-05-03T10:47:27.001Z</time></trkpt><trkpt lat="41.868053585213886" lon="9.098647606229882"><ele>1014.0</ele><time>2026-05-03T10:47:28.001Z</time></trkpt><trkpt lat="41.868255157991875" lon="9.098623770574935"><ele>1014.6666666666667</ele><time>2026-05-03T10:47:29.001Z</time></trkpt><trkpt lat="41.86845714651069" lon="9.09854503932759"><ele>1015.3333333333334</ele><time>2026-05-03T10:47:30.002Z</time></trkpt><trkpt lat="41.86865820563708" lon="9.098427596186147"><ele>1016.0</ele><time>2026-05-03T10:47:31.002Z</time></trkpt><trkpt lat="41.868853142840926" lon="9.09830209428939"><ele>1012.3333333333334</ele><time>2026-05-03T10:47:32.002Z</time></trkpt><trkpt lat="41.869057356154336" lon="9.098204831887617"><ele>1008.6666666666667</ele><time>2026-05-03T10:47:33.002Z</time></trkpt><trkpt lat="41.86926916359754" lon="9.09812858181994"><ele>1005.0</ele><time>2026-05-03T10:47:34.002Z</time></trkpt><trkpt lat="41.86946737256316" lon="9.098041049764026"><ele>1003.0</ele><time>2026-05-03T10:47:35.002Z</time></trkpt><trkpt lat="41.869641330436984" lon="9.097956592172888"><ele>1001.0</ele><time>2026-05-03T10:47:36.002Z</time></trkpt><trkpt lat="41.86981500336754" lon="9.09791089574452"><ele>999.0</ele><time>2026-05-03T10:47:37.002Z</time></trkpt><trkpt lat="41.87001401327441" lon="9.097917262295757"><ele>999.6666666666667</ele><time>2026-05-03T10:47:38.002Z</time></trkpt><trkpt lat="41.870219966811874" lon="9.097894793915302"><ele>1000.3333333333334</ele><time>2026-05-03T10:47:39.002Z</time></trkpt><trkpt lat="41.870409262371325" lon="9.097807619790569"><ele>1001.0</ele><time>2026-05-03T10:47:40.002Z</time></trkpt><trkpt lat="41.87057620180397" lon="9.097705180048049"><ele>1001.0</ele><time>2026-05-03T10:47:41.002Z</time></trkpt><trkpt lat="41.87074604147057" lon="9.097685193227534"><ele>1001.0</ele><time>2026-05-03T10:47:42.002Z</time></trkpt><trkpt lat="41.87089915085726" lon="9.097717552299894"><ele>1001.0</ele><time>2026-05-03T10:47:43.002Z</time></trkpt><trkpt lat="41.871028161470996" lon="9.097828576916376"><ele>1000.3333333333334</ele><time>2026-05-03T10:47:44.002Z</time></trkpt><trkpt lat="41.87116247384251" lon="9.097994666973804"><ele>999.6666666666667</ele><time>2026-05-03T10:47:45.002Z</time></trkpt><trkpt lat="41.87130806009095" lon="9.098207103207798"><ele>999.0</ele><time>2026-05-03T10:47:46.002Z</time></trkpt><trkpt lat="41.87144420756041" lon="9.098423595498929"><ele>999.0</ele><time>2026-05-03T10:47:47.002Z</time></trkpt><trkpt lat="41.87158690570436" lon="9.098622460878035"><ele>999.0</ele><time>2026-05-03T10:47:48.002Z</time></trkpt><trkpt lat="41.871734399743666" lon="9.098822702219714"><ele>999.0</ele><time>2026-05-03T10:47:49.002Z</time></trkpt><trkpt lat="41.87187773304974" lon="9.099019199428685"><ele>995.25</ele><time>2026-05-03T10:47:50.002Z</time></trkpt><trkpt lat="41.87200115284818" lon="9.099194434805018"><ele>991.5</ele><time>2026-05-03T10:47:51.002Z</time></trkpt><trkpt lat="41.87209601226752" lon="9.099328290739717"><ele>987.75</ele><time>2026-05-03T10:47:52.002Z</time></trkpt><trkpt lat="41.87215271163401" lon="9.099462469618036"><ele>984.0</ele><time>2026-05-03T10:47:53.002Z</time></trkpt><trkpt lat="41.87214506821522" lon="9.099631895908919"><ele>984.0</ele><time>2026-05-03T10:47:54.002Z</time></trkpt><trkpt lat="41.87209664281271" lon="9.099828411472041"><ele>984.0</ele><time>2026-05-03T10:47:55.002Z</time></trkpt><trkpt lat="41.87204768008188" lon="9.100061045253636"><ele>984.0</ele><time>2026-05-03T10:47:56.002Z</time></trkpt><trkpt lat="41.87203350894058" lon="9.100318604030807"><ele>985.6666666666667</ele><time>2026-05-03T10:47:57.002Z</time></trkpt><trkpt lat="41.87208192572747" lon="9.100595951172656"><ele>987.3333333333334</ele><time>2026-05-03T10:47:58.002Z</time></trkpt><trkpt lat="41.87216436908792" lon="9.100828437181834"><ele>989.0</ele><time>2026-05-03T10:47:59.002Z</time></trkpt><trkpt lat="41.8722644334325" lon="9.10102219932092"><ele>990.3333333333334</ele><time>2026-05-03T10:48:00.002Z</time></trkpt><trkpt lat="41.872410104600746" lon="9.101166465366967"><ele>991.6666666666667</ele><time>2026-05-03T10:48:01.002Z</time></trkpt><trkpt lat="41.87259632376083" lon="9.101296843349665"><ele>993.0</ele><time>2026-05-03T10:48:02.002Z</time></trkpt><trkpt lat="41.872756380729314" lon="9.101456806096735"><ele>992.0</ele><time>2026-05-03T10:48:03.003Z</time></trkpt><trkpt lat="41.872893090043576" lon="9.101615617950465"><ele>991.0</ele><time>2026-05-03T10:48:04.003Z</time></trkpt><trkpt lat="41.87306130301034" lon="9.10172879664965"><ele>990.0</ele><time>2026-05-03T10:48:05.003Z</time></trkpt><trkpt lat="41.873275440834625" lon="9.101771192600523"><ele>983.3333333333333</ele><time>2026-05-03T10:48:06.003Z</time></trkpt><trkpt lat="41.87346546385489" lon="9.101809612291284"><ele>976.6666666666666</ele><time>2026-05-03T10:48:07.003Z</time></trkpt><trkpt lat="41.8736182165677" lon="9.101911014377592"><ele>970.0</ele><time>2026-05-03T10:48:08.003Z</time></trkpt><trkpt lat="41.87373535215501" lon="9.102081952114338"><ele>970.0</ele><time>2026-05-03T10:48:09.003Z</time></trkpt><trkpt lat="41.87384853253798" lon="9.102289240988915"><ele>970.0</ele><time>2026-05-03T10:48:10.003Z</time></trkpt><trkpt lat="41.87398085774207" lon="9.102500425374156"><ele>970.0</ele><time>2026-05-03T10:48:11.003Z</time></trkpt><trkpt lat="41.87411877007202" lon="9.102739287625324"><ele>961.5</ele><time>2026-05-03T10:48:12.003Z</time></trkpt><trkpt lat="41.87429874255276" lon="9.102954090878876"><ele>953.0</ele><time>2026-05-03T10:48:13.003Z</time></trkpt><trkpt lat="41.87449840452413" lon="9.10317060131482"><ele>963.5</ele><time>2026-05-03T10:48:14.003Z</time></trkpt><trkpt lat="41.874710442369" lon="9.103387736483933"><ele>974.0</ele><time>2026-05-03T10:48:15.003Z</time></trkpt><trkpt lat="41.874893980503735" lon="9.103665000218339"><ele>974.0</ele><time>2026-05-03T10:48:16.003Z</time></trkpt><trkpt lat="41.875096931319085" lon="9.103927008342751"><ele>974.0</ele><time>2026-05-03T10:48:17.003Z</time></trkpt><trkpt lat="41.87529325764371" lon="9.104165543431256"><ele>970.0</ele><time>2026-05-03T10:48:18.003Z</time></trkpt><trkpt lat="41.875475715375714" lon="9.104378865818266"><ele>966.0</ele><time>2026-05-03T10:48:19.003Z</time></trkpt><trkpt lat="41.87564539521571" lon="9.104582166980137"><ele>966.0</ele><time>2026-05-03T10:48:20.003Z</time></trkpt><trkpt lat="41.87583491495298" lon="9.10476214756878"><ele>966.0</ele><time>2026-05-03T10:48:21.003Z</time></trkpt><trkpt lat="41.8760545466216" lon="9.104908300901428"><ele>966.3333333333333</ele><time>2026-05-03T10:48:22.003Z</time></trkpt><trkpt lat="41.87625528299005" lon="9.105055421399184"><ele>966.6666666666666</ele><time>2026-05-03T10:48:23.003Z</time></trkpt><trkpt lat="41.87644343506432" lon="9.105188441047277"><ele>967.0</ele><time>2026-05-03T10:48:24.003Z</time></trkpt><trkpt lat="41.876620894044876" lon="9.105301325782696"><ele>964.3333333333333</ele><time>2026-05-03T10:48:25.003Z</time></trkpt><trkpt lat="41.87677644940258" lon="9.105484520199202"><ele>961.6666666666667</ele><time>2026-05-03T10:48:26.003Z</time></trkpt><trkpt lat="41.87695524418217" lon="9.105682350140999"><ele>959.0</ele><time>2026-05-03T10:48:27.003Z</time></trkpt><trkpt lat="41.8771345662818" lon="9.105927177432445"><ele>959.0</ele><time>2026-05-03T10:48:28.003Z</time></trkpt><trkpt lat="41.87731618456439" lon="9.106161627581406"><ele>959.0</ele><time>2026-05-03T10:48:29.003Z</time></trkpt><trkpt lat="41.877486518314875" lon="9.106395591339398"><ele>954.0</ele><time>2026-05-03T10:48:30.003Z</time></trkpt><trkpt lat="41.87766113422247" lon="9.106629461731927"><ele>949.0</ele><time>2026-05-03T10:48:31.003Z</time></trkpt><trkpt lat="41.87783046053447" lon="9.106849080255607"><ele>949.0</ele><time>2026-05-03T10:48:32.003Z</time></trkpt><trkpt lat="41.877994529841146" lon="9.107058769477693"><ele>949.0</ele><time>2026-05-03T10:48:33.003Z</time></trkpt><trkpt lat="41.87814767504574" lon="9.107258252110778"><ele>949.0</ele><time>2026-05-03T10:48:34Z</time></trkpt><trkpt lat="41.87829527244018" lon="9.107446423141369"><ele>952.25</ele><time>2026-05-03T10:48:35Z</time></trkpt><trkpt lat="41.878433512099384" lon="9.107616229219321"><ele>955.5</ele><time>2026-05-03T10:48:36Z</time></trkpt><trkpt lat="41.878547539446004" lon="9.107748826228418"><ele>958.75</ele><time>2026-05-03T10:48:37Z</time></trkpt><trkpt lat="41.87862506927754" lon="9.107851963435618"><ele>962.0</ele><time>2026-05-03T10:48:38Z</time></trkpt><trkpt lat="41.87869154816839" lon="9.107964098430362"><ele>962.5</ele><time>2026-05-03T10:48:39Z</time></trkpt><trkpt lat="41.87869904272575" lon="9.108112670288708"><ele>963.0</ele><time>2026-05-03T10:48:40Z</time></trkpt><trkpt lat="41.878672735865" lon="9.108268850247468"><ele>963.5</ele><time>2026-05-03T10:48:41Z</time></trkpt><trkpt lat="41.878571109921154" lon="9.108420046105833"><ele>964.0</ele><time>2026-05-03T10:48:42Z</time></trkpt><trkpt lat="41.87843040730106" lon="9.108573026513191"><ele>964.0</ele><time>2026-05-03T10:48:43Z</time></trkpt><trkpt lat="41.878285373907694" lon="9.10878043007625"><ele>964.0</ele><time>2026-05-03T10:48:44Z</time></trkpt><trkpt lat="41.87811163814273" lon="9.10898477761819"><ele>964.0</ele><time>2026-05-03T10:48:45Z</time></trkpt><trkpt lat="41.87790061690387" lon="9.109177940753415"><ele>965.5</ele><time>2026-05-03T10:48:46Z</time></trkpt><trkpt lat="41.87769178119606" lon="9.109364388903211"><ele>967.0</ele><time>2026-05-03T10:48:47Z</time></trkpt><trkpt lat="41.87749946198562" lon="9.109528750128081"><ele>967.0</ele><time>2026-05-03T10:48:48Z</time></trkpt><trkpt lat="41.87731666956586" lon="9.109658635597329"><ele>967.0</ele><time>2026-05-03T10:48:49Z</time></trkpt><trkpt lat="41.87713129158322" lon="9.109720717114328"><ele>967.0</ele><time>2026-05-03T10:48:50Z</time></trkpt><trkpt lat="41.876912687247376" lon="9.10980083927619"><ele>963.3333333333333</ele><time>2026-05-03T10:48:51Z</time></trkpt><trkpt lat="41.876737377394164" lon="9.109957734396506"><ele>959.6666666666667</ele><time>2026-05-03T10:48:52Z</time></trkpt><trkpt lat="41.876580886166884" lon="9.110121754755845"><ele>956.0</ele><time>2026-05-03T10:48:53Z</time></trkpt><trkpt lat="41.87640451839737" lon="9.110214077548084"><ele>956.0</ele><time>2026-05-03T10:48:54Z</time></trkpt><trkpt lat="41.876215650208835" lon="9.11027543976349"><ele>956.0</ele><time>2026-05-03T10:48:55Z</time></trkpt><trkpt lat="41.87600037963887" lon="9.110373648665126"><ele>956.0</ele><time>2026-05-03T10:48:56Z</time></trkpt><trkpt lat="41.87581631612569" lon="9.11044810559085"><ele>959.5</ele><time>2026-05-03T10:48:57Z</time></trkpt><trkpt lat="41.875688019811555" lon="9.11053294321034"><ele>963.0</ele><time>2026-05-03T10:48:58Z</time></trkpt><trkpt lat="41.875598569811096" lon="9.110627268087622"><ele>966.5</ele><time>2026-05-03T10:48:59Z</time></trkpt><trkpt lat="41.875557807081336" lon="9.110757451920035"><ele>970.0</ele><time>2026-05-03T10:49:00Z</time></trkpt><trkpt lat="41.87558356586839" lon="9.110932960120026"><ele>962.5</ele><time>2026-05-03T10:49:01Z</time></trkpt><trkpt lat="41.875627361703884" lon="9.11112093451888"><ele>955.0</ele><time>2026-05-03T10:49:02Z</time></trkpt><trkpt lat="41.87568042002014" lon="9.111283475211916"><ele>947.5</ele><time>2026-05-03T10:49:03Z</time></trkpt><trkpt lat="41.875792780492695" lon="9.111408402415494"><ele>940.0</ele><time>2026-05-03T10:49:04.001Z</time></trkpt><trkpt lat="41.875964366720936" lon="9.111506968656611"><ele>938.5</ele><time>2026-05-03T10:49:05.001Z</time></trkpt><trkpt lat="41.8761752303122" lon="9.11160184853099"><ele>937.0</ele><time>2026-05-03T10:49:06.001Z</time></trkpt><trkpt lat="41.87641106833057" lon="9.111718899473418"><ele>937.0</ele><time>2026-05-03T10:49:07.001Z</time></trkpt><trkpt lat="41.876663745470786" lon="9.111833871116636"><ele>937.0</ele><time>2026-05-03T10:49:08.001Z</time></trkpt><trkpt lat="41.87691701949183" lon="9.111890576504823"><ele>931.0</ele><time>2026-05-03T10:49:09.001Z</time></trkpt><trkpt lat="41.87714574823595" lon="9.111905668995744"><ele>925.0</ele><time>2026-05-03T10:49:10.001Z</time></trkpt><trkpt lat="41.87732429262203" lon="9.11196427772991"><ele>919.0</ele><time>2026-05-03T10:49:11.001Z</time></trkpt><trkpt lat="41.87744456407425" lon="9.11203653967018"><ele>919.0</ele><time>2026-05-03T10:49:12.001Z</time></trkpt><trkpt lat="41.877521159202736" lon="9.1121115105949"><ele>919.0000000000001</ele><time>2026-05-03T10:49:13.001Z</time></trkpt><trkpt lat="41.877560443529745" lon="9.11219860355873"><ele>919.0000000000001</ele><time>2026-05-03T10:49:14.001Z</time></trkpt><trkpt lat="41.87753685432755" lon="9.11232258610261"><ele>919.0</ele><time>2026-05-03T10:49:15.001Z</time></trkpt><trkpt lat="41.877435497876206" lon="9.112461806047301"><ele>919.0</ele><time>2026-05-03T10:49:16.001Z</time></trkpt><trkpt lat="41.87734063630349" lon="9.11264213319045"><ele>921.4000000000001</ele><time>2026-05-03T10:49:17.001Z</time></trkpt><trkpt lat="41.877241135486585" lon="9.112772426987087"><ele>923.8000000000001</ele><time>2026-05-03T10:49:18.001Z</time></trkpt><trkpt lat="41.8771955343272" lon="9.11290298873894"><ele>926.1999999999999</ele><time>2026-05-03T10:49:19.001Z</time></trkpt><trkpt lat="41.877214233797005" lon="9.113014911349154"><ele>928.5999999999999</ele><time>2026-05-03T10:49:20.001Z</time></trkpt><trkpt lat="41.877288502720994" lon="9.113134074866064"><ele>931.0</ele><time>2026-05-03T10:49:21.001Z</time></trkpt><trkpt lat="41.87739840597177" lon="9.113228627496365"><ele>934.6666666666666</ele><time>2026-05-03T10:49:22.001Z</time></trkpt><trkpt lat="41.87753260486745" lon="9.113257343553691"><ele>938.3333333333333</ele><time>2026-05-03T10:49:23.001Z</time></trkpt><trkpt lat="41.87768409559139" lon="9.113206834835275"><ele>942.0</ele><time>2026-05-03T10:49:24.001Z</time></trkpt><trkpt lat="41.87783601067274" lon="9.11309964527155"><ele>933.25</ele><time>2026-05-03T10:49:25.001Z</time></trkpt><trkpt lat="41.87798345030383" lon="9.113021392696382"><ele>924.5</ele><time>2026-05-03T10:49:26.001Z</time></trkpt><trkpt lat="41.87812171360687" lon="9.11301318306931"><ele>915.75</ele><time>2026-05-03T10:49:27.001Z</time></trkpt><trkpt lat="41.87825937894072" lon="9.113075372004099"><ele>907.0</ele><time>2026-05-03T10:49:28.001Z</time></trkpt><trkpt lat="41.87842909576766" lon="9.113180938267515"><ele>908.0</ele><time>2026-05-03T10:49:29.001Z</time></trkpt><trkpt lat="41.87860386169362" lon="9.113276343020322"><ele>909.0</ele><time>2026-05-03T10:49:30.001Z</time></trkpt><trkpt lat="41.87871731166356" lon="9.113404224936021"><ele>910.0</ele><time>2026-05-03T10:49:31.001Z</time></trkpt><trkpt lat="41.87878211804042" lon="9.113551426204426"><ele>910.0</ele><time>2026-05-03T10:49:32.001Z</time></trkpt><trkpt lat="41.878852700684696" lon="9.113740466173933"><ele>910.0</ele><time>2026-05-03T10:49:33.001Z</time></trkpt><trkpt lat="41.8789226624901" lon="9.113957981263619"><ele>910.0</ele><time>2026-05-03T10:49:34.001Z</time></trkpt><trkpt lat="41.87895078144357" lon="9.114166806287663"><ele>909.0</ele><time>2026-05-03T10:49:35.001Z</time></trkpt><trkpt lat="41.878892766648164" lon="9.11434264353174"><ele>908.0</ele><time>2026-05-03T10:49:36.002Z</time></trkpt><trkpt lat="41.878837177233905" lon="9.114579962573373"><ele>907.0</ele><time>2026-05-03T10:49:37.002Z</time></trkpt><trkpt lat="41.878792690936386" lon="9.114855215974554"><ele>905.0</ele><time>2026-05-03T10:49:38.002Z</time></trkpt><trkpt lat="41.87874786842164" lon="9.115169930964099"><ele>903.0</ele><time>2026-05-03T10:49:39.002Z</time></trkpt><trkpt lat="41.87872477173774" lon="9.115473081808865"><ele>905.3333333333333</ele><time>2026-05-03T10:49:40.002Z</time></trkpt><trkpt lat="41.878717868560194" lon="9.115747113671736"><ele>907.6666666666666</ele><time>2026-05-03T10:49:41.002Z</time></trkpt><trkpt lat="41.878715494748775" lon="9.11596510727652"><ele>910.0</ele><time>2026-05-03T10:49:42.002Z</time></trkpt><trkpt lat="41.878718627024" lon="9.11613303989302"><ele>910.0</ele><time>2026-05-03T10:49:43.002Z</time></trkpt><trkpt lat="41.87876152210537" lon="9.116263773080638"><ele>910.0</ele><time>2026-05-03T10:49:44.002Z</time></trkpt><trkpt lat="41.87884803592385" lon="9.116337637617722"><ele>910.0</ele><time>2026-05-03T10:49:45.002Z</time></trkpt><trkpt lat="41.87897577926396" lon="9.11639588458719"><ele>910.0</ele><time>2026-05-03T10:49:46.002Z</time></trkpt><trkpt lat="41.87909566900179" lon="9.116454121966624"><ele>910.0</ele><time>2026-05-03T10:49:47.002Z</time></trkpt><trkpt lat="41.8792032819392" lon="9.116495232623084"><ele>910.0</ele><time>2026-05-03T10:49:48.002Z</time></trkpt><trkpt lat="41.87933559142854" lon="9.116475799602242"><ele>910.0</ele><time>2026-05-03T10:49:49.002Z</time></trkpt><trkpt lat="41.87948854952274" lon="9.116358118982673"><ele>910.0</ele><time>2026-05-03T10:49:50.002Z</time></trkpt><trkpt lat="41.87963518908242" lon="9.116174247965855"><ele>910.3333333333333</ele><time>2026-05-03T10:49:51.002Z</time></trkpt><trkpt lat="41.87976457236901" lon="9.115967141235402"><ele>910.6666666666667</ele><time>2026-05-03T10:49:52.002Z</time></trkpt><trkpt lat="41.87988306840213" lon="9.115765777333255"><ele>911.0</ele><time>2026-05-03T10:49:53.002Z</time></trkpt><trkpt lat="41.88000054205479" lon="9.115611406040784"><ele>904.0</ele><time>2026-05-03T10:49:54.002Z</time></trkpt><trkpt lat="41.8801247901671" lon="9.115500837479047"><ele>897.0</ele><time>2026-05-03T10:49:55.002Z</time></trkpt><trkpt lat="41.88026883317348" lon="9.11548414950826"><ele>890.0</ele><time>2026-05-03T10:49:56.002Z</time></trkpt><trkpt lat="41.880409021320354" lon="9.115543708180285"><ele>883.0</ele><time>2026-05-03T10:49:57.002Z</time></trkpt><trkpt lat="41.88059619740021" lon="9.115603817792822"><ele>883.0</ele><time>2026-05-03T10:49:58.002Z</time></trkpt><trkpt lat="41.880772380264304" lon="9.115638853658778"><ele>883.0</ele><time>2026-05-03T10:49:59.002Z</time></trkpt><trkpt lat="41.8809731860347" lon="9.115586864686847"><ele>883.0</ele><time>2026-05-03T10:50:00.002Z</time></trkpt><trkpt lat="41.88117223394583" lon="9.115555980518746"><ele>881.0</ele><time>2026-05-03T10:50:01.002Z</time></trkpt><trkpt lat="41.88135160268241" lon="9.115582639069922"><ele>879.0</ele><time>2026-05-03T10:50:02.002Z</time></trkpt><trkpt lat="41.881510427275686" lon="9.115550024962264"><ele>877.0</ele><time>2026-05-03T10:50:03.002Z</time></trkpt><trkpt lat="41.88164834857771" lon="9.115455427982708"><ele>872.0</ele><time>2026-05-03T10:50:04.002Z</time></trkpt><trkpt lat="41.88179197362314" lon="9.115437899366418"><ele>867.0</ele><time>2026-05-03T10:50:05.002Z</time></trkpt><trkpt lat="41.88194775532557" lon="9.115538800998149"><ele>862.0</ele><time>2026-05-03T10:50:06.002Z</time></trkpt><trkpt lat="41.88213712874075" lon="9.115705142866913"><ele>874.5</ele><time>2026-05-03T10:50:07.002Z</time></trkpt><trkpt lat="41.882369178462426" lon="9.115834363879953"><ele>887.0</ele><time>2026-05-03T10:50:08.002Z</time></trkpt><trkpt lat="41.88263369994576" lon="9.115924757877735"><ele>887.0</ele><time>2026-05-03T10:50:09.003Z</time></trkpt><trkpt lat="41.88291596054523" lon="9.116011027130588"><ele>887.0</ele><time>2026-05-03T10:50:10.003Z</time></trkpt><trkpt lat="41.8832023468047" lon="9.116103835548126"><ele>881.5</ele><time>2026-05-03T10:50:11.003Z</time></trkpt><trkpt lat="41.88345467916727" lon="9.116180878311253"><ele>876.0</ele><time>2026-05-03T10:50:12.003Z</time></trkpt><trkpt lat="41.88369376430801" lon="9.116236692747076"><ele>876.0</ele><time>2026-05-03T10:50:13.003Z</time></trkpt><trkpt lat="41.88392304300577" lon="9.11626048073916"><ele>876.0</ele><time>2026-05-03T10:50:14.003Z</time></trkpt><trkpt lat="41.8841373766952" lon="9.116280385232322"><ele>876.0</ele><time>2026-05-03T10:50:15.003Z</time></trkpt><trkpt lat="41.884324063298216" lon="9.116296602250044"><ele>874.25</ele><time>2026-05-03T10:50:16.003Z</time></trkpt><trkpt lat="41.88448556248892" lon="9.116250544629526"><ele>872.5</ele><time>2026-05-03T10:50:17.003Z</time></trkpt><trkpt lat="41.88462219406869" lon="9.116132554242482"><ele>870.75</ele><time>2026-05-03T10:50:18.003Z</time></trkpt><trkpt lat="41.88472660956153" lon="9.116073298834493"><ele>869.0</ele><time>2026-05-03T10:50:19.003Z</time></trkpt><trkpt lat="41.88483320673724" lon="9.116113253487248"><ele>869.0</ele><time>2026-05-03T10:50:20.003Z</time></trkpt><trkpt lat="41.88494765923261" lon="9.116245102200338"><ele>869.0</ele><time>2026-05-03T10:50:21.003Z</time></trkpt><trkpt lat="41.88507665429531" lon="9.116400757291832"><ele>869.0</ele><time>2026-05-03T10:50:22.003Z</time></trkpt><trkpt lat="41.885247540582974" lon="9.11648621431295"><ele>866.6666666666667</ele><time>2026-05-03T10:50:23.003Z</time></trkpt><trkpt lat="41.885429755956295" lon="9.116501028687424"><ele>864.3333333333333</ele><time>2026-05-03T10:50:24.003Z</time></trkpt><trkpt lat="41.88558123857697" lon="9.116441154879611"><ele>862.0</ele><time>2026-05-03T10:50:25.003Z</time></trkpt><trkpt lat="41.885731797120286" lon="9.116317675451535"><ele>862.0</ele><time>2026-05-03T10:50:26.003Z</time></trkpt><trkpt lat="41.885895899564694" lon="9.116194393600031"><ele>862.0</ele><time>2026-05-03T10:50:27.003Z</time></trkpt><trkpt lat="41.88605911806057" lon="9.116150794572754"><ele>862.0</ele><time>2026-05-03T10:50:28.003Z</time></trkpt><trkpt lat="41.886202867363835" lon="9.116160966790527"><ele>857.6666666666666</ele><time>2026-05-03T10:50:29.003Z</time></trkpt><trkpt lat="41.88632597522831" lon="9.116287106574232"><ele>853.3333333333333</ele><time>2026-05-03T10:50:30.003Z</time></trkpt><trkpt lat="41.88647508124959" lon="9.116438071750142"><ele>849.0</ele><time>2026-05-03T10:50:31.003Z</time></trkpt><trkpt lat="41.886651692232206" lon="9.116551063186188"><ele>854.6666666666667</ele><time>2026-05-03T10:50:32.003Z</time></trkpt><trkpt lat="41.886857866717556" lon="9.116631430979425"><ele>860.3333333333334</ele><time>2026-05-03T10:50:33.003Z</time></trkpt><trkpt lat="41.8870454073107" lon="9.116777582948867"><ele>866.0</ele><time>2026-05-03T10:50:34.003Z</time></trkpt><trkpt lat="41.88721964266216" lon="9.11693541101816"><ele>866.0</ele><time>2026-05-03T10:50:35.003Z</time></trkpt><trkpt lat="41.88738299865944" lon="9.117033050347644"><ele>866.0</ele><time>2026-05-03T10:50:36.003Z</time></trkpt><trkpt lat="41.88758389270886" lon="9.117044714033776"><ele>866.0</ele><time>2026-05-03T10:50:37.003Z</time></trkpt><trkpt lat="41.88777032492616" lon="9.117046519603829"><ele>867.0</ele><time>2026-05-03T10:50:38.003Z</time></trkpt><trkpt lat="41.887925756771146" lon="9.117119939933557"><ele>868.0</ele><time>2026-05-03T10:50:39.003Z</time></trkpt><trkpt lat="41.88805446906557" lon="9.117261031092834"><ele>869.0</ele><time>2026-05-03T10:50:40Z</time></trkpt><trkpt lat="41.8881896996303" lon="9.117449574649047"><ele>869.0</ele><time>2026-05-03T10:50:41Z</time></trkpt><trkpt lat="41.88835790116525" lon="9.117637526958921"><ele>869.0</ele><time>2026-05-03T10:50:42Z</time></trkpt><trkpt lat="41.88852289844942" lon="9.11778252232427"><ele>869.0</ele><time>2026-05-03T10:50:43Z</time></trkpt><trkpt lat="41.888652612506945" lon="9.11790686297352"><ele>864.3333333333334</ele><time>2026-05-03T10:50:44Z</time></trkpt><trkpt lat="41.88873587128113" lon="9.118082872812769"><ele>859.6666666666667</ele><time>2026-05-03T10:50:45Z</time></trkpt><trkpt lat="41.888780488723995" lon="9.118277007394672"><ele>855.0</ele><time>2026-05-03T10:50:46Z</time></trkpt><trkpt lat="41.888799558757164" lon="9.118480324331134"><ele>855.0</ele><time>2026-05-03T10:50:47Z</time></trkpt><trkpt lat="41.888862353644626" lon="9.118689345838447"><ele>855.0</ele><time>2026-05-03T10:50:48Z</time></trkpt><trkpt lat="41.8890012323414" lon="9.118885666732787"><ele>855.0</ele><time>2026-05-03T10:50:49Z</time></trkpt><trkpt lat="41.88914887628932" lon="9.119074009098187"><ele>851.0</ele><time>2026-05-03T10:50:50Z</time></trkpt><trkpt lat="41.88926382459702" lon="9.119258084589218"><ele>847.0</ele><time>2026-05-03T10:50:51Z</time></trkpt><trkpt lat="41.88936643970764" lon="9.119427250025913"><ele>843.0</ele><time>2026-05-03T10:50:52Z</time></trkpt><trkpt lat="41.88947800155976" lon="9.119586470177378"><ele>843.0</ele><time>2026-05-03T10:50:53Z</time></trkpt><trkpt lat="41.88959554576679" lon="9.11974957214631"><ele>843.0</ele><time>2026-05-03T10:50:54Z</time></trkpt><trkpt lat="41.889718814652326" lon="9.119920778631984"><ele>843.0</ele><time>2026-05-03T10:50:55Z</time></trkpt><trkpt lat="41.889854318398335" lon="9.120086575102377"><ele>841.6666666666667</ele><time>2026-05-03T10:50:56Z</time></trkpt><trkpt lat="41.89000180563649" lon="9.120231257756116"><ele>840.3333333333334</ele><time>2026-05-03T10:50:57Z</time></trkpt><trkpt lat="41.89016025184424" lon="9.120372279569242"><ele>839.0</ele><time>2026-05-03T10:50:58Z</time></trkpt><trkpt lat="41.89033163726262" lon="9.120485305061948"><ele>839.0</ele><time>2026-05-03T10:50:59Z</time></trkpt><trkpt lat="41.890507435178286" lon="9.120604426919458"><ele>839.0</ele><time>2026-05-03T10:51:00Z</time></trkpt><trkpt lat="41.89068606042082" lon="9.120725012493075"><ele>839.0</ele><time>2026-05-03T10:51:01Z</time></trkpt><trkpt lat="41.890854391240296" lon="9.120845514491679"><ele>838.3333333333334</ele><time>2026-05-03T10:51:02Z</time></trkpt><trkpt lat="41.89102900782544" lon="9.120966097504592"><ele>837.6666666666667</ele><time>2026-05-03T10:51:03Z</time></trkpt><trkpt lat="41.89119246231471" lon="9.12108108597825"><ele>837.0</ele><time>2026-05-03T10:51:04Z</time></trkpt><trkpt lat="41.891348016286564" lon="9.121183739442404"><ele>837.0</ele><time>2026-05-03T10:51:05Z</time></trkpt><trkpt lat="41.891490523501" lon="9.121298919702951"><ele>837.0</ele><time>2026-05-03T10:51:06Z</time></trkpt><trkpt lat="41.89157719615912" lon="9.1214439882837"><ele>837.0</ele><time>2026-05-03T10:51:07Z</time></trkpt><trkpt lat="41.89163435205476" lon="9.121606404943385"><ele>837.0</ele><time>2026-05-03T10:51:08Z</time></trkpt><trkpt lat="41.89167086244823" lon="9.121796834504323"><ele>837.75</ele><time>2026-05-03T10:51:09Z</time></trkpt><trkpt lat="41.89171825312522" lon="9.121989392874054"><ele>838.5</ele><time>2026-05-03T10:51:10Z</time></trkpt><trkpt lat="41.891775635779645" lon="9.122162956830339"><ele>839.25</ele><time>2026-05-03T10:51:11Z</time></trkpt><trkpt lat="41.891858812708634" lon="9.122321613626456"><ele>840.0</ele><time>2026-05-03T10:51:12.001Z</time></trkpt><trkpt lat="41.891983198943656" lon="9.122431350376713"><ele>840.0</ele><time>2026-05-03T10:51:13.001Z</time></trkpt><trkpt lat="41.89212000609737" lon="9.122471795647893"><ele>840.0</ele><time>2026-05-03T10:51:14.001Z</time></trkpt><trkpt lat="41.89225375774837" lon="9.12248844507859"><ele>840.0</ele><time>2026-05-03T10:51:15.001Z</time></trkpt><trkpt lat="41.89236510926303" lon="9.122543018090164"><ele>840.0</ele><time>2026-05-03T10:51:16.001Z</time></trkpt><trkpt lat="41.892418318172936" lon="9.12268084163274"><ele>840.0</ele><time>2026-05-03T10:51:17.001Z</time></trkpt><trkpt lat="41.892502542439" lon="9.122843073594124"><ele>840.0</ele><time>2026-05-03T10:51:18.001Z</time></trkpt><trkpt lat="41.89257321048386" lon="9.123031221455262"><ele>840.0</ele><time>2026-05-03T10:51:19.001Z</time></trkpt><trkpt lat="41.892666171532916" lon="9.123210357706958"><ele>840.0</ele><time>2026-05-03T10:51:20.001Z</time></trkpt><trkpt lat="41.89276919802631" lon="9.123377966921108"><ele>840.0</ele><time>2026-05-03T10:51:21.001Z</time></trkpt><trkpt lat="41.89289829637463" lon="9.123501909823304"><ele>840.0</ele><time>2026-05-03T10:51:22.001Z</time></trkpt><trkpt lat="41.89303542004536" lon="9.123587046521722"><ele>840.0</ele><time>2026-05-03T10:51:23.001Z</time></trkpt><trkpt lat="41.89318234227165" lon="9.12362226215939"><ele>840.0</ele><time>2026-05-03T10:51:24.001Z</time></trkpt><trkpt lat="41.89335484780964" lon="9.123614948551436"><ele>840.0</ele><time>2026-05-03T10:51:25.001Z</time></trkpt><trkpt lat="41.893532257538205" lon="9.123617467830034"><ele>837.3333333333333</ele><time>2026-05-03T10:51:26.001Z</time></trkpt><trkpt lat="41.893694598303135" lon="9.12361054304858"><ele>834.6666666666666</ele><time>2026-05-03T10:51:27.001Z</time></trkpt><trkpt lat="41.893849088575244" lon="9.12357226243746"><ele>832.0</ele><time>2026-05-03T10:51:28.001Z</time></trkpt><trkpt lat="41.893986207119596" lon="9.12351973806982"><ele>832.0</ele><time>2026-05-03T10:51:29.001Z</time></trkpt><trkpt lat="41.894100345200926" lon="9.123501964064152"><ele>832.0</ele><time>2026-05-03T10:51:30.001Z</time></trkpt><trkpt lat="41.894199115978765" lon="9.123583562919652"><ele>832.0</ele><time>2026-05-03T10:51:31.001Z</time></trkpt><trkpt lat="41.89428133105915" lon="9.123729641881706"><ele>832.0</ele><time>2026-05-03T10:51:32.001Z</time></trkpt><trkpt lat="41.89438143551828" lon="9.123867524181879"><ele>833.5</ele><time>2026-05-03T10:51:33.001Z</time></trkpt><trkpt lat="41.894458109306974" lon="9.123997585652535"><ele>835.0</ele><time>2026-05-03T10:51:34.001Z</time></trkpt><trkpt lat="41.89454797786095" lon="9.124077705341119"><ele>836.5</ele><time>2026-05-03T10:51:35.001Z</time></trkpt><trkpt lat="41.89466830189899" lon="9.124084402388984"><ele>838.0</ele><time>2026-05-03T10:51:36.001Z</time></trkpt><trkpt lat="41.89482245295627" lon="9.124050799594139"><ele>836.25</ele><time>2026-05-03T10:51:37.001Z</time></trkpt><trkpt lat="41.894975837387726" lon="9.124050317910344"><ele>834.5</ele><time>2026-05-03T10:51:38.001Z</time></trkpt><trkpt lat="41.89511861043595" lon="9.12410420101686"><ele>832.75</ele><time>2026-05-03T10:51:39.001Z</time></trkpt><trkpt lat="41.89524719686807" lon="9.124146288969444"><ele>831.0</ele><time>2026-05-03T10:51:40.001Z</time></trkpt><trkpt lat="41.89538103959157" lon="9.124137379367593"><ele>831.0</ele><time>2026-05-03T10:51:41.001Z</time></trkpt><trkpt lat="41.89551383248691" lon="9.124083997897712"><ele>831.0</ele><time>2026-05-03T10:51:42.001Z</time></trkpt><trkpt lat="41.89565209442033" lon="9.12399029930259"><ele>831.0</ele><time>2026-05-03T10:51:43.001Z</time></trkpt><trkpt lat="41.89579008405705" lon="9.123963562460597"><ele>831.0</ele><time>2026-05-03T10:51:44.001Z</time></trkpt><trkpt lat="41.89591868703979" lon="9.124000454739022"><ele>828.25</ele><time>2026-05-03T10:51:45.001Z</time></trkpt><trkpt lat="41.896049632562566" lon="9.124055983276069"><ele>825.5</ele><time>2026-05-03T10:51:46.002Z</time></trkpt><trkpt lat="41.89617612344107" lon="9.124093578231765"><ele>822.75</ele><time>2026-05-03T10:51:47.002Z</time></trkpt><trkpt lat="41.896287542804764" lon="9.12415477027712"><ele>820.0</ele><time>2026-05-03T10:51:48.002Z</time></trkpt><trkpt lat="41.896398027034714" lon="9.124246813710942"><ele>820.0</ele><time>2026-05-03T10:51:49.002Z</time></trkpt><trkpt lat="41.89650326186278" lon="9.124366785256603"><ele>820.0</ele><time>2026-05-03T10:51:50.002Z</time></trkpt><trkpt lat="41.896618267694" lon="9.12447904212434"><ele>820.0</ele><time>2026-05-03T10:51:51.002Z</time></trkpt><trkpt lat="41.89675808761217" lon="9.124536192309131"><ele>820.0</ele><time>2026-05-03T10:51:52.002Z</time></trkpt><trkpt lat="41.896902821463954" lon="9.124571661626732"><ele>817.75</ele><time>2026-05-03T10:51:53.002Z</time></trkpt><trkpt lat="41.89703520378331" lon="9.124602076529284"><ele>815.5</ele><time>2026-05-03T10:51:54.002Z</time></trkpt><trkpt lat="41.897148723470636" lon="9.124655224461629"><ele>813.25</ele><time>2026-05-03T10:51:55.002Z</time></trkpt><trkpt lat="41.89724974442089" lon="9.12472016552884"><ele>811.0</ele><time>2026-05-03T10:51:56.002Z</time></trkpt><trkpt lat="41.89734736227361" lon="9.12482488718253"><ele>815.0</ele><time>2026-05-03T10:51:57.002Z</time></trkpt><trkpt lat="41.89744432824545" lon="9.124971685566244"><ele>819.0</ele><time>2026-05-03T10:51:58.002Z</time></trkpt><trkpt lat="41.89753624572673" lon="9.125139670167043"><ele>823.0</ele><time>2026-05-03T10:51:59.002Z</time></trkpt><trkpt lat="41.89764122295993" lon="9.12529266322993"><ele>820.5</ele><time>2026-05-03T10:52:00.002Z</time></trkpt><trkpt lat="41.897744523723524" lon="9.125432175491957"><ele>818.0</ele><time>2026-05-03T10:52:01.002Z</time></trkpt><trkpt lat="41.89784356200295" lon="9.125560616061023"><ele>815.5</ele><time>2026-05-03T10:52:02.002Z</time></trkpt><trkpt lat="41.8979534902527" lon="9.12566512315843"><ele>813.0</ele><time>2026-05-03T10:52:03.002Z</time></trkpt><trkpt lat="41.89806944368912" lon="9.125762110975115"><ele>813.0</ele><time>2026-05-03T10:52:04.002Z</time></trkpt><trkpt lat="41.89818114404783" lon="9.125862631769646"><ele>813.0</ele><time>2026-05-03T10:52:05.002Z</time></trkpt><trkpt lat="41.89827893523229" lon="9.125970362327049"><ele>813.0</ele><time>2026-05-03T10:52:06.002Z</time></trkpt><trkpt lat="41.8983652582484" lon="9.126086294840226"><ele>813.0</ele><time>2026-05-03T10:52:07.002Z</time></trkpt><trkpt lat="41.89844876585055" lon="9.126196504748368"><ele>807.0</ele><time>2026-05-03T10:52:08.002Z</time></trkpt><trkpt lat="41.89852598064808" lon="9.126298977897827"><ele>801.0</ele><time>2026-05-03T10:52:09.002Z</time></trkpt><trkpt lat="41.89860458778427" lon="9.126412036935678"><ele>795.0</ele><time>2026-05-03T10:52:10.002Z</time></trkpt><trkpt lat="41.89867137133702" lon="9.126545745271496"><ele>789.0</ele><time>2026-05-03T10:52:11.002Z</time></trkpt><trkpt lat="41.89870494340335" lon="9.126702168554203"><ele>789.0</ele><time>2026-05-03T10:52:12.002Z</time></trkpt><trkpt lat="41.898678338153815" lon="9.126880640734354"><ele>789.0</ele><time>2026-05-03T10:52:13.002Z</time></trkpt><trkpt lat="41.89863865523561" lon="9.127073592747523"><ele>789.0</ele><time>2026-05-03T10:52:14.002Z</time></trkpt><trkpt lat="41.898600506753446" lon="9.127274672997425"><ele>789.0</ele><time>2026-05-03T10:52:15.002Z</time></trkpt><trkpt lat="41.898560067101904" lon="9.127460820500195"><ele>788.25</ele><time>2026-05-03T10:52:16.002Z</time></trkpt><trkpt lat="41.89852744329576" lon="9.12764168783113"><ele>787.5</ele><time>2026-05-03T10:52:17.002Z</time></trkpt><trkpt lat="41.89849221568108" lon="9.127814987016821"><ele>786.75</ele><time>2026-05-03T10:52:18.002Z</time></trkpt><trkpt lat="41.89846359176175" lon="9.127994576991624"><ele>786.0</ele><time>2026-05-03T10:52:19.003Z</time></trkpt><trkpt lat="41.898465727779296" lon="9.128185032062179"><ele>785.0</ele><time>2026-05-03T10:52:20.003Z</time></trkpt><trkpt lat="41.898489283039915" lon="9.128368320073083"><ele>784.0</ele><time>2026-05-03T10:52:21.003Z</time></trkpt><trkpt lat="41.89852286856681" lon="9.128552274644665"><ele>783.0</ele><time>2026-05-03T10:52:22.003Z</time></trkpt><trkpt lat="41.89854597812334" lon="9.128741598930887"><ele>782.0</ele><time>2026-05-03T10:52:23.003Z</time></trkpt><trkpt lat="41.89855971881337" lon="9.128930666384893"><ele>783.25</ele><time>2026-05-03T10:52:24.003Z</time></trkpt><trkpt lat="41.8985794248067" lon="9.129109598613002"><ele>784.5</ele><time>2026-05-03T10:52:25.003Z</time></trkpt><trkpt lat="41.89860300516887" lon="9.12928014013477"><ele>785.75</ele><time>2026-05-03T10:52:26.003Z</time></trkpt><trkpt lat="41.89863200738759" lon="9.129433429102974"><ele>787.0</ele><time>2026-05-03T10:52:27.003Z</time></trkpt><trkpt lat="41.89868706683454" lon="9.129559458508586"><ele>787.0</ele><time>2026-05-03T10:52:28.003Z</time></trkpt><trkpt lat="41.898765356610596" lon="9.129656602845598"><ele>787.0</ele><time>2026-05-03T10:52:29.003Z</time></trkpt><trkpt lat="41.898857092211635" lon="9.129701137271711"><ele>787.0</ele><time>2026-05-03T10:52:30.003Z</time></trkpt><trkpt lat="41.89896120335172" lon="9.129721107227939"><ele>787.0</ele><time>2026-05-03T10:52:31.003Z</time></trkpt><trkpt lat="41.89907292841081" lon="9.12973764166746"><ele>787.0</ele><time>2026-05-03T10:52:32.003Z</time></trkpt><trkpt lat="41.89917879000257" lon="9.129794523508158"><ele>786.25</ele><time>2026-05-03T10:52:33.003Z</time></trkpt><trkpt lat="41.89926734803139" lon="9.129858819066689"><ele>785.5</ele><time>2026-05-03T10:52:34.003Z</time></trkpt><trkpt lat="41.8993590214635" lon="9.129933959171597"><ele>784.75</ele><time>2026-05-03T10:52:35.003Z</time></trkpt><trkpt lat="41.89945342907746" lon="9.130064602251299"><ele>784.0</ele><time>2026-05-03T10:52:36.003Z</time></trkpt><trkpt lat="41.899560280073594" lon="9.130193212370056"><ele>784.0</ele><time>2026-05-03T10:52:37.003Z</time></trkpt><trkpt lat="41.89969600114723" lon="9.130283815706319"><ele>784.0</ele><time>2026-05-03T10:52:38.003Z</time></trkpt><trkpt lat="41.89983943558616" lon="9.130338370612522"><ele>784.0</ele><time>2026-05-03T10:52:39.003Z</time></trkpt><trkpt lat="41.899975056287595" lon="9.130373858091742"><ele>784.0</ele><time>2026-05-03T10:52:40.003Z</time></trkpt><trkpt lat="41.900097173865056" lon="9.130410869599203"><ele>783.0</ele><time>2026-05-03T10:52:41.003Z</time></trkpt><trkpt lat="41.900211258568866" lon="9.130470766807516"><ele>782.0</ele><time>2026-05-03T10:52:42.003Z</time></trkpt><trkpt lat="41.90029177182962" lon="9.130589143181018"><ele>781.0</ele><time>2026-05-03T10:52:43.003Z</time></trkpt><trkpt lat="41.900393938947026" lon="9.130704842635687"><ele>780.0</ele><time>2026-05-03T10:52:44.003Z</time></trkpt><trkpt lat="41.90044663700757" lon="9.130863071610804"><ele>780.0</ele><time>2026-05-03T10:52:45.003Z</time></trkpt><trkpt lat="41.90052223081699" lon="9.131009541395931"><ele>780.0</ele><time>2026-05-03T10:52:46Z</time></trkpt><trkpt lat="41.90057876168332" lon="9.131190072299455"><ele>780.0</ele><time>2026-05-03T10:52:47Z</time></trkpt><trkpt lat="41.90064237240633" lon="9.131380457257732"><ele>780.0</ele><time>2026-05-03T10:52:48Z</time></trkpt><trkpt lat="41.9006994724011" lon="9.131569212701876"><ele>780.75</ele><time>2026-05-03T10:52:49Z</time></trkpt><trkpt lat="41.900739848782266" lon="9.131751362781616"><ele>781.5</ele><time>2026-05-03T10:52:50Z</time></trkpt><trkpt lat="41.900763301103915" lon="9.13190452238057"><ele>782.25</ele><time>2026-05-03T10:52:51Z</time></trkpt><trkpt lat="41.90075068300524" lon="9.132033311280013"><ele>783.0</ele><time>2026-05-03T10:52:52Z</time></trkpt><trkpt lat="41.90067153668654" lon="9.132138897654835"><ele>783.0</ele><time>2026-05-03T10:52:53Z</time></trkpt><trkpt lat="41.900594812748906" lon="9.132283165833531"><ele>783.0</ele><time>2026-05-03T10:52:54Z</time></trkpt><trkpt lat="41.900535729517294" lon="9.132445937283947"><ele>783.0</ele><time>2026-05-03T10:52:55Z</time></trkpt><trkpt lat="41.900481242289246" lon="9.13260627215298"><ele>783.0</ele><time>2026-05-03T10:52:56Z</time></trkpt><trkpt lat="41.90046870631804" lon="9.132795480688698"><ele>781.25</ele><time>2026-05-03T10:52:57Z</time></trkpt><trkpt lat="41.900476348640225" lon="9.132999119189847"><ele>779.5</ele><time>2026-05-03T10:52:58Z</time></trkpt><trkpt lat="41.90050887920031" lon="9.13319122513976"><ele>777.75</ele><time>2026-05-03T10:52:59Z</time></trkpt><trkpt lat="41.90052383310269" lon="9.133370700919054"><ele>776.0</ele><time>2026-05-03T10:53:00Z</time></trkpt><trkpt lat="41.900556142110766" lon="9.133521712418919"><ele>775.0</ele><time>2026-05-03T10:53:01Z</time></trkpt><trkpt lat="41.90052481549877" lon="9.133663749994879"><ele>774.0</ele><time>2026-05-03T10:53:02Z</time></trkpt><trkpt lat="41.90047366077324" lon="9.13377814458952"><ele>773.0</ele><time>2026-05-03T10:53:03Z</time></trkpt><trkpt lat="41.90039620367423" lon="9.133861087902316"><ele>772.0</ele><time>2026-05-03T10:53:04Z</time></trkpt><trkpt lat="41.90034245361524" lon="9.133977329088111"><ele>771.0</ele><time>2026-05-03T10:53:05Z</time></trkpt><trkpt lat="41.90028700076664" lon="9.134118665819505"><ele>771.0</ele><time>2026-05-03T10:53:06Z</time></trkpt><trkpt lat="41.90025481443937" lon="9.13431345640277"><ele>771.0</ele><time>2026-05-03T10:53:07Z</time></trkpt><trkpt lat="41.900227935202956" lon="9.134508819579416"><ele>771.0</ele><time>2026-05-03T10:53:08Z</time></trkpt><trkpt lat="41.90019650074037" lon="9.13466891562149"><ele>771.0</ele><time>2026-05-03T10:53:09Z</time></trkpt><trkpt lat="41.90023674755772" lon="9.134815620523625"><ele>775.0</ele><time>2026-05-03T10:53:10Z</time></trkpt><trkpt lat="41.90030901319407" lon="9.134911398166034"><ele>779.0</ele><time>2026-05-03T10:53:11Z</time></trkpt><trkpt lat="41.900414567021066" lon="9.134959095981893"><ele>783.0</ele><time>2026-05-03T10:53:12Z</time></trkpt><trkpt lat="41.90053840025069" lon="9.134958325273123"><ele>787.0</ele><time>2026-05-03T10:53:13Z</time></trkpt><trkpt lat="41.90066902266455" lon="9.134927922450649"><ele>787.0</ele><time>2026-05-03T10:53:14Z</time></trkpt><trkpt lat="41.90079400990167" lon="9.134917276654036"><ele>787.0</ele><time>2026-05-03T10:53:15Z</time></trkpt><trkpt lat="41.900904054009665" lon="9.134902765966318"><ele>787.0</ele><time>2026-05-03T10:53:16Z</time></trkpt><trkpt lat="41.90101154728477" lon="9.134835049450174"><ele>787.0</ele><time>2026-05-03T10:53:17.001Z</time></trkpt><trkpt lat="41.90112026404334" lon="9.13469694829681"><ele>787.75</ele><time>2026-05-03T10:53:18.001Z</time></trkpt><trkpt lat="41.90122006234936" lon="9.134537544419912"><ele>788.5</ele><time>2026-05-03T10:53:19.001Z</time></trkpt><trkpt lat="41.90132063334476" lon="9.134405476576847"><ele>789.25</ele><time>2026-05-03T10:53:20.001Z</time></trkpt><trkpt lat="41.901404069854436" lon="9.134277711553683"><ele>790.0</ele><time>2026-05-03T10:53:21.001Z</time></trkpt><trkpt lat="41.90146152995476" lon="9.134140566362428"><ele>783.5</ele><time>2026-05-03T10:53:22.001Z</time></trkpt><trkpt lat="41.90150321306474" lon="9.133959140674667"><ele>777.0</ele><time>2026-05-03T10:53:23.001Z</time></trkpt><trkpt lat="41.901530522604396" lon="9.133778911684503"><ele>770.5</ele><time>2026-05-03T10:53:24.001Z</time></trkpt><trkpt lat="41.901571937208566" lon="9.133624397535659"><ele>764.0</ele><time>2026-05-03T10:53:25.001Z</time></trkpt><trkpt lat="41.90160199252137" lon="9.133479667177625"><ele>764.0</ele><time>2026-05-03T10:53:26.001Z</time></trkpt><trkpt lat="41.901677060289224" lon="9.133358198437843"><ele>764.0</ele><time>2026-05-03T10:53:27.001Z</time></trkpt><trkpt lat="41.9017912005102" lon="9.13325199993517"><ele>764.0</ele><time>2026-05-03T10:53:28.001Z</time></trkpt><trkpt lat="41.90192869330591" lon="9.133174093118434"><ele>764.0</ele><time>2026-05-03T10:53:29.001Z</time></trkpt><trkpt lat="41.90209302935296" lon="9.13317195170744"><ele>760.6666666666666</ele><time>2026-05-03T10:53:30.001Z</time></trkpt><trkpt lat="41.902265722962646" lon="9.133140391529853"><ele>757.3333333333334</ele><time>2026-05-03T10:53:31.001Z</time></trkpt><trkpt lat="41.902445326066875" lon="9.133120442140884"><ele>754.0</ele><time>2026-05-03T10:53:32.001Z</time></trkpt><trkpt lat="41.902631738798846" lon="9.133094289308334"><ele>754.0</ele><time>2026-05-03T10:53:33.001Z</time></trkpt><trkpt lat="41.90282445887148" lon="9.133068564312309"><ele>754.0</ele><time>2026-05-03T10:53:34.001Z</time></trkpt><trkpt lat="41.90299974718235" lon="9.133049881287153"><ele>754.0</ele><time>2026-05-03T10:53:35.001Z</time></trkpt><trkpt lat="41.90316487689561" lon="9.133025186641252"><ele>754.0</ele><time>2026-05-03T10:53:36.001Z</time></trkpt><trkpt lat="41.90330337300354" lon="9.133003442777706"><ele>754.0</ele><time>2026-05-03T10:53:37.001Z</time></trkpt><trkpt lat="41.903417618796844" lon="9.132976338779343"><ele>754.0</ele><time>2026-05-03T10:53:38.001Z</time></trkpt><trkpt lat="41.90352488620974" lon="9.132919528547392"><ele>754.0</ele><time>2026-05-03T10:53:39.001Z</time></trkpt><trkpt lat="41.90362268643641" lon="9.132812481036527"><ele>755.0</ele><time>2026-05-03T10:53:40.001Z</time></trkpt><trkpt lat="41.90369276755003" lon="9.132656678744912"><ele>756.0</ele><time>2026-05-03T10:53:41.001Z</time></trkpt><trkpt lat="41.9037342608949" lon="9.132464017367418"><ele>757.0</ele><time>2026-05-03T10:53:42.001Z</time></trkpt><trkpt lat="41.90378701994019" lon="9.132274494520384"><ele>758.0</ele><time>2026-05-03T10:53:43.001Z</time></trkpt><trkpt lat="41.903849215142856" lon="9.132076145272155"><ele>758.0</ele><time>2026-05-03T10:53:44.001Z</time></trkpt><trkpt lat="41.903918533059624" lon="9.13187611190813"><ele>758.0</ele><time>2026-05-03T10:53:45.001Z</time></trkpt><trkpt lat="41.90399306785938" lon="9.13167472320657"><ele>758.0</ele><time>2026-05-03T10:53:46.001Z</time></trkpt><trkpt lat="41.90405947278329" lon="9.131502745192355"><ele>753.25</ele><time>2026-05-03T10:53:47.001Z</time></trkpt><trkpt lat="41.904121174788884" lon="9.131359522350996"><ele>748.5</ele><time>2026-05-03T10:53:48.001Z</time></trkpt><trkpt lat="41.90420642272201" lon="9.131257547119983"><ele>743.75</ele><time>2026-05-03T10:53:49.002Z</time></trkpt><trkpt lat="41.90433229835178" lon="9.131227096261393"><ele>739.0</ele><time>2026-05-03T10:53:50.002Z</time></trkpt><trkpt lat="41.90447427050443" lon="9.131171919948217"><ele>739.0</ele><time>2026-05-03T10:53:51.002Z</time></trkpt><trkpt lat="41.90462426879062" lon="9.131163161732562"><ele>739.0</ele><time>2026-05-03T10:53:52.002Z</time></trkpt><trkpt lat="41.904770217178736" lon="9.131173345362898"><ele>739.0</ele><time>2026-05-03T10:53:53.002Z</time></trkpt><trkpt lat="41.90492357551714" lon="9.131216868132123"><ele>739.0</ele><time>2026-05-03T10:53:54.002Z</time></trkpt><trkpt lat="41.90506335435042" lon="9.131309011208934"><ele>739.0</ele><time>2026-05-03T10:53:55.002Z</time></trkpt><trkpt lat="41.905213222334176" lon="9.13137598779126"><ele>739.0</ele><time>2026-05-03T10:53:56.002Z</time></trkpt><trkpt lat="41.90534891401921" lon="9.131466530745866"><ele>741.5</ele><time>2026-05-03T10:53:57.002Z</time></trkpt><trkpt lat="41.905468074336994" lon="9.131558670575904"><ele>744.0</ele><time>2026-05-03T10:53:58.002Z</time></trkpt><trkpt lat="41.90557425794739" lon="9.131693649616292"><ele>746.5</ele><time>2026-05-03T10:53:59.002Z</time></trkpt><trkpt lat="41.90570851391621" lon="9.1318098468869"><ele>749.0</ele><time>2026-05-03T10:54:00.002Z</time></trkpt><trkpt lat="41.90584714988576" lon="9.131932313230767"><ele>744.0</ele><time>2026-05-03T10:54:01.002Z</time></trkpt><trkpt lat="41.90598845765899" lon="9.132008347647428"><ele>739.0</ele><time>2026-05-03T10:54:02.002Z</time></trkpt><trkpt lat="41.906123214542674" lon="9.132046602098505"><ele>734.0</ele><time>2026-05-03T10:54:03.002Z</time></trkpt><trkpt lat="41.906247606086" lon="9.132099985703451"><ele>729.0</ele><time>2026-05-03T10:54:04.002Z</time></trkpt><trkpt lat="41.90637083502375" lon="9.132147527936201"><ele>729.0</ele><time>2026-05-03T10:54:05.002Z</time></trkpt><trkpt lat="41.90649199924629" lon="9.132177036612694"><ele>729.0</ele><time>2026-05-03T10:54:06.002Z</time></trkpt><trkpt lat="41.90660685504282" lon="9.132176030607809"><ele>729.0</ele><time>2026-05-03T10:54:07.002Z</time></trkpt><trkpt lat="41.90672448715789" lon="9.132171384792109"><ele>729.0</ele><time>2026-05-03T10:54:08.002Z</time></trkpt><trkpt lat="41.90683759261529" lon="9.132141985344598"><ele>730.6666666666666</ele><time>2026-05-03T10:54:09.002Z</time></trkpt><trkpt lat="41.90695761235559" lon="9.132139863899495"><ele>732.3333333333334</ele><time>2026-05-03T10:54:10.002Z</time></trkpt><trkpt lat="41.90705400798292" lon="9.132128292444518"><ele>734.0</ele><time>2026-05-03T10:54:11.002Z</time></trkpt><trkpt lat="41.90714493794891" lon="9.13210315586443"><ele>735.6666666666667</ele><time>2026-05-03T10:54:12.002Z</time></trkpt><trkpt lat="41.90720562345218" lon="9.132067173648643"><ele>737.3333333333334</ele><time>2026-05-03T10:54:13.002Z</time></trkpt><trkpt lat="41.90726753630618" lon="9.132026385305048"><ele>739.0</ele><time>2026-05-03T10:54:14.002Z</time></trkpt><trkpt lat="41.90733021915246" lon="9.131972515080193"><ele>739.0</ele><time>2026-05-03T10:54:15.002Z</time></trkpt><trkpt lat="41.907354995910616" lon="9.131849551932609"><ele>739.0</ele><time>2026-05-03T10:54:16.002Z</time></trkpt><trkpt lat="41.907399945764304" lon="9.131761591427635"><ele>739.0</ele><time>2026-05-03T10:54:17.002Z</time></trkpt><trkpt lat="41.907428452978955" lon="9.131681732526644"><ele>739.0</ele><time>2026-05-03T10:54:18.002Z</time></trkpt><trkpt lat="41.907441617848" lon="9.131595825757323"><ele>739.0</ele><time>2026-05-03T10:54:19.002Z</time></trkpt><trkpt lat="41.90747579491446" lon="9.131513976128845"><ele>739.0</ele><time>2026-05-03T10:54:20.002Z</time></trkpt><trkpt lat="41.9075153918044" lon="9.131436100075698"><ele>739.0</ele><time>2026-05-03T10:54:21.002Z</time></trkpt><trkpt lat="41.90757604437969" lon="9.131371358097613"><ele>737.5</ele><time>2026-05-03T10:54:22.003Z</time></trkpt><trkpt lat="41.90765352847739" lon="9.131328445028897"><ele>736.0</ele><time>2026-05-03T10:54:23.003Z</time></trkpt><trkpt lat="41.907740827314186" lon="9.13130003719827"><ele>734.5</ele><time>2026-05-03T10:54:24.003Z</time></trkpt><trkpt lat="41.907808568742695" lon="9.131261197930025"><ele>733.0</ele><time>2026-05-03T10:54:25.003Z</time></trkpt><trkpt lat="41.90791173111235" lon="9.131210512355931"><ele>731.5</ele><time>2026-05-03T10:54:27.003Z</time></trkpt><trkpt lat="41.907986692619986" lon="9.131179693238716"><ele>730.0</ele><time>2026-05-03T10:54:29.003Z</time></trkpt><trkpt lat="41.90807841807858" lon="9.131115467270728"><ele>730.0</ele><time>2026-05-03T10:54:31.003Z</time></trkpt><trkpt lat="41.90813663014776" lon="9.131064088231037"><ele>730.0</ele><time>2026-05-03T10:54:32.003Z</time></trkpt><trkpt lat="41.90820538277547" lon="9.131012785356711"><ele>730.0</ele><time>2026-05-03T10:54:33.003Z</time></trkpt><trkpt lat="41.90828260597435" lon="9.13096066779591"><ele>730.0</ele><time>2026-05-03T10:54:34.003Z</time></trkpt><trkpt lat="41.90836598781321" lon="9.130905009295528"><ele>730.0</ele><time>2026-05-03T10:54:35.003Z</time></trkpt><trkpt lat="41.90845835289564" lon="9.130846992908644"><ele>730.0</ele><time>2026-05-03T10:54:36.003Z</time></trkpt><trkpt lat="41.908538116764625" lon="9.130797846294541"><ele>730.6</ele><time>2026-05-03T10:54:37.003Z</time></trkpt><trkpt lat="41.9086131134584" lon="9.130749284643157"><ele>731.2</ele><time>2026-05-03T10:54:39.003Z</time></trkpt><trkpt lat="41.9086925900546" lon="9.130730051349168"><ele>731.8</ele><time>2026-05-03T10:55:52.001Z</time></trkpt><trkpt lat="41.90878794496354" lon="9.130672985311445"><ele>732.4</ele><time>2026-05-03T10:55:54.001Z</time></trkpt><trkpt lat="41.90888982215065" lon="9.130623874717864"><ele>733.0</ele><time>2026-05-03T10:55:56.002Z</time></trkpt><trkpt lat="41.90899700092522" lon="9.130577131632165"><ele>729.3333333333334</ele><time>2026-05-03T10:55:58.002Z</time></trkpt><trkpt lat="41.90908002344581" lon="9.130546924173581"><ele>725.6666666666667</ele><time>2026-05-03T10:56:00.002Z</time></trkpt><trkpt lat="41.909165030417576" lon="9.130532117965345"><ele>722.0</ele><time>2026-05-03T10:56:03.002Z</time></trkpt><trkpt lat="41.90923699070739" lon="9.13052038114736"><ele>718.3333333333334</ele><time>2026-05-03T10:56:05.002Z</time></trkpt><trkpt lat="41.90914364769766" lon="9.130524138202887"><ele>714.6666666666666</ele><time>2026-05-03T10:56:42.003Z</time></trkpt><trkpt lat="41.909044300926745" lon="9.130558817411558"><ele>711.0</ele><time>2026-05-03T10:56:44.003Z</time></trkpt><trkpt lat="41.90897169432275" lon="9.13059353594692"><ele>711.0</ele><time>2026-05-03T10:56:45.003Z</time></trkpt><trkpt lat="41.90887761761003" lon="9.130635192295971"><ele>711.0</ele><time>2026-05-03T10:56:46.003Z</time></trkpt><trkpt lat="41.908812563445075" lon="9.13066183820297"><ele>711.0</ele><time>2026-05-03T10:56:47.003Z</time></trkpt><trkpt lat="41.90872274727172" lon="9.130695841892459"><ele>711.0</ele><time>2026-05-03T10:56:49.003Z</time></trkpt><trkpt lat="41.90866214968944" lon="9.130746104791776"><ele>711.0</ele><time>2026-05-03T10:56:52.003Z</time></trkpt><trkpt lat="41.90858097627273" lon="9.130779330662254"><ele>711.0</ele><time>2026-05-03T10:56:55.003Z</time></trkpt><trkpt lat="41.908501282804" lon="9.130823018460394"><ele>714.1666666666666</ele><time>2026-05-03T10:56:58Z</time></trkpt><trkpt lat="41.90840478708646" lon="9.13087503055282"><ele>717.3333333333334</ele><time>2026-05-03T10:57:00Z</time></trkpt><trkpt lat="41.90834789691476" lon="9.130919987161512"><ele>720.5</ele><time>2026-05-03T10:57:01Z</time></trkpt><trkpt lat="41.90828452384437" lon="9.130969738123225"><ele>723.6666666666667</ele><time>2026-05-03T10:57:02Z</time></trkpt><trkpt lat="41.908212778230265" lon="9.131017099364442"><ele>726.8333333333334</ele><time>2026-05-03T10:57:03Z</time></trkpt><trkpt lat="41.90814870557796" lon="9.131067741380827"><ele>730.0</ele><time>2026-05-03T10:57:04Z</time></trkpt><trkpt lat="41.90806156037522" lon="9.131122804812687"><ele>730.0</ele><time>2026-05-03T10:57:06Z</time></trkpt><trkpt lat="41.90799343523326" lon="9.131155928056756"><ele>730.0</ele><time>2026-05-03T10:57:08Z</time></trkpt><trkpt lat="41.90792233794589" lon="9.131194417886691"><ele>730.0</ele><time>2026-05-03T10:57:11Z</time></trkpt><trkpt lat="41.907866303208586" lon="9.131240066579723"><ele>730.0</ele><time>2026-05-03T10:57:20Z</time></trkpt></trkseg><trkseg><trkpt lat="41.938540439407184" lon="9.161762177532761"><ele>739.0</ele><time>2026-05-03T12:30:00.001Z</time></trkpt><trkpt lat="41.938698401176126" lon="9.161793966242534"><ele>739.0</ele><time>2026-05-03T12:30:01.001Z</time></trkpt><trkpt lat="41.93886099054273" lon="9.161795080867774"><ele>739.0</ele><time>2026-05-03T12:30:02.001Z</time></trkpt><trkpt lat="41.93902473632741" lon="9.16177349421473"><ele>739.0</ele><time>2026-05-03T12:30:03.001Z</time></trkpt><trkpt lat="41.9391836221641" lon="9.161754902879535"><ele>739.0</ele><time>2026-05-03T12:30:04.001Z</time></trkpt><trkpt lat="41.93933753390947" lon="9.161777353930267"><ele>739.0</ele><time>2026-05-03T12:30:05.001Z</time></trkpt><trkpt lat="41.939487320717355" lon="9.16185681753333"><ele>737.75</ele><time>2026-05-03T12:30:06.001Z</time></trkpt><trkpt lat="41.93964154368823" lon="9.161897797459131"><ele>736.5</ele><time>2026-05-03T12:30:07.001Z</time></trkpt><trkpt lat="41.93977554212592" lon="9.16196325509674"><ele>735.25</ele><time>2026-05-03T12:30:08.001Z</time></trkpt><trkpt lat="41.93989925214004" lon="9.162039470664409"><ele>734.0</ele><time>2026-05-03T12:30:09.001Z</time></trkpt><trkpt lat="41.93998952080729" lon="9.162164159063197"><ele>734.0</ele><time>2026-05-03T12:30:10.001Z</time></trkpt><trkpt lat="41.94004886800713" lon="9.162306301898596"><ele>734.0</ele><time>2026-05-03T12:30:11.001Z</time></trkpt><trkpt lat="41.940122420306444" lon="9.162445933237635"><ele>734.0</ele><time>2026-05-03T12:30:11.999Z</time></trkpt><trkpt lat="41.94017261828119" lon="9.162583194441144"><ele>734.0</ele><time>2026-05-03T12:30:12.999Z</time></trkpt><trkpt lat="41.94022463601953" lon="9.162710171070197"><ele>735.25</ele><time>2026-05-03T12:30:13.999Z</time></trkpt><trkpt lat="41.9402717475415" lon="9.162850286690581"><ele>736.5</ele><time>2026-05-03T12:30:14.999Z</time></trkpt><trkpt lat="41.94032357426302" lon="9.16300057581954"><ele>737.75</ele><time>2026-05-03T12:30:15.999Z</time></trkpt><trkpt lat="41.94039200631415" lon="9.163128312476086"><ele>739.0</ele><time>2026-05-03T12:30:16.999Z</time></trkpt><trkpt lat="41.94050746853344" lon="9.16322837553058"><ele>739.0</ele><time>2026-05-03T12:30:17.999Z</time></trkpt><trkpt lat="41.94064215501918" lon="9.163296371251885"><ele>739.0</ele><time>2026-05-03T12:30:18.999Z</time></trkpt><trkpt lat="41.94075317964145" lon="9.16337929282022"><ele>739.0</ele><time>2026-05-03T12:30:19.999Z</time></trkpt><trkpt lat="41.940833433758364" lon="9.163501736961452"><ele>739.0</ele><time>2026-05-03T12:30:20.999Z</time></trkpt><trkpt lat="41.94087985942857" lon="9.163667868530098"><ele>739.25</ele><time>2026-05-03T12:30:21.999Z</time></trkpt><trkpt lat="41.940960548557385" lon="9.163805787649604"><ele>739.5</ele><time>2026-05-03T12:30:22.999Z</time></trkpt><trkpt lat="41.94106421530609" lon="9.163930287996626"><ele>739.75</ele><time>2026-05-03T12:30:23.999Z</time></trkpt><trkpt lat="41.94118970452441" lon="9.164023261564294"><ele>740.0</ele><time>2026-05-03T12:30:24.999Z</time></trkpt><trkpt lat="41.94131955487864" lon="9.164115303598443"><ele>740.0</ele><time>2026-05-03T12:30:25.999Z</time></trkpt><trkpt lat="41.941444510020396" lon="9.164235609076163"><ele>740.0</ele><time>2026-05-03T12:30:26.999Z</time></trkpt><trkpt lat="41.94153912736097" lon="9.164390351747683"><ele>740.0</ele><time>2026-05-03T12:30:27.999Z</time></trkpt><trkpt lat="41.941655709891364" lon="9.164508390566404"><ele>740.0</ele><time>2026-05-03T12:30:28.999Z</time></trkpt><trkpt lat="41.94176879080094" lon="9.164616105298807"><ele>739.75</ele><time>2026-05-03T12:30:29.999Z</time></trkpt><trkpt lat="41.9418878771252" lon="9.164700664316088"><ele>739.5</ele><time>2026-05-03T12:30:30.999Z</time></trkpt><trkpt lat="41.941987991530425" lon="9.16481037263249"><ele>739.25</ele><time>2026-05-03T12:30:31.999Z</time></trkpt><trkpt lat="41.942043717004196" lon="9.164952201017616"><ele>739.0</ele><time>2026-05-03T12:30:32.999Z</time></trkpt><trkpt lat="41.94209650896051" lon="9.165074004692531"><ele>739.0</ele><time>2026-05-03T12:30:33.999Z</time></trkpt><trkpt lat="41.94211875733387" lon="9.165207114315606"><ele>739.0</ele><time>2026-05-03T12:30:34.999Z</time></trkpt><trkpt lat="41.94214438200465" lon="9.165329498573868"><ele>739.0</ele><time>2026-05-03T12:30:35.999Z</time></trkpt><trkpt lat="41.94221003657144" lon="9.16544182536935"><ele>739.0</ele><time>2026-05-03T12:30:37Z</time></trkpt><trkpt lat="41.94231695183798" lon="9.165532073262034"><ele>739.0</ele><time>2026-05-03T12:30:38Z</time></trkpt><trkpt lat="41.942453098923814" lon="9.165604665028258"><ele>740.3333333333334</ele><time>2026-05-03T12:30:39Z</time></trkpt><trkpt lat="41.942590726358446" lon="9.165684180778369"><ele>741.6666666666666</ele><time>2026-05-03T12:30:40Z</time></trkpt><trkpt lat="41.94272379804521" lon="9.165773455326757"><ele>743.0</ele><time>2026-05-03T12:30:41Z</time></trkpt><trkpt lat="41.94286234373007" lon="9.165867164990711"><ele>743.0</ele><time>2026-05-03T12:30:42Z</time></trkpt><trkpt lat="41.94300748622103" lon="9.165955461941785"><ele>743.0</ele><time>2026-05-03T12:30:43Z</time></trkpt><trkpt lat="41.943160752774894" lon="9.166015043613475"><ele>743.0</ele><time>2026-05-03T12:30:44Z</time></trkpt><trkpt lat="41.94332332422996" lon="9.166053844785656"><ele>736.0</ele><time>2026-05-03T12:30:45Z</time></trkpt><trkpt lat="41.94347774788493" lon="9.166107731237055"><ele>729.0</ele><time>2026-05-03T12:30:46Z</time></trkpt><trkpt lat="41.94361979027203" lon="9.166199897006427"><ele>722.0</ele><time>2026-05-03T12:30:47Z</time></trkpt><trkpt lat="41.943717706039635" lon="9.166336143218462"><ele>722.0</ele><time>2026-05-03T12:30:48Z</time></trkpt><trkpt lat="41.94378524880596" lon="9.166487416472366"><ele>722.0</ele><time>2026-05-03T12:30:49Z</time></trkpt><trkpt lat="41.94383219346484" lon="9.166672467713472"><ele>722.0</ele><time>2026-05-03T12:30:50Z</time></trkpt><trkpt lat="41.94387860490401" lon="9.166860699085687"><ele>722.0</ele><time>2026-05-03T12:30:51Z</time></trkpt><trkpt lat="41.94393002715806" lon="9.167033539715154"><ele>725.0</ele><time>2026-05-03T12:30:52Z</time></trkpt><trkpt lat="41.9439162806214" lon="9.16719963092178"><ele>728.0</ele><time>2026-05-03T12:30:53Z</time></trkpt><trkpt lat="41.9438852924847" lon="9.167345275788609"><ele>731.0</ele><time>2026-05-03T12:30:54Z</time></trkpt><trkpt lat="41.94385026110794" lon="9.167474511358442"><ele>734.0</ele><time>2026-05-03T12:30:55Z</time></trkpt><trkpt lat="41.94384850529365" lon="9.167582825894538"><ele>737.0</ele><time>2026-05-03T12:30:56Z</time></trkpt><trkpt lat="41.94384661236407" lon="9.167677859086426"><ele>737.5</ele><time>2026-05-03T12:30:57Z</time></trkpt><trkpt lat="41.94387452877747" lon="9.167758572870435"><ele>738.0</ele><time>2026-05-03T12:30:58Z</time></trkpt><trkpt lat="41.94393842622283" lon="9.167815546879348"><ele>738.5</ele><time>2026-05-03T12:30:59Z</time></trkpt><trkpt lat="41.94402533646659" lon="9.167857670222183"><ele>739.0</ele><time>2026-05-03T12:31:00Z</time></trkpt><trkpt lat="41.94412872400903" lon="9.16788026056892"><ele>739.5</ele><time>2026-05-03T12:31:01Z</time></trkpt><trkpt lat="41.9442359425539" lon="9.167877289591804"><ele>740.0</ele><time>2026-05-03T12:31:02Z</time></trkpt><trkpt lat="41.94433677033482" lon="9.167872003834368"><ele>740.0</ele><time>2026-05-03T12:31:03Z</time></trkpt><trkpt lat="41.94443878723396" lon="9.16791483300279"><ele>740.0</ele><time>2026-05-03T12:31:04Z</time></trkpt><trkpt lat="41.94451842615398" lon="9.16805490465172"><ele>740.0</ele><time>2026-05-03T12:31:05Z</time></trkpt><trkpt lat="41.94461194613985" lon="9.168153487823085"><ele>740.0</ele><time>2026-05-03T12:31:06Z</time></trkpt><trkpt lat="41.94468719555376" lon="9.168245265273203"><ele>745.0</ele><time>2026-05-03T12:31:07Z</time></trkpt><trkpt lat="41.944797559294884" lon="9.168297723997451"><ele>750.0</ele><time>2026-05-03T12:31:08Z</time></trkpt><trkpt lat="41.944927151166816" lon="9.168323621089563"><ele>755.0</ele><time>2026-05-03T12:31:09Z</time></trkpt><trkpt lat="41.945053491863945" lon="9.168326724115314"><ele>760.0</ele><time>2026-05-03T12:31:10Z</time></trkpt><trkpt lat="41.94516166563985" lon="9.168309253332115"><ele>760.6</ele><time>2026-05-03T12:31:11Z</time></trkpt><trkpt lat="41.945256360118115" lon="9.168241408438721"><ele>761.2</ele><time>2026-05-03T12:31:12Z</time></trkpt><trkpt lat="41.945328471398106" lon="9.168121544938474"><ele>761.8</ele><time>2026-05-03T12:31:13Z</time></trkpt><trkpt lat="41.94538101607949" lon="9.16798500792967"><ele>762.4</ele><time>2026-05-03T12:31:14Z</time></trkpt><trkpt lat="41.94546045329085" lon="9.167883124022833"><ele>763.0</ele><time>2026-05-03T12:31:15Z</time></trkpt><trkpt lat="41.94556539024972" lon="9.167849017731564"><ele>761.0</ele><time>2026-05-03T12:31:16Z</time></trkpt><trkpt lat="41.945673102894574" lon="9.167904479489273"><ele>759.0</ele><time>2026-05-03T12:31:17Z</time></trkpt><trkpt lat="41.94579620450358" lon="9.167919839088587"><ele>757.0</ele><time>2026-05-03T12:31:18Z</time></trkpt><trkpt lat="41.945918736674685" lon="9.167955719624842"><ele>755.0</ele><time>2026-05-03T12:31:19.001Z</time></trkpt><trkpt lat="41.94604599055607" lon="9.167963206317769"><ele>755.0</ele><time>2026-05-03T12:31:20.001Z</time></trkpt><trkpt lat="41.94617477471065" lon="9.167941991183556"><ele>755.0</ele><time>2026-05-03T12:31:21.001Z</time></trkpt><trkpt lat="41.94628388003875" lon="9.167887455826548"><ele>755.0</ele><time>2026-05-03T12:31:22.001Z</time></trkpt><trkpt lat="41.9463724321099" lon="9.167802144188704"><ele>755.0</ele><time>2026-05-03T12:31:23.001Z</time></trkpt><trkpt lat="41.94643719100029" lon="9.167696164508179"><ele>755.0</ele><time>2026-05-03T12:31:24.001Z</time></trkpt><trkpt lat="41.946473336545694" lon="9.167569596674236"><ele>755.0</ele><time>2026-05-03T12:31:25.001Z</time></trkpt><trkpt lat="41.94647879784749" lon="9.167424147500132"><ele>755.0</ele><time>2026-05-03T12:31:26.001Z</time></trkpt><trkpt lat="41.94647235492746" lon="9.167273711756"><ele>755.0</ele><time>2026-05-03T12:31:27.001Z</time></trkpt><trkpt lat="41.94648733975902" lon="9.167144516097594"><ele>755.0</ele><time>2026-05-03T12:31:28.001Z</time></trkpt><trkpt lat="41.94654338396906" lon="9.167046870245569"><ele>753.3333333333333</ele><time>2026-05-03T12:31:29.001Z</time></trkpt><trkpt lat="41.946622649456074" lon="9.167001992033187"><ele>751.6666666666666</ele><time>2026-05-03T12:31:30.001Z</time></trkpt><trkpt lat="41.9466955817835" lon="9.167001092423433"><ele>750.0</ele><time>2026-05-03T12:31:31.001Z</time></trkpt><trkpt lat="41.94675747453683" lon="9.16707222318855"><ele>748.3333333333334</ele><time>2026-05-03T12:31:32.001Z</time></trkpt><trkpt lat="41.946824765456924" lon="9.167180913479465"><ele>746.6666666666667</ele><time>2026-05-03T12:31:33.001Z</time></trkpt><trkpt lat="41.946904693981" lon="9.16726807887162"><ele>745.0</ele><time>2026-05-03T12:31:34.001Z</time></trkpt><trkpt lat="41.94699963423886" lon="9.167354974316781"><ele>748.25</ele><time>2026-05-03T12:31:35.001Z</time></trkpt><trkpt lat="41.94709657573353" lon="9.167446191057214"><ele>751.5</ele><time>2026-05-03T12:31:36.001Z</time></trkpt><trkpt lat="41.94720251842915" lon="9.167531201491236"><ele>754.75</ele><time>2026-05-03T12:31:37.001Z</time></trkpt><trkpt lat="41.94730169383123" lon="9.167625311340931"><ele>758.0</ele><time>2026-05-03T12:31:38.001Z</time></trkpt><trkpt lat="41.94738239382067" lon="9.167733029264378"><ele>758.0</ele><time>2026-05-03T12:31:39.001Z</time></trkpt><trkpt lat="41.947463762796865" lon="9.167854915082778"><ele>758.0</ele><time>2026-05-03T12:31:40.001Z</time></trkpt><trkpt lat="41.94754018611616" lon="9.167986698865633"><ele>758.0</ele><time>2026-05-03T12:31:41.001Z</time></trkpt><trkpt lat="41.94761981862162" lon="9.168126206853751"><ele>758.0</ele><time>2026-05-03T12:31:42.001Z</time></trkpt><trkpt lat="41.947699685495614" lon="9.16827076695556"><ele>756.75</ele><time>2026-05-03T12:31:43.001Z</time></trkpt><trkpt lat="41.947781338701915" lon="9.168411661333467"><ele>755.5</ele><time>2026-05-03T12:31:44.001Z</time></trkpt><trkpt lat="41.94786407603353" lon="9.168549221365188"><ele>754.25</ele><time>2026-05-03T12:31:45.001Z</time></trkpt><trkpt lat="41.94794570827212" lon="9.168687193981077"><ele>753.0</ele><time>2026-05-03T12:31:46.001Z</time></trkpt><trkpt lat="41.9480315322834" lon="9.168844989980562"><ele>754.0</ele><time>2026-05-03T12:31:47.001Z</time></trkpt><trkpt lat="41.94811061856808" lon="9.169027342530946"><ele>755.0</ele><time>2026-05-03T12:31:48.001Z</time></trkpt><trkpt lat="41.94815743254088" lon="9.169236772414585"><ele>756.0</ele><time>2026-05-03T12:31:49.001Z</time></trkpt><trkpt lat="41.94817559145151" lon="9.169475928872993"><ele>756.0</ele><time>2026-05-03T12:31:50.001Z</time></trkpt><trkpt lat="41.94819045676072" lon="9.169719964284885"><ele>756.0</ele><time>2026-05-03T12:31:51.001Z</time></trkpt><trkpt lat="41.94820260474153" lon="9.169943931425774"><ele>756.0</ele><time>2026-05-03T12:31:52.001Z</time></trkpt><trkpt lat="41.94821975938766" lon="9.170124808166626"><ele>756.75</ele><time>2026-05-03T12:31:53.001Z</time></trkpt><trkpt lat="41.948247796658634" lon="9.17026635579088"><ele>757.5</ele><time>2026-05-03T12:31:54.001Z</time></trkpt><trkpt lat="41.948300019289235" lon="9.170422378129985"><ele>758.25</ele><time>2026-05-03T12:31:55.001Z</time></trkpt><trkpt lat="41.948363336106084" lon="9.170588162706157"><ele>759.0</ele><time>2026-05-03T12:31:56.001Z</time></trkpt><trkpt lat="41.94843517558643" lon="9.170767989959767"><ele>759.0</ele><time>2026-05-03T12:31:57.001Z</time></trkpt><trkpt lat="41.94850998699088" lon="9.170943504744136"><ele>759.0</ele><time>2026-05-03T12:31:58.001Z</time></trkpt><trkpt lat="41.94858290909771" lon="9.171119449047042"><ele>759.0</ele><time>2026-05-03T12:31:59.001Z</time></trkpt><trkpt lat="41.9486510024895" lon="9.171276445720999"><ele>759.0</ele><time>2026-05-03T12:32:00.001Z</time></trkpt><trkpt lat="41.948706407408466" lon="9.171405318650052"><ele>759.0</ele><time>2026-05-03T12:32:01.001Z</time></trkpt><trkpt lat="41.948748692860214" lon="9.171512183891734"><ele>759.0</ele><time>2026-05-03T12:32:02.001Z</time></trkpt><trkpt lat="41.94884373488575" lon="9.171540770205015"><ele>759.0</ele><time>2026-05-03T12:32:03.001Z</time></trkpt><trkpt lat="41.94892474122309" lon="9.171539363562156"><ele>759.0</ele><time>2026-05-03T12:32:04.001Z</time></trkpt><trkpt lat="41.94900648067776" lon="9.171495769186084"><ele>759.0</ele><time>2026-05-03T12:32:05.001Z</time></trkpt><trkpt lat="41.94906705623146" lon="9.171408082372684"><ele>759.0</ele><time>2026-05-03T12:32:06.001Z</time></trkpt><trkpt lat="41.949088332665795" lon="9.171287442064367"><ele>759.0</ele><time>2026-05-03T12:32:07.001Z</time></trkpt><trkpt lat="41.94910445726717" lon="9.171147515605565"><ele>759.0</ele><time>2026-05-03T12:32:08.001Z</time></trkpt><trkpt lat="41.94916083294549" lon="9.171043760767924"><ele>759.0</ele><time>2026-05-03T12:32:09.001Z</time></trkpt><trkpt lat="41.94925938483953" lon="9.171005630365213"><ele>759.0</ele><time>2026-05-03T12:32:10.002Z</time></trkpt><trkpt lat="41.949368987978616" lon="9.171016831208306"><ele>759.0</ele><time>2026-05-03T12:32:11.002Z</time></trkpt><trkpt lat="41.94948207344261" lon="9.171051503178473"><ele>759.0</ele><time>2026-05-03T12:32:12.002Z</time></trkpt><trkpt lat="41.9496034745005" lon="9.171086506129084"><ele>759.0</ele><time>2026-05-03T12:32:13.002Z</time></trkpt><trkpt lat="41.94972513384842" lon="9.171118752910445"><ele>759.0</ele><time>2026-05-03T12:32:14.002Z</time></trkpt><trkpt lat="41.949846005586316" lon="9.171155331085682"><ele>759.0</ele><time>2026-05-03T12:32:15.002Z</time></trkpt><trkpt lat="41.949968923702336" lon="9.171213536278332"><ele>761.25</ele><time>2026-05-03T12:32:16.002Z</time></trkpt><trkpt lat="41.950100453228934" lon="9.171272295635822"><ele>763.5</ele><time>2026-05-03T12:32:17.002Z</time></trkpt><trkpt lat="41.95024231742496" lon="9.171292855448383"><ele>765.75</ele><time>2026-05-03T12:32:17.999Z</time></trkpt><trkpt lat="41.95038233212209" lon="9.17125848394131"><ele>768.0</ele><time>2026-05-03T12:32:18.999Z</time></trkpt><trkpt lat="41.95052674920417" lon="9.171213332787767"><ele>768.0</ele><time>2026-05-03T12:32:19.999Z</time></trkpt><trkpt lat="41.950668892559776" lon="9.17118960816283"><ele>768.0</ele><time>2026-05-03T12:32:20.999Z</time></trkpt><trkpt lat="41.950796137096766" lon="9.171162728385848"><ele>768.0</ele><time>2026-05-03T12:32:21.999Z</time></trkpt><trkpt lat="41.95090171174199" lon="9.171086013421519"><ele>768.0</ele><time>2026-05-03T12:32:22.999Z</time></trkpt><trkpt lat="41.95098139169405" lon="9.170960181743157"><ele>770.25</ele><time>2026-05-03T12:32:23.999Z</time></trkpt><trkpt lat="41.95104339667107" lon="9.170795337161328"><ele>772.5</ele><time>2026-05-03T12:32:24.999Z</time></trkpt><trkpt lat="41.951098891766804" lon="9.1706204667262"><ele>774.75</ele><time>2026-05-03T12:32:25.999Z</time></trkpt><trkpt lat="41.951148748303666" lon="9.170439780933286"><ele>777.0</ele><time>2026-05-03T12:32:26.999Z</time></trkpt><trkpt lat="41.95121175106203" lon="9.17027579485023"><ele>777.0</ele><time>2026-05-03T12:32:27.999Z</time></trkpt><trkpt lat="41.951294869741595" lon="9.170145247131984"><ele>777.0</ele><time>2026-05-03T12:32:28.999Z</time></trkpt><trkpt lat="41.951411981266446" lon="9.170028456779656"><ele>777.0</ele><time>2026-05-03T12:32:29.999Z</time></trkpt><trkpt lat="41.95153687160967" lon="9.169909830537849"><ele>777.0</ele><time>2026-05-03T12:32:30.999Z</time></trkpt><trkpt lat="41.95164785529183" lon="9.169796909378165"><ele>773.25</ele><time>2026-05-03T12:32:31.999Z</time></trkpt><trkpt lat="41.95174648195201" lon="9.169690155626352"><ele>769.5</ele><time>2026-05-03T12:32:32.999Z</time></trkpt><trkpt lat="41.951854973033015" lon="9.169600489636824"><ele>765.75</ele><time>2026-05-03T12:32:33.999Z</time></trkpt><trkpt lat="41.95199047377497" lon="9.16955048564043"><ele>762.0</ele><time>2026-05-03T12:32:34.999Z</time></trkpt><trkpt lat="41.952128567941415" lon="9.16954851790772"><ele>762.0</ele><time>2026-05-03T12:32:36Z</time></trkpt><trkpt lat="41.95225060501269" lon="9.169574168941976"><ele>762.0</ele><time>2026-05-03T12:32:37Z</time></trkpt><trkpt lat="41.9523706532249" lon="9.169640934572426"><ele>762.0</ele><time>2026-05-03T12:32:38Z</time></trkpt><trkpt lat="41.95246414520561" lon="9.169755585135624"><ele>762.0</ele><time>2026-05-03T12:32:39Z</time></trkpt><trkpt lat="41.95255986154264" lon="9.169872047556247"><ele>762.0</ele><time>2026-05-03T12:32:40Z</time></trkpt><trkpt lat="41.952669886948286" lon="9.169945525721683"><ele>762.0</ele><time>2026-05-03T12:32:41Z</time></trkpt><trkpt lat="41.95278497786725" lon="9.169990541720662"><ele>762.0</ele><time>2026-05-03T12:32:42Z</time></trkpt><trkpt lat="41.95290573016161" lon="9.170047908875594"><ele>762.0</ele><time>2026-05-03T12:32:43Z</time></trkpt><trkpt lat="41.953017225778254" lon="9.170145038218239"><ele>762.0</ele><time>2026-05-03T12:32:44Z</time></trkpt><trkpt lat="41.95310901659541" lon="9.170282582866905"><ele>762.0</ele><time>2026-05-03T12:32:45Z</time></trkpt><trkpt lat="41.95317278477773" lon="9.17044279161508"><ele>762.0</ele><time>2026-05-03T12:32:46Z</time></trkpt><trkpt lat="41.95321047958667" lon="9.170618026306979"><ele>762.0</ele><time>2026-05-03T12:32:47Z</time></trkpt><trkpt lat="41.95319579249798" lon="9.170783563208962"><ele>765.4000000000001</ele><time>2026-05-03T12:32:48Z</time></trkpt><trkpt lat="41.95320098418547" lon="9.170924910406873"><ele>768.8000000000001</ele><time>2026-05-03T12:32:49Z</time></trkpt><trkpt lat="41.95323559001094" lon="9.171058668193917"><ele>772.2</ele><time>2026-05-03T12:32:50Z</time></trkpt><trkpt lat="41.953285950657865" lon="9.171175714283319"><ele>775.6</ele><time>2026-05-03T12:32:51Z</time></trkpt><trkpt lat="41.95337123042257" lon="9.171290949721163"><ele>779.0</ele><time>2026-05-03T12:32:52Z</time></trkpt><trkpt lat="41.953478567859804" lon="9.17141371508908"><ele>774.0</ele><time>2026-05-03T12:32:53Z</time></trkpt><trkpt lat="41.95357952469547" lon="9.171532182446844"><ele>769.0</ele><time>2026-05-03T12:32:54Z</time></trkpt><trkpt lat="41.95365595728382" lon="9.171666469129844"><ele>764.0</ele><time>2026-05-03T12:32:55Z</time></trkpt><trkpt lat="41.95373899889374" lon="9.171800805886427"><ele>759.0</ele><time>2026-05-03T12:32:56Z</time></trkpt><trkpt lat="41.953799472199684" lon="9.17195013195958"><ele>759.0</ele><time>2026-05-03T12:32:57Z</time></trkpt><trkpt lat="41.95384860367093" lon="9.172112392292934"><ele>759.0</ele><time>2026-05-03T12:32:58Z</time></trkpt><trkpt lat="41.9538926801667" lon="9.172276072420283"><ele>759.0</ele><time>2026-05-03T12:32:59Z</time></trkpt><trkpt lat="41.953932256485786" lon="9.172430603021908"><ele>759.0</ele><time>2026-05-03T12:33:00Z</time></trkpt><trkpt lat="41.95397670786591" lon="9.172587487345382"><ele>755.75</ele><time>2026-05-03T12:33:01Z</time></trkpt><trkpt lat="41.954041028116684" lon="9.172731527153848"><ele>752.5</ele><time>2026-05-03T12:33:02Z</time></trkpt><trkpt lat="41.954093028081324" lon="9.172884902807267"><ele>749.25</ele><time>2026-05-03T12:33:03Z</time></trkpt><trkpt lat="41.95416107466558" lon="9.173028654112834"><ele>746.0</ele><time>2026-05-03T12:33:04Z</time></trkpt><trkpt lat="41.9542347202333" lon="9.173168338445008"><ele>749.5999999999999</ele><time>2026-05-03T12:33:05Z</time></trkpt><trkpt lat="41.95430006172935" lon="9.173298531372952"><ele>753.2</ele><time>2026-05-03T12:33:06Z</time></trkpt><trkpt lat="41.95436195216317" lon="9.173422071802165"><ele>756.8</ele><time>2026-05-03T12:33:07Z</time></trkpt><trkpt lat="41.954422691197486" lon="9.173543514460935"><ele>760.4000000000001</ele><time>2026-05-03T12:33:08Z</time></trkpt><trkpt lat="41.95447045700559" lon="9.17367115323932"><ele>764.0</ele><time>2026-05-03T12:33:09Z</time></trkpt><trkpt lat="41.954524342388844" lon="9.173781622481956"><ele>764.0</ele><time>2026-05-03T12:33:10Z</time></trkpt><trkpt lat="41.954574805017074" lon="9.173889045667327"><ele>764.0</ele><time>2026-05-03T12:33:11.001Z</time></trkpt><trkpt lat="41.95462891526012" lon="9.17400984611352"><ele>764.0</ele><time>2026-05-03T12:33:12.001Z</time></trkpt><trkpt lat="41.954679707289316" lon="9.17413892069425"><ele>764.0</ele><time>2026-05-03T12:33:13.001Z</time></trkpt><trkpt lat="41.95472717976712" lon="9.174257747444596"><ele>764.0</ele><time>2026-05-03T12:33:14.001Z</time></trkpt><trkpt lat="41.95479429223721" lon="9.174365285455158"><ele>766.25</ele><time>2026-05-03T12:33:15.001Z</time></trkpt><trkpt lat="41.95489101096588" lon="9.174457725863054"><ele>768.5</ele><time>2026-05-03T12:33:16.001Z</time></trkpt><trkpt lat="41.95500668266312" lon="9.174519916446075"><ele>770.75</ele><time>2026-05-03T12:33:17.001Z</time></trkpt><trkpt lat="41.95513312802885" lon="9.174580287720207"><ele>773.0</ele><time>2026-05-03T12:33:18.001Z</time></trkpt><trkpt lat="41.95527271177443" lon="9.174663010629375"><ele>773.0</ele><time>2026-05-03T12:33:19.001Z</time></trkpt><trkpt lat="41.955401411979544" lon="9.174757166949615"><ele>773.0</ele><time>2026-05-03T12:33:20.001Z</time></trkpt><trkpt lat="41.955540976989106" lon="9.174868853481179"><ele>773.0</ele><time>2026-05-03T12:33:21.001Z</time></trkpt><trkpt lat="41.955688926032515" lon="9.174977155513123"><ele>774.0</ele><time>2026-05-03T12:33:22.001Z</time></trkpt><trkpt lat="41.95583207842328" lon="9.175086675681634"><ele>775.0</ele><time>2026-05-03T12:33:23.001Z</time></trkpt><trkpt lat="41.955960960258274" lon="9.175211832187673"><ele>776.0</ele><time>2026-05-03T12:33:24.001Z</time></trkpt><trkpt lat="41.9560986207095" lon="9.175322178423675"><ele>776.0</ele><time>2026-05-03T12:33:25.001Z</time></trkpt><trkpt lat="41.95623908788943" lon="9.175392988318203"><ele>776.0</ele><time>2026-05-03T12:33:26.001Z</time></trkpt><trkpt lat="41.956353213521965" lon="9.175484617257585"><ele>776.0</ele><time>2026-05-03T12:33:27.001Z</time></trkpt><trkpt lat="41.956407535472955" lon="9.17556784770157"><ele>776.0</ele><time>2026-05-03T12:33:28.001Z</time></trkpt><trkpt lat="41.956371101590925" lon="9.175692966742297"><ele>779.0</ele><time>2026-05-03T12:33:29.001Z</time></trkpt><trkpt lat="41.95633116368113" lon="9.175826545288988"><ele>782.0</ele><time>2026-05-03T12:33:30.001Z</time></trkpt><trkpt lat="41.95632662280786" lon="9.176000211475507"><ele>785.0</ele><time>2026-05-03T12:33:31.001Z</time></trkpt><trkpt lat="41.956373788431435" lon="9.176178384853833"><ele>788.0</ele><time>2026-05-03T12:33:32.001Z</time></trkpt><trkpt lat="41.956433122268166" lon="9.176346553140542"><ele>788.0</ele><time>2026-05-03T12:33:33.001Z</time></trkpt><trkpt lat="41.95647018600723" lon="9.17650735753551"><ele>788.0</ele><time>2026-05-03T12:33:34.001Z</time></trkpt><trkpt lat="41.956526527220234" lon="9.176641731062151"><ele>788.0</ele><time>2026-05-03T12:33:35.001Z</time></trkpt><trkpt lat="41.95660891256303" lon="9.17676615291328"><ele>788.0</ele><time>2026-05-03T12:33:36.001Z</time></trkpt><trkpt lat="41.956704040329356" lon="9.176873487653907"><ele>791.0</ele><time>2026-05-03T12:33:37.001Z</time></trkpt><trkpt lat="41.9567891479101" lon="9.176982707378757"><ele>794.0</ele><time>2026-05-03T12:33:38.001Z</time></trkpt><trkpt lat="41.95686318578145" lon="9.177093040276285"><ele>797.0</ele><time>2026-05-03T12:33:39.001Z</time></trkpt><trkpt lat="41.9569357883901" lon="9.177169803023185"><ele>800.0</ele><time>2026-05-03T12:33:40.001Z</time></trkpt><trkpt lat="41.95703090300421" lon="9.177171533135061"><ele>803.0</ele><time>2026-05-03T12:33:41.001Z</time></trkpt><trkpt lat="41.95713385052365" lon="9.177101672203111"><ele>803.0</ele><time>2026-05-03T12:33:42.001Z</time></trkpt><trkpt lat="41.957200100093985" lon="9.176983148769148"><ele>803.0</ele><time>2026-05-03T12:33:43.001Z</time></trkpt><trkpt lat="41.95725372119976" lon="9.176828194440963"><ele>803.0</ele><time>2026-05-03T12:33:44.001Z</time></trkpt><trkpt lat="41.957292852594705" lon="9.176677766865778"><ele>803.0</ele><time>2026-05-03T12:33:45.001Z</time></trkpt><trkpt lat="41.95734172233257" lon="9.176542840624556"><ele>798.5</ele><time>2026-05-03T12:33:46.001Z</time></trkpt><trkpt lat="41.9574172978667" lon="9.176454906474618"><ele>794.0</ele><time>2026-05-03T12:33:47.001Z</time></trkpt><trkpt lat="41.95753997027183" lon="9.176457672615033"><ele>789.5</ele><time>2026-05-03T12:33:48.001Z</time></trkpt><trkpt lat="41.95767599996376" lon="9.176469243305101"><ele>785.0</ele><time>2026-05-03T12:33:49.001Z</time></trkpt><trkpt lat="41.95781908795856" lon="9.176443365566776"><ele>785.0</ele><time>2026-05-03T12:33:50.001Z</time></trkpt><trkpt lat="41.957942662720086" lon="9.176433361481738"><ele>785.0</ele><time>2026-05-03T12:33:51.001Z</time></trkpt><trkpt lat="41.95805096918179" lon="9.176412117826779"><ele>785.0</ele><time>2026-05-03T12:33:52.001Z</time></trkpt><trkpt lat="41.95815571686312" lon="9.176429225347158"><ele>785.0</ele><time>2026-05-03T12:33:53.001Z</time></trkpt><trkpt lat="41.95824469125123" lon="9.176524308947904"><ele>786.5</ele><time>2026-05-03T12:33:54.001Z</time></trkpt><trkpt lat="41.95832849722989" lon="9.176639694447386"><ele>788.0</ele><time>2026-05-03T12:33:55.001Z</time></trkpt><trkpt lat="41.95842431953327" lon="9.176738456274371"><ele>789.5</ele><time>2026-05-03T12:33:56.002Z</time></trkpt><trkpt lat="41.958520667732984" lon="9.176831448126812"><ele>791.0</ele><time>2026-05-03T12:33:57.002Z</time></trkpt><trkpt lat="41.95864001395228" lon="9.176893661609833"><ele>791.0</ele><time>2026-05-03T12:33:58.002Z</time></trkpt><trkpt lat="41.958766349079376" lon="9.176951843835951"><ele>791.0</ele><time>2026-05-03T12:33:59.002Z</time></trkpt><trkpt lat="41.958893185145136" lon="9.177022064334484"><ele>791.0</ele><time>2026-05-03T12:34:00.002Z</time></trkpt><trkpt lat="41.95902386491813" lon="9.177114998812272"><ele>791.0</ele><time>2026-05-03T12:34:01.002Z</time></trkpt><trkpt lat="41.95912611630751" lon="9.177280844371184"><ele>791.0</ele><time>2026-05-03T12:34:02.002Z</time></trkpt><trkpt lat="41.95923471886536" lon="9.17744123875319"><ele>791.0</ele><time>2026-05-03T12:34:03.002Z</time></trkpt><trkpt lat="41.95935784311173" lon="9.177601204428539"><ele>791.0</ele><time>2026-05-03T12:34:04.002Z</time></trkpt><trkpt lat="41.959465139393" lon="9.177759060016735"><ele>791.0</ele><time>2026-05-03T12:34:05.002Z</time></trkpt><trkpt lat="41.959554544495745" lon="9.177921094096497"><ele>791.0</ele><time>2026-05-03T12:34:06.002Z</time></trkpt><trkpt lat="41.9596083189907" lon="9.178089617741453"><ele>791.0</ele><time>2026-05-03T12:34:07.002Z</time></trkpt><trkpt lat="41.95961855658794" lon="9.178254427980155"><ele>791.0</ele><time>2026-05-03T12:34:08.002Z</time></trkpt><trkpt lat="41.95963612276819" lon="9.178414897218671"><ele>793.25</ele><time>2026-05-03T12:34:09.002Z</time></trkpt><trkpt lat="41.95967409235363" lon="9.17856519712619"><ele>795.5</ele><time>2026-05-03T12:34:10.002Z</time></trkpt><trkpt lat="41.959743424249005" lon="9.17871404014214"><ele>797.75</ele><time>2026-05-03T12:34:11.002Z</time></trkpt><trkpt lat="41.95986044953216" lon="9.178834003236963"><ele>800.0</ele><time>2026-05-03T12:34:12.002Z</time></trkpt><trkpt lat="41.95998536334254" lon="9.178954946383875"><ele>800.5</ele><time>2026-05-03T12:34:13.002Z</time></trkpt><trkpt lat="41.960066151026965" lon="9.17911159308859"><ele>801.0</ele><time>2026-05-03T12:34:14.002Z</time></trkpt><trkpt lat="41.96011819737177" lon="9.17925858894093"><ele>801.5</ele><time>2026-05-03T12:34:15.002Z</time></trkpt><trkpt lat="41.96017218477838" lon="9.179405431958408"><ele>802.0</ele><time>2026-05-03T12:34:16.002Z</time></trkpt><trkpt lat="41.96025685112422" lon="9.179545693735182"><ele>802.0</ele><time>2026-05-03T12:34:17.002Z</time></trkpt><trkpt lat="41.960366266665524" lon="9.179668225027717"><ele>802.0</ele><time>2026-05-03T12:34:18.002Z</time></trkpt><trkpt lat="41.960504030520546" lon="9.179748948836306"><ele>802.0</ele><time>2026-05-03T12:34:19.002Z</time></trkpt><trkpt lat="41.96065129032753" lon="9.179812004264841"><ele>802.0</ele><time>2026-05-03T12:34:20.002Z</time></trkpt><trkpt lat="41.960790412126386" lon="9.179870793309114"><ele>800.25</ele><time>2026-05-03T12:34:21.002Z</time></trkpt><trkpt lat="41.96091827786085" lon="9.179936123770387"><ele>798.5</ele><time>2026-05-03T12:34:22.002Z</time></trkpt><trkpt lat="41.96104163515372" lon="9.180004093480743"><ele>796.75</ele><time>2026-05-03T12:34:23.002Z</time></trkpt><trkpt lat="41.96115793936396" lon="9.180090335651673"><ele>795.0</ele><time>2026-05-03T12:34:24Z</time></trkpt><trkpt lat="41.96121960698833" lon="9.18022996270767"><ele>795.0</ele><time>2026-05-03T12:34:25Z</time></trkpt><trkpt lat="41.96124430319253" lon="9.180370551067849"><ele>795.0</ele><time>2026-05-03T12:34:26Z</time></trkpt><trkpt lat="41.96127825346277" lon="9.180534003924409"><ele>795.0</ele><time>2026-05-03T12:34:27Z</time></trkpt><trkpt lat="41.96133517319061" lon="9.180682857069938"><ele>795.0</ele><time>2026-05-03T12:34:28Z</time></trkpt><trkpt lat="41.96139995551016" lon="9.180806706925127"><ele>798.0</ele><time>2026-05-03T12:34:29Z</time></trkpt><trkpt lat="41.961487006348726" lon="9.180918692162809"><ele>801.0</ele><time>2026-05-03T12:34:30Z</time></trkpt><trkpt lat="41.96157160178049" lon="9.181043508331374"><ele>804.0</ele><time>2026-05-03T12:34:31Z</time></trkpt><trkpt lat="41.96161295531309" lon="9.181215149213672"><ele>807.0</ele><time>2026-05-03T12:34:32Z</time></trkpt><trkpt lat="41.96167387336371" lon="9.18139063361773"><ele>802.0</ele><time>2026-05-03T12:34:33Z</time></trkpt><trkpt lat="41.961723809215584" lon="9.181574599514411"><ele>797.0</ele><time>2026-05-03T12:34:34Z</time></trkpt><trkpt lat="41.961751524240725" lon="9.181780368781173"><ele>792.0</ele><time>2026-05-03T12:34:35Z</time></trkpt><trkpt lat="41.96174048696434" lon="9.181947730004577"><ele>787.0</ele><time>2026-05-03T12:34:36Z</time></trkpt><trkpt lat="41.961707228529974" lon="9.182104244279909"><ele>794.0</ele><time>2026-05-03T12:34:37Z</time></trkpt><trkpt lat="41.9616241622434" lon="9.182218407827158"><ele>801.0</ele><time>2026-05-03T12:34:38Z</time></trkpt><trkpt lat="41.96158004255575" lon="9.18233664749912"><ele>808.0</ele><time>2026-05-03T12:34:39Z</time></trkpt><trkpt lat="41.96156895511713" lon="9.182461538496103"><ele>815.0</ele><time>2026-05-03T12:34:40Z</time></trkpt><trkpt lat="41.9615902731474" lon="9.182582212161382"><ele>822.0</ele><time>2026-05-03T12:34:41Z</time></trkpt><trkpt lat="41.96166714723731" lon="9.182701715206425"><ele>816.5</ele><time>2026-05-03T12:34:42Z</time></trkpt><trkpt lat="41.96177134198779" lon="9.182779827089597"><ele>811.0</ele><time>2026-05-03T12:34:43Z</time></trkpt><trkpt lat="41.9618833411609" lon="9.182842841315809"><ele>805.5</ele><time>2026-05-03T12:34:44Z</time></trkpt><trkpt lat="41.96199081712825" lon="9.18292774939305"><ele>800.0</ele><time>2026-05-03T12:34:45Z</time></trkpt><trkpt lat="41.96207549099636" lon="9.183082013183824"><ele>805.6666666666667</ele><time>2026-05-03T12:34:46Z</time></trkpt><trkpt lat="41.96218930738444" lon="9.183216424290613"><ele>811.3333333333333</ele><time>2026-05-03T12:34:47Z</time></trkpt><trkpt lat="41.96230395328759" lon="9.183368892827547"><ele>817.0</ele><time>2026-05-03T12:34:48Z</time></trkpt><trkpt lat="41.96242231080763" lon="9.183513634143981"><ele>817.0</ele><time>2026-05-03T12:34:49Z</time></trkpt><trkpt lat="41.96250007720318" lon="9.183679575419294"><ele>817.0</ele><time>2026-05-03T12:34:50Z</time></trkpt><trkpt lat="41.96255989518253" lon="9.183848680718402"><ele>817.0</ele><time>2026-05-03T12:34:51Z</time></trkpt><trkpt lat="41.962617441366696" lon="9.18401272948237"><ele>817.0</ele><time>2026-05-03T12:34:52Z</time></trkpt><trkpt lat="41.96266717873554" lon="9.1841653682386"><ele>813.0</ele><time>2026-05-03T12:34:53Z</time></trkpt><trkpt lat="41.96269937997745" lon="9.184325977858666"><ele>809.0</ele><time>2026-05-03T12:34:54Z</time></trkpt><trkpt lat="41.962696946370144" lon="9.184475367153595"><ele>805.0</ele><time>2026-05-03T12:34:55Z</time></trkpt><trkpt lat="41.96265580414808" lon="9.18459924229507"><ele>801.0</ele><time>2026-05-03T12:34:56.001Z</time></trkpt><trkpt lat="41.96260026253365" lon="9.184734679122721"><ele>804.75</ele><time>2026-05-03T12:34:57.001Z</time></trkpt><trkpt lat="41.96258618455029" lon="9.184904404805163"><ele>808.5</ele><time>2026-05-03T12:34:58.001Z</time></trkpt><trkpt lat="41.96259946353293" lon="9.185066549976595"><ele>812.25</ele><time>2026-05-03T12:34:59.001Z</time></trkpt><trkpt lat="41.96264501413745" lon="9.185205984660131"><ele>816.0</ele><time>2026-05-03T12:35:00.001Z</time></trkpt><trkpt lat="41.962707417957816" lon="9.185302915890285"><ele>816.0</ele><time>2026-05-03T12:35:01.001Z</time></trkpt><trkpt lat="41.962795390569994" lon="9.1853535439785"><ele>816.0</ele><time>2026-05-03T12:35:02.001Z</time></trkpt><trkpt lat="41.962893563714374" lon="9.185355425878193"><ele>816.0</ele><time>2026-05-03T12:35:03.001Z</time></trkpt><trkpt lat="41.962990313719466" lon="9.185314940091148"><ele>816.0</ele><time>2026-05-03T12:35:04.001Z</time></trkpt><trkpt lat="41.96308121675733" lon="9.185260735974552"><ele>816.0</ele><time>2026-05-03T12:35:05.001Z</time></trkpt><trkpt lat="41.96315746626919" lon="9.185249471550836"><ele>816.0</ele><time>2026-05-03T12:35:06.001Z</time></trkpt><trkpt lat="41.963237770711004" lon="9.185295258184155"><ele>816.0</ele><time>2026-05-03T12:35:07.001Z</time></trkpt><trkpt lat="41.96332169240251" lon="9.185390991765308"><ele>816.0</ele><time>2026-05-03T12:35:08.001Z</time></trkpt><trkpt lat="41.96337743107875" lon="9.185528830198995"><ele>816.0</ele><time>2026-05-03T12:35:09.001Z</time></trkpt><trkpt lat="41.96341112033709" lon="9.185643004796923"><ele>816.0</ele><time>2026-05-03T12:35:10.001Z</time></trkpt><trkpt lat="41.963403319489224" lon="9.185753480548208"><ele>815.5999999999999</ele><time>2026-05-03T12:35:11.001Z</time></trkpt><trkpt lat="41.963368881282086" lon="9.185861959916878"><ele>815.2</ele><time>2026-05-03T12:35:12.001Z</time></trkpt><trkpt lat="41.96335370126776" lon="9.185987528210568"><ele>814.8</ele><time>2026-05-03T12:35:13.001Z</time></trkpt><trkpt lat="41.963352146385404" lon="9.186102510430363"><ele>814.4000000000001</ele><time>2026-05-03T12:35:14.001Z</time></trkpt><trkpt lat="41.96338359136104" lon="9.18622490487517"><ele>814.0</ele><time>2026-05-03T12:35:15.001Z</time></trkpt><trkpt lat="41.96341394313672" lon="9.186349586228019"><ele>814.0</ele><time>2026-05-03T12:35:16.001Z</time></trkpt><trkpt lat="41.96345019009356" lon="9.186480698582079"><ele>814.0</ele><time>2026-05-03T12:35:17.001Z</time></trkpt><trkpt lat="41.96348504972412" lon="9.186614277276975"><ele>814.0</ele><time>2026-05-03T12:35:18.001Z</time></trkpt><trkpt lat="41.96352910901124" lon="9.186755142576873"><ele>814.0</ele><time>2026-05-03T12:35:19.001Z</time></trkpt><trkpt lat="41.96362674387989" lon="9.186855311570389"><ele>814.0</ele><time>2026-05-03T12:35:20.001Z</time></trkpt><trkpt lat="41.96372193184686" lon="9.186939408250712"><ele>817.0</ele><time>2026-05-03T12:35:21.001Z</time></trkpt><trkpt lat="41.96382155117815" lon="9.187013514266814"><ele>820.0</ele><time>2026-05-03T12:35:22.001Z</time></trkpt><trkpt lat="41.96389922425794" lon="9.187137956383891"><ele>823.0</ele><time>2026-05-03T12:35:23.001Z</time></trkpt><trkpt lat="41.9639689433266" lon="9.187274461100209"><ele>826.0</ele><time>2026-05-03T12:35:24.001Z</time></trkpt><trkpt lat="41.96402867576324" lon="9.18742110874647"><ele>828.8</ele><time>2026-05-03T12:35:25.001Z</time></trkpt><trkpt lat="41.964088139737235" lon="9.187546364707934"><ele>831.5999999999999</ele><time>2026-05-03T12:35:26.001Z</time></trkpt><trkpt lat="41.964160709021705" lon="9.187629834406192"><ele>834.4</ele><time>2026-05-03T12:35:27.001Z</time></trkpt><trkpt lat="41.96424572124465" lon="9.187676142914594"><ele>837.2</ele><time>2026-05-03T12:35:28.001Z</time></trkpt><trkpt lat="41.964332386961686" lon="9.187652644540584"><ele>840.0</ele><time>2026-05-03T12:35:29.001Z</time></trkpt><trkpt lat="41.96440181931162" lon="9.187563299582715"><ele>841.25</ele><time>2026-05-03T12:35:30.001Z</time></trkpt><trkpt lat="41.96445002136302" lon="9.187433615804697"><ele>842.5</ele><time>2026-05-03T12:35:31.001Z</time></trkpt><trkpt lat="41.964478915746625" lon="9.187265167795577"><ele>843.75</ele><time>2026-05-03T12:35:32.001Z</time></trkpt><trkpt lat="41.964538810378755" lon="9.187119640849877"><ele>845.0</ele><time>2026-05-03T12:35:33.001Z</time></trkpt><trkpt lat="41.96463212011616" lon="9.187043144332455"><ele>840.25</ele><time>2026-05-03T12:35:34.001Z</time></trkpt><trkpt lat="41.96473343740511" lon="9.187077545344195"><ele>835.5</ele><time>2026-05-03T12:35:35.001Z</time></trkpt><trkpt lat="41.964808496086704" lon="9.187158166308693"><ele>830.75</ele><time>2026-05-03T12:35:36.001Z</time></trkpt><trkpt lat="41.96493546345547" lon="9.187237958347902"><ele>826.0</ele><time>2026-05-03T12:35:37.001Z</time></trkpt><trkpt lat="41.96506044656298" lon="9.187299582898381"><ele>824.5</ele><time>2026-05-03T12:35:38.001Z</time></trkpt><trkpt lat="41.965204461929225" lon="9.187321536534087"><ele>823.0</ele><time>2026-05-03T12:35:39.001Z</time></trkpt><trkpt lat="41.965350424652954" lon="9.18731502912488"><ele>821.5</ele><time>2026-05-03T12:35:40.001Z</time></trkpt><trkpt lat="41.96550139877805" lon="9.187316828362633"><ele>820.0</ele><time>2026-05-03T12:35:41.001Z</time></trkpt><trkpt lat="41.965647484475554" lon="9.187372362453587"><ele>821.75</ele><time>2026-05-03T12:35:42.001Z</time></trkpt><trkpt lat="41.96578910641377" lon="9.187455169546524"><ele>823.5</ele><time>2026-05-03T12:35:43.002Z</time></trkpt><trkpt lat="41.9659122046153" lon="9.187552481094938"><ele>825.25</ele><time>2026-05-03T12:35:44.002Z</time></trkpt><trkpt lat="41.96601341072942" lon="9.187676577730608"><ele>827.0</ele><time>2026-05-03T12:35:45.002Z</time></trkpt><trkpt lat="41.96613502814308" lon="9.187780973107321"><ele>827.0</ele><time>2026-05-03T12:35:46.002Z</time></trkpt><trkpt lat="41.96625497015735" lon="9.187854466253807"><ele>827.0</ele><time>2026-05-03T12:35:47.002Z</time></trkpt><trkpt lat="41.9663710685717" lon="9.187880748740485"><ele>827.0</ele><time>2026-05-03T12:35:48.002Z</time></trkpt><trkpt lat="41.96646978321685" lon="9.187923381652517"><ele>827.0</ele><time>2026-05-03T12:35:49.002Z</time></trkpt><trkpt lat="41.96651606216618" lon="9.188034784416217"><ele>827.0</ele><time>2026-05-03T12:35:50.002Z</time></trkpt><trkpt lat="41.96644280702313" lon="9.188180270298531"><ele>830.0</ele><time>2026-05-03T12:35:51.002Z</time></trkpt><trkpt lat="41.96646529946472" lon="9.18831788792733"><ele>833.0</ele><time>2026-05-03T12:35:52.002Z</time></trkpt><trkpt lat="41.96646979687456" lon="9.188479754794571"><ele>836.0</ele><time>2026-05-03T12:35:53.002Z</time></trkpt><trkpt lat="41.96651196975978" lon="9.188648910604378"><ele>839.0</ele><time>2026-05-03T12:35:54.002Z</time></trkpt><trkpt lat="41.96655487636504" lon="9.188813054587989"><ele>839.0</ele><time>2026-05-03T12:35:55.002Z</time></trkpt><trkpt lat="41.96660369872851" lon="9.188978502355964"><ele>839.0</ele><time>2026-05-03T12:35:56.002Z</time></trkpt><trkpt lat="41.96664760371282" lon="9.189152659511842"><ele>839.0</ele><time>2026-05-03T12:35:57.002Z</time></trkpt><trkpt lat="41.96667806797972" lon="9.189330215433975"><ele>839.0</ele><time>2026-05-03T12:35:58.002Z</time></trkpt><trkpt lat="41.966697818985736" lon="9.189510121460536"><ele>839.0</ele><time>2026-05-03T12:35:59.002Z</time></trkpt><trkpt lat="41.96668937470563" lon="9.189695348495254"><ele>839.0</ele><time>2026-05-03T12:36:00.002Z</time></trkpt><trkpt lat="41.96667193258987" lon="9.189880170225736"><ele>839.0</ele><time>2026-05-03T12:36:01.002Z</time></trkpt><trkpt lat="41.966675398661096" lon="9.190057966484401"><ele>839.0</ele><time>2026-05-03T12:36:02.002Z</time></trkpt><trkpt lat="41.966740294597585" lon="9.190244844996599"><ele>839.0</ele><time>2026-05-03T12:36:03.002Z</time></trkpt><trkpt lat="41.966792405223906" lon="9.190446125377854"><ele>839.0</ele><time>2026-05-03T12:36:04.002Z</time></trkpt><trkpt lat="41.96681271553792" lon="9.190638788310801"><ele>839.0</ele><time>2026-05-03T12:36:05.002Z</time></trkpt><trkpt lat="41.966808546295866" lon="9.1907988887004"><ele>839.0</ele><time>2026-05-03T12:36:06.002Z</time></trkpt><trkpt lat="41.96680038758871" lon="9.190932765460445"><ele>841.0</ele><time>2026-05-03T12:36:07.002Z</time></trkpt><trkpt lat="41.96681692073422" lon="9.191045544031104"><ele>843.0</ele><time>2026-05-03T12:36:08.002Z</time></trkpt><trkpt lat="41.96685274256903" lon="9.19114334268731"><ele>845.0</ele><time>2026-05-03T12:36:09.002Z</time></trkpt><trkpt lat="41.96691938973322" lon="9.191231461475427"><ele>847.0</ele><time>2026-05-03T12:36:10.002Z</time></trkpt><trkpt lat="41.96700725965472" lon="9.191322549901905"><ele>849.0</ele><time>2026-05-03T12:36:11.002Z</time></trkpt><trkpt lat="41.96709718852699" lon="9.191402472384866"><ele>849.0</ele><time>2026-05-03T12:36:12.002Z</time></trkpt><trkpt lat="41.967180693081204" lon="9.191426703768668"><ele>849.0</ele><time>2026-05-03T12:36:13.002Z</time></trkpt><trkpt lat="41.96726839463178" lon="9.191376548354112"><ele>849.0</ele><time>2026-05-03T12:36:14.002Z</time></trkpt><trkpt lat="41.96736498801337" lon="9.191272978667962"><ele>849.0</ele><time>2026-05-03T12:36:15.002Z</time></trkpt><trkpt lat="41.9674517961232" lon="9.191165348536048"><ele>849.0</ele><time>2026-05-03T12:36:16.002Z</time></trkpt><trkpt lat="41.96752597005789" lon="9.191044913824967"><ele>851.75</ele><time>2026-05-03T12:36:17.002Z</time></trkpt><trkpt lat="41.967592396790565" lon="9.190905994704808"><ele>854.5</ele><time>2026-05-03T12:36:18.002Z</time></trkpt><trkpt lat="41.967664925809366" lon="9.190776673158735"><ele>857.25</ele><time>2026-05-03T12:36:19.002Z</time></trkpt><trkpt lat="41.967764491172936" lon="9.190697931954764"><ele>860.0</ele><time>2026-05-03T12:36:20.002Z</time></trkpt><trkpt lat="41.96787290316416" lon="9.190693611811877"><ele>860.0</ele><time>2026-05-03T12:36:21.002Z</time></trkpt><trkpt lat="41.9679748588286" lon="9.190792172981574"><ele>860.0</ele><time>2026-05-03T12:36:22.002Z</time></trkpt><trkpt lat="41.968099854765725" lon="9.190869633445702"><ele>860.0</ele><time>2026-05-03T12:36:23.002Z</time></trkpt><trkpt lat="41.96821990059527" lon="9.19092870880257"><ele>860.0</ele><time>2026-05-03T12:36:24.002Z</time></trkpt><trkpt lat="41.96834994250927" lon="9.190993755453311"><ele>860.75</ele><time>2026-05-03T12:36:25.002Z</time></trkpt><trkpt lat="41.96848864513603" lon="9.191009034793225"><ele>861.5</ele><time>2026-05-03T12:36:26.002Z</time></trkpt><trkpt lat="41.968631804864735" lon="9.190980661875798"><ele>862.25</ele><time>2026-05-03T12:36:27.002Z</time></trkpt><trkpt lat="41.96877895992113" lon="9.190925754810708"><ele>863.0</ele><time>2026-05-03T12:36:28.002Z</time></trkpt><trkpt lat="41.96893781306898" lon="9.190874450846025"><ele>863.0</ele><time>2026-05-03T12:36:29.003Z</time></trkpt><trkpt lat="41.9690875803999" lon="9.190844405248372"><ele>863.0</ele><time>2026-05-03T12:36:30.001Z</time></trkpt><trkpt lat="41.969231162453816" lon="9.190873801935888"><ele>863.0</ele><time>2026-05-03T12:36:31.001Z</time></trkpt><trkpt lat="41.969355497468975" lon="9.190882909041676"><ele>863.0</ele><time>2026-05-03T12:36:32.001Z</time></trkpt><trkpt lat="41.969468153042634" lon="9.190942619361563"><ele>864.8</ele><time>2026-05-03T12:36:33.001Z</time></trkpt><trkpt lat="41.969580788175044" lon="9.190988843834383"><ele>866.5999999999999</ele><time>2026-05-03T12:36:34.001Z</time></trkpt><trkpt lat="41.969688281167485" lon="9.19099110519165"><ele>868.4000000000001</ele><time>2026-05-03T12:36:35.001Z</time></trkpt><trkpt lat="41.96978351805538" lon="9.19096114664542"><ele>870.2</ele><time>2026-05-03T12:36:36.001Z</time></trkpt><trkpt lat="41.96987303682935" lon="9.190925921753953"><ele>872.0</ele><time>2026-05-03T12:36:37.001Z</time></trkpt><trkpt lat="41.969955386682905" lon="9.190869871005734"><ele>872.0</ele><time>2026-05-03T12:36:38.001Z</time></trkpt><trkpt lat="41.970008580117565" lon="9.190762498655262"><ele>872.0</ele><time>2026-05-03T12:36:39.001Z</time></trkpt><trkpt lat="41.970024833713296" lon="9.190605839748601"><ele>872.0</ele><time>2026-05-03T12:36:40.001Z</time></trkpt><trkpt lat="41.96999444338022" lon="9.190436395070089"><ele>872.0</ele><time>2026-05-03T12:36:41.001Z</time></trkpt><trkpt lat="41.96994498226553" lon="9.190260777514872"><ele>873.0</ele><time>2026-05-03T12:36:42.001Z</time></trkpt><trkpt lat="41.969895116362345" lon="9.190089369033712"><ele>874.0</ele><time>2026-05-03T12:36:43.001Z</time></trkpt><trkpt lat="41.969837081518" lon="9.189909497233753"><ele>875.0</ele><time>2026-05-03T12:36:44.001Z</time></trkpt><trkpt lat="41.96977795779835" lon="9.189727774060884"><ele>876.0</ele><time>2026-05-03T12:36:45.001Z</time></trkpt><trkpt lat="41.969689789237684" lon="9.189572534561952"><ele>881.75</ele><time>2026-05-03T12:36:46.001Z</time></trkpt><trkpt lat="41.96959316500712" lon="9.1894437740035"><ele>887.5</ele><time>2026-05-03T12:36:47.001Z</time></trkpt><trkpt lat="41.96949220377749" lon="9.189361879086723"><ele>893.25</ele><time>2026-05-03T12:36:48.001Z</time></trkpt><trkpt lat="41.96939879278746" lon="9.189294809497799"><ele>899.0</ele><time>2026-05-03T12:36:49.001Z</time></trkpt><trkpt lat="41.96929067845948" lon="9.189314794510143"><ele>899.0000000000001</ele><time>2026-05-03T12:36:50.001Z</time></trkpt><trkpt lat="41.96920227538096" lon="9.18933244213447"><ele>899.0</ele><time>2026-05-03T12:36:51.001Z</time></trkpt><trkpt lat="41.96912554157771" lon="9.189337685101659"><ele>899.0</ele><time>2026-05-03T12:36:52.001Z</time></trkpt><trkpt lat="41.96904443914816" lon="9.189324559855404"><ele>899.0</ele><time>2026-05-03T12:36:53.001Z</time></trkpt><trkpt lat="41.96897298254421" lon="9.189246500400733"><ele>899.0000000000001</ele><time>2026-05-03T12:36:54.001Z</time></trkpt><trkpt lat="41.96894770466754" lon="9.18914862718561"><ele>899.0</ele><time>2026-05-03T12:36:55.001Z</time></trkpt><trkpt lat="41.96896936206628" lon="9.189030220604447"><ele>901.75</ele><time>2026-05-03T12:36:56.001Z</time></trkpt><trkpt lat="41.96903721022302" lon="9.18890930468996"><ele>904.5</ele><time>2026-05-03T12:36:57.001Z</time></trkpt><trkpt lat="41.96913184643541" lon="9.188798581408781"><ele>907.25</ele><time>2026-05-03T12:36:58.001Z</time></trkpt><trkpt lat="41.969201055388574" lon="9.18866844037831"><ele>910.0</ele><time>2026-05-03T12:36:59.001Z</time></trkpt><trkpt lat="41.96921673282855" lon="9.188494025678782"><ele>910.0</ele><time>2026-05-03T12:37:00.001Z</time></trkpt><trkpt lat="41.969194653028616" lon="9.188301866549272"><ele>910.0</ele><time>2026-05-03T12:37:01.001Z</time></trkpt><trkpt lat="41.96916968309891" lon="9.188128311136278"><ele>910.0</ele><time>2026-05-03T12:37:02.001Z</time></trkpt><trkpt lat="41.969159161653444" lon="9.18797885535643"><ele>910.0</ele><time>2026-05-03T12:37:03.001Z</time></trkpt><trkpt lat="41.96918477530255" lon="9.187845418770976"><ele>909.6</ele><time>2026-05-03T12:37:04.001Z</time></trkpt><trkpt lat="41.96924267722842" lon="9.187739248670443"><ele>909.2</ele><time>2026-05-03T12:37:05.001Z</time></trkpt><trkpt lat="41.96931321711179" lon="9.187656210791726"><ele>908.8</ele><time>2026-05-03T12:37:06.001Z</time></trkpt><trkpt lat="41.96937381259722" lon="9.187553297799735"><ele>908.4</ele><time>2026-05-03T12:37:07.001Z</time></trkpt><trkpt lat="41.969391316840294" lon="9.18739755460944"><ele>908.0</ele><time>2026-05-03T12:37:08.001Z</time></trkpt><trkpt lat="41.96937733160224" lon="9.187264653249493"><ele>907.5</ele><time>2026-05-03T12:37:09.001Z</time></trkpt><trkpt lat="41.969327377578956" lon="9.187128361161692"><ele>907.0</ele><time>2026-05-03T12:37:10.001Z</time></trkpt><trkpt lat="41.969234845910506" lon="9.187025126901323"><ele>906.5</ele><time>2026-05-03T12:37:11.001Z</time></trkpt><trkpt lat="41.96917370221681" lon="9.186887496701496"><ele>906.0</ele><time>2026-05-03T12:37:12.001Z</time></trkpt><trkpt lat="41.9691354583898" lon="9.186736168548567"><ele>901.5</ele><time>2026-05-03T12:37:13.001Z</time></trkpt><trkpt lat="41.969086724019014" lon="9.186589770045885"><ele>897.0</ele><time>2026-05-03T12:37:14.001Z</time></trkpt><trkpt lat="41.969025040943684" lon="9.186449937594285"><ele>892.5</ele><time>2026-05-03T12:37:15.001Z</time></trkpt><trkpt lat="41.96894966343997" lon="9.186302507316062"><ele>888.0</ele><time>2026-05-03T12:37:16.001Z</time></trkpt><trkpt lat="41.96887139937315" lon="9.186144043633565"><ele>888.0</ele><time>2026-05-03T12:37:17.001Z</time></trkpt><trkpt lat="41.968795775751765" lon="9.18599394248228"><ele>888.0</ele><time>2026-05-03T12:37:18.001Z</time></trkpt><trkpt lat="41.9687008069516" lon="9.185883698096735"><ele>888.0</ele><time>2026-05-03T12:37:19.001Z</time></trkpt><trkpt lat="41.96857282825633" lon="9.185815855591253"><ele>888.0</ele><time>2026-05-03T12:37:20.001Z</time></trkpt><trkpt lat="41.968459481533166" lon="9.185706604614218"><ele>887.75</ele><time>2026-05-03T12:37:21.001Z</time></trkpt><trkpt lat="41.968367890503686" lon="9.18558149954145"><ele>887.5</ele><time>2026-05-03T12:37:22.001Z</time></trkpt><trkpt lat="41.96829490496487" lon="9.185432678353159"><ele>887.25</ele><time>2026-05-03T12:37:23.001Z</time></trkpt><trkpt lat="41.96823924838595" lon="9.185275112821953"><ele>887.0</ele><time>2026-05-03T12:37:24.001Z</time></trkpt><trkpt lat="41.96820085208412" lon="9.18512484209551"><ele>884.75</ele><time>2026-05-03T12:37:25.001Z</time></trkpt><trkpt lat="41.96824659863863" lon="9.184985559336262"><ele>882.5</ele><time>2026-05-03T12:37:26.001Z</time></trkpt><trkpt lat="41.96830436879406" lon="9.184860808291951"><ele>880.25</ele><time>2026-05-03T12:37:27.001Z</time></trkpt><trkpt lat="41.968389619819405" lon="9.184751576370232"><ele>878.0</ele><time>2026-05-03T12:37:28.001Z</time></trkpt><trkpt lat="41.96845655800646" lon="9.18462590779045"><ele>878.0</ele><time>2026-05-03T12:37:29.001Z</time></trkpt><trkpt lat="41.96850976610321" lon="9.184479977338189"><ele>878.0</ele><time>2026-05-03T12:37:30.001Z</time></trkpt><trkpt lat="41.9685617559059" lon="9.184338244710249"><ele>878.0</ele><time>2026-05-03T12:37:31.001Z</time></trkpt><trkpt lat="41.968625159561455" lon="9.184233940189193"><ele>878.0</ele><time>2026-05-03T12:37:32.001Z</time></trkpt><trkpt lat="41.96872003922523" lon="9.184187918409721"><ele>878.0</ele><time>2026-05-03T12:37:33.001Z</time></trkpt><trkpt lat="41.96884120573895" lon="9.184185492186044"><ele>878.0</ele><time>2026-05-03T12:37:34.001Z</time></trkpt><trkpt lat="41.9689719890112" lon="9.184224169064581"><ele>878.0</ele><time>2026-05-03T12:37:35.001Z</time></trkpt><trkpt lat="41.969100776878605" lon="9.18428777740692"><ele>878.0</ele><time>2026-05-03T12:37:36.001Z</time></trkpt><trkpt lat="41.969223650187935" lon="9.184363078011101"><ele>878.0</ele><time>2026-05-03T12:37:37.001Z</time></trkpt><trkpt lat="41.96933346045645" lon="9.184454668829188"><ele>877.5</ele><time>2026-05-03T12:37:38.001Z</time></trkpt><trkpt lat="41.969387935568" lon="9.184590000223706"><ele>877.0</ele><time>2026-05-03T12:37:39.001Z</time></trkpt><trkpt lat="41.96943921145538" lon="9.18473004836334"><ele>876.5</ele><time>2026-05-03T12:37:40.001Z</time></trkpt><trkpt lat="41.96945675157796" lon="9.184888046254644"><ele>876.0</ele><time>2026-05-03T12:37:41.001Z</time></trkpt><trkpt lat="41.9694950875" lon="9.185019157951439"><ele>877.8</ele><time>2026-05-03T12:37:42.001Z</time></trkpt><trkpt lat="41.969530590951116" lon="9.185124524923223"><ele>879.5999999999999</ele><time>2026-05-03T12:37:43.001Z</time></trkpt><trkpt lat="41.96962207567939" lon="9.185194507784619"><ele>881.4</ele><time>2026-05-03T12:37:44.001Z</time></trkpt><trkpt lat="41.969745276360385" lon="9.185237937000133"><ele>883.2</ele><time>2026-05-03T12:37:45.002Z</time></trkpt><trkpt lat="41.96987050980166" lon="9.18527757777958"><ele>885.0</ele><time>2026-05-03T12:37:46.002Z</time></trkpt><trkpt lat="41.96999196442146" lon="9.185332349980168"><ele>885.5</ele><time>2026-05-03T12:37:47.002Z</time></trkpt><trkpt lat="41.970104491765724" lon="9.185418476054847"><ele>886.0</ele><time>2026-05-03T12:37:48.002Z</time></trkpt><trkpt lat="41.97021367241501" lon="9.18549081853674"><ele>886.5</ele><time>2026-05-03T12:37:49.002Z</time></trkpt><trkpt lat="41.97031904604581" lon="9.185510739523917"><ele>887.0</ele><time>2026-05-03T12:37:50.002Z</time></trkpt><trkpt lat="41.97043797909752" lon="9.185460111848057"><ele>887.0</ele><time>2026-05-03T12:37:51.002Z</time></trkpt><trkpt lat="41.970537075296726" lon="9.185375114775043"><ele>887.0</ele><time>2026-05-03T12:37:52.002Z</time></trkpt><trkpt lat="41.97061751029743" lon="9.18529393118474"><ele>887.0</ele><time>2026-05-03T12:37:53.002Z</time></trkpt><trkpt lat="41.97069313353957" lon="9.18521959557348"><ele>887.0</ele><time>2026-05-03T12:37:54.002Z</time></trkpt><trkpt lat="41.97078010132703" lon="9.185154327489522"><ele>887.0</ele><time>2026-05-03T12:37:55.002Z</time></trkpt><trkpt lat="41.97087001223914" lon="9.18510169163004"><ele>891.75</ele><time>2026-05-03T12:37:56.002Z</time></trkpt><trkpt lat="41.970967001046986" lon="9.185058494855937"><ele>896.5</ele><time>2026-05-03T12:37:57.002Z</time></trkpt><trkpt lat="41.97107787912613" lon="9.185021158648457"><ele>901.25</ele><time>2026-05-03T12:37:58.002Z</time></trkpt><trkpt lat="41.971189745978" lon="9.184977105213587"><ele>906.0</ele><time>2026-05-03T12:37:59.002Z</time></trkpt><trkpt lat="41.97131092697566" lon="9.184938259292336"><ele>906.0</ele><time>2026-05-03T12:38:00.002Z</time></trkpt><trkpt lat="41.9714281380514" lon="9.18489148181301"><ele>906.0</ele><time>2026-05-03T12:38:01.002Z</time></trkpt><trkpt lat="41.97154510875488" lon="9.18483164985103"><ele>906.0</ele><time>2026-05-03T12:38:02.002Z</time></trkpt><trkpt lat="41.97164959494093" lon="9.184740096970977"><ele>906.0</ele><time>2026-05-03T12:38:03.002Z</time></trkpt><trkpt lat="41.971757502381045" lon="9.184633315744758"><ele>904.0</ele><time>2026-05-03T12:38:04.002Z</time></trkpt><trkpt lat="41.97187659757979" lon="9.184553429741465"><ele>902.0</ele><time>2026-05-03T12:38:05.002Z</time></trkpt><trkpt lat="41.972018507311056" lon="9.184509536709221"><ele>900.0</ele><time>2026-05-03T12:38:06.002Z</time></trkpt><trkpt lat="41.97216421897367" lon="9.184484056828197"><ele>898.0</ele><time>2026-05-03T12:38:07.002Z</time></trkpt><trkpt lat="41.97231233098197" lon="9.184469070136727"><ele>898.0</ele><time>2026-05-03T12:38:08.002Z</time></trkpt><trkpt lat="41.97245856494561" lon="9.184463725054867"><ele>898.0</ele><time>2026-05-03T12:38:09.002Z</time></trkpt><trkpt lat="41.97259560273141" lon="9.184473367891012"><ele>898.0</ele><time>2026-05-03T12:38:10.002Z</time></trkpt><trkpt lat="41.97272211661032" lon="9.184492168487205"><ele>898.0</ele><time>2026-05-03T12:38:11.002Z</time></trkpt><trkpt lat="41.97283991624397" lon="9.184546290256966"><ele>898.2</ele><time>2026-05-03T12:38:12.002Z</time></trkpt><trkpt lat="41.97294779751401" lon="9.18463861046751"><ele>898.4</ele><time>2026-05-03T12:38:13.002Z</time></trkpt><trkpt lat="41.973015780994906" lon="9.184786009655761"><ele>898.6000000000001</ele><time>2026-05-03T12:38:14.002Z</time></trkpt><trkpt lat="41.97308923584835" lon="9.18486521439672"><ele>898.8000000000001</ele><time>2026-05-03T12:38:15.002Z</time></trkpt><trkpt lat="41.97317941659487" lon="9.184904974505535"><ele>899.0</ele><time>2026-05-03T12:38:16.002Z</time></trkpt><trkpt lat="41.97328391323455" lon="9.184884579214751"><ele>900.0</ele><time>2026-05-03T12:38:17.002Z</time></trkpt><trkpt lat="41.97338757443022" lon="9.18482123930954"><ele>901.0</ele><time>2026-05-03T12:38:18.002Z</time></trkpt><trkpt lat="41.973489073022236" lon="9.184762744721679"><ele>902.0</ele><time>2026-05-03T12:38:19.002Z</time></trkpt><trkpt lat="41.97360319695777" lon="9.184733900013903"><ele>903.0</ele><time>2026-05-03T12:38:20.002Z</time></trkpt><trkpt lat="41.973733763697815" lon="9.184757776354596"><ele>903.0</ele><time>2026-05-03T12:38:21.002Z</time></trkpt><trkpt lat="41.97385356416185" lon="9.184839111931357"><ele>903.0</ele><time>2026-05-03T12:38:22.002Z</time></trkpt><trkpt lat="41.97398214029795" lon="9.184876636495202"><ele>903.0</ele><time>2026-05-03T12:38:23.002Z</time></trkpt><trkpt lat="41.97411210372556" lon="9.184890340456237"><ele>903.0</ele><time>2026-05-03T12:38:24.002Z</time></trkpt><trkpt lat="41.97425620726357" lon="9.184893337715003"><ele>909.4</ele><time>2026-05-03T12:38:25.002Z</time></trkpt><trkpt lat="41.97437173504724" lon="9.184879920280887"><ele>915.8</ele><time>2026-05-03T12:38:26.002Z</time></trkpt><trkpt lat="41.97447015165367" lon="9.184859113910369"><ele>922.2</ele><time>2026-05-03T12:38:27.002Z</time></trkpt><trkpt lat="41.974556787102536" lon="9.18482297412187"><ele>928.6</ele><time>2026-05-03T12:38:28.002Z</time></trkpt><trkpt lat="41.97461988334816" lon="9.184758533568397"><ele>935.0</ele><time>2026-05-03T12:38:29.002Z</time></trkpt><trkpt lat="41.974641481429366" lon="9.184653535727364"><ele>935.0</ele><time>2026-05-03T12:38:30.002Z</time></trkpt><trkpt lat="41.974627023656865" lon="9.184541055917874"><ele>935.0</ele><time>2026-05-03T12:38:31.002Z</time></trkpt><trkpt lat="41.97457104662733" lon="9.184413971997708"><ele>935.0</ele><time>2026-05-03T12:38:32.002Z</time></trkpt><trkpt lat="41.97455357883239" lon="9.184266192127485"><ele>935.0</ele><time>2026-05-03T12:38:33.002Z</time></trkpt><trkpt lat="41.97454355381481" lon="9.184116072906809"><ele>935.0</ele><time>2026-05-03T12:38:34.002Z</time></trkpt><trkpt lat="41.97457994178248" lon="9.18395729232252"><ele>934.0</ele><time>2026-05-03T12:38:35.002Z</time></trkpt><trkpt lat="41.97459576421137" lon="9.183796896752025"><ele>933.0</ele><time>2026-05-03T12:38:36.001Z</time></trkpt><trkpt lat="41.974577199282365" lon="9.183631987030552"><ele>932.0</ele><time>2026-05-03T12:38:37.001Z</time></trkpt><trkpt lat="41.97456490329989" lon="9.183464165060773"><ele>931.0</ele><time>2026-05-03T12:38:38.001Z</time></trkpt><trkpt lat="41.974584508159616" lon="9.183292093954362"><ele>928.5</ele><time>2026-05-03T12:38:39.001Z</time></trkpt><trkpt lat="41.974632230139015" lon="9.183123719747789"><ele>926.0</ele><time>2026-05-03T12:38:40.001Z</time></trkpt><trkpt lat="41.97469948219056" lon="9.182962804700368"><ele>923.5</ele><time>2026-05-03T12:38:41.001Z</time></trkpt><trkpt lat="41.97476317395046" lon="9.182796934300415"><ele>921.0</ele><time>2026-05-03T12:38:42.001Z</time></trkpt><trkpt lat="41.9748287655853" lon="9.18262918032952"><ele>921.0</ele><time>2026-05-03T12:38:43.001Z</time></trkpt><trkpt lat="41.97491012694751" lon="9.182477307889112"><ele>921.0</ele><time>2026-05-03T12:38:44.001Z</time></trkpt><trkpt lat="41.97501005198087" lon="9.182362438067383"><ele>921.0</ele><time>2026-05-03T12:38:45.001Z</time></trkpt><trkpt lat="41.975128045141815" lon="9.182282673473102"><ele>921.0</ele><time>2026-05-03T12:38:46.001Z</time></trkpt><trkpt lat="41.97524591497798" lon="9.182223360029594"><ele>919.5999999999999</ele><time>2026-05-03T12:38:47.001Z</time></trkpt><trkpt lat="41.97535063678894" lon="9.182167870194105"><ele>918.1999999999999</ele><time>2026-05-03T12:38:48.001Z</time></trkpt><trkpt lat="41.975452456500086" lon="9.182135777097288"><ele>916.8000000000001</ele><time>2026-05-03T12:38:49.001Z</time></trkpt><trkpt lat="41.97556662739777" lon="9.18214190916918"><ele>915.4000000000001</ele><time>2026-05-03T12:38:50.001Z</time></trkpt><trkpt lat="41.97567251342426" lon="9.182174097784504"><ele>914.0</ele><time>2026-05-03T12:38:51.001Z</time></trkpt><trkpt lat="41.97578452598059" lon="9.18220452716807"><ele>914.0</ele><time>2026-05-03T12:38:52.001Z</time></trkpt><trkpt lat="41.97590066086404" lon="9.18223352733932"><ele>914.0</ele><time>2026-05-03T12:38:53.001Z</time></trkpt><trkpt lat="41.97601602257238" lon="9.18228610485381"><ele>914.0</ele><time>2026-05-03T12:38:54.001Z</time></trkpt><trkpt lat="41.97614075390792" lon="9.182358170675348"><ele>914.0</ele><time>2026-05-03T12:38:55.001Z</time></trkpt><trkpt lat="41.976284332436954" lon="9.182383106333257"><ele>914.0</ele><time>2026-05-03T12:38:56.001Z</time></trkpt><trkpt lat="41.976440863558146" lon="9.182367077869666"><ele>914.0</ele><time>2026-05-03T12:38:57.001Z</time></trkpt><trkpt lat="41.976600260351304" lon="9.182331993170337"><ele>914.0</ele><time>2026-05-03T12:38:58.001Z</time></trkpt><trkpt lat="41.976764748519486" lon="9.182319825160702"><ele>913.0</ele><time>2026-05-03T12:38:59.001Z</time></trkpt><trkpt lat="41.97693116887412" lon="9.182329226119675"><ele>912.0</ele><time>2026-05-03T12:39:00.001Z</time></trkpt><trkpt lat="41.97709756811852" lon="9.182373329062548"><ele>911.0</ele><time>2026-05-03T12:39:01.001Z</time></trkpt><trkpt lat="41.97723616675898" lon="9.182434816411252"><ele>917.75</ele><time>2026-05-03T12:39:02.001Z</time></trkpt><trkpt lat="41.9773175969679" lon="9.18254342580281"><ele>924.5</ele><time>2026-05-03T12:39:03.001Z</time></trkpt><trkpt lat="41.97737553415447" lon="9.18267141133479"><ele>931.25</ele><time>2026-05-03T12:39:04.001Z</time></trkpt><trkpt lat="41.97745528171198" lon="9.182785683457949"><ele>938.0</ele><time>2026-05-03T12:39:05.001Z</time></trkpt><trkpt lat="41.97755687823727" lon="9.182860510594256"><ele>940.75</ele><time>2026-05-03T12:39:06.001Z</time></trkpt><trkpt lat="41.97767914490782" lon="9.182872800002945"><ele>943.5</ele><time>2026-05-03T12:39:07.001Z</time></trkpt><trkpt lat="41.977807866908734" lon="9.182847562824367"><ele>946.25</ele><time>2026-05-03T12:39:08.001Z</time></trkpt><trkpt lat="41.977930132937644" lon="9.182793488444037"><ele>949.0</ele><time>2026-05-03T12:39:09.001Z</time></trkpt><trkpt lat="41.97804435639556" lon="9.182718155923451"><ele>949.0</ele><time>2026-05-03T12:39:10.001Z</time></trkpt><trkpt lat="41.9781496000976" lon="9.18262077093847"><ele>949.0</ele><time>2026-05-03T12:39:11.001Z</time></trkpt><trkpt lat="41.97824547560086" lon="9.182507439156018"><ele>949.0</ele><time>2026-05-03T12:39:12.001Z</time></trkpt><trkpt lat="41.97834150557804" lon="9.182395691577977"><ele>949.0</ele><time>2026-05-03T12:39:13.001Z</time></trkpt><trkpt lat="41.97845936974631" lon="9.182312539601886"><ele>946.0</ele><time>2026-05-03T12:39:14.001Z</time></trkpt><trkpt lat="41.97859135096801" lon="9.182251035298526"><ele>943.0</ele><time>2026-05-03T12:39:15.001Z</time></trkpt><trkpt lat="41.97873202497075" lon="9.182190063703494"><ele>940.0</ele><time>2026-05-03T12:39:16.001Z</time></trkpt><trkpt lat="41.978865662661555" lon="9.182134115893824"><ele>937.0</ele><time>2026-05-03T12:39:17.001Z</time></trkpt><trkpt lat="41.97898071596924" lon="9.182078947998505"><ele>937.0</ele><time>2026-05-03T12:39:18.001Z</time></trkpt><trkpt lat="41.979097845843796" lon="9.182031313281968"><ele>937.0</ele><time>2026-05-03T12:39:19.001Z</time></trkpt><trkpt lat="41.979227433462746" lon="9.182030885758374"><ele>937.0</ele><time>2026-05-03T12:39:20.001Z</time></trkpt><trkpt lat="41.979331209180216" lon="9.182101418535257"><ele>937.0</ele><time>2026-05-03T12:39:21.001Z</time></trkpt><trkpt lat="41.97937254109363" lon="9.18220624834157"><ele>934.5</ele><time>2026-05-03T12:39:22.001Z</time></trkpt><trkpt lat="41.9793447105804" lon="9.18234172912539"><ele>932.0</ele><time>2026-05-03T12:39:23.001Z</time></trkpt><trkpt lat="41.97931998357401" lon="9.182494875394186"><ele>929.5</ele><time>2026-05-03T12:39:24.001Z</time></trkpt><trkpt lat="41.97935476846857" lon="9.182657366618129"><ele>927.0</ele><time>2026-05-03T12:39:25.001Z</time></trkpt><trkpt lat="41.97942234573899" lon="9.182816701239702"><ele>927.0</ele><time>2026-05-03T12:39:26.001Z</time></trkpt><trkpt lat="41.979527981964885" lon="9.182961164090633"><ele>927.0</ele><time>2026-05-03T12:39:27.001Z</time></trkpt><trkpt lat="41.979620319134746" lon="9.18309568665107"><ele>927.0</ele><time>2026-05-03T12:39:28.001Z</time></trkpt><trkpt lat="41.979640754773214" lon="9.183271253116988"><ele>927.0</ele><time>2026-05-03T12:39:29.001Z</time></trkpt><trkpt lat="41.979689679184155" lon="9.183461562527404"><ele>930.75</ele><time>2026-05-03T12:39:30.001Z</time></trkpt><trkpt lat="41.97975700282594" lon="9.183628220290462"><ele>934.5</ele><time>2026-05-03T12:39:31.001Z</time></trkpt><trkpt lat="41.979828895202814" lon="9.183788655639459"><ele>938.25</ele><time>2026-05-03T12:39:32.001Z</time></trkpt><trkpt lat="41.97990875371709" lon="9.18393042959166"><ele>942.0</ele><time>2026-05-03T12:39:33.001Z</time></trkpt><trkpt lat="41.97998270358084" lon="9.18406716698014"><ele>941.0</ele><time>2026-05-03T12:39:34.001Z</time></trkpt><trkpt lat="41.97998882174048" lon="9.184223942963339"><ele>940.0</ele><time>2026-05-03T12:39:35.001Z</time></trkpt><trkpt lat="41.980019384431095" lon="9.184361719192424"><ele>939.0</ele><time>2026-05-03T12:39:36.001Z</time></trkpt><trkpt lat="41.98003990206751" lon="9.184488109077916"><ele>938.0</ele><time>2026-05-03T12:39:37.001Z</time></trkpt><trkpt lat="41.980114617820995" lon="9.184585625804202"><ele>937.0</ele><time>2026-05-03T12:39:38.001Z</time></trkpt><trkpt lat="41.98022091362421" lon="9.184648656787026"><ele>937.0</ele><time>2026-05-03T12:39:39.001Z</time></trkpt><trkpt lat="41.98033534084678" lon="9.184680897113193"><ele>937.0</ele><time>2026-05-03T12:39:40.001Z</time></trkpt><trkpt lat="41.98045592439546" lon="9.18471518243783"><ele>937.0</ele><time>2026-05-03T12:39:41.001Z</time></trkpt><trkpt lat="41.98057870707196" lon="9.184763076335722"><ele>937.0</ele><time>2026-05-03T12:39:42.001Z</time></trkpt><trkpt lat="41.98070986054609" lon="9.184836614571022"><ele>939.25</ele><time>2026-05-03T12:39:43.001Z</time></trkpt><trkpt lat="41.98081876007197" lon="9.184946625407845"><ele>941.5</ele><time>2026-05-03T12:39:44.001Z</time></trkpt><trkpt lat="41.98094743092919" lon="9.185059749403578"><ele>943.75</ele><time>2026-05-03T12:39:45.001Z</time></trkpt><trkpt lat="41.98105554651848" lon="9.185136666012962"><ele>946.0</ele><time>2026-05-03T12:39:46.001Z</time></trkpt><trkpt lat="41.9811257469712" lon="9.185230009065561"><ele>945.9999999999999</ele><time>2026-05-03T12:39:47.001Z</time></trkpt><trkpt lat="41.98116409051704" lon="9.185340041481137"><ele>946.0</ele><time>2026-05-03T12:39:48.001Z</time></trkpt><trkpt lat="41.981146289935594" lon="9.18546800746787"><ele>946.0</ele><time>2026-05-03T12:39:49.001Z</time></trkpt><trkpt lat="41.98106314109783" lon="9.18552627249336"><ele>946.0</ele><time>2026-05-03T12:39:50.001Z</time></trkpt><trkpt lat="41.98099967661019" lon="9.185559905738213"><ele>945.9999999999999</ele><time>2026-05-03T12:39:51.001Z</time></trkpt><trkpt lat="41.98091173031178" lon="9.185515735828176"><ele>946.0</ele><time>2026-05-03T12:39:52.001Z</time></trkpt><trkpt lat="41.98081150967988" lon="9.185514398003646"><ele>950.0</ele><time>2026-05-03T12:39:53.001Z</time></trkpt><trkpt lat="41.98069687330822" lon="9.18551604806574"><ele>954.0</ele><time>2026-05-03T12:39:54.001Z</time></trkpt><trkpt lat="41.980577486717245" lon="9.18554527540201"><ele>958.0</ele><time>2026-05-03T12:39:55.001Z</time></trkpt><trkpt lat="41.9804838846343" lon="9.18565589614423"><ele>962.0</ele><time>2026-05-03T12:39:56.001Z</time></trkpt><trkpt lat="41.980397612796345" lon="9.18579613742425"><ele>962.0</ele><time>2026-05-03T12:39:57.001Z</time></trkpt><trkpt lat="41.98033177239086" lon="9.185935267767364"><ele>962.0</ele><time>2026-05-03T12:39:58.002Z</time></trkpt><trkpt lat="41.98028790670061" lon="9.186093472755509"><ele>962.0</ele><time>2026-05-03T12:39:59.002Z</time></trkpt><trkpt lat="41.98021950139989" lon="9.186226075074254"><ele>962.0</ele><time>2026-05-03T12:40:00.002Z</time></trkpt><trkpt lat="41.9801576895047" lon="9.186372510784755"><ele>964.0</ele><time>2026-05-03T12:40:01.002Z</time></trkpt><trkpt lat="41.98010279387452" lon="9.186512650848492"><ele>966.0</ele><time>2026-05-03T12:40:02.002Z</time></trkpt><trkpt lat="41.98005244490953" lon="9.186660183725861"><ele>968.0</ele><time>2026-05-03T12:40:03.002Z</time></trkpt><trkpt lat="41.98000622699474" lon="9.186815309915373"><ele>970.0</ele><time>2026-05-03T12:40:04.002Z</time></trkpt><trkpt lat="41.979923339838756" lon="9.186940614665884"><ele>972.6</ele><time>2026-05-03T12:40:05.002Z</time></trkpt><trkpt lat="41.97984892746242" lon="9.187049464714574"><ele>975.2</ele><time>2026-05-03T12:40:06.002Z</time></trkpt><trkpt lat="41.97981143137229" lon="9.18715084418313"><ele>977.8</ele><time>2026-05-03T12:40:07.002Z</time></trkpt><trkpt lat="41.979799200862516" lon="9.187258255496907"><ele>980.4</ele><time>2026-05-03T12:40:08.002Z</time></trkpt><trkpt lat="41.97981733706686" lon="9.18734397648885"><ele>983.0</ele><time>2026-05-03T12:40:09.002Z</time></trkpt><trkpt lat="41.97991162639356" lon="9.187455620967766"><ele>983.2</ele><time>2026-05-03T12:40:11.002Z</time></trkpt><trkpt lat="41.97998352784568" lon="9.187501405371652"><ele>983.4</ele><time>2026-05-03T12:40:12.002Z</time></trkpt><trkpt lat="41.980070813184874" lon="9.187548185730696"><ele>983.6000000000001</ele><time>2026-05-03T12:40:13.002Z</time></trkpt><trkpt lat="41.98017528903026" lon="9.187589860854672"><ele>983.8000000000001</ele><time>2026-05-03T12:40:14.002Z</time></trkpt><trkpt lat="41.98026284593346" lon="9.187661191576689"><ele>984.0</ele><time>2026-05-03T12:40:15.002Z</time></trkpt><trkpt lat="41.98034289401447" lon="9.187757273834071"><ele>984.8000000000001</ele><time>2026-05-03T12:40:16.002Z</time></trkpt><trkpt lat="41.98040828813639" lon="9.187817391464002"><ele>985.6000000000001</ele><time>2026-05-03T12:40:17.002Z</time></trkpt><trkpt lat="41.98049112456796" lon="9.187821274787918"><ele>986.4</ele><time>2026-05-03T12:40:18.002Z</time></trkpt><trkpt lat="41.98056936888847" lon="9.187774408170556"><ele>987.2</ele><time>2026-05-03T12:40:19.002Z</time></trkpt><trkpt lat="41.98063283570055" lon="9.187636337791705"><ele>988.0</ele><time>2026-05-03T12:40:20.002Z</time></trkpt><trkpt lat="41.980633437428445" lon="9.187460006564132"><ele>983.5</ele><time>2026-05-03T12:40:21.002Z</time></trkpt><trkpt lat="41.98065360323716" lon="9.187289285715895"><ele>979.0</ele><time>2026-05-03T12:40:22.002Z</time></trkpt><trkpt lat="41.98069140499528" lon="9.187125834396953"><ele>974.5</ele><time>2026-05-03T12:40:23.002Z</time></trkpt><trkpt lat="41.98074096850211" lon="9.186991624608025"><ele>970.0</ele><time>2026-05-03T12:40:24.002Z</time></trkpt><trkpt lat="41.980813999935656" lon="9.18691119157577"><ele>972.5</ele><time>2026-05-03T12:40:25.002Z</time></trkpt><trkpt lat="41.98090265398786" lon="9.186890288934263"><ele>975.0</ele><time>2026-05-03T12:40:26.002Z</time></trkpt><trkpt lat="41.98100645337059" lon="9.186974273943932"><ele>977.5</ele><time>2026-05-03T12:40:27.002Z</time></trkpt><trkpt lat="41.98113385518031" lon="9.187001474656533"><ele>980.0</ele><time>2026-05-03T12:40:28.002Z</time></trkpt><trkpt lat="41.98125594819873" lon="9.187049831136056"><ele>980.0</ele><time>2026-05-03T12:40:29.002Z</time></trkpt><trkpt lat="41.98138423069936" lon="9.187041751793126"><ele>980.0</ele><time>2026-05-03T12:40:30.002Z</time></trkpt><trkpt lat="41.98152413028035" lon="9.186991825242714"><ele>980.0</ele><time>2026-05-03T12:40:31.002Z</time></trkpt><trkpt lat="41.98166510245815" lon="9.18690276092453"><ele>980.0</ele><time>2026-05-03T12:40:32.002Z</time></trkpt><trkpt lat="41.98180709016484" lon="9.186880113712155"><ele>987.25</ele><time>2026-05-03T12:40:33.002Z</time></trkpt><trkpt lat="41.98195681027319" lon="9.186849660484748"><ele>994.5</ele><time>2026-05-03T12:40:34.002Z</time></trkpt><trkpt lat="41.98209545789226" lon="9.186778791007484"><ele>1001.75</ele><time>2026-05-03T12:40:35.002Z</time></trkpt><trkpt lat="41.98222101267769" lon="9.186712585712176"><ele>1009.0</ele><time>2026-05-03T12:40:36.002Z</time></trkpt><trkpt lat="41.982338386902306" lon="9.186669267604852"><ele>1009.0</ele><time>2026-05-03T12:40:37.002Z</time></trkpt><trkpt lat="41.98243060057842" lon="9.186578078104695"><ele>1009.0000000000001</ele><time>2026-05-03T12:40:38.002Z</time></trkpt><trkpt lat="41.982504696884234" lon="9.186488884420516"><ele>1009.0000000000001</ele><time>2026-05-03T12:40:39.002Z</time></trkpt><trkpt lat="41.982505936057926" lon="9.186336609016047"><ele>1009.0</ele><time>2026-05-03T12:40:40.002Z</time></trkpt><trkpt lat="41.982521497780574" lon="9.186204630880843"><ele>1009.0</ele><time>2026-05-03T12:40:41.002Z</time></trkpt><trkpt lat="41.982544640941626" lon="9.186082758944364"><ele>1008.25</ele><time>2026-05-03T12:40:42Z</time></trkpt><trkpt lat="41.98260276627949" lon="9.185986448616077"><ele>1007.5</ele><time>2026-05-03T12:40:43Z</time></trkpt><trkpt lat="41.98270910290065" lon="9.185920127421868"><ele>1006.75</ele><time>2026-05-03T12:40:44Z</time></trkpt><trkpt lat="41.982831959058565" lon="9.18586648957532"><ele>1006.0</ele><time>2026-05-03T12:40:45Z</time></trkpt><trkpt lat="41.982950157235436" lon="9.185866819488334"><ele>1006.0</ele><time>2026-05-03T12:40:46Z</time></trkpt><trkpt lat="41.98305430326737" lon="9.185907993419882"><ele>1005.9999999999999</ele><time>2026-05-03T12:40:47Z</time></trkpt><trkpt lat="41.983151823998895" lon="9.1859620586438"><ele>1005.9999999999999</ele><time>2026-05-03T12:40:48Z</time></trkpt><trkpt lat="41.9832499632631" lon="9.186041176768295"><ele>1006.0</ele><time>2026-05-03T12:40:49Z</time></trkpt><trkpt lat="41.98334167019964" lon="9.186099274455891"><ele>1006.0</ele><time>2026-05-03T12:40:50Z</time></trkpt><trkpt lat="41.983425188051136" lon="9.186072586933397"><ele>1007.75</ele><time>2026-05-03T12:40:51Z</time></trkpt><trkpt lat="41.98349881680845" lon="9.186022855969343"><ele>1009.5</ele><time>2026-05-03T12:40:52Z</time></trkpt><trkpt lat="41.98355343550388" lon="9.185865731769606"><ele>1011.25</ele><time>2026-05-03T12:40:53Z</time></trkpt><trkpt lat="41.98356308334945" lon="9.185676481409748"><ele>1013.0</ele><time>2026-05-03T12:40:54Z</time></trkpt><trkpt lat="41.98355439273637" lon="9.185479367893615"><ele>1013.0</ele><time>2026-05-03T12:40:55Z</time></trkpt><trkpt lat="41.98354807229315" lon="9.18529991534302"><ele>1013.0</ele><time>2026-05-03T12:40:56Z</time></trkpt><trkpt lat="41.98353125707298" lon="9.18515139888014"><ele>1013.0</ele><time>2026-05-03T12:40:57Z</time></trkpt><trkpt lat="41.98355228899745" lon="9.185003587968925"><ele>1013.0</ele><time>2026-05-03T12:40:58Z</time></trkpt><trkpt lat="41.98359243316437" lon="9.184841371513263"><ele>1008.2</ele><time>2026-05-03T12:40:59Z</time></trkpt><trkpt lat="41.98362176373788" lon="9.184680954532725"><ele>1003.4</ele><time>2026-05-03T12:41:00Z</time></trkpt><trkpt lat="41.983643304707144" lon="9.184543842446411"><ele>998.6000000000001</ele><time>2026-05-03T12:41:01Z</time></trkpt><trkpt lat="41.98370977139361" lon="9.184436773667349"><ele>993.8000000000001</ele><time>2026-05-03T12:41:02Z</time></trkpt><trkpt lat="41.98379712150397" lon="9.184375329078861"><ele>989.0</ele><time>2026-05-03T12:41:03Z</time></trkpt><trkpt lat="41.983889406638006" lon="9.184391954715561"><ele>989.0</ele><time>2026-05-03T12:41:04Z</time></trkpt><trkpt lat="41.98395545325459" lon="9.184525426017787"><ele>989.0</ele><time>2026-05-03T12:41:05Z</time></trkpt><trkpt lat="41.98405630254238" lon="9.184592525655688"><ele>989.0</ele><time>2026-05-03T12:41:06Z</time></trkpt><trkpt lat="41.984160704770616" lon="9.184644681922883"><ele>989.0</ele><time>2026-05-03T12:41:07Z</time></trkpt><trkpt lat="41.984283117163805" lon="9.184678647713511"><ele>988.25</ele><time>2026-05-03T12:41:08Z</time></trkpt><trkpt lat="41.98440111207577" lon="9.184749123733305"><ele>987.5</ele><time>2026-05-03T12:41:09Z</time></trkpt><trkpt lat="41.98447672913113" lon="9.184888261655598"><ele>986.75</ele><time>2026-05-03T12:41:10Z</time></trkpt><trkpt lat="41.98456722802661" lon="9.184995811803487"><ele>986.0</ele><time>2026-05-03T12:41:11Z</time></trkpt><trkpt lat="41.984654154584085" lon="9.185094305033418"><ele>992.25</ele><time>2026-05-03T12:41:12Z</time></trkpt><trkpt lat="41.98474770511335" lon="9.185180590462268"><ele>998.5</ele><time>2026-05-03T12:41:13Z</time></trkpt><trkpt lat="41.98486932465782" lon="9.185232999547596"><ele>1004.75</ele><time>2026-05-03T12:41:14.001Z</time></trkpt><trkpt lat="41.98500179807791" lon="9.18524748881943"><ele>1011.0</ele><time>2026-05-03T12:41:15.001Z</time></trkpt><trkpt lat="41.98514313813657" lon="9.185209884100551"><ele>1012.5</ele><time>2026-05-03T12:41:16.001Z</time></trkpt><trkpt lat="41.98529073810387" lon="9.18516221691179"><ele>1014.0</ele><time>2026-05-03T12:41:17.001Z</time></trkpt><trkpt lat="41.98543196508637" lon="9.185159289114958"><ele>1015.5</ele><time>2026-05-03T12:41:18.001Z</time></trkpt><trkpt lat="41.985569667962366" lon="9.185182012093215"><ele>1017.0</ele><time>2026-05-03T12:41:19.001Z</time></trkpt><trkpt lat="41.985689622834656" lon="9.185170250661553"><ele>1017.0</ele><time>2026-05-03T12:41:20.001Z</time></trkpt><trkpt lat="41.985790061616164" lon="9.185133783608658"><ele>1017.0</ele><time>2026-05-03T12:41:21.001Z</time></trkpt><trkpt lat="41.985888999084644" lon="9.185039734329141"><ele>1017.0</ele><time>2026-05-03T12:41:22.001Z</time></trkpt><trkpt lat="41.98598424790404" lon="9.18489506124578"><ele>1017.0</ele><time>2026-05-03T12:41:23.001Z</time></trkpt><trkpt lat="41.98609854033954" lon="9.184810243907558"><ele>1013.25</ele><time>2026-05-03T12:41:24.001Z</time></trkpt><trkpt lat="41.98623410160526" lon="9.184824160684219"><ele>1009.5</ele><time>2026-05-03T12:41:25.001Z</time></trkpt><trkpt lat="41.98634704062413" lon="9.18483912640117"><ele>1005.75</ele><time>2026-05-03T12:41:26.001Z</time></trkpt><trkpt lat="41.986435836007274" lon="9.184860147597073"><ele>1002.0</ele><time>2026-05-03T12:41:27.001Z</time></trkpt><trkpt lat="41.98647612262192" lon="9.18503391986356"><ele>1002.0</ele><time>2026-05-03T12:41:29.001Z</time></trkpt><trkpt lat="41.98642253147929" lon="9.185155853922323"><ele>1002.0</ele><time>2026-05-03T12:41:30.001Z</time></trkpt><trkpt lat="41.986369023131" lon="9.185291311479393"><ele>1002.0</ele><time>2026-05-03T12:41:31.001Z</time></trkpt><trkpt lat="41.98630389077407" lon="9.18544041789465"><ele>1002.0</ele><time>2026-05-03T12:41:32.001Z</time></trkpt><trkpt lat="41.98628206207637" lon="9.185620922370685"><ele>1004.0</ele><time>2026-05-03T12:41:33.001Z</time></trkpt><trkpt lat="41.9862743899288" lon="9.185805349269797"><ele>1006.0</ele><time>2026-05-03T12:41:34.001Z</time></trkpt><trkpt lat="41.986232671112276" lon="9.185962716501809"><ele>1008.0</ele><time>2026-05-03T12:41:35.001Z</time></trkpt><trkpt lat="41.986193000635105" lon="9.186101576931913"><ele>1010.0</ele><time>2026-05-03T12:41:36.001Z</time></trkpt><trkpt lat="41.98619284514293" lon="9.186236296316258"><ele>1010.0</ele><time>2026-05-03T12:41:37.001Z</time></trkpt><trkpt lat="41.98622514037316" lon="9.186358187305114"><ele>1010.0</ele><time>2026-05-03T12:41:38.001Z</time></trkpt><trkpt lat="41.98628694227171" lon="9.186465044606418"><ele>1010.0</ele><time>2026-05-03T12:41:39.001Z</time></trkpt><trkpt lat="41.98634657762505" lon="9.186572935973176"><ele>1010.0</ele><time>2026-05-03T12:41:40.001Z</time></trkpt><trkpt lat="41.98640247516995" lon="9.186695446029118"><ele>1010.0</ele><time>2026-05-03T12:41:41.001Z</time></trkpt><trkpt lat="41.98639348488105" lon="9.186838552188576"><ele>1012.8</ele><time>2026-05-03T12:41:42.001Z</time></trkpt><trkpt lat="41.986363573829465" lon="9.186983297594763"><ele>1015.6</ele><time>2026-05-03T12:41:43.001Z</time></trkpt><trkpt lat="41.98636356910971" lon="9.187123939503365"><ele>1018.4000000000001</ele><time>2026-05-03T12:41:44.001Z</time></trkpt><trkpt lat="41.98637986038541" lon="9.187253365587749"><ele>1021.2</ele><time>2026-05-03T12:41:45.001Z</time></trkpt><trkpt lat="41.98646288719878" lon="9.187376262615052"><ele>1024.0</ele><time>2026-05-03T12:41:46.001Z</time></trkpt><trkpt lat="41.986583096142404" lon="9.187474224113606"><ele>1024.25</ele><time>2026-05-03T12:41:47.001Z</time></trkpt><trkpt lat="41.98668800542224" lon="9.187586203857814"><ele>1024.5</ele><time>2026-05-03T12:41:48.001Z</time></trkpt><trkpt lat="41.986780137950994" lon="9.187710233074805"><ele>1024.75</ele><time>2026-05-03T12:41:49.001Z</time></trkpt><trkpt lat="41.986850261108714" lon="9.18786619406167"><ele>1025.0</ele><time>2026-05-03T12:41:50.001Z</time></trkpt><trkpt lat="41.986962988650404" lon="9.188007491038302"><ele>1025.0</ele><time>2026-05-03T12:41:51.001Z</time></trkpt><trkpt lat="41.98707590143232" lon="9.188131166897364"><ele>1025.0</ele><time>2026-05-03T12:41:52.001Z</time></trkpt><trkpt lat="41.987169363633114" lon="9.188276780390906"><ele>1025.0</ele><time>2026-05-03T12:41:53.001Z</time></trkpt><trkpt lat="41.98723193328552" lon="9.188440008079535"><ele>1025.0</ele><time>2026-05-03T12:41:54.001Z</time></trkpt><trkpt lat="41.987263120456596" lon="9.188616981396338"><ele>1027.5</ele><time>2026-05-03T12:41:55.001Z</time></trkpt><trkpt lat="41.987271291071096" lon="9.188800209520277"><ele>1030.0</ele><time>2026-05-03T12:41:56.001Z</time></trkpt><trkpt lat="41.987277775253595" lon="9.188979080860202"><ele>1032.5</ele><time>2026-05-03T12:41:57.001Z</time></trkpt><trkpt lat="41.987279646985584" lon="9.1891389565307"><ele>1035.0</ele><time>2026-05-03T12:41:58.001Z</time></trkpt><trkpt lat="41.98727870862657" lon="9.189305253414437"><ele>1037.8</ele><time>2026-05-03T12:41:59.001Z</time></trkpt><trkpt lat="41.98727485208782" lon="9.189449414946722"><ele>1040.6</ele><time>2026-05-03T12:42:00.001Z</time></trkpt><trkpt lat="41.9872817417196" lon="9.189574247749961"><ele>1043.4</ele><time>2026-05-03T12:42:01.001Z</time></trkpt><trkpt lat="41.9873264713666" lon="9.18967362406677"><ele>1046.2</ele><time>2026-05-03T12:42:02.001Z</time></trkpt><trkpt lat="41.98740723319048" lon="9.189711625574736"><ele>1049.0</ele><time>2026-05-03T12:42:03.001Z</time></trkpt><trkpt lat="41.98750009131698" lon="9.18969523112197"><ele>1054.25</ele><time>2026-05-03T12:42:04.001Z</time></trkpt><trkpt lat="41.98759360007834" lon="9.189615041558183"><ele>1059.5</ele><time>2026-05-03T12:42:05.001Z</time></trkpt><trkpt lat="41.98765393102263" lon="9.18949343192123"><ele>1064.75</ele><time>2026-05-03T12:42:06.001Z</time></trkpt><trkpt lat="41.98768633587322" lon="9.18935357597386"><ele>1070.0</ele><time>2026-05-03T12:42:07.001Z</time></trkpt><trkpt lat="41.9877003464526" lon="9.189187372370837"><ele>1070.0</ele><time>2026-05-03T12:42:08.001Z</time></trkpt><trkpt lat="41.987735493657304" lon="9.18902954760444"><ele>1070.0</ele><time>2026-05-03T12:42:09.001Z</time></trkpt><trkpt lat="41.98779359555882" lon="9.188872920035855"><ele>1070.0</ele><time>2026-05-03T12:42:10.001Z</time></trkpt><trkpt lat="41.987861667920754" lon="9.18871452399919"><ele>1070.0</ele><time>2026-05-03T12:42:11.001Z</time></trkpt><trkpt lat="41.98793660296616" lon="9.188529910663048"><ele>1065.0</ele><time>2026-05-03T12:42:12.001Z</time></trkpt><trkpt lat="41.98800548409627" lon="9.188364942435543"><ele>1060.0</ele><time>2026-05-03T12:42:13.001Z</time></trkpt><trkpt lat="41.988075972438736" lon="9.188179631604077"><ele>1055.0</ele><time>2026-05-03T12:42:14.001Z</time></trkpt><trkpt lat="41.98811744138089" lon="9.187978384455276"><ele>1052.6666666666667</ele><time>2026-05-03T12:42:15.001Z</time></trkpt><trkpt lat="41.98812387751071" lon="9.187765734809027"><ele>1050.3333333333333</ele><time>2026-05-03T12:42:16.001Z</time></trkpt><trkpt lat="41.98813146155842" lon="9.18756372534626"><ele>1048.0</ele><time>2026-05-03T12:42:17.001Z</time></trkpt><trkpt lat="41.988156241703486" lon="9.187368806846186"><ele>1047.5</ele><time>2026-05-03T12:42:18.001Z</time></trkpt><trkpt lat="41.98819952816221" lon="9.187197964921246"><ele>1047.0</ele><time>2026-05-03T12:42:19.001Z</time></trkpt><trkpt lat="41.98825864877916" lon="9.187046494696137"><ele>1046.5</ele><time>2026-05-03T12:42:20.002Z</time></trkpt><trkpt lat="41.98833165851204" lon="9.186923490834854"><ele>1046.0</ele><time>2026-05-03T12:42:21.002Z</time></trkpt><trkpt lat="41.98840851742474" lon="9.186823574676444"><ele>1046.0</ele><time>2026-05-03T12:42:22.002Z</time></trkpt><trkpt lat="41.98850647537773" lon="9.18677966632334"><ele>1046.0</ele><time>2026-05-03T12:42:23.002Z</time></trkpt><trkpt lat="41.988635016416204" lon="9.186769371124026"><ele>1046.0</ele><time>2026-05-03T12:42:24.002Z</time></trkpt><trkpt lat="41.98877396741248" lon="9.186773846480039"><ele>1046.0</ele><time>2026-05-03T12:42:25.002Z</time></trkpt><trkpt lat="41.98891542549118" lon="9.186771742091526"><ele>1046.0</ele><time>2026-05-03T12:42:26.002Z</time></trkpt><trkpt lat="41.98906027437306" lon="9.186773940526983"><ele>1046.0</ele><time>2026-05-03T12:42:27.002Z</time></trkpt><trkpt lat="41.989199205536835" lon="9.186794811503596"><ele>1046.0</ele><time>2026-05-03T12:42:28.002Z</time></trkpt><trkpt lat="41.98934133439837" lon="9.186840891037948"><ele>1046.0</ele><time>2026-05-03T12:42:29.002Z</time></trkpt><trkpt lat="41.989480520430675" lon="9.186845221665266"><ele>1044.5</ele><time>2026-05-03T12:42:30.002Z</time></trkpt><trkpt lat="41.98962008452628" lon="9.186794789871776"><ele>1043.0</ele><time>2026-05-03T12:42:31.002Z</time></trkpt><trkpt lat="41.98975394779316" lon="9.186750271957127"><ele>1041.5</ele><time>2026-05-03T12:42:32.002Z</time></trkpt><trkpt lat="41.98989626991331" lon="9.186786917131753"><ele>1040.0</ele><time>2026-05-03T12:42:33.002Z</time></trkpt><trkpt lat="41.99004841797975" lon="9.186817791810745"><ele>1039.0</ele><time>2026-05-03T12:42:34.002Z</time></trkpt><trkpt lat="41.99018228566955" lon="9.186909230177852"><ele>1038.0</ele><time>2026-05-03T12:42:35.002Z</time></trkpt><trkpt lat="41.9902991937085" lon="9.18702257048576"><ele>1037.0</ele><time>2026-05-03T12:42:36.002Z</time></trkpt><trkpt lat="41.99040618928336" lon="9.187094963083902"><ele>1036.0</ele><time>2026-05-03T12:42:37.002Z</time></trkpt><trkpt lat="41.99051677886699" lon="9.187096098977873"><ele>1036.0</ele><time>2026-05-03T12:42:38.002Z</time></trkpt><trkpt lat="41.990646821620814" lon="9.187055584399227"><ele>1036.0</ele><time>2026-05-03T12:42:39.002Z</time></trkpt><trkpt lat="41.990779384491645" lon="9.187008458170045"><ele>1036.0</ele><time>2026-05-03T12:42:40.002Z</time></trkpt><trkpt lat="41.99091538432899" lon="9.186994626971638"><ele>1036.0</ele><time>2026-05-03T12:42:41.002Z</time></trkpt><trkpt lat="41.99103310471316" lon="9.18707489462663"><ele>1031.0</ele><time>2026-05-03T12:42:42.002Z</time></trkpt><trkpt lat="41.99114890769822" lon="9.18719561881097"><ele>1026.0</ele><time>2026-05-03T12:42:43.002Z</time></trkpt><trkpt lat="41.99129129316878" lon="9.187306950026843"><ele>1021.0</ele><time>2026-05-03T12:42:44.002Z</time></trkpt><trkpt lat="41.991417399761275" lon="9.187434335145017"><ele>1021.0</ele><time>2026-05-03T12:42:45.002Z</time></trkpt><trkpt lat="41.99153643577694" lon="9.187547197616055"><ele>1021.0</ele><time>2026-05-03T12:42:46.002Z</time></trkpt><trkpt lat="41.99166419254548" lon="9.187657025083771"><ele>1021.0</ele><time>2026-05-03T12:42:47.002Z</time></trkpt><trkpt lat="41.9917754065248" lon="9.187750405568575"><ele>1021.0</ele><time>2026-05-03T12:42:48Z</time></trkpt><trkpt lat="41.991851098169086" lon="9.187798600714244"><ele>1021.0</ele><time>2026-05-03T12:42:49Z</time></trkpt><trkpt lat="41.99189682415432" lon="9.187879695109078"><ele>1020.9999999999999</ele><time>2026-05-03T12:42:50Z</time></trkpt><trkpt lat="41.99188696723662" lon="9.187983942450217"><ele>1020.9999999999999</ele><time>2026-05-03T12:42:51Z</time></trkpt><trkpt lat="41.99182994644434" lon="9.18807359000315"><ele>1021.0</ele><time>2026-05-03T12:42:52Z</time></trkpt><trkpt lat="41.991721922592255" lon="9.188133197498242"><ele>1021.0</ele><time>2026-05-03T12:42:53Z</time></trkpt><trkpt lat="41.991638037358186" lon="9.188240465925125"><ele>1031.5</ele><time>2026-05-03T12:42:54Z</time></trkpt><trkpt lat="41.99156628737147" lon="9.188367891327921"><ele>1042.0</ele><time>2026-05-03T12:42:55Z</time></trkpt><trkpt lat="41.99153399620515" lon="9.188528097443767"><ele>1052.5</ele><time>2026-05-03T12:42:56Z</time></trkpt><trkpt lat="41.99149442686145" lon="9.188680740716002"><ele>1063.0</ele><time>2026-05-03T12:42:57Z</time></trkpt><trkpt lat="41.99145704815153" lon="9.188814459281335"><ele>1063.0</ele><time>2026-05-03T12:42:58Z</time></trkpt><trkpt lat="41.99147032312096" lon="9.188927300087038"><ele>1063.0</ele><time>2026-05-03T12:42:59Z</time></trkpt><trkpt lat="41.99151564481533" lon="9.189018749704605"><ele>1063.0</ele><time>2026-05-03T12:43:00Z</time></trkpt><trkpt lat="41.991604413698106" lon="9.189088598173702"><ele>1063.0</ele><time>2026-05-03T12:43:01Z</time></trkpt><trkpt lat="41.991701611057174" lon="9.189157697513094"><ele>1063.0</ele><time>2026-05-03T12:43:02Z</time></trkpt><trkpt lat="41.99182509470536" lon="9.189243956766035"><ele>1058.0</ele><time>2026-05-03T12:43:03Z</time></trkpt><trkpt lat="41.99192923037618" lon="9.189332707138282"><ele>1053.0</ele><time>2026-05-03T12:43:04Z</time></trkpt><trkpt lat="41.99199534963108" lon="9.189474751500219"><ele>1048.0</ele><time>2026-05-03T12:43:05Z</time></trkpt><trkpt lat="41.9920625071129" lon="9.189632699812021"><ele>1043.0</ele><time>2026-05-03T12:43:06Z</time></trkpt><trkpt lat="41.992165045863814" lon="9.189784477186036"><ele>1046.6666666666667</ele><time>2026-05-03T12:43:07Z</time></trkpt><trkpt lat="41.99227969033063" lon="9.189929689737319"><ele>1050.3333333333333</ele><time>2026-05-03T12:43:08Z</time></trkpt><trkpt lat="41.992392258409566" lon="9.190083459645916"><ele>1054.0</ele><time>2026-05-03T12:43:09Z</time></trkpt><trkpt lat="41.992540089912595" lon="9.190206772828395"><ele>1054.0</ele><time>2026-05-03T12:43:10Z</time></trkpt><trkpt lat="41.99268379998013" lon="9.190327417314341"><ele>1054.0</ele><time>2026-05-03T12:43:11Z</time></trkpt><trkpt lat="41.99279161253544" lon="9.190485169837471"><ele>1054.0</ele><time>2026-05-03T12:43:12Z</time></trkpt><trkpt lat="41.99287544439406" lon="9.19063750157642"><ele>1055.5</ele><time>2026-05-03T12:43:13Z</time></trkpt><trkpt lat="41.99292769833657" lon="9.190804788161534"><ele>1057.0</ele><time>2026-05-03T12:43:14Z</time></trkpt><trkpt lat="41.99296328784746" lon="9.190986276974478"><ele>1058.5</ele><time>2026-05-03T12:43:15Z</time></trkpt><trkpt lat="41.99302804055226" lon="9.191162936859648"><ele>1060.0</ele><time>2026-05-03T12:43:16Z</time></trkpt><trkpt lat="41.993091962434875" lon="9.191307259879155"><ele>1060.0</ele><time>2026-05-03T12:43:17Z</time></trkpt><trkpt lat="41.99314578674641" lon="9.191440186182684"><ele>1060.0</ele><time>2026-05-03T12:43:18Z</time></trkpt><trkpt lat="41.993191963943175" lon="9.191575376527847"><ele>1060.0</ele><time>2026-05-03T12:43:19Z</time></trkpt><trkpt lat="41.9932400081784" lon="9.191695622504321"><ele>1060.0</ele><time>2026-05-03T12:43:20Z</time></trkpt><trkpt lat="41.99330489750394" lon="9.191779274351902"><ele>1060.0</ele><time>2026-05-03T12:43:21Z</time></trkpt><trkpt lat="41.993393675427214" lon="9.191820749202448"><ele>1068.8</ele><time>2026-05-03T12:43:22Z</time></trkpt><trkpt lat="41.99349801851034" lon="9.191841097744893"><ele>1077.6</ele><time>2026-05-03T12:43:23Z</time></trkpt><trkpt lat="41.993599141055995" lon="9.191844208505346"><ele>1086.4</ele><time>2026-05-03T12:43:24Z</time></trkpt><trkpt lat="41.993689168983536" lon="9.191820386700442"><ele>1095.2</ele><time>2026-05-03T12:43:25.001Z</time></trkpt><trkpt lat="41.993751397280974" lon="9.191746567374041"><ele>1104.0</ele><time>2026-05-03T12:43:26.001Z</time></trkpt><trkpt lat="41.99379363699103" lon="9.191617376099567"><ele>1100.5</ele><time>2026-05-03T12:43:27.001Z</time></trkpt><trkpt lat="41.99382321848044" lon="9.191459003291286"><ele>1097.0</ele><time>2026-05-03T12:43:28.001Z</time></trkpt><trkpt lat="41.993817410480275" lon="9.191285268108365"><ele>1093.5</ele><time>2026-05-03T12:43:29.001Z</time></trkpt><trkpt lat="41.99383804195727" lon="9.191099822072733"><ele>1090.0</ele><time>2026-05-03T12:43:30.001Z</time></trkpt><trkpt lat="41.99389303795775" lon="9.19091855202993"><ele>1090.0</ele><time>2026-05-03T12:43:31.001Z</time></trkpt><trkpt lat="41.99392663726417" lon="9.190714550376569"><ele>1090.0</ele><time>2026-05-03T12:43:32.001Z</time></trkpt><trkpt lat="41.99396375968286" lon="9.190518231844646"><ele>1090.0</ele><time>2026-05-03T12:43:33.001Z</time></trkpt><trkpt lat="41.99400569933696" lon="9.190341912341001"><ele>1090.0</ele><time>2026-05-03T12:43:34.001Z</time></trkpt><trkpt lat="41.99402215390938" lon="9.19016695081688"><ele>1088.25</ele><time>2026-05-03T12:43:35.001Z</time></trkpt><trkpt lat="41.99396939042774" lon="9.189988866124795"><ele>1086.5</ele><time>2026-05-03T12:43:36.001Z</time></trkpt><trkpt lat="41.99391510616505" lon="9.189812926649521"><ele>1084.75</ele><time>2026-05-03T12:43:37.001Z</time></trkpt><trkpt lat="41.99393297204066" lon="9.189655039855015"><ele>1083.0</ele><time>2026-05-03T12:43:38.001Z</time></trkpt><trkpt lat="41.99398946487219" lon="9.18950825123735"><ele>1081.5</ele><time>2026-05-03T12:43:39.001Z</time></trkpt><trkpt lat="41.994034455921344" lon="9.189344535904306"><ele>1080.0</ele><time>2026-05-03T12:43:40.001Z</time></trkpt><trkpt lat="41.994084661673185" lon="9.18921437184992"><ele>1078.5</ele><time>2026-05-03T12:43:41.001Z</time></trkpt><trkpt lat="41.99418370018055" lon="9.189140980704781"><ele>1077.0</ele><time>2026-05-03T12:43:42.001Z</time></trkpt><trkpt lat="41.99430747469252" lon="9.189103875017862"><ele>1083.0</ele><time>2026-05-03T12:43:43.001Z</time></trkpt><trkpt lat="41.994434073397485" lon="9.189056998412909"><ele>1089.0</ele><time>2026-05-03T12:43:44.001Z</time></trkpt><trkpt lat="41.994547904971206" lon="9.188940233773515"><ele>1095.0</ele><time>2026-05-03T12:43:45.001Z</time></trkpt><trkpt lat="41.99462707507819" lon="9.188775929872657"><ele>1101.0</ele><time>2026-05-03T12:43:46.001Z</time></trkpt><trkpt lat="41.99469213670995" lon="9.188603717447215"><ele>1101.0</ele><time>2026-05-03T12:43:47.001Z</time></trkpt><trkpt lat="41.99473381562503" lon="9.188420648208346"><ele>1101.0</ele><time>2026-05-03T12:43:48.001Z</time></trkpt><trkpt lat="41.994763701788614" lon="9.188227668770102"><ele>1101.0</ele><time>2026-05-03T12:43:49.001Z</time></trkpt><trkpt lat="41.99477810907541" lon="9.188028127659223"><ele>1101.0</ele><time>2026-05-03T12:43:50.001Z</time></trkpt><trkpt lat="41.994764375338285" lon="9.187855236136821"><ele>1098.8</ele><time>2026-05-03T12:43:51.001Z</time></trkpt><trkpt lat="41.99472915032165" lon="9.187726138273995"><ele>1096.6</ele><time>2026-05-03T12:43:52.001Z</time></trkpt><trkpt lat="41.99469548376347" lon="9.18762646468936"><ele>1094.4</ele><time>2026-05-03T12:43:53.001Z</time></trkpt><trkpt lat="41.994698321697925" lon="9.187508148912881"><ele>1092.2</ele><time>2026-05-03T12:43:54.001Z</time></trkpt><trkpt lat="41.99476115142268" lon="9.187369648276233"><ele>1090.0</ele><time>2026-05-03T12:43:55.001Z</time></trkpt><trkpt lat="41.994852682987045" lon="9.187236634772937"><ele>1092.0</ele><time>2026-05-03T12:43:56.001Z</time></trkpt><trkpt lat="41.99494570083498" lon="9.187149710085455"><ele>1094.0</ele><time>2026-05-03T12:43:57.001Z</time></trkpt><trkpt lat="41.99505578957439" lon="9.187119124811007"><ele>1096.0</ele><time>2026-05-03T12:43:58.001Z</time></trkpt><trkpt lat="41.995183675862734" lon="9.187138964654585"><ele>1098.0</ele><time>2026-05-03T12:43:59.001Z</time></trkpt><trkpt lat="41.995303388196014" lon="9.187144074538967"><ele>1098.0</ele><time>2026-05-03T12:44:00.001Z</time></trkpt><trkpt lat="41.995393776014765" lon="9.187051509560684"><ele>1098.0</ele><time>2026-05-03T12:44:01.001Z</time></trkpt><trkpt lat="41.99546926246359" lon="9.186910585983933"><ele>1098.0</ele><time>2026-05-03T12:44:02.001Z</time></trkpt><trkpt lat="41.995533477695574" lon="9.186763874171948"><ele>1098.0</ele><time>2026-05-03T12:44:03.001Z</time></trkpt><trkpt lat="41.995588887928804" lon="9.186625686812421"><ele>1094.5</ele><time>2026-05-03T12:44:04.001Z</time></trkpt><trkpt lat="41.99562723020706" lon="9.18647431885111"><ele>1091.0</ele><time>2026-05-03T12:44:05.001Z</time></trkpt><trkpt lat="41.995663983984734" lon="9.186335836809048"><ele>1087.5</ele><time>2026-05-03T12:44:06.001Z</time></trkpt><trkpt lat="41.99572949763741" lon="9.186211306185724"><ele>1084.0</ele><time>2026-05-03T12:44:07.001Z</time></trkpt><trkpt lat="41.995844304760105" lon="9.186140794215765"><ele>1084.0</ele><time>2026-05-03T12:44:08.001Z</time></trkpt><trkpt lat="41.99598002036553" lon="9.186101374679174"><ele>1084.0</ele><time>2026-05-03T12:44:09.001Z</time></trkpt><trkpt lat="41.996112004719684" lon="9.186057368462556"><ele>1084.0</ele><time>2026-05-03T12:44:10.001Z</time></trkpt><trkpt lat="41.996254193535215" lon="9.186007691698874"><ele>1084.0</ele><time>2026-05-03T12:44:11.001Z</time></trkpt><trkpt lat="41.99638578984407" lon="9.18595494203204"><ele>1084.0</ele><time>2026-05-03T12:44:12.001Z</time></trkpt><trkpt lat="41.996489937963936" lon="9.185941882257916"><ele>1084.0</ele><time>2026-05-03T12:44:13.001Z</time></trkpt><trkpt lat="41.996549913071625" lon="9.18600227915937"><ele>1084.0</ele><time>2026-05-03T12:44:14.001Z</time></trkpt><trkpt lat="41.99655304878087" lon="9.18610574485935"><ele>1084.0</ele><time>2026-05-03T12:44:15.001Z</time></trkpt><trkpt lat="41.99649861339553" lon="9.186225221085868"><ele>1084.0</ele><time>2026-05-03T12:44:16.001Z</time></trkpt><trkpt lat="41.996490302331296" lon="9.186399590965914"><ele>1084.5</ele><time>2026-05-03T12:44:17.001Z</time></trkpt><trkpt lat="41.996454197749735" lon="9.186548438452894"><ele>1085.0</ele><time>2026-05-03T12:44:18.001Z</time></trkpt><trkpt lat="41.99639184311323" lon="9.186677344138076"><ele>1085.5</ele><time>2026-05-03T12:44:19.001Z</time></trkpt><trkpt lat="41.996297134732544" lon="9.18678944815414"><ele>1086.0</ele><time>2026-05-03T12:44:20.001Z</time></trkpt><trkpt lat="41.99620862246582" lon="9.186951481496017"><ele>1086.0</ele><time>2026-05-03T12:44:21.001Z</time></trkpt><trkpt lat="41.99614833084743" lon="9.187147056986745"><ele>1086.0</ele><time>2026-05-03T12:44:22.001Z</time></trkpt><trkpt lat="41.99611155190751" lon="9.187360121862627"><ele>1086.0</ele><time>2026-05-03T12:44:23.001Z</time></trkpt><trkpt lat="41.99603394276344" lon="9.187565717600261"><ele>1086.6666666666667</ele><time>2026-05-03T12:44:24.001Z</time></trkpt><trkpt lat="41.995961768864866" lon="9.187782248070443"><ele>1087.3333333333335</ele><time>2026-05-03T12:44:25.001Z</time></trkpt><trkpt lat="41.995901097046215" lon="9.188005173022669"><ele>1088.0</ele><time>2026-05-03T12:44:26.001Z</time></trkpt><trkpt lat="41.99585059951038" lon="9.188202846756807"><ele>1092.2</ele><time>2026-05-03T12:44:27.001Z</time></trkpt><trkpt lat="41.995797648948056" lon="9.188371989960343"><ele>1096.4</ele><time>2026-05-03T12:44:28.001Z</time></trkpt><trkpt lat="41.995747632856535" lon="9.188511460605083"><ele>1100.6000000000001</ele><time>2026-05-03T12:44:29.001Z</time></trkpt><trkpt lat="41.995728637984726" lon="9.18864939495156"><ele>1104.8</ele><time>2026-05-03T12:44:30.001Z</time></trkpt><trkpt lat="41.99573489930909" lon="9.188757549979472"><ele>1109.0</ele><time>2026-05-03T12:44:31.001Z</time></trkpt><trkpt lat="41.99579282574129" lon="9.188827096349268"><ele>1108.5</ele><time>2026-05-03T12:44:32.002Z</time></trkpt><trkpt lat="41.99588825954798" lon="9.188855253560783"><ele>1108.0</ele><time>2026-05-03T12:44:33.002Z</time></trkpt><trkpt lat="41.99602399372118" lon="9.188798484498538"><ele>1107.5</ele><time>2026-05-03T12:44:34.002Z</time></trkpt><trkpt lat="41.99612707495412" lon="9.188707022107739"><ele>1107.0</ele><time>2026-05-03T12:44:35.002Z</time></trkpt><trkpt lat="41.996246669243995" lon="9.188616687835623"><ele>1107.0</ele><time>2026-05-03T12:44:36.002Z</time></trkpt><trkpt lat="41.996381287144835" lon="9.188555628551837"><ele>1107.0</ele><time>2026-05-03T12:44:37.002Z</time></trkpt><trkpt lat="41.99652512507157" lon="9.188526751047563"><ele>1107.0</ele><time>2026-05-03T12:44:38.002Z</time></trkpt><trkpt lat="41.99667253258449" lon="9.18849637334171"><ele>1107.0</ele><time>2026-05-03T12:44:39.002Z</time></trkpt><trkpt lat="41.99679647823143" lon="9.188436613282436"><ele>1110.0</ele><time>2026-05-03T12:44:40.002Z</time></trkpt><trkpt lat="41.99692516362079" lon="9.188339507427965"><ele>1113.0</ele><time>2026-05-03T12:44:41.002Z</time></trkpt><trkpt lat="41.997071699818314" lon="9.188255706556909"><ele>1116.0</ele><time>2026-05-03T12:44:42.002Z</time></trkpt><trkpt lat="41.99722512920147" lon="9.188216729757906"><ele>1116.0</ele><time>2026-05-03T12:44:43.002Z</time></trkpt><trkpt lat="41.99738120629079" lon="9.188226706138938"><ele>1116.0</ele><time>2026-05-03T12:44:44.002Z</time></trkpt><trkpt lat="41.99753140403192" lon="9.188284118580869"><ele>1116.0</ele><time>2026-05-03T12:44:45.002Z</time></trkpt><trkpt lat="41.99767901665805" lon="9.188367045073454"><ele>1116.3333333333333</ele><time>2026-05-03T12:44:46.002Z</time></trkpt><trkpt lat="41.9978400531431" lon="9.188398319710473"><ele>1116.6666666666665</ele><time>2026-05-03T12:44:47.002Z</time></trkpt><trkpt lat="41.99798884069148" lon="9.188391798594626"><ele>1117.0</ele><time>2026-05-03T12:44:48.002Z</time></trkpt><trkpt lat="41.99813442875309" lon="9.18835423484385"><ele>1117.0</ele><time>2026-05-03T12:44:49.002Z</time></trkpt><trkpt lat="41.99828208073006" lon="9.188332122678885"><ele>1117.0</ele><time>2026-05-03T12:44:50.002Z</time></trkpt><trkpt lat="41.99843796400833" lon="9.188335135683102"><ele>1117.0</ele><time>2026-05-03T12:44:51.002Z</time></trkpt><trkpt lat="41.99860717408442" lon="9.188349555607806"><ele>1117.6666666666665</ele><time>2026-05-03T12:44:52.002Z</time></trkpt><trkpt lat="41.9987817804097" lon="9.188371720329503"><ele>1118.3333333333333</ele><time>2026-05-03T12:44:53.002Z</time></trkpt><trkpt lat="41.99895619218048" lon="9.188401424777366"><ele>1119.0</ele><time>2026-05-03T12:44:54Z</time></trkpt><trkpt lat="41.999134311798294" lon="9.188454148445794"><ele>1114.6666666666667</ele><time>2026-05-03T12:44:55Z</time></trkpt><trkpt lat="41.999311708232256" lon="9.188520859245443"><ele>1110.3333333333335</ele><time>2026-05-03T12:44:56Z</time></trkpt><trkpt lat="41.99946737979381" lon="9.188586518706176"><ele>1106.0</ele><time>2026-05-03T12:44:57Z</time></trkpt><trkpt lat="41.99961212504975" lon="9.188642526345252"><ele>1106.0</ele><time>2026-05-03T12:44:58Z</time></trkpt><trkpt lat="41.99974582852702" lon="9.188695340792485"><ele>1106.0</ele><time>2026-05-03T12:44:59Z</time></trkpt><trkpt lat="41.999851533037706" lon="9.188744285995798"><ele>1106.0</ele><time>2026-05-03T12:45:00Z</time></trkpt><trkpt lat="41.999921806543604" lon="9.188799241475671"><ele>1106.0</ele><time>2026-05-03T12:45:01Z</time></trkpt><trkpt lat="41.99997208649946" lon="9.188948152136229"><ele>1110.0</ele><time>2026-05-03T12:45:03Z</time></trkpt><trkpt lat="41.99997213381435" lon="9.189054639041547"><ele>1114.0</ele><time>2026-05-03T12:45:04Z</time></trkpt><trkpt lat="41.99998999688204" lon="9.189163715827295"><ele>1118.0</ele><time>2026-05-03T12:45:05Z</time></trkpt><trkpt lat="42.00004413586901" lon="9.189301281822663"><ele>1122.0</ele><time>2026-05-03T12:45:07Z</time></trkpt><trkpt lat="42.00006040478906" lon="9.1893887680562"><ele>1126.0</ele><time>2026-05-03T12:45:08Z</time></trkpt><trkpt lat="42.00009907418464" lon="9.189478219390246"><ele>1130.0</ele><time>2026-05-03T12:45:09Z</time></trkpt><trkpt lat="42.00015344254617" lon="9.189563903214717"><ele>1130.0</ele><time>2026-05-03T12:45:10Z</time></trkpt><trkpt lat="42.00019987725953" lon="9.189675390126448"><ele>1130.0</ele><time>2026-05-03T12:45:11Z</time></trkpt><trkpt lat="42.00027357510994" lon="9.189780863276892"><ele>1130.0</ele><time>2026-05-03T12:45:12Z</time></trkpt><trkpt lat="42.000381486560215" lon="9.189856413819651"><ele>1130.0</ele><time>2026-05-03T12:45:13Z</time></trkpt><trkpt lat="42.000524181761584" lon="9.189953292719077"><ele>1134.0</ele><time>2026-05-03T12:45:14Z</time></trkpt><trkpt lat="42.00069161722802" lon="9.19005454012627"><ele>1138.0</ele><time>2026-05-03T12:45:15Z</time></trkpt><trkpt lat="42.000843412770685" lon="9.190157933391482"><ele>1142.0</ele><time>2026-05-03T12:45:16Z</time></trkpt><trkpt lat="42.00099281683922" lon="9.190239433758212"><ele>1142.0</ele><time>2026-05-03T12:45:17Z</time></trkpt><trkpt lat="42.00116129890646" lon="9.190314223674044"><ele>1142.0</ele><time>2026-05-03T12:45:18Z</time></trkpt><trkpt lat="42.00131703299454" lon="9.19035685154534"><ele>1142.0</ele><time>2026-05-03T12:45:19Z</time></trkpt><trkpt lat="42.00146610317816" lon="9.190389549004362"><ele>1142.0</ele><time>2026-05-03T12:45:20Z</time></trkpt><trkpt lat="42.00161335507297" lon="9.190429603300021"><ele>1142.0</ele><time>2026-05-03T12:45:21Z</time></trkpt><trkpt lat="42.001737515561125" lon="9.190494216587807"><ele>1142.0</ele><time>2026-05-03T12:45:22Z</time></trkpt><trkpt lat="42.0018360519396" lon="9.190598115806596"><ele>1142.0</ele><time>2026-05-03T12:45:23Z</time></trkpt><trkpt lat="42.00190493670654" lon="9.190751904791897"><ele>1145.25</ele><time>2026-05-03T12:45:24Z</time></trkpt><trkpt lat="42.00196562759935" lon="9.190959825464992"><ele>1148.5</ele><time>2026-05-03T12:45:25Z</time></trkpt><trkpt lat="42.00202619747878" lon="9.191120888855508"><ele>1151.75</ele><time>2026-05-03T12:45:26Z</time></trkpt><trkpt lat="42.00211661747699" lon="9.19121448083608"><ele>1155.0</ele><time>2026-05-03T12:45:27Z</time></trkpt><trkpt lat="42.00224101347013" lon="9.19124177769031"><ele>1155.0</ele><time>2026-05-03T12:45:28Z</time></trkpt><trkpt lat="42.002373245823236" lon="9.191208899817502"><ele>1155.0</ele><time>2026-05-03T12:45:29.001Z</time></trkpt><trkpt lat="42.00249034087432" lon="9.191165940104561"><ele>1155.0</ele><time>2026-05-03T12:45:30.001Z</time></trkpt><trkpt lat="42.00259712282905" lon="9.191158928086509"><ele>1155.0</ele><time>2026-05-03T12:45:31.001Z</time></trkpt><trkpt lat="42.002699805115014" lon="9.1912318921895"><ele>1155.25</ele><time>2026-05-03T12:45:32.001Z</time></trkpt><trkpt lat="42.00278003583722" lon="9.191385168114618"><ele>1155.5</ele><time>2026-05-03T12:45:33.001Z</time></trkpt><trkpt lat="42.002853230270595" lon="9.19152538899325"><ele>1155.75</ele><time>2026-05-03T12:45:34.001Z</time></trkpt><trkpt lat="42.002867180900715" lon="9.191679563071506"><ele>1156.0</ele><time>2026-05-03T12:45:35.001Z</time></trkpt><trkpt lat="42.00280488434465" lon="9.191822684449404"><ele>1156.0</ele><time>2026-05-03T12:45:36.001Z</time></trkpt><trkpt lat="42.00277899438513" lon="9.192001176445201"><ele>1156.0</ele><time>2026-05-03T12:45:37.001Z</time></trkpt><trkpt lat="42.00273168872333" lon="9.192172855515107"><ele>1156.0</ele><time>2026-05-03T12:45:38.001Z</time></trkpt><trkpt lat="42.0027044001967" lon="9.192328168071466"><ele>1156.0</ele><time>2026-05-03T12:45:39.001Z</time></trkpt><trkpt lat="42.00268999899576" lon="9.192467480245785"><ele>1159.0</ele><time>2026-05-03T12:45:40.001Z</time></trkpt><trkpt lat="42.00269150277076" lon="9.192607089277617"><ele>1162.0</ele><time>2026-05-03T12:45:41.001Z</time></trkpt><trkpt lat="42.002712666943935" lon="9.192738645126093"><ele>1165.0</ele><time>2026-05-03T12:45:42.001Z</time></trkpt><trkpt lat="42.00274213247444" lon="9.19285503293683"><ele>1168.0</ele><time>2026-05-03T12:45:43.001Z</time></trkpt><trkpt lat="42.00279537894068" lon="9.192923963778293"><ele>1171.0</ele><time>2026-05-03T12:45:44.001Z</time></trkpt><trkpt lat="42.00287682516472" lon="9.192936752978987"><ele>1171.0</ele><time>2026-05-03T12:45:45.001Z</time></trkpt><trkpt lat="42.002972896365236" lon="9.192935151280778"><ele>1171.0</ele><time>2026-05-03T12:45:46.001Z</time></trkpt><trkpt lat="42.00309223722426" lon="9.192949087370097"><ele>1171.0</ele><time>2026-05-03T12:45:47.001Z</time></trkpt><trkpt lat="42.00321865349307" lon="9.192978331493975"><ele>1171.0</ele><time>2026-05-03T12:45:48.001Z</time></trkpt><trkpt lat="42.00334560357883" lon="9.193013452683978"><ele>1166.25</ele><time>2026-05-03T12:45:49.001Z</time></trkpt><trkpt lat="42.003461913896906" lon="9.193025184127535"><ele>1161.5</ele><time>2026-05-03T12:45:50.001Z</time></trkpt><trkpt lat="42.0035610363651" lon="9.193060550086818"><ele>1156.75</ele><time>2026-05-03T12:45:51.001Z</time></trkpt><trkpt lat="42.00367516016645" lon="9.19293695882887"><ele>1152.0</ele><time>2026-05-03T12:45:52.001Z</time></trkpt><trkpt lat="42.00376400748269" lon="9.192787296251437"><ele>1152.0</ele><time>2026-05-03T12:45:53.001Z</time></trkpt><trkpt lat="42.003847859798064" lon="9.192600550955074"><ele>1152.0</ele><time>2026-05-03T12:45:54.001Z</time></trkpt><trkpt lat="42.00391602245281" lon="9.192414424223985"><ele>1152.0</ele><time>2026-05-03T12:45:55.001Z</time></trkpt><trkpt lat="42.00392155780769" lon="9.192234088219923"><ele>1150.75</ele><time>2026-05-03T12:45:56.001Z</time></trkpt><trkpt lat="42.00391380215298" lon="9.192064339484471"><ele>1149.5</ele><time>2026-05-03T12:45:57.001Z</time></trkpt><trkpt lat="42.0039374147409" lon="9.191923352226208"><ele>1148.25</ele><time>2026-05-03T12:45:58.001Z</time></trkpt><trkpt lat="42.0040161397575" lon="9.191802108873683"><ele>1147.0</ele><time>2026-05-03T12:45:59.001Z</time></trkpt><trkpt lat="42.004134796572565" lon="9.19169303545649"><ele>1150.75</ele><time>2026-05-03T12:46:00.001Z</time></trkpt><trkpt lat="42.00426049689152" lon="9.191577810660242"><ele>1154.5</ele><time>2026-05-03T12:46:01.001Z</time></trkpt><trkpt lat="42.004370306645136" lon="9.191501951083701"><ele>1158.25</ele><time>2026-05-03T12:46:02.001Z</time></trkpt><trkpt lat="42.004466744913614" lon="9.191510308005356"><ele>1162.0</ele><time>2026-05-03T12:46:03.001Z</time></trkpt><trkpt lat="42.004550835238334" lon="9.191597021827485"><ele>1163.25</ele><time>2026-05-03T12:46:04.001Z</time></trkpt><trkpt lat="42.0046336080324" lon="9.191709634615535"><ele>1164.5</ele><time>2026-05-03T12:46:05.001Z</time></trkpt><trkpt lat="42.004723858571154" lon="9.191838750761324"><ele>1165.75</ele><time>2026-05-03T12:46:06.001Z</time></trkpt><trkpt lat="42.00483599185672" lon="9.191947136002549"><ele>1167.0</ele><time>2026-05-03T12:46:07.001Z</time></trkpt><trkpt lat="42.00497517409175" lon="9.192057014197086"><ele>1168.75</ele><time>2026-05-03T12:46:08.001Z</time></trkpt><trkpt lat="42.00510821145672" lon="9.192171915893296"><ele>1170.5</ele><time>2026-05-03T12:46:09.001Z</time></trkpt><trkpt lat="42.005227022897124" lon="9.192278837475152"><ele>1172.25</ele><time>2026-05-03T12:46:10.001Z</time></trkpt><trkpt lat="42.00532452099427" lon="9.192407352389337"><ele>1174.0</ele><time>2026-05-03T12:46:11.001Z</time></trkpt><trkpt lat="42.00539500052381" lon="9.192570744593745"><ele>1177.25</ele><time>2026-05-03T12:46:12.001Z</time></trkpt><trkpt lat="42.005435873346016" lon="9.19276492474824"><ele>1180.5</ele><time>2026-05-03T12:46:13.001Z</time></trkpt><trkpt lat="42.00547071250853" lon="9.192948395824624"><ele>1183.75</ele><time>2026-05-03T12:46:14.001Z</time></trkpt><trkpt lat="42.00550239237132" lon="9.193119507084466"><ele>1187.0</ele><time>2026-05-03T12:46:15.001Z</time></trkpt><trkpt lat="42.0055193990021" lon="9.193271000239124"><ele>1187.8</ele><time>2026-05-03T12:46:16.001Z</time></trkpt><trkpt lat="42.00553760895962" lon="9.193413401164083"><ele>1188.6</ele><time>2026-05-03T12:46:17.001Z</time></trkpt><trkpt lat="42.00558903956284" lon="9.193525705423587"><ele>1189.3999999999999</ele><time>2026-05-03T12:46:18.001Z</time></trkpt><trkpt lat="42.0056895652521" lon="9.19358497354773"><ele>1190.2</ele><time>2026-05-03T12:46:19.001Z</time></trkpt><trkpt lat="42.00580888816255" lon="9.19358629598711"><ele>1191.0</ele><time>2026-05-03T12:46:20.001Z</time></trkpt><trkpt lat="42.005936552327206" lon="9.193547089089304"><ele>1188.5</ele><time>2026-05-03T12:46:21.001Z</time></trkpt><trkpt lat="42.00606559499858" lon="9.193443833807233"><ele>1186.0</ele><time>2026-05-03T12:46:22.001Z</time></trkpt><trkpt lat="42.006195535662705" lon="9.19333177623828"><ele>1183.5</ele><time>2026-05-03T12:46:23.001Z</time></trkpt><trkpt lat="42.006304958641756" lon="9.193227453174021"><ele>1181.0</ele><time>2026-05-03T12:46:24.001Z</time></trkpt><trkpt lat="42.006380652345" lon="9.193077525666391"><ele>1177.5</ele><time>2026-05-03T12:46:25.001Z</time></trkpt><trkpt lat="42.006438715106526" lon="9.19289328177823"><ele>1174.0</ele><time>2026-05-03T12:46:26.001Z</time></trkpt><trkpt lat="42.00651355206723" lon="9.192713833235713"><ele>1170.5</ele><time>2026-05-03T12:46:27.001Z</time></trkpt><trkpt lat="42.00656651789655" lon="9.192542944366807"><ele>1167.0</ele><time>2026-05-03T12:46:28.001Z</time></trkpt><trkpt lat="42.006651625749555" lon="9.192423654025887"><ele>1166.0</ele><time>2026-05-03T12:46:29.001Z</time></trkpt><trkpt lat="42.00671273149809" lon="9.192291261210318"><ele>1165.0</ele><time>2026-05-03T12:46:30.001Z</time></trkpt><trkpt lat="42.00679557729874" lon="9.19219702309458"><ele>1164.0</ele><time>2026-05-03T12:46:31.001Z</time></trkpt><trkpt lat="42.0068756721039" lon="9.192153432756909"><ele>1163.0</ele><time>2026-05-03T12:46:32.001Z</time></trkpt><trkpt lat="42.0069488637771" lon="9.192210710843764"><ele>1162.0</ele><time>2026-05-03T12:46:33.001Z</time></trkpt><trkpt lat="42.00698822702141" lon="9.192300262929013"><ele>1166.5</ele><time>2026-05-03T12:46:34.001Z</time></trkpt><trkpt lat="42.007001690438905" lon="9.192431302325263"><ele>1171.0</ele><time>2026-05-03T12:46:35.001Z</time></trkpt><trkpt lat="42.00698645918605" lon="9.192592213635299"><ele>1175.5</ele><time>2026-05-03T12:46:36.001Z</time></trkpt><trkpt lat="42.00700394116608" lon="9.192769975336331"><ele>1180.0</ele><time>2026-05-03T12:46:37.001Z</time></trkpt><trkpt lat="42.00702957337195" lon="9.192927904770952"><ele>1180.0</ele><time>2026-05-03T12:46:38.001Z</time></trkpt><trkpt lat="42.00709127987643" lon="9.193055595500052"><ele>1180.0</ele><time>2026-05-03T12:46:39.001Z</time></trkpt><trkpt lat="42.00719048150235" lon="9.193144220939901"><ele>1180.0</ele><time>2026-05-03T12:46:40.002Z</time></trkpt><trkpt lat="42.00730695304315" lon="9.193205259108023"><ele>1180.0</ele><time>2026-05-03T12:46:41.002Z</time></trkpt><trkpt lat="42.0074306839372" lon="9.193212801983787"><ele>1180.0</ele><time>2026-05-03T12:46:42.002Z</time></trkpt><trkpt lat="42.007549768396096" lon="9.193187779250092"><ele>1180.0</ele><time>2026-05-03T12:46:43.002Z</time></trkpt><trkpt lat="42.00766034270529" lon="9.193123438206722"><ele>1180.0</ele><time>2026-05-03T12:46:44.002Z</time></trkpt><trkpt lat="42.00776543298517" lon="9.19302971576595"><ele>1180.0</ele><time>2026-05-03T12:46:45.002Z</time></trkpt><trkpt lat="42.007873771455046" lon="9.192941024648203"><ele>1180.0</ele><time>2026-05-03T12:46:46.002Z</time></trkpt><trkpt lat="42.007993494444584" lon="9.192857416355345"><ele>1180.0</ele><time>2026-05-03T12:46:47.002Z</time></trkpt><trkpt lat="42.00813322572772" lon="9.1927849462656"><ele>1180.0</ele><time>2026-05-03T12:46:48.002Z</time></trkpt><trkpt lat="42.008288530704114" lon="9.192715665690935"><ele>1180.0</ele><time>2026-05-03T12:46:49.002Z</time></trkpt><trkpt lat="42.00845682475035" lon="9.192653511517587"><ele>1183.6666666666665</ele><time>2026-05-03T12:46:50.002Z</time></trkpt><trkpt lat="42.008633909503" lon="9.192643879457842"><ele>1187.3333333333333</ele><time>2026-05-03T12:46:51.002Z</time></trkpt><trkpt lat="42.00882174498408" lon="9.192612663898938"><ele>1191.0</ele><time>2026-05-03T12:46:52.002Z</time></trkpt><trkpt lat="42.00899389936422" lon="9.192609819957571"><ele>1191.0</ele><time>2026-05-03T12:46:53.002Z</time></trkpt><trkpt lat="42.00915516477573" lon="9.192588210364361"><ele>1191.0</ele><time>2026-05-03T12:46:54.002Z</time></trkpt><trkpt lat="42.00931609071871" lon="9.192559966376567"><ele>1191.0</ele><time>2026-05-03T12:46:55.002Z</time></trkpt><trkpt lat="42.00948042209675" lon="9.192546046987806"><ele>1195.0</ele><time>2026-05-03T12:46:56.002Z</time></trkpt><trkpt lat="42.00964485457595" lon="9.19255876614549"><ele>1199.0</ele><time>2026-05-03T12:46:57.002Z</time></trkpt><trkpt lat="42.00978795037958" lon="9.19261177956453"><ele>1203.0</ele><time>2026-05-03T12:46:58.002Z</time></trkpt><trkpt lat="42.009937007105165" lon="9.192665430939845"><ele>1201.5</ele><time>2026-05-03T12:46:59.002Z</time></trkpt><trkpt lat="42.0100854070623" lon="9.1927209962551"><ele>1200.0</ele><time>2026-05-03T12:47:00Z</time></trkpt><trkpt lat="42.01020461708739" lon="9.192809247555303"><ele>1198.5</ele><time>2026-05-03T12:47:01Z</time></trkpt><trkpt lat="42.0103083842769" lon="9.192952294795578"><ele>1197.0</ele><time>2026-05-03T12:47:02Z</time></trkpt><trkpt lat="42.01036791582984" lon="9.19312043055819"><ele>1201.25</ele><time>2026-05-03T12:47:03Z</time></trkpt><trkpt lat="42.010432539322544" lon="9.193263885184315"><ele>1205.5</ele><time>2026-05-03T12:47:04Z</time></trkpt><trkpt lat="42.010510341571276" lon="9.19336269180939"><ele>1209.75</ele><time>2026-05-03T12:47:05Z</time></trkpt><trkpt lat="42.01059940489161" lon="9.193440579374602"><ele>1214.0</ele><time>2026-05-03T12:47:06Z</time></trkpt><trkpt lat="42.01070779751325" lon="9.193489266183908"><ele>1211.5</ele><time>2026-05-03T12:47:07Z</time></trkpt><trkpt lat="42.01083115503215" lon="9.193513464192051"><ele>1209.0</ele><time>2026-05-03T12:47:08Z</time></trkpt><trkpt lat="42.010964396037416" lon="9.193546759275957"><ele>1206.5</ele><time>2026-05-03T12:47:09Z</time></trkpt><trkpt lat="42.011090654438185" lon="9.193521047092515"><ele>1204.0</ele><time>2026-05-03T12:47:10Z</time></trkpt><trkpt lat="42.01120518108854" lon="9.193429174107234"><ele>1204.0</ele><time>2026-05-03T12:47:11Z</time></trkpt><trkpt lat="42.01130233567496" lon="9.193320419287822"><ele>1204.0</ele><time>2026-05-03T12:47:12Z</time></trkpt><trkpt lat="42.011390319545" lon="9.193215641038337"><ele>1204.0</ele><time>2026-05-03T12:47:13Z</time></trkpt><trkpt lat="42.01148696558892" lon="9.193196197414816"><ele>1204.0</ele><time>2026-05-03T12:47:14Z</time></trkpt><trkpt lat="42.01157790891535" lon="9.193191278613492"><ele>1204.0</ele><time>2026-05-03T12:47:15Z</time></trkpt><trkpt lat="42.0116712495133" lon="9.193292308551788"><ele>1202.25</ele><time>2026-05-03T12:47:16Z</time></trkpt><trkpt lat="42.01172390123399" lon="9.193424903604857"><ele>1200.5</ele><time>2026-05-03T12:47:17Z</time></trkpt><trkpt lat="42.01179181461008" lon="9.193551191355008"><ele>1198.75</ele><time>2026-05-03T12:47:18Z</time></trkpt><trkpt lat="42.011880466577225" lon="9.193675123070742"><ele>1197.0</ele><time>2026-05-03T12:47:19Z</time></trkpt><trkpt lat="42.011997833859404" lon="9.193789523959515"><ele>1197.0</ele><time>2026-05-03T12:47:20Z</time></trkpt><trkpt lat="42.012133328258386" lon="9.193872620467115"><ele>1197.0</ele><time>2026-05-03T12:47:21Z</time></trkpt><trkpt lat="42.01228148253631" lon="9.19395570254164"><ele>1197.0</ele><time>2026-05-03T12:47:22Z</time></trkpt><trkpt lat="42.01242433215185" lon="9.194028995645521"><ele>1199.25</ele><time>2026-05-03T12:47:23Z</time></trkpt><trkpt lat="42.01254339091586" lon="9.19411345057487"><ele>1201.5</ele><time>2026-05-03T12:47:24Z</time></trkpt><trkpt lat="42.01265885723578" lon="9.194199972462426"><ele>1203.75</ele><time>2026-05-03T12:47:25Z</time></trkpt><trkpt lat="42.01275432702657" lon="9.194300855279996"><ele>1206.0</ele><time>2026-05-03T12:47:26Z</time></trkpt><trkpt lat="42.01283584956004" lon="9.194375872648573"><ele>1206.0</ele><time>2026-05-03T12:47:27Z</time></trkpt><trkpt lat="42.012921974386806" lon="9.19440562847733"><ele>1206.0</ele><time>2026-05-03T12:47:28Z</time></trkpt><trkpt lat="42.01301244091553" lon="9.194362327285349"><ele>1206.0</ele><time>2026-05-03T12:47:29Z</time></trkpt><trkpt lat="42.01306911652035" lon="9.194269814513058"><ele>1206.0</ele><time>2026-05-03T12:47:30Z</time></trkpt><trkpt lat="42.013102526479436" lon="9.194162857458391"><ele>1206.0</ele><time>2026-05-03T12:47:31Z</time></trkpt><trkpt lat="42.013078804108446" lon="9.19400811357482"><ele>1203.6</ele><time>2026-05-03T12:47:32Z</time></trkpt><trkpt lat="42.0130907096344" lon="9.193858416363595"><ele>1201.1999999999998</ele><time>2026-05-03T12:47:33Z</time></trkpt><trkpt lat="42.01315120676949" lon="9.193719520890745"><ele>1198.8000000000002</ele><time>2026-05-03T12:47:34Z</time></trkpt><trkpt lat="42.01317034950296" lon="9.193570185353233"><ele>1196.4</ele><time>2026-05-03T12:47:35Z</time></trkpt><trkpt lat="42.01315034232423" lon="9.193439291916256"><ele>1194.0</ele><time>2026-05-03T12:47:36Z</time></trkpt><trkpt lat="42.01307588298728" lon="9.193321685210133"><ele>1194.0</ele><time>2026-05-03T12:47:37Z</time></trkpt><trkpt lat="42.012973397280504" lon="9.193215837152536"><ele>1194.0</ele><time>2026-05-03T12:47:38Z</time></trkpt><trkpt lat="42.01286482542715" lon="9.193096062452419"><ele>1194.0</ele><time>2026-05-03T12:47:39Z</time></trkpt><trkpt lat="42.012754129925916" lon="9.192964403540127"><ele>1194.0</ele><time>2026-05-03T12:47:40Z</time></trkpt><trkpt lat="42.012646470239645" lon="9.192843213739971"><ele>1194.5</ele><time>2026-05-03T12:47:41Z</time></trkpt><trkpt lat="42.01256978277312" lon="9.19271365128622"><ele>1195.0</ele><time>2026-05-03T12:47:42Z</time></trkpt><trkpt lat="42.01252717242296" lon="9.192565735941578"><ele>1195.5</ele><time>2026-05-03T12:47:43Z</time></trkpt><trkpt lat="42.01250909608709" lon="9.192413342653166"><ele>1196.0</ele><time>2026-05-03T12:47:44Z</time></trkpt><trkpt lat="42.012552482379455" lon="9.192295643225483"><ele>1196.0</ele><time>2026-05-03T12:47:45Z</time></trkpt><trkpt lat="42.01259785527412" lon="9.192172463539988"><ele>1196.0</ele><time>2026-05-03T12:47:46Z</time></trkpt><trkpt lat="42.01264813073158" lon="9.19203548974929"><ele>1196.0</ele><time>2026-05-03T12:47:47Z</time></trkpt><trkpt lat="42.01273642743914" lon="9.1919322763688"><ele>1196.0</ele><time>2026-05-03T12:47:48Z</time></trkpt><trkpt lat="42.01283981465868" lon="9.191863626825407"><ele>1196.0</ele><time>2026-05-03T12:47:49Z</time></trkpt><trkpt lat="42.01295954470066" lon="9.191844729795955"><ele>1196.0</ele><time>2026-05-03T12:47:50.001Z</time></trkpt><trkpt lat="42.01307879666939" lon="9.19189699704043"><ele>1196.0</ele><time>2026-05-03T12:47:51.001Z</time></trkpt><trkpt lat="42.01320415199852" lon="9.19194003777833"><ele>1196.0</ele><time>2026-05-03T12:47:52.001Z</time></trkpt><trkpt lat="42.013332939069805" lon="9.19202174867799"><ele>1196.0</ele><time>2026-05-03T12:47:53.001Z</time></trkpt><trkpt lat="42.01346817493456" lon="9.192114549673407"><ele>1200.3333333333335</ele><time>2026-05-03T12:47:54.001Z</time></trkpt><trkpt lat="42.013617101306885" lon="9.192189031191282"><ele>1204.6666666666667</ele><time>2026-05-03T12:47:55.001Z</time></trkpt><trkpt lat="42.013776583324244" lon="9.192237448396634"><ele>1209.0</ele><time>2026-05-03T12:47:56.001Z</time></trkpt><trkpt lat="42.01393042069495" lon="9.192270223516948"><ele>1209.0</ele><time>2026-05-03T12:47:57.001Z</time></trkpt><trkpt lat="42.01404297639484" lon="9.192307683504234"><ele>1209.0</ele><time>2026-05-03T12:47:58.001Z</time></trkpt><trkpt lat="42.01409736203035" lon="9.192410297314522"><ele>1209.0</ele><time>2026-05-03T12:47:59.001Z</time></trkpt><trkpt lat="42.01408641378528" lon="9.19254046565266"><ele>1209.0</ele><time>2026-05-03T12:48:00.001Z</time></trkpt><trkpt lat="42.014109399831476" lon="9.192685082450481"><ele>1209.0</ele><time>2026-05-03T12:48:01.001Z</time></trkpt><trkpt lat="42.01412431663054" lon="9.192859696359976"><ele>1211.0</ele><time>2026-05-03T12:48:02.001Z</time></trkpt><trkpt lat="42.01412795584986" lon="9.193037311633196"><ele>1213.0</ele><time>2026-05-03T12:48:03.001Z</time></trkpt><trkpt lat="42.01416277428612" lon="9.193215277770161"><ele>1215.0</ele><time>2026-05-03T12:48:04.001Z</time></trkpt><trkpt lat="42.01423631636916" lon="9.193385064480111"><ele>1217.0</ele><time>2026-05-03T12:48:05.001Z</time></trkpt><trkpt lat="42.01434271930734" lon="9.193553626432099"><ele>1217.0</ele><time>2026-05-03T12:48:06.001Z</time></trkpt><trkpt lat="42.01443157726082" lon="9.19370760578569"><ele>1217.0</ele><time>2026-05-03T12:48:07.001Z</time></trkpt><trkpt lat="42.01444121076799" lon="9.193882506443583"><ele>1217.0</ele><time>2026-05-03T12:48:08.001Z</time></trkpt><trkpt lat="42.014440605093455" lon="9.194048447617764"><ele>1217.0</ele><time>2026-05-03T12:48:09.001Z</time></trkpt><trkpt lat="42.01444006742356" lon="9.194220032182745"><ele>1218.75</ele><time>2026-05-03T12:48:10.001Z</time></trkpt><trkpt lat="42.01445190862441" lon="9.194381088358973"><ele>1220.5</ele><time>2026-05-03T12:48:11.001Z</time></trkpt><trkpt lat="42.01450568489315" lon="9.194536524173428"><ele>1222.25</ele><time>2026-05-03T12:48:12.001Z</time></trkpt><trkpt lat="42.014578077727954" lon="9.194683587182087"><ele>1224.0</ele><time>2026-05-03T12:48:13.001Z</time></trkpt><trkpt lat="42.01466110612303" lon="9.194820137352533"><ele>1223.0</ele><time>2026-05-03T12:48:14.001Z</time></trkpt><trkpt lat="42.01474972820652" lon="9.194918349704604"><ele>1222.0</ele><time>2026-05-03T12:48:15.001Z</time></trkpt><trkpt lat="42.01483119392025" lon="9.195002127468124"><ele>1221.0</ele><time>2026-05-03T12:48:16.001Z</time></trkpt><trkpt lat="42.01493005458813" lon="9.19500179927331"><ele>1220.0</ele><time>2026-05-03T12:48:17.001Z</time></trkpt><trkpt lat="42.01500663027803" lon="9.194943084259164"><ele>1219.0</ele><time>2026-05-03T12:48:18.001Z</time></trkpt><trkpt lat="42.01505951924161" lon="9.19482816921599"><ele>1219.0</ele><time>2026-05-03T12:48:19.001Z</time></trkpt><trkpt lat="42.01508903571125" lon="9.19468350833264"><ele>1219.0</ele><time>2026-05-03T12:48:20.001Z</time></trkpt><trkpt lat="42.015119831950486" lon="9.194522530403866"><ele>1219.0</ele><time>2026-05-03T12:48:21.001Z</time></trkpt><trkpt lat="42.01517138969994" lon="9.194350869932924"><ele>1219.0</ele><time>2026-05-03T12:48:22.001Z</time></trkpt><trkpt lat="42.01523508677197" lon="9.194173217407691"><ele>1215.5</ele><time>2026-05-03T12:48:23.001Z</time></trkpt><trkpt lat="42.01529817385953" lon="9.193995564940344"><ele>1212.0</ele><time>2026-05-03T12:48:24.001Z</time></trkpt><trkpt lat="42.01535679861553" lon="9.193814866427074"><ele>1208.5</ele><time>2026-05-03T12:48:25.001Z</time></trkpt><trkpt lat="42.015404928136775" lon="9.193631493479156"><ele>1205.0</ele><time>2026-05-03T12:48:26.001Z</time></trkpt><trkpt lat="42.01544159194026" lon="9.193450695743847"><ele>1205.0</ele><time>2026-05-03T12:48:27.001Z</time></trkpt><trkpt lat="42.015489565995566" lon="9.193301481595052"><ele>1205.0</ele><time>2026-05-03T12:48:28.001Z</time></trkpt><trkpt lat="42.015591114249595" lon="9.193202738596636"><ele>1205.0</ele><time>2026-05-03T12:48:29.001Z</time></trkpt><trkpt lat="42.015725983755424" lon="9.1931381135599"><ele>1205.0</ele><time>2026-05-03T12:48:30.001Z</time></trkpt><trkpt lat="42.015860772497994" lon="9.1930867818256"><ele>1204.3333333333335</ele><time>2026-05-03T12:48:31.001Z</time></trkpt><trkpt lat="42.01600554146664" lon="9.193071122536898"><ele>1203.6666666666667</ele><time>2026-05-03T12:48:32.001Z</time></trkpt><trkpt lat="42.0161539574756" lon="9.193062045326274"><ele>1203.0</ele><time>2026-05-03T12:48:33.001Z</time></trkpt><trkpt lat="42.01631930747659" lon="9.193061235429363"><ele>1203.0</ele><time>2026-05-03T12:48:34.001Z</time></trkpt><trkpt lat="42.016495146722605" lon="9.193055787691408"><ele>1203.0</ele><time>2026-05-03T12:48:35.001Z</time></trkpt><trkpt lat="42.01667806585813" lon="9.193063014448173"><ele>1203.0</ele><time>2026-05-03T12:48:36.001Z</time></trkpt><trkpt lat="42.01687158202547" lon="9.19306425481241"><ele>1206.0</ele><time>2026-05-03T12:48:37.001Z</time></trkpt><trkpt lat="42.01706845942204" lon="9.193049927010668"><ele>1209.0</ele><time>2026-05-03T12:48:38.001Z</time></trkpt><trkpt lat="42.01725093208859" lon="9.193002850476507"><ele>1212.0</ele><time>2026-05-03T12:48:39.001Z</time></trkpt><trkpt lat="42.01742403170046" lon="9.192972265431306"><ele>1213.0</ele><time>2026-05-03T12:48:40.001Z</time></trkpt><trkpt lat="42.01756543941027" lon="9.19304192249392"><ele>1214.0</ele><time>2026-05-03T12:48:41.001Z</time></trkpt><trkpt lat="42.01770335859161" lon="9.193095217048157"><ele>1215.0</ele><time>2026-05-03T12:48:42.001Z</time></trkpt><trkpt lat="42.0178161519947" lon="9.193152526565214"><ele>1216.0</ele><time>2026-05-03T12:48:43.001Z</time></trkpt><trkpt lat="42.01795251573645" lon="9.193138297061012"><ele>1216.0</ele><time>2026-05-03T12:48:44.001Z</time></trkpt><trkpt lat="42.018102129754716" lon="9.193067655477936"><ele>1216.0</ele><time>2026-05-03T12:48:45.001Z</time></trkpt><trkpt lat="42.01825488063657" lon="9.19299886302883"><ele>1216.0</ele><time>2026-05-03T12:48:46.001Z</time></trkpt><trkpt lat="42.01841511394865" lon="9.192937416894928"><ele>1219.3333333333333</ele><time>2026-05-03T12:48:47.001Z</time></trkpt><trkpt lat="42.01858492639792" lon="9.192899469650929"><ele>1222.6666666666667</ele><time>2026-05-03T12:48:48.001Z</time></trkpt><trkpt lat="42.01876114326097" lon="9.192885075825755"><ele>1226.0</ele><time>2026-05-03T12:48:49.001Z</time></trkpt><trkpt lat="42.018931592448496" lon="9.192884650425453"><ele>1226.0</ele><time>2026-05-03T12:48:50.001Z</time></trkpt><trkpt lat="42.01910666560589" lon="9.192889534497104"><ele>1226.0</ele><time>2026-05-03T12:48:51.001Z</time></trkpt><trkpt lat="42.01927765163544" lon="9.192942058216442"><ele>1226.0</ele><time>2026-05-03T12:48:52.001Z</time></trkpt><trkpt lat="42.01944155509951" lon="9.192980104422057"><ele>1229.3333333333335</ele><time>2026-05-03T12:48:53.001Z</time></trkpt><trkpt lat="42.01961907519602" lon="9.193047484205266"><ele>1232.6666666666667</ele><time>2026-05-03T12:48:54.001Z</time></trkpt><trkpt lat="42.019786401481504" lon="9.193117366402442"><ele>1236.0</ele><time>2026-05-03T12:48:55.001Z</time></trkpt><trkpt lat="42.0199505097815" lon="9.19319035879621"><ele>1237.0</ele><time>2026-05-03T12:48:56.001Z</time></trkpt><trkpt lat="42.02011427332651" lon="9.193264376799606"><ele>1238.0</ele><time>2026-05-03T12:48:57.002Z</time></trkpt><trkpt lat="42.020261573912705" lon="9.193364914999695"><ele>1239.0</ele><time>2026-05-03T12:48:58.002Z</time></trkpt><trkpt lat="42.02038823538247" lon="9.193491388476362"><ele>1239.0</ele><time>2026-05-03T12:48:59.002Z</time></trkpt><trkpt lat="42.02048746379934" lon="9.193643315544197"><ele>1239.0</ele><time>2026-05-03T12:49:00.002Z</time></trkpt><trkpt lat="42.020521390441814" lon="9.193826089124165"><ele>1239.0</ele><time>2026-05-03T12:49:01.002Z</time></trkpt><trkpt lat="42.02052292543545" lon="9.193994694429838"><ele>1239.0</ele><time>2026-05-03T12:49:02.002Z</time></trkpt><trkpt lat="42.020547858440814" lon="9.194166557463824"><ele>1245.0</ele><time>2026-05-03T12:49:03.002Z</time></trkpt><trkpt lat="42.020565515483625" lon="9.1943589160438"><ele>1251.0</ele><time>2026-05-03T12:49:04.002Z</time></trkpt><trkpt lat="42.02063643402813" lon="9.194547901657678"><ele>1257.0</ele><time>2026-05-03T12:49:05.002Z</time></trkpt><trkpt lat="42.02073861346106" lon="9.194745074022338"><ele>1252.6666666666667</ele><time>2026-05-03T12:49:06Z</time></trkpt><trkpt lat="42.020823780285674" lon="9.194941041977511"><ele>1248.3333333333335</ele><time>2026-05-03T12:49:07Z</time></trkpt><trkpt lat="42.02089661761924" lon="9.195121124380567"><ele>1244.0</ele><time>2026-05-03T12:49:08Z</time></trkpt><trkpt lat="42.02095279974718" lon="9.195293452985402"><ele>1244.0</ele><time>2026-05-03T12:49:09Z</time></trkpt><trkpt lat="42.021020501569254" lon="9.195443952247018"><ele>1244.0</ele><time>2026-05-03T12:49:10Z</time></trkpt><trkpt lat="42.02110433999294" lon="9.195578873219834"><ele>1244.0</ele><time>2026-05-03T12:49:11Z</time></trkpt><trkpt lat="42.02116931552928" lon="9.195716791420615"><ele>1244.0</ele><time>2026-05-03T12:49:12Z</time></trkpt><trkpt lat="42.02121187187796" lon="9.195850254933152"><ele>1246.4</ele><time>2026-05-03T12:49:13Z</time></trkpt><trkpt lat="42.021256139929946" lon="9.195968513743342"><ele>1248.8000000000002</ele><time>2026-05-03T12:49:14Z</time></trkpt><trkpt lat="42.02132037528511" lon="9.196039847079659"><ele>1251.1999999999998</ele><time>2026-05-03T12:49:15Z</time></trkpt><trkpt lat="42.02141089894235" lon="9.196036581478557"><ele>1253.6</ele><time>2026-05-03T12:49:16Z</time></trkpt><trkpt lat="42.02150251120884" lon="9.196001896236053"><ele>1256.0</ele><time>2026-05-03T12:49:17Z</time></trkpt><trkpt lat="42.02158403321051" lon="9.195902109399059"><ele>1256.0</ele><time>2026-05-03T12:49:18Z</time></trkpt><trkpt lat="42.02163782942541" lon="9.195756982772096"><ele>1256.0</ele><time>2026-05-03T12:49:19Z</time></trkpt><trkpt lat="42.021648612889855" lon="9.195602771567742"><ele>1256.0</ele><time>2026-05-03T12:49:20Z</time></trkpt><trkpt lat="42.021631893041" lon="9.195457441781603"><ele>1256.0</ele><time>2026-05-03T12:49:21Z</time></trkpt><trkpt lat="42.02165540889257" lon="9.19530797094397"><ele>1255.25</ele><time>2026-05-03T12:49:22Z</time></trkpt><trkpt lat="42.02164941845502" lon="9.19516005162113"><ele>1254.5</ele><time>2026-05-03T12:49:23Z</time></trkpt><trkpt lat="42.02166761192453" lon="9.194995397713122"><ele>1253.75</ele><time>2026-05-03T12:49:24Z</time></trkpt><trkpt lat="42.02171226966138" lon="9.194825717948396"><ele>1253.0</ele><time>2026-05-03T12:49:25Z</time></trkpt><trkpt lat="42.021773089069114" lon="9.19465339710233"><ele>1250.5</ele><time>2026-05-03T12:49:26Z</time></trkpt><trkpt lat="42.02184631405092" lon="9.194488536454633"><ele>1248.0</ele><time>2026-05-03T12:49:27Z</time></trkpt><trkpt lat="42.02191639310876" lon="9.194325563401392"><ele>1245.5</ele><time>2026-05-03T12:49:28Z</time></trkpt><trkpt lat="42.02198749696631" lon="9.194178854855881"><ele>1243.0</ele><time>2026-05-03T12:49:29Z</time></trkpt><trkpt lat="42.02209227499201" lon="9.194073382405646"><ele>1239.5</ele><time>2026-05-03T12:49:30Z</time></trkpt><trkpt lat="42.02220220060529" lon="9.1939936610076"><ele>1236.0</ele><time>2026-05-03T12:49:31Z</time></trkpt><trkpt lat="42.0223340387032" lon="9.193948950180848"><ele>1232.5</ele><time>2026-05-03T12:49:32Z</time></trkpt><trkpt lat="42.02246474453189" lon="9.193970620583453"><ele>1229.0</ele><time>2026-05-03T12:49:33Z</time></trkpt><trkpt lat="42.0225911715397" lon="9.194014625326767"><ele>1236.25</ele><time>2026-05-03T12:49:34Z</time></trkpt><trkpt lat="42.02271969342478" lon="9.194048855256982"><ele>1243.5</ele><time>2026-05-03T12:49:35Z</time></trkpt><trkpt lat="42.022854173734544" lon="9.194126735782785"><ele>1250.75</ele><time>2026-05-03T12:49:36Z</time></trkpt><trkpt lat="42.022986816517665" lon="9.19418889923255"><ele>1258.0</ele><time>2026-05-03T12:49:37Z</time></trkpt><trkpt lat="42.02312340709903" lon="9.194245991390263"><ele>1258.0</ele><time>2026-05-03T12:49:38Z</time></trkpt><trkpt lat="42.023270067738345" lon="9.194311098307491"><ele>1258.0</ele><time>2026-05-03T12:49:39Z</time></trkpt><trkpt lat="42.02340645346936" lon="9.194373101257597"><ele>1258.0</ele><time>2026-05-03T12:49:40Z</time></trkpt><trkpt lat="42.023532171752095" lon="9.194460979783944"><ele>1258.0</ele><time>2026-05-03T12:49:41Z</time></trkpt><trkpt lat="42.02366176732484" lon="9.194531024868136"><ele>1256.75</ele><time>2026-05-03T12:49:42Z</time></trkpt><trkpt lat="42.0237684720197" lon="9.194649163588995"><ele>1255.5</ele><time>2026-05-03T12:49:43Z</time></trkpt><trkpt lat="42.02383749230253" lon="9.194781007132082"><ele>1254.25</ele><time>2026-05-03T12:49:44Z</time></trkpt><trkpt lat="42.02387752842731" lon="9.194924680323265"><ele>1253.0</ele><time>2026-05-03T12:49:45Z</time></trkpt><trkpt lat="42.023934599934414" lon="9.195059435845282"><ele>1255.25</ele><time>2026-05-03T12:49:46Z</time></trkpt><trkpt lat="42.02404896813584" lon="9.195151100022231"><ele>1257.5</ele><time>2026-05-03T12:49:47Z</time></trkpt><trkpt lat="42.024180705021806" lon="9.195213163624608"><ele>1259.75</ele><time>2026-05-03T12:49:48Z</time></trkpt><trkpt lat="42.0243078682617" lon="9.195304574529173"><ele>1262.0</ele><time>2026-05-03T12:49:49Z</time></trkpt><trkpt lat="42.02443384578777" lon="9.195451893167954"><ele>1262.0</ele><time>2026-05-03T12:49:50Z</time></trkpt><trkpt lat="42.02453484864682" lon="9.195564906858419"><ele>1262.0</ele><time>2026-05-03T12:49:51Z</time></trkpt><trkpt lat="42.02460882902716" lon="9.195684210577388"><ele>1262.0</ele><time>2026-05-03T12:49:52Z</time></trkpt><trkpt lat="42.024667493434265" lon="9.195794912538686"><ele>1262.0</ele><time>2026-05-03T12:49:53Z</time></trkpt><trkpt lat="42.02476768990236" lon="9.19586366511332"><ele>1265.25</ele><time>2026-05-03T12:49:54Z</time></trkpt><trkpt lat="42.02491466242382" lon="9.195883474565404"><ele>1268.5</ele><time>2026-05-03T12:49:55Z</time></trkpt><trkpt lat="42.02507010971223" lon="9.195879848403537"><ele>1271.75</ele><time>2026-05-03T12:49:56.001Z</time></trkpt><trkpt lat="42.02520755155202" lon="9.1958614899755"><ele>1275.0</ele><time>2026-05-03T12:49:57.001Z</time></trkpt><trkpt lat="42.02533160962055" lon="9.195855653267657"><ele>1275.0</ele><time>2026-05-03T12:49:58.001Z</time></trkpt><trkpt lat="42.025470295788075" lon="9.19584516760467"><ele>1275.0</ele><time>2026-05-03T12:49:59.001Z</time></trkpt><trkpt lat="42.02562045877982" lon="9.195799639687753"><ele>1275.0</ele><time>2026-05-03T12:50:00.001Z</time></trkpt><trkpt lat="42.0257845933949" lon="9.195712147718861"><ele>1271.0</ele><time>2026-05-03T12:50:01.001Z</time></trkpt><trkpt lat="42.02595800457094" lon="9.195611375928594"><ele>1267.0</ele><time>2026-05-03T12:50:02.001Z</time></trkpt><trkpt lat="42.026128962226636" lon="9.195528213406487"><ele>1263.0</ele><time>2026-05-03T12:50:03.001Z</time></trkpt><trkpt lat="42.02629920364514" lon="9.195452400448616"><ele>1263.0</ele><time>2026-05-03T12:50:04.001Z</time></trkpt><trkpt lat="42.02645485129411" lon="9.1953900315043"><ele>1263.0</ele><time>2026-05-03T12:50:05.001Z</time></trkpt><trkpt lat="42.02661378295318" lon="9.195325378365572"><ele>1263.0</ele><time>2026-05-03T12:50:06.001Z</time></trkpt><trkpt lat="42.026766220209716" lon="9.195258581235104"><ele>1269.0</ele><time>2026-05-03T12:50:07.001Z</time></trkpt><trkpt lat="42.026914973106884" lon="9.195188282017755"><ele>1275.0</ele><time>2026-05-03T12:50:08.001Z</time></trkpt><trkpt lat="42.02706293966517" lon="9.195144195035517"><ele>1281.0</ele><time>2026-05-03T12:50:09.001Z</time></trkpt><trkpt lat="42.02720870036198" lon="9.195068846003553"><ele>1281.0</ele><time>2026-05-03T12:50:10.001Z</time></trkpt><trkpt lat="42.02734753865881" lon="9.195028526281458"><ele>1281.0</ele><time>2026-05-03T12:50:11.001Z</time></trkpt><trkpt lat="42.0274666398667" lon="9.195019943993412"><ele>1281.0</ele><time>2026-05-03T12:50:12.001Z</time></trkpt><trkpt lat="42.02757523630276" lon="9.195002486153468"><ele>1281.0</ele><time>2026-05-03T12:50:13.001Z</time></trkpt><trkpt lat="42.02768150265818" lon="9.194964738005554"><ele>1282.8333333333333</ele><time>2026-05-03T12:50:14.001Z</time></trkpt><trkpt lat="42.027762475442486" lon="9.194962519881791"><ele>1284.6666666666667</ele><time>2026-05-03T12:50:15.001Z</time></trkpt><trkpt lat="42.02783875488249" lon="9.194935546095982"><ele>1286.5</ele><time>2026-05-03T12:50:16.001Z</time></trkpt><trkpt lat="42.02790618573647" lon="9.19491197879813"><ele>1288.3333333333335</ele><time>2026-05-03T12:50:17.001Z</time></trkpt><trkpt lat="42.02802085894914" lon="9.194884074301832"><ele>1290.1666666666667</ele><time>2026-05-03T12:50:19.001Z</time></trkpt><trkpt lat="42.028103127701606" lon="9.19485622705262"><ele>1292.0</ele><time>2026-05-03T12:50:21.001Z</time></trkpt><trkpt lat="42.02817733908625" lon="9.19485074509592"><ele>1292.0000000000002</ele><time>2026-05-03T12:50:23.001Z</time></trkpt><trkpt lat="42.028240009899704" lon="9.194839034444335"><ele>1292.0</ele><time>2026-05-03T12:50:27.001Z</time></trkpt><trkpt lat="42.0283084789795" lon="9.194860264914766"><ele>1292.0</ele><time>2026-05-03T12:51:07.002Z</time></trkpt><trkpt lat="42.028367707260756" lon="9.19491586399114"><ele>1292.0</ele><time>2026-05-03T12:51:11.002Z</time></trkpt><trkpt lat="42.02841890680965" lon="9.194983474647133"><ele>1292.0</ele><time>2026-05-03T12:51:14Z</time></trkpt><trkpt lat="42.02847577170853" lon="9.195061123747486"><ele>1292.0000000000002</ele><time>2026-05-03T12:51:16Z</time></trkpt><trkpt lat="42.02853062420692" lon="9.195109266007762"><ele>1292.0</ele><time>2026-05-03T12:51:17Z</time></trkpt><trkpt lat="42.02858002631264" lon="9.195201957251818"><ele>1292.8</ele><time>2026-05-03T12:51:18Z</time></trkpt><trkpt lat="42.02863277291869" lon="9.195317715847997"><ele>1293.6</ele><time>2026-05-03T12:51:19Z</time></trkpt><trkpt lat="42.0286843207073" lon="9.195437627706394"><ele>1294.3999999999999</ele><time>2026-05-03T12:51:20Z</time></trkpt><trkpt lat="42.028724806064126" lon="9.195570872813592"><ele>1295.1999999999998</ele><time>2026-05-03T12:51:21Z</time></trkpt><trkpt lat="42.02877177866897" lon="9.195702038983168"><ele>1296.0</ele><time>2026-05-03T12:51:22Z</time></trkpt><trkpt lat="42.02880634164069" lon="9.195840546119316"><ele>1294.1999999999998</ele><time>2026-05-03T12:51:23Z</time></trkpt><trkpt lat="42.02887015654376" lon="9.195951631559614"><ele>1292.3999999999999</ele><time>2026-05-03T12:51:24Z</time></trkpt><trkpt lat="42.02895069006424" lon="9.196010830277599"><ele>1290.6</ele><time>2026-05-03T12:51:25Z</time></trkpt><trkpt lat="42.02902865522895" lon="9.196092006310456"><ele>1288.8</ele><time>2026-05-03T12:51:26Z</time></trkpt><trkpt lat="42.0290897143656" lon="9.19617328406472"><ele>1287.0</ele><time>2026-05-03T12:51:27Z</time></trkpt><trkpt lat="42.02915064708615" lon="9.196249128161035"><ele>1287.0</ele><time>2026-05-03T12:51:28Z</time></trkpt><trkpt lat="42.029213857907706" lon="9.19633043614464"><ele>1287.0</ele><time>2026-05-03T12:51:29Z</time></trkpt><trkpt lat="42.02928100305651" lon="9.196393825257857"><ele>1287.0</ele><time>2026-05-03T12:51:30Z</time></trkpt><trkpt lat="42.02937027293614" lon="9.196448523856313"><ele>1287.0</ele><time>2026-05-03T12:51:31Z</time></trkpt><trkpt lat="42.029488102921015" lon="9.196467933921408"><ele>1287.0</ele><time>2026-05-03T12:51:32Z</time></trkpt><trkpt lat="42.02960465277174" lon="9.196519389476913"><ele>1285.5</ele><time>2026-05-03T12:51:33Z</time></trkpt><trkpt lat="42.02973139868968" lon="9.196562215677035"><ele>1284.0</ele><time>2026-05-03T12:51:34Z</time></trkpt><trkpt lat="42.02987143681957" lon="9.196636323031946"><ele>1282.5</ele><time>2026-05-03T12:51:35Z</time></trkpt><trkpt lat="42.03000612756189" lon="9.196713696055914"><ele>1281.0</ele><time>2026-05-03T12:51:36Z</time></trkpt><trkpt lat="42.030131719490186" lon="9.196812091621954"><ele>1281.0</ele><time>2026-05-03T12:51:37Z</time></trkpt><trkpt lat="42.03025623602693" lon="9.196887983825041"><ele>1281.0</ele><time>2026-05-03T12:51:38Z</time></trkpt><trkpt lat="42.03037197777354" lon="9.19696213235068"><ele>1281.0</ele><time>2026-05-03T12:51:39Z</time></trkpt><trkpt lat="42.030485111038516" lon="9.197045883140225"><ele>1281.0</ele><time>2026-05-03T12:51:40Z</time></trkpt><trkpt lat="42.030595612321406" lon="9.197148173939624"><ele>1281.0</ele><time>2026-05-03T12:51:41Z</time></trkpt><trkpt lat="42.03069367076764" lon="9.197244997214817"><ele>1281.0</ele><time>2026-05-03T12:51:42Z</time></trkpt><trkpt lat="42.030795072201215" lon="9.197330671727878"><ele>1281.0</ele><time>2026-05-03T12:51:43Z</time></trkpt><trkpt lat="42.03088927099341" lon="9.197422389136756"><ele>1281.0</ele><time>2026-05-03T12:51:44.001Z</time></trkpt><trkpt lat="42.030977734856734" lon="9.19752587206734"><ele>1280.25</ele><time>2026-05-03T12:51:45.001Z</time></trkpt><trkpt lat="42.0310303606601" lon="9.197660439325764"><ele>1279.5</ele><time>2026-05-03T12:51:46.001Z</time></trkpt><trkpt lat="42.03109519084036" lon="9.197790061348819"><ele>1278.75</ele><time>2026-05-03T12:51:47.001Z</time></trkpt><trkpt lat="42.03117950162176" lon="9.197907646644591"><ele>1278.0</ele><time>2026-05-03T12:51:48.001Z</time></trkpt><trkpt lat="42.03125629693795" lon="9.198045325080587"><ele>1284.75</ele><time>2026-05-03T12:51:49.001Z</time></trkpt><trkpt lat="42.03134553515332" lon="9.198181801974927"><ele>1291.5</ele><time>2026-05-03T12:51:50.001Z</time></trkpt><trkpt lat="42.031427991446094" lon="9.19832946169008"><ele>1298.25</ele><time>2026-05-03T12:51:51.001Z</time></trkpt><trkpt lat="42.03148464552293" lon="9.198496114713341"><ele>1305.0</ele><time>2026-05-03T12:51:52.001Z</time></trkpt><trkpt lat="42.03152591060637" lon="9.19866181713695"><ele>1305.0</ele><time>2026-05-03T12:51:53.001Z</time></trkpt><trkpt lat="42.031549080136806" lon="9.198818254506891"><ele>1305.0</ele><time>2026-05-03T12:51:54.001Z</time></trkpt><trkpt lat="42.03153538009306" lon="9.198962949276341"><ele>1305.0</ele><time>2026-05-03T12:51:55.001Z</time></trkpt><trkpt lat="42.03155100872032" lon="9.199081176188493"><ele>1305.0</ele><time>2026-05-03T12:51:56.001Z</time></trkpt><trkpt lat="42.03158676222212" lon="9.199169503960665"><ele>1305.0</ele><time>2026-05-03T12:51:57.001Z</time></trkpt><trkpt lat="42.031664616042335" lon="9.199229023545534"><ele>1297.25</ele><time>2026-05-03T12:51:58.001Z</time></trkpt><trkpt lat="42.031768817350155" lon="9.199272204631644"><ele>1289.5</ele><time>2026-05-03T12:51:59.001Z</time></trkpt><trkpt lat="42.031896301596454" lon="9.199294257408804"><ele>1281.75</ele><time>2026-05-03T12:52:00.001Z</time></trkpt><trkpt lat="42.032038324502" lon="9.199278898392064"><ele>1274.0</ele><time>2026-05-03T12:52:01.001Z</time></trkpt><trkpt lat="42.032174342983126" lon="9.199272841241044"><ele>1274.0</ele><time>2026-05-03T12:52:02.001Z</time></trkpt><trkpt lat="42.03231375429681" lon="9.199291950929592"><ele>1274.0</ele><time>2026-05-03T12:52:03.001Z</time></trkpt><trkpt lat="42.03245504988338" lon="9.199302554730515"><ele>1274.0</ele><time>2026-05-03T12:52:04.001Z</time></trkpt><trkpt lat="42.03258945049554" lon="9.199313035242385"><ele>1274.0</ele><time>2026-05-03T12:52:05.001Z</time></trkpt><trkpt lat="42.03270850508408" lon="9.199290953328763"><ele>1271.25</ele><time>2026-05-03T12:52:06.001Z</time></trkpt><trkpt lat="42.03281340416346" lon="9.199204042182162"><ele>1268.5</ele><time>2026-05-03T12:52:07.001Z</time></trkpt><trkpt lat="42.03290287165889" lon="9.19908638270423"><ele>1265.75</ele><time>2026-05-03T12:52:08.001Z</time></trkpt><trkpt lat="42.03299214041654" lon="9.198969671850485"><ele>1263.0</ele><time>2026-05-03T12:52:09.001Z</time></trkpt><trkpt lat="42.033097090581" lon="9.198885870290347"><ele>1261.5</ele><time>2026-05-03T12:52:10.001Z</time></trkpt><trkpt lat="42.03321817945696" lon="9.19889971315324"><ele>1260.0</ele><time>2026-05-03T12:52:11.001Z</time></trkpt><trkpt lat="42.03332313724185" lon="9.198951486921905"><ele>1258.5</ele><time>2026-05-03T12:52:12.001Z</time></trkpt><trkpt lat="42.03345575680407" lon="9.199027491447856"><ele>1257.0</ele><time>2026-05-03T12:52:13.001Z</time></trkpt><trkpt lat="42.03358859923739" lon="9.199115986882799"><ele>1257.0</ele><time>2026-05-03T12:52:14.001Z</time></trkpt><trkpt lat="42.033688004295975" lon="9.199248709694237"><ele>1257.0</ele><time>2026-05-03T12:52:15.001Z</time></trkpt><trkpt lat="42.033789307927165" lon="9.199384145929795"><ele>1257.0</ele><time>2026-05-03T12:52:16.001Z</time></trkpt><trkpt lat="42.033894398574795" lon="9.199529398579894"><ele>1257.0</ele><time>2026-05-03T12:52:17.001Z</time></trkpt><trkpt lat="42.033999248474565" lon="9.19967431853282"><ele>1257.0</ele><time>2026-05-03T12:52:18.001Z</time></trkpt><trkpt lat="42.03410096404181" lon="9.199826922544766"><ele>1257.0</ele><time>2026-05-03T12:52:19.001Z</time></trkpt><trkpt lat="42.03419881843954" lon="9.199983976665774"><ele>1257.0</ele><time>2026-05-03T12:52:20.001Z</time></trkpt><trkpt lat="42.034294478853624" lon="9.200135911087013"><ele>1254.2</ele><time>2026-05-03T12:52:21.001Z</time></trkpt><trkpt lat="42.03438732539099" lon="9.200249069267208"><ele>1251.4</ele><time>2026-05-03T12:52:22.001Z</time></trkpt><trkpt lat="42.03444527701938" lon="9.200357086058757"><ele>1248.6</ele><time>2026-05-03T12:52:23.001Z</time></trkpt><trkpt lat="42.034479820326645" lon="9.200440047784847"><ele>1245.8</ele><time>2026-05-03T12:52:24.001Z</time></trkpt><trkpt lat="42.03449295310864" lon="9.200533457608472"><ele>1243.0</ele><time>2026-05-03T12:52:25.001Z</time></trkpt><trkpt lat="42.034452772998804" lon="9.20063355670713"><ele>1245.8333333333333</ele><time>2026-05-03T12:52:26.001Z</time></trkpt><trkpt lat="42.03437983602617" lon="9.2006986277093"><ele>1248.6666666666665</ele><time>2026-05-03T12:52:27.001Z</time></trkpt><trkpt lat="42.03433109960512" lon="9.20079977061552"><ele>1251.5</ele><time>2026-05-03T12:52:28.001Z</time></trkpt><trkpt lat="42.034304963734016" lon="9.200892367179279"><ele>1254.3333333333333</ele><time>2026-05-03T12:52:29.001Z</time></trkpt><trkpt lat="42.03434786543235" lon="9.200983593374318"><ele>1257.1666666666667</ele><time>2026-05-03T12:52:30.001Z</time></trkpt><trkpt lat="42.03440571391627" lon="9.201017893951073"><ele>1260.0</ele><time>2026-05-03T12:52:31.001Z</time></trkpt><trkpt lat="42.03449290297293" lon="9.20099525215012"><ele>1260.0</ele><time>2026-05-03T12:52:33.001Z</time></trkpt><trkpt lat="42.03454409388072" lon="9.20094295943876"><ele>1260.0</ele><time>2026-05-03T12:57:08.001Z</time></trkpt><trkpt lat="42.03459296793952" lon="9.20083966782563"><ele>1260.0</ele><time>2026-05-03T12:57:10.001Z</time></trkpt><trkpt lat="42.03463459948328" lon="9.200742929763642"><ele>1260.0</ele><time>2026-05-03T12:57:12.001Z</time></trkpt><trkpt lat="42.034659221154186" lon="9.200652199983338"><ele>1260.0</ele><time>2026-05-03T12:57:25.001Z</time></trkpt><trkpt lat="42.0346739674431" lon="9.20056758214022"><ele>1260.0</ele><time>2026-05-03T12:57:27.001Z</time></trkpt><trkpt lat="42.034665860581576" lon="9.200417845974432"><ele>1257.1666666666667</ele><time>2026-05-03T12:57:29.002Z</time></trkpt><trkpt lat="42.03460791054289" lon="9.200280183245226"><ele>1254.3333333333333</ele><time>2026-05-03T12:57:31.001Z</time></trkpt><trkpt lat="42.03457127412513" lon="9.200201433423471"><ele>1251.5</ele><time>2026-05-03T12:57:32.001Z</time></trkpt><trkpt lat="42.034532133103056" lon="9.200117300002791"><ele>1248.6666666666665</ele><time>2026-05-03T12:57:33.001Z</time></trkpt><trkpt lat="42.03447891357364" lon="9.200043754809906"><ele>1245.8333333333333</ele><time>2026-05-03T12:57:34.001Z</time></trkpt><trkpt lat="42.034456631160786" lon="9.199952800078703"><ele>1243.0</ele><time>2026-05-03T12:57:35.001Z</time></trkpt><trkpt lat="42.03440757092993" lon="9.199871743211382"><ele>1237.6</ele><time>2026-05-03T12:57:36.001Z</time></trkpt><trkpt lat="42.034374910595275" lon="9.199764851242527"><ele>1232.1999999999998</ele><time>2026-05-03T12:57:37.001Z</time></trkpt><trkpt lat="42.03434059644016" lon="9.199654325443502"><ele>1226.8</ele><time>2026-05-03T12:57:38.001Z</time></trkpt><trkpt lat="42.03429859667576" lon="9.199545963209907"><ele>1221.3999999999999</ele><time>2026-05-03T12:57:39.001Z</time></trkpt><trkpt lat="42.03424594003963" lon="9.199446173883919"><ele>1216.0</ele><time>2026-05-03T12:57:40.001Z</time></trkpt><trkpt lat="42.0342025947215" lon="9.199332552668068"><ele>1216.0</ele><time>2026-05-03T12:57:41.001Z</time></trkpt><trkpt lat="42.03413973787942" lon="9.199231723304923"><ele>1216.0</ele><time>2026-05-03T12:57:42.001Z</time></trkpt><trkpt lat="42.034064393828544" lon="9.19913697007309"><ele>1216.0</ele><time>2026-05-03T12:57:43.001Z</time></trkpt><trkpt lat="42.03399740322151" lon="9.199021293601051"><ele>1216.0</ele><time>2026-05-03T12:57:44.001Z</time></trkpt><trkpt lat="42.03392415066326" lon="9.198898239150925"><ele>1216.0</ele><time>2026-05-03T12:57:45Z</time></trkpt><trkpt lat="42.03384599331422" lon="9.198766271687983"><ele>1217.5</ele><time>2026-05-03T12:57:46Z</time></trkpt><trkpt lat="42.033764918757534" lon="9.198636760060939"><ele>1219.0</ele><time>2026-05-03T12:57:47Z</time></trkpt><trkpt lat="42.03367708081817" lon="9.198499825972446"><ele>1220.5</ele><time>2026-05-03T12:57:48Z</time></trkpt><trkpt lat="42.03358993160021" lon="9.198373623320972"><ele>1222.0</ele><time>2026-05-03T12:57:49Z</time></trkpt><trkpt lat="42.03349247219937" lon="9.198268810344064"><ele>1222.0</ele><time>2026-05-03T12:57:50Z</time></trkpt><trkpt lat="42.03336841349243" lon="9.198186793575086"><ele>1222.0</ele><time>2026-05-03T12:57:51Z</time></trkpt><trkpt lat="42.03322793333957" lon="9.19812292738785"><ele>1222.0</ele><time>2026-05-03T12:57:52Z</time></trkpt><trkpt lat="42.033071473530924" lon="9.19808564675334"><ele>1222.0</ele><time>2026-05-03T12:57:53Z</time></trkpt><trkpt lat="42.03290464685601" lon="9.198065746530416"><ele>1225.6666666666665</ele><time>2026-05-03T12:57:54Z</time></trkpt><trkpt lat="42.03273880309143" lon="9.198029718808826"><ele>1229.3333333333333</ele><time>2026-05-03T12:57:55Z</time></trkpt><trkpt lat="42.032593576271665" lon="9.198005237499732"><ele>1233.0</ele><time>2026-05-03T12:57:56Z</time></trkpt><trkpt lat="42.03245379273448" lon="9.197951683128183"><ele>1233.0</ele><time>2026-05-03T12:57:57Z</time></trkpt><trkpt lat="42.03232585930592" lon="9.19788273597664"><ele>1233.0</ele><time>2026-05-03T12:57:58Z</time></trkpt><trkpt lat="42.0321942019634" lon="9.197779069200173"><ele>1233.0</ele><time>2026-05-03T12:57:59Z</time></trkpt><trkpt lat="42.03210548192962" lon="9.197694632438825"><ele>1233.0</ele><time>2026-05-03T12:58:00Z</time></trkpt><trkpt lat="42.03204760762584" lon="9.197579364167531"><ele>1233.0</ele><time>2026-05-03T12:58:01Z</time></trkpt><trkpt lat="42.03202980812213" lon="9.197420539139944"><ele>1233.0</ele><time>2026-05-03T12:58:02.001Z</time></trkpt><trkpt lat="42.03198287678835" lon="9.197235404333632"><ele>1233.0</ele><time>2026-05-03T12:58:03.001Z</time></trkpt><trkpt lat="42.03193077439676" lon="9.197040868408463"><ele>1233.0</ele><time>2026-05-03T12:58:04.001Z</time></trkpt><trkpt lat="42.031866783428825" lon="9.196843721912442"><ele>1226.3333333333333</ele><time>2026-05-03T12:58:05.001Z</time></trkpt><trkpt lat="42.03179272608274" lon="9.196643171074362"><ele>1219.6666666666665</ele><time>2026-05-03T12:58:06.001Z</time></trkpt><trkpt lat="42.031724758936974" lon="9.196434670700379"><ele>1213.0</ele><time>2026-05-03T12:58:07.001Z</time></trkpt><trkpt lat="42.031643051270756" lon="9.19623195169762"><ele>1216.0</ele><time>2026-05-03T12:58:08.001Z</time></trkpt><trkpt lat="42.031542940925526" lon="9.196038225566085"><ele>1219.0</ele><time>2026-05-03T12:58:09.001Z</time></trkpt><trkpt lat="42.03143363015886" lon="9.195856870070724"><ele>1222.0</ele><time>2026-05-03T12:58:10.001Z</time></trkpt><trkpt lat="42.03136662613053" lon="9.195666414701456"><ele>1222.0</ele><time>2026-05-03T12:58:11.001Z</time></trkpt><trkpt lat="42.03131540538343" lon="9.195504416648287"><ele>1222.0</ele><time>2026-05-03T12:58:12.001Z</time></trkpt><trkpt lat="42.031272702213826" lon="9.195367419523512"><ele>1222.0</ele><time>2026-05-03T12:58:13.001Z</time></trkpt><trkpt lat="42.03128221765973" lon="9.195244764340286"><ele>1222.0</ele><time>2026-05-03T12:58:14.001Z</time></trkpt><trkpt lat="42.031337443897065" lon="9.195148359792245"><ele>1222.0</ele><time>2026-05-03T12:58:15.001Z</time></trkpt><trkpt lat="42.03143876042985" lon="9.195076201345886"><ele>1222.0</ele><time>2026-05-03T12:58:16.001Z</time></trkpt><trkpt lat="42.03156907216008" lon="9.195004918015727"><ele>1222.0</ele><time>2026-05-03T12:58:17.001Z</time></trkpt><trkpt lat="42.03170729900375" lon="9.194898978166673"><ele>1222.0</ele><time>2026-05-03T12:58:18.001Z</time></trkpt><trkpt lat="42.03182883541647" lon="9.194757708216532"><ele>1216.3333333333333</ele><time>2026-05-03T12:58:19.001Z</time></trkpt><trkpt lat="42.03194292432002" lon="9.194593191008165"><ele>1210.6666666666667</ele><time>2026-05-03T12:58:20.001Z</time></trkpt><trkpt lat="42.03206405358779" lon="9.194421647360201"><ele>1205.0</ele><time>2026-05-03T12:58:21.001Z</time></trkpt><trkpt lat="42.03220343009694" lon="9.194275188206936"><ele>1205.0</ele><time>2026-05-03T12:58:22.001Z</time></trkpt><trkpt lat="42.03235303046047" lon="9.194150925061296"><ele>1205.0</ele><time>2026-05-03T12:58:23.001Z</time></trkpt><trkpt lat="42.03251092083275" lon="9.194040809578581"><ele>1205.0</ele><time>2026-05-03T12:58:24.001Z</time></trkpt><trkpt lat="42.032659652286334" lon="9.193947027502901"><ele>1207.5</ele><time>2026-05-03T12:58:25.001Z</time></trkpt><trkpt lat="42.03280222505738" lon="9.193857035088337"><ele>1210.0</ele><time>2026-05-03T12:58:26.001Z</time></trkpt><trkpt lat="42.03293753824941" lon="9.193772453094676"><ele>1212.5</ele><time>2026-05-03T12:58:27.001Z</time></trkpt><trkpt lat="42.03306672182906" lon="9.193691000529705"><ele>1215.0</ele><time>2026-05-03T12:58:28.001Z</time></trkpt><trkpt lat="42.033194632088914" lon="9.193658365008826"><ele>1213.0</ele><time>2026-05-03T12:58:29.001Z</time></trkpt><trkpt lat="42.03332091347279" lon="9.193679119242894"><ele>1211.0</ele><time>2026-05-03T12:58:30.001Z</time></trkpt><trkpt lat="42.03344497878345" lon="9.193746246411418"><ele>1209.0</ele><time>2026-05-03T12:58:31.001Z</time></trkpt><trkpt lat="42.03357886165618" lon="9.19377456348708"><ele>1207.0</ele><time>2026-05-03T12:58:32.001Z</time></trkpt><trkpt lat="42.03371909633189" lon="9.193759314651942"><ele>1207.0</ele><time>2026-05-03T12:58:33.001Z</time></trkpt><trkpt lat="42.03386173720282" lon="9.193746828255408"><ele>1207.0</ele><time>2026-05-03T12:58:34.001Z</time></trkpt><trkpt lat="42.03399979711008" lon="9.193709616357264"><ele>1207.0</ele><time>2026-05-03T12:58:35.001Z</time></trkpt><trkpt lat="42.034137365717584" lon="9.19367353104572"><ele>1207.0</ele><time>2026-05-03T12:58:36.001Z</time></trkpt><trkpt lat="42.034271584896146" lon="9.19364342802342"><ele>1206.25</ele><time>2026-05-03T12:58:37.001Z</time></trkpt><trkpt lat="42.034400562368035" lon="9.193621130015313"><ele>1205.5</ele><time>2026-05-03T12:58:38.001Z</time></trkpt><trkpt lat="42.0345231855313" lon="9.193615749290846"><ele>1204.75</ele><time>2026-05-03T12:58:39.001Z</time></trkpt><trkpt lat="42.0346427193531" lon="9.19361873668794"><ele>1204.0</ele><time>2026-05-03T12:58:40.001Z</time></trkpt><trkpt lat="42.03476391731283" lon="9.1936510384257"><ele>1204.0</ele><time>2026-05-03T12:58:41.001Z</time></trkpt><trkpt lat="42.034882506231035" lon="9.193675293166496"><ele>1204.0</ele><time>2026-05-03T12:58:42.001Z</time></trkpt><trkpt lat="42.03500340893219" lon="9.193683265477226"><ele>1204.0</ele><time>2026-05-03T12:58:43.001Z</time></trkpt><trkpt lat="42.03512904350262" lon="9.19367614631609"><ele>1204.0</ele><time>2026-05-03T12:58:44.001Z</time></trkpt><trkpt lat="42.03524800899658" lon="9.193678871337148"><ele>1202.0</ele><time>2026-05-03T12:58:45.001Z</time></trkpt><trkpt lat="42.0353682525919" lon="9.193712005511738"><ele>1200.0</ele><time>2026-05-03T12:58:46.001Z</time></trkpt><trkpt lat="42.035476483576204" lon="9.193759702624778"><ele>1198.0</ele><time>2026-05-03T12:58:47.001Z</time></trkpt><trkpt lat="42.0355750131213" lon="9.19382468400189"><ele>1196.0</ele><time>2026-05-03T12:58:48.001Z</time></trkpt><trkpt lat="42.035679912085456" lon="9.193874329674705"><ele>1196.0</ele><time>2026-05-03T12:58:49.001Z</time></trkpt><trkpt lat="42.03579018879162" lon="9.193931286328626"><ele>1196.0</ele><time>2026-05-03T12:58:50.001Z</time></trkpt><trkpt lat="42.035921493228194" lon="9.193976112323764"><ele>1196.0</ele><time>2026-05-03T12:58:51.001Z</time></trkpt><trkpt lat="42.03605492256646" lon="9.193989658912677"><ele>1196.0</ele><time>2026-05-03T12:58:52.001Z</time></trkpt><trkpt lat="42.03618783782319" lon="9.193971951023244"><ele>1195.75</ele><time>2026-05-03T12:58:53.001Z</time></trkpt><trkpt lat="42.03631162188115" lon="9.193961080584401"><ele>1195.5</ele><time>2026-05-03T12:58:54.001Z</time></trkpt><trkpt lat="42.03643250055411" lon="9.193938585155674"><ele>1195.25</ele><time>2026-05-03T12:58:55.001Z</time></trkpt><trkpt lat="42.03655335292536" lon="9.193906838984493"><ele>1195.0</ele><time>2026-05-03T12:58:56.001Z</time></trkpt><trkpt lat="42.03666474732414" lon="9.193881812255315"><ele>1190.6666666666665</ele><time>2026-05-03T12:58:57.001Z</time></trkpt><trkpt lat="42.03675366269478" lon="9.193843630301508"><ele>1186.3333333333333</ele><time>2026-05-03T12:58:58.001Z</time></trkpt><trkpt lat="42.03682281626415" lon="9.193800824371518"><ele>1182.0</ele><time>2026-05-03T12:58:59.001Z</time></trkpt><trkpt lat="42.03688503052924" lon="9.193718630539973"><ele>1177.6666666666667</ele><time>2026-05-03T12:59:00.001Z</time></trkpt><trkpt lat="42.03691722220187" lon="9.193617031320237"><ele>1173.3333333333335</ele><time>2026-05-03T12:59:01.001Z</time></trkpt><trkpt lat="42.036924305093336" lon="9.193517835985835"><ele>1169.0</ele><time>2026-05-03T12:59:02.001Z</time></trkpt><trkpt lat="42.0369119624662" lon="9.193422291547002"><ele>1169.0</ele><time>2026-05-03T12:59:03.001Z</time></trkpt><trkpt lat="42.036918953609984" lon="9.19331232118705"><ele>1169.0</ele><time>2026-05-03T12:59:04.001Z</time></trkpt><trkpt lat="42.03691476475281" lon="9.193210071123847"><ele>1169.0</ele><time>2026-05-03T12:59:05.001Z</time></trkpt><trkpt lat="42.036938158581115" lon="9.193099867661731"><ele>1169.0</ele><time>2026-05-03T12:59:07.001Z</time></trkpt><trkpt lat="42.03702190551023" lon="9.193113686137677"><ele>1169.0</ele><time>2026-05-03T12:59:09.001Z</time></trkpt><trkpt lat="42.03702388677032" lon="9.19325995116144"><ele>1169.0</ele><time>2026-05-03T12:59:11.001Z</time></trkpt><trkpt lat="42.037029432261136" lon="9.193365287872904"><ele>1169.0</ele><time>2026-05-03T12:59:12.001Z</time></trkpt><trkpt lat="42.037028321409544" lon="9.193505209624657"><ele>1169.0</ele><time>2026-05-03T12:59:13.001Z</time></trkpt><trkpt lat="42.03702271384242" lon="9.193655536500694"><ele>1169.0</ele><time>2026-05-03T12:59:14.001Z</time></trkpt><trkpt lat="42.03700291045571" lon="9.19379210465741"><ele>1169.0</ele><time>2026-05-03T12:59:15.001Z</time></trkpt><trkpt lat="42.0369670809909" lon="9.193915485123501"><ele>1169.0</ele><time>2026-05-03T12:59:16.001Z</time></trkpt><trkpt lat="42.03688679506528" lon="9.193954698723777"><ele>1164.75</ele><time>2026-05-03T12:59:17.001Z</time></trkpt><trkpt lat="42.03681949229494" lon="9.194007385989885"><ele>1160.5</ele><time>2026-05-03T12:59:18.001Z</time></trkpt><trkpt lat="42.03672290472562" lon="9.194014780736293"><ele>1156.25</ele><time>2026-05-03T12:59:19.001Z</time></trkpt><trkpt lat="42.036597642412566" lon="9.194046206888023"><ele>1152.0</ele><time>2026-05-03T12:59:20.001Z</time></trkpt><trkpt lat="42.036449639737626" lon="9.194101236259668"><ele>1152.0</ele><time>2026-05-03T12:59:21.001Z</time></trkpt><trkpt lat="42.03629480456053" lon="9.194172919573477"><ele>1152.0</ele><time>2026-05-03T12:59:22.001Z</time></trkpt><trkpt lat="42.03615574788668" lon="9.194234816137183"><ele>1152.0</ele><time>2026-05-03T12:59:23.001Z</time></trkpt><trkpt lat="42.036021515540924" lon="9.194276465076504"><ele>1152.0</ele><time>2026-05-03T12:59:24.001Z</time></trkpt><trkpt lat="42.03589503118883" lon="9.19429943120014"><ele>1151.5</ele><time>2026-05-03T12:59:25.001Z</time></trkpt><trkpt lat="42.035755491558156" lon="9.194312889702646"><ele>1151.0</ele><time>2026-05-03T12:59:26.001Z</time></trkpt><trkpt lat="42.03561119186379" lon="9.194301228658292"><ele>1150.5</ele><time>2026-05-03T12:59:27.001Z</time></trkpt><trkpt lat="42.035464049787244" lon="9.19426533985654"><ele>1150.0</ele><time>2026-05-03T12:59:28.001Z</time></trkpt><trkpt lat="42.03531748210707" lon="9.194185119171912"><ele>1150.0</ele><time>2026-05-03T12:59:29.001Z</time></trkpt><trkpt lat="42.03514461248194" lon="9.194125954869023"><ele>1150.0</ele><time>2026-05-03T12:59:30.001Z</time></trkpt><trkpt lat="42.03496206084985" lon="9.194146851899621"><ele>1150.0</ele><time>2026-05-03T12:59:31.001Z</time></trkpt><trkpt lat="42.034776177012475" lon="9.19418457551333"><ele>1154.3333333333333</ele><time>2026-05-03T12:59:32.001Z</time></trkpt><trkpt lat="42.034589279840496" lon="9.194211028517673"><ele>1158.6666666666667</ele><time>2026-05-03T12:59:33.001Z</time></trkpt><trkpt lat="42.0344079287936" lon="9.194289271725888"><ele>1163.0</ele><time>2026-05-03T12:59:34.001Z</time></trkpt><trkpt lat="42.03422945615337" lon="9.194388259458238"><ele>1164.25</ele><time>2026-05-03T12:59:35.001Z</time></trkpt><trkpt lat="42.03407404191003" lon="9.194481318516921"><ele>1165.5</ele><time>2026-05-03T12:59:36.001Z</time></trkpt><trkpt lat="42.03394887382846" lon="9.194579830339729"><ele>1166.75</ele><time>2026-05-03T12:59:37.001Z</time></trkpt><trkpt lat="42.03386406264098" lon="9.194708135747113"><ele>1168.0</ele><time>2026-05-03T12:59:38.001Z</time></trkpt><trkpt lat="42.03383482995711" lon="9.19481356874876"><ele>1165.4</ele><time>2026-05-03T12:59:39.001Z</time></trkpt><trkpt lat="42.03387746611764" lon="9.194952824806268"><ele>1162.8</ele><time>2026-05-03T12:59:40.001Z</time></trkpt><trkpt lat="42.033912652442226" lon="9.195044684055484"><ele>1160.2</ele><time>2026-05-03T12:59:41.001Z</time></trkpt><trkpt lat="42.033965845155336" lon="9.19510120759202"><ele>1157.6</ele><time>2026-05-03T12:59:42.001Z</time></trkpt><trkpt lat="42.03402635462109" lon="9.19518960245024"><ele>1155.0</ele><time>2026-05-03T12:59:43.001Z</time></trkpt><trkpt lat="42.03410276399029" lon="9.195301273853469"><ele>1148.5</ele><time>2026-05-03T12:59:44.001Z</time></trkpt><trkpt lat="42.034178589628546" lon="9.195445138769315"><ele>1142.0</ele><time>2026-05-03T12:59:45.001Z</time></trkpt><trkpt lat="42.034260873429965" lon="9.195601501518187"><ele>1135.5</ele><time>2026-05-03T12:59:46Z</time></trkpt><trkpt lat="42.034342304334196" lon="9.19578363538906"><ele>1129.0</ele><time>2026-05-03T12:59:47Z</time></trkpt><trkpt lat="42.03443283557921" lon="9.195969988288548"><ele>1127.6666666666665</ele><time>2026-05-03T12:59:48Z</time></trkpt><trkpt lat="42.034533176763084" lon="9.196166379288089"><ele>1126.3333333333333</ele><time>2026-05-03T12:59:49Z</time></trkpt><trkpt lat="42.034647092515435" lon="9.196364940867777"><ele>1125.0</ele><time>2026-05-03T12:59:50Z</time></trkpt><trkpt lat="42.034759426704724" lon="9.196572583573284"><ele>1129.3333333333333</ele><time>2026-05-03T12:59:51Z</time></trkpt><trkpt lat="42.03487442807429" lon="9.196790671625669"><ele>1133.6666666666665</ele><time>2026-05-03T12:59:52Z</time></trkpt><trkpt lat="42.034999513814064" lon="9.197003698322131"><ele>1138.0</ele><time>2026-05-03T12:59:53Z</time></trkpt><trkpt lat="42.035121728321705" lon="9.19721449052196"><ele>1133.3333333333333</ele><time>2026-05-03T12:59:54Z</time></trkpt><trkpt lat="42.0352350962351" lon="9.19742037302413"><ele>1128.6666666666667</ele><time>2026-05-03T12:59:55Z</time></trkpt><trkpt lat="42.035397106792395" lon="9.197598191776212"><ele>1124.0</ele><time>2026-05-03T12:59:56Z</time></trkpt><trkpt lat="42.03554876062755" lon="9.19778089585551"><ele>1124.0</ele><time>2026-05-03T12:59:57Z</time></trkpt><trkpt lat="42.03570949820943" lon="9.197945240359909"><ele>1124.0</ele><time>2026-05-03T12:59:58Z</time></trkpt><trkpt lat="42.03581910233574" lon="9.198134927204105"><ele>1124.0</ele><time>2026-05-03T12:59:59Z</time></trkpt><trkpt lat="42.03591439298977" lon="9.19829908133272"><ele>1119.6666666666667</ele><time>2026-05-03T13:00:00Z</time></trkpt><trkpt lat="42.03602269682545" lon="9.198402990291648"><ele>1115.3333333333333</ele><time>2026-05-03T13:00:01Z</time></trkpt><trkpt lat="42.036170001338185" lon="9.19849363117584"><ele>1111.0</ele><time>2026-05-03T13:00:02Z</time></trkpt><trkpt lat="42.03634961242168" lon="9.198558684534884"><ele>1111.0</ele><time>2026-05-03T13:00:03Z</time></trkpt><trkpt lat="42.03655098506705" lon="9.198646368838473"><ele>1111.0</ele><time>2026-05-03T13:00:04Z</time></trkpt><trkpt lat="42.0367345948166" lon="9.19870024852877"><ele>1111.0</ele><time>2026-05-03T13:00:05Z</time></trkpt><trkpt lat="42.03688665552413" lon="9.198783197680275"><ele>1113.3333333333333</ele><time>2026-05-03T13:00:06Z</time></trkpt><trkpt lat="42.03702453611081" lon="9.1988868880653"><ele>1115.6666666666667</ele><time>2026-05-03T13:00:07Z</time></trkpt><trkpt lat="42.03716808344197" lon="9.199026123936102"><ele>1118.0</ele><time>2026-05-03T13:00:08Z</time></trkpt><trkpt lat="42.03732028099636" lon="9.199183784345927"><ele>1108.3333333333335</ele><time>2026-05-03T13:00:09Z</time></trkpt><trkpt lat="42.03749100501152" lon="9.199330955042512"><ele>1098.6666666666667</ele><time>2026-05-03T13:00:10Z</time></trkpt><trkpt lat="42.037663164851146" lon="9.1994669615626"><ele>1089.0</ele><time>2026-05-03T13:00:11Z</time></trkpt><trkpt lat="42.037794722193944" lon="9.199588384612335"><ele>1089.0</ele><time>2026-05-03T13:00:12.001Z</time></trkpt><trkpt lat="42.03788282766847" lon="9.199695496335416"><ele>1089.0</ele><time>2026-05-03T13:00:13.001Z</time></trkpt><trkpt lat="42.03793935952014" lon="9.199797385976348"><ele>1089.0</ele><time>2026-05-03T13:00:14.001Z</time></trkpt><trkpt lat="42.037985925145435" lon="9.199880214989449"><ele>1089.0</ele><time>2026-05-03T13:00:15.001Z</time></trkpt><trkpt lat="42.03793020896887" lon="9.199977988369156"><ele>1089.0</ele><time>2026-05-03T13:00:16.001Z</time></trkpt><trkpt lat="42.03786132878049" lon="9.200039483541163"><ele>1091.75</ele><time>2026-05-03T13:00:17.001Z</time></trkpt><trkpt lat="42.03778414990095" lon="9.200119447282585"><ele>1094.5</ele><time>2026-05-03T13:00:18.001Z</time></trkpt><trkpt lat="42.03768524831983" lon="9.200216392639183"><ele>1097.25</ele><time>2026-05-03T13:00:19.001Z</time></trkpt><trkpt lat="42.03757516537876" lon="9.200316435425103"><ele>1100.0</ele><time>2026-05-03T13:00:20.001Z</time></trkpt><trkpt lat="42.03748062134231" lon="9.200430863990192"><ele>1100.2</ele><time>2026-05-03T13:00:21.001Z</time></trkpt><trkpt lat="42.03740251149291" lon="9.200524889718846"><ele>1100.4</ele><time>2026-05-03T13:00:22.001Z</time></trkpt><trkpt lat="42.03733862851647" lon="9.200638752843933"><ele>1100.6</ele><time>2026-05-03T13:00:23.001Z</time></trkpt><trkpt lat="42.037376993143965" lon="9.200766319952296"><ele>1100.8</ele><time>2026-05-03T13:00:24.001Z</time></trkpt><trkpt lat="42.03744745202115" lon="9.200880571068337"><ele>1101.0</ele><time>2026-05-03T13:00:25.001Z</time></trkpt><trkpt lat="42.037536784210346" lon="9.200968886490024"><ele>1101.0</ele><time>2026-05-03T13:00:26.001Z</time></trkpt><trkpt lat="42.03765078315711" lon="9.201018583484522"><ele>1101.0</ele><time>2026-05-03T13:00:27.001Z</time></trkpt><trkpt lat="42.03779047374428" lon="9.20104993578198"><ele>1101.0</ele><time>2026-05-03T13:00:28.001Z</time></trkpt><trkpt lat="42.03795147224308" lon="9.201053535573259"><ele>1101.0</ele><time>2026-05-03T13:00:29.001Z</time></trkpt><trkpt lat="42.03811580521164" lon="9.20107407697813"><ele>1101.0</ele><time>2026-05-03T13:00:30.001Z</time></trkpt><trkpt lat="42.03826413192915" lon="9.201102163356063"><ele>1101.0</ele><time>2026-05-03T13:00:31.001Z</time></trkpt><trkpt lat="42.03837476618646" lon="9.201177105427243"><ele>1101.0</ele><time>2026-05-03T13:00:32.001Z</time></trkpt><trkpt lat="42.03844425914443" lon="9.201275661952252"><ele>1101.0</ele><time>2026-05-03T13:00:33.001Z</time></trkpt><trkpt lat="42.03845896599817" lon="9.201393973991191"><ele>1098.25</ele><time>2026-05-03T13:00:34.001Z</time></trkpt><trkpt lat="42.03849842971588" lon="9.20155449099907"><ele>1095.5</ele><time>2026-05-03T13:00:35.001Z</time></trkpt><trkpt lat="42.038525976189035" lon="9.201737819726583"><ele>1092.75</ele><time>2026-05-03T13:00:36.001Z</time></trkpt><trkpt lat="42.038534247184636" lon="9.201901499541487"><ele>1090.0</ele><time>2026-05-03T13:00:37.001Z</time></trkpt><trkpt lat="42.038550203041794" lon="9.202034527720821"><ele>1090.0</ele><time>2026-05-03T13:00:38.001Z</time></trkpt><trkpt lat="42.03858992913752" lon="9.202126799041254"><ele>1090.0</ele><time>2026-05-03T13:00:39.001Z</time></trkpt><trkpt lat="42.03862928084611" lon="9.202212992906016"><ele>1090.0</ele><time>2026-05-03T13:00:40.001Z</time></trkpt><trkpt lat="42.03871668213777" lon="9.202266586258068"><ele>1090.0</ele><time>2026-05-03T13:00:41.001Z</time></trkpt><trkpt lat="42.03881448814632" lon="9.202236274095037"><ele>1090.0</ele><time>2026-05-03T13:00:42.001Z</time></trkpt><trkpt lat="42.038896669163826" lon="9.202205045540211"><ele>1090.0</ele><time>2026-05-03T13:00:43.001Z</time></trkpt><trkpt lat="42.038997436405886" lon="9.202128652450446"><ele>1090.0</ele><time>2026-05-03T13:00:44.001Z</time></trkpt><trkpt lat="42.039107991576344" lon="9.202035815797563"><ele>1090.0</ele><time>2026-05-03T13:00:45.001Z</time></trkpt><trkpt lat="42.03923979009964" lon="9.201950983078625"><ele>1090.0</ele><time>2026-05-03T13:00:46.001Z</time></trkpt><trkpt lat="42.03938512889579" lon="9.20190603402276"><ele>1090.0</ele><time>2026-05-03T13:00:47.001Z</time></trkpt><trkpt lat="42.03952349571377" lon="9.201802321363957"><ele>1082.0</ele><time>2026-05-03T13:00:48.001Z</time></trkpt><trkpt lat="42.039653583085105" lon="9.201677438357693"><ele>1074.0</ele><time>2026-05-03T13:00:49.001Z</time></trkpt><trkpt lat="42.03979297234214" lon="9.201566723474446"><ele>1066.0</ele><time>2026-05-03T13:00:50.001Z</time></trkpt><trkpt lat="42.039892422726396" lon="9.201449580341698"><ele>1058.5</ele><time>2026-05-03T13:00:51.001Z</time></trkpt><trkpt lat="42.039992065072745" lon="9.201403639380207"><ele>1051.0</ele><time>2026-05-03T13:00:52.001Z</time></trkpt><trkpt lat="42.0400946246694" lon="9.201366231324345"><ele>1043.5</ele><time>2026-05-03T13:00:53.001Z</time></trkpt><trkpt lat="42.04021972096177" lon="9.201368602752638"><ele>1036.0</ele><time>2026-05-03T13:00:54.001Z</time></trkpt><trkpt lat="42.040353540719366" lon="9.201365119257591"><ele>1036.0</ele><time>2026-05-03T13:00:55.001Z</time></trkpt><trkpt lat="42.04048367726654" lon="9.201361969738416"><ele>1036.0</ele><time>2026-05-03T13:00:56.001Z</time></trkpt><trkpt lat="42.040619187773316" lon="9.201376848508843"><ele>1036.0</ele><time>2026-05-03T13:00:57.001Z</time></trkpt><trkpt lat="42.040769624885066" lon="9.201405989107444"><ele>1036.0</ele><time>2026-05-03T13:00:58.001Z</time></trkpt><trkpt lat="42.040921541403314" lon="9.20144667007582"><ele>1035.3333333333333</ele><time>2026-05-03T13:00:59.001Z</time></trkpt><trkpt lat="42.04106893899666" lon="9.201495299203852"><ele>1034.6666666666667</ele><time>2026-05-03T13:01:00.001Z</time></trkpt><trkpt lat="42.04123821037103" lon="9.20154057373756"><ele>1034.0</ele><time>2026-05-03T13:01:01.001Z</time></trkpt><trkpt lat="42.04140654170884" lon="9.201568556810887"><ele>1041.0</ele><time>2026-05-03T13:01:02.001Z</time></trkpt><trkpt lat="42.04157954773823" lon="9.201554148531"><ele>1048.0</ele><time>2026-05-03T13:01:03.001Z</time></trkpt><trkpt lat="42.041741922937554" lon="9.201582321025024"><ele>1055.0</ele><time>2026-05-03T13:01:04.001Z</time></trkpt><trkpt lat="42.041900994319406" lon="9.201607315759277"><ele>1055.0</ele><time>2026-05-03T13:01:05.001Z</time></trkpt><trkpt lat="42.0420469735153" lon="9.201649111688072"><ele>1055.0</ele><time>2026-05-03T13:01:06.001Z</time></trkpt><trkpt lat="42.04219369946748" lon="9.201686866453777"><ele>1055.0</ele><time>2026-05-03T13:01:07.001Z</time></trkpt><trkpt lat="42.04231718958085" lon="9.20175373517992"><ele>1055.0</ele><time>2026-05-03T13:01:08.001Z</time></trkpt><trkpt lat="42.04242887416378" lon="9.201814091649375"><ele>1052.0</ele><time>2026-05-03T13:01:09.001Z</time></trkpt><trkpt lat="42.04254002219829" lon="9.20190281400332"><ele>1049.0</ele><time>2026-05-03T13:01:10.001Z</time></trkpt><trkpt lat="42.04260668699188" lon="9.201962192550567"><ele>1046.0</ele><time>2026-05-03T13:01:11.001Z</time></trkpt><trkpt lat="42.042704596621604" lon="9.20207109334895"><ele>1043.0</ele><time>2026-05-03T13:01:13.001Z</time></trkpt><trkpt lat="42.042814440184166" lon="9.202045388081785"><ele>1040.0</ele><time>2026-05-03T13:01:15.001Z</time></trkpt><trkpt lat="42.04282901283698" lon="9.201900504320546"><ele>1040.0</ele><time>2026-05-03T13:01:17.001Z</time></trkpt><trkpt lat="42.042768657697934" lon="9.201824560849268"><ele>1040.0</ele><time>2026-05-03T13:01:18.001Z</time></trkpt><trkpt lat="42.04267403649517" lon="9.201743312117273"><ele>1040.0</ele><time>2026-05-03T13:01:19.001Z</time></trkpt><trkpt lat="42.04256409109464" lon="9.201644333669698"><ele>1040.0</ele><time>2026-05-03T13:01:20.001Z</time></trkpt><trkpt lat="42.042438007451416" lon="9.201534667133743"><ele>1035.6666666666667</ele><time>2026-05-03T13:01:21.001Z</time></trkpt><trkpt lat="42.04230046543531" lon="9.201429131293466"><ele>1031.3333333333333</ele><time>2026-05-03T13:01:22.001Z</time></trkpt><trkpt lat="42.04214745674388" lon="9.201335605315311"><ele>1027.0</ele><time>2026-05-03T13:01:23.001Z</time></trkpt><trkpt lat="42.041977625220554" lon="9.201242780579486"><ele>1027.0</ele><time>2026-05-03T13:01:24.001Z</time></trkpt><trkpt lat="42.041795020491165" lon="9.201168562509652"><ele>1027.0</ele><time>2026-05-03T13:01:25.001Z</time></trkpt><trkpt lat="42.04159444251847" lon="9.201101492069157"><ele>1027.0</ele><time>2026-05-03T13:01:26.001Z</time></trkpt><trkpt lat="42.04141892163043" lon="9.201037687922325"><ele>1029.3333333333333</ele><time>2026-05-03T13:01:27.001Z</time></trkpt><trkpt lat="42.04124182037637" lon="9.200969634037058"><ele>1031.6666666666667</ele><time>2026-05-03T13:01:28.001Z</time></trkpt><trkpt lat="42.041075390588894" lon="9.20087467920353"><ele>1034.0</ele><time>2026-05-03T13:01:29.001Z</time></trkpt><trkpt lat="42.04090995219661" lon="9.200784780901843"><ele>1034.6666666666667</ele><time>2026-05-03T13:01:30.001Z</time></trkpt><trkpt lat="42.04073170741192" lon="9.200698169218521"><ele>1035.3333333333333</ele><time>2026-05-03T13:01:31.001Z</time></trkpt><trkpt lat="42.04056749455167" lon="9.200648932807129"><ele>1036.0</ele><time>2026-05-03T13:01:32.001Z</time></trkpt><trkpt lat="42.04038751908542" lon="9.200583340089933"><ele>1034.0</ele><time>2026-05-03T13:01:33.001Z</time></trkpt><trkpt lat="42.040210949267454" lon="9.200540506629608"><ele>1032.0</ele><time>2026-05-03T13:01:34.001Z</time></trkpt><trkpt lat="42.04004363386717" lon="9.200520984750405"><ele>1030.0</ele><time>2026-05-03T13:01:35.001Z</time></trkpt><trkpt lat="42.03987954078381" lon="9.20052542613903"><ele>1030.0</ele><time>2026-05-03T13:01:36.001Z</time></trkpt><trkpt lat="42.03973788425944" lon="9.200521170245453"><ele>1030.0</ele><time>2026-05-03T13:01:37.001Z</time></trkpt><trkpt lat="42.039609412704394" lon="9.2005387407248"><ele>1030.0</ele><time>2026-05-03T13:01:38.001Z</time></trkpt><trkpt lat="42.03949427215696" lon="9.200525424546512"><ele>1030.0</ele><time>2026-05-03T13:01:39.001Z</time></trkpt><trkpt lat="42.03940936002425" lon="9.200478397417267"><ele>1030.0</ele><time>2026-05-03T13:01:40.001Z</time></trkpt><trkpt lat="42.039348176342486" lon="9.200378993177248"><ele>1030.0</ele><time>2026-05-03T13:01:41.001Z</time></trkpt><trkpt lat="42.03931695245575" lon="9.200219988900256"><ele>1030.0</ele><time>2026-05-03T13:01:42.001Z</time></trkpt><trkpt lat="42.039336930800864" lon="9.200064412115992"><ele>1030.0</ele><time>2026-05-03T13:01:43.001Z</time></trkpt><trkpt lat="42.03939021514603" lon="9.199940654471229"><ele>1030.0</ele><time>2026-05-03T13:01:44.001Z</time></trkpt><trkpt lat="42.039494984524616" lon="9.199877741746919"><ele>1030.5</ele><time>2026-05-03T13:01:45.001Z</time></trkpt><trkpt lat="42.03959610822702" lon="9.199770118566676"><ele>1031.0</ele><time>2026-05-03T13:01:46.001Z</time></trkpt><trkpt lat="42.03968550410796" lon="9.199666913571825"><ele>1031.5</ele><time>2026-05-03T13:01:47.001Z</time></trkpt><trkpt lat="42.03975360101384" lon="9.199557687995744"><ele>1032.0</ele><time>2026-05-03T13:01:48.001Z</time></trkpt><trkpt lat="42.03981471554243" lon="9.199445010808372"><ele>1032.0</ele><time>2026-05-03T13:01:49.001Z</time></trkpt><trkpt lat="42.03984660474172" lon="9.199318745709485"><ele>1032.0</ele><time>2026-05-03T13:01:50.001Z</time></trkpt><trkpt lat="42.039836896602644" lon="9.199186227435035"><ele>1032.0</ele><time>2026-05-03T13:01:51.001Z</time></trkpt><trkpt lat="42.039780316229866" lon="9.199060484159478"><ele>1032.0</ele><time>2026-05-03T13:01:52Z</time></trkpt><trkpt lat="42.03968105296911" lon="9.198943049860226"><ele>1032.0</ele><time>2026-05-03T13:01:53Z</time></trkpt><trkpt lat="42.039606168515554" lon="9.198801480234687"><ele>1029.25</ele><time>2026-05-03T13:01:54Z</time></trkpt><trkpt lat="42.039529198601834" lon="9.198648708586008"><ele>1026.5</ele><time>2026-05-03T13:01:55Z</time></trkpt><trkpt lat="42.03944256171344" lon="9.198513876040721"><ele>1023.75</ele><time>2026-05-03T13:01:56Z</time></trkpt><trkpt lat="42.03938115580205" lon="9.19837564073433"><ele>1021.0</ele><time>2026-05-03T13:01:57Z</time></trkpt><trkpt lat="42.03929787591818" lon="9.19824607610096"><ele>1022.5</ele><time>2026-05-03T13:01:58Z</time></trkpt><trkpt lat="42.039220239348715" lon="9.19810817443389"><ele>1024.0</ele><time>2026-05-03T13:01:59Z</time></trkpt><trkpt lat="42.03914283777447" lon="9.19797240507749"><ele>1025.5</ele><time>2026-05-03T13:02:00Z</time></trkpt><trkpt lat="42.03907153286836" lon="9.197828517635106"><ele>1027.0</ele><time>2026-05-03T13:02:01Z</time></trkpt><trkpt lat="42.039014744549185" lon="9.197672670465044"><ele>1027.0</ele><time>2026-05-03T13:02:02Z</time></trkpt><trkpt lat="42.038964902743025" lon="9.197510710113793"><ele>1027.0</ele><time>2026-05-03T13:02:03Z</time></trkpt><trkpt lat="42.038936461655254" lon="9.197374183011267"><ele>1027.0</ele><time>2026-05-03T13:02:04Z</time></trkpt><trkpt lat="42.038922534287394" lon="9.197246970505189"><ele>1027.0</ele><time>2026-05-03T13:02:05Z</time></trkpt><trkpt lat="42.03894323327979" lon="9.197135770434764"><ele>1027.0</ele><time>2026-05-03T13:02:06Z</time></trkpt><trkpt lat="42.038999298968704" lon="9.197054622268407"><ele>1026.6</ele><time>2026-05-03T13:02:07Z</time></trkpt><trkpt lat="42.03907842891744" lon="9.197007522232344"><ele>1026.2</ele><time>2026-05-03T13:02:08Z</time></trkpt><trkpt lat="42.03918207159417" lon="9.196972992285534"><ele>1025.8</ele><time>2026-05-03T13:02:09Z</time></trkpt><trkpt lat="42.03926877543371" lon="9.196933804210335"><ele>1025.4</ele><time>2026-05-03T13:02:10Z</time></trkpt><trkpt lat="42.039367869498015" lon="9.196905558628785"><ele>1025.0</ele><time>2026-05-03T13:02:11Z</time></trkpt><trkpt lat="42.039486861808065" lon="9.196870021094322"><ele>1021.2</ele><time>2026-05-03T13:02:12Z</time></trkpt><trkpt lat="42.039607606221345" lon="9.19683016879683"><ele>1017.4</ele><time>2026-05-03T13:02:13Z</time></trkpt><trkpt lat="42.039718521541026" lon="9.196800593448303"><ele>1013.5999999999999</ele><time>2026-05-03T13:02:14Z</time></trkpt><trkpt lat="42.039822303721095" lon="9.196756655306467"><ele>1009.8</ele><time>2026-05-03T13:02:15Z</time></trkpt><trkpt lat="42.039908382671996" lon="9.19669756092242"><ele>1006.0</ele><time>2026-05-03T13:02:16Z</time></trkpt><trkpt lat="42.0399717589702" lon="9.196610787063356"><ele>1002.1999999999999</ele><time>2026-05-03T13:02:17Z</time></trkpt><trkpt lat="42.03999188650537" lon="9.196490241286737"><ele>998.3999999999999</ele><time>2026-05-03T13:02:18Z</time></trkpt><trkpt lat="42.039982390257556" lon="9.19634488712351"><ele>994.6</ele><time>2026-05-03T13:02:19Z</time></trkpt><trkpt lat="42.03997945383356" lon="9.196193235683932"><ele>990.8</ele><time>2026-05-03T13:02:20Z</time></trkpt><trkpt lat="42.03998618941688" lon="9.196033443853413"><ele>987.0</ele><time>2026-05-03T13:02:21Z</time></trkpt><trkpt lat="42.03999678848477" lon="9.195876369584855"><ele>987.0</ele><time>2026-05-03T13:02:22Z</time></trkpt><trkpt lat="42.04000565760072" lon="9.195705749044606"><ele>987.0</ele><time>2026-05-03T13:02:23Z</time></trkpt><trkpt lat="42.0400133010164" lon="9.195529165358641"><ele>987.0</ele><time>2026-05-03T13:02:24Z</time></trkpt><trkpt lat="42.04000165402837" lon="9.195356969713858"><ele>987.0</ele><time>2026-05-03T13:02:25.001Z</time></trkpt><trkpt lat="42.0399612167633" lon="9.195180808056906"><ele>993.25</ele><time>2026-05-03T13:02:26.001Z</time></trkpt><trkpt lat="42.03989606472065" lon="9.195013712934232"><ele>999.5</ele><time>2026-05-03T13:02:27.001Z</time></trkpt><trkpt lat="42.03983223239535" lon="9.194839827903136"><ele>1005.75</ele><time>2026-05-03T13:02:28.001Z</time></trkpt><trkpt lat="42.03978624097347" lon="9.194660267690008"><ele>1012.0</ele><time>2026-05-03T13:02:29.001Z</time></trkpt><trkpt lat="42.03975067721043" lon="9.194489042260077"><ele>1012.0</ele><time>2026-05-03T13:02:30.001Z</time></trkpt><trkpt lat="42.03971462508803" lon="9.194326965707262"><ele>1012.0</ele><time>2026-05-03T13:02:31.001Z</time></trkpt><trkpt lat="42.039690093787435" lon="9.194186097860154"><ele>1012.0</ele><time>2026-05-03T13:02:32.001Z</time></trkpt><trkpt lat="42.03968805620701" lon="9.19406692396755"><ele>1012.0</ele><time>2026-05-03T13:02:33.001Z</time></trkpt><trkpt lat="42.03971951056184" lon="9.193972954648217"><ele>1012.0</ele><time>2026-05-03T13:02:34.001Z</time></trkpt><trkpt lat="42.0397841235802" lon="9.19390724323401"><ele>1009.8333333333333</ele><time>2026-05-03T13:02:35.001Z</time></trkpt><trkpt lat="42.03984975602931" lon="9.193846341670016"><ele>1007.6666666666666</ele><time>2026-05-03T13:02:36.001Z</time></trkpt><trkpt lat="42.03992133225275" lon="9.193792116943106"><ele>1005.5</ele><time>2026-05-03T13:02:37.001Z</time></trkpt><trkpt lat="42.039987017054955" lon="9.193752477287575"><ele>1003.3333333333333</ele><time>2026-05-03T13:02:38.001Z</time></trkpt><trkpt lat="42.04006383491606" lon="9.19373554006497"><ele>1001.1666666666666</ele><time>2026-05-03T13:02:39.001Z</time></trkpt><trkpt lat="42.04014213617113" lon="9.193771573974654"><ele>999.0</ele><time>2026-05-03T13:02:40.001Z</time></trkpt><trkpt lat="42.040217296424764" lon="9.193847097886755"><ele>996.2</ele><time>2026-05-03T13:02:41.001Z</time></trkpt><trkpt lat="42.040299048032274" lon="9.1939110911717"><ele>993.4000000000001</ele><time>2026-05-03T13:02:42.001Z</time></trkpt><trkpt lat="42.04039350499574" lon="9.193964826841292"><ele>990.6</ele><time>2026-05-03T13:02:43.001Z</time></trkpt><trkpt lat="42.04049939906474" lon="9.194004459085889"><ele>987.8</ele><time>2026-05-03T13:02:44.001Z</time></trkpt><trkpt lat="42.04061783746632" lon="9.194044068384983"><ele>985.0</ele><time>2026-05-03T13:02:45.001Z</time></trkpt><trkpt lat="42.04074342704808" lon="9.194097700235346"><ele>982.75</ele><time>2026-05-03T13:02:46.001Z</time></trkpt><trkpt lat="42.0408656829537" lon="9.194185986016185"><ele>980.5</ele><time>2026-05-03T13:02:47.001Z</time></trkpt><trkpt lat="42.04098751923975" lon="9.194299626230627"><ele>978.25</ele><time>2026-05-03T13:02:48.001Z</time></trkpt><trkpt lat="42.04111107352834" lon="9.194436837904954"><ele>976.0</ele><time>2026-05-03T13:02:49.001Z</time></trkpt><trkpt lat="42.041232909242076" lon="9.194559001612493"><ele>976.0</ele><time>2026-05-03T13:02:50.001Z</time></trkpt><trkpt lat="42.04134638301023" lon="9.194688765814096"><ele>976.0</ele><time>2026-05-03T13:02:51.001Z</time></trkpt><trkpt lat="42.041458335815044" lon="9.194816932976641"><ele>976.0</ele><time>2026-05-03T13:02:52.001Z</time></trkpt><trkpt lat="42.041561636826835" lon="9.194931251372683"><ele>976.0</ele><time>2026-05-03T13:02:53.001Z</time></trkpt><trkpt lat="42.041660435523966" lon="9.195032375367372"><ele>974.0</ele><time>2026-05-03T13:02:54.001Z</time></trkpt><trkpt lat="42.04175851202259" lon="9.195136997480738"><ele>972.0</ele><time>2026-05-03T13:02:55.001Z</time></trkpt><trkpt lat="42.04184014605831" lon="9.19524504495697"><ele>970.0</ele><time>2026-05-03T13:02:56.001Z</time></trkpt><trkpt lat="42.041953077716194" lon="9.19533917511036"><ele>968.0</ele><time>2026-05-03T13:02:57.001Z</time></trkpt><trkpt lat="42.04209257129042" lon="9.195380024233657"><ele>968.0</ele><time>2026-05-03T13:02:58.001Z</time></trkpt><trkpt lat="42.04220943548393" lon="9.195409659173775"><ele>968.0</ele><time>2026-05-03T13:02:59.001Z</time></trkpt><trkpt lat="42.04233424271343" lon="9.195489792802244"><ele>968.0</ele><time>2026-05-03T13:03:00.001Z</time></trkpt><trkpt lat="42.04245247226181" lon="9.195564061185566"><ele>968.0</ele><time>2026-05-03T13:03:01.001Z</time></trkpt><trkpt lat="42.04257488309097" lon="9.195617032485549"><ele>964.0</ele><time>2026-05-03T13:03:02.001Z</time></trkpt><trkpt lat="42.042686853373475" lon="9.195661949278989"><ele>960.0</ele><time>2026-05-03T13:03:03.001Z</time></trkpt><trkpt lat="42.04279906486671" lon="9.19570233896929"><ele>956.0</ele><time>2026-05-03T13:03:04.001Z</time></trkpt><trkpt lat="42.04291357975318" lon="9.195704310542096"><ele>952.0</ele><time>2026-05-03T13:03:05.001Z</time></trkpt><trkpt lat="42.04302012421208" lon="9.195693859548047"><ele>964.3333333333333</ele><time>2026-05-03T13:03:06.001Z</time></trkpt><trkpt lat="42.04311809981781" lon="9.195649132107027"><ele>976.6666666666667</ele><time>2026-05-03T13:03:07.001Z</time></trkpt><trkpt lat="42.04333572028791" lon="9.195576178452821"><ele>989.0</ele><time>2026-05-03T13:03:09.001Z</time></trkpt><trkpt lat="42.043463285936376" lon="9.195561472263861"><ele>989.75</ele><time>2026-05-03T13:03:10.001Z</time></trkpt><trkpt lat="42.043583787977475" lon="9.195546643134042"><ele>990.5</ele><time>2026-05-03T13:03:11.001Z</time></trkpt><trkpt lat="42.04371095823342" lon="9.195555708417809"><ele>991.25</ele><time>2026-05-03T13:03:12.001Z</time></trkpt><trkpt lat="42.04383997999566" lon="9.195589919278914"><ele>992.0</ele><time>2026-05-03T13:03:13.001Z</time></trkpt><trkpt lat="42.043964093671825" lon="9.195634876535534"><ele>987.8</ele><time>2026-05-03T13:03:14.001Z</time></trkpt><trkpt lat="42.044083425306724" lon="9.195681680056742"><ele>983.6</ele><time>2026-05-03T13:03:15.001Z</time></trkpt><trkpt lat="42.044189028530184" lon="9.195709881500992"><ele>979.3999999999999</ele><time>2026-05-03T13:03:16.001Z</time></trkpt><trkpt lat="42.044291561305336" lon="9.195701399533755"><ele>975.1999999999999</ele><time>2026-05-03T13:03:17.001Z</time></trkpt><trkpt lat="42.0443836497328" lon="9.195652745428804"><ele>971.0</ele><time>2026-05-03T13:03:18.001Z</time></trkpt><trkpt lat="42.04443241989912" lon="9.195531610792813"><ele>971.0</ele><time>2026-05-03T13:03:19.001Z</time></trkpt><trkpt lat="42.04447664177752" lon="9.195403105500896"><ele>970.9999999999999</ele><time>2026-05-03T13:03:20.001Z</time></trkpt><trkpt lat="42.04453215743991" lon="9.195274251884511"><ele>970.9999999999999</ele><time>2026-05-03T13:03:21.001Z</time></trkpt><trkpt lat="42.044608747659154" lon="9.195163409106435"><ele>971.0</ele><time>2026-05-03T13:03:22.001Z</time></trkpt><trkpt lat="42.044696568711444" lon="9.195075493383952"><ele>971.0</ele><time>2026-05-03T13:03:23.001Z</time></trkpt><trkpt lat="42.04479424675637" lon="9.19502545155548"><ele>971.0</ele><time>2026-05-03T13:03:24.001Z</time></trkpt><trkpt lat="42.04489889015106" lon="9.195038273231468"><ele>970.9999999999999</ele><time>2026-05-03T13:03:25.001Z</time></trkpt><trkpt lat="42.04497635633479" lon="9.195124921446725"><ele>970.9999999999999</ele><time>2026-05-03T13:03:26.001Z</time></trkpt><trkpt lat="42.04502309606115" lon="9.195246353048324"><ele>971.0</ele><time>2026-05-03T13:03:27.001Z</time></trkpt><trkpt lat="42.045081511702314" lon="9.19537607231041"><ele>971.0</ele><time>2026-05-03T13:03:28.001Z</time></trkpt><trkpt lat="42.04514169373857" lon="9.195500849272015"><ele>968.75</ele><time>2026-05-03T13:03:29.001Z</time></trkpt><trkpt lat="42.04521236090056" lon="9.195626475557201"><ele>966.5</ele><time>2026-05-03T13:03:30.001Z</time></trkpt><trkpt lat="42.04529498302171" lon="9.195743921593692"><ele>964.25</ele><time>2026-05-03T13:03:31.001Z</time></trkpt><trkpt lat="42.045394339603625" lon="9.195855171389622"><ele>962.0</ele><time>2026-05-03T13:03:32.001Z</time></trkpt><trkpt lat="42.04548048581889" lon="9.195976752930497"><ele>960.75</ele><time>2026-05-03T13:03:33.001Z</time></trkpt><trkpt lat="42.045576550564554" lon="9.196090185622234"><ele>959.5</ele><time>2026-05-03T13:03:34.001Z</time></trkpt><trkpt lat="42.04568048090386" lon="9.196192335354269"><ele>958.25</ele><time>2026-05-03T13:03:35.001Z</time></trkpt><trkpt lat="42.04579627651879" lon="9.19628120077147"><ele>957.0</ele><time>2026-05-03T13:03:36.001Z</time></trkpt><trkpt lat="42.04591474668777" lon="9.196388025340251"><ele>950.25</ele><time>2026-05-03T13:03:37.001Z</time></trkpt><trkpt lat="42.04603594481705" lon="9.196503106719312"><ele>943.5</ele><time>2026-05-03T13:03:38.001Z</time></trkpt><trkpt lat="42.046167271421886" lon="9.196606351052608"><ele>936.75</ele><time>2026-05-03T13:03:39.001Z</time></trkpt><trkpt lat="42.04629228361932" lon="9.196704234191987"><ele>930.0</ele><time>2026-05-03T13:03:40.001Z</time></trkpt><trkpt lat="42.046434476428686" lon="9.19675987638986"><ele>930.0</ele><time>2026-05-03T13:03:41.001Z</time></trkpt><trkpt lat="42.04656874947976" lon="9.196823881699743"><ele>930.0</ele><time>2026-05-03T13:03:42.001Z</time></trkpt><trkpt lat="42.04669742400792" lon="9.196850633168538"><ele>930.0</ele><time>2026-05-03T13:03:43.001Z</time></trkpt><trkpt lat="42.04683067440396" lon="9.196853666130963"><ele>930.0</ele><time>2026-05-03T13:03:44.001Z</time></trkpt><trkpt lat="42.04696138215449" lon="9.196820504975207"><ele>933.0</ele><time>2026-05-03T13:03:45.001Z</time></trkpt><trkpt lat="42.04708583986133" lon="9.196752720020084"><ele>936.0</ele><time>2026-05-03T13:03:46.001Z</time></trkpt><trkpt lat="42.04720656802932" lon="9.19670134513729"><ele>939.0</ele><time>2026-05-03T13:03:47.001Z</time></trkpt><trkpt lat="42.04732847054915" lon="9.19667762829063"><ele>942.0</ele><time>2026-05-03T13:03:48Z</time></trkpt><trkpt lat="42.04745091286127" lon="9.196656773646959"><ele>939.5</ele><time>2026-05-03T13:03:49Z</time></trkpt><trkpt lat="42.04758004330748" lon="9.196630804847423"><ele>937.0</ele><time>2026-05-03T13:03:50Z</time></trkpt><trkpt lat="42.047716860926045" lon="9.196588955117921"><ele>934.5</ele><time>2026-05-03T13:03:51Z</time></trkpt><trkpt lat="42.04786345596516" lon="9.196534112471872"><ele>932.0</ele><time>2026-05-03T13:03:52Z</time></trkpt><trkpt lat="42.048017709874124" lon="9.196475082637106"><ele>939.6666666666667</ele><time>2026-05-03T13:03:53Z</time></trkpt><trkpt lat="42.04816579654494" lon="9.196408594556294"><ele>947.3333333333333</ele><time>2026-05-03T13:03:54Z</time></trkpt><trkpt lat="42.048330619884794" lon="9.19634690574295"><ele>955.0</ele><time>2026-05-03T13:03:55Z</time></trkpt><trkpt lat="42.04848570058468" lon="9.196294238035337"><ele>955.0</ele><time>2026-05-03T13:03:56Z</time></trkpt><trkpt lat="42.04863468410135" lon="9.196244762133384"><ele>955.0</ele><time>2026-05-03T13:03:57Z</time></trkpt><trkpt lat="42.04877456539349" lon="9.19619027492544"><ele>955.0</ele><time>2026-05-03T13:03:58Z</time></trkpt><trkpt lat="42.04890690202966" lon="9.196139949338415"><ele>955.0</ele><time>2026-05-03T13:03:59Z</time></trkpt><trkpt lat="42.04901198609256" lon="9.196081846339776"><ele>955.0</ele><time>2026-05-03T13:04:00Z</time></trkpt><trkpt lat="42.04911179776907" lon="9.19599234598638"><ele>955.0</ele><time>2026-05-03T13:04:01Z</time></trkpt><trkpt lat="42.0491927186639" lon="9.195867503529533"><ele>955.0</ele><time>2026-05-03T13:04:02Z</time></trkpt><trkpt lat="42.04927854925076" lon="9.195785998880492"><ele>955.0</ele><time>2026-05-03T13:04:03Z</time></trkpt><trkpt lat="42.04936855859688" lon="9.195749190544099"><ele>955.0</ele><time>2026-05-03T13:04:04Z</time></trkpt><trkpt lat="42.04946308757894" lon="9.19582361101573"><ele>948.5</ele><time>2026-05-03T13:04:05Z</time></trkpt><trkpt lat="42.04955189597957" lon="9.195900907883752"><ele>942.0</ele><time>2026-05-03T13:04:06Z</time></trkpt><trkpt lat="42.04964057142446" lon="9.195999321931112"><ele>935.5</ele><time>2026-05-03T13:04:07Z</time></trkpt><trkpt lat="42.04975577433755" lon="9.196088616175818"><ele>929.0</ele><time>2026-05-03T13:04:08Z</time></trkpt><trkpt lat="42.0498656685961" lon="9.196161988493184"><ele>929.0</ele><time>2026-05-03T13:04:09Z</time></trkpt><trkpt lat="42.049991111243905" lon="9.196244200099803"><ele>929.0</ele><time>2026-05-03T13:04:10Z</time></trkpt><trkpt lat="42.05011413056691" lon="9.196314460827786"><ele>929.0</ele><time>2026-05-03T13:04:11Z</time></trkpt><trkpt lat="42.05023621966807" lon="9.196373536375125"><ele>929.0</ele><time>2026-05-03T13:04:12Z</time></trkpt><trkpt lat="42.050368059862826" lon="9.19639874718879"><ele>929.0</ele><time>2026-05-03T13:04:13Z</time></trkpt><trkpt lat="42.050511924380885" lon="9.196427526961466"><ele>929.0</ele><time>2026-05-03T13:04:14Z</time></trkpt><trkpt lat="42.05064586671123" lon="9.196438290832443"><ele>929.0</ele><time>2026-05-03T13:04:15Z</time></trkpt><trkpt lat="42.050771222170454" lon="9.196437251047088"><ele>929.0</ele><time>2026-05-03T13:04:16Z</time></trkpt><trkpt lat="42.05088051831793" lon="9.196412402297701"><ele>930.6</ele><time>2026-05-03T13:04:17Z</time></trkpt><trkpt lat="42.05098290031837" lon="9.196350063035846"><ele>932.2</ele><time>2026-05-03T13:04:18Z</time></trkpt><trkpt lat="42.05107094247761" lon="9.196257204488408"><ele>933.8000000000001</ele><time>2026-05-03T13:04:19Z</time></trkpt><trkpt lat="42.05116157077192" lon="9.196175077880044"><ele>935.4000000000001</ele><time>2026-05-03T13:04:20Z</time></trkpt><trkpt lat="42.05126394287708" lon="9.196131768196294"><ele>937.0</ele><time>2026-05-03T13:04:21Z</time></trkpt><trkpt lat="42.05137488130114" lon="9.19613738616806"><ele>937.0</ele><time>2026-05-03T13:04:22Z</time></trkpt><trkpt lat="42.05147680843438" lon="9.196209320289693"><ele>937.0</ele><time>2026-05-03T13:04:23Z</time></trkpt><trkpt lat="42.051572974573155" lon="9.196302118419338"><ele>937.0</ele><time>2026-05-03T13:04:24Z</time></trkpt><trkpt lat="42.05166712777944" lon="9.196406497913618"><ele>937.0</ele><time>2026-05-03T13:04:25Z</time></trkpt><trkpt lat="42.051759979560366" lon="9.196503031153991"><ele>924.5</ele><time>2026-05-03T13:04:26Z</time></trkpt><trkpt lat="42.051868959398185" lon="9.196567818775877"><ele>912.0</ele><time>2026-05-03T13:04:27Z</time></trkpt><trkpt lat="42.05198602775063" lon="9.196587363918361"><ele>899.5</ele><time>2026-05-03T13:04:28Z</time></trkpt><trkpt lat="42.052106471953" lon="9.196587977273243"><ele>887.0</ele><time>2026-05-03T13:04:29Z</time></trkpt><trkpt lat="42.05223119478553" lon="9.19658374447393"><ele>887.0</ele><time>2026-05-03T13:04:30Z</time></trkpt><trkpt lat="42.05235998858286" lon="9.19658312364101"><ele>887.0</ele><time>2026-05-03T13:04:31Z</time></trkpt><trkpt lat="42.05249358131487" lon="9.196576474032154"><ele>887.0</ele><time>2026-05-03T13:04:32Z</time></trkpt><trkpt lat="42.052629156471326" lon="9.19653809509336"><ele>887.0</ele><time>2026-05-03T13:04:33Z</time></trkpt><trkpt lat="42.052768458477196" lon="9.196496227034315"><ele>892.0</ele><time>2026-05-03T13:04:34Z</time></trkpt><trkpt lat="42.05290555635414" lon="9.196445315689672"><ele>897.0</ele><time>2026-05-03T13:04:35Z</time></trkpt><trkpt lat="42.05305057775956" lon="9.196396731620531"><ele>902.0</ele><time>2026-05-03T13:04:36Z</time></trkpt><trkpt lat="42.053192192876274" lon="9.196345272211888"><ele>907.0</ele><time>2026-05-03T13:04:37Z</time></trkpt><trkpt lat="42.05332165203634" lon="9.196290256288904"><ele>907.0</ele><time>2026-05-03T13:04:38Z</time></trkpt><trkpt lat="42.05344316365936" lon="9.19621201087913"><ele>907.0</ele><time>2026-05-03T13:04:39Z</time></trkpt><trkpt lat="42.05354622464515" lon="9.196107527839146"><ele>907.0</ele><time>2026-05-03T13:04:40Z</time></trkpt><trkpt lat="42.05363643922242" lon="9.195980251457868"><ele>907.0</ele><time>2026-05-03T13:04:41Z</time></trkpt><trkpt lat="42.05370299519047" lon="9.195820715322592"><ele>914.5</ele><time>2026-05-03T13:04:42Z</time></trkpt><trkpt lat="42.053760380258794" lon="9.195664562077813"><ele>922.0</ele><time>2026-05-03T13:04:43Z</time></trkpt><trkpt lat="42.053842687685474" lon="9.195535714567448"><ele>929.5</ele><time>2026-05-03T13:04:44Z</time></trkpt><trkpt lat="42.053950372228385" lon="9.195453937863332"><ele>937.0</ele><time>2026-05-03T13:04:45Z</time></trkpt><trkpt lat="42.054067618126766" lon="9.195429189455304"><ele>927.0</ele><time>2026-05-03T13:04:46Z</time></trkpt><trkpt lat="42.054195537189266" lon="9.195448476176875"><ele>917.0</ele><time>2026-05-03T13:04:47Z</time></trkpt><trkpt lat="42.05432038010069" lon="9.195487324358506"><ele>907.0</ele><time>2026-05-03T13:04:48Z</time></trkpt><trkpt lat="42.054444308296596" lon="9.195495752813121"><ele>897.0</ele><time>2026-05-03T13:04:49Z</time></trkpt><trkpt lat="42.05457154995383" lon="9.19546763348815"><ele>897.0</ele><time>2026-05-03T13:04:50Z</time></trkpt><trkpt lat="42.0546712609515" lon="9.195385855881632"><ele>897.0</ele><time>2026-05-03T13:04:51Z</time></trkpt><trkpt lat="42.05471951473462" lon="9.195262252137749"><ele>897.0</ele><time>2026-05-03T13:04:52Z</time></trkpt><trkpt lat="42.05473085188114" lon="9.195128133987522"><ele>897.0</ele><time>2026-05-03T13:04:53Z</time></trkpt><trkpt lat="42.054742812849824" lon="9.194992758171294"><ele>897.0</ele><time>2026-05-03T13:04:54Z</time></trkpt><trkpt lat="42.054773780002144" lon="9.194857502064368"><ele>900.4000000000001</ele><time>2026-05-03T13:04:55Z</time></trkpt><trkpt lat="42.05482364386243" lon="9.194733608531205"><ele>903.8000000000001</ele><time>2026-05-03T13:04:56Z</time></trkpt><trkpt lat="42.05490253029145" lon="9.194641747584027"><ele>907.2</ele><time>2026-05-03T13:04:57Z</time></trkpt><trkpt lat="42.05499820353344" lon="9.19458177928094"><ele>910.6</ele><time>2026-05-03T13:04:58Z</time></trkpt><trkpt lat="42.055094076120035" lon="9.194532124918062"><ele>914.0</ele><time>2026-05-03T13:04:59Z</time></trkpt><trkpt lat="42.05517569069694" lon="9.194456400162387"><ele>908.6</ele><time>2026-05-03T13:05:00Z</time></trkpt><trkpt lat="42.05521592097945" lon="9.194343033985584"><ele>903.2</ele><time>2026-05-03T13:05:01Z</time></trkpt><trkpt lat="42.05522267240251" lon="9.19421866693865"><ele>897.8000000000001</ele><time>2026-05-03T13:05:02Z</time></trkpt><trkpt lat="42.05521625545396" lon="9.19408522387682"><ele>892.4000000000001</ele><time>2026-05-03T13:05:03Z</time></trkpt><trkpt lat="42.05523914592687" lon="9.193962180345379"><ele>887.0</ele><time>2026-05-03T13:05:04Z</time></trkpt><trkpt lat="42.05529717906736" lon="9.193866363670022"><ele>887.0000000000001</ele><time>2026-05-03T13:05:05Z</time></trkpt><trkpt lat="42.05537682633373" lon="9.193820644591405"><ele>887.0</ele><time>2026-05-03T13:05:06Z</time></trkpt><trkpt lat="42.055453864332385" lon="9.193837556379119"><ele>887.0</ele><time>2026-05-03T13:05:07Z</time></trkpt><trkpt lat="42.05553818483253" lon="9.193879267744684"><ele>887.0</ele><time>2026-05-03T13:05:08Z</time></trkpt><trkpt lat="42.05562458870496" lon="9.193918786410727"><ele>887.0000000000001</ele><time>2026-05-03T13:05:09Z</time></trkpt><trkpt lat="42.05571518635737" lon="9.193953940732012"><ele>887.0</ele><time>2026-05-03T13:05:10Z</time></trkpt><trkpt lat="42.05581591132283" lon="9.193998716822495"><ele>881.0</ele><time>2026-05-03T13:05:11Z</time></trkpt><trkpt lat="42.05591995284768" lon="9.194047235867547"><ele>875.0</ele><time>2026-05-03T13:05:12Z</time></trkpt><trkpt lat="42.05601461397175" lon="9.194109106589213"><ele>869.0</ele><time>2026-05-03T13:05:13Z</time></trkpt><trkpt lat="42.05609802809587" lon="9.194186228019875"><ele>863.0</ele><time>2026-05-03T13:05:14Z</time></trkpt><trkpt lat="42.05618186070117" lon="9.19427299634539"><ele>857.0</ele><time>2026-05-03T13:05:15Z</time></trkpt><trkpt lat="42.05626270530124" lon="9.194358274205557"><ele>857.0000000000001</ele><time>2026-05-03T13:05:16Z</time></trkpt><trkpt lat="42.05634797142363" lon="9.19441615092191"><ele>857.0</ele><time>2026-05-03T13:05:17Z</time></trkpt><trkpt lat="42.05643971362611" lon="9.194422962782715"><ele>857.0</ele><time>2026-05-03T13:05:18Z</time></trkpt><trkpt lat="42.056511583247215" lon="9.19435919911686"><ele>857.0</ele><time>2026-05-03T13:05:19.001Z</time></trkpt><trkpt lat="42.056562958973544" lon="9.194275594943461"><ele>857.0000000000001</ele><time>2026-05-03T13:05:20.001Z</time></trkpt><trkpt lat="42.056604150009335" lon="9.194177128153664"><ele>857.0</ele><time>2026-05-03T13:05:21.001Z</time></trkpt><trkpt lat="42.05664301208753" lon="9.194044652563285"><ele>857.25</ele><time>2026-05-03T13:05:22.001Z</time></trkpt><trkpt lat="42.056689631988824" lon="9.193888144517128"><ele>857.5</ele><time>2026-05-03T13:05:23.001Z</time></trkpt><trkpt lat="42.05673958419996" lon="9.193724128951786"><ele>857.75</ele><time>2026-05-03T13:05:24.001Z</time></trkpt><trkpt lat="42.05678483844601" lon="9.19354126631688"><ele>858.0</ele><time>2026-05-03T13:05:25.001Z</time></trkpt><trkpt lat="42.056806616617244" lon="9.193348233610141"><ele>856.75</ele><time>2026-05-03T13:05:26.001Z</time></trkpt><trkpt lat="42.05679892375648" lon="9.193146641732215"><ele>855.5</ele><time>2026-05-03T13:05:27.001Z</time></trkpt><trkpt lat="42.056775985411306" lon="9.192953019427323"><ele>854.25</ele><time>2026-05-03T13:05:28.001Z</time></trkpt><trkpt lat="42.0567537406658" lon="9.192775953115511"><ele>853.0</ele><time>2026-05-03T13:05:29.001Z</time></trkpt><trkpt lat="42.05675596986274" lon="9.192608179110444"><ele>853.0</ele><time>2026-05-03T13:05:30.001Z</time></trkpt><trkpt lat="42.05672976084198" lon="9.192455516841981"><ele>853.0</ele><time>2026-05-03T13:05:31.001Z</time></trkpt><trkpt lat="42.05672763672884" lon="9.192322638804027"><ele>853.0</ele><time>2026-05-03T13:05:32.001Z</time></trkpt><trkpt lat="42.056753040082455" lon="9.192196215685621"><ele>853.0</ele><time>2026-05-03T13:05:33.001Z</time></trkpt><trkpt lat="42.056811569129145" lon="9.192099831989445"><ele>853.0</ele><time>2026-05-03T13:05:34.001Z</time></trkpt><trkpt lat="42.056892893407095" lon="9.19205190100939"><ele>854.4</ele><time>2026-05-03T13:05:35.001Z</time></trkpt><trkpt lat="42.05698891552921" lon="9.192051324821396"><ele>855.8</ele><time>2026-05-03T13:05:36.001Z</time></trkpt><trkpt lat="42.057087683468644" lon="9.192124644486753"><ele>857.2</ele><time>2026-05-03T13:05:37.001Z</time></trkpt><trkpt lat="42.05719604932986" lon="9.192166009120275"><ele>858.6</ele><time>2026-05-03T13:05:38.001Z</time></trkpt><trkpt lat="42.057294228751026" lon="9.192227263310329"><ele>860.0</ele><time>2026-05-03T13:05:39.001Z</time></trkpt><trkpt lat="42.057398381896164" lon="9.192295812165295"><ele>857.75</ele><time>2026-05-03T13:05:40.001Z</time></trkpt><trkpt lat="42.05750144901052" lon="9.192361898939293"><ele>855.5</ele><time>2026-05-03T13:05:41.001Z</time></trkpt><trkpt lat="42.057589545891105" lon="9.192474582827895"><ele>853.25</ele><time>2026-05-03T13:05:42.001Z</time></trkpt><trkpt lat="42.057657379506644" lon="9.192598667337624"><ele>851.0</ele><time>2026-05-03T13:05:43.001Z</time></trkpt><trkpt lat="42.057721280527936" lon="9.192732697706857"><ele>851.0</ele><time>2026-05-03T13:05:44.001Z</time></trkpt><trkpt lat="42.0577881707201" lon="9.192858504129594"><ele>851.0</ele><time>2026-05-03T13:05:45.001Z</time></trkpt><trkpt lat="42.05786149233273" lon="9.192976630838437"><ele>851.0</ele><time>2026-05-03T13:05:46.001Z</time></trkpt><trkpt lat="42.05793097725407" lon="9.19308954887735"><ele>851.0</ele><time>2026-05-03T13:05:47.001Z</time></trkpt><trkpt lat="42.057987926976146" lon="9.193210014984059"><ele>851.0</ele><time>2026-05-03T13:05:48.001Z</time></trkpt><trkpt lat="42.05805325333684" lon="9.19331922265918"><ele>847.0</ele><time>2026-05-03T13:05:49.001Z</time></trkpt><trkpt lat="42.05811357282883" lon="9.193438666288802"><ele>843.0</ele><time>2026-05-03T13:05:50.001Z</time></trkpt><trkpt lat="42.05815348304252" lon="9.193573968240893"><ele>839.0</ele><time>2026-05-03T13:05:51.001Z</time></trkpt><trkpt lat="42.05818982412018" lon="9.193717979023209"><ele>835.0</ele><time>2026-05-03T13:05:52.001Z</time></trkpt><trkpt lat="42.058244198704195" lon="9.193865218359015"><ele>836.5</ele><time>2026-05-03T13:05:53.001Z</time></trkpt><trkpt lat="42.05831639746998" lon="9.193996943535115"><ele>838.0</ele><time>2026-05-03T13:05:53.998Z</time></trkpt><trkpt lat="42.05841425943257" lon="9.194110669283013"><ele>839.5</ele><time>2026-05-03T13:05:54.998Z</time></trkpt><trkpt lat="42.058516022671796" lon="9.194217919242403"><ele>841.0</ele><time>2026-05-03T13:05:55.998Z</time></trkpt><trkpt lat="42.058618560487716" lon="9.194341670578273"><ele>841.0</ele><time>2026-05-03T13:05:56.998Z</time></trkpt><trkpt lat="42.05869619136622" lon="9.194497351248472"><ele>841.0</ele><time>2026-05-03T13:05:57.998Z</time></trkpt><trkpt lat="42.05876378430391" lon="9.194666161833052"><ele>841.0</ele><time>2026-05-03T13:05:58.998Z</time></trkpt><trkpt lat="42.05883211235945" lon="9.194819847907528"><ele>841.0</ele><time>2026-05-03T13:05:59.999Z</time></trkpt><trkpt lat="42.05892075764229" lon="9.194956831092385"><ele>841.0</ele><time>2026-05-03T13:06:00.999Z</time></trkpt><trkpt lat="42.05903043366103" lon="9.195065428935303"><ele>841.0</ele><time>2026-05-03T13:06:01.999Z</time></trkpt><trkpt lat="42.05914262772621" lon="9.195147591221174"><ele>841.0</ele><time>2026-05-03T13:06:02.999Z</time></trkpt><trkpt lat="42.05925906317419" lon="9.19520071221613"><ele>841.0</ele><time>2026-05-03T13:06:03.999Z</time></trkpt><trkpt lat="42.05938164650853" lon="9.195209720427503"><ele>841.0</ele><time>2026-05-03T13:06:04.999Z</time></trkpt><trkpt lat="42.05950215387065" lon="9.195182537261914"><ele>841.0</ele><time>2026-05-03T13:06:05.999Z</time></trkpt><trkpt lat="42.059623527415404" lon="9.195119723000074"><ele>841.0</ele><time>2026-05-03T13:06:06.999Z</time></trkpt><trkpt lat="42.059737012421145" lon="9.195061777973342"><ele>841.0</ele><time>2026-05-03T13:06:07.999Z</time></trkpt><trkpt lat="42.05984624641007" lon="9.195018996637952"><ele>841.0</ele><time>2026-05-03T13:06:08.999Z</time></trkpt><trkpt lat="42.05994955241093" lon="9.194974975901317"><ele>841.0</ele><time>2026-05-03T13:06:09.999Z</time></trkpt><trkpt lat="42.06005844400801" lon="9.194922798690927"><ele>841.0</ele><time>2026-05-03T13:06:10.999Z</time></trkpt><trkpt lat="42.060164684781356" lon="9.194866392783926"><ele>841.0</ele><time>2026-05-03T13:06:11.999Z</time></trkpt><trkpt lat="42.06026306078007" lon="9.194787054403463"><ele>848.0</ele><time>2026-05-03T13:06:12.999Z</time></trkpt><trkpt lat="42.06034728093881" lon="9.194674222561314"><ele>855.0</ele><time>2026-05-03T13:06:13.999Z</time></trkpt><trkpt lat="42.06041493265829" lon="9.19453501426693"><ele>862.0</ele><time>2026-05-03T13:06:14.999Z</time></trkpt><trkpt lat="42.06047601471445" lon="9.194391525313542"><ele>869.0</ele><time>2026-05-03T13:06:15.999Z</time></trkpt><trkpt lat="42.06054891480108" lon="9.19424934651716"><ele>869.0</ele><time>2026-05-03T13:06:16.999Z</time></trkpt><trkpt lat="42.060637067238005" lon="9.194125763886992"><ele>869.0</ele><time>2026-05-03T13:06:17.999Z</time></trkpt><trkpt lat="42.06073705322804" lon="9.194030743424701"><ele>869.0</ele><time>2026-05-03T13:06:18.999Z</time></trkpt><trkpt lat="42.060863321876724" lon="9.1940082721945"><ele>869.0</ele><time>2026-05-03T13:06:19.999Z</time></trkpt><trkpt lat="42.06099921526415" lon="9.194007444520894"><ele>870.0</ele><time>2026-05-03T13:06:20.999Z</time></trkpt><trkpt lat="42.06113524841282" lon="9.193986149405728"><ele>871.0</ele><time>2026-05-03T13:06:21.999Z</time></trkpt><trkpt lat="42.06127009962066" lon="9.193970588949082"><ele>872.0</ele><time>2026-05-03T13:06:22.999Z</time></trkpt><trkpt lat="42.06140548808927" lon="9.193932120096928"><ele>873.0</ele><time>2026-05-03T13:06:23.999Z</time></trkpt><trkpt lat="42.0615382907094" lon="9.193870388527996"><ele>868.75</ele><time>2026-05-03T13:06:24.999Z</time></trkpt><trkpt lat="42.06166302983877" lon="9.19378959212233"><ele>864.5</ele><time>2026-05-03T13:06:25.999Z</time></trkpt><trkpt lat="42.06177755026532" lon="9.193697262178755"><ele>860.25</ele><time>2026-05-03T13:06:26.999Z</time></trkpt><trkpt lat="42.06187708004661" lon="9.193585495269248"><ele>856.0</ele><time>2026-05-03T13:06:27.999Z</time></trkpt><trkpt lat="42.0619750397981" lon="9.193461219413667"><ele>856.0</ele><time>2026-05-03T13:06:28.999Z</time></trkpt><trkpt lat="42.06207429938547" lon="9.193342249324292"><ele>856.0</ele><time>2026-05-03T13:06:29.999Z</time></trkpt><trkpt lat="42.0621802941128" lon="9.1932326566514"><ele>856.0</ele><time>2026-05-03T13:06:30.999Z</time></trkpt><trkpt lat="42.062281497198434" lon="9.193113428593227"><ele>856.0</ele><time>2026-05-03T13:06:32Z</time></trkpt><trkpt lat="42.06236074631236" lon="9.192983990118705"><ele>861.25</ele><time>2026-05-03T13:06:33Z</time></trkpt><trkpt lat="42.06241521788797" lon="9.192823346340424"><ele>866.5</ele><time>2026-05-03T13:06:34Z</time></trkpt><trkpt lat="42.06244611965963" lon="9.192649148349574"><ele>871.75</ele><time>2026-05-03T13:06:35Z</time></trkpt><trkpt lat="42.06245032470395" lon="9.19246792811482"><ele>877.0</ele><time>2026-05-03T13:06:36Z</time></trkpt><trkpt lat="42.06243995082038" lon="9.192300690091297"><ele>869.5</ele><time>2026-05-03T13:06:37Z</time></trkpt><trkpt lat="42.06244959936991" lon="9.192153761082483"><ele>862.0</ele><time>2026-05-03T13:06:38Z</time></trkpt><trkpt lat="42.06250733565289" lon="9.192008748894265"><ele>854.5</ele><time>2026-05-03T13:06:39Z</time></trkpt><trkpt lat="42.062597365207246" lon="9.191879799890906"><ele>847.0</ele><time>2026-05-03T13:06:40Z</time></trkpt><trkpt lat="42.062674480114616" lon="9.191716376085465"><ele>847.0</ele><time>2026-05-03T13:06:41Z</time></trkpt><trkpt lat="42.062718823267076" lon="9.191542212988896"><ele>847.0</ele><time>2026-05-03T13:06:42Z</time></trkpt><trkpt lat="42.06277169600416" lon="9.191401856070256"><ele>847.0</ele><time>2026-05-03T13:06:43Z</time></trkpt><trkpt lat="42.062848877729664" lon="9.191323541871329"><ele>847.0</ele><time>2026-05-03T13:06:44Z</time></trkpt><trkpt lat="42.062953109698974" lon="9.191322422097954"><ele>847.0</ele><time>2026-05-03T13:06:45Z</time></trkpt><trkpt lat="42.06304287214437" lon="9.191407952855505"><ele>847.0</ele><time>2026-05-03T13:06:46Z</time></trkpt><trkpt lat="42.06314577261055" lon="9.191479858982163"><ele>847.0</ele><time>2026-05-03T13:06:47Z</time></trkpt><trkpt lat="42.063220751032446" lon="9.191577014296486"><ele>847.0</ele><time>2026-05-03T13:06:48Z</time></trkpt><trkpt lat="42.063297253976565" lon="9.191647368532665"><ele>847.0</ele><time>2026-05-03T13:06:49Z</time></trkpt><trkpt lat="42.06336618717326" lon="9.191723359706813"><ele>845.25</ele><time>2026-05-03T13:06:50Z</time></trkpt><trkpt lat="42.06344767257744" lon="9.191814512096848"><ele>843.5</ele><time>2026-05-03T13:06:51Z</time></trkpt><trkpt lat="42.06352617051329" lon="9.191931977847764"><ele>841.75</ele><time>2026-05-03T13:06:52Z</time></trkpt><trkpt lat="42.063623295804184" lon="9.192065153974719"><ele>840.0</ele><time>2026-05-03T13:06:53Z</time></trkpt><trkpt lat="42.06372206186968" lon="9.192178294939504"><ele>840.0</ele><time>2026-05-03T13:06:54Z</time></trkpt><trkpt lat="42.06382637370691" lon="9.19225025514593"><ele>840.0</ele><time>2026-05-03T13:06:55Z</time></trkpt><trkpt lat="42.0639518462193" lon="9.192253550444487"><ele>840.0</ele><time>2026-05-03T13:06:56Z</time></trkpt><trkpt lat="42.06407651311636" lon="9.192224687278072"><ele>840.0</ele><time>2026-05-03T13:06:57Z</time></trkpt><trkpt lat="42.06420336892286" lon="9.19220441516554"><ele>842.5</ele><time>2026-05-03T13:06:58Z</time></trkpt><trkpt lat="42.06432921173326" lon="9.192238380887751"><ele>845.0</ele><time>2026-05-03T13:06:59Z</time></trkpt><trkpt lat="42.064447214420554" lon="9.192281532160717"><ele>847.5</ele><time>2026-05-03T13:07:00Z</time></trkpt><trkpt lat="42.064568675135305" lon="9.192330042456797"><ele>850.0</ele><time>2026-05-03T13:07:01Z</time></trkpt><trkpt lat="42.06469015668686" lon="9.192407356481683"><ele>846.25</ele><time>2026-05-03T13:07:02Z</time></trkpt><trkpt lat="42.064803450291386" lon="9.192516643957887"><ele>842.5</ele><time>2026-05-03T13:07:03Z</time></trkpt><trkpt lat="42.064909528961415" lon="9.19263876971411"><ele>838.75</ele><time>2026-05-03T13:07:04Z</time></trkpt><trkpt lat="42.06503979834465" lon="9.192752757826717"><ele>835.0</ele><time>2026-05-03T13:07:05Z</time></trkpt><trkpt lat="42.06516805810798" lon="9.192859018200283"><ele>835.0</ele><time>2026-05-03T13:07:06Z</time></trkpt><trkpt lat="42.06529652887291" lon="9.192975875750662"><ele>835.0</ele><time>2026-05-03T13:07:07Z</time></trkpt><trkpt lat="42.065425120117034" lon="9.193065900689394"><ele>835.0</ele><time>2026-05-03T13:07:08Z</time></trkpt><trkpt lat="42.06554564560168" lon="9.19313860275963"><ele>835.0</ele><time>2026-05-03T13:07:09Z</time></trkpt><trkpt lat="42.06567193491801" lon="9.193186098409704"><ele>831.6666666666666</ele><time>2026-05-03T13:07:10Z</time></trkpt><trkpt lat="42.06581408984194" lon="9.193213079519657"><ele>828.3333333333333</ele><time>2026-05-03T13:07:11Z</time></trkpt><trkpt lat="42.06596608375967" lon="9.193206014402342"><ele>825.0</ele><time>2026-05-03T13:07:12Z</time></trkpt><trkpt lat="42.066124660603336" lon="9.193208057958525"><ele>825.0</ele><time>2026-05-03T13:07:13Z</time></trkpt><trkpt lat="42.06628783075451" lon="9.193205418072157"><ele>825.0</ele><time>2026-05-03T13:07:14Z</time></trkpt><trkpt lat="42.06645284453762" lon="9.193202864541174"><ele>825.0</ele><time>2026-05-03T13:07:15Z</time></trkpt><trkpt lat="42.066614805503725" lon="9.193180724481639"><ele>834.3333333333333</ele><time>2026-05-03T13:07:16Z</time></trkpt><trkpt lat="42.06677721944283" lon="9.193138796535052"><ele>843.6666666666666</ele><time>2026-05-03T13:07:17Z</time></trkpt><trkpt lat="42.066933796519216" lon="9.193064621544815"><ele>853.0</ele><time>2026-05-03T13:07:18Z</time></trkpt><trkpt lat="42.067088165278186" lon="9.192959158108545"><ele>853.0</ele><time>2026-05-03T13:07:19Z</time></trkpt><trkpt lat="42.06724375434322" lon="9.192870215961229"><ele>853.0</ele><time>2026-05-03T13:07:20Z</time></trkpt><trkpt lat="42.067397007239784" lon="9.192793369141063"><ele>853.0</ele><time>2026-05-03T13:07:21Z</time></trkpt><trkpt lat="42.06753814590229" lon="9.192711804372362"><ele>854.0</ele><time>2026-05-03T13:07:22Z</time></trkpt><trkpt lat="42.067684344630294" lon="9.192598303062573"><ele>855.0</ele><time>2026-05-03T13:07:23Z</time></trkpt><trkpt lat="42.06782677411853" lon="9.192462206025116"><ele>856.0</ele><time>2026-05-03T13:07:24Z</time></trkpt><trkpt lat="42.067967396395716" lon="9.192327115707503"><ele>856.0</ele><time>2026-05-03T13:07:25Z</time></trkpt><trkpt lat="42.06809229729713" lon="9.192195300609223"><ele>856.0</ele><time>2026-05-03T13:07:26Z</time></trkpt><trkpt lat="42.068197298800676" lon="9.192054025798686"><ele>856.0</ele><time>2026-05-03T13:07:27Z</time></trkpt><trkpt lat="42.0682840114897" lon="9.19190942658925"><ele>856.0</ele><time>2026-05-03T13:07:28Z</time></trkpt><trkpt lat="42.06838798658833" lon="9.191800813695643"><ele>849.25</ele><time>2026-05-03T13:07:29Z</time></trkpt><trkpt lat="42.068515123235635" lon="9.191785218853752"><ele>842.5</ele><time>2026-05-03T13:07:30Z</time></trkpt><trkpt lat="42.068642434162435" lon="9.191743701255009"><ele>835.75</ele><time>2026-05-03T13:07:31Z</time></trkpt><trkpt lat="42.06877769875289" lon="9.191730697382308"><ele>829.0</ele><time>2026-05-03T13:07:32Z</time></trkpt><trkpt lat="42.06889241299237" lon="9.191694062242595"><ele>829.0</ele><time>2026-05-03T13:07:33Z</time></trkpt><trkpt lat="42.06899278042128" lon="9.191603806072"><ele>829.0</ele><time>2026-05-03T13:07:34Z</time></trkpt><trkpt lat="42.06905927470217" lon="9.191478627699562"><ele>829.0</ele><time>2026-05-03T13:07:35Z</time></trkpt><trkpt lat="42.069093798069204" lon="9.191316044899406"><ele>829.0</ele><time>2026-05-03T13:07:36Z</time></trkpt><trkpt lat="42.06909254971365" lon="9.191138264189334"><ele>835.0</ele><time>2026-05-03T13:07:37Z</time></trkpt><trkpt lat="42.069083784264194" lon="9.190955367532721"><ele>841.0</ele><time>2026-05-03T13:07:38Z</time></trkpt><trkpt lat="42.06908573931028" lon="9.19078884687077"><ele>847.0</ele><time>2026-05-03T13:07:39Z</time></trkpt><trkpt lat="42.06908230838143" lon="9.190625931969688"><ele>853.0</ele><time>2026-05-03T13:07:40Z</time></trkpt><trkpt lat="42.06908708323177" lon="9.190469880531106"><ele>856.75</ele><time>2026-05-03T13:07:41Z</time></trkpt><trkpt lat="42.06910158054664" lon="9.190307717937156"><ele>860.5</ele><time>2026-05-03T13:07:42Z</time></trkpt><trkpt lat="42.06912983539588" lon="9.190137464419301"><ele>864.25</ele><time>2026-05-03T13:07:43Z</time></trkpt><trkpt lat="42.06915062204088" lon="9.189958542284616"><ele>868.0</ele><time>2026-05-03T13:07:44Z</time></trkpt><trkpt lat="42.069167075977646" lon="9.189777848921313"><ele>859.0</ele><time>2026-05-03T13:07:45Z</time></trkpt><trkpt lat="42.069156744672" lon="9.189600391268097"><ele>850.0</ele><time>2026-05-03T13:07:46Z</time></trkpt><trkpt lat="42.06915458804322" lon="9.18943295238211"><ele>841.0</ele><time>2026-05-03T13:07:47Z</time></trkpt><trkpt lat="42.06918365263307" lon="9.189285934852286"><ele>832.0</ele><time>2026-05-03T13:07:48Z</time></trkpt><trkpt lat="42.06925108537011" lon="9.189158434364616"><ele>832.0</ele><time>2026-05-03T13:07:49.001Z</time></trkpt><trkpt lat="42.06935355633119" lon="9.189061344891105"><ele>832.0</ele><time>2026-05-03T13:07:50.001Z</time></trkpt><trkpt lat="42.06945617827757" lon="9.188963186579423"><ele>832.0</ele><time>2026-05-03T13:07:51.001Z</time></trkpt><trkpt lat="42.069537214450186" lon="9.18883678549505"><ele>832.0</ele><time>2026-05-03T13:07:52.001Z</time></trkpt><trkpt lat="42.069583198349385" lon="9.188700709020933"><ele>834.75</ele><time>2026-05-03T13:07:53.001Z</time></trkpt><trkpt lat="42.06960567738188" lon="9.188574790723932"><ele>837.5</ele><time>2026-05-03T13:07:54.001Z</time></trkpt><trkpt lat="42.06960421114588" lon="9.1884435967094"><ele>840.25</ele><time>2026-05-03T13:07:55.001Z</time></trkpt><trkpt lat="42.06958430193739" lon="9.188284019435297"><ele>843.0</ele><time>2026-05-03T13:07:56.001Z</time></trkpt><trkpt lat="42.06955537364337" lon="9.188101950588402"><ele>843.0</ele><time>2026-05-03T13:07:57.001Z</time></trkpt><trkpt lat="42.069553568869445" lon="9.187922551715738"><ele>843.0</ele><time>2026-05-03T13:07:58.001Z</time></trkpt><trkpt lat="42.06956059380815" lon="9.187725479870613"><ele>843.0</ele><time>2026-05-03T13:07:59.001Z</time></trkpt><trkpt lat="42.069562666861785" lon="9.187524508905337"><ele>843.0</ele><time>2026-05-03T13:07:59.998Z</time></trkpt><trkpt lat="42.06958651534084" lon="9.187331795578878"><ele>839.75</ele><time>2026-05-03T13:08:00.998Z</time></trkpt><trkpt lat="42.06957459864534" lon="9.187139222824511"><ele>836.5</ele><time>2026-05-03T13:08:01.998Z</time></trkpt><trkpt lat="42.06957050551769" lon="9.186953501617397"><ele>833.25</ele><time>2026-05-03T13:08:02.998Z</time></trkpt><trkpt lat="42.069515507146264" lon="9.186776665635248"><ele>830.0</ele><time>2026-05-03T13:08:03.998Z</time></trkpt><trkpt lat="42.06944019059647" lon="9.186623621544042"><ele>827.75</ele><time>2026-05-03T13:08:04.998Z</time></trkpt><trkpt lat="42.06933436608796" lon="9.18650465048695"><ele>825.5</ele><time>2026-05-03T13:08:05.998Z</time></trkpt><trkpt lat="42.06924541519162" lon="9.186365078807809"><ele>823.25</ele><time>2026-05-03T13:08:06.998Z</time></trkpt><trkpt lat="42.06919302486056" lon="9.186194187329981"><ele>821.0</ele><time>2026-05-03T13:08:07.998Z</time></trkpt><trkpt lat="42.069179964482714" lon="9.186025084713526"><ele>821.0</ele><time>2026-05-03T13:08:08.998Z</time></trkpt><trkpt lat="42.069146763997864" lon="9.185879634403305"><ele>821.0</ele><time>2026-05-03T13:08:09.998Z</time></trkpt><trkpt lat="42.06916142939891" lon="9.18576216170255"><ele>821.0</ele><time>2026-05-03T13:08:10.998Z</time></trkpt><trkpt lat="42.069211581682445" lon="9.185670987630184"><ele>821.0</ele><time>2026-05-03T13:08:11.998Z</time></trkpt><trkpt lat="42.069290987265575" lon="9.185625376731508"><ele>821.0</ele><time>2026-05-03T13:08:12.998Z</time></trkpt><trkpt lat="42.06938012049749" lon="9.185631400618172"><ele>821.5999999999999</ele><time>2026-05-03T13:08:13.998Z</time></trkpt><trkpt lat="42.0694717386522" lon="9.185621331759691"><ele>822.2</ele><time>2026-05-03T13:08:14.998Z</time></trkpt><trkpt lat="42.06955340998968" lon="9.185560142717486"><ele>822.8</ele><time>2026-05-03T13:08:15.998Z</time></trkpt><trkpt lat="42.069600194520895" lon="9.185448601322422"><ele>823.4000000000001</ele><time>2026-05-03T13:08:16.998Z</time></trkpt><trkpt lat="42.0696022489368" lon="9.185328070396796"><ele>824.0</ele><time>2026-05-03T13:08:17.999Z</time></trkpt><trkpt lat="42.06957397351602" lon="9.185206468971167"><ele>824.0</ele><time>2026-05-03T13:08:18.999Z</time></trkpt><trkpt lat="42.06956521775765" lon="9.185075576097999"><ele>824.0</ele><time>2026-05-03T13:08:19.999Z</time></trkpt><trkpt lat="42.06955759395069" lon="9.184965415300407"><ele>824.0</ele><time>2026-05-03T13:08:20.999Z</time></trkpt><trkpt lat="42.06955493481674" lon="9.184845993551093"><ele>824.0</ele><time>2026-05-03T13:08:21.999Z</time></trkpt><trkpt lat="42.069541557931636" lon="9.184719255395134"><ele>824.0</ele><time>2026-05-03T13:08:22.999Z</time></trkpt><trkpt lat="42.0695624601649" lon="9.184590273476864"><ele>826.4000000000001</ele><time>2026-05-03T13:08:23.999Z</time></trkpt><trkpt lat="42.06961524770275" lon="9.184476304428081"><ele>828.8</ele><time>2026-05-03T13:08:24.999Z</time></trkpt><trkpt lat="42.06968591942203" lon="9.184370671251408"><ele>831.2</ele><time>2026-05-03T13:08:25.999Z</time></trkpt><trkpt lat="42.069775182682356" lon="9.184273382453666"><ele>833.5999999999999</ele><time>2026-05-03T13:08:26.999Z</time></trkpt><trkpt lat="42.06987244387104" lon="9.18418431205829"><ele>836.0</ele><time>2026-05-03T13:08:27.999Z</time></trkpt><trkpt lat="42.06998165189006" lon="9.18412485006561"><ele>830.0</ele><time>2026-05-03T13:08:28.999Z</time></trkpt><trkpt lat="42.07010037264812" lon="9.184115450208916"><ele>824.0</ele><time>2026-05-03T13:08:29.999Z</time></trkpt><trkpt lat="42.07021228918154" lon="9.184135329923476"><ele>818.0</ele><time>2026-05-03T13:08:30.999Z</time></trkpt><trkpt lat="42.07032052512277" lon="9.18417068484987"><ele>812.0</ele><time>2026-05-03T13:08:31.999Z</time></trkpt><trkpt lat="42.07042897729717" lon="9.184218521945912"><ele>812.0</ele><time>2026-05-03T13:08:32.999Z</time></trkpt><trkpt lat="42.070526667039914" lon="9.184267907463303"><ele>812.0</ele><time>2026-05-03T13:08:33.999Z</time></trkpt><trkpt lat="42.07059745419786" lon="9.184352067514716"><ele>812.0</ele><time>2026-05-03T13:08:34.999Z</time></trkpt><trkpt lat="42.070613782396286" lon="9.184490026285776"><ele>812.0</ele><time>2026-05-03T13:08:35.999Z</time></trkpt><trkpt lat="42.0706699556902" lon="9.184622590779865"><ele>812.0</ele><time>2026-05-03T13:08:36.999Z</time></trkpt><trkpt lat="42.070752033705745" lon="9.184751670362903"><ele>812.0</ele><time>2026-05-03T13:08:37.999Z</time></trkpt><trkpt lat="42.070826256986415" lon="9.184893659963354"><ele>812.0</ele><time>2026-05-03T13:08:38.999Z</time></trkpt><trkpt lat="42.0708539484865" lon="9.185055601669328"><ele>812.0</ele><time>2026-05-03T13:08:39.999Z</time></trkpt><trkpt lat="42.07085392748592" lon="9.185226736824003"><ele>812.0</ele><time>2026-05-03T13:08:40.999Z</time></trkpt><trkpt lat="42.070830016694224" lon="9.185401511086237"><ele>812.0</ele><time>2026-05-03T13:08:41.999Z</time></trkpt><trkpt lat="42.07082090726705" lon="9.185582633839786"><ele>812.0</ele><time>2026-05-03T13:08:43Z</time></trkpt><trkpt lat="42.07085238876724" lon="9.185776249336374"><ele>812.0</ele><time>2026-05-03T13:08:44Z</time></trkpt><trkpt lat="42.07090816153868" lon="9.185961606431492"><ele>812.0</ele><time>2026-05-03T13:08:45Z</time></trkpt><trkpt lat="42.07098177480974" lon="9.186152456548054"><ele>809.3333333333334</ele><time>2026-05-03T13:08:46Z</time></trkpt><trkpt lat="42.07105648263921" lon="9.18634623542842"><ele>806.6666666666667</ele><time>2026-05-03T13:08:47Z</time></trkpt><trkpt lat="42.07114572957049" lon="9.186524303002079"><ele>804.0</ele><time>2026-05-03T13:08:48Z</time></trkpt><trkpt lat="42.07122209454885" lon="9.186685269124972"><ele>800.0</ele><time>2026-05-03T13:08:49Z</time></trkpt><trkpt lat="42.07134837004274" lon="9.186820090949418"><ele>796.0</ele><time>2026-05-03T13:08:50Z</time></trkpt><trkpt lat="42.07144401565055" lon="9.186950430456546"><ele>792.0</ele><time>2026-05-03T13:08:51Z</time></trkpt><trkpt lat="42.07148224532051" lon="9.187096793244852"><ele>788.0</ele><time>2026-05-03T13:08:52Z</time></trkpt><trkpt lat="42.07146564660242" lon="9.187224682276277"><ele>785.8</ele><time>2026-05-03T13:08:53Z</time></trkpt><trkpt lat="42.071451595129496" lon="9.187370445062134"><ele>783.5999999999999</ele><time>2026-05-03T13:08:54Z</time></trkpt><trkpt lat="42.07145336957213" lon="9.187497887700491"><ele>781.4000000000001</ele><time>2026-05-03T13:08:55Z</time></trkpt><trkpt lat="42.07145970114413" lon="9.187628252183684"><ele>779.2</ele><time>2026-05-03T13:08:56Z</time></trkpt><trkpt lat="42.07148071857603" lon="9.187744372914633"><ele>777.0</ele><time>2026-05-03T13:08:57Z</time></trkpt><trkpt lat="42.07152079133519" lon="9.187857597770881"><ele>777.0</ele><time>2026-05-03T13:08:58Z</time></trkpt><trkpt lat="42.071575126868474" lon="9.187960238008316"><ele>777.0</ele><time>2026-05-03T13:08:59Z</time></trkpt><trkpt lat="42.07164583026928" lon="9.188061221540048"><ele>777.0</ele><time>2026-05-03T13:09:00Z</time></trkpt><trkpt lat="42.07171729796928" lon="9.188171019715577"><ele>777.0</ele><time>2026-05-03T13:09:01Z</time></trkpt><trkpt lat="42.07178180972974" lon="9.188291081992933"><ele>777.0</ele><time>2026-05-03T13:09:02Z</time></trkpt><trkpt lat="42.071801738153916" lon="9.188441956738293"><ele>778.75</ele><time>2026-05-03T13:09:03Z</time></trkpt><trkpt lat="42.07181717033664" lon="9.188599227746987"><ele>780.5</ele><time>2026-05-03T13:09:04Z</time></trkpt><trkpt lat="42.07183103362106" lon="9.188757669121545"><ele>782.25</ele><time>2026-05-03T13:09:05Z</time></trkpt><trkpt lat="42.071861843153854" lon="9.188917223685106"><ele>784.0</ele><time>2026-05-03T13:09:06Z</time></trkpt><trkpt lat="42.07187077838813" lon="9.189085748583276"><ele>784.0</ele><time>2026-05-03T13:09:07Z</time></trkpt><trkpt lat="42.07187554965943" lon="9.18926216345656"><ele>784.0</ele><time>2026-05-03T13:09:08Z</time></trkpt><trkpt lat="42.07188171476543" lon="9.189440589148445"><ele>784.0</ele><time>2026-05-03T13:09:09Z</time></trkpt><trkpt lat="42.071878643859925" lon="9.189624694498153"><ele>784.0</ele><time>2026-05-03T13:09:10Z</time></trkpt><trkpt lat="42.07185694659563" lon="9.1898049746474"><ele>782.5</ele><time>2026-05-03T13:09:11Z</time></trkpt><trkpt lat="42.07187616479029" lon="9.189996304041408"><ele>781.0</ele><time>2026-05-03T13:09:12Z</time></trkpt><trkpt lat="42.071893757858405" lon="9.190191008414256"><ele>779.5</ele><time>2026-05-03T13:09:13Z</time></trkpt><trkpt lat="42.07192820195878" lon="9.19037140551759"><ele>778.0</ele><time>2026-05-03T13:09:14Z</time></trkpt><trkpt lat="42.07198601082146" lon="9.19054065859672"><ele>776.0</ele><time>2026-05-03T13:09:15Z</time></trkpt><trkpt lat="42.072074167160096" lon="9.190691342922682"><ele>774.0</ele><time>2026-05-03T13:09:16Z</time></trkpt><trkpt lat="42.07218095052564" lon="9.190820694669679"><ele>772.0</ele><time>2026-05-03T13:09:17Z</time></trkpt><trkpt lat="42.072304851218696" lon="9.190929913502345"><ele>770.0</ele><time>2026-05-03T13:09:18Z</time></trkpt><trkpt lat="42.07242387805333" lon="9.191047177027945"><ele>773.0</ele><time>2026-05-03T13:09:19Z</time></trkpt><trkpt lat="42.07251539213994" lon="9.191197420101268"><ele>776.0</ele><time>2026-05-03T13:09:20Z</time></trkpt><trkpt lat="42.072584469197565" lon="9.191351790043"><ele>779.0</ele><time>2026-05-03T13:09:21Z</time></trkpt><trkpt lat="42.07266830410765" lon="9.191474980229431"><ele>782.0</ele><time>2026-05-03T13:09:22Z</time></trkpt><trkpt lat="42.072736681461336" lon="9.191599745849238"><ele>782.0</ele><time>2026-05-03T13:09:23Z</time></trkpt><trkpt lat="42.07283789297322" lon="9.19168583184765"><ele>782.0</ele><time>2026-05-03T13:09:24Z</time></trkpt><trkpt lat="42.07295095220854" lon="9.191760540860107"><ele>782.0</ele><time>2026-05-03T13:09:25Z</time></trkpt><trkpt lat="42.07306684873939" lon="9.191833063736436"><ele>782.0</ele><time>2026-05-03T13:09:26Z</time></trkpt><trkpt lat="42.07318658520776" lon="9.191912780663436"><ele>788.0</ele><time>2026-05-03T13:09:27Z</time></trkpt><trkpt lat="42.07330522554456" lon="9.191992613339906"><ele>794.0</ele><time>2026-05-03T13:09:28Z</time></trkpt><trkpt lat="42.07341857939114" lon="9.192093304529452"><ele>800.0</ele><time>2026-05-03T13:09:29Z</time></trkpt><trkpt lat="42.0735393756334" lon="9.19216672092599"><ele>806.0</ele><time>2026-05-03T13:09:30Z</time></trkpt><trkpt lat="42.07367317796596" lon="9.192190737670618"><ele>806.0</ele><time>2026-05-03T13:09:31Z</time></trkpt><trkpt lat="42.07381198453807" lon="9.192203188877206"><ele>806.0</ele><time>2026-05-03T13:09:32Z</time></trkpt><trkpt lat="42.07395354191164" lon="9.192195195443356"><ele>806.0</ele><time>2026-05-03T13:09:33Z</time></trkpt><trkpt lat="42.074095192165565" lon="9.192196724488571"><ele>806.0</ele><time>2026-05-03T13:09:34Z</time></trkpt><trkpt lat="42.07422547000374" lon="9.192236778347375"><ele>807.75</ele><time>2026-05-03T13:09:35.001Z</time></trkpt><trkpt lat="42.07435926241693" lon="9.192286027557156"><ele>809.5</ele><time>2026-05-03T13:09:36.001Z</time></trkpt><trkpt lat="42.07447589497215" lon="9.192381669906824"><ele>811.25</ele><time>2026-05-03T13:09:37.001Z</time></trkpt><trkpt lat="42.07459568401769" lon="9.192468776167823"><ele>813.0</ele><time>2026-05-03T13:09:38.001Z</time></trkpt><trkpt lat="42.074725191185266" lon="9.192573994587514"><ele>809.0</ele><time>2026-05-03T13:09:39.001Z</time></trkpt><trkpt lat="42.07484334973958" lon="9.192706913021443"><ele>805.0</ele><time>2026-05-03T13:09:40.001Z</time></trkpt><trkpt lat="42.074960261604794" lon="9.192842906211586"><ele>801.0</ele><time>2026-05-03T13:09:41.001Z</time></trkpt><trkpt lat="42.075072933271514" lon="9.19299472122298"><ele>801.0</ele><time>2026-05-03T13:09:42.001Z</time></trkpt><trkpt lat="42.075188730399994" lon="9.193146311007254"><ele>801.0</ele><time>2026-05-03T13:09:43.001Z</time></trkpt><trkpt lat="42.075298653578635" lon="9.193287517494102"><ele>801.0</ele><time>2026-05-03T13:09:44.001Z</time></trkpt><trkpt lat="42.0753991885962" lon="9.19341566225053"><ele>797.5</ele><time>2026-05-03T13:09:45.001Z</time></trkpt><trkpt lat="42.075496859516086" lon="9.193539177263363"><ele>794.0</ele><time>2026-05-03T13:09:46.001Z</time></trkpt><trkpt lat="42.07559144791494" lon="9.193635813793538"><ele>790.5</ele><time>2026-05-03T13:09:47.001Z</time></trkpt><trkpt lat="42.075687858595906" lon="9.193697366306921"><ele>787.0</ele><time>2026-05-03T13:09:48.001Z</time></trkpt><trkpt lat="42.07578862713027" lon="9.193706588843915"><ele>787.0</ele><time>2026-05-03T13:09:49.001Z</time></trkpt><trkpt lat="42.075888760619875" lon="9.19366570040956"><ele>787.0</ele><time>2026-05-03T13:09:50.001Z</time></trkpt><trkpt lat="42.07599574361914" lon="9.193600862587699"><ele>787.0</ele><time>2026-05-03T13:09:51.001Z</time></trkpt><trkpt lat="42.076111461965155" lon="9.193530928437655"><ele>787.0</ele><time>2026-05-03T13:09:52.001Z</time></trkpt><trkpt lat="42.076232000773565" lon="9.193465014646884"><ele>787.0</ele><time>2026-05-03T13:09:53.001Z</time></trkpt><trkpt lat="42.076345648390536" lon="9.193403107547795"><ele>787.0</ele><time>2026-05-03T13:09:54.001Z</time></trkpt><trkpt lat="42.076445924049146" lon="9.193332358145899"><ele>787.0</ele><time>2026-05-03T13:09:55.001Z</time></trkpt><trkpt lat="42.07651424045743" lon="9.193236754949465"><ele>787.0</ele><time>2026-05-03T13:09:56.001Z</time></trkpt><trkpt lat="42.07654982785982" lon="9.19310857282504"><ele>787.0</ele><time>2026-05-03T13:09:57.001Z</time></trkpt><trkpt lat="42.07655102491883" lon="9.19298107286392"><ele>789.8</ele><time>2026-05-03T13:09:58.001Z</time></trkpt><trkpt lat="42.076548704361834" lon="9.192857172686459"><ele>792.6</ele><time>2026-05-03T13:09:59.001Z</time></trkpt><trkpt lat="42.07653683769628" lon="9.192747494556599"><ele>795.4</ele><time>2026-05-03T13:10:00.001Z</time></trkpt><trkpt lat="42.07652918484476" lon="9.192632173365139"><ele>798.1999999999999</ele><time>2026-05-03T13:10:01.001Z</time></trkpt><trkpt lat="42.0764836350262" lon="9.192513162472132"><ele>801.0</ele><time>2026-05-03T13:10:02.001Z</time></trkpt><trkpt lat="42.07640418921583" lon="9.19240761254764"><ele>804.0</ele><time>2026-05-03T13:10:03.001Z</time></trkpt><trkpt lat="42.07635801544587" lon="9.192276829611604"><ele>807.0</ele><time>2026-05-03T13:10:04.001Z</time></trkpt><trkpt lat="42.07634744988406" lon="9.192127355629351"><ele>810.0</ele><time>2026-05-03T13:10:05.001Z</time></trkpt><trkpt lat="42.07636885897635" lon="9.191987675812824"><ele>813.0</ele><time>2026-05-03T13:10:05.997Z</time></trkpt><trkpt lat="42.07642307497968" lon="9.191860848166895"><ele>816.0</ele><time>2026-05-03T13:10:06.997Z</time></trkpt><trkpt lat="42.07649042051112" lon="9.19175769113552"><ele>816.0</ele><time>2026-05-03T13:10:07.997Z</time></trkpt><trkpt lat="42.07656604233" lon="9.191652605277852"><ele>816.0</ele><time>2026-05-03T13:10:08.997Z</time></trkpt><trkpt lat="42.07664986686059" lon="9.191519834705366"><ele>816.0</ele><time>2026-05-03T13:10:09.997Z</time></trkpt><trkpt lat="42.07673932209111" lon="9.191373540889494"><ele>816.0</ele><time>2026-05-03T13:10:10.998Z</time></trkpt><trkpt lat="42.07682413484834" lon="9.191218414954466"><ele>810.0</ele><time>2026-05-03T13:10:11.998Z</time></trkpt><trkpt lat="42.07689524616297" lon="9.191067470044986"><ele>804.0</ele><time>2026-05-03T13:10:12.998Z</time></trkpt><trkpt lat="42.07695319995715" lon="9.19091569380715"><ele>798.0</ele><time>2026-05-03T13:10:13.998Z</time></trkpt><trkpt lat="42.07701069370158" lon="9.19079066168467"><ele>792.0</ele><time>2026-05-03T13:10:14.998Z</time></trkpt><trkpt lat="42.077077447393386" lon="9.190705883255127"><ele>792.0</ele><time>2026-05-03T13:10:15.998Z</time></trkpt><trkpt lat="42.07715603855387" lon="9.19067648540737"><ele>792.0</ele><time>2026-05-03T13:10:16.998Z</time></trkpt><trkpt lat="42.07723901992677" lon="9.190687730967028"><ele>792.0</ele><time>2026-05-03T13:10:17.998Z</time></trkpt><trkpt lat="42.077324187730554" lon="9.190715543871276"><ele>792.0</ele><time>2026-05-03T13:10:18.998Z</time></trkpt><trkpt lat="42.077419280601326" lon="9.190700774170395"><ele>792.0</ele><time>2026-05-03T13:10:19.998Z</time></trkpt><trkpt lat="42.07751808811293" lon="9.190653260451377"><ele>789.0</ele><time>2026-05-03T13:10:20.998Z</time></trkpt><trkpt lat="42.07761076014797" lon="9.190556883329156"><ele>786.0</ele><time>2026-05-03T13:10:21.998Z</time></trkpt><trkpt lat="42.07768485340622" lon="9.190423453121399"><ele>783.0</ele><time>2026-05-03T13:10:22.998Z</time></trkpt><trkpt lat="42.07774040759436" lon="9.190271446921283"><ele>780.0</ele><time>2026-05-03T13:10:23.998Z</time></trkpt><trkpt lat="42.07779802490689" lon="9.190137718037322"><ele>780.0</ele><time>2026-05-03T13:10:24.998Z</time></trkpt><trkpt lat="42.07786536924274" lon="9.190050089898723"><ele>780.0</ele><time>2026-05-03T13:10:25.998Z</time></trkpt><trkpt lat="42.077948442445155" lon="9.190002431352635"><ele>780.0</ele><time>2026-05-03T13:10:26.999Z</time></trkpt><trkpt lat="42.07805014004362" lon="9.189996160389915"><ele>780.0</ele><time>2026-05-03T13:10:27.999Z</time></trkpt><trkpt lat="42.078165156902024" lon="9.190022604227087"><ele>780.0</ele><time>2026-05-03T13:10:28.999Z</time></trkpt><trkpt lat="42.078288150169534" lon="9.19000619964779"><ele>782.25</ele><time>2026-05-03T13:10:29.999Z</time></trkpt><trkpt lat="42.078416367836525" lon="9.189952566925362"><ele>784.5</ele><time>2026-05-03T13:10:30.999Z</time></trkpt><trkpt lat="42.07855705377584" lon="9.189885759265449"><ele>786.75</ele><time>2026-05-03T13:10:31.999Z</time></trkpt><trkpt lat="42.07871084676746" lon="9.189837899152478"><ele>789.0</ele><time>2026-05-03T13:10:32.999Z</time></trkpt><trkpt lat="42.07887050902626" lon="9.189826790978097"><ele>789.0</ele><time>2026-05-03T13:10:33.999Z</time></trkpt><trkpt lat="42.07902007355496" lon="9.189825671632395"><ele>789.0</ele><time>2026-05-03T13:10:34.999Z</time></trkpt><trkpt lat="42.07916176905103" lon="9.18982007570054"><ele>789.0</ele><time>2026-05-03T13:10:35.999Z</time></trkpt><trkpt lat="42.07927796125582" lon="9.189839005826755"><ele>789.0</ele><time>2026-05-03T13:10:36.999Z</time></trkpt><trkpt lat="42.07938103185728" lon="9.18989931511035"><ele>779.0</ele><time>2026-05-03T13:10:37.999Z</time></trkpt><trkpt lat="42.079465775115594" lon="9.19000684228985"><ele>769.0</ele><time>2026-05-03T13:10:38.999Z</time></trkpt><trkpt lat="42.07954275927977" lon="9.19012162530767"><ele>759.0</ele><time>2026-05-03T13:10:39.999Z</time></trkpt><trkpt lat="42.07963540861384" lon="9.190235838563323"><ele>749.0</ele><time>2026-05-03T13:10:40.999Z</time></trkpt><trkpt lat="42.0797364795113" lon="9.190342662102962"><ele>749.0</ele><time>2026-05-03T13:10:41.999Z</time></trkpt><trkpt lat="42.079848632224575" lon="9.190423686769021"><ele>749.0</ele><time>2026-05-03T13:10:42.999Z</time></trkpt><trkpt lat="42.07995496528234" lon="9.190500021201828"><ele>749.0</ele><time>2026-05-03T13:10:43.999Z</time></trkpt><trkpt lat="42.08003351122958" lon="9.190595345054215"><ele>749.0</ele><time>2026-05-03T13:10:44.999Z</time></trkpt><trkpt lat="42.08007933410326" lon="9.190706713052474"><ele>749.0</ele><time>2026-05-03T13:10:45.999Z</time></trkpt><trkpt lat="42.080100462229474" lon="9.190825251262694"><ele>749.0</ele><time>2026-05-03T13:10:46.999Z</time></trkpt><trkpt lat="42.08011311656661" lon="9.190939497090508"><ele>749.0</ele><time>2026-05-03T13:10:47.999Z</time></trkpt><trkpt lat="42.08010375212022" lon="9.19104682010954"><ele>749.0</ele><time>2026-05-03T13:10:48.999Z</time></trkpt><trkpt lat="42.080047653368034" lon="9.191127353771169"><ele>749.0</ele><time>2026-05-03T13:10:50Z</time></trkpt><trkpt lat="42.07996672207751" lon="9.191132728844392"><ele>749.0</ele><time>2026-05-03T13:10:51Z</time></trkpt><trkpt lat="42.079890481563474" lon="9.191139650164484"><ele>749.0</ele><time>2026-05-03T13:10:52Z</time></trkpt><trkpt lat="42.07979164927123" lon="9.191117496935165"><ele>746.25</ele><time>2026-05-03T13:10:53Z</time></trkpt><trkpt lat="42.07968316057714" lon="9.19109487767654"><ele>743.5</ele><time>2026-05-03T13:10:54Z</time></trkpt><trkpt lat="42.07956523988695" lon="9.191058567701965"><ele>740.75</ele><time>2026-05-03T13:10:55Z</time></trkpt><trkpt lat="42.07944326937473" lon="9.191035536841827"><ele>738.0</ele><time>2026-05-03T13:10:56Z</time></trkpt><trkpt lat="42.07932759185328" lon="9.191031659595259"><ele>738.0</ele><time>2026-05-03T13:10:57Z</time></trkpt><trkpt lat="42.07922976637006" lon="9.191084845305433"><ele>738.0</ele><time>2026-05-03T13:10:58Z</time></trkpt><trkpt lat="42.079153093472684" lon="9.191169657323343"><ele>738.0</ele><time>2026-05-03T13:10:59Z</time></trkpt><trkpt lat="42.07910101287623" lon="9.191302621487512"><ele>738.0</ele><time>2026-05-03T13:11:00Z</time></trkpt><trkpt lat="42.07904598663965" lon="9.191436951143928"><ele>738.0</ele><time>2026-05-03T13:11:01Z</time></trkpt><trkpt lat="42.07896362488709" lon="9.191568038351223"><ele>735.25</ele><time>2026-05-03T13:11:02Z</time></trkpt><trkpt lat="42.07889094453423" lon="9.191714781425814"><ele>732.5</ele><time>2026-05-03T13:11:03Z</time></trkpt><trkpt lat="42.078814456565915" lon="9.191873478191766"><ele>729.75</ele><time>2026-05-03T13:11:04Z</time></trkpt><trkpt lat="42.07873654964346" lon="9.192034276716106"><ele>727.0</ele><time>2026-05-03T13:11:05Z</time></trkpt><trkpt lat="42.078658918015876" lon="9.192198955261746"><ele>727.75</ele><time>2026-05-03T13:11:06Z</time></trkpt><trkpt lat="42.078593942793994" lon="9.192352691343663"><ele>728.5</ele><time>2026-05-03T13:11:07Z</time></trkpt><trkpt lat="42.0785445606453" lon="9.192502966408611"><ele>729.25</ele><time>2026-05-03T13:11:08Z</time></trkpt><trkpt lat="42.07853063342474" lon="9.192651182251982"><ele>730.0</ele><time>2026-05-03T13:11:09Z</time></trkpt><trkpt lat="42.07854951378189" lon="9.192814285179107"><ele>730.0</ele><time>2026-05-03T13:11:10Z</time></trkpt><trkpt lat="42.078598142385104" lon="9.192969817422902"><ele>730.0</ele><time>2026-05-03T13:11:11Z</time></trkpt><trkpt lat="42.078665013305624" lon="9.193115065561905"><ele>730.0</ele><time>2026-05-03T13:11:12Z</time></trkpt><trkpt lat="42.078767948259475" lon="9.193231829051564"><ele>730.0</ele><time>2026-05-03T13:11:13Z</time></trkpt><trkpt lat="42.07888193724241" lon="9.193339455078625"><ele>727.3333333333334</ele><time>2026-05-03T13:11:14Z</time></trkpt><trkpt lat="42.079007291034394" lon="9.193436444981351"><ele>724.6666666666666</ele><time>2026-05-03T13:11:15Z</time></trkpt><trkpt lat="42.07913856182512" lon="9.193529409270058"><ele>722.0</ele><time>2026-05-03T13:11:16Z</time></trkpt><trkpt lat="42.07928222062795" lon="9.193622397908825"><ele>731.0</ele><time>2026-05-03T13:11:17Z</time></trkpt><trkpt lat="42.07943223355229" lon="9.193721185313183"><ele>740.0</ele><time>2026-05-03T13:11:18Z</time></trkpt><trkpt lat="42.079585503105676" lon="9.193824777498868"><ele>749.0</ele><time>2026-05-03T13:11:19Z</time></trkpt><trkpt lat="42.079742377860484" lon="9.193933385072883"><ele>746.0</ele><time>2026-05-03T13:11:20Z</time></trkpt><trkpt lat="42.079899251140816" lon="9.194054940067996"><ele>743.0</ele><time>2026-05-03T13:11:21Z</time></trkpt><trkpt lat="42.08006269656949" lon="9.194178387213986"><ele>740.0</ele><time>2026-05-03T13:11:22Z</time></trkpt><trkpt lat="42.08022815494245" lon="9.194296234507647"><ele>740.0</ele><time>2026-05-03T13:11:23Z</time></trkpt><trkpt lat="42.08039961969541" lon="9.194395563383818"><ele>740.0</ele><time>2026-05-03T13:11:24Z</time></trkpt><trkpt lat="42.08057080444256" lon="9.194474439427372"><ele>740.0</ele><time>2026-05-03T13:11:25Z</time></trkpt><trkpt lat="42.08073694759584" lon="9.194525325549755"><ele>738.0</ele><time>2026-05-03T13:11:26Z</time></trkpt><trkpt lat="42.08088038463861" lon="9.194590674899422"><ele>736.0</ele><time>2026-05-03T13:11:27.001Z</time></trkpt><trkpt lat="42.08100108466646" lon="9.194681345834388"><ele>734.0</ele><time>2026-05-03T13:11:28.001Z</time></trkpt><trkpt lat="42.08106802379676" lon="9.194834794035259"><ele>732.0</ele><time>2026-05-03T13:11:29.001Z</time></trkpt><trkpt lat="42.0811206990413" lon="9.194977854464506"><ele>732.0</ele><time>2026-05-03T13:11:30.001Z</time></trkpt><trkpt lat="42.081190306976325" lon="9.195087197977898"><ele>732.0</ele><time>2026-05-03T13:11:31.001Z</time></trkpt><trkpt lat="42.08126710675357" lon="9.195171280546603"><ele>732.0</ele><time>2026-05-03T13:11:32.001Z</time></trkpt><trkpt lat="42.0813686896257" lon="9.195179181312273"><ele>732.0</ele><time>2026-05-03T13:11:33.001Z</time></trkpt><trkpt lat="42.0814660893353" lon="9.195125122069827"><ele>732.0</ele><time>2026-05-03T13:11:34.001Z</time></trkpt><trkpt lat="42.08155549440548" lon="9.195091915462152"><ele>735.6</ele><time>2026-05-03T13:11:35.001Z</time></trkpt><trkpt lat="42.08165144350872" lon="9.195091064122833"><ele>739.2</ele><time>2026-05-03T13:11:36.001Z</time></trkpt><trkpt lat="42.08174464226457" lon="9.195158503032498"><ele>742.8</ele><time>2026-05-03T13:11:37.001Z</time></trkpt><trkpt lat="42.08180359018509" lon="9.195271010375485"><ele>746.4</ele><time>2026-05-03T13:11:38.001Z</time></trkpt><trkpt lat="42.08186421808345" lon="9.195362955380247"><ele>750.0</ele><time>2026-05-03T13:11:39.001Z</time></trkpt><trkpt lat="42.0819309023762" lon="9.195453774731108"><ele>750.0</ele><time>2026-05-03T13:11:40.001Z</time></trkpt><trkpt lat="42.08200531325736" lon="9.195527285916496"><ele>750.0</ele><time>2026-05-03T13:11:41.001Z</time></trkpt><trkpt lat="42.08210375907888" lon="9.195596880230347"><ele>750.0</ele><time>2026-05-03T13:11:42.001Z</time></trkpt><trkpt lat="42.08222081948122" lon="9.195656854627883"><ele>750.0</ele><time>2026-05-03T13:11:43.001Z</time></trkpt><trkpt lat="42.082363898648794" lon="9.195693937663757"><ele>747.0</ele><time>2026-05-03T13:11:44.001Z</time></trkpt><trkpt lat="42.08253144811607" lon="9.195714908487851"><ele>744.0</ele><time>2026-05-03T13:11:45.001Z</time></trkpt><trkpt lat="42.08270219523374" lon="9.195734527606094"><ele>741.0</ele><time>2026-05-03T13:11:46.001Z</time></trkpt><trkpt lat="42.0828735029848" lon="9.19577933337525"><ele>741.0</ele><time>2026-05-03T13:11:47.001Z</time></trkpt><trkpt lat="42.08304362617505" lon="9.195819289188734"><ele>741.0</ele><time>2026-05-03T13:11:48.001Z</time></trkpt><trkpt lat="42.083216422319445" lon="9.195840905700894"><ele>741.0</ele><time>2026-05-03T13:11:49.001Z</time></trkpt><trkpt lat="42.08338238519008" lon="9.195875056072202"><ele>743.3333333333334</ele><time>2026-05-03T13:11:50.001Z</time></trkpt><trkpt lat="42.0835326931457" lon="9.195919490756992"><ele>745.6666666666667</ele><time>2026-05-03T13:11:51.001Z</time></trkpt><trkpt lat="42.08368767117827" lon="9.195931392573845"><ele>748.0</ele><time>2026-05-03T13:11:52.001Z</time></trkpt><trkpt lat="42.083829954921384" lon="9.195901382240907"><ele>748.0</ele><time>2026-05-03T13:11:53.001Z</time></trkpt><trkpt lat="42.083976764384126" lon="9.19591459673787"><ele>748.0</ele><time>2026-05-03T13:11:54.001Z</time></trkpt><trkpt lat="42.08410002861013" lon="9.195999457821216"><ele>748.0</ele><time>2026-05-03T13:11:55.001Z</time></trkpt><trkpt lat="42.08421393698422" lon="9.196079117397066"><ele>748.0</ele><time>2026-05-03T13:11:56.001Z</time></trkpt><trkpt lat="42.08428037678816" lon="9.196190682544046"><ele>749.0</ele><time>2026-05-03T13:11:57.001Z</time></trkpt><trkpt lat="42.084314693034095" lon="9.196320265815551"><ele>750.0</ele><time>2026-05-03T13:11:58.001Z</time></trkpt><trkpt lat="42.08431291747159" lon="9.1964578009566"><ele>751.0</ele><time>2026-05-03T13:11:59.001Z</time></trkpt><trkpt lat="42.08433612583416" lon="9.196605482108104"><ele>752.0</ele><time>2026-05-03T13:12:00.001Z</time></trkpt><trkpt lat="42.08438306170268" lon="9.196712886327115"><ele>753.0</ele><time>2026-05-03T13:12:01.001Z</time></trkpt><trkpt lat="42.084459330819385" lon="9.196803150226167"><ele>752.5</ele><time>2026-05-03T13:12:02.001Z</time></trkpt><trkpt lat="42.08455658400912" lon="9.196864170560122"><ele>752.0</ele><time>2026-05-03T13:12:03.001Z</time></trkpt><trkpt lat="42.08467540995492" lon="9.196889092914404"><ele>751.5</ele><time>2026-05-03T13:12:04.001Z</time></trkpt><trkpt lat="42.08480690276451" lon="9.196928432378423"><ele>751.0</ele><time>2026-05-03T13:12:05.001Z</time></trkpt><trkpt lat="42.08494724877379" lon="9.196979482798778"><ele>751.0</ele><time>2026-05-03T13:12:06.001Z</time></trkpt><trkpt lat="42.08508015499921" lon="9.1970568113889"><ele>751.0</ele><time>2026-05-03T13:12:07.001Z</time></trkpt><trkpt lat="42.08519884511808" lon="9.197153306398803"><ele>751.0</ele><time>2026-05-03T13:12:08.001Z</time></trkpt><trkpt lat="42.0853055710698" lon="9.197261626643693"><ele>751.0</ele><time>2026-05-03T13:12:09.002Z</time></trkpt><trkpt lat="42.085401442724596" lon="9.197374519573701"><ele>749.5999999999999</ele><time>2026-05-03T13:12:10.002Z</time></trkpt><trkpt lat="42.085496267075776" lon="9.197467971123611"><ele>748.2</ele><time>2026-05-03T13:12:11.002Z</time></trkpt><trkpt lat="42.0855980809455" lon="9.197527242608714"><ele>746.8</ele><time>2026-05-03T13:12:11.998Z</time></trkpt><trkpt lat="42.085696778922724" lon="9.197549815091223"><ele>745.4000000000001</ele><time>2026-05-03T13:12:12.998Z</time></trkpt><trkpt lat="42.08578760690288" lon="9.197513277831002"><ele>744.0</ele><time>2026-05-03T13:12:13.998Z</time></trkpt><trkpt lat="42.08586259308836" lon="9.197443539325393"><ele>743.8000000000001</ele><time>2026-05-03T13:12:14.998Z</time></trkpt><trkpt lat="42.08592222078245" lon="9.197338049489181"><ele>743.6</ele><time>2026-05-03T13:12:15.998Z</time></trkpt><trkpt lat="42.08596564359844" lon="9.197210889761813"><ele>743.4</ele><time>2026-05-03T13:12:16.998Z</time></trkpt><trkpt lat="42.08597921565622" lon="9.197064085871485"><ele>743.2</ele><time>2026-05-03T13:12:17.998Z</time></trkpt><trkpt lat="42.08594209360842" lon="9.196924311309534"><ele>743.0</ele><time>2026-05-03T13:12:18.998Z</time></trkpt><trkpt lat="42.08590554448601" lon="9.196789635457993"><ele>743.8333333333333</ele><time>2026-05-03T13:12:19.998Z</time></trkpt><trkpt lat="42.085877109724905" lon="9.196660332482164"><ele>744.6666666666666</ele><time>2026-05-03T13:12:20.998Z</time></trkpt><trkpt lat="42.08586396257652" lon="9.196544045834795"><ele>745.5</ele><time>2026-05-03T13:12:21.998Z</time></trkpt><trkpt lat="42.08585917563833" lon="9.196429691179153"><ele>746.3333333333334</ele><time>2026-05-03T13:12:22.998Z</time></trkpt><trkpt lat="42.08589111916108" lon="9.196324457595974"><ele>747.1666666666667</ele><time>2026-05-03T13:12:23.998Z</time></trkpt><trkpt lat="42.08595570016218" lon="9.196244513179119"><ele>748.0</ele><time>2026-05-03T13:12:24.998Z</time></trkpt><trkpt lat="42.08604425781592" lon="9.196226801825842"><ele>751.0</ele><time>2026-05-03T13:12:25.998Z</time></trkpt><trkpt lat="42.08614445480022" lon="9.196265243675645"><ele>754.0</ele><time>2026-05-03T13:12:26.998Z</time></trkpt><trkpt lat="42.08625607708166" lon="9.196273490302758"><ele>757.0</ele><time>2026-05-03T13:12:27.998Z</time></trkpt><trkpt lat="42.08637162294091" lon="9.196309642103467"><ele>760.0</ele><time>2026-05-03T13:12:28.999Z</time></trkpt><trkpt lat="42.0864952156008" lon="9.196353755988957"><ele>760.25</ele><time>2026-05-03T13:12:29.999Z</time></trkpt><trkpt lat="42.08662485744916" lon="9.196404378598963"><ele>760.5</ele><time>2026-05-03T13:12:30.999Z</time></trkpt><trkpt lat="42.08676306103368" lon="9.196478305731423"><ele>760.75</ele><time>2026-05-03T13:12:31.999Z</time></trkpt><trkpt lat="42.08689831140739" lon="9.19656290095156"><ele>761.0</ele><time>2026-05-03T13:12:32.999Z</time></trkpt><trkpt lat="42.08703811444657" lon="9.196662372651257"><ele>757.0</ele><time>2026-05-03T13:12:33.999Z</time></trkpt><trkpt lat="42.0871740920298" lon="9.19674581798546"><ele>753.0</ele><time>2026-05-03T13:12:34.999Z</time></trkpt><trkpt lat="42.087299082200424" lon="9.196799310139584"><ele>749.0</ele><time>2026-05-03T13:12:35.999Z</time></trkpt><trkpt lat="42.08742300225964" lon="9.196798551811842"><ele>745.0</ele><time>2026-05-03T13:12:36.999Z</time></trkpt><trkpt lat="42.08753736842166" lon="9.196745186905703"><ele>745.0</ele><time>2026-05-03T13:12:37.999Z</time></trkpt><trkpt lat="42.08763535430146" lon="9.19667387003113"><ele>745.0</ele><time>2026-05-03T13:12:38.999Z</time></trkpt><trkpt lat="42.0877450004418" lon="9.196662824024468"><ele>745.0</ele><time>2026-05-03T13:12:39.999Z</time></trkpt><trkpt lat="42.0878539412357" lon="9.196756033086173"><ele>745.0</ele><time>2026-05-03T13:12:40.999Z</time></trkpt><trkpt lat="42.087982069984086" lon="9.19680881574541"><ele>745.0</ele><time>2026-05-03T13:12:41.999Z</time></trkpt><trkpt lat="42.08810761665289" lon="9.196869902488078"><ele>745.0</ele><time>2026-05-03T13:12:42.999Z</time></trkpt><trkpt lat="42.088225039007824" lon="9.196877021730163"><ele>745.0</ele><time>2026-05-03T13:12:43.999Z</time></trkpt><trkpt lat="42.08833256554441" lon="9.19685018295191"><ele>745.0</ele><time>2026-05-03T13:12:44.999Z</time></trkpt><trkpt lat="42.088432355812365" lon="9.196782892136826"><ele>745.0</ele><time>2026-05-03T13:12:46Z</time></trkpt><trkpt lat="42.08852038648814" lon="9.196667679143507"><ele>745.0</ele><time>2026-05-03T13:12:47Z</time></trkpt><trkpt lat="42.0886011290142" lon="9.196535083421317"><ele>745.0</ele><time>2026-05-03T13:12:48Z</time></trkpt><trkpt lat="42.0886840613663" lon="9.196406079396503"><ele>745.0</ele><time>2026-05-03T13:12:49Z</time></trkpt><trkpt lat="42.088772858334885" lon="9.196297328657725"><ele>749.4</ele><time>2026-05-03T13:12:50Z</time></trkpt><trkpt lat="42.08886393260771" lon="9.196230842486926"><ele>753.8</ele><time>2026-05-03T13:12:51Z</time></trkpt><trkpt lat="42.08896355050619" lon="9.196225737454332"><ele>758.2</ele><time>2026-05-03T13:12:52Z</time></trkpt><trkpt lat="42.08904912087581" lon="9.196281516361838"><ele>762.6</ele><time>2026-05-03T13:12:53Z</time></trkpt><trkpt lat="42.08912302459593" lon="9.196363740681681"><ele>767.0</ele><time>2026-05-03T13:12:54Z</time></trkpt><trkpt lat="42.08913868291783" lon="9.196487524180903"><ele>762.5</ele><time>2026-05-03T13:12:55Z</time></trkpt><trkpt lat="42.08917522301987" lon="9.19661170097958"><ele>758.0</ele><time>2026-05-03T13:12:56Z</time></trkpt><trkpt lat="42.08919356600539" lon="9.196757093947687"><ele>753.5</ele><time>2026-05-03T13:12:57Z</time></trkpt><trkpt lat="42.08920614053005" lon="9.196910267685048"><ele>749.0</ele><time>2026-05-03T13:12:58Z</time></trkpt><trkpt lat="42.089219324305645" lon="9.197080550933121"><ele>749.0</ele><time>2026-05-03T13:12:59Z</time></trkpt><trkpt lat="42.08924926869391" lon="9.197273238512244"><ele>749.0</ele><time>2026-05-03T13:13:00Z</time></trkpt><trkpt lat="42.089247984239485" lon="9.197478858058801"><ele>749.0</ele><time>2026-05-03T13:13:01Z</time></trkpt><trkpt lat="42.08922067854403" lon="9.197687090062637"><ele>747.5</ele><time>2026-05-03T13:13:02Z</time></trkpt><trkpt lat="42.08921717597257" lon="9.19788768422236"><ele>746.0</ele><time>2026-05-03T13:13:03Z</time></trkpt><trkpt lat="42.08919870101219" lon="9.198063054442718"><ele>744.5</ele><time>2026-05-03T13:13:04Z</time></trkpt><trkpt lat="42.08918992595408" lon="9.198221061082123"><ele>743.0</ele><time>2026-05-03T13:13:05Z</time></trkpt><trkpt lat="42.08919812498109" lon="9.198350019669864"><ele>742.0</ele><time>2026-05-03T13:13:06Z</time></trkpt><trkpt lat="42.089243472824556" lon="9.198458470359848"><ele>741.0</ele><time>2026-05-03T13:13:07Z</time></trkpt><trkpt lat="42.08931876198538" lon="9.1985198494051"><ele>740.0</ele><time>2026-05-03T13:13:08Z</time></trkpt><trkpt lat="42.08941225118262" lon="9.198529851433726"><ele>739.0</ele><time>2026-05-03T13:13:09Z</time></trkpt><trkpt lat="42.08948697064404" lon="9.198470479962038"><ele>738.0</ele><time>2026-05-03T13:13:10Z</time></trkpt><trkpt lat="42.08954148874146" lon="9.19837107481169"><ele>738.0</ele><time>2026-05-03T13:13:11Z</time></trkpt><trkpt lat="42.08959284947784" lon="9.198262283562789"><ele>738.0</ele><time>2026-05-03T13:13:12Z</time></trkpt><trkpt lat="42.08966352046336" lon="9.198146320614283"><ele>738.0</ele><time>2026-05-03T13:13:13.001Z</time></trkpt><trkpt lat="42.08976356740244" lon="9.198028605737228"><ele>738.0</ele><time>2026-05-03T13:13:14.001Z</time></trkpt><trkpt lat="42.08988619576396" lon="9.197925530995628"><ele>743.3333333333334</ele><time>2026-05-03T13:13:15.001Z</time></trkpt><trkpt lat="42.090022390103364" lon="9.197805150905868"><ele>748.6666666666667</ele><time>2026-05-03T13:13:16.001Z</time></trkpt><trkpt lat="42.09014876396444" lon="9.197679024812215"><ele>754.0</ele><time>2026-05-03T13:13:17.001Z</time></trkpt><trkpt lat="42.09027939619116" lon="9.197544136853619"><ele>754.0</ele><time>2026-05-03T13:13:18.001Z</time></trkpt><trkpt lat="42.09041891300406" lon="9.197439775702795"><ele>754.0</ele><time>2026-05-03T13:13:19.001Z</time></trkpt><trkpt lat="42.090556931953195" lon="9.197364324584253"><ele>754.0</ele><time>2026-05-03T13:13:20.001Z</time></trkpt><trkpt lat="42.09068593769856" lon="9.197332566680638"><ele>754.0</ele><time>2026-05-03T13:13:21.001Z</time></trkpt><trkpt lat="42.09081990723065" lon="9.197309281061804"><ele>752.0</ele><time>2026-05-03T13:13:22.001Z</time></trkpt><trkpt lat="42.09094873575068" lon="9.197377006643409"><ele>750.0</ele><time>2026-05-03T13:13:23.001Z</time></trkpt><trkpt lat="42.09108364915924" lon="9.197431561890156"><ele>748.0</ele><time>2026-05-03T13:13:24.001Z</time></trkpt><trkpt lat="42.09123367721488" lon="9.197470083171352"><ele>746.0</ele><time>2026-05-03T13:13:25.001Z</time></trkpt><trkpt lat="42.09138088133123" lon="9.1975091296774"><ele>746.0</ele><time>2026-05-03T13:13:26.001Z</time></trkpt><trkpt lat="42.09149971914686" lon="9.197584088159871"><ele>746.0</ele><time>2026-05-03T13:13:27.001Z</time></trkpt><trkpt lat="42.09159576535239" lon="9.197663000146568"><ele>746.0</ele><time>2026-05-03T13:13:28.001Z</time></trkpt><trkpt lat="42.09164301188034" lon="9.197752942302886"><ele>746.0</ele><time>2026-05-03T13:13:29.001Z</time></trkpt><trkpt lat="42.09165322810785" lon="9.197876535476361"><ele>746.0</ele><time>2026-05-03T13:13:30.001Z</time></trkpt><trkpt lat="42.09163713436211" lon="9.198010599802252"><ele>743.5</ele><time>2026-05-03T13:13:31.001Z</time></trkpt><trkpt lat="42.09159482643664" lon="9.198119655329519"><ele>741.0</ele><time>2026-05-03T13:13:32.001Z</time></trkpt><trkpt lat="42.091548698132335" lon="9.198202428496517"><ele>738.5</ele><time>2026-05-03T13:13:33.001Z</time></trkpt><trkpt lat="42.09149394926887" lon="9.198251460051724"><ele>736.0</ele><time>2026-05-03T13:13:34.001Z</time></trkpt><trkpt lat="42.09143000847181" lon="9.198310611493984"><ele>733.5</ele><time>2026-05-03T13:13:35.001Z</time></trkpt><trkpt lat="42.09133893091499" lon="9.198403562311123"><ele>731.0</ele><time>2026-05-03T13:13:36.001Z</time></trkpt><trkpt lat="42.091217746603434" lon="9.198472238592645"><ele>731.0</ele><time>2026-05-03T13:13:37.001Z</time></trkpt><trkpt lat="42.09110701005421" lon="9.198531470357297"><ele>731.0</ele><time>2026-05-03T13:13:38.001Z</time></trkpt><trkpt lat="42.09102436840456" lon="9.198649800308397"><ele>731.0</ele><time>2026-05-03T13:13:39.001Z</time></trkpt><trkpt lat="42.09098646681507" lon="9.19880558475234"><ele>731.0</ele><time>2026-05-03T13:13:40.001Z</time></trkpt><trkpt lat="42.09097372122115" lon="9.198999505354093"><ele>731.6666666666666</ele><time>2026-05-03T13:13:41.001Z</time></trkpt><trkpt lat="42.090963982155564" lon="9.19919252479381"><ele>732.3333333333334</ele><time>2026-05-03T13:13:42.001Z</time></trkpt><trkpt lat="42.09095081915911" lon="9.199407003772544"><ele>733.0</ele><time>2026-05-03T13:13:43.001Z</time></trkpt><trkpt lat="42.090925656985796" lon="9.199626829572152"><ele>734.6666666666667</ele><time>2026-05-03T13:13:44.001Z</time></trkpt><trkpt lat="42.090894410435425" lon="9.199852670917071"><ele>736.3333333333334</ele><time>2026-05-03T13:13:45.002Z</time></trkpt><trkpt lat="42.09086909467365" lon="9.200090996987601"><ele>738.0</ele><time>2026-05-03T13:13:46.002Z</time></trkpt><trkpt lat="42.0908697440501" lon="9.200331627990705"><ele>738.0</ele><time>2026-05-03T13:13:47.002Z</time></trkpt><trkpt lat="42.09086704306022" lon="9.200573514734451"><ele>738.0</ele><time>2026-05-03T13:13:48.002Z</time></trkpt><trkpt lat="42.09086542170449" lon="9.20082255634614"><ele>738.0</ele><time>2026-05-03T13:13:49.002Z</time></trkpt><trkpt lat="42.09086220979859" lon="9.201075957037526"><ele>738.3333333333334</ele><time>2026-05-03T13:13:50.002Z</time></trkpt><trkpt lat="42.090849401443556" lon="9.201305102511212"><ele>738.6666666666667</ele><time>2026-05-03T13:13:51.002Z</time></trkpt><trkpt lat="42.09083665869262" lon="9.201519245659266"><ele>739.0</ele><time>2026-05-03T13:13:52.002Z</time></trkpt><trkpt lat="42.09081444101884" lon="9.201724552472744"><ele>739.0</ele><time>2026-05-03T13:13:53.002Z</time></trkpt><trkpt lat="42.09079629274664" lon="9.2019337084349"><ele>739.0</ele><time>2026-05-03T13:13:54.002Z</time></trkpt><trkpt lat="42.09081615971492" lon="9.202135509503528"><ele>739.0</ele><time>2026-05-03T13:13:55.002Z</time></trkpt><trkpt lat="42.090873427603626" lon="9.20233978113635"><ele>738.0</ele><time>2026-05-03T13:13:56.002Z</time></trkpt><trkpt lat="42.090938802984255" lon="9.202552893003201"><ele>737.0</ele><time>2026-05-03T13:13:57.002Z</time></trkpt><trkpt lat="42.091007571421734" lon="9.202754827949759"><ele>736.0</ele><time>2026-05-03T13:13:58.002Z</time></trkpt><trkpt lat="42.091059386256156" lon="9.202939110822983"><ele>736.0</ele><time>2026-05-03T13:13:59.002Z</time></trkpt><trkpt lat="42.0911079507801" lon="9.203103717962444"><ele>736.0</ele><time>2026-05-03T13:14:00.002Z</time></trkpt><trkpt lat="42.09114874287209" lon="9.203250215800505"><ele>736.0</ele><time>2026-05-03T13:14:01.002Z</time></trkpt><trkpt lat="42.09119367648671" lon="9.203376403443642"><ele>736.0</ele><time>2026-05-03T13:14:02.002Z</time></trkpt><trkpt lat="42.09125300319723" lon="9.203472834299202"><ele>736.0</ele><time>2026-05-03T13:14:03.002Z</time></trkpt><trkpt lat="42.09134218823953" lon="9.203538415634727"><ele>733.5</ele><time>2026-05-03T13:14:04.002Z</time></trkpt><trkpt lat="42.091446060878056" lon="9.20357688514079"><ele>731.0</ele><time>2026-05-03T13:14:05.002Z</time></trkpt><trkpt lat="42.091561009734775" lon="9.203610668363464"><ele>728.5</ele><time>2026-05-03T13:14:06.002Z</time></trkpt><trkpt lat="42.09168564680436" lon="9.203637253362505"><ele>726.0</ele><time>2026-05-03T13:14:07.002Z</time></trkpt><trkpt lat="42.09180855973964" lon="9.203642634100675"><ele>730.1999999999999</ele><time>2026-05-03T13:14:08.002Z</time></trkpt><trkpt lat="42.09193052533346" lon="9.20361199144889"><ele>734.4</ele><time>2026-05-03T13:14:09.002Z</time></trkpt><trkpt lat="42.09203758099919" lon="9.203562946407265"><ele>738.6</ele><time>2026-05-03T13:14:10.002Z</time></trkpt><trkpt lat="42.092133520517" lon="9.203536776406953"><ele>742.8</ele><time>2026-05-03T13:14:11.002Z</time></trkpt><trkpt lat="42.092238848422895" lon="9.20351988034001"><ele>747.0</ele><time>2026-05-03T13:14:12.002Z</time></trkpt><trkpt lat="42.09233598690874" lon="9.203529726597589"><ele>748.8</ele><time>2026-05-03T13:14:13.002Z</time></trkpt><trkpt lat="42.092433917075375" lon="9.203556598440596"><ele>750.6</ele><time>2026-05-03T13:14:14.002Z</time></trkpt><trkpt lat="42.09254580643945" lon="9.203588253518184"><ele>752.4</ele><time>2026-05-03T13:14:15.002Z</time></trkpt><trkpt lat="42.09263725514962" lon="9.203639646435242"><ele>754.1999999999999</ele><time>2026-05-03T13:14:16.002Z</time></trkpt><trkpt lat="42.09274727551588" lon="9.203688071775982"><ele>756.0</ele><time>2026-05-03T13:14:17.002Z</time></trkpt><trkpt lat="42.09286032273851" lon="9.203740023341558"><ele>756.0</ele><time>2026-05-03T13:14:17.998Z</time></trkpt><trkpt lat="42.09297065517329" lon="9.203803004477344"><ele>756.0</ele><time>2026-05-03T13:14:18.998Z</time></trkpt><trkpt lat="42.0930791639997" lon="9.203869416024538"><ele>756.0</ele><time>2026-05-03T13:14:19.998Z</time></trkpt><trkpt lat="42.0931512437957" lon="9.203975221000261"><ele>756.0</ele><time>2026-05-03T13:14:20.998Z</time></trkpt><trkpt lat="42.09321096788406" lon="9.204087879177656"><ele>756.0</ele><time>2026-05-03T13:14:21.998Z</time></trkpt><trkpt lat="42.09323886159163" lon="9.204225883661563"><ele>752.5999999999999</ele><time>2026-05-03T13:14:22.998Z</time></trkpt><trkpt lat="42.093249669376725" lon="9.204377539517793"><ele>749.2</ele><time>2026-05-03T13:14:23.998Z</time></trkpt><trkpt lat="42.093251167191454" lon="9.204532232822384"><ele>745.8</ele><time>2026-05-03T13:14:24.998Z</time></trkpt><trkpt lat="42.09325085550316" lon="9.204676924899175"><ele>742.4000000000001</ele><time>2026-05-03T13:14:25.998Z</time></trkpt><trkpt lat="42.09325534246657" lon="9.204816647304744"><ele>739.0</ele><time>2026-05-03T13:14:26.998Z</time></trkpt><trkpt lat="42.09326432343681" lon="9.204941216043402"><ele>739.0</ele><time>2026-05-03T13:14:27.998Z</time></trkpt><trkpt lat="42.09328536377873" lon="9.20504880930121"><ele>739.0</ele><time>2026-05-03T13:14:28.999Z</time></trkpt><trkpt lat="42.09330887375064" lon="9.205163476965074"><ele>739.0</ele><time>2026-05-03T13:14:29.999Z</time></trkpt><trkpt lat="42.09336049530899" lon="9.205293326528908"><ele>739.0</ele><time>2026-05-03T13:14:30.999Z</time></trkpt><trkpt lat="42.0934287328163" lon="9.205413220343994"><ele>739.0</ele><time>2026-05-03T13:14:31.999Z</time></trkpt><trkpt lat="42.093476343194254" lon="9.205565002385114"><ele>737.5</ele><time>2026-05-03T13:14:32.999Z</time></trkpt><trkpt lat="42.09350422469876" lon="9.205737066628577"><ele>736.0</ele><time>2026-05-03T13:14:33.999Z</time></trkpt><trkpt lat="42.09350607288679" lon="9.205916289351059"><ele>734.5</ele><time>2026-05-03T13:14:34.999Z</time></trkpt><trkpt lat="42.09347439763363" lon="9.206089685101038"><ele>733.0</ele><time>2026-05-03T13:14:35.999Z</time></trkpt><trkpt lat="42.0934035144775" lon="9.20623920663594"><ele>733.0</ele><time>2026-05-03T13:14:36.999Z</time></trkpt><trkpt lat="42.09334394459208" lon="9.206388130999573"><ele>733.0</ele><time>2026-05-03T13:14:37.999Z</time></trkpt><trkpt lat="42.09329229542853" lon="9.206546299680447"><ele>733.0</ele><time>2026-05-03T13:14:38.999Z</time></trkpt><trkpt lat="42.09328642881881" lon="9.20670843407641"><ele>733.0</ele><time>2026-05-03T13:14:39.999Z</time></trkpt><trkpt lat="42.093284178122744" lon="9.206842330518134"><ele>732.8</ele><time>2026-05-03T13:14:40.999Z</time></trkpt><trkpt lat="42.093345986818555" lon="9.206946825544167"><ele>732.5999999999999</ele><time>2026-05-03T13:14:41.999Z</time></trkpt><trkpt lat="42.09342560789128" lon="9.20702898414368"><ele>732.4000000000001</ele><time>2026-05-03T13:14:42.999Z</time></trkpt><trkpt lat="42.09352826447758" lon="9.207116616483233"><ele>732.2</ele><time>2026-05-03T13:14:43.999Z</time></trkpt><trkpt lat="42.09362558032949" lon="9.207225110433614"><ele>732.0</ele><time>2026-05-03T13:14:44.999Z</time></trkpt><trkpt lat="42.09373939415178" lon="9.20733559320192"><ele>728.3333333333334</ele><time>2026-05-03T13:14:46Z</time></trkpt><trkpt lat="42.093857125173905" lon="9.20745576727274"><ele>724.6666666666667</ele><time>2026-05-03T13:14:47Z</time></trkpt><trkpt lat="42.09397828300308" lon="9.207576427283863"><ele>721.0</ele><time>2026-05-03T13:14:48Z</time></trkpt><trkpt lat="42.09409970515915" lon="9.2077142696144"><ele>722.0</ele><time>2026-05-03T13:14:49Z</time></trkpt><trkpt lat="42.09420033259747" lon="9.207882350779153"><ele>723.0</ele><time>2026-05-03T13:14:50Z</time></trkpt><trkpt lat="42.094321799103135" lon="9.208048477240784"><ele>724.0</ele><time>2026-05-03T13:14:51Z</time></trkpt><trkpt lat="42.09443045987257" lon="9.208226843672014"><ele>724.0</ele><time>2026-05-03T13:14:52Z</time></trkpt><trkpt lat="42.094549465231054" lon="9.20839665384407"><ele>724.0</ele><time>2026-05-03T13:14:53Z</time></trkpt><trkpt lat="42.09467801332187" lon="9.208542313273403"><ele>724.0</ele><time>2026-05-03T13:14:54Z</time></trkpt><trkpt lat="42.094809449170796" lon="9.20866225858863"><ele>726.6666666666667</ele><time>2026-05-03T13:14:55Z</time></trkpt><trkpt lat="42.094923944332095" lon="9.20880025632272"><ele>729.3333333333334</ele><time>2026-05-03T13:14:56Z</time></trkpt><trkpt lat="42.09499247289765" lon="9.208989468069706"><ele>732.0</ele><time>2026-05-03T13:14:57Z</time></trkpt><trkpt lat="42.09505252984278" lon="9.209184380700341"><ele>732.0</ele><time>2026-05-03T13:14:58Z</time></trkpt><trkpt lat="42.09510624053323" lon="9.209353686083379"><ele>732.0</ele><time>2026-05-03T13:14:59Z</time></trkpt><trkpt lat="42.09516046369068" lon="9.209491828006316"><ele>732.0</ele><time>2026-05-03T13:15:00Z</time></trkpt><trkpt lat="42.09518600404727" lon="9.209625715001124"><ele>732.0</ele><time>2026-05-03T13:15:01Z</time></trkpt><trkpt lat="42.09519406642694" lon="9.209758416934942"><ele>731.2</ele><time>2026-05-03T13:15:02Z</time></trkpt><trkpt lat="42.09517790238627" lon="9.209887899019796"><ele>730.4000000000001</ele><time>2026-05-03T13:15:03Z</time></trkpt><trkpt lat="42.09509721232513" lon="9.209983835999667"><ele>729.5999999999999</ele><time>2026-05-03T13:15:04Z</time></trkpt><trkpt lat="42.09501971001121" lon="9.210085988735338"><ele>728.8</ele><time>2026-05-03T13:15:05Z</time></trkpt><trkpt lat="42.094916665425856" lon="9.210155155051043"><ele>728.0</ele><time>2026-05-03T13:15:06Z</time></trkpt><trkpt lat="42.09480301516194" lon="9.21021063749716"><ele>726.4</ele><time>2026-05-03T13:15:07Z</time></trkpt><trkpt lat="42.09468834201039" lon="9.210253053596505"><ele>724.8</ele><time>2026-05-03T13:15:08Z</time></trkpt><trkpt lat="42.09459334072229" lon="9.210315558838925"><ele>723.2</ele><time>2026-05-03T13:15:09Z</time></trkpt><trkpt lat="42.094518076494886" lon="9.210376462480054"><ele>721.6</ele><time>2026-05-03T13:15:10Z</time></trkpt><trkpt lat="42.09446575532443" lon="9.210475345590833"><ele>720.0</ele><time>2026-05-03T13:15:11.001Z</time></trkpt><trkpt lat="42.094441409738835" lon="9.21059562226271"><ele>720.6</ele><time>2026-05-03T13:15:12.001Z</time></trkpt><trkpt lat="42.094453103262516" lon="9.210717664151051"><ele>721.2</ele><time>2026-05-03T13:15:13.001Z</time></trkpt><trkpt lat="42.094504463622165" lon="9.210821183191849"><ele>721.8</ele><time>2026-05-03T13:15:14.001Z</time></trkpt><trkpt lat="42.09457912162387" lon="9.210893810764658"><ele>722.4</ele><time>2026-05-03T13:15:15.001Z</time></trkpt><trkpt lat="42.094657674426855" lon="9.210969132506209"><ele>723.0</ele><time>2026-05-03T13:15:16.001Z</time></trkpt><trkpt lat="42.09471378667212" lon="9.211089689488917"><ele>723.0</ele><time>2026-05-03T13:15:17.001Z</time></trkpt><trkpt lat="42.09475599219008" lon="9.21123717861223"><ele>723.0</ele><time>2026-05-03T13:15:18.001Z</time></trkpt><trkpt lat="42.09479755566181" lon="9.211417059052408"><ele>723.0</ele><time>2026-05-03T13:15:19.001Z</time></trkpt><trkpt lat="42.094828584206525" lon="9.211614933722817"><ele>723.0</ele><time>2026-05-03T13:15:20.001Z</time></trkpt><trkpt lat="42.09484501315709" lon="9.211819701398253"><ele>719.75</ele><time>2026-05-03T13:15:21.001Z</time></trkpt><trkpt lat="42.09484584648728" lon="9.21201906496747"><ele>716.5</ele><time>2026-05-03T13:15:22.001Z</time></trkpt><trkpt lat="42.09484902214623" lon="9.212210415520296"><ele>713.25</ele><time>2026-05-03T13:15:23.001Z</time></trkpt><trkpt lat="42.094860509050214" lon="9.212389563469355"><ele>710.0</ele><time>2026-05-03T13:15:24.001Z</time></trkpt><trkpt lat="42.09488957814179" lon="9.21256404833248"><ele>711.5</ele><time>2026-05-03T13:15:25.001Z</time></trkpt><trkpt lat="42.09496519896002" lon="9.212730794308222"><ele>713.0</ele><time>2026-05-03T13:15:26.001Z</time></trkpt><trkpt lat="42.095038848289654" lon="9.212893973913292"><ele>714.5</ele><time>2026-05-03T13:15:27.001Z</time></trkpt><trkpt lat="42.095108813969716" lon="9.213074310848464"><ele>716.0</ele><time>2026-05-03T13:15:28.001Z</time></trkpt><trkpt lat="42.09517401313245" lon="9.21324046639113"><ele>716.0</ele><time>2026-05-03T13:15:29.001Z</time></trkpt><trkpt lat="42.09519876339383" lon="9.213432697517527"><ele>716.0</ele><time>2026-05-03T13:15:30.001Z</time></trkpt><trkpt lat="42.09522113764286" lon="9.213637531735362"><ele>716.0</ele><time>2026-05-03T13:15:31.001Z</time></trkpt><trkpt lat="42.09525715944251" lon="9.21384592061048"><ele>714.5</ele><time>2026-05-03T13:15:32.001Z</time></trkpt><trkpt lat="42.09527726513917" lon="9.2140265740999"><ele>713.0</ele><time>2026-05-03T13:15:33.001Z</time></trkpt><trkpt lat="42.09530789665906" lon="9.214176633323754"><ele>711.5</ele><time>2026-05-03T13:15:34.001Z</time></trkpt><trkpt lat="42.095346350146045" lon="9.2142972678401"><ele>710.0</ele><time>2026-05-03T13:15:35.001Z</time></trkpt><trkpt lat="42.09544259437772" lon="9.214368802755878"><ele>710.0</ele><time>2026-05-03T13:15:36.001Z</time></trkpt><trkpt lat="42.0955627810919" lon="9.21435847016833"><ele>710.0</ele><time>2026-05-03T13:15:37.001Z</time></trkpt><trkpt lat="42.09566834440173" lon="9.214314082172308"><ele>710.0</ele><time>2026-05-03T13:15:38.001Z</time></trkpt><trkpt lat="42.09576181282974" lon="9.214212647901284"><ele>710.0</ele><time>2026-05-03T13:15:39.001Z</time></trkpt><trkpt lat="42.09584710358728" lon="9.214086913868531"><ele>713.75</ele><time>2026-05-03T13:15:40.001Z</time></trkpt><trkpt lat="42.095936379794814" lon="9.213953849206552"><ele>717.5</ele><time>2026-05-03T13:15:41.001Z</time></trkpt><trkpt lat="42.09602701795923" lon="9.213802912254955"><ele>721.25</ele><time>2026-05-03T13:15:42.002Z</time></trkpt><trkpt lat="42.09611277481573" lon="9.213632915792674"><ele>725.0</ele><time>2026-05-03T13:15:43.002Z</time></trkpt><trkpt lat="42.096199653502495" lon="9.213458143726383"><ele>725.0</ele><time>2026-05-03T13:15:44.002Z</time></trkpt><trkpt lat="42.09629407059126" lon="9.213307350128593"><ele>725.0</ele><time>2026-05-03T13:15:45.002Z</time></trkpt><trkpt lat="42.096393189663445" lon="9.213176433156745"><ele>725.0</ele><time>2026-05-03T13:15:46.002Z</time></trkpt><trkpt lat="42.09649544634063" lon="9.213062075997856"><ele>725.0</ele><time>2026-05-03T13:15:47.002Z</time></trkpt><trkpt lat="42.09659139405177" lon="9.21299451518028"><ele>723.75</ele><time>2026-05-03T13:15:48.002Z</time></trkpt><trkpt lat="42.096698518612165" lon="9.212980857643219"><ele>722.5</ele><time>2026-05-03T13:15:49.002Z</time></trkpt><trkpt lat="42.09681903195792" lon="9.213010032783373"><ele>721.25</ele><time>2026-05-03T13:15:50.002Z</time></trkpt><trkpt lat="42.09694720071837" lon="9.213050039591568"><ele>720.0</ele><time>2026-05-03T13:15:51.002Z</time></trkpt><trkpt lat="42.09709205128522" lon="9.213077648516451"><ele>720.0</ele><time>2026-05-03T13:15:52.002Z</time></trkpt><trkpt lat="42.0972275487355" lon="9.213112472035567"><ele>720.0</ele><time>2026-05-03T13:15:53.002Z</time></trkpt><trkpt lat="42.09736286819408" lon="9.213132875688954"><ele>720.0</ele><time>2026-05-03T13:15:54.002Z</time></trkpt><trkpt lat="42.097491893188646" lon="9.213135334206708"><ele>720.0</ele><time>2026-05-03T13:15:55.002Z</time></trkpt><trkpt lat="42.09761549910131" lon="9.213122108696284"><ele>715.75</ele><time>2026-05-03T13:15:56.002Z</time></trkpt><trkpt lat="42.09773370171842" lon="9.213084671601374"><ele>711.5</ele><time>2026-05-03T13:15:57.002Z</time></trkpt><trkpt lat="42.0978546611657" lon="9.213016834011748"><ele>707.25</ele><time>2026-05-03T13:15:58.002Z</time></trkpt><trkpt lat="42.097970198692906" lon="9.21292230207652"><ele>703.0</ele><time>2026-05-03T13:15:59.002Z</time></trkpt><trkpt lat="42.098075802706354" lon="9.212834456569052"><ele>703.0</ele><time>2026-05-03T13:16:00.002Z</time></trkpt><trkpt lat="42.098158941967746" lon="9.212748592971806"><ele>703.0</ele><time>2026-05-03T13:16:01.002Z</time></trkpt><trkpt lat="42.098219878909426" lon="9.212671684914117"><ele>703.0</ele><time>2026-05-03T13:16:02.002Z</time></trkpt><trkpt lat="42.09823490605688" lon="9.212570433725134"><ele>703.0</ele><time>2026-05-03T13:16:03.002Z</time></trkpt><trkpt lat="42.09820850586625" lon="9.212459726984115"><ele>703.0</ele><time>2026-05-03T13:16:04.002Z</time></trkpt><trkpt lat="42.098137143380555" lon="9.212354881813638"><ele>700.75</ele><time>2026-05-03T13:16:05.002Z</time></trkpt><trkpt lat="42.09803877313638" lon="9.212263918633795"><ele>698.5</ele><time>2026-05-03T13:16:06.002Z</time></trkpt><trkpt lat="42.09793138338945" lon="9.212177784266615"><ele>696.25</ele><time>2026-05-03T13:16:07.002Z</time></trkpt><trkpt lat="42.09783036537929" lon="9.212077824949363"><ele>694.0</ele><time>2026-05-03T13:16:08.002Z</time></trkpt><trkpt lat="42.09774525878478" lon="9.211978514357417"><ele>694.0</ele><time>2026-05-03T13:16:09.002Z</time></trkpt><trkpt lat="42.09768254059019" lon="9.21188167145168"><ele>694.0</ele><time>2026-05-03T13:16:10.002Z</time></trkpt><trkpt lat="42.09765278964497" lon="9.211776104768608"><ele>694.0</ele><time>2026-05-03T13:16:11.002Z</time></trkpt><trkpt lat="42.09766740459324" lon="9.211670883949221"><ele>694.0</ele><time>2026-05-03T13:16:12.002Z</time></trkpt><trkpt lat="42.097719089069116" lon="9.211580608752277"><ele>694.0</ele><time>2026-05-03T13:16:13.002Z</time></trkpt><trkpt lat="42.097788909330944" lon="9.211530085624293"><ele>694.0</ele><time>2026-05-03T13:16:14.002Z</time></trkpt><trkpt lat="42.09786696492985" lon="9.21148414430509"><ele>694.0</ele><time>2026-05-03T13:16:15.002Z</time></trkpt><trkpt lat="42.097968587270266" lon="9.211490997511953"><ele>694.0</ele><time>2026-05-03T13:16:16.003Z</time></trkpt><trkpt lat="42.098088502571585" lon="9.211489780015727"><ele>694.0</ele><time>2026-05-03T13:16:17.003Z</time></trkpt><trkpt lat="42.09821146853095" lon="9.21148003342523"><ele>694.0</ele><time>2026-05-03T13:16:18.003Z</time></trkpt><trkpt lat="42.098340327956485" lon="9.211479695521312"><ele>694.25</ele><time>2026-05-03T13:16:19.003Z</time></trkpt><trkpt lat="42.09846482656709" lon="9.211464809893588"><ele>694.5</ele><time>2026-05-03T13:16:20.003Z</time></trkpt><trkpt lat="42.09858542829896" lon="9.21142521105178"><ele>694.75</ele><time>2026-05-03T13:16:21.003Z</time></trkpt><trkpt lat="42.09871516648849" lon="9.211366597700257"><ele>695.0</ele><time>2026-05-03T13:16:22.003Z</time></trkpt><trkpt lat="42.098844411573474" lon="9.211330930402907"><ele>695.0</ele><time>2026-05-03T13:16:23.003Z</time></trkpt><trkpt lat="42.09897552174181" lon="9.2113827261503"><ele>695.0</ele><time>2026-05-03T13:16:23.998Z</time></trkpt><trkpt lat="42.09911165422794" lon="9.211380464146973"><ele>695.0</ele><time>2026-05-03T13:16:24.998Z</time></trkpt><trkpt lat="42.099239982068134" lon="9.211369953798929"><ele>695.0</ele><time>2026-05-03T13:16:25.998Z</time></trkpt><trkpt lat="42.09936366635652" lon="9.21130657613569"><ele>694.75</ele><time>2026-05-03T13:16:26.998Z</time></trkpt><trkpt lat="42.09949207777201" lon="9.211246587761165"><ele>694.5</ele><time>2026-05-03T13:16:27.998Z</time></trkpt><trkpt lat="42.09962230003213" lon="9.211237648449323"><ele>694.25</ele><time>2026-05-03T13:16:28.998Z</time></trkpt><trkpt lat="42.09974284338624" lon="9.211191926202076"><ele>694.0</ele><time>2026-05-03T13:16:29.998Z</time></trkpt><trkpt lat="42.09986743025259" lon="9.21115024786981"><ele>691.5</ele><time>2026-05-03T13:16:30.999Z</time></trkpt><trkpt lat="42.09998701731069" lon="9.211099576239096"><ele>689.0</ele><time>2026-05-03T13:16:31.999Z</time></trkpt><trkpt lat="42.10010526246597" lon="9.211038043300602"><ele>686.5</ele><time>2026-05-03T13:16:32.999Z</time></trkpt><trkpt lat="42.10021229904478" lon="9.210972530216452"><ele>684.0</ele><time>2026-05-03T13:16:33.999Z</time></trkpt><trkpt lat="42.100303016479934" lon="9.21091041154059"><ele>684.0</ele><time>2026-05-03T13:16:34.999Z</time></trkpt><trkpt lat="42.100379612765906" lon="9.210883378329385"><ele>684.0</ele><time>2026-05-03T13:16:35.999Z</time></trkpt><trkpt lat="42.10046523970402" lon="9.210829154519326"><ele>684.0</ele><time>2026-05-03T13:16:37.999Z</time></trkpt><trkpt lat="42.100521212448434" lon="9.210786862788954"><ele>684.0</ele><time>2026-05-03T13:18:33.001Z</time></trkpt><trkpt lat="42.10059677825368" lon="9.210704268250378"><ele>684.0</ele><time>2026-05-03T13:18:35Z</time></trkpt><trkpt lat="42.10070120880989" lon="9.210633906352802"><ele>686.8000000000001</ele><time>2026-05-03T13:18:37Z</time></trkpt><trkpt lat="42.10081189134962" lon="9.210583351310232"><ele>689.6</ele><time>2026-05-03T13:18:39Z</time></trkpt><trkpt lat="42.10090357082117" lon="9.210528338781684"><ele>692.4</ele><time>2026-05-03T13:18:41Z</time></trkpt><trkpt lat="42.10100074325346" lon="9.21048175933247"><ele>695.2</ele><time>2026-05-03T13:18:44Z</time></trkpt><trkpt lat="42.10109653109862" lon="9.210431866578476"><ele>698.0</ele><time>2026-05-03T13:18:46Z</time></trkpt><trkpt lat="42.10122395089941" lon="9.210376822218178"><ele>698.0</ele><time>2026-05-03T13:18:48Z</time></trkpt><trkpt lat="42.10129273311239" lon="9.21035368238976"><ele>698.0</ele><time>2026-05-03T13:18:49Z</time></trkpt><trkpt lat="42.10136176622979" lon="9.210329895329389"><ele>698.0</ele><time>2026-05-03T13:18:50Z</time></trkpt><trkpt lat="42.10143347085499" lon="9.210308624701671"><ele>698.0</ele><time>2026-05-03T13:18:51Z</time></trkpt><trkpt lat="42.101512554143305" lon="9.21027909071824"><ele>698.0</ele><time>2026-05-03T13:18:52Z</time></trkpt><trkpt lat="42.10159772847041" lon="9.210247106794178"><ele>698.0</ele><time>2026-05-03T13:18:53Z</time></trkpt><trkpt lat="42.10168798239702" lon="9.210220977286156"><ele>695.5999999999999</ele><time>2026-05-03T13:18:54Z</time></trkpt><trkpt lat="42.10177882999486" lon="9.210192760391818"><ele>693.1999999999999</ele><time>2026-05-03T13:18:55Z</time></trkpt><trkpt lat="42.10186652666302" lon="9.21015696358997"><ele>690.8</ele><time>2026-05-03T13:18:56.001Z</time></trkpt><trkpt lat="42.101950273985764" lon="9.210111090649226"><ele>688.4</ele><time>2026-05-03T13:18:57.001Z</time></trkpt><trkpt lat="42.102035027114965" lon="9.210052347152693"><ele>686.0</ele><time>2026-05-03T13:18:58.001Z</time></trkpt><trkpt lat="42.10211395039057" lon="9.209976868720291"><ele>686.0</ele><time>2026-05-03T13:18:59.001Z</time></trkpt><trkpt lat="42.10218990762311" lon="9.209882754309007"><ele>686.0</ele><time>2026-05-03T13:19:00.001Z</time></trkpt><trkpt lat="42.10225934814151" lon="9.209778408761354"><ele>686.0</ele><time>2026-05-03T13:19:01.001Z</time></trkpt><trkpt lat="42.10233495704665" lon="9.20966613609224"><ele>686.0</ele><time>2026-05-03T13:19:02.001Z</time></trkpt><trkpt lat="42.10240761809054" lon="9.209545543632478"><ele>686.0</ele><time>2026-05-03T13:19:03.001Z</time></trkpt><trkpt lat="42.10246605402903" lon="9.20942063621433"><ele>685.25</ele><time>2026-05-03T13:19:04.001Z</time></trkpt><trkpt lat="42.102506810819605" lon="9.209294488742115"><ele>684.5</ele><time>2026-05-03T13:19:05.001Z</time></trkpt><trkpt lat="42.102464864042936" lon="9.20912990921254"><ele>683.75</ele><time>2026-05-03T13:19:06.001Z</time></trkpt><trkpt lat="42.10241348613816" lon="9.20898221327404"><ele>683.0</ele><time>2026-05-03T13:19:07.001Z</time></trkpt><trkpt lat="42.10234709832104" lon="9.208846850921587"><ele>687.75</ele><time>2026-05-03T13:19:08.001Z</time></trkpt><trkpt lat="42.10225982810082" lon="9.20872344243092"><ele>692.5</ele><time>2026-05-03T13:19:09.001Z</time></trkpt><trkpt lat="42.10215323327429" lon="9.208609173260625"><ele>697.25</ele><time>2026-05-03T13:19:10.001Z</time></trkpt><trkpt lat="42.102027595739614" lon="9.208524358193094"><ele>702.0</ele><time>2026-05-03T13:19:11.001Z</time></trkpt><trkpt lat="42.10188952607818" lon="9.208466574536882"><ele>702.0</ele><time>2026-05-03T13:19:12.001Z</time></trkpt><trkpt lat="42.10176607674264" lon="9.208380751580313"><ele>702.0</ele><time>2026-05-03T13:19:13.001Z</time></trkpt><trkpt lat="42.101655496641044" lon="9.208323932615007"><ele>702.0</ele><time>2026-05-03T13:19:14.001Z</time></trkpt><trkpt lat="42.10155765081763" lon="9.208253239409757"><ele>702.0</ele><time>2026-05-03T13:19:15.001Z</time></trkpt><trkpt lat="42.1014718475966" lon="9.208154559071394"><ele>708.2</ele><time>2026-05-03T13:19:16.001Z</time></trkpt><trkpt lat="42.1014060503458" lon="9.20804608538472"><ele>714.4000000000001</ele><time>2026-05-03T13:19:17.001Z</time></trkpt><trkpt lat="42.10136584317597" lon="9.207913672999558"><ele>720.5999999999999</ele><time>2026-05-03T13:19:18.001Z</time></trkpt><trkpt lat="42.10135571175084" lon="9.207796000812374"><ele>726.8</ele><time>2026-05-03T13:19:19.001Z</time></trkpt><trkpt lat="42.10135143323716" lon="9.207699534328468"><ele>733.0</ele><time>2026-05-03T13:19:20.001Z</time></trkpt><trkpt lat="42.10141064092118" lon="9.207625253131885"><ele>733.0</ele><time>2026-05-03T13:19:21.001Z</time></trkpt><trkpt lat="42.10151116869178" lon="9.207591231554614"><ele>733.0</ele><time>2026-05-03T13:19:22.001Z</time></trkpt><trkpt lat="42.10160736917795" lon="9.20751801450818"><ele>733.0</ele><time>2026-05-03T13:19:23.001Z</time></trkpt><trkpt lat="42.10170676190496" lon="9.207451976741744"><ele>733.0</ele><time>2026-05-03T13:19:24.001Z</time></trkpt><trkpt lat="42.10180621696568" lon="9.207391225826157"><ele>733.0</ele><time>2026-05-03T13:19:25.001Z</time></trkpt><trkpt lat="42.10191359180045" lon="9.207345600956087"><ele>727.2</ele><time>2026-05-03T13:19:26.001Z</time></trkpt><trkpt lat="42.10201148166624" lon="9.207363012143936"><ele>721.4</ele><time>2026-05-03T13:19:27.001Z</time></trkpt><trkpt lat="42.102089506976014" lon="9.20743584738162"><ele>715.6</ele><time>2026-05-03T13:19:28.001Z</time></trkpt><trkpt lat="42.102148013871776" lon="9.207564857212587"><ele>709.8000000000001</ele><time>2026-05-03T13:19:29.001Z</time></trkpt><trkpt lat="42.102239103747486" lon="9.207648067443357"><ele>704.0</ele><time>2026-05-03T13:19:30.001Z</time></trkpt><trkpt lat="42.102343496031104" lon="9.207709209152664"><ele>708.0</ele><time>2026-05-03T13:19:31.001Z</time></trkpt><trkpt lat="42.102482131962" lon="9.207731890977868"><ele>712.0</ele><time>2026-05-03T13:19:32.001Z</time></trkpt><trkpt lat="42.10263184554167" lon="9.20773677969723"><ele>716.0</ele><time>2026-05-03T13:19:33.001Z</time></trkpt><trkpt lat="42.102798964466835" lon="9.207749714686662"><ele>716.0</ele><time>2026-05-03T13:19:34.001Z</time></trkpt><trkpt lat="42.10297042596429" lon="9.207766368606578"><ele>716.0</ele><time>2026-05-03T13:19:35.001Z</time></trkpt><trkpt lat="42.10313550667476" lon="9.207778252415876"><ele>716.0</ele><time>2026-05-03T13:19:36.001Z</time></trkpt><trkpt lat="42.10329766201765" lon="9.207766521982629"><ele>720.25</ele><time>2026-05-03T13:19:37.001Z</time></trkpt><trkpt lat="42.10343568426039" lon="9.207743450725783"><ele>724.5</ele><time>2026-05-03T13:19:38.001Z</time></trkpt><trkpt lat="42.10355810480184" lon="9.207734128705072"><ele>728.75</ele><time>2026-05-03T13:19:39.002Z</time></trkpt><trkpt lat="42.10366118848046" lon="9.20782114509906"><ele>733.0</ele><time>2026-05-03T13:19:40.002Z</time></trkpt><trkpt lat="42.10378339992857" lon="9.207925586784599"><ele>733.0</ele><time>2026-05-03T13:19:41.002Z</time></trkpt><trkpt lat="42.10392469822983" lon="9.208030820417543"><ele>733.0</ele><time>2026-05-03T13:19:42.002Z</time></trkpt><trkpt lat="42.104064929813184" lon="9.208157348956007"><ele>733.0</ele><time>2026-05-03T13:19:43.002Z</time></trkpt><trkpt lat="42.10421981383412" lon="9.208271516828846"><ele>728.6666666666667</ele><time>2026-05-03T13:19:44.002Z</time></trkpt><trkpt lat="42.10439142363251" lon="9.208370477149346"><ele>724.3333333333334</ele><time>2026-05-03T13:19:45.002Z</time></trkpt><trkpt lat="42.10458267809229" lon="9.208434535981203"><ele>720.0</ele><time>2026-05-03T13:19:46.002Z</time></trkpt><trkpt lat="42.104773025703956" lon="9.20849480250931"><ele>726.75</ele><time>2026-05-03T13:19:47.002Z</time></trkpt><trkpt lat="42.10493331050396" lon="9.208546718359186"><ele>733.5</ele><time>2026-05-03T13:19:48.002Z</time></trkpt><trkpt lat="42.10505940087829" lon="9.208616973503267"><ele>740.25</ele><time>2026-05-03T13:19:49.002Z</time></trkpt><trkpt lat="42.105152407462235" lon="9.208721157072603"><ele>747.0</ele><time>2026-05-03T13:19:50.002Z</time></trkpt><trkpt lat="42.10520070174633" lon="9.208871408750891"><ele>739.25</ele><time>2026-05-03T13:19:51.002Z</time></trkpt><trkpt lat="42.10527564256666" lon="9.209023729258988"><ele>731.5</ele><time>2026-05-03T13:19:52.002Z</time></trkpt><trkpt lat="42.10533423016631" lon="9.209197178711573"><ele>723.75</ele><time>2026-05-03T13:19:53.002Z</time></trkpt><trkpt lat="42.10541248801285" lon="9.209329281401994"><ele>716.0</ele><time>2026-05-03T13:19:54.002Z</time></trkpt><trkpt lat="42.105531260604714" lon="9.209415409153115"><ele>716.0</ele><time>2026-05-03T13:19:55.002Z</time></trkpt><trkpt lat="42.10566776671629" lon="9.209483089297326"><ele>716.0</ele><time>2026-05-03T13:19:56.002Z</time></trkpt><trkpt lat="42.10578140511478" lon="9.209523548407736"><ele>716.0</ele><time>2026-05-03T13:19:57.002Z</time></trkpt><trkpt lat="42.105880427954425" lon="9.209523488517148"><ele>716.0</ele><time>2026-05-03T13:19:58.002Z</time></trkpt><trkpt lat="42.1059976106059" lon="9.209468972443478"><ele>722.75</ele><time>2026-05-03T13:19:59.002Z</time></trkpt><trkpt lat="42.106110438482936" lon="9.209381583110028"><ele>729.5</ele><time>2026-05-03T13:20:00.002Z</time></trkpt><trkpt lat="42.10622396361158" lon="9.209278937214068"><ele>736.25</ele><time>2026-05-03T13:20:01.002Z</time></trkpt><trkpt lat="42.106336363246186" lon="9.209155224952482"><ele>743.0</ele><time>2026-05-03T13:20:02.002Z</time></trkpt><trkpt lat="42.10645526703263" lon="9.209026462422568"><ele>751.0</ele><time>2026-05-03T13:20:03.002Z</time></trkpt><trkpt lat="42.106581751116074" lon="9.208892254668356"><ele>759.0</ele><time>2026-05-03T13:20:04.002Z</time></trkpt><trkpt lat="42.106718920341834" lon="9.208755314543119"><ele>767.0</ele><time>2026-05-03T13:20:05.002Z</time></trkpt><trkpt lat="42.10681692768597" lon="9.208587575684916"><ele>767.0</ele><time>2026-05-03T13:20:06.002Z</time></trkpt><trkpt lat="42.106916905613026" lon="9.208482253130667"><ele>767.0</ele><time>2026-05-03T13:20:07.002Z</time></trkpt><trkpt lat="42.10703227535881" lon="9.208476589522563"><ele>767.0</ele><time>2026-05-03T13:20:08.002Z</time></trkpt><trkpt lat="42.10714657901584" lon="9.208492135125217"><ele>767.0</ele><time>2026-05-03T13:20:09.002Z</time></trkpt><trkpt lat="42.10728153441475" lon="9.208459249560274"><ele>764.6666666666666</ele><time>2026-05-03T13:20:10.002Z</time></trkpt><trkpt lat="42.10743162926321" lon="9.208408277396604"><ele>762.3333333333334</ele><time>2026-05-03T13:20:11.002Z</time></trkpt><trkpt lat="42.107591487102816" lon="9.208295949236767"><ele>760.0</ele><time>2026-05-03T13:20:12.002Z</time></trkpt><trkpt lat="42.1077651352065" lon="9.208179909214106"><ele>768.3333333333334</ele><time>2026-05-03T13:20:13.002Z</time></trkpt><trkpt lat="42.10794673078249" lon="9.208075283647743"><ele>776.6666666666667</ele><time>2026-05-03T13:20:14.002Z</time></trkpt><trkpt lat="42.10813054807724" lon="9.208010298216722"><ele>785.0</ele><time>2026-05-03T13:20:15.002Z</time></trkpt><trkpt lat="42.10828312635533" lon="9.207967339748166"><ele>785.0</ele><time>2026-05-03T13:20:16.002Z</time></trkpt><trkpt lat="42.10842950711768" lon="9.20792075109942"><ele>785.0</ele><time>2026-05-03T13:20:17.002Z</time></trkpt><trkpt lat="42.10855135479629" lon="9.20785788602783"><ele>785.0</ele><time>2026-05-03T13:20:18.002Z</time></trkpt><trkpt lat="42.108662161831" lon="9.207819278669147"><ele>785.0</ele><time>2026-05-03T13:20:19.003Z</time></trkpt><trkpt lat="42.10875576370811" lon="9.207766543875872"><ele>785.0</ele><time>2026-05-03T13:20:20.003Z</time></trkpt><trkpt lat="42.10882748101796" lon="9.20768714321038"><ele>785.0</ele><time>2026-05-03T13:20:21.003Z</time></trkpt><trkpt lat="42.10887701971118" lon="9.207562659352456"><ele>785.0</ele><time>2026-05-03T13:20:22.003Z</time></trkpt><trkpt lat="42.10888822172528" lon="9.207410667604977"><ele>785.0</ele><time>2026-05-03T13:20:23.003Z</time></trkpt><trkpt lat="42.10885815550349" lon="9.207247903453355"><ele>785.0</ele><time>2026-05-03T13:20:24.003Z</time></trkpt><trkpt lat="42.1088053681635" lon="9.207050841744513"><ele>791.6666666666667</ele><time>2026-05-03T13:20:25.003Z</time></trkpt><trkpt lat="42.108752595457304" lon="9.20683324356592"><ele>798.3333333333333</ele><time>2026-05-03T13:20:26.003Z</time></trkpt><trkpt lat="42.10870948554866" lon="9.20661026957276"><ele>805.0</ele><time>2026-05-03T13:20:27.003Z</time></trkpt><trkpt lat="42.10867041048206" lon="9.206398478184491"><ele>808.75</ele><time>2026-05-03T13:20:28.003Z</time></trkpt><trkpt lat="42.108644070854595" lon="9.206202219558392"><ele>812.5</ele><time>2026-05-03T13:20:29.003Z</time></trkpt><trkpt lat="42.10864511183147" lon="9.206035328119542"><ele>816.25</ele><time>2026-05-03T13:20:30.003Z</time></trkpt><trkpt lat="42.108687827270735" lon="9.20588507557099"><ele>820.0</ele><time>2026-05-03T13:20:31.003Z</time></trkpt><trkpt lat="42.10877380461637" lon="9.205754306063955"><ele>824.0</ele><time>2026-05-03T13:20:32.003Z</time></trkpt><trkpt lat="42.10886248817954" lon="9.205589715419801"><ele>828.0</ele><time>2026-05-03T13:20:33.003Z</time></trkpt><trkpt lat="42.108942923086296" lon="9.205414383794006"><ele>832.0</ele><time>2026-05-03T13:20:34.003Z</time></trkpt><trkpt lat="42.10902528796669" lon="9.205257586837963"><ele>836.0</ele><time>2026-05-03T13:20:35.003Z</time></trkpt><trkpt lat="42.10908367081294" lon="9.205112033249385"><ele>838.75</ele><time>2026-05-03T13:20:35.999Z</time></trkpt><trkpt lat="42.10911181432106" lon="9.204949599331835"><ele>841.5</ele><time>2026-05-03T13:20:36.999Z</time></trkpt><trkpt lat="42.10910236466631" lon="9.204782157847413"><ele>844.25</ele><time>2026-05-03T13:20:37.999Z</time></trkpt><trkpt lat="42.10906955821788" lon="9.204610695585744"><ele>847.0</ele><time>2026-05-03T13:20:38.999Z</time></trkpt><trkpt lat="42.10904796995765" lon="9.204436154390136"><ele>847.0</ele><time>2026-05-03T13:20:39.999Z</time></trkpt><trkpt lat="42.109074497311695" lon="9.204273279399693"><ele>847.0</ele><time>2026-05-03T13:20:40.999Z</time></trkpt><trkpt lat="42.109147300025555" lon="9.204128723077147"><ele>847.0</ele><time>2026-05-03T13:20:41.999Z</time></trkpt><trkpt lat="42.109253347211265" lon="9.204032317067309"><ele>847.0</ele><time>2026-05-03T13:20:42.999Z</time></trkpt><trkpt lat="42.10930039847839" lon="9.203907534661708"><ele>836.0</ele><time>2026-05-03T13:20:43.999Z</time></trkpt><trkpt lat="42.10930120025545" lon="9.20377661285203"><ele>825.0</ele><time>2026-05-03T13:20:44.999Z</time></trkpt><trkpt lat="42.10925277947746" lon="9.203617557030235"><ele>814.0</ele><time>2026-05-03T13:20:45.999Z</time></trkpt><trkpt lat="42.10918303678403" lon="9.203448581518465"><ele>803.0</ele><time>2026-05-03T13:20:46.999Z</time></trkpt><trkpt lat="42.109111922423516" lon="9.203268332480818"><ele>806.4</ele><time>2026-05-03T13:20:47.999Z</time></trkpt><trkpt lat="42.10906638405731" lon="9.203127511313545"><ele>809.8</ele><time>2026-05-03T13:20:48.999Z</time></trkpt><trkpt lat="42.10905090569428" lon="9.203006835031381"><ele>813.2</ele><time>2026-05-03T13:20:50Z</time></trkpt><trkpt lat="42.10908344977982" lon="9.202914439100722"><ele>816.6</ele><time>2026-05-03T13:20:51Z</time></trkpt><trkpt lat="42.1091617873408" lon="9.202857309064994"><ele>820.0</ele><time>2026-05-03T13:20:52Z</time></trkpt><trkpt lat="42.109278583677224" lon="9.202837231815906"><ele>820.0</ele><time>2026-05-03T13:20:53Z</time></trkpt><trkpt lat="42.109404960158756" lon="9.20279375616023"><ele>820.0</ele><time>2026-05-03T13:20:54Z</time></trkpt><trkpt lat="42.10953089813284" lon="9.202688721412843"><ele>820.0</ele><time>2026-05-03T13:20:55Z</time></trkpt><trkpt lat="42.10965781895852" lon="9.202564620432275"><ele>820.0</ele><time>2026-05-03T13:20:56Z</time></trkpt><trkpt lat="42.109796626341584" lon="9.202462631594406"><ele>824.3333333333333</ele><time>2026-05-03T13:20:57Z</time></trkpt><trkpt lat="42.10995406855088" lon="9.202380067619693"><ele>828.6666666666667</ele><time>2026-05-03T13:20:58Z</time></trkpt><trkpt lat="42.110115289364934" lon="9.202286891232388"><ele>833.0</ele><time>2026-05-03T13:20:59Z</time></trkpt><trkpt lat="42.11024891986015" lon="9.202163615689187"><ele>833.0</ele><time>2026-05-03T13:21:00Z</time></trkpt><trkpt lat="42.11034249110089" lon="9.202021518912126"><ele>833.0</ele><time>2026-05-03T13:21:01Z</time></trkpt><trkpt lat="42.11038673581285" lon="9.201868001919411"><ele>833.0</ele><time>2026-05-03T13:21:02Z</time></trkpt><trkpt lat="42.11039571330687" lon="9.201698641282922"><ele>833.0</ele><time>2026-05-03T13:21:03Z</time></trkpt><trkpt lat="42.110384965058316" lon="9.201493463549815"><ele>836.8</ele><time>2026-05-03T13:21:04Z</time></trkpt><trkpt lat="42.11038629413041" lon="9.201319618801513"><ele>840.5999999999999</ele><time>2026-05-03T13:21:05Z</time></trkpt><trkpt lat="42.110416436636264" lon="9.20118564370335"><ele>844.4000000000001</ele><time>2026-05-03T13:21:06Z</time></trkpt><trkpt lat="42.110474977181376" lon="9.201102242460923"><ele>848.2</ele><time>2026-05-03T13:21:07Z</time></trkpt><trkpt lat="42.11055391081576" lon="9.201064934089944"><ele>852.0</ele><time>2026-05-03T13:21:08Z</time></trkpt><trkpt lat="42.11064536171415" lon="9.201083268837401"><ele>852.0</ele><time>2026-05-03T13:21:09Z</time></trkpt><trkpt lat="42.1107153701131" lon="9.201205654622042"><ele>852.0</ele><time>2026-05-03T13:21:10Z</time></trkpt><trkpt lat="42.11081443704435" lon="9.20132486352089"><ele>852.0</ele><time>2026-05-03T13:21:11Z</time></trkpt><trkpt lat="42.1109551530175" lon="9.201452931726335"><ele>852.0</ele><time>2026-05-03T13:21:12Z</time></trkpt><trkpt lat="42.11110225042901" lon="9.201586556635862"><ele>840.6666666666667</ele><time>2026-05-03T13:21:13Z</time></trkpt><trkpt lat="42.11125593204451" lon="9.201718178209374"><ele>829.3333333333334</ele><time>2026-05-03T13:21:14Z</time></trkpt><trkpt lat="42.11140010491777" lon="9.201805615694479"><ele>818.0</ele><time>2026-05-03T13:21:15.001Z</time></trkpt><trkpt lat="42.11152110200125" lon="9.20187833359094"><ele>822.0</ele><time>2026-05-03T13:21:16.001Z</time></trkpt><trkpt lat="42.111638440260194" lon="9.20192259928981"><ele>826.0</ele><time>2026-05-03T13:21:17.001Z</time></trkpt><trkpt lat="42.111739581956336" lon="9.201905521540695"><ele>830.0</ele><time>2026-05-03T13:21:18.001Z</time></trkpt><trkpt lat="42.11183954336324" lon="9.2018147217274"><ele>834.0</ele><time>2026-05-03T13:21:19.001Z</time></trkpt><trkpt lat="42.111937715969525" lon="9.201680878504225"><ele>834.0</ele><time>2026-05-03T13:21:20.001Z</time></trkpt><trkpt lat="42.11207075436567" lon="9.201557093968583"><ele>834.0</ele><time>2026-05-03T13:21:21.001Z</time></trkpt><trkpt lat="42.112229997864574" lon="9.20147006768949"><ele>834.0</ele><time>2026-05-03T13:21:22.001Z</time></trkpt><trkpt lat="42.11235388409622" lon="9.201328109597961"><ele>839.5</ele><time>2026-05-03T13:21:23.001Z</time></trkpt><trkpt lat="42.11246415765823" lon="9.201211413588522"><ele>845.0</ele><time>2026-05-03T13:21:24.001Z</time></trkpt><trkpt lat="42.112572143861286" lon="9.201127844939505"><ele>850.5</ele><time>2026-05-03T13:21:25.001Z</time></trkpt><trkpt lat="42.11271604088554" lon="9.201081391917674"><ele>856.0</ele><time>2026-05-03T13:21:26.001Z</time></trkpt><trkpt lat="42.11285673016785" lon="9.201077406830654"><ele>856.0</ele><time>2026-05-03T13:21:27.001Z</time></trkpt><trkpt lat="42.11299772291902" lon="9.201108819068695"><ele>856.0</ele><time>2026-05-03T13:21:28.001Z</time></trkpt><trkpt lat="42.113143264755685" lon="9.201190384016055"><ele>856.0</ele><time>2026-05-03T13:21:29.001Z</time></trkpt><trkpt lat="42.11329112693703" lon="9.201279936251883"><ele>856.25</ele><time>2026-05-03T13:21:30.001Z</time></trkpt><trkpt lat="42.11343222273587" lon="9.201359045821386"><ele>856.5</ele><time>2026-05-03T13:21:31.001Z</time></trkpt><trkpt lat="42.113557919737424" lon="9.201405597098814"><ele>856.75</ele><time>2026-05-03T13:21:32.001Z</time></trkpt><trkpt lat="42.113680035787965" lon="9.201424923192805"><ele>857.0</ele><time>2026-05-03T13:21:33.001Z</time></trkpt><trkpt lat="42.11381405153789" lon="9.201421960247114"><ele>857.0</ele><time>2026-05-03T13:21:34.001Z</time></trkpt><trkpt lat="42.113958337203776" lon="9.20140764009714"><ele>857.0</ele><time>2026-05-03T13:21:35.001Z</time></trkpt><trkpt lat="42.11410514377386" lon="9.201392091511151"><ele>857.0</ele><time>2026-05-03T13:21:36.001Z</time></trkpt><trkpt lat="42.11423594820316" lon="9.20137470123477"><ele>857.0</ele><time>2026-05-03T13:21:37.001Z</time></trkpt><trkpt lat="42.11434572054429" lon="9.201332339759755"><ele>856.4000000000001</ele><time>2026-05-03T13:21:38.001Z</time></trkpt><trkpt lat="42.11442791613963" lon="9.201251620990924"><ele>855.8000000000001</ele><time>2026-05-03T13:21:39.001Z</time></trkpt><trkpt lat="42.1144914043305" lon="9.201130700231872"><ele>855.2</ele><time>2026-05-03T13:21:40.001Z</time></trkpt><trkpt lat="42.114532031191516" lon="9.200989517645786"><ele>854.6</ele><time>2026-05-03T13:21:41.001Z</time></trkpt><trkpt lat="42.11455811576366" lon="9.200837537066244"><ele>854.0</ele><time>2026-05-03T13:21:42.001Z</time></trkpt><trkpt lat="42.114563029385394" lon="9.200669177905901"><ele>854.5</ele><time>2026-05-03T13:21:43.001Z</time></trkpt><trkpt lat="42.114549484925284" lon="9.200488805519655"><ele>855.0</ele><time>2026-05-03T13:21:44.001Z</time></trkpt><trkpt lat="42.11453212702154" lon="9.20030577915388"><ele>855.5</ele><time>2026-05-03T13:21:45.001Z</time></trkpt><trkpt lat="42.11451488179377" lon="9.200138629487935"><ele>856.0</ele><time>2026-05-03T13:21:46.001Z</time></trkpt><trkpt lat="42.11446873801745" lon="9.199998069441284"><ele>856.0</ele><time>2026-05-03T13:21:47.002Z</time></trkpt><trkpt lat="42.114385661595456" lon="9.199888129682794"><ele>856.0</ele><time>2026-05-03T13:21:48.002Z</time></trkpt><trkpt lat="42.11427189195009" lon="9.199807201969177"><ele>856.0</ele><time>2026-05-03T13:21:49.002Z</time></trkpt><trkpt lat="42.114142065629515" lon="9.199743767390533"><ele>856.0</ele><time>2026-05-03T13:21:50.002Z</time></trkpt><trkpt lat="42.11400586041107" lon="9.199699603643088"><ele>859.5</ele><time>2026-05-03T13:21:51.002Z</time></trkpt><trkpt lat="42.11387135177601" lon="9.199693320229471"><ele>863.0</ele><time>2026-05-03T13:21:52.002Z</time></trkpt><trkpt lat="42.11375903745261" lon="9.199682552559034"><ele>866.5</ele><time>2026-05-03T13:21:53.002Z</time></trkpt><trkpt lat="42.11366668291147" lon="9.199619857068667"><ele>870.0</ele><time>2026-05-03T13:21:54.002Z</time></trkpt><trkpt lat="42.11363025752379" lon="9.199461390191914"><ele>870.0</ele><time>2026-05-03T13:21:55.002Z</time></trkpt><trkpt lat="42.11355466397681" lon="9.199313030795029"><ele>870.0</ele><time>2026-05-03T13:21:56.002Z</time></trkpt><trkpt lat="42.11350286719623" lon="9.199134115186004"><ele>870.0</ele><time>2026-05-03T13:21:57.002Z</time></trkpt><trkpt lat="42.113425359058745" lon="9.198954202206165"><ele>870.0</ele><time>2026-05-03T13:21:58.002Z</time></trkpt><trkpt lat="42.11333556977531" lon="9.198775192003454"><ele>879.0</ele><time>2026-05-03T13:21:59.002Z</time></trkpt><trkpt lat="42.113225321077906" lon="9.198615412669755"><ele>888.0</ele><time>2026-05-03T13:22:00.002Z</time></trkpt><trkpt lat="42.113110854773105" lon="9.198480393833728"><ele>897.0</ele><time>2026-05-03T13:22:01.002Z</time></trkpt><trkpt lat="42.112988069878995" lon="9.19833208307376"><ele>896.0</ele><time>2026-05-03T13:22:02.002Z</time></trkpt><trkpt lat="42.112926215445086" lon="9.19813463387229"><ele>895.0</ele><time>2026-05-03T13:22:03.002Z</time></trkpt><trkpt lat="42.11287445361059" lon="9.197919565733436"><ele>894.0</ele><time>2026-05-03T13:22:04.002Z</time></trkpt><trkpt lat="42.11282849747699" lon="9.197699120378942"><ele>894.0</ele><time>2026-05-03T13:22:05.002Z</time></trkpt><trkpt lat="42.112772964749595" lon="9.197469087027562"><ele>894.0</ele><time>2026-05-03T13:22:06.002Z</time></trkpt><trkpt lat="42.11270339961819" lon="9.197280570519654"><ele>894.0</ele><time>2026-05-03T13:22:07.002Z</time></trkpt><trkpt lat="42.11261234283478" lon="9.197111036553583"><ele>893.0</ele><time>2026-05-03T13:22:08.002Z</time></trkpt><trkpt lat="42.1125936751022" lon="9.196919796814992"><ele>892.0</ele><time>2026-05-03T13:22:09.002Z</time></trkpt><trkpt lat="42.11261814766783" lon="9.196711784075"><ele>891.0</ele><time>2026-05-03T13:22:10.002Z</time></trkpt><trkpt lat="42.11259715955498" lon="9.196509662472273"><ele>887.6666666666667</ele><time>2026-05-03T13:22:11.002Z</time></trkpt><trkpt lat="42.11256154495686" lon="9.196315084753927"><ele>884.3333333333334</ele><time>2026-05-03T13:22:12.002Z</time></trkpt><trkpt lat="42.11248182383554" lon="9.196128661517317"><ele>881.0</ele><time>2026-05-03T13:22:13.002Z</time></trkpt><trkpt lat="42.11244108059588" lon="9.195911797522996"><ele>895.3333333333334</ele><time>2026-05-03T13:22:14.002Z</time></trkpt><trkpt lat="42.112384399057554" lon="9.195678843103272"><ele>909.6666666666667</ele><time>2026-05-03T13:22:15.002Z</time></trkpt><trkpt lat="42.11232857921076" lon="9.195449076280957"><ele>924.0</ele><time>2026-05-03T13:22:16.002Z</time></trkpt><trkpt lat="42.11225202346659" lon="9.195231110974934"><ele>924.0</ele><time>2026-05-03T13:22:17.002Z</time></trkpt><trkpt lat="42.11215683000867" lon="9.19503456880296"><ele>924.0</ele><time>2026-05-03T13:22:18.002Z</time></trkpt><trkpt lat="42.11205322923405" lon="9.194843660712738"><ele>924.0</ele><time>2026-05-03T13:22:19.002Z</time></trkpt><trkpt lat="42.11196935735149" lon="9.194657616805054"><ele>919.0</ele><time>2026-05-03T13:22:20.002Z</time></trkpt><trkpt lat="42.11188576638811" lon="9.194476897821843"><ele>914.0</ele><time>2026-05-03T13:22:21.003Z</time></trkpt><trkpt lat="42.11176784481214" lon="9.194332078820842"><ele>909.0</ele><time>2026-05-03T13:22:22.003Z</time></trkpt><trkpt lat="42.11163084485816" lon="9.194226102171204"><ele>917.8000000000001</ele><time>2026-05-03T13:22:23.003Z</time></trkpt><trkpt lat="42.111504767348265" lon="9.194147199575735"><ele>926.6000000000001</ele><time>2026-05-03T13:22:24.003Z</time></trkpt><trkpt lat="42.111413559097414" lon="9.194062626501124"><ele>935.4</ele><time>2026-05-03T13:22:25.003Z</time></trkpt><trkpt lat="42.11139138769475" lon="9.193946565546966"><ele>944.2</ele><time>2026-05-03T13:22:26.003Z</time></trkpt><trkpt lat="42.11142576512043" lon="9.193812015209152"><ele>953.0</ele><time>2026-05-03T13:22:27.003Z</time></trkpt><trkpt lat="42.11147395139337" lon="9.193607503993055"><ele>954.0</ele><time>2026-05-03T13:22:28.003Z</time></trkpt><trkpt lat="42.11150695477292" lon="9.193396930134412"><ele>955.0</ele><time>2026-05-03T13:22:29.003Z</time></trkpt><trkpt lat="42.11154596818471" lon="9.193207088458967"><ele>956.0</ele><time>2026-05-03T13:22:30.003Z</time></trkpt><trkpt lat="42.111616493688935" lon="9.19304674539187"><ele>957.0</ele><time>2026-05-03T13:22:31.003Z</time></trkpt><trkpt lat="42.11173836687158" lon="9.192941965472064"><ele>949.0</ele><time>2026-05-03T13:22:32.003Z</time></trkpt><trkpt lat="42.11181081549529" lon="9.19282343310942"><ele>941.0</ele><time>2026-05-03T13:22:33.003Z</time></trkpt><trkpt lat="42.11186704866508" lon="9.192705232800764"><ele>933.0</ele><time>2026-05-03T13:22:34.003Z</time></trkpt><trkpt lat="42.111888741818134" lon="9.192552776764993"><ele>925.0</ele><time>2026-05-03T13:22:35.003Z</time></trkpt><trkpt lat="42.11188982484164" lon="9.192362555880026"><ele>928.3333333333333</ele><time>2026-05-03T13:22:36.003Z</time></trkpt><trkpt lat="42.11185684763646" lon="9.192163099957334"><ele>931.6666666666667</ele><time>2026-05-03T13:22:37.003Z</time></trkpt><trkpt lat="42.111827580129386" lon="9.191953755220437"><ele>935.0</ele><time>2026-05-03T13:22:38.003Z</time></trkpt><trkpt lat="42.11183549316397" lon="9.191743245664444"><ele>935.0</ele><time>2026-05-03T13:22:39.003Z</time></trkpt><trkpt lat="42.111887260507174" lon="9.191525419096862"><ele>935.0</ele><time>2026-05-03T13:22:40.003Z</time></trkpt><trkpt lat="42.11188170158885" lon="9.191292095393422"><ele>935.0</ele><time>2026-05-03T13:22:41.003Z</time></trkpt><trkpt lat="42.1118903155425" lon="9.191085111247531"><ele>939.3333333333334</ele><time>2026-05-03T13:22:41.999Z</time></trkpt><trkpt lat="42.11193943190208" lon="9.190887039576957"><ele>943.6666666666667</ele><time>2026-05-03T13:22:42.999Z</time></trkpt><trkpt lat="42.1120212227817" lon="9.190705312818823"><ele>948.0</ele><time>2026-05-03T13:22:43.999Z</time></trkpt><trkpt lat="42.112097738916546" lon="9.190506950393095"><ele>952.3333333333333</ele><time>2026-05-03T13:22:44.999Z</time></trkpt><trkpt lat="42.11215083579573" lon="9.19029212517801"><ele>956.6666666666666</ele><time>2026-05-03T13:22:45.999Z</time></trkpt><trkpt lat="42.11217456821553" lon="9.190072306289801"><ele>961.0</ele><time>2026-05-03T13:22:46.999Z</time></trkpt><trkpt lat="42.11216960959315" lon="9.189858664186417"><ele>964.25</ele><time>2026-05-03T13:22:47.999Z</time></trkpt><trkpt lat="42.11212573602401" lon="9.189674218651659"><ele>967.5</ele><time>2026-05-03T13:22:48.999Z</time></trkpt><trkpt lat="42.112097671100194" lon="9.189511993784608"><ele>970.75</ele><time>2026-05-03T13:22:49.999Z</time></trkpt><trkpt lat="42.1121227879237" lon="9.189381554622527"><ele>974.0</ele><time>2026-05-03T13:22:50.999Z</time></trkpt><trkpt lat="42.11219368730474" lon="9.18930384410422"><ele>974.0</ele><time>2026-05-03T13:22:51.999Z</time></trkpt><trkpt lat="42.1123113746174" lon="9.189276926608708"><ele>974.0</ele><time>2026-05-03T13:22:52.999Z</time></trkpt><trkpt lat="42.11239658778383" lon="9.189184955224622"><ele>974.0</ele><time>2026-05-03T13:22:53.999Z</time></trkpt><trkpt lat="42.112471614388966" lon="9.189040635867885"><ele>974.0</ele><time>2026-05-03T13:22:54.999Z</time></trkpt><trkpt lat="42.112502233693284" lon="9.18884665793235"><ele>970.25</ele><time>2026-05-03T13:22:55.999Z</time></trkpt><trkpt lat="42.1125075381595" lon="9.188663779329895"><ele>966.5</ele><time>2026-05-03T13:22:56.999Z</time></trkpt><trkpt lat="42.11253858704019" lon="9.188521455635268"><ele>962.75</ele><time>2026-05-03T13:22:58Z</time></trkpt><trkpt lat="42.11261548019757" lon="9.188430175649422"><ele>959.0</ele><time>2026-05-03T13:22:59Z</time></trkpt><trkpt lat="42.112722988196715" lon="9.188397756418592"><ele>959.0</ele><time>2026-05-03T13:23:00Z</time></trkpt><trkpt lat="42.11284633114829" lon="9.18842317529568"><ele>959.0</ele><time>2026-05-03T13:23:01Z</time></trkpt><trkpt lat="42.11296321011746" lon="9.188401117406697"><ele>959.0</ele><time>2026-05-03T13:23:02Z</time></trkpt><trkpt lat="42.11307290270838" lon="9.18827856034737"><ele>959.0</ele><time>2026-05-03T13:23:03Z</time></trkpt><trkpt lat="42.11314773525734" lon="9.18810336915082"><ele>956.0</ele><time>2026-05-03T13:23:04Z</time></trkpt><trkpt lat="42.11319486559475" lon="9.187902168330034"><ele>953.0</ele><time>2026-05-03T13:23:05Z</time></trkpt><trkpt lat="42.11322746096468" lon="9.187681056105273"><ele>950.0</ele><time>2026-05-03T13:23:06Z</time></trkpt><trkpt lat="42.11327029834357" lon="9.187448618718063"><ele>958.0</ele><time>2026-05-03T13:23:07Z</time></trkpt><trkpt lat="42.11334159793815" lon="9.18722063203699"><ele>966.0</ele><time>2026-05-03T13:23:08Z</time></trkpt><trkpt lat="42.1134389315909" lon="9.18700453643756"><ele>974.0</ele><time>2026-05-03T13:23:09Z</time></trkpt><trkpt lat="42.113549257843474" lon="9.186792052989103"><ele>974.0</ele><time>2026-05-03T13:23:10Z</time></trkpt><trkpt lat="42.11368917421236" lon="9.186605384417213"><ele>974.0</ele><time>2026-05-03T13:23:11Z</time></trkpt><trkpt lat="42.1138112935497" lon="9.186376880794011"><ele>974.0</ele><time>2026-05-03T13:23:12Z</time></trkpt><trkpt lat="42.11393465287489" lon="9.186123958874536"><ele>976.0</ele><time>2026-05-03T13:23:13Z</time></trkpt><trkpt lat="42.114033551485875" lon="9.18584230354615"><ele>978.0</ele><time>2026-05-03T13:23:14Z</time></trkpt><trkpt lat="42.114132651003764" lon="9.185587768005012"><ele>980.0</ele><time>2026-05-03T13:23:15Z</time></trkpt><trkpt lat="42.114197152532206" lon="9.185351218616487"><ele>980.0</ele><time>2026-05-03T13:23:16Z</time></trkpt><trkpt lat="42.114264964764054" lon="9.185122843552161"><ele>980.0</ele><time>2026-05-03T13:23:17Z</time></trkpt><trkpt lat="42.11433813585352" lon="9.184878956335357"><ele>980.0</ele><time>2026-05-03T13:23:18Z</time></trkpt><trkpt lat="42.11445834118998" lon="9.184718145077822"><ele>983.5</ele><time>2026-05-03T13:23:19Z</time></trkpt><trkpt lat="42.11454266675929" lon="9.184558780633548"><ele>987.0</ele><time>2026-05-03T13:23:20Z</time></trkpt><trkpt lat="42.1146300554259" lon="9.18445270721049"><ele>990.5</ele><time>2026-05-03T13:23:21Z</time></trkpt><trkpt lat="42.114674699666914" lon="9.184333747676687"><ele>994.0</ele><time>2026-05-03T13:23:22.001Z</time></trkpt><trkpt lat="42.11469282022821" lon="9.184191489732969"><ele>994.0</ele><time>2026-05-03T13:23:23.001Z</time></trkpt><trkpt lat="42.114671500625796" lon="9.184061384502654"><ele>994.0000000000001</ele><time>2026-05-03T13:23:24.001Z</time></trkpt><trkpt lat="42.11463065120078" lon="9.1839236973855"><ele>994.0000000000001</ele><time>2026-05-03T13:23:25.001Z</time></trkpt><trkpt lat="42.11462945926819" lon="9.183777397264945"><ele>994.0</ele><time>2026-05-03T13:23:26.001Z</time></trkpt><trkpt lat="42.11467648394601" lon="9.183672216009771"><ele>994.0</ele><time>2026-05-03T13:23:27.001Z</time></trkpt><trkpt lat="42.11475993157737" lon="9.18359805413753"><ele>994.2</ele><time>2026-05-03T13:23:28.001Z</time></trkpt><trkpt lat="42.11484910779815" lon="9.183598644764022"><ele>994.4000000000001</ele><time>2026-05-03T13:23:29.001Z</time></trkpt><trkpt lat="42.114916980812026" lon="9.183690619054174"><ele>994.6</ele><time>2026-05-03T13:23:30.001Z</time></trkpt><trkpt lat="42.1150179575698" lon="9.183771907335444"><ele>994.8</ele><time>2026-05-03T13:23:31.001Z</time></trkpt><trkpt lat="42.1151232138474" lon="9.183900967088713"><ele>995.0</ele><time>2026-05-03T13:23:32.001Z</time></trkpt><trkpt lat="42.11524994471527" lon="9.184020768191028"><ele>988.6666666666667</ele><time>2026-05-03T13:23:33.001Z</time></trkpt><trkpt lat="42.11539733168646" lon="9.18415106700067"><ele>982.3333333333333</ele><time>2026-05-03T13:23:34.001Z</time></trkpt><trkpt lat="42.115554795503684" lon="9.18430247608446"><ele>976.0</ele><time>2026-05-03T13:23:35.001Z</time></trkpt><trkpt lat="42.115701481720706" lon="9.18440827196157"><ele>982.3333333333333</ele><time>2026-05-03T13:23:36.001Z</time></trkpt><trkpt lat="42.11585948474997" lon="9.184473686971806"><ele>988.6666666666667</ele><time>2026-05-03T13:23:37.001Z</time></trkpt><trkpt lat="42.116044312520486" lon="9.184507703594694"><ele>995.0</ele><time>2026-05-03T13:23:38.001Z</time></trkpt><trkpt lat="42.116207378498714" lon="9.184525098031399"><ele>995.0</ele><time>2026-05-03T13:23:39.001Z</time></trkpt><trkpt lat="42.116355074627435" lon="9.184534361660623"><ele>995.0</ele><time>2026-05-03T13:23:40.001Z</time></trkpt><trkpt lat="42.11648404509564" lon="9.184500912685063"><ele>995.0</ele><time>2026-05-03T13:23:41.001Z</time></trkpt><trkpt lat="42.116647482843675" lon="9.184436852661781"><ele>995.0</ele><time>2026-05-03T13:23:42.001Z</time></trkpt><trkpt lat="42.11683569337392" lon="9.184327635442202"><ele>998.3333333333334</ele><time>2026-05-03T13:23:43.001Z</time></trkpt><trkpt lat="42.11702322033799" lon="9.184211615971591"><ele>1001.6666666666667</ele><time>2026-05-03T13:23:44.001Z</time></trkpt><trkpt lat="42.11719458691463" lon="9.184091575076037"><ele>1005.0</ele><time>2026-05-03T13:23:45.001Z</time></trkpt><trkpt lat="42.117388991026935" lon="9.184044182999276"><ele>1011.0</ele><time>2026-05-03T13:23:46.001Z</time></trkpt><trkpt lat="42.117564454170264" lon="9.183989546012803"><ele>1017.0</ele><time>2026-05-03T13:23:47.001Z</time></trkpt><trkpt lat="42.11770666227821" lon="9.183903012058902"><ele>1023.0</ele><time>2026-05-03T13:23:48.001Z</time></trkpt><trkpt lat="42.11781499028099" lon="9.183806113241351"><ele>1023.0</ele><time>2026-05-03T13:23:49.001Z</time></trkpt><trkpt lat="42.117882718983445" lon="9.18372769087922"><ele>1023.0</ele><time>2026-05-03T13:23:50.001Z</time></trkpt><trkpt lat="42.11794903729704" lon="9.183666191814856"><ele>1023.0</ele><time>2026-05-03T13:23:51.001Z</time></trkpt><trkpt lat="42.11802148080394" lon="9.183636012860115"><ele>1023.0</ele><time>2026-05-03T13:23:52.001Z</time></trkpt><trkpt lat="42.118109007808975" lon="9.18370720726712"><ele>1023.0</ele><time>2026-05-03T13:23:53.001Z</time></trkpt><trkpt lat="42.11817881653606" lon="9.183818460151166"><ele>1023.0</ele><time>2026-05-03T13:23:54.002Z</time></trkpt><trkpt lat="42.1182151211001" lon="9.183930894057484"><ele>1023.0</ele><time>2026-05-03T13:23:55.002Z</time></trkpt><trkpt lat="42.11819252557874" lon="9.184061174648741"><ele>1023.0</ele><time>2026-05-03T13:23:56.002Z</time></trkpt><trkpt lat="42.11809285199195" lon="9.184177032798392"><ele>1023.0</ele><time>2026-05-03T13:23:57.002Z</time></trkpt><trkpt lat="42.117975415904475" lon="9.184327998043242"><ele>1017.0</ele><time>2026-05-03T13:23:58.002Z</time></trkpt><trkpt lat="42.11785311059159" lon="9.184523363148875"><ele>1011.0</ele><time>2026-05-03T13:23:59.002Z</time></trkpt><trkpt lat="42.1177118555027" lon="9.184704894516132"><ele>1005.0</ele><time>2026-05-03T13:24:00.002Z</time></trkpt><trkpt lat="42.11759082079471" lon="9.184940491911002"><ele>1004.0</ele><time>2026-05-03T13:24:01.002Z</time></trkpt><trkpt lat="42.11748705576334" lon="9.185156799285549"><ele>1003.0</ele><time>2026-05-03T13:24:02.002Z</time></trkpt><trkpt lat="42.11740510753273" lon="9.185325469561015"><ele>1002.0</ele><time>2026-05-03T13:24:03.002Z</time></trkpt><trkpt lat="42.117323342086095" lon="9.1854606820006"><ele>1003.5</ele><time>2026-05-03T13:24:04.002Z</time></trkpt><trkpt lat="42.117204148610256" lon="9.185534058003505"><ele>1005.0</ele><time>2026-05-03T13:24:05.002Z</time></trkpt><trkpt lat="42.11706221165565" lon="9.185573642096019"><ele>1006.5</ele><time>2026-05-03T13:24:06.002Z</time></trkpt><trkpt lat="42.116915537626845" lon="9.185656273627"><ele>1008.0</ele><time>2026-05-03T13:24:07.002Z</time></trkpt><trkpt lat="42.1167474223428" lon="9.18571720447224"><ele>1008.0</ele><time>2026-05-03T13:24:08.002Z</time></trkpt><trkpt lat="42.11658320720838" lon="9.185804188748708"><ele>1008.0</ele><time>2026-05-03T13:24:09.002Z</time></trkpt><trkpt lat="42.11644327237333" lon="9.185939878674144"><ele>1008.0</ele><time>2026-05-03T13:24:10.002Z</time></trkpt><trkpt lat="42.11632691201498" lon="9.186083571626416"><ele>1005.75</ele><time>2026-05-03T13:24:11.002Z</time></trkpt><trkpt lat="42.11621679737946" lon="9.186209354593277"><ele>1003.5</ele><time>2026-05-03T13:24:12.002Z</time></trkpt><trkpt lat="42.116116606741535" lon="9.18633603328402"><ele>1001.25</ele><time>2026-05-03T13:24:13.002Z</time></trkpt><trkpt lat="42.11602358996118" lon="9.186513742177151"><ele>999.0</ele><time>2026-05-03T13:24:14.002Z</time></trkpt><trkpt lat="42.115972957683326" lon="9.186708116226137"><ele>999.0</ele><time>2026-05-03T13:24:15.002Z</time></trkpt><trkpt lat="42.11591997075856" lon="9.186913680952038"><ele>999.0</ele><time>2026-05-03T13:24:16.002Z</time></trkpt><trkpt lat="42.115891515522144" lon="9.187112964901761"><ele>999.0</ele><time>2026-05-03T13:24:17.002Z</time></trkpt><trkpt lat="42.11588220009009" lon="9.187301624027462"><ele>994.75</ele><time>2026-05-03T13:24:18.002Z</time></trkpt><trkpt lat="42.11583057064964" lon="9.187452961944278"><ele>990.5</ele><time>2026-05-03T13:24:19.002Z</time></trkpt><trkpt lat="42.11574436968181" lon="9.187595905872419"><ele>986.25</ele><time>2026-05-03T13:24:20.002Z</time></trkpt><trkpt lat="42.11562447031755" lon="9.187764117193327"><ele>982.0</ele><time>2026-05-03T13:24:21.002Z</time></trkpt><trkpt lat="42.115514348682524" lon="9.18789872789854"><ele>982.0</ele><time>2026-05-03T13:24:22.002Z</time></trkpt><trkpt lat="42.11541738798417" lon="9.18800450432756"><ele>982.0</ele><time>2026-05-03T13:24:23.002Z</time></trkpt><trkpt lat="42.11534222651847" lon="9.18810047461597"><ele>982.0</ele><time>2026-05-03T13:24:24.002Z</time></trkpt><trkpt lat="42.11529395520247" lon="9.1882159669904"><ele>982.0</ele><time>2026-05-03T13:24:25.002Z</time></trkpt><trkpt lat="42.11525591297611" lon="9.188346694623744"><ele>982.0</ele><time>2026-05-03T13:24:26.002Z</time></trkpt><trkpt lat="42.11526554944778" lon="9.188507920348275"><ele>987.0</ele><time>2026-05-03T13:24:27.003Z</time></trkpt><trkpt lat="42.11530012811015" lon="9.18868477304318"><ele>992.0</ele><time>2026-05-03T13:24:28.003Z</time></trkpt><trkpt lat="42.11533685320258" lon="9.188878363763328"><ele>997.0</ele><time>2026-05-03T13:24:29.003Z</time></trkpt><trkpt lat="42.11533149490799" lon="9.189091622125895"><ele>1002.0</ele><time>2026-05-03T13:24:30.003Z</time></trkpt><trkpt lat="42.11535843092416" lon="9.189308417716338"><ele>1004.6666666666667</ele><time>2026-05-03T13:24:31.003Z</time></trkpt><trkpt lat="42.11540575897091" lon="9.189534396492439"><ele>1007.3333333333334</ele><time>2026-05-03T13:24:32.003Z</time></trkpt><trkpt lat="42.1154864334131" lon="9.1897416879863"><ele>1010.0</ele><time>2026-05-03T13:24:33.003Z</time></trkpt><trkpt lat="42.11556621079902" lon="9.18994841667392"><ele>1010.0</ele><time>2026-05-03T13:24:34.003Z</time></trkpt><trkpt lat="42.11566141627606" lon="9.190142874457973"><ele>1010.0</ele><time>2026-05-03T13:24:35.003Z</time></trkpt><trkpt lat="42.11576953918481" lon="9.190311914898597"><ele>1010.0</ele><time>2026-05-03T13:24:36.003Z</time></trkpt><trkpt lat="42.115889502673525" lon="9.190463269095115"><ele>1012.75</ele><time>2026-05-03T13:24:37.003Z</time></trkpt><trkpt lat="42.11601695596988" lon="9.190587171291613"><ele>1015.5</ele><time>2026-05-03T13:24:38.003Z</time></trkpt><trkpt lat="42.116116166877546" lon="9.19069984446131"><ele>1018.25</ele><time>2026-05-03T13:24:39.003Z</time></trkpt><trkpt lat="42.11623257094007" lon="9.1907694309889"><ele>1021.0</ele><time>2026-05-03T13:24:40.003Z</time></trkpt><trkpt lat="42.11637038158915" lon="9.190819657181759"><ele>1021.0</ele><time>2026-05-03T13:24:41.003Z</time></trkpt><trkpt lat="42.11650822222034" lon="9.19086349688289"><ele>1021.0</ele><time>2026-05-03T13:24:42.003Z</time></trkpt><trkpt lat="42.116646320662404" lon="9.190904778074266"><ele>1021.0</ele><time>2026-05-03T13:24:43.003Z</time></trkpt><trkpt lat="42.11679828533696" lon="9.19094433539172"><ele>1021.0</ele><time>2026-05-03T13:24:44.003Z</time></trkpt><trkpt lat="42.11693575210913" lon="9.19096746639839"><ele>1026.25</ele><time>2026-05-03T13:24:45.003Z</time></trkpt><trkpt lat="42.11706014100157" lon="9.190977153068294"><ele>1031.5</ele><time>2026-05-03T13:24:46.003Z</time></trkpt><trkpt lat="42.11718061223146" lon="9.191029552793495"><ele>1036.75</ele><time>2026-05-03T13:24:47.003Z</time></trkpt><trkpt lat="42.117296212831036" lon="9.191121034444121"><ele>1042.0</ele><time>2026-05-03T13:24:47.999Z</time></trkpt><trkpt lat="42.117417909816474" lon="9.191206448082289"><ele>1041.75</ele><time>2026-05-03T13:24:48.999Z</time></trkpt><trkpt lat="42.11754355173004" lon="9.191278369295036"><ele>1041.5</ele><time>2026-05-03T13:24:49.999Z</time></trkpt><trkpt lat="42.11766527110188" lon="9.191360196255111"><ele>1041.25</ele><time>2026-05-03T13:24:50.999Z</time></trkpt><trkpt lat="42.11777990330475" lon="9.191473056591931"><ele>1041.0</ele><time>2026-05-03T13:24:51.999Z</time></trkpt><trkpt lat="42.11786622861184" lon="9.191618012843298"><ele>1041.0</ele><time>2026-05-03T13:24:52.999Z</time></trkpt><trkpt lat="42.11792229829009" lon="9.191744675405861"><ele>1041.0</ele><time>2026-05-03T13:24:53.999Z</time></trkpt><trkpt lat="42.1179887642084" lon="9.191854151083305"><ele>1041.0</ele><time>2026-05-03T13:24:54.999Z</time></trkpt><trkpt lat="42.11809169009187" lon="9.191914510206026"><ele>1041.0</ele><time>2026-05-03T13:24:56Z</time></trkpt><trkpt lat="42.11822769870173" lon="9.19194092969183"><ele>1048.6666666666667</ele><time>2026-05-03T13:24:57Z</time></trkpt><trkpt lat="42.11837741790607" lon="9.191994408299545"><ele>1056.3333333333335</ele><time>2026-05-03T13:24:58Z</time></trkpt><trkpt lat="42.118548376704084" lon="9.19201385879486"><ele>1064.0</ele><time>2026-05-03T13:24:59Z</time></trkpt><trkpt lat="42.11872595176351" lon="9.192089599552466"><ele>1064.0</ele><time>2026-05-03T13:25:00Z</time></trkpt><trkpt lat="42.11889211659009" lon="9.192192255862599"><ele>1064.0</ele><time>2026-05-03T13:25:01Z</time></trkpt><trkpt lat="42.119054204328826" lon="9.192310235169357"><ele>1064.0</ele><time>2026-05-03T13:25:02Z</time></trkpt><trkpt lat="42.119185970323144" lon="9.192374369000268"><ele>1062.3333333333335</ele><time>2026-05-03T13:25:03Z</time></trkpt><trkpt lat="42.11933768951261" lon="9.192439704722462"><ele>1060.6666666666667</ele><time>2026-05-03T13:25:04Z</time></trkpt><trkpt lat="42.1194908112055" lon="9.192442731722904"><ele>1059.0</ele><time>2026-05-03T13:25:05Z</time></trkpt><trkpt lat="42.119663684557125" lon="9.192417412243302"><ele>1059.0</ele><time>2026-05-03T13:25:06Z</time></trkpt><trkpt lat="42.11981997995341" lon="9.192343639090259"><ele>1059.0</ele><time>2026-05-03T13:25:07Z</time></trkpt><trkpt lat="42.11996231188604" lon="9.192234681941969"><ele>1059.0</ele><time>2026-05-03T13:25:08Z</time></trkpt><trkpt lat="42.12009159500411" lon="9.192100707606283"><ele>1067.0</ele><time>2026-05-03T13:25:09Z</time></trkpt><trkpt lat="42.12021331899881" lon="9.191965249755183"><ele>1075.0</ele><time>2026-05-03T13:25:10Z</time></trkpt><trkpt lat="42.12034132454463" lon="9.191831512961144"><ele>1083.0</ele><time>2026-05-03T13:25:11Z</time></trkpt><trkpt lat="42.12050004182041" lon="9.191736776376402"><ele>1083.0</ele><time>2026-05-03T13:25:12Z</time></trkpt><trkpt lat="42.1206814528828" lon="9.191710593070326"><ele>1083.0</ele><time>2026-05-03T13:25:13Z</time></trkpt><trkpt lat="42.12085855766774" lon="9.191676132958936"><ele>1083.0</ele><time>2026-05-03T13:25:14Z</time></trkpt><trkpt lat="42.121025018365096" lon="9.19163649494403"><ele>1083.0</ele><time>2026-05-03T13:25:15Z</time></trkpt><trkpt lat="42.12116344765299" lon="9.191597625719755"><ele>1083.0</ele><time>2026-05-03T13:25:16Z</time></trkpt><trkpt lat="42.12128867010394" lon="9.191592767264451"><ele>1083.0</ele><time>2026-05-03T13:25:17Z</time></trkpt><trkpt lat="42.121430421240085" lon="9.191603742711456"><ele>1083.0</ele><time>2026-05-03T13:25:18Z</time></trkpt><trkpt lat="42.12153790542289" lon="9.191723773801769"><ele>1085.3333333333333</ele><time>2026-05-03T13:25:19Z</time></trkpt><trkpt lat="42.121656422383516" lon="9.19185948191925"><ele>1087.6666666666665</ele><time>2026-05-03T13:25:20Z</time></trkpt><trkpt lat="42.12179866013573" lon="9.1919866582232"><ele>1090.0</ele><time>2026-05-03T13:25:21.001Z</time></trkpt><trkpt lat="42.12198153184587" lon="9.192103525806482"><ele>1090.0</ele><time>2026-05-03T13:25:22.001Z</time></trkpt><trkpt lat="42.122184821704" lon="9.192168423791083"><ele>1090.0</ele><time>2026-05-03T13:25:23.001Z</time></trkpt><trkpt lat="42.12237792388045" lon="9.192224089061723"><ele>1090.0</ele><time>2026-05-03T13:25:24.001Z</time></trkpt><trkpt lat="42.122538177680944" lon="9.192325882033602"><ele>1088.5</ele><time>2026-05-03T13:25:25.001Z</time></trkpt><trkpt lat="42.1226669804263" lon="9.192429840857894"><ele>1087.0</ele><time>2026-05-03T13:25:26.001Z</time></trkpt><trkpt lat="42.122785094050336" lon="9.1925156249247"><ele>1085.5</ele><time>2026-05-03T13:25:27.001Z</time></trkpt><trkpt lat="42.12291089143322" lon="9.19256988487311"><ele>1084.0</ele><time>2026-05-03T13:25:28.001Z</time></trkpt><trkpt lat="42.12304895911931" lon="9.192580576272634"><ele>1084.0</ele><time>2026-05-03T13:25:29.001Z</time></trkpt><trkpt lat="42.12317298876448" lon="9.192561166655807"><ele>1084.0</ele><time>2026-05-03T13:25:30.001Z</time></trkpt><trkpt lat="42.12329279390459" lon="9.192494189315612"><ele>1084.0</ele><time>2026-05-03T13:25:31.001Z</time></trkpt><trkpt lat="42.12343244937808" lon="9.192390295904971"><ele>1084.0</ele><time>2026-05-03T13:25:32.001Z</time></trkpt><trkpt lat="42.1235931794148" lon="9.192274358175823"><ele>1095.3333333333333</ele><time>2026-05-03T13:25:33.001Z</time></trkpt><trkpt lat="42.12375924074648" lon="9.192160293456572"><ele>1106.6666666666667</ele><time>2026-05-03T13:25:34.001Z</time></trkpt><trkpt lat="42.12393803440904" lon="9.192035949727822"><ele>1118.0</ele><time>2026-05-03T13:25:35.001Z</time></trkpt><trkpt lat="42.12411720840519" lon="9.191902537485632"><ele>1118.0</ele><time>2026-05-03T13:25:36.001Z</time></trkpt><trkpt lat="42.1242854833922" lon="9.191779586881642"><ele>1118.0</ele><time>2026-05-03T13:25:37.001Z</time></trkpt><trkpt lat="42.12445571454434" lon="9.19172373968764"><ele>1118.0</ele><time>2026-05-03T13:25:38.001Z</time></trkpt><trkpt lat="42.124620494376124" lon="9.191758132317077"><ele>1118.0</ele><time>2026-05-03T13:25:39.001Z</time></trkpt><trkpt lat="42.124760248842676" lon="9.191856949596378"><ele>1118.0</ele><time>2026-05-03T13:25:40.001Z</time></trkpt><trkpt lat="42.124873636489156" lon="9.191917605221418"><ele>1118.0</ele><time>2026-05-03T13:25:42.001Z</time></trkpt><trkpt lat="42.12500162946627" lon="9.192003376286289"><ele>1118.0</ele><time>2026-05-03T13:25:43.001Z</time></trkpt><trkpt lat="42.12510724615195" lon="9.192136127207322"><ele>1120.0</ele><time>2026-05-03T13:25:44.001Z</time></trkpt><trkpt lat="42.12523630609476" lon="9.192306151251177"><ele>1122.0</ele><time>2026-05-03T13:25:45.001Z</time></trkpt><trkpt lat="42.12538008464666" lon="9.1924809329549"><ele>1124.0</ele><time>2026-05-03T13:25:46.001Z</time></trkpt><trkpt lat="42.125538001236926" lon="9.192654864962215"><ele>1125.3333333333335</ele><time>2026-05-03T13:25:47.001Z</time></trkpt><trkpt lat="42.12571328938776" lon="9.192814158690055"><ele>1126.6666666666667</ele><time>2026-05-03T13:25:48.001Z</time></trkpt><trkpt lat="42.12587375908431" lon="9.19297967567025"><ele>1128.0</ele><time>2026-05-03T13:25:49.001Z</time></trkpt><trkpt lat="42.126016261611404" lon="9.193114274192686"><ele>1123.0</ele><time>2026-05-03T13:25:50.001Z</time></trkpt><trkpt lat="42.12614471182609" lon="9.193228620406208"><ele>1118.0</ele><time>2026-05-03T13:25:51.001Z</time></trkpt><trkpt lat="42.12625864936538" lon="9.193323763370557"><ele>1113.0</ele><time>2026-05-03T13:25:52.002Z</time></trkpt><trkpt lat="42.12636560542805" lon="9.193389376383614"><ele>1108.0</ele><time>2026-05-03T13:25:53.002Z</time></trkpt><trkpt lat="42.12646349579936" lon="9.193390865701392"><ele>1108.0</ele><time>2026-05-03T13:25:54.002Z</time></trkpt><trkpt lat="42.12653468036425" lon="9.193309255391398"><ele>1108.0</ele><time>2026-05-03T13:25:55.002Z</time></trkpt><trkpt lat="42.12658253123806" lon="9.193166461910646"><ele>1108.0</ele><time>2026-05-03T13:25:56.002Z</time></trkpt><trkpt lat="42.12660313849437" lon="9.19295688331993"><ele>1108.0</ele><time>2026-05-03T13:25:57.002Z</time></trkpt><trkpt lat="42.12666655152424" lon="9.192724261762804"><ele>1115.0</ele><time>2026-05-03T13:25:58.002Z</time></trkpt><trkpt lat="42.12676743488639" lon="9.19251714857839"><ele>1122.0</ele><time>2026-05-03T13:25:59.002Z</time></trkpt><trkpt lat="42.12685413932684" lon="9.192295371541595"><ele>1129.0</ele><time>2026-05-03T13:26:00.002Z</time></trkpt><trkpt lat="42.12690470400448" lon="9.192050363250333"><ele>1134.5</ele><time>2026-05-03T13:26:01.002Z</time></trkpt><trkpt lat="42.12696312891755" lon="9.191859618921413"><ele>1140.0</ele><time>2026-05-03T13:26:02.002Z</time></trkpt><trkpt lat="42.12708713741208" lon="9.19180025754006"><ele>1145.5</ele><time>2026-05-03T13:26:03.002Z</time></trkpt><trkpt lat="42.127227301477845" lon="9.19177018358238"><ele>1151.0</ele><time>2026-05-03T13:26:04.002Z</time></trkpt><trkpt lat="42.12737018094651" lon="9.191740217794779"><ele>1145.5</ele><time>2026-05-03T13:26:05.002Z</time></trkpt><trkpt lat="42.1274988722059" lon="9.191670277166738"><ele>1140.0</ele><time>2026-05-03T13:26:06.002Z</time></trkpt><trkpt lat="42.12760577212536" lon="9.19158586526592"><ele>1134.5</ele><time>2026-05-03T13:26:07.002Z</time></trkpt><trkpt lat="42.12768073152769" lon="9.191456451792803"><ele>1129.0</ele><time>2026-05-03T13:26:08.002Z</time></trkpt><trkpt lat="42.12774323546166" lon="9.1913018897179"><ele>1140.5</ele><time>2026-05-03T13:26:09.002Z</time></trkpt><trkpt lat="42.12783172613463" lon="9.191192996979305"><ele>1152.0</ele><time>2026-05-03T13:26:10.002Z</time></trkpt><trkpt lat="42.1279525013963" lon="9.191198580055701"><ele>1163.5</ele><time>2026-05-03T13:26:11.002Z</time></trkpt><trkpt lat="42.128067823796925" lon="9.191282008115992"><ele>1175.0</ele><time>2026-05-03T13:26:12.002Z</time></trkpt><trkpt lat="42.12822038919352" lon="9.191336283359195"><ele>1172.0</ele><time>2026-05-03T13:26:13.002Z</time></trkpt><trkpt lat="42.128388895476576" lon="9.191377252103544"><ele>1169.0</ele><time>2026-05-03T13:26:14.002Z</time></trkpt><trkpt lat="42.12856069932069" lon="9.191337830791067"><ele>1166.0</ele><time>2026-05-03T13:26:15.002Z</time></trkpt><trkpt lat="42.12872241069443" lon="9.191242801269413"><ele>1166.0</ele><time>2026-05-03T13:26:16.002Z</time></trkpt><trkpt lat="42.1288832818701" lon="9.191139578867526"><ele>1166.0</ele><time>2026-05-03T13:26:17.002Z</time></trkpt><trkpt lat="42.129025940664555" lon="9.191100029919788"><ele>1166.0</ele><time>2026-05-03T13:26:18.002Z</time></trkpt><trkpt lat="42.129152754681236" lon="9.191060124154028"><ele>1163.5</ele><time>2026-05-03T13:26:19.002Z</time></trkpt><trkpt lat="42.129264702146926" lon="9.190980070731191"><ele>1161.0</ele><time>2026-05-03T13:26:20.002Z</time></trkpt><trkpt lat="42.12934978514213" lon="9.190846484140005"><ele>1158.5</ele><time>2026-05-03T13:26:21.002Z</time></trkpt><trkpt lat="42.1294280869127" lon="9.190669108101954"><ele>1156.0</ele><time>2026-05-03T13:26:22.002Z</time></trkpt><trkpt lat="42.12950712008879" lon="9.190479216354174"><ele>1160.25</ele><time>2026-05-03T13:26:23.002Z</time></trkpt><trkpt lat="42.12962930545307" lon="9.190359001733553"><ele>1164.5</ele><time>2026-05-03T13:26:24.003Z</time></trkpt><trkpt lat="42.1297516010142" lon="9.190286650495372"><ele>1168.75</ele><time>2026-05-03T13:26:25.003Z</time></trkpt><trkpt lat="42.12985886522991" lon="9.190230244497275"><ele>1173.0</ele><time>2026-05-03T13:26:26.003Z</time></trkpt><trkpt lat="42.12995642628146" lon="9.19016075441728"><ele>1173.0</ele><time>2026-05-03T13:26:27.003Z</time></trkpt><trkpt lat="42.130054904442744" lon="9.190164867900707"><ele>1173.0</ele><time>2026-05-03T13:26:28.003Z</time></trkpt><trkpt lat="42.13013955140114" lon="9.190223976099178"><ele>1173.0</ele><time>2026-05-03T13:26:29.003Z</time></trkpt><trkpt lat="42.13019003615704" lon="9.190352287039971"><ele>1173.0</ele><time>2026-05-03T13:26:30.003Z</time></trkpt><trkpt lat="42.13026609738705" lon="9.190479662573768"><ele>1173.0</ele><time>2026-05-03T13:26:31.003Z</time></trkpt><trkpt lat="42.130348289225495" lon="9.190600000240519"><ele>1167.75</ele><time>2026-05-03T13:26:32.003Z</time></trkpt><trkpt lat="42.130454083981355" lon="9.190686837323378"><ele>1162.5</ele><time>2026-05-03T13:26:33.003Z</time></trkpt><trkpt lat="42.13057406888996" lon="9.19073131524624"><ele>1157.25</ele><time>2026-05-03T13:26:34.003Z</time></trkpt><trkpt lat="42.130715294829315" lon="9.190730742836312"><ele>1152.0</ele><time>2026-05-03T13:26:35.003Z</time></trkpt><trkpt lat="42.13086674111528" lon="9.190678748696358"><ele>1164.6666666666667</ele><time>2026-05-03T13:26:36.003Z</time></trkpt><trkpt lat="42.13101778814843" lon="9.190621259746083"><ele>1177.3333333333335</ele><time>2026-05-03T13:26:37.003Z</time></trkpt><trkpt lat="42.13117923819714" lon="9.19058855999959"><ele>1190.0</ele><time>2026-05-03T13:26:38.003Z</time></trkpt><trkpt lat="42.13135945127247" lon="9.190584606108835"><ele>1190.0</ele><time>2026-05-03T13:26:39.003Z</time></trkpt><trkpt lat="42.13152445854007" lon="9.19060337611391"><ele>1190.0</ele><time>2026-05-03T13:26:40.003Z</time></trkpt><trkpt lat="42.13167636067854" lon="9.190611192601548"><ele>1190.0</ele><time>2026-05-03T13:26:41.003Z</time></trkpt><trkpt lat="42.13182012463673" lon="9.190562200292131"><ele>1192.3333333333335</ele><time>2026-05-03T13:26:42.003Z</time></trkpt><trkpt lat="42.131954728139036" lon="9.190472193115756"><ele>1194.6666666666667</ele><time>2026-05-03T13:26:43.003Z</time></trkpt><trkpt lat="42.13209616093733" lon="9.190371009282558"><ele>1197.0</ele><time>2026-05-03T13:26:44.003Z</time></trkpt><trkpt lat="42.1322479269945" lon="9.190338516775798"><ele>1198.3333333333333</ele><time>2026-05-03T13:26:45.003Z</time></trkpt><trkpt lat="42.1324015580599" lon="9.190326506413923"><ele>1199.6666666666665</ele><time>2026-05-03T13:26:46.003Z</time></trkpt><trkpt lat="42.13255688472704" lon="9.190357160052654"><ele>1201.0</ele><time>2026-05-03T13:26:47.003Z</time></trkpt><trkpt lat="42.132715813323216" lon="9.190395714178104"><ele>1201.0</ele><time>2026-05-03T13:26:48.003Z</time></trkpt><trkpt lat="42.13284135782154" lon="9.190478647735553"><ele>1201.0</ele><time>2026-05-03T13:26:49.003Z</time></trkpt><trkpt lat="42.13293178414414" lon="9.190531497492087"><ele>1201.0</ele><time>2026-05-03T13:26:50.003Z</time></trkpt><trkpt lat="42.13301405821863" lon="9.190560024590726"><ele>1201.0</ele><time>2026-05-03T13:26:51.003Z</time></trkpt><trkpt lat="42.133084560105395" lon="9.190606083994602"><ele>1201.0</ele><time>2026-05-03T13:26:52.003Z</time></trkpt><trkpt lat="42.13321236196894" lon="9.19061296250316"><ele>1201.3999999999999</ele><time>2026-05-03T13:26:54Z</time></trkpt><trkpt lat="42.13329682956829" lon="9.190570778288636"><ele>1201.8</ele><time>2026-05-03T13:26:55Z</time></trkpt><trkpt lat="42.13339354618797" lon="9.19051360906434"><ele>1202.1999999999998</ele><time>2026-05-03T13:26:56Z</time></trkpt><trkpt lat="42.13348360740034" lon="9.190434131010337"><ele>1202.6</ele><time>2026-05-03T13:26:57Z</time></trkpt><trkpt lat="42.13355474963342" lon="9.190316278536839"><ele>1203.0</ele><time>2026-05-03T13:26:58Z</time></trkpt><trkpt lat="42.13360124127173" lon="9.190198825823584"><ele>1203.0</ele><time>2026-05-03T13:26:59Z</time></trkpt><trkpt lat="42.133620888832525" lon="9.190090268946904"><ele>1203.0</ele><time>2026-05-03T13:27:00Z</time></trkpt><trkpt lat="42.13364233019541" lon="9.18999463539278"><ele>1203.0</ele><time>2026-05-03T13:27:01Z</time></trkpt><trkpt lat="42.133681518648736" lon="9.189896405345356"><ele>1203.0</ele><time>2026-05-03T13:27:02Z</time></trkpt><trkpt lat="42.13372898980157" lon="9.189800170825023"><ele>1203.0</ele><time>2026-05-03T13:27:03Z</time></trkpt><trkpt lat="42.133791028093405" lon="9.189712428956726"><ele>1203.0</ele><time>2026-05-03T13:27:04Z</time></trkpt><trkpt lat="42.13382465249992" lon="9.189594277073434"><ele>1211.0</ele><time>2026-05-03T13:27:05Z</time></trkpt><trkpt lat="42.13383402738286" lon="9.189450782856408"><ele>1219.0</ele><time>2026-05-03T13:27:06Z</time></trkpt><trkpt lat="42.133851987038526" lon="9.189283187856145"><ele>1227.0</ele><time>2026-05-03T13:27:07Z</time></trkpt><trkpt lat="42.13389086537726" lon="9.189116078023883"><ele>1235.0</ele><time>2026-05-03T13:27:08Z</time></trkpt><trkpt lat="42.134017606612886" lon="9.189035596576465"><ele>1235.0</ele><time>2026-05-03T13:27:09Z</time></trkpt><trkpt lat="42.134129397350726" lon="9.189008291901189"><ele>1235.0</ele><time>2026-05-03T13:27:10Z</time></trkpt><trkpt lat="42.134263459478746" lon="9.189061261964799"><ele>1235.0</ele><time>2026-05-03T13:27:11Z</time></trkpt><trkpt lat="42.13441421774368" lon="9.189088170635475"><ele>1235.0</ele><time>2026-05-03T13:27:12Z</time></trkpt><trkpt lat="42.134560293451024" lon="9.189065253122175"><ele>1235.0</ele><time>2026-05-03T13:27:13Z</time></trkpt><trkpt lat="42.13469716847981" lon="9.188941018407762"><ele>1235.0</ele><time>2026-05-03T13:27:14Z</time></trkpt><trkpt lat="42.13480368312311" lon="9.188756082981058"><ele>1235.0</ele><time>2026-05-03T13:27:15Z</time></trkpt><trkpt lat="42.134883455103754" lon="9.188522375466398"><ele>1222.0</ele><time>2026-05-03T13:27:16Z</time></trkpt><trkpt lat="42.134932532300304" lon="9.18824364106722"><ele>1209.0</ele><time>2026-05-03T13:27:17Z</time></trkpt><trkpt lat="42.13496227710071" lon="9.18792110093541"><ele>1209.0</ele><time>2026-05-03T13:27:18Z</time></trkpt><trkpt lat="42.13497233149218" lon="9.187605809517432"><ele>1209.0</ele><time>2026-05-03T13:27:19Z</time></trkpt><trkpt lat="42.134944345024074" lon="9.187319952371746"><ele>1209.0</ele><time>2026-05-03T13:27:20Z</time></trkpt><trkpt lat="42.13489762481149" lon="9.187090614334954"><ele>1213.75</ele><time>2026-05-03T13:27:21Z</time></trkpt><trkpt lat="42.13488464408622" lon="9.186909492249626"><ele>1218.5</ele><time>2026-05-03T13:27:22Z</time></trkpt><trkpt lat="42.134927077695366" lon="9.186758880624714"><ele>1223.25</ele><time>2026-05-03T13:27:23.001Z</time></trkpt><trkpt lat="42.13506832845503" lon="9.18670702271515"><ele>1228.0</ele><time>2026-05-03T13:27:24.001Z</time></trkpt><trkpt lat="42.135160386315086" lon="9.186582530833563"><ele>1235.3333333333333</ele><time>2026-05-03T13:27:25.001Z</time></trkpt><trkpt lat="42.135238763182414" lon="9.1864216940154"><ele>1242.6666666666667</ele><time>2026-05-03T13:27:26.001Z</time></trkpt><trkpt lat="42.135292801268804" lon="9.186225045371312"><ele>1250.0</ele><time>2026-05-03T13:27:27.001Z</time></trkpt><trkpt lat="42.135336149826344" lon="9.186010128172759"><ele>1250.0</ele><time>2026-05-03T13:27:28.001Z</time></trkpt><trkpt lat="42.13539941957816" lon="9.185883735017951"><ele>1250.0</ele><time>2026-05-03T13:27:29.001Z</time></trkpt><trkpt lat="42.13543788211621" lon="9.185792035221159"><ele>1250.0</ele><time>2026-05-03T13:27:30.001Z</time></trkpt><trkpt lat="42.13553346810117" lon="9.185783802212814"><ele>1250.0</ele><time>2026-05-03T13:27:31.001Z</time></trkpt><trkpt lat="42.135639580238866" lon="9.185802471958075"><ele>1250.0</ele><time>2026-05-03T13:27:32.001Z</time></trkpt><trkpt lat="42.13575840918976" lon="9.185872250548982"><ele>1244.6666666666667</ele><time>2026-05-03T13:27:33.001Z</time></trkpt><trkpt lat="42.135893489134425" lon="9.185939216254335"><ele>1239.3333333333333</ele><time>2026-05-03T13:27:34.001Z</time></trkpt><trkpt lat="42.13604980337484" lon="9.18600355395688"><ele>1234.0</ele><time>2026-05-03T13:27:35.001Z</time></trkpt><trkpt lat="42.1362009632401" lon="9.186018412371798"><ele>1234.0</ele><time>2026-05-03T13:27:36.001Z</time></trkpt><trkpt lat="42.13633446938141" lon="9.186017645165691"><ele>1234.0</ele><time>2026-05-03T13:27:37.001Z</time></trkpt><trkpt lat="42.136467915830075" lon="9.185966638702075"><ele>1234.0</ele><time>2026-05-03T13:27:38.001Z</time></trkpt><trkpt lat="42.13660246766623" lon="9.185862208732024"><ele>1234.0</ele><time>2026-05-03T13:27:39.001Z</time></trkpt><trkpt lat="42.13672361645306" lon="9.185737105167547"><ele>1237.3333333333333</ele><time>2026-05-03T13:27:40.001Z</time></trkpt><trkpt lat="42.13683253180466" lon="9.185585593493634"><ele>1240.6666666666667</ele><time>2026-05-03T13:27:41.001Z</time></trkpt><trkpt lat="42.13692827997767" lon="9.185402208760527"><ele>1244.0</ele><time>2026-05-03T13:27:42.001Z</time></trkpt><trkpt lat="42.136996366107425" lon="9.1851889167781"><ele>1244.0</ele><time>2026-05-03T13:27:43.001Z</time></trkpt><trkpt lat="42.13707910527632" lon="9.184978054085258"><ele>1244.0</ele><time>2026-05-03T13:27:44.001Z</time></trkpt><trkpt lat="42.13713786153828" lon="9.184794359114207"><ele>1244.0</ele><time>2026-05-03T13:27:45.001Z</time></trkpt><trkpt lat="42.137212831597445" lon="9.184664784168417"><ele>1244.0</ele><time>2026-05-03T13:27:46.001Z</time></trkpt><trkpt lat="42.137304682208814" lon="9.184567433342238"><ele>1247.6666666666667</ele><time>2026-05-03T13:27:47.001Z</time></trkpt><trkpt lat="42.13744767064392" lon="9.184588264757819"><ele>1251.3333333333333</ele><time>2026-05-03T13:27:48.001Z</time></trkpt><trkpt lat="42.13760985082577" lon="9.18460882140505"><ele>1255.0</ele><time>2026-05-03T13:27:49.001Z</time></trkpt><trkpt lat="42.1377707120306" lon="9.184636851368902"><ele>1255.0</ele><time>2026-05-03T13:27:50.001Z</time></trkpt><trkpt lat="42.13791299527448" lon="9.184663790925585"><ele>1255.0</ele><time>2026-05-03T13:27:51.001Z</time></trkpt><trkpt lat="42.13804878042168" lon="9.18460281917776"><ele>1255.0</ele><time>2026-05-03T13:27:52.001Z</time></trkpt><trkpt lat="42.13819586529947" lon="9.184499557917592"><ele>1255.0</ele><time>2026-05-03T13:27:53.001Z</time></trkpt><trkpt lat="42.13835829979024" lon="9.184361288304528"><ele>1255.0</ele><time>2026-05-03T13:27:54.002Z</time></trkpt><trkpt lat="42.138480639074004" lon="9.184234819601013"><ele>1255.0</ele><time>2026-05-03T13:27:55.002Z</time></trkpt><trkpt lat="42.13857376315693" lon="9.184109572339352"><ele>1255.0</ele><time>2026-05-03T13:27:56.002Z</time></trkpt><trkpt lat="42.13868170517287" lon="9.18407100954574"><ele>1255.0</ele><time>2026-05-03T13:27:57.002Z</time></trkpt><trkpt lat="42.138785014103654" lon="9.184086796651815"><ele>1255.0</ele><time>2026-05-03T13:27:58.002Z</time></trkpt><trkpt lat="42.13887820135599" lon="9.184129010608643"><ele>1255.0</ele><time>2026-05-03T13:27:59.002Z</time></trkpt><trkpt lat="42.13895611953447" lon="9.18421714311118"><ele>1255.0</ele><time>2026-05-03T13:28:00.002Z</time></trkpt><trkpt lat="42.13899233071364" lon="9.184363244530227"><ele>1258.0</ele><time>2026-05-03T13:28:01.002Z</time></trkpt><trkpt lat="42.13905162509758" lon="9.18454389640596"><ele>1261.0</ele><time>2026-05-03T13:28:02.002Z</time></trkpt><trkpt lat="42.139163792513976" lon="9.18471643111078"><ele>1264.0</ele><time>2026-05-03T13:28:03.002Z</time></trkpt><trkpt lat="42.13930457323376" lon="9.184879958487477"><ele>1257.0</ele><time>2026-05-03T13:28:04.002Z</time></trkpt><trkpt lat="42.13948148143857" lon="9.185009848867995"><ele>1250.0</ele><time>2026-05-03T13:28:05.002Z</time></trkpt><trkpt lat="42.139661790769196" lon="9.185094228428857"><ele>1243.0</ele><time>2026-05-03T13:28:06.002Z</time></trkpt><trkpt lat="42.13980547549869" lon="9.185188679464295"><ele>1243.0</ele><time>2026-05-03T13:28:07.002Z</time></trkpt><trkpt lat="42.139897464000406" lon="9.185296847014198"><ele>1243.0</ele><time>2026-05-03T13:28:08.002Z</time></trkpt><trkpt lat="42.1399011147269" lon="9.185442480549561"><ele>1243.0</ele><time>2026-05-03T13:28:09.002Z</time></trkpt><trkpt lat="42.139881825085304" lon="9.18562762428988"><ele>1243.0</ele><time>2026-05-03T13:28:10.002Z</time></trkpt><trkpt lat="42.13986635771616" lon="9.185887066216832"><ele>1247.0</ele><time>2026-05-03T13:28:11.002Z</time></trkpt><trkpt lat="42.13988431621713" lon="9.186151812116863"><ele>1251.0</ele><time>2026-05-03T13:28:12.002Z</time></trkpt><trkpt lat="42.13991820099768" lon="9.18643279934822"><ele>1255.0</ele><time>2026-05-03T13:28:13.002Z</time></trkpt><trkpt lat="42.13996600046639" lon="9.18667449545201"><ele>1255.0</ele><time>2026-05-03T13:28:14.002Z</time></trkpt><trkpt lat="42.14000641800598" lon="9.186826758889387"><ele>1255.0</ele><time>2026-05-03T13:28:15.002Z</time></trkpt><trkpt lat="42.14003150604125" lon="9.186949269580744"><ele>1255.0</ele><time>2026-05-03T13:28:16.002Z</time></trkpt><trkpt lat="42.14010141585566" lon="9.187005355457707"><ele>1255.0</ele><time>2026-05-03T13:28:17.002Z</time></trkpt><trkpt lat="42.14015587294214" lon="9.187068508030352"><ele>1255.0</ele><time>2026-05-03T13:28:18.002Z</time></trkpt><trkpt lat="42.14023434865325" lon="9.187052848245823"><ele>1255.0</ele><time>2026-05-03T13:28:19.002Z</time></trkpt><trkpt lat="42.1403036976616" lon="9.187070793077156"><ele>1255.0</ele><time>2026-05-03T13:28:20.002Z</time></trkpt><trkpt lat="42.14038709268877" lon="9.187069618798166"><ele>1255.0</ele><time>2026-05-03T13:28:21.002Z</time></trkpt><trkpt lat="42.140480367945635" lon="9.187047521900944"><ele>1255.0</ele><time>2026-05-03T13:28:22.002Z</time></trkpt><trkpt lat="42.140578078717986" lon="9.18704580697165"><ele>1255.0</ele><time>2026-05-03T13:28:23.002Z</time></trkpt><trkpt lat="42.140673999614684" lon="9.187074645085087"><ele>1255.0</ele><time>2026-05-03T13:28:24.002Z</time></trkpt><trkpt lat="42.140771253137224" lon="9.18709783206107"><ele>1256.0</ele><time>2026-05-03T13:28:25.002Z</time></trkpt><trkpt lat="42.14085720903095" lon="9.187164469374908"><ele>1257.0</ele><time>2026-05-03T13:28:26.002Z</time></trkpt><trkpt lat="42.14093130959048" lon="9.187241100424401"><ele>1258.0</ele><time>2026-05-03T13:28:27.002Z</time></trkpt><trkpt lat="42.1410085679633" lon="9.187329310692272"><ele>1259.0</ele><time>2026-05-03T13:28:28.003Z</time></trkpt><trkpt lat="42.14109373294509" lon="9.187402123628624"><ele>1260.0</ele><time>2026-05-03T13:28:29.003Z</time></trkpt><trkpt lat="42.141168320336675" lon="9.187501084974944"><ele>1260.0</ele><time>2026-05-03T13:28:30.003Z</time></trkpt><trkpt lat="42.14122480514337" lon="9.187630598409136"><ele>1260.0</ele><time>2026-05-03T13:28:31.003Z</time></trkpt><trkpt lat="42.141283402095354" lon="9.187766331481347"><ele>1260.0</ele><time>2026-05-03T13:28:32.003Z</time></trkpt><trkpt lat="42.14135999626924" lon="9.187916177018762"><ele>1260.0</ele><time>2026-05-03T13:28:33.003Z</time></trkpt><trkpt lat="42.141434955384234" lon="9.188087155069654"><ele>1266.0</ele><time>2026-05-03T13:28:34.003Z</time></trkpt><trkpt lat="42.14152829108681" lon="9.18825235907558"><ele>1272.0</ele><time>2026-05-03T13:28:35.003Z</time></trkpt><trkpt lat="42.14166481090102" lon="9.188395625765962"><ele>1278.0</ele><time>2026-05-03T13:28:36.003Z</time></trkpt><trkpt lat="42.14182077189011" lon="9.188532919395012"><ele>1278.0</ele><time>2026-05-03T13:28:37.003Z</time></trkpt><trkpt lat="42.1419809136608" lon="9.188677601104512"><ele>1278.0</ele><time>2026-05-03T13:28:38.003Z</time></trkpt><trkpt lat="42.14215432925436" lon="9.188835185606223"><ele>1278.0</ele><time>2026-05-03T13:28:39.003Z</time></trkpt><trkpt lat="42.142330606754776" lon="9.189017612559178"><ele>1283.0</ele><time>2026-05-03T13:28:40.003Z</time></trkpt><trkpt lat="42.14251749612258" lon="9.189188378240017"><ele>1288.0</ele><time>2026-05-03T13:28:41.003Z</time></trkpt><trkpt lat="42.142661029655926" lon="9.189452952062027"><ele>1288.0</ele><time>2026-05-03T13:28:42.003Z</time></trkpt><trkpt lat="42.142822312311985" lon="9.18968203349216"><ele>1288.0</ele><time>2026-05-03T13:28:43.003Z</time></trkpt><trkpt lat="42.142969559088606" lon="9.189888941727181"><ele>1288.0</ele><time>2026-05-03T13:28:44.003Z</time></trkpt><trkpt lat="42.143138616328905" lon="9.190047662675955"><ele>1290.3333333333333</ele><time>2026-05-03T13:28:45.003Z</time></trkpt><trkpt lat="42.14330551310962" lon="9.190151795945992"><ele>1292.6666666666667</ele><time>2026-05-03T13:28:46.003Z</time></trkpt><trkpt lat="42.143448765636066" lon="9.190240235159147"><ele>1295.0</ele><time>2026-05-03T13:28:47.003Z</time></trkpt><trkpt lat="42.14354642109988" lon="9.190345089137468"><ele>1295.0</ele><time>2026-05-03T13:28:48.003Z</time></trkpt><trkpt lat="42.14359527923385" lon="9.190457007400473"><ele>1295.0</ele><time>2026-05-03T13:28:49.003Z</time></trkpt><trkpt lat="42.14359789774193" lon="9.190631225633972"><ele>1295.0</ele><time>2026-05-03T13:28:50.003Z</time></trkpt><trkpt lat="42.14356553908706" lon="9.190868058940708"><ele>1295.0</ele><time>2026-05-03T13:28:51.003Z</time></trkpt><trkpt lat="42.14348530075271" lon="9.191096199117574"><ele>1295.3333333333335</ele><time>2026-05-03T13:28:52.003Z</time></trkpt><trkpt lat="42.14341322177352" lon="9.191357683146073"><ele>1295.6666666666667</ele><time>2026-05-03T13:28:53.003Z</time></trkpt><trkpt lat="42.14337916245993" lon="9.191638215719673"><ele>1296.0</ele><time>2026-05-03T13:28:54.003Z</time></trkpt><trkpt lat="42.143324911690954" lon="9.19192869455351"><ele>1296.0</ele><time>2026-05-03T13:28:55.003Z</time></trkpt><trkpt lat="42.143217253995886" lon="9.192149472072218"><ele>1296.0</ele><time>2026-05-03T13:28:56.003Z</time></trkpt><trkpt lat="42.14315356562206" lon="9.192349555096452"><ele>1296.0</ele><time>2026-05-03T13:28:57.003Z</time></trkpt><trkpt lat="42.143106061594956" lon="9.192530426594152"><ele>1289.25</ele><time>2026-05-03T13:28:58.003Z</time></trkpt><trkpt lat="42.14310254703181" lon="9.192722465283714"><ele>1282.5</ele><time>2026-05-03T13:28:59.003Z</time></trkpt><trkpt lat="42.14311866624338" lon="9.192897201063131"><ele>1275.75</ele><time>2026-05-03T13:29:00.002Z</time></trkpt><trkpt lat="42.1431284325783" lon="9.19300474387145"><ele>1269.0</ele><time>2026-05-03T13:29:01.002Z</time></trkpt><trkpt lat="42.143167868973464" lon="9.193138673244228"><ele>1276.8000000000002</ele><time>2026-05-03T13:29:03.002Z</time></trkpt><trkpt lat="42.143296818089844" lon="9.193075041901208"><ele>1284.6000000000001</ele><time>2026-05-03T13:29:05.002Z</time></trkpt><trkpt lat="42.143297428501434" lon="9.19291478318268"><ele>1292.4</ele><time>2026-05-03T13:29:07.001Z</time></trkpt><trkpt lat="42.143264467970575" lon="9.192806950073853"><ele>1300.2</ele><time>2026-05-03T13:29:08.001Z</time></trkpt><trkpt lat="42.14325236781878" lon="9.19270430776407"><ele>1308.0</ele><time>2026-05-03T13:29:09.001Z</time></trkpt><trkpt lat="42.14325712461823" lon="9.19257177255027"><ele>1308.0</ele><time>2026-05-03T13:29:10.001Z</time></trkpt><trkpt lat="42.1433007618645" lon="9.192412866453965"><ele>1308.0</ele><time>2026-05-03T13:29:11.001Z</time></trkpt><trkpt lat="42.143383583557956" lon="9.192243448627384"><ele>1308.0</ele><time>2026-05-03T13:29:12.001Z</time></trkpt><trkpt lat="42.143478593025115" lon="9.192054048767192"><ele>1308.0</ele><time>2026-05-03T13:29:13.001Z</time></trkpt><trkpt lat="42.143578942299214" lon="9.191841271178632"><ele>1304.0</ele><time>2026-05-03T13:29:14.001Z</time></trkpt><trkpt lat="42.14369294300146" lon="9.191614338337791"><ele>1300.0</ele><time>2026-05-03T13:29:15.001Z</time></trkpt><trkpt lat="42.14381681966231" lon="9.191360906134342"><ele>1296.0</ele><time>2026-05-03T13:29:16.001Z</time></trkpt><trkpt lat="42.143937263548516" lon="9.191115182411366"><ele>1293.0</ele><time>2026-05-03T13:29:17.001Z</time></trkpt><trkpt lat="42.144021819710645" lon="9.190885674270312"><ele>1290.0</ele><time>2026-05-03T13:29:18.001Z</time></trkpt><trkpt lat="42.144084759340124" lon="9.19069049893161"><ele>1287.0</ele><time>2026-05-03T13:29:19.001Z</time></trkpt><trkpt lat="42.144116532923746" lon="9.190532993411551"><ele>1291.1666666666667</ele><time>2026-05-03T13:29:20.001Z</time></trkpt><trkpt lat="42.14413525614332" lon="9.190423206216282"><ele>1295.3333333333333</ele><time>2026-05-03T13:29:21.001Z</time></trkpt><trkpt lat="42.144186274018246" lon="9.190335996974305"><ele>1299.5</ele><time>2026-05-03T13:29:23.001Z</time></trkpt><trkpt lat="42.14425019143611" lon="9.190262731880102"><ele>1303.6666666666665</ele><time>2026-05-03T13:29:25.001Z</time></trkpt><trkpt lat="42.144250687897376" lon="9.190176671254823"><ele>1307.8333333333333</ele><time>2026-05-03T13:29:27.001Z</time></trkpt><trkpt lat="42.14419247492643" lon="9.19012295217457"><ele>1312.0</ele><time>2026-05-03T13:30:25.001Z</time></trkpt><trkpt lat="42.144247568028405" lon="9.190221761629088"><ele>1312.0</ele><time>2026-05-03T13:30:27.001Z</time></trkpt><trkpt lat="42.14419401287058" lon="9.190281026083628"><ele>1312.0</ele><time>2026-05-03T13:30:28.001Z</time></trkpt><trkpt lat="42.144120002392064" lon="9.190255302958464"><ele>1312.0</ele><time>2026-05-03T13:30:29.001Z</time></trkpt><trkpt lat="42.14409535444023" lon="9.190102914621335"><ele>1312.0</ele><time>2026-05-03T13:30:32.001Z</time></trkpt><trkpt lat="42.14418179296546" lon="9.189988175063144"><ele>1312.0</ele><time>2026-05-03T13:30:33.001Z</time></trkpt><trkpt lat="42.14413948506654" lon="9.18989229488351"><ele>1312.0</ele><time>2026-05-03T13:30:35.001Z</time></trkpt><trkpt lat="42.144209483145545" lon="9.190078502059169"><ele>1312.0</ele><time>2026-05-03T13:32:31.001Z</time></trkpt><trkpt lat="42.14425739576914" lon="9.19015913003514"><ele>1312.0</ele><time>2026-05-03T13:32:33.001Z</time></trkpt><trkpt lat="42.14418891692134" lon="9.190332475145132"><ele>1312.0</ele><time>2026-05-03T13:32:35.001Z</time></trkpt><trkpt lat="42.144249758289824" lon="9.190307122675247"><ele>1312.0</ele><time>2026-05-03T13:32:38.001Z</time></trkpt><trkpt lat="42.144238379720996" lon="9.190198927483344"><ele>1312.0</ele><time>2026-05-03T13:32:41.001Z</time></trkpt><trkpt lat="42.14422228874516" lon="9.190093747081885"><ele>1312.0</ele><time>2026-05-03T13:36:12Z</time></trkpt><trkpt lat="42.144184599105124" lon="9.190007225466005"><ele>1312.0</ele><time>2026-05-03T13:36:15Z</time></trkpt><trkpt lat="42.14413669285698" lon="9.189911140845522"><ele>1312.0</ele><time>2026-05-03T13:36:17Z</time></trkpt><trkpt lat="42.14407073166732" lon="9.189774598067821"><ele>1312.0</ele><time>2026-05-03T13:36:19Z</time></trkpt><trkpt lat="42.14404708889209" lon="9.189686058875097"><ele>1312.0</ele><time>2026-05-03T13:36:20Z</time></trkpt><trkpt lat="42.1440343398158" lon="9.189592700812755"><ele>1314.1666666666665</ele><time>2026-05-03T13:36:21Z</time></trkpt><trkpt lat="42.14402418736422" lon="9.189496827832633"><ele>1316.3333333333333</ele><time>2026-05-03T13:36:22Z</time></trkpt><trkpt lat="42.14402060727157" lon="9.189396554935712"><ele>1318.5</ele><time>2026-05-03T13:36:23.001Z</time></trkpt><trkpt lat="42.144016238488135" lon="9.189292546309689"><ele>1320.6666666666667</ele><time>2026-05-03T13:36:24.001Z</time></trkpt><trkpt lat="42.144012624473774" lon="9.189182595564356"><ele>1322.8333333333335</ele><time>2026-05-03T13:36:25.001Z</time></trkpt><trkpt lat="42.144008459522674" lon="9.189072860477124"><ele>1325.0</ele><time>2026-05-03T13:36:26.001Z</time></trkpt><trkpt lat="42.144006075323254" lon="9.188966390574203"><ele>1322.0</ele><time>2026-05-03T13:36:27.001Z</time></trkpt><trkpt lat="42.14400484969395" lon="9.188872159034869"><ele>1319.0</ele><time>2026-05-03T13:36:28.001Z</time></trkpt><trkpt lat="42.14400803665293" lon="9.188705383375718"><ele>1316.0</ele><time>2026-05-03T13:36:30.001Z</time></trkpt><trkpt lat="42.14402348559145" lon="9.18855864327751"><ele>1313.0</ele><time>2026-05-03T13:36:32.001Z</time></trkpt><trkpt lat="42.14405130267856" lon="9.188393544176511"><ele>1310.0</ele><time>2026-05-03T13:36:34.001Z</time></trkpt><trkpt lat="42.14407939668978" lon="9.188287434081786"><ele>1310.0</ele><time>2026-05-03T13:36:35.001Z</time></trkpt><trkpt lat="42.14410954920246" lon="9.188179680738378"><ele>1310.0</ele><time>2026-05-03T13:36:36.001Z</time></trkpt><trkpt lat="42.14414152945241" lon="9.188060233638282"><ele>1310.0</ele><time>2026-05-03T13:36:37.001Z</time></trkpt><trkpt lat="42.144161046739" lon="9.187932826602283"><ele>1310.0</ele><time>2026-05-03T13:36:38.001Z</time></trkpt><trkpt lat="42.14417587813596" lon="9.187808213419359"><ele>1310.0</ele><time>2026-05-03T13:36:39.001Z</time></trkpt><trkpt lat="42.14417966673736" lon="9.187689410122022"><ele>1311.6</ele><time>2026-05-03T13:36:40.001Z</time></trkpt><trkpt lat="42.14420393866238" lon="9.187591449607881"><ele>1313.2</ele><time>2026-05-03T13:36:41.001Z</time></trkpt><trkpt lat="42.14428333560923" lon="9.187565440744846"><ele>1314.8000000000002</ele><time>2026-05-03T13:36:43.001Z</time></trkpt><trkpt lat="42.14428073669522" lon="9.187762578952935"><ele>1316.4</ele><time>2026-05-03T13:36:45.001Z</time></trkpt><trkpt lat="42.144273803567955" lon="9.187883378553977"><ele>1318.0</ele><time>2026-05-03T13:36:46.001Z</time></trkpt><trkpt lat="42.14423516871382" lon="9.187991555717778"><ele>1318.0</ele><time>2026-05-03T13:36:47.001Z</time></trkpt><trkpt lat="42.14421033959951" lon="9.188106825617552"><ele>1318.0</ele><time>2026-05-03T13:36:48.001Z</time></trkpt><trkpt lat="42.14417997637754" lon="9.188238319428283"><ele>1318.0</ele><time>2026-05-03T13:36:49.001Z</time></trkpt><trkpt lat="42.14415243315762" lon="9.188383764570315"><ele>1318.0</ele><time>2026-05-03T13:36:50.001Z</time></trkpt><trkpt lat="42.144151649126876" lon="9.188554435723365"><ele>1318.0</ele><time>2026-05-03T13:36:51.001Z</time></trkpt><trkpt lat="42.14418836352327" lon="9.188741650122662"><ele>1316.75</ele><time>2026-05-03T13:36:52.001Z</time></trkpt><trkpt lat="42.14422111264778" lon="9.188924837611799"><ele>1315.5</ele><time>2026-05-03T13:36:53.001Z</time></trkpt><trkpt lat="42.14425221828731" lon="9.18910881636587"><ele>1314.25</ele><time>2026-05-03T13:36:54.001Z</time></trkpt><trkpt lat="42.14431470958769" lon="9.18927870133232"><ele>1313.0</ele><time>2026-05-03T13:36:55.001Z</time></trkpt><trkpt lat="42.144416983585444" lon="9.189431223867052"><ele>1313.0</ele><time>2026-05-03T13:36:56.001Z</time></trkpt><trkpt lat="42.14452946996693" lon="9.189558540541947"><ele>1313.0</ele><time>2026-05-03T13:36:57.001Z</time></trkpt><trkpt lat="42.144639918715676" lon="9.189675746610533"><ele>1313.0</ele><time>2026-05-03T13:36:58.001Z</time></trkpt><trkpt lat="42.14472286357882" lon="9.189820797020287"><ele>1313.0</ele><time>2026-05-03T13:36:59.001Z</time></trkpt><trkpt lat="42.14476174723206" lon="9.189987767324567"><ele>1312.75</ele><time>2026-05-03T13:37:00.001Z</time></trkpt><trkpt lat="42.144824397474416" lon="9.19014464755866"><ele>1312.5</ele><time>2026-05-03T13:37:01.001Z</time></trkpt><trkpt lat="42.14492126271328" lon="9.190277547201829"><ele>1312.25</ele><time>2026-05-03T13:37:02.001Z</time></trkpt><trkpt lat="42.14501674867518" lon="9.190399917145372"><ele>1312.0</ele><time>2026-05-03T13:37:03.001Z</time></trkpt><trkpt lat="42.14512127626761" lon="9.19050013813061"><ele>1311.0</ele><time>2026-05-03T13:37:04.001Z</time></trkpt><trkpt lat="42.1452171867813" lon="9.190608475881978"><ele>1310.0</ele><time>2026-05-03T13:37:05.001Z</time></trkpt><trkpt lat="42.14532640742373" lon="9.190680499725515"><ele>1309.0</ele><time>2026-05-03T13:37:06.001Z</time></trkpt><trkpt lat="42.145439417904434" lon="9.190721949221805"><ele>1308.0</ele><time>2026-05-03T13:37:07.001Z</time></trkpt><trkpt lat="42.14555691803705" lon="9.190723575248603"><ele>1301.25</ele><time>2026-05-03T13:37:08.001Z</time></trkpt><trkpt lat="42.145671104931544" lon="9.190657860754971"><ele>1294.5</ele><time>2026-05-03T13:37:09.001Z</time></trkpt><trkpt lat="42.145797640870704" lon="9.190654302265756"><ele>1287.75</ele><time>2026-05-03T13:37:10.001Z</time></trkpt><trkpt lat="42.14590842056623" lon="9.190659343975629"><ele>1281.0</ele><time>2026-05-03T13:37:11.001Z</time></trkpt><trkpt lat="42.14601349988844" lon="9.190678932869673"><ele>1279.5</ele><time>2026-05-03T13:37:12.001Z</time></trkpt><trkpt lat="42.14610609798204" lon="9.190785482404229"><ele>1278.0</ele><time>2026-05-03T13:37:13.001Z</time></trkpt><trkpt lat="42.146151689366846" lon="9.190928593184042"><ele>1276.5</ele><time>2026-05-03T13:37:14.001Z</time></trkpt><trkpt lat="42.146223503278826" lon="9.191047050447807"><ele>1275.0</ele><time>2026-05-03T13:37:15.001Z</time></trkpt><trkpt lat="42.146284161155094" lon="9.191180613620412"><ele>1275.0</ele><time>2026-05-03T13:37:16.001Z</time></trkpt><trkpt lat="42.14635349076917" lon="9.191296010940434"><ele>1275.0</ele><time>2026-05-03T13:37:17.001Z</time></trkpt><trkpt lat="42.14643621800137" lon="9.191390149377046"><ele>1275.0</ele><time>2026-05-03T13:37:18.001Z</time></trkpt><trkpt lat="42.14655057527526" lon="9.191398688568906"><ele>1275.0</ele><time>2026-05-03T13:37:19.001Z</time></trkpt><trkpt lat="42.14665820774233" lon="9.19140985891012"><ele>1275.0</ele><time>2026-05-03T13:37:20.001Z</time></trkpt><trkpt lat="42.146766504801235" lon="9.19141913466289"><ele>1275.0</ele><time>2026-05-03T13:37:21.001Z</time></trkpt><trkpt lat="42.14687382908156" lon="9.191459629298985"><ele>1275.0</ele><time>2026-05-03T13:37:22.001Z</time></trkpt><trkpt lat="42.14698502853294" lon="9.191480793087758"><ele>1275.0</ele><time>2026-05-03T13:37:23.001Z</time></trkpt><trkpt lat="42.14708180196361" lon="9.191564752059817"><ele>1275.0</ele><time>2026-05-03T13:37:23.999Z</time></trkpt><trkpt lat="42.14713445434595" lon="9.191700680527331"><ele>1275.0</ele><time>2026-05-03T13:37:24.999Z</time></trkpt><trkpt lat="42.1471779486666" lon="9.191828103070572"><ele>1275.0</ele><time>2026-05-03T13:37:25.999Z</time></trkpt><trkpt lat="42.14723883056039" lon="9.191910177790634"><ele>1275.0</ele><time>2026-05-03T13:37:26.999Z</time></trkpt><trkpt lat="42.14730091679308" lon="9.191949931704755"><ele>1275.0</ele><time>2026-05-03T13:37:27.999Z</time></trkpt><trkpt lat="42.14736337957397" lon="9.191965176468738"><ele>1275.0</ele><time>2026-05-03T13:37:29Z</time></trkpt><trkpt lat="42.14742771380046" lon="9.191895022644454"><ele>1275.0</ele><time>2026-05-03T13:37:30Z</time></trkpt><trkpt lat="42.14742409013284" lon="9.191769472759018"><ele>1275.0</ele><time>2026-05-03T13:37:31Z</time></trkpt><trkpt lat="42.14737141893439" lon="9.191689981123556"><ele>1275.0</ele><time>2026-05-03T13:37:32Z</time></trkpt><trkpt lat="42.14731729352894" lon="9.191622065920912"><ele>1275.0</ele><time>2026-05-03T13:37:33Z</time></trkpt><trkpt lat="42.147260621349616" lon="9.191531972632529"><ele>1275.0</ele><time>2026-05-03T13:37:34Z</time></trkpt><trkpt lat="42.14718867372837" lon="9.191437971167868"><ele>1275.0</ele><time>2026-05-03T13:37:35Z</time></trkpt><trkpt lat="42.147097268902634" lon="9.191342313933374"><ele>1267.0</ele><time>2026-05-03T13:37:36Z</time></trkpt><trkpt lat="42.146984769977216" lon="9.191300937746151"><ele>1259.0</ele><time>2026-05-03T13:37:37Z</time></trkpt><trkpt lat="42.14687353074761" lon="9.191265068749225"><ele>1251.0</ele><time>2026-05-03T13:37:38Z</time></trkpt><trkpt lat="42.14676142230718" lon="9.191204854765227"><ele>1243.0</ele><time>2026-05-03T13:37:39Z</time></trkpt><trkpt lat="42.14664514922087" lon="9.191172724873345"><ele>1243.0</ele><time>2026-05-03T13:37:40Z</time></trkpt><trkpt lat="42.146550685243774" lon="9.191089130930823"><ele>1243.0</ele><time>2026-05-03T13:37:41Z</time></trkpt><trkpt lat="42.14648547274915" lon="9.19096770447365"><ele>1243.0</ele><time>2026-05-03T13:37:42Z</time></trkpt><trkpt lat="42.146454682766354" lon="9.190808308101401"><ele>1243.0</ele><time>2026-05-03T13:37:43Z</time></trkpt><trkpt lat="42.14643063674674" lon="9.190641774269553"><ele>1241.75</ele><time>2026-05-03T13:37:44Z</time></trkpt><trkpt lat="42.14639609757301" lon="9.190478288821533"><ele>1240.5</ele><time>2026-05-03T13:37:45Z</time></trkpt><trkpt lat="42.14635354151329" lon="9.190318460764408"><ele>1239.25</ele><time>2026-05-03T13:37:46Z</time></trkpt><trkpt lat="42.1463016434671" lon="9.190172925228994"><ele>1238.0</ele><time>2026-05-03T13:37:47Z</time></trkpt><trkpt lat="42.14622938881904" lon="9.190065897484807"><ele>1238.0</ele><time>2026-05-03T13:37:48Z</time></trkpt><trkpt lat="42.14613600017617" lon="9.19000350741863"><ele>1238.0</ele><time>2026-05-03T13:37:49Z</time></trkpt><trkpt lat="42.14602923390593" lon="9.189993513284643"><ele>1238.0</ele><time>2026-05-03T13:37:50Z</time></trkpt><trkpt lat="42.14591192607663" lon="9.189966551699642"><ele>1238.0</ele><time>2026-05-03T13:37:51Z</time></trkpt><trkpt lat="42.14578591268774" lon="9.189950424991013"><ele>1243.0</ele><time>2026-05-03T13:37:52Z</time></trkpt><trkpt lat="42.145669524661706" lon="9.189927273693879"><ele>1248.0</ele><time>2026-05-03T13:37:53Z</time></trkpt><trkpt lat="42.14555526131085" lon="9.189904496018166"><ele>1253.0</ele><time>2026-05-03T13:37:54Z</time></trkpt><trkpt lat="42.14545696091092" lon="9.189834869068058"><ele>1258.0</ele><time>2026-05-03T13:37:55Z</time></trkpt><trkpt lat="42.1453908591577" lon="9.189708126621042"><ele>1258.0</ele><time>2026-05-03T13:37:56Z</time></trkpt><trkpt lat="42.14538189759711" lon="9.18951752753378"><ele>1258.0</ele><time>2026-05-03T13:37:57Z</time></trkpt><trkpt lat="42.14533554744087" lon="9.189324548018249"><ele>1258.0</ele><time>2026-05-03T13:37:58Z</time></trkpt><trkpt lat="42.14528194160806" lon="9.189137138805204"><ele>1258.0</ele><time>2026-05-03T13:37:59Z</time></trkpt><trkpt lat="42.14521643929117" lon="9.188959383213012"><ele>1254.0</ele><time>2026-05-03T13:38:00Z</time></trkpt><trkpt lat="42.14514495588935" lon="9.188784661667293"><ele>1250.0</ele><time>2026-05-03T13:38:01Z</time></trkpt><trkpt lat="42.145069179853884" lon="9.188608432279246"><ele>1246.0</ele><time>2026-05-03T13:38:02Z</time></trkpt><trkpt lat="42.14505908526412" lon="9.188411043665141"><ele>1242.0</ele><time>2026-05-03T13:38:03Z</time></trkpt><trkpt lat="42.14507986623613" lon="9.188229147584112"><ele>1243.75</ele><time>2026-05-03T13:38:04Z</time></trkpt><trkpt lat="42.14511478126113" lon="9.188057517940937"><ele>1245.5</ele><time>2026-05-03T13:38:05Z</time></trkpt><trkpt lat="42.14515120322279" lon="9.18788443340074"><ele>1247.25</ele><time>2026-05-03T13:38:06Z</time></trkpt><trkpt lat="42.145183221876906" lon="9.187736866558918"><ele>1249.0</ele><time>2026-05-03T13:38:07Z</time></trkpt><trkpt lat="42.14521316768351" lon="9.187591690304526"><ele>1249.0</ele><time>2026-05-03T13:38:08Z</time></trkpt><trkpt lat="42.145233859765966" lon="9.187459076747258"><ele>1249.0</ele><time>2026-05-03T13:38:09Z</time></trkpt><trkpt lat="42.14525635329274" lon="9.18734822206745"><ele>1249.0</ele><time>2026-05-03T13:38:10Z</time></trkpt><trkpt lat="42.145330374380684" lon="9.187291595327553"><ele>1249.0</ele><time>2026-05-03T13:38:12Z</time></trkpt><trkpt lat="42.145360946877595" lon="9.18748262310006"><ele>1249.0</ele><time>2026-05-03T13:38:14Z</time></trkpt><trkpt lat="42.145325177550774" lon="9.18760937153216"><ele>1249.0</ele><time>2026-05-03T13:38:15Z</time></trkpt><trkpt lat="42.14529269051839" lon="9.187738851732282"><ele>1249.0</ele><time>2026-05-03T13:38:16Z</time></trkpt><trkpt lat="42.145265724000076" lon="9.187871250108726"><ele>1249.0</ele><time>2026-05-03T13:38:17Z</time></trkpt><trkpt lat="42.14524260997551" lon="9.188014963207841"><ele>1249.0</ele><time>2026-05-03T13:38:18Z</time></trkpt><trkpt lat="42.14521644885737" lon="9.18816549451091"><ele>1249.0</ele><time>2026-05-03T13:38:19Z</time></trkpt><trkpt lat="42.14521564920221" lon="9.188322403365593"><ele>1247.25</ele><time>2026-05-03T13:38:20Z</time></trkpt><trkpt lat="42.145239448041266" lon="9.188476168780463"><ele>1245.5</ele><time>2026-05-03T13:38:21Z</time></trkpt><trkpt lat="42.14530047702621" lon="9.188617403626168"><ele>1243.75</ele><time>2026-05-03T13:38:22Z</time></trkpt><trkpt lat="42.145384888549685" lon="9.188755093174116"><ele>1242.0</ele><time>2026-05-03T13:38:23Z</time></trkpt><trkpt lat="42.14547373928395" lon="9.188897566997616"><ele>1246.0</ele><time>2026-05-03T13:38:24Z</time></trkpt><trkpt lat="42.14555491026708" lon="9.189053536130112"><ele>1250.0</ele><time>2026-05-03T13:38:25Z</time></trkpt><trkpt lat="42.14562888224935" lon="9.189209208654018"><ele>1254.0</ele><time>2026-05-03T13:38:26Z</time></trkpt><trkpt lat="42.14571326862378" lon="9.18934666867529"><ele>1258.0</ele><time>2026-05-03T13:38:27Z</time></trkpt><trkpt lat="42.14584105519618" lon="9.189408000492664"><ele>1244.5</ele><time>2026-05-03T13:38:28Z</time></trkpt><trkpt lat="42.14595993444645" lon="9.189349510102893"><ele>1231.0</ele><time>2026-05-03T13:38:29Z</time></trkpt><trkpt lat="42.14608290892331" lon="9.189306309079104"><ele>1217.5</ele><time>2026-05-03T13:38:30Z</time></trkpt><trkpt lat="42.14622360402271" lon="9.18929529240223"><ele>1204.0</ele><time>2026-05-03T13:38:31Z</time></trkpt><trkpt lat="42.14637344640477" lon="9.189324520031334"><ele>1204.0</ele><time>2026-05-03T13:38:32Z</time></trkpt><trkpt lat="42.14651409803814" lon="9.1893664700819"><ele>1204.0</ele><time>2026-05-03T13:38:33Z</time></trkpt><trkpt lat="42.14664383146597" lon="9.189403079067555"><ele>1204.0</ele><time>2026-05-03T13:38:34Z</time></trkpt><trkpt lat="42.14676289587636" lon="9.189447691018986"><ele>1204.0</ele><time>2026-05-03T13:38:35Z</time></trkpt><trkpt lat="42.14687227609632" lon="9.189482450838202"><ele>1205.6000000000001</ele><time>2026-05-03T13:38:36Z</time></trkpt><trkpt lat="42.14696892933796" lon="9.189510103901382"><ele>1207.2</ele><time>2026-05-03T13:38:37Z</time></trkpt><trkpt lat="42.147057414470936" lon="9.189571667905536"><ele>1208.8000000000002</ele><time>2026-05-03T13:38:38Z</time></trkpt><trkpt lat="42.14711509691614" lon="9.189684089459405"><ele>1210.4</ele><time>2026-05-03T13:38:39Z</time></trkpt><trkpt lat="42.147141317931414" lon="9.189816598257279"><ele>1212.0</ele><time>2026-05-03T13:38:40Z</time></trkpt><trkpt lat="42.14716745597826" lon="9.189939363454911"><ele>1212.0</ele><time>2026-05-03T13:38:41Z</time></trkpt><trkpt lat="42.14722749077674" lon="9.19003465623343"><ele>1212.0</ele><time>2026-05-03T13:38:42Z</time></trkpt><trkpt lat="42.14731933408865" lon="9.190080962912319"><ele>1212.0</ele><time>2026-05-03T13:38:43Z</time></trkpt><trkpt lat="42.14743404836534" lon="9.1900960005143"><ele>1212.0</ele><time>2026-05-03T13:38:44Z</time></trkpt><trkpt lat="42.14754159663286" lon="9.190164596485268"><ele>1212.0</ele><time>2026-05-03T13:38:45Z</time></trkpt><trkpt lat="42.14764870217719" lon="9.19026155042631"><ele>1210.75</ele><time>2026-05-03T13:38:46Z</time></trkpt><trkpt lat="42.14775530392498" lon="9.190385009983725"><ele>1209.5</ele><time>2026-05-03T13:38:47.001Z</time></trkpt><trkpt lat="42.14783922104062" lon="9.190529163646044"><ele>1208.25</ele><time>2026-05-03T13:38:48.001Z</time></trkpt><trkpt lat="42.147915471112164" lon="9.190672895267443"><ele>1207.0</ele><time>2026-05-03T13:38:49.001Z</time></trkpt><trkpt lat="42.14801294434236" lon="9.19077167539047"><ele>1207.0</ele><time>2026-05-03T13:38:50.001Z</time></trkpt><trkpt lat="42.14808014819373" lon="9.190886614170203"><ele>1207.0</ele><time>2026-05-03T13:38:51.001Z</time></trkpt><trkpt lat="42.148116020461295" lon="9.191019709295386"><ele>1207.0</ele><time>2026-05-03T13:38:52.001Z</time></trkpt><trkpt lat="42.14816698667929" lon="9.191132858210427"><ele>1207.0</ele><time>2026-05-03T13:38:53.001Z</time></trkpt><trkpt lat="42.14825699070356" lon="9.191190038193596"><ele>1207.0</ele><time>2026-05-03T13:38:54.001Z</time></trkpt><trkpt lat="42.148345850064075" lon="9.191233525616127"><ele>1197.0</ele><time>2026-05-03T13:38:55.001Z</time></trkpt><trkpt lat="42.148453255679655" lon="9.191159236931725"><ele>1187.0</ele><time>2026-05-03T13:38:56.001Z</time></trkpt><trkpt lat="42.14856012930926" lon="9.191096429809084"><ele>1177.0</ele><time>2026-05-03T13:38:57.001Z</time></trkpt><trkpt lat="42.148683926912966" lon="9.191059839242657"><ele>1167.0</ele><time>2026-05-03T13:38:58.001Z</time></trkpt><trkpt lat="42.14881747880231" lon="9.191033783075294"><ele>1167.0</ele><time>2026-05-03T13:38:59.001Z</time></trkpt><trkpt lat="42.14895057863726" lon="9.191017056164755"><ele>1167.0</ele><time>2026-05-03T13:39:00.001Z</time></trkpt><trkpt lat="42.14906797875927" lon="9.190985358915267"><ele>1167.0</ele><time>2026-05-03T13:39:01.001Z</time></trkpt><trkpt lat="42.14916566948381" lon="9.190997922387329"><ele>1167.0</ele><time>2026-05-03T13:39:02.001Z</time></trkpt><trkpt lat="42.149256881753615" lon="9.191013660180928"><ele>1167.0</ele><time>2026-05-03T13:39:03.001Z</time></trkpt><trkpt lat="42.14933478982153" lon="9.19103066514583"><ele>1164.0</ele><time>2026-05-03T13:39:04.001Z</time></trkpt><trkpt lat="42.149400020494014" lon="9.191006150308853"><ele>1161.0</ele><time>2026-05-03T13:39:05.001Z</time></trkpt><trkpt lat="42.14944966712999" lon="9.19094521045473"><ele>1158.0</ele><time>2026-05-03T13:39:06.001Z</time></trkpt><trkpt lat="42.14941139773102" lon="9.190832391364792"><ele>1155.0</ele><time>2026-05-03T13:39:07.001Z</time></trkpt><trkpt lat="42.14933527078608" lon="9.190768872401092"><ele>1152.0</ele><time>2026-05-03T13:39:08.001Z</time></trkpt><trkpt lat="42.14923325175666" lon="9.190758233065413"><ele>1149.0</ele><time>2026-05-03T13:39:09.001Z</time></trkpt><trkpt lat="42.14912200648306" lon="9.190773996917597"><ele>1153.5</ele><time>2026-05-03T13:39:10.001Z</time></trkpt><trkpt lat="42.14899739213786" lon="9.190799297689127"><ele>1158.0</ele><time>2026-05-03T13:39:11.001Z</time></trkpt><trkpt lat="42.14885574321132" lon="9.19080326399801"><ele>1162.5</ele><time>2026-05-03T13:39:12.001Z</time></trkpt><trkpt lat="42.14870990942334" lon="9.190821759073263"><ele>1167.0</ele><time>2026-05-03T13:39:13.001Z</time></trkpt><trkpt lat="42.148578690491206" lon="9.190853298220253"><ele>1167.0</ele><time>2026-05-03T13:39:14.001Z</time></trkpt><trkpt lat="42.14845065613126" lon="9.190837479918649"><ele>1167.0</ele><time>2026-05-03T13:39:15.001Z</time></trkpt><trkpt lat="42.14833878150667" lon="9.190767709560667"><ele>1167.0</ele><time>2026-05-03T13:39:16.001Z</time></trkpt><trkpt lat="42.14831550377145" lon="9.190601286263691"><ele>1167.0</ele><time>2026-05-03T13:39:17.001Z</time></trkpt><trkpt lat="42.14827142277333" lon="9.190431701755303"><ele>1165.25</ele><time>2026-05-03T13:39:18.001Z</time></trkpt><trkpt lat="42.14821900698559" lon="9.190245670501232"><ele>1163.5</ele><time>2026-05-03T13:39:19.001Z</time></trkpt><trkpt lat="42.148203370874974" lon="9.190059435504649"><ele>1161.75</ele><time>2026-05-03T13:39:20.001Z</time></trkpt><trkpt lat="42.14821305627388" lon="9.189882677647907"><ele>1160.0</ele><time>2026-05-03T13:39:21.001Z</time></trkpt><trkpt lat="42.1482045586233" lon="9.189715732602858"><ele>1160.0</ele><time>2026-05-03T13:39:22.001Z</time></trkpt><trkpt lat="42.1481100644239" lon="9.18960283997415"><ele>1160.0</ele><time>2026-05-03T13:39:23.001Z</time></trkpt><trkpt lat="42.148028229008105" lon="9.18953032395123"><ele>1160.0</ele><time>2026-05-03T13:39:24.001Z</time></trkpt><trkpt lat="42.147968300682514" lon="9.189424887883904"><ele>1160.0</ele><time>2026-05-03T13:39:25.001Z</time></trkpt><trkpt lat="42.14797694938297" lon="9.189279702447735"><ele>1160.0</ele><time>2026-05-03T13:39:26.001Z</time></trkpt><trkpt lat="42.147963395041714" lon="9.189111148088765"><ele>1151.5</ele><time>2026-05-03T13:39:27.001Z</time></trkpt><trkpt lat="42.1479030771029" lon="9.188952333611734"><ele>1143.0</ele><time>2026-05-03T13:39:28.001Z</time></trkpt><trkpt lat="42.14784583231218" lon="9.188794076566102"><ele>1134.5</ele><time>2026-05-03T13:39:29.001Z</time></trkpt><trkpt lat="42.147777231376224" lon="9.188657570678588"><ele>1126.0</ele><time>2026-05-03T13:39:30Z</time></trkpt><trkpt lat="42.14770285511138" lon="9.188526956679183"><ele>1126.0</ele><time>2026-05-03T13:39:31Z</time></trkpt><trkpt lat="42.147580296699914" lon="9.188461771170035"><ele>1126.0</ele><time>2026-05-03T13:39:32Z</time></trkpt><trkpt lat="42.147455472548316" lon="9.188416768807269"><ele>1126.0</ele><time>2026-05-03T13:39:33Z</time></trkpt><trkpt lat="42.147334664480915" lon="9.18841619924389"><ele>1126.0</ele><time>2026-05-03T13:39:34Z</time></trkpt><trkpt lat="42.14721567692241" lon="9.188427612945457"><ele>1129.6</ele><time>2026-05-03T13:39:35Z</time></trkpt><trkpt lat="42.14710548926838" lon="9.188419591242244"><ele>1133.1999999999998</ele><time>2026-05-03T13:39:36Z</time></trkpt><trkpt lat="42.14700812992419" lon="9.188355805734892"><ele>1136.8000000000002</ele><time>2026-05-03T13:39:37Z</time></trkpt><trkpt lat="42.14690695595915" lon="9.188301506790866"><ele>1140.4</ele><time>2026-05-03T13:39:38Z</time></trkpt><trkpt lat="42.14680266673362" lon="9.18826111339738"><ele>1144.0</ele><time>2026-05-03T13:39:39Z</time></trkpt><trkpt lat="42.14671122220646" lon="9.188184869645061"><ele>1140.25</ele><time>2026-05-03T13:39:40Z</time></trkpt><trkpt lat="42.146645413336934" lon="9.188068542056671"><ele>1136.5</ele><time>2026-05-03T13:39:41Z</time></trkpt><trkpt lat="42.14661250659627" lon="9.187912590156923"><ele>1132.75</ele><time>2026-05-03T13:39:42Z</time></trkpt><trkpt lat="42.14661274527098" lon="9.187734354780016"><ele>1129.0</ele><time>2026-05-03T13:39:43Z</time></trkpt><trkpt lat="42.146621843970856" lon="9.187551432329041"><ele>1129.0</ele><time>2026-05-03T13:39:44Z</time></trkpt><trkpt lat="42.14663246491426" lon="9.187356426101557"><ele>1129.0</ele><time>2026-05-03T13:39:45Z</time></trkpt><trkpt lat="42.14664718232889" lon="9.187144714367998"><ele>1129.0</ele><time>2026-05-03T13:39:46Z</time></trkpt><trkpt lat="42.14666564691145" lon="9.18691845105932"><ele>1128.6666666666665</ele><time>2026-05-03T13:39:47Z</time></trkpt><trkpt lat="42.146691341406" lon="9.186676122059607"><ele>1128.3333333333333</ele><time>2026-05-03T13:39:48Z</time></trkpt><trkpt lat="42.14671739618025" lon="9.186424496169513"><ele>1128.0</ele><time>2026-05-03T13:39:49Z</time></trkpt><trkpt lat="42.14674063048238" lon="9.186163661444041"><ele>1127.0</ele><time>2026-05-03T13:39:50Z</time></trkpt><trkpt lat="42.146747874231664" lon="9.18590174828195"><ele>1126.0</ele><time>2026-05-03T13:39:51Z</time></trkpt><trkpt lat="42.14674374839327" lon="9.185639095025204"><ele>1125.0</ele><time>2026-05-03T13:39:52Z</time></trkpt><trkpt lat="42.14674392682651" lon="9.185381501641473"><ele>1123.3333333333333</ele><time>2026-05-03T13:39:53Z</time></trkpt><trkpt lat="42.14674118591691" lon="9.185136765793573"><ele>1121.6666666666665</ele><time>2026-05-03T13:39:54Z</time></trkpt><trkpt lat="42.14674586215016" lon="9.184920331108476"><ele>1120.0</ele><time>2026-05-03T13:39:55Z</time></trkpt><trkpt lat="42.14675934441092" lon="9.184744998407673"><ele>1124.6</ele><time>2026-05-03T13:39:56Z</time></trkpt><trkpt lat="42.146801326383965" lon="9.184630753440475"><ele>1129.2</ele><time>2026-05-03T13:39:57Z</time></trkpt><trkpt lat="42.14688161604547" lon="9.184543187856567"><ele>1133.8</ele><time>2026-05-03T13:39:58Z</time></trkpt><trkpt lat="42.14700061945606" lon="9.184542865834533"><ele>1138.4</ele><time>2026-05-03T13:39:59Z</time></trkpt><trkpt lat="42.14713078732094" lon="9.184538799349552"><ele>1143.0</ele><time>2026-05-03T13:40:00Z</time></trkpt><trkpt lat="42.14727560204673" lon="9.18448914356264"><ele>1132.6666666666667</ele><time>2026-05-03T13:40:01Z</time></trkpt><trkpt lat="42.14742254581768" lon="9.18442391991132"><ele>1122.3333333333335</ele><time>2026-05-03T13:40:02Z</time></trkpt><trkpt lat="42.147567515310804" lon="9.184344602880698"><ele>1112.0</ele><time>2026-05-03T13:40:03Z</time></trkpt><trkpt lat="42.14771086094486" lon="9.184275160072875"><ele>1112.0</ele><time>2026-05-03T13:40:04Z</time></trkpt><trkpt lat="42.14785212734825" lon="9.18422759725533"><ele>1112.0</ele><time>2026-05-03T13:40:05Z</time></trkpt><trkpt lat="42.147980064551575" lon="9.184202443714833"><ele>1112.0</ele><time>2026-05-03T13:40:06Z</time></trkpt><trkpt lat="42.14810138586986" lon="9.184181523645842"><ele>1112.0</ele><time>2026-05-03T13:40:07Z</time></trkpt><trkpt lat="42.1482184507137" lon="9.184149464145515"><ele>1110.4</ele><time>2026-05-03T13:40:08Z</time></trkpt><trkpt lat="42.148305679171216" lon="9.184094708109585"><ele>1108.8000000000002</ele><time>2026-05-03T13:40:09Z</time></trkpt><trkpt lat="42.148365627695924" lon="9.18400547597355"><ele>1107.2</ele><time>2026-05-03T13:40:10Z</time></trkpt><trkpt lat="42.14838666350178" lon="9.18388795487754"><ele>1105.6000000000001</ele><time>2026-05-03T13:40:11Z</time></trkpt><trkpt lat="42.14838853566128" lon="9.183748097801141"><ele>1104.0</ele><time>2026-05-03T13:40:12Z</time></trkpt><trkpt lat="42.14842682684965" lon="9.183597392735805"><ele>1104.0</ele><time>2026-05-03T13:40:13Z</time></trkpt><trkpt lat="42.14848843893329" lon="9.183449321316626"><ele>1104.0</ele><time>2026-05-03T13:40:14Z</time></trkpt><trkpt lat="42.148574964918524" lon="9.183309312827893"><ele>1104.0</ele><time>2026-05-03T13:40:15Z</time></trkpt><trkpt lat="42.14865900843971" lon="9.183143328476726"><ele>1104.0</ele><time>2026-05-03T13:40:16Z</time></trkpt><trkpt lat="42.148720838853414" lon="9.182948407991832"><ele>1110.3333333333333</ele><time>2026-05-03T13:40:17Z</time></trkpt><trkpt lat="42.14877581823795" lon="9.18274508904801"><ele>1116.6666666666665</ele><time>2026-05-03T13:40:18Z</time></trkpt><trkpt lat="42.14886233545269" lon="9.182563994652753"><ele>1123.0</ele><time>2026-05-03T13:40:19Z</time></trkpt><trkpt lat="42.148974443454435" lon="9.182424389312526"><ele>1110.0</ele><time>2026-05-03T13:40:20Z</time></trkpt><trkpt lat="42.14906867982599" lon="9.18229667912157"><ele>1097.0</ele><time>2026-05-03T13:40:21Z</time></trkpt><trkpt lat="42.149123275390664" lon="9.182135839130934"><ele>1084.0</ele><time>2026-05-03T13:40:22Z</time></trkpt><trkpt lat="42.14914391619157" lon="9.181964770807815"><ele>1071.0</ele><time>2026-05-03T13:40:23Z</time></trkpt><trkpt lat="42.14916057049867" lon="9.181800428898896"><ele>1071.0</ele><time>2026-05-03T13:40:24Z</time></trkpt><trkpt lat="42.14918872445114" lon="9.18162899492174"><ele>1071.0</ele><time>2026-05-03T13:40:25Z</time></trkpt><trkpt lat="42.14923626963992" lon="9.181456872671436"><ele>1071.0</ele><time>2026-05-03T13:40:26Z</time></trkpt><trkpt lat="42.14930574858043" lon="9.181304562055299"><ele>1071.0</ele><time>2026-05-03T13:40:27Z</time></trkpt><trkpt lat="42.14938694089534" lon="9.181170395839057"><ele>1069.25</ele><time>2026-05-03T13:40:28Z</time></trkpt><trkpt lat="42.149465181339096" lon="9.181043204925254"><ele>1067.5</ele><time>2026-05-03T13:40:29Z</time></trkpt><trkpt lat="42.149506053416694" lon="9.180896657295582"><ele>1065.75</ele><time>2026-05-03T13:40:30Z</time></trkpt><trkpt lat="42.14950975249904" lon="9.1807524744269"><ele>1064.0</ele><time>2026-05-03T13:40:31Z</time></trkpt><trkpt lat="42.14941824527699" lon="9.1806459782684"><ele>1065.0</ele><time>2026-05-03T13:40:32Z</time></trkpt><trkpt lat="42.14930773215374" lon="9.180549248169715"><ele>1066.0</ele><time>2026-05-03T13:40:33Z</time></trkpt><trkpt lat="42.14919055275756" lon="9.180435975169638"><ele>1067.0</ele><time>2026-05-03T13:40:34Z</time></trkpt><trkpt lat="42.14907940497584" lon="9.180308596738628"><ele>1068.0</ele><time>2026-05-03T13:40:35Z</time></trkpt><trkpt lat="42.148970358859124" lon="9.180175149460885"><ele>1068.0</ele><time>2026-05-03T13:40:36Z</time></trkpt><trkpt lat="42.14886117456477" lon="9.180030270828148"><ele>1068.0</ele><time>2026-05-03T13:40:37Z</time></trkpt><trkpt lat="42.14875877653491" lon="9.179875095865478"><ele>1068.0</ele><time>2026-05-03T13:40:38Z</time></trkpt><trkpt lat="42.14868001654153" lon="9.179707216180649"><ele>1063.5</ele><time>2026-05-03T13:40:39.001Z</time></trkpt><trkpt lat="42.14856964595251" lon="9.179588668195327"><ele>1059.0</ele><time>2026-05-03T13:40:40.001Z</time></trkpt><trkpt lat="42.148469774075245" lon="9.179461872389114"><ele>1054.5</ele><time>2026-05-03T13:40:41.001Z</time></trkpt><trkpt lat="42.148347519826714" lon="9.1793933778245"><ele>1050.0</ele><time>2026-05-03T13:40:42.001Z</time></trkpt><trkpt lat="42.14825773399827" lon="9.179281272531565"><ele>1050.0</ele><time>2026-05-03T13:40:43.001Z</time></trkpt><trkpt lat="42.14822289526099" lon="9.179121447185793"><ele>1050.0</ele><time>2026-05-03T13:40:44.001Z</time></trkpt><trkpt lat="42.14818955011757" lon="9.178960082196582"><ele>1050.0</ele><time>2026-05-03T13:40:45.001Z</time></trkpt><trkpt lat="42.14815806127524" lon="9.178800634443931"><ele>1050.0</ele><time>2026-05-03T13:40:46.001Z</time></trkpt><trkpt lat="42.14812427082191" lon="9.17865160242434"><ele>1051.0</ele><time>2026-05-03T13:40:47.001Z</time></trkpt><trkpt lat="42.14813577125147" lon="9.178501098590475"><ele>1052.0</ele><time>2026-05-03T13:40:48.001Z</time></trkpt><trkpt lat="42.14820946469248" lon="9.178389099356485"><ele>1053.0</ele><time>2026-05-03T13:40:49.001Z</time></trkpt><trkpt lat="42.14832558984641" lon="9.178344655142332"><ele>1054.0</ele><time>2026-05-03T13:40:50.001Z</time></trkpt><trkpt lat="42.14845583856882" lon="9.178307441373237"><ele>1054.0</ele><time>2026-05-03T13:40:51.001Z</time></trkpt><trkpt lat="42.14859043417784" lon="9.17825364755356"><ele>1054.0</ele><time>2026-05-03T13:40:52.001Z</time></trkpt><trkpt lat="42.14872750048988" lon="9.17818827649066"><ele>1054.0</ele><time>2026-05-03T13:40:53.001Z</time></trkpt><trkpt lat="42.14885945417317" lon="9.178018784393092"><ele>1051.0</ele><time>2026-05-03T13:40:54.001Z</time></trkpt><trkpt lat="42.14898904871766" lon="9.177916819224006"><ele>1048.0</ele><time>2026-05-03T13:40:55.001Z</time></trkpt><trkpt lat="42.14912275174158" lon="9.17784475516208"><ele>1045.0</ele><time>2026-05-03T13:40:56.001Z</time></trkpt><trkpt lat="42.1492542194334" lon="9.177788895582026"><ele>1042.0</ele><time>2026-05-03T13:40:57.001Z</time></trkpt><trkpt lat="42.14937426907829" lon="9.177709167525855"><ele>1042.0</ele><time>2026-05-03T13:40:58.001Z</time></trkpt><trkpt lat="42.14946354157123" lon="9.177595218719578"><ele>1042.0</ele><time>2026-05-03T13:40:59.001Z</time></trkpt><trkpt lat="42.14950530350007" lon="9.177459918429351"><ele>1042.0</ele><time>2026-05-03T13:41:00.001Z</time></trkpt><trkpt lat="42.14950357806807" lon="9.17729216730946"><ele>1042.0</ele><time>2026-05-03T13:41:01.001Z</time></trkpt><trkpt lat="42.14950569870306" lon="9.1771080535166"><ele>1042.75</ele><time>2026-05-03T13:41:02.001Z</time></trkpt><trkpt lat="42.14951772680383" lon="9.176909952119711"><ele>1043.5</ele><time>2026-05-03T13:41:03.001Z</time></trkpt><trkpt lat="42.14953483769837" lon="9.176708885578355"><ele>1044.25</ele><time>2026-05-03T13:41:04.001Z</time></trkpt><trkpt lat="42.14955159177995" lon="9.176514457492281"><ele>1045.0</ele><time>2026-05-03T13:41:05.001Z</time></trkpt><trkpt lat="42.149569325683096" lon="9.176332808096491"><ele>1045.0</ele><time>2026-05-03T13:41:06.001Z</time></trkpt><trkpt lat="42.14956694799786" lon="9.176160860016536"><ele>1045.0</ele><time>2026-05-03T13:41:07.001Z</time></trkpt><trkpt lat="42.149535335951086" lon="9.175984191682023"><ele>1045.0</ele><time>2026-05-03T13:41:08.001Z</time></trkpt><trkpt lat="42.14947903352247" lon="9.175828736242693"><ele>1045.0</ele><time>2026-05-03T13:41:09.001Z</time></trkpt><trkpt lat="42.14940960154986" lon="9.175684617078149"><ele>1045.0</ele><time>2026-05-03T13:41:10.001Z</time></trkpt><trkpt lat="42.14937751399385" lon="9.175533180561203"><ele>1045.0</ele><time>2026-05-03T13:41:11.001Z</time></trkpt><trkpt lat="42.14935831259122" lon="9.175406673874225"><ele>1045.0</ele><time>2026-05-03T13:41:12.001Z</time></trkpt><trkpt lat="42.149420198475354" lon="9.175287865881073"><ele>1045.0</ele><time>2026-05-03T13:41:13.001Z</time></trkpt><trkpt lat="42.14953427174661" lon="9.175241070904523"><ele>1045.0</ele><time>2026-05-03T13:41:14.001Z</time></trkpt><trkpt lat="42.1496564870738" lon="9.175200906961999"><ele>1045.0</ele><time>2026-05-03T13:41:15.001Z</time></trkpt><trkpt lat="42.14977743388434" lon="9.175139770918946"><ele>1045.0</ele><time>2026-05-03T13:41:16.001Z</time></trkpt><trkpt lat="42.1498885941405" lon="9.175082618591873"><ele>1045.0</ele><time>2026-05-03T13:41:17.001Z</time></trkpt><trkpt lat="42.14998348513732" lon="9.175012470812026"><ele>1045.0</ele><time>2026-05-03T13:41:18.001Z</time></trkpt><trkpt lat="42.150043458933936" lon="9.174931377028525"><ele>1045.0</ele><time>2026-05-03T13:41:19.001Z</time></trkpt><trkpt lat="42.150078613178096" lon="9.174811394283708"><ele>1040.4</ele><time>2026-05-03T13:41:20.001Z</time></trkpt><trkpt lat="42.150098981362405" lon="9.174697961152235"><ele>1035.8</ele><time>2026-05-03T13:41:21.001Z</time></trkpt><trkpt lat="42.15016136561106" lon="9.174624136931019"><ele>1031.2</ele><time>2026-05-03T13:41:22.001Z</time></trkpt><trkpt lat="42.15024534401707" lon="9.174671067945821"><ele>1026.6</ele><time>2026-05-03T13:41:23.001Z</time></trkpt><trkpt lat="42.1503300623077" lon="9.17476524132443"><ele>1022.0</ele><time>2026-05-03T13:41:24.001Z</time></trkpt><trkpt lat="42.15040297917136" lon="9.17486071577087"><ele>1020.4000000000001</ele><time>2026-05-03T13:41:25.001Z</time></trkpt><trkpt lat="42.15050443897803" lon="9.17493601436977"><ele>1018.8000000000001</ele><time>2026-05-03T13:41:26.001Z</time></trkpt><trkpt lat="42.15060821580913" lon="9.174946754136696"><ele>1017.2</ele><time>2026-05-03T13:41:27.001Z</time></trkpt><trkpt lat="42.150714895434525" lon="9.174910719621007"><ele>1015.6</ele><time>2026-05-03T13:41:28.001Z</time></trkpt><trkpt lat="42.15076703544601" lon="9.17482516045717"><ele>1014.0</ele><time>2026-05-03T13:41:29.001Z</time></trkpt><trkpt lat="42.15077989565714" lon="9.174704896500431"><ele>1010.0</ele><time>2026-05-03T13:41:30.001Z</time></trkpt><trkpt lat="42.15079930841921" lon="9.17459203581135"><ele>1006.0000000000001</ele><time>2026-05-03T13:41:31.001Z</time></trkpt><trkpt lat="42.150831933332135" lon="9.174476200096906"><ele>1002.0000000000001</ele><time>2026-05-03T13:41:32.001Z</time></trkpt><trkpt lat="42.150895310568224" lon="9.174381236468932"><ele>998.0</ele><time>2026-05-03T13:41:33.001Z</time></trkpt><trkpt lat="42.150963222709365" lon="9.174295312707018"><ele>994.0</ele><time>2026-05-03T13:41:34.001Z</time></trkpt><trkpt lat="42.15098100437995" lon="9.174170715671686"><ele>994.0</ele><time>2026-05-03T13:41:35.001Z</time></trkpt><trkpt lat="42.15093910058301" lon="9.174039650956919"><ele>994.0</ele><time>2026-05-03T13:41:36Z</time></trkpt><trkpt lat="42.150850779130565" lon="9.173938163060257"><ele>994.0</ele><time>2026-05-03T13:41:37Z</time></trkpt><trkpt lat="42.15076380175745" lon="9.173818542298148"><ele>994.0</ele><time>2026-05-03T13:41:38Z</time></trkpt><trkpt lat="42.150682175267974" lon="9.173671822898692"><ele>1000.75</ele><time>2026-05-03T13:41:39Z</time></trkpt><trkpt lat="42.15058030096933" lon="9.173527264941804"><ele>1007.5</ele><time>2026-05-03T13:41:40Z</time></trkpt><trkpt lat="42.15047550605485" lon="9.173392529555297"><ele>1014.25</ele><time>2026-05-03T13:41:41Z</time></trkpt><trkpt lat="42.15040191581883" lon="9.173240222040345"><ele>1021.0</ele><time>2026-05-03T13:41:42Z</time></trkpt><trkpt lat="42.15036828856307" lon="9.173063655633875"><ele>1021.75</ele><time>2026-05-03T13:41:43Z</time></trkpt><trkpt lat="42.15034264104845" lon="9.172883770418803"><ele>1022.5</ele><time>2026-05-03T13:41:44Z</time></trkpt><trkpt lat="42.15032773553946" lon="9.172700887337374"><ele>1023.25</ele><time>2026-05-03T13:41:45Z</time></trkpt><trkpt lat="42.15035478755295" lon="9.172523184091641"><ele>1024.0</ele><time>2026-05-03T13:41:46Z</time></trkpt><trkpt lat="42.15039941477832" lon="9.172355936621178"><ele>1027.25</ele><time>2026-05-03T13:41:47Z</time></trkpt><trkpt lat="42.15043790689383" lon="9.172193577176442"><ele>1030.5</ele><time>2026-05-03T13:41:48Z</time></trkpt><trkpt lat="42.150507818703105" lon="9.17205702981739"><ele>1033.75</ele><time>2026-05-03T13:41:49Z</time></trkpt><trkpt lat="42.150610540838414" lon="9.171961288816716"><ele>1037.0</ele><time>2026-05-03T13:41:50Z</time></trkpt><trkpt lat="42.15073321712476" lon="9.171877489301304"><ele>1029.75</ele><time>2026-05-03T13:41:51Z</time></trkpt><trkpt lat="42.15085184139357" lon="9.171791107936949"><ele>1022.5</ele><time>2026-05-03T13:41:52Z</time></trkpt><trkpt lat="42.15095446458132" lon="9.17170286118247"><ele>1015.25</ele><time>2026-05-03T13:41:53Z</time></trkpt><trkpt lat="42.15104414305755" lon="9.171600296566266"><ele>1008.0</ele><time>2026-05-03T13:41:54Z</time></trkpt><trkpt lat="42.151110351260726" lon="9.17147215500096"><ele>1008.0</ele><time>2026-05-03T13:41:55Z</time></trkpt><trkpt lat="42.151144227726824" lon="9.171310574526336"><ele>1008.0</ele><time>2026-05-03T13:41:56Z</time></trkpt><trkpt lat="42.151190224035766" lon="9.171137694269692"><ele>1008.0</ele><time>2026-05-03T13:41:57Z</time></trkpt><trkpt lat="42.15126417549749" lon="9.170987307655516"><ele>1008.0</ele><time>2026-05-03T13:41:58Z</time></trkpt><trkpt lat="42.151332304002786" lon="9.17085766618783"><ele>1008.0</ele><time>2026-05-03T13:41:59Z</time></trkpt><trkpt lat="42.15140668669896" lon="9.170745636877314"><ele>1008.0</ele><time>2026-05-03T13:42:00Z</time></trkpt><trkpt lat="42.15150524771256" lon="9.170660009241267"><ele>1008.0</ele><time>2026-05-03T13:42:01Z</time></trkpt><trkpt lat="42.15163460284356" lon="9.170617663707569"><ele>1008.0</ele><time>2026-05-03T13:42:02Z</time></trkpt><trkpt lat="42.15177285987284" lon="9.170620420145793"><ele>1006.0</ele><time>2026-05-03T13:42:03Z</time></trkpt><trkpt lat="42.1519106225154" lon="9.170643093313476"><ele>1004.0</ele><time>2026-05-03T13:42:04Z</time></trkpt><trkpt lat="42.152049315311515" lon="9.170657491246272"><ele>1002.0</ele><time>2026-05-03T13:42:05Z</time></trkpt><trkpt lat="42.15218271226339" lon="9.170633880574858"><ele>1000.0</ele><time>2026-05-03T13:42:06Z</time></trkpt><trkpt lat="42.15231077199206" lon="9.170569861050556"><ele>994.5</ele><time>2026-05-03T13:42:07Z</time></trkpt><trkpt lat="42.15243002719682" lon="9.170455651911439"><ele>989.0</ele><time>2026-05-03T13:42:08Z</time></trkpt><trkpt lat="42.15251547383864" lon="9.17030277421877"><ele>983.5</ele><time>2026-05-03T13:42:09Z</time></trkpt><trkpt lat="42.152584592963834" lon="9.170146125959313"><ele>978.0</ele><time>2026-05-03T13:42:10Z</time></trkpt><trkpt lat="42.15267083719121" lon="9.170054554879398"><ele>978.0</ele><time>2026-05-03T13:42:11Z</time></trkpt><trkpt lat="42.15276648395069" lon="9.170014909032384"><ele>978.0</ele><time>2026-05-03T13:42:12Z</time></trkpt><trkpt lat="42.152867828666636" lon="9.170045691181285"><ele>978.0</ele><time>2026-05-03T13:42:13Z</time></trkpt><trkpt lat="42.1529934568044" lon="9.170094311538797"><ele>978.0</ele><time>2026-05-03T13:42:14Z</time></trkpt><trkpt lat="42.15311439988635" lon="9.170162438210912"><ele>974.5</ele><time>2026-05-03T13:42:15Z</time></trkpt><trkpt lat="42.15323975144889" lon="9.170199593619916"><ele>971.0</ele><time>2026-05-03T13:42:16Z</time></trkpt><trkpt lat="42.15337300925139" lon="9.170145942781312"><ele>967.5</ele><time>2026-05-03T13:42:17Z</time></trkpt><trkpt lat="42.15350724295811" lon="9.170115946807005"><ele>964.0</ele><time>2026-05-03T13:42:18Z</time></trkpt><trkpt lat="42.15365448456803" lon="9.170120014587647"><ele>964.0</ele><time>2026-05-03T13:42:19Z</time></trkpt><trkpt lat="42.15379553050536" lon="9.170152127901796"><ele>964.0</ele><time>2026-05-03T13:42:20Z</time></trkpt><trkpt lat="42.153927123570774" lon="9.1701715299595"><ele>964.0</ele><time>2026-05-03T13:42:21Z</time></trkpt><trkpt lat="42.15405181229163" lon="9.170149999769441"><ele>964.0</ele><time>2026-05-03T13:42:22Z</time></trkpt><trkpt lat="42.15417046597855" lon="9.1700851279952"><ele>966.5</ele><time>2026-05-03T13:42:23Z</time></trkpt><trkpt lat="42.154292731689864" lon="9.170010054763619"><ele>969.0</ele><time>2026-05-03T13:42:24Z</time></trkpt><trkpt lat="42.15439576797081" lon="9.169904477947748"><ele>971.5</ele><time>2026-05-03T13:42:25Z</time></trkpt><trkpt lat="42.15447955700669" lon="9.169770711700497"><ele>974.0</ele><time>2026-05-03T13:42:26Z</time></trkpt><trkpt lat="42.154547420519286" lon="9.169628985517136"><ele>974.0</ele><time>2026-05-03T13:42:27Z</time></trkpt><trkpt lat="42.154615192782494" lon="9.1695029637652"><ele>974.0</ele><time>2026-05-03T13:42:28Z</time></trkpt><trkpt lat="42.15472331541925" lon="9.169452950282833"><ele>974.0</ele><time>2026-05-03T13:42:29Z</time></trkpt><trkpt lat="42.15485160241796" lon="9.169471477298526"><ele>974.0</ele><time>2026-05-03T13:42:30Z</time></trkpt><trkpt lat="42.15498569337771" lon="9.169526352977798"><ele>970.0</ele><time>2026-05-03T13:42:31Z</time></trkpt><trkpt lat="42.15512393232883" lon="9.16959502839992"><ele>966.0</ele><time>2026-05-03T13:42:32.001Z</time></trkpt><trkpt lat="42.15525992727728" lon="9.169649203986122"><ele>962.0</ele><time>2026-05-03T13:42:33.001Z</time></trkpt><trkpt lat="42.15539540778441" lon="9.169680705781477"><ele>958.0</ele><time>2026-05-03T13:42:34.001Z</time></trkpt><trkpt lat="42.155529049584665" lon="9.169677197137153"><ele>958.0</ele><time>2026-05-03T13:42:35.001Z</time></trkpt><trkpt lat="42.155659845746214" lon="9.169663766366382"><ele>958.0</ele><time>2026-05-03T13:42:36.001Z</time></trkpt><trkpt lat="42.15578766385353" lon="9.169655108006353"><ele>958.0</ele><time>2026-05-03T13:42:37.001Z</time></trkpt><trkpt lat="42.15591303367141" lon="9.169644543355233"><ele>958.0</ele><time>2026-05-03T13:42:38.001Z</time></trkpt><trkpt lat="42.15603067413573" lon="9.16958506967628"><ele>955.25</ele><time>2026-05-03T13:42:39.001Z</time></trkpt><trkpt lat="42.1561567788885" lon="9.169511818253435"><ele>952.5</ele><time>2026-05-03T13:42:40.001Z</time></trkpt><trkpt lat="42.15626981846589" lon="9.169397886740832"><ele>949.75</ele><time>2026-05-03T13:42:41.001Z</time></trkpt><trkpt lat="42.15640176441406" lon="9.169342402988159"><ele>947.0</ele><time>2026-05-03T13:42:42.001Z</time></trkpt><trkpt lat="42.15653343225592" lon="9.169324693989385"><ele>943.75</ele><time>2026-05-03T13:42:43.001Z</time></trkpt><trkpt lat="42.156658820240985" lon="9.169336384596969"><ele>940.5</ele><time>2026-05-03T13:42:44.001Z</time></trkpt><trkpt lat="42.15679315886689" lon="9.169367979870067"><ele>937.25</ele><time>2026-05-03T13:42:45.001Z</time></trkpt><trkpt lat="42.15692469558276" lon="9.16930547296766"><ele>934.0</ele><time>2026-05-03T13:42:46.001Z</time></trkpt><trkpt lat="42.15706006274551" lon="9.169237056729028"><ele>934.0</ele><time>2026-05-03T13:42:47.001Z</time></trkpt><trkpt lat="42.15719642546017" lon="9.16915661361677"><ele>934.0</ele><time>2026-05-03T13:42:48.001Z</time></trkpt><trkpt lat="42.1573229215188" lon="9.169070989526544"><ele>934.0</ele><time>2026-05-03T13:42:49.001Z</time></trkpt><trkpt lat="42.157440476522005" lon="9.168973511974746"><ele>934.0</ele><time>2026-05-03T13:42:50.001Z</time></trkpt><trkpt lat="42.157503491536815" lon="9.168799830809636"><ele>934.75</ele><time>2026-05-03T13:42:51.001Z</time></trkpt><trkpt lat="42.1575637323574" lon="9.168644086287534"><ele>935.5</ele><time>2026-05-03T13:42:52.001Z</time></trkpt><trkpt lat="42.157647526456174" lon="9.168521423058495"><ele>936.25</ele><time>2026-05-03T13:42:53.001Z</time></trkpt><trkpt lat="42.157765229368316" lon="9.168470716060387"><ele>937.0</ele><time>2026-05-03T13:42:54.001Z</time></trkpt><trkpt lat="42.15787998093527" lon="9.16841260258126"><ele>937.0</ele><time>2026-05-03T13:42:55.001Z</time></trkpt><trkpt lat="42.15798043205587" lon="9.168310050994439"><ele>937.0</ele><time>2026-05-03T13:42:56.001Z</time></trkpt><trkpt lat="42.158074152421" lon="9.16818591315519"><ele>937.0</ele><time>2026-05-03T13:42:57.001Z</time></trkpt><trkpt lat="42.15827120046502" lon="9.167930077323726"><ele>935.75</ele><time>2026-05-03T13:42:59.001Z</time></trkpt><trkpt lat="42.15840169947933" lon="9.167858120449411"><ele>934.5</ele><time>2026-05-03T13:43:00.001Z</time></trkpt><trkpt lat="42.15854501800245" lon="9.16785628902057"><ele>933.25</ele><time>2026-05-03T13:43:01.001Z</time></trkpt><trkpt lat="42.1586886921415" lon="9.167826134032666"><ele>932.0</ele><time>2026-05-03T13:43:02.001Z</time></trkpt><trkpt lat="42.15883388732417" lon="9.16783527488775"><ele>932.0</ele><time>2026-05-03T13:43:03.001Z</time></trkpt><trkpt lat="42.15898555829244" lon="9.16788471743655"><ele>932.0</ele><time>2026-05-03T13:43:04.001Z</time></trkpt><trkpt lat="42.159144764606125" lon="9.167960694941168"><ele>932.0</ele><time>2026-05-03T13:43:05.001Z</time></trkpt><trkpt lat="42.15931446887589" lon="9.167972615276213"><ele>931.6666666666667</ele><time>2026-05-03T13:43:06.001Z</time></trkpt><trkpt lat="42.159471863178254" lon="9.168030797704606"><ele>931.3333333333333</ele><time>2026-05-03T13:43:07.001Z</time></trkpt><trkpt lat="42.15960403510057" lon="9.168139293048778"><ele>931.0</ele><time>2026-05-03T13:43:08.001Z</time></trkpt><trkpt lat="42.159705874301615" lon="9.168282885834149"><ele>925.25</ele><time>2026-05-03T13:43:09.001Z</time></trkpt><trkpt lat="42.15978390326212" lon="9.168433447527143"><ele>919.5</ele><time>2026-05-03T13:43:10.001Z</time></trkpt><trkpt lat="42.15986673142311" lon="9.168525874308562"><ele>913.75</ele><time>2026-05-03T13:43:11.001Z</time></trkpt><trkpt lat="42.15996665602633" lon="9.168539713419069"><ele>908.0</ele><time>2026-05-03T13:43:12.001Z</time></trkpt><trkpt lat="42.16008372849598" lon="9.168491475532004"><ele>908.0</ele><time>2026-05-03T13:43:13.001Z</time></trkpt><trkpt lat="42.16022267535762" lon="9.168438709032676"><ele>908.0</ele><time>2026-05-03T13:43:14.001Z</time></trkpt><trkpt lat="42.160380420014036" lon="9.168453804798697"><ele>908.0</ele><time>2026-05-03T13:43:15.001Z</time></trkpt><trkpt lat="42.16050940023604" lon="9.16856375270389"><ele>908.0</ele><time>2026-05-03T13:43:16.001Z</time></trkpt><trkpt lat="42.160636391790455" lon="9.168652183961331"><ele>908.0</ele><time>2026-05-03T13:43:17.001Z</time></trkpt><trkpt lat="42.16074208999047" lon="9.1687534610342"><ele>908.0</ele><time>2026-05-03T13:43:18.001Z</time></trkpt><trkpt lat="42.160800597613246" lon="9.1689131599215"><ele>908.0</ele><time>2026-05-03T13:43:19.001Z</time></trkpt><trkpt lat="42.16078967975154" lon="9.169067733178332"><ele>905.0</ele><time>2026-05-03T13:43:20.001Z</time></trkpt><trkpt lat="42.160750351411004" lon="9.169210503204813"><ele>902.0</ele><time>2026-05-03T13:43:21.001Z</time></trkpt><trkpt lat="42.16074280409681" lon="9.169347278058494"><ele>899.0</ele><time>2026-05-03T13:43:22.001Z</time></trkpt><trkpt lat="42.160793676836164" lon="9.16947236227552"><ele>896.0</ele><time>2026-05-03T13:43:23.001Z</time></trkpt><trkpt lat="42.16089091068823" lon="9.169576144827"><ele>893.0</ele><time>2026-05-03T13:43:24.001Z</time></trkpt><trkpt lat="42.160993838514905" lon="9.16968848279508"><ele>893.0</ele><time>2026-05-03T13:43:25.001Z</time></trkpt><trkpt lat="42.16109693494236" lon="9.16980911374482"><ele>893.0</ele><time>2026-05-03T13:43:26.001Z</time></trkpt><trkpt lat="42.16120274770232" lon="9.169932090455928"><ele>893.0</ele><time>2026-05-03T13:43:27.001Z</time></trkpt><trkpt lat="42.161313085804665" lon="9.170053352840466"><ele>893.0</ele><time>2026-05-03T13:43:28.001Z</time></trkpt><trkpt lat="42.16142520176876" lon="9.170178572975821"><ele>893.75</ele><time>2026-05-03T13:43:29.001Z</time></trkpt><trkpt lat="42.16153730153816" lon="9.170300854232611"><ele>894.5</ele><time>2026-05-03T13:43:30.001Z</time></trkpt><trkpt lat="42.161654936253136" lon="9.17039336972141"><ele>895.25</ele><time>2026-05-03T13:43:31.001Z</time></trkpt><trkpt lat="42.161798649442204" lon="9.170448537361553"><ele>896.0</ele><time>2026-05-03T13:43:32.001Z</time></trkpt><trkpt lat="42.1619553977712" lon="9.170490161027383"><ele>896.0</ele><time>2026-05-03T13:43:33.001Z</time></trkpt><trkpt lat="42.16211502966585" lon="9.170516675741043"><ele>896.0</ele><time>2026-05-03T13:43:34.001Z</time></trkpt><trkpt lat="42.16226918209913" lon="9.170497734378433"><ele>896.0</ele><time>2026-05-03T13:43:35.001Z</time></trkpt><trkpt lat="42.162424945206794" lon="9.170468414432158"><ele>896.0</ele><time>2026-05-03T13:43:36.001Z</time></trkpt><trkpt lat="42.16258052877248" lon="9.170386494464127"><ele>896.0</ele><time>2026-05-03T13:43:37.001Z</time></trkpt><trkpt lat="42.16274628784227" lon="9.17034842519012"><ele>896.0</ele><time>2026-05-03T13:43:38.001Z</time></trkpt><trkpt lat="42.162909546514946" lon="9.170348939139666"><ele>896.0</ele><time>2026-05-03T13:43:39.001Z</time></trkpt><trkpt lat="42.16305866877073" lon="9.17034119500601"><ele>896.0</ele><time>2026-05-03T13:43:40.001Z</time></trkpt><trkpt lat="42.163200873381705" lon="9.170275924088996"><ele>896.0</ele><time>2026-05-03T13:43:41.001Z</time></trkpt><trkpt lat="42.163336034000764" lon="9.170194515396437"><ele>896.0</ele><time>2026-05-03T13:43:42Z</time></trkpt><trkpt lat="42.16346797600686" lon="9.170159280052522"><ele>893.25</ele><time>2026-05-03T13:43:43Z</time></trkpt><trkpt lat="42.16358246937333" lon="9.170221744201891"><ele>890.5</ele><time>2026-05-03T13:43:44Z</time></trkpt><trkpt lat="42.16371162728808" lon="9.170290237675218"><ele>887.75</ele><time>2026-05-03T13:43:45Z</time></trkpt><trkpt lat="42.163830057671056" lon="9.17039392052481"><ele>885.0</ele><time>2026-05-03T13:43:46Z</time></trkpt><trkpt lat="42.163958103327786" lon="9.17050015271228"><ele>884.6666666666667</ele><time>2026-05-03T13:43:47Z</time></trkpt><trkpt lat="42.16409131096719" lon="9.170606395170992"><ele>884.3333333333334</ele><time>2026-05-03T13:43:48Z</time></trkpt><trkpt lat="42.164241187561714" lon="9.170707057447194"><ele>884.0</ele><time>2026-05-03T13:43:49Z</time></trkpt><trkpt lat="42.16440645930054" lon="9.170776164148757"><ele>877.6666666666667</ele><time>2026-05-03T13:43:50Z</time></trkpt><trkpt lat="42.16457756847013" lon="9.170828988551001"><ele>871.3333333333333</ele><time>2026-05-03T13:43:51Z</time></trkpt><trkpt lat="42.16473863922409" lon="9.170880206304448"><ele>865.0</ele><time>2026-05-03T13:43:52Z</time></trkpt><trkpt lat="42.16488890397175" lon="9.170924065346101"><ele>865.0</ele><time>2026-05-03T13:43:53Z</time></trkpt><trkpt lat="42.165027714208684" lon="9.170978907057194"><ele>865.0</ele><time>2026-05-03T13:43:54Z</time></trkpt><trkpt lat="42.16517049500831" lon="9.170969088601135"><ele>865.0</ele><time>2026-05-03T13:43:55Z</time></trkpt><trkpt lat="42.16530505647466" lon="9.170986719317849"><ele>865.0</ele><time>2026-05-03T13:43:56Z</time></trkpt><trkpt lat="42.16542914163106" lon="9.171048187176785"><ele>865.0</ele><time>2026-05-03T13:43:57Z</time></trkpt><trkpt lat="42.16552508080078" lon="9.171175737671994"><ele>865.0</ele><time>2026-05-03T13:43:58Z</time></trkpt><trkpt lat="42.16562697238807" lon="9.171290863620138"><ele>865.0</ele><time>2026-05-03T13:43:59Z</time></trkpt><trkpt lat="42.16575563698587" lon="9.171363145827986"><ele>865.0</ele><time>2026-05-03T13:44:00Z</time></trkpt><trkpt lat="42.16590513479339" lon="9.171405906571696"><ele>867.6666666666666</ele><time>2026-05-03T13:44:01Z</time></trkpt><trkpt lat="42.16606496896244" lon="9.171430691103781"><ele>870.3333333333333</ele><time>2026-05-03T13:44:02Z</time></trkpt><trkpt lat="42.16622578063249" lon="9.171435631863543"><ele>873.0</ele><time>2026-05-03T13:44:03Z</time></trkpt><trkpt lat="42.166376068107965" lon="9.17141567673182"><ele>873.0</ele><time>2026-05-03T13:44:04Z</time></trkpt><trkpt lat="42.16652655235343" lon="9.171379139600809"><ele>873.0</ele><time>2026-05-03T13:44:05Z</time></trkpt><trkpt lat="42.166656702291554" lon="9.171340429296555"><ele>873.0</ele><time>2026-05-03T13:44:06Z</time></trkpt><trkpt lat="42.16675337743227" lon="9.17125391082878"><ele>873.0</ele><time>2026-05-03T13:44:07Z</time></trkpt><trkpt lat="42.16684109192491" lon="9.171140808113147"><ele>871.25</ele><time>2026-05-03T13:44:08Z</time></trkpt><trkpt lat="42.16694409650405" lon="9.171081070780849"><ele>869.5</ele><time>2026-05-03T13:44:09Z</time></trkpt><trkpt lat="42.16705659793608" lon="9.171096162275921"><ele>867.75</ele><time>2026-05-03T13:44:10Z</time></trkpt><trkpt lat="42.167160234376" lon="9.171176448900054"><ele>866.0</ele><time>2026-05-03T13:44:11Z</time></trkpt><trkpt lat="42.167270147901405" lon="9.171264709543761"><ele>863.25</ele><time>2026-05-03T13:44:12Z</time></trkpt><trkpt lat="42.16739464119805" lon="9.171339529372924"><ele>860.5</ele><time>2026-05-03T13:44:13Z</time></trkpt><trkpt lat="42.16752983744795" lon="9.171416213610602"><ele>857.75</ele><time>2026-05-03T13:44:14Z</time></trkpt><trkpt lat="42.16765811931003" lon="9.171484209497597"><ele>855.0</ele><time>2026-05-03T13:44:15Z</time></trkpt><trkpt lat="42.16776865625265" lon="9.171539481533932"><ele>855.0</ele><time>2026-05-03T13:44:16Z</time></trkpt><trkpt lat="42.16787263297899" lon="9.171578262282242"><ele>855.0</ele><time>2026-05-03T13:44:17Z</time></trkpt><trkpt lat="42.1679559002259" lon="9.171567772030247"><ele>855.0</ele><time>2026-05-03T13:44:18Z</time></trkpt><trkpt lat="42.1680174534785" lon="9.171500261511726"><ele>855.0</ele><time>2026-05-03T13:44:19Z</time></trkpt><trkpt lat="42.168034149651504" lon="9.171390798699175"><ele>855.0</ele><time>2026-05-03T13:44:20Z</time></trkpt><trkpt lat="42.16803063067255" lon="9.171259362904824"><ele>855.0</ele><time>2026-05-03T13:44:21Z</time></trkpt><trkpt lat="42.16804087220712" lon="9.171113909572389"><ele>855.0</ele><time>2026-05-03T13:44:22Z</time></trkpt><trkpt lat="42.16803628007365" lon="9.170953872591559"><ele>855.0</ele><time>2026-05-03T13:44:23Z</time></trkpt><trkpt lat="42.16803142999515" lon="9.170782429740425"><ele>855.0</ele><time>2026-05-03T13:44:24Z</time></trkpt><trkpt lat="42.16803104439369" lon="9.170621737634486"><ele>859.75</ele><time>2026-05-03T13:44:25Z</time></trkpt><trkpt lat="42.16808631775617" lon="9.170484842489662"><ele>864.5</ele><time>2026-05-03T13:44:26Z</time></trkpt><trkpt lat="42.16816667151534" lon="9.170375671557156"><ele>869.25</ele><time>2026-05-03T13:44:27Z</time></trkpt><trkpt lat="42.16824870793636" lon="9.170265325765762"><ele>874.0</ele><time>2026-05-03T13:44:28Z</time></trkpt><trkpt lat="42.16833271064429" lon="9.170065029068116"><ele>864.5</ele><time>2026-05-03T13:44:29Z</time></trkpt><trkpt lat="42.168395843759136" lon="9.169920532274148"><ele>855.0</ele><time>2026-05-03T13:44:30Z</time></trkpt><trkpt lat="42.16842095347045" lon="9.169745441492369"><ele>845.5</ele><time>2026-05-03T13:44:31Z</time></trkpt><trkpt lat="42.16843558189438" lon="9.169547891857253"><ele>836.0</ele><time>2026-05-03T13:44:32Z</time></trkpt><trkpt lat="42.168469212915525" lon="9.16934877457191"><ele>836.0</ele><time>2026-05-03T13:44:33Z</time></trkpt><trkpt lat="42.16851858388143" lon="9.169161653111551"><ele>836.0</ele><time>2026-05-03T13:44:34Z</time></trkpt><trkpt lat="42.16855053036897" lon="9.168970558150242"><ele>836.0</ele><time>2026-05-03T13:44:35Z</time></trkpt><trkpt lat="42.1685541105816" lon="9.168783013714455"><ele>836.0</ele><time>2026-05-03T13:44:36Z</time></trkpt><trkpt lat="42.168545968221274" lon="9.168592115094167"><ele>835.25</ele><time>2026-05-03T13:44:37Z</time></trkpt><trkpt lat="42.16849565433597" lon="9.168415761973375"><ele>834.5</ele><time>2026-05-03T13:44:38Z</time></trkpt><trkpt lat="42.16844799504347" lon="9.168265684554624"><ele>833.75</ele><time>2026-05-03T13:44:39Z</time></trkpt><trkpt lat="42.168461327041804" lon="9.168110733244589"><ele>833.0</ele><time>2026-05-03T13:44:40Z</time></trkpt><trkpt lat="42.168512777363304" lon="9.167981258732933"><ele>835.25</ele><time>2026-05-03T13:44:41Z</time></trkpt><trkpt lat="42.16859307026585" lon="9.1679027825891"><ele>837.5</ele><time>2026-05-03T13:44:42Z</time></trkpt><trkpt lat="42.16869128804357" lon="9.16780956279739"><ele>839.75</ele><time>2026-05-03T13:44:43Z</time></trkpt><trkpt lat="42.168804541654836" lon="9.167695565875373"><ele>842.0</ele><time>2026-05-03T13:44:44Z</time></trkpt><trkpt lat="42.16890843140901" lon="9.167559063450247"><ele>832.6666666666667</ele><time>2026-05-03T13:44:45Z</time></trkpt><trkpt lat="42.1690259731909" lon="9.16742556459065"><ele>823.3333333333333</ele><time>2026-05-03T13:44:46Z</time></trkpt><trkpt lat="42.16913381036112" lon="9.167251099942126"><ele>814.0</ele><time>2026-05-03T13:44:47Z</time></trkpt><trkpt lat="42.169230523243684" lon="9.167047699502108"><ele>814.0</ele><time>2026-05-03T13:44:48Z</time></trkpt><trkpt lat="42.16931878971485" lon="9.166858771049975"><ele>814.0</ele><time>2026-05-03T13:44:49Z</time></trkpt><trkpt lat="42.16940334546218" lon="9.166682529154507"><ele>814.0</ele><time>2026-05-03T13:44:50Z</time></trkpt><trkpt lat="42.16947386130695" lon="9.166529222263266"><ele>813.4999999999999</ele><time>2026-05-03T13:44:51Z</time></trkpt><trkpt lat="42.169525301555844" lon="9.166429336619217"><ele>813.0</ele><time>2026-05-03T13:44:52Z</time></trkpt><trkpt lat="42.16956157726062" lon="9.166340925794495"><ele>812.5</ele><time>2026-05-03T13:44:53Z</time></trkpt><trkpt lat="42.16960674131544" lon="9.16621591995698"><ele>812.0</ele><time>2026-05-03T13:44:55Z</time></trkpt><trkpt lat="42.16963039608192" lon="9.166113024352525"><ele>811.4999999999999</ele><time>2026-05-03T13:44:57.001Z</time></trkpt><trkpt lat="42.16959299549728" lon="9.166006994878922"><ele>811.0</ele><time>2026-05-03T13:45:00.001Z</time></trkpt><trkpt lat="42.169566234087526" lon="9.16589581340055"><ele>810.9999999999999</ele><time>2026-05-03T13:45:03.001Z</time></trkpt><trkpt lat="42.169568118693" lon="9.16578920019322"><ele>811.0</ele><time>2026-05-03T13:45:05.001Z</time></trkpt><trkpt lat="42.16957695030511" lon="9.165686467598121"><ele>811.0</ele><time>2026-05-03T13:45:42.001Z</time></trkpt><trkpt lat="42.16962756438778" lon="9.165596102532845"><ele>811.0</ele><time>2026-05-03T13:45:44.001Z</time></trkpt><trkpt lat="42.169695826877664" lon="9.165553942775217"><ele>810.9999999999999</ele><time>2026-05-03T13:45:45.001Z</time></trkpt><trkpt lat="42.16976688340864" lon="9.16552302242624"><ele>811.0</ele><time>2026-05-03T13:45:46.001Z</time></trkpt><trkpt lat="42.169840254208935" lon="9.165486424182149"><ele>808.8</ele><time>2026-05-03T13:45:47.001Z</time></trkpt><trkpt lat="42.16991077600995" lon="9.16543595118373"><ele>806.5999999999999</ele><time>2026-05-03T13:45:47.998Z</time></trkpt><trkpt lat="42.16999362213232" lon="9.165361501691555"><ele>804.4</ele><time>2026-05-03T13:45:48.998Z</time></trkpt><trkpt lat="42.17008190183512" lon="9.165266799852878"><ele>802.2</ele><time>2026-05-03T13:45:49.998Z</time></trkpt><trkpt lat="42.17016274729066" lon="9.16515741117513"><ele>800.0</ele><time>2026-05-03T13:45:50.998Z</time></trkpt><trkpt lat="42.17023387316107" lon="9.165020174680834"><ele>797.25</ele><time>2026-05-03T13:45:51.998Z</time></trkpt><trkpt lat="42.170296438170304" lon="9.164859820272945"><ele>794.5</ele><time>2026-05-03T13:45:52.998Z</time></trkpt><trkpt lat="42.17035516034558" lon="9.164682915013428"><ele>791.75</ele><time>2026-05-03T13:45:53.998Z</time></trkpt><trkpt lat="42.17041315752488" lon="9.164490303314402"><ele>789.0</ele><time>2026-05-03T13:45:54.998Z</time></trkpt><trkpt lat="42.17046822055525" lon="9.16430259856219"><ele>789.0</ele><time>2026-05-03T13:45:55.998Z</time></trkpt><trkpt lat="42.17053095452968" lon="9.164115805813523"><ele>789.0</ele><time>2026-05-03T13:45:56.998Z</time></trkpt><trkpt lat="42.170608590305434" lon="9.163927576147872"><ele>789.0</ele><time>2026-05-03T13:45:57.998Z</time></trkpt><trkpt lat="42.17070516234259" lon="9.163742181539517"><ele>790.3333333333333</ele><time>2026-05-03T13:45:58.999Z</time></trkpt><trkpt lat="42.17081562079925" lon="9.163570820900734"><ele>791.6666666666666</ele><time>2026-05-03T13:45:59.999Z</time></trkpt><trkpt lat="42.170949060202716" lon="9.163439570252986"><ele>793.0</ele><time>2026-05-03T13:46:00.999Z</time></trkpt><trkpt lat="42.171100809159924" lon="9.163351460021202"><ele>793.0</ele><time>2026-05-03T13:46:01.999Z</time></trkpt><trkpt lat="42.17126238286151" lon="9.163282238771837"><ele>793.0</ele><time>2026-05-03T13:46:02.999Z</time></trkpt><trkpt lat="42.171423244668254" lon="9.163224471692262"><ele>793.0</ele><time>2026-05-03T13:46:03.999Z</time></trkpt><trkpt lat="42.17159310566586" lon="9.163144853248154"><ele>787.0</ele><time>2026-05-03T13:46:04.999Z</time></trkpt><trkpt lat="42.1717678834831" lon="9.163057401422614"><ele>781.0</ele><time>2026-05-03T13:46:05.999Z</time></trkpt><trkpt lat="42.171950190707555" lon="9.162964874012953"><ele>775.0</ele><time>2026-05-03T13:46:06.999Z</time></trkpt><trkpt lat="42.172134295734494" lon="9.162871373410015"><ele>775.0</ele><time>2026-05-03T13:46:07.999Z</time></trkpt><trkpt lat="42.17232329844736" lon="9.162787284843372"><ele>775.0</ele><time>2026-05-03T13:46:08.999Z</time></trkpt><trkpt lat="42.17252101182335" lon="9.162718438528442"><ele>775.0</ele><time>2026-05-03T13:46:09.999Z</time></trkpt><trkpt lat="42.172721795487874" lon="9.162675301481974"><ele>775.3333333333333</ele><time>2026-05-03T13:46:10.999Z</time></trkpt><trkpt lat="42.17292472656208" lon="9.16264440178552"><ele>775.6666666666667</ele><time>2026-05-03T13:46:11.999Z</time></trkpt><trkpt lat="42.17311932743039" lon="9.162617971471125"><ele>776.0</ele><time>2026-05-03T13:46:12.999Z</time></trkpt><trkpt lat="42.17330144117107" lon="9.162590303119858"><ele>774.6666666666667</ele><time>2026-05-03T13:46:13.999Z</time></trkpt><trkpt lat="42.17347280722284" lon="9.162579657776105"><ele>773.3333333333333</ele><time>2026-05-03T13:46:14.999Z</time></trkpt><trkpt lat="42.17364263753029" lon="9.162599721102387"><ele>772.0</ele><time>2026-05-03T13:46:15.999Z</time></trkpt><trkpt lat="42.17380323996953" lon="9.162687323855105"><ele>772.0</ele><time>2026-05-03T13:46:16.999Z</time></trkpt><trkpt lat="42.173960909977836" lon="9.162814932668736"><ele>772.0</ele><time>2026-05-03T13:46:17.999Z</time></trkpt><trkpt lat="42.174112655236065" lon="9.16295933945847"><ele>772.0</ele><time>2026-05-03T13:46:18.999Z</time></trkpt><trkpt lat="42.17426305100152" lon="9.163111715106995"><ele>771.0</ele><time>2026-05-03T13:46:19.999Z</time></trkpt><trkpt lat="42.17440481852824" lon="9.163246597813119"><ele>770.0</ele><time>2026-05-03T13:46:20.999Z</time></trkpt><trkpt lat="42.174541450449944" lon="9.163371663685005"><ele>769.0</ele><time>2026-05-03T13:46:21.999Z</time></trkpt><trkpt lat="42.17465956555268" lon="9.163520251489697"><ele>769.0</ele><time>2026-05-03T13:46:22.999Z</time></trkpt><trkpt lat="42.17476079349244" lon="9.163696229662284"><ele>769.0</ele><time>2026-05-03T13:46:23.999Z</time></trkpt><trkpt lat="42.174824974880785" lon="9.163904822202646"><ele>769.0</ele><time>2026-05-03T13:46:24.999Z</time></trkpt><trkpt lat="42.17481994682798" lon="9.164142857406636"><ele>767.6666666666666</ele><time>2026-05-03T13:46:25.999Z</time></trkpt><trkpt lat="42.17478820819808" lon="9.164379125722766"><ele>766.3333333333333</ele><time>2026-05-03T13:46:26.999Z</time></trkpt><trkpt lat="42.174724601228625" lon="9.16462237907238"><ele>765.0</ele><time>2026-05-03T13:46:28Z</time></trkpt><trkpt lat="42.17466763155267" lon="9.164872802754047"><ele>765.0</ele><time>2026-05-03T13:46:29Z</time></trkpt><trkpt lat="42.17459000711149" lon="9.165100649410672"><ele>765.0</ele><time>2026-05-03T13:46:30Z</time></trkpt><trkpt lat="42.17451180828239" lon="9.165316580736436"><ele>765.0</ele><time>2026-05-03T13:46:31Z</time></trkpt><trkpt lat="42.17441475277054" lon="9.165508669856276"><ele>765.0</ele><time>2026-05-03T13:46:32Z</time></trkpt><trkpt lat="42.17426664467146" lon="9.16564477092238"><ele>765.0</ele><time>2026-05-03T13:46:33Z</time></trkpt><trkpt lat="42.174106955164234" lon="9.165727063645347"><ele>765.0</ele><time>2026-05-03T13:46:34Z</time></trkpt><trkpt lat="42.17393027752723" lon="9.16574823323126"><ele>759.3333333333334</ele><time>2026-05-03T13:46:35Z</time></trkpt><trkpt lat="42.17372767879947" lon="9.165758120280948"><ele>753.6666666666667</ele><time>2026-05-03T13:46:36Z</time></trkpt><trkpt lat="42.173531974332114" lon="9.165838324357518"><ele>748.0</ele><time>2026-05-03T13:46:37Z</time></trkpt><trkpt lat="42.17333646725984" lon="9.165929416272366"><ele>752.0</ele><time>2026-05-03T13:46:38Z</time></trkpt><trkpt lat="42.17315047264514" lon="9.166029389423642"><ele>756.0</ele><time>2026-05-03T13:46:39Z</time></trkpt><trkpt lat="42.17297223369835" lon="9.166085704022366"><ele>760.0</ele><time>2026-05-03T13:46:40Z</time></trkpt><trkpt lat="42.17281117183247" lon="9.166073306917303"><ele>760.0</ele><time>2026-05-03T13:46:41Z</time></trkpt><trkpt lat="42.17268560166214" lon="9.1661498060584"><ele>760.0</ele><time>2026-05-03T13:46:42Z</time></trkpt><trkpt lat="42.172586529542066" lon="9.166296897520331"><ele>760.0</ele><time>2026-05-03T13:46:43Z</time></trkpt><trkpt lat="42.17251245001611" lon="9.166503452054405"><ele>761.3333333333334</ele><time>2026-05-03T13:46:44Z</time></trkpt><trkpt lat="42.172434418664146" lon="9.166705508780783"><ele>762.6666666666666</ele><time>2026-05-03T13:46:45Z</time></trkpt><trkpt lat="42.172302147967294" lon="9.166825375777"><ele>764.0</ele><time>2026-05-03T13:46:46Z</time></trkpt><trkpt lat="42.17221143109369" lon="9.166994913106146"><ele>764.0</ele><time>2026-05-03T13:46:47Z</time></trkpt><trkpt lat="42.17216217903466" lon="9.167209187066362"><ele>764.0</ele><time>2026-05-03T13:46:48Z</time></trkpt><trkpt lat="42.172120324900085" lon="9.16745372791123"><ele>764.0</ele><time>2026-05-03T13:46:49Z</time></trkpt><trkpt lat="42.17202123880014" lon="9.167668129925849"><ele>754.6666666666666</ele><time>2026-05-03T13:46:50Z</time></trkpt><trkpt lat="42.17189124344235" lon="9.16785723746321"><ele>745.3333333333334</ele><time>2026-05-03T13:46:51Z</time></trkpt><trkpt lat="42.171740742521884" lon="9.16801073993326"><ele>736.0</ele><time>2026-05-03T13:46:52Z</time></trkpt><trkpt lat="42.17159595336774" lon="9.168146877636904"><ele>730.6666666666667</ele><time>2026-05-03T13:46:53Z</time></trkpt><trkpt lat="42.17144183308567" lon="9.168241530613589"><ele>725.3333333333334</ele><time>2026-05-03T13:46:54Z</time></trkpt><trkpt lat="42.171281021864544" lon="9.168265541166747"><ele>720.0</ele><time>2026-05-03T13:46:55Z</time></trkpt><trkpt lat="42.17110902832946" lon="9.168315206903754"><ele>720.0</ele><time>2026-05-03T13:46:56Z</time></trkpt><trkpt lat="42.1709633803329" lon="9.168412829530439"><ele>720.0</ele><time>2026-05-03T13:46:57Z</time></trkpt><trkpt lat="42.17082689229452" lon="9.168513756617228"><ele>720.0</ele><time>2026-05-03T13:46:58Z</time></trkpt><trkpt lat="42.17072506561851" lon="9.168607869082797"><ele>720.0</ele><time>2026-05-03T13:46:59Z</time></trkpt><trkpt lat="42.170650277700624" lon="9.168699535234191"><ele>715.5</ele><time>2026-05-03T13:47:00Z</time></trkpt><trkpt lat="42.17061674383155" lon="9.168837975322537"><ele>711.0</ele><time>2026-05-03T13:47:01Z</time></trkpt><trkpt lat="42.17064038220801" lon="9.169002204258538"><ele>706.5</ele><time>2026-05-03T13:47:02Z</time></trkpt><trkpt lat="42.17069022385387" lon="9.16917625125368"><ele>702.0</ele><time>2026-05-03T13:47:03Z</time></trkpt><trkpt lat="42.17075001171574" lon="9.16936315827488"><ele>702.0</ele><time>2026-05-03T13:47:04Z</time></trkpt><trkpt lat="42.170800983100435" lon="9.169577070146548"><ele>702.0</ele><time>2026-05-03T13:47:05Z</time></trkpt><trkpt lat="42.17084322183971" lon="9.16980704840386"><ele>702.0</ele><time>2026-05-03T13:47:06Z</time></trkpt><trkpt lat="42.17087781264409" lon="9.170038943679057"><ele>701.3333333333334</ele><time>2026-05-03T13:47:07Z</time></trkpt><trkpt lat="42.17091610129733" lon="9.170260621568213"><ele>700.6666666666667</ele><time>2026-05-03T13:47:08Z</time></trkpt><trkpt lat="42.170939783331015" lon="9.170460926767781"><ele>700.0</ele><time>2026-05-03T13:47:09Z</time></trkpt><trkpt lat="42.17095053401729" lon="9.170649023755654"><ele>698.75</ele><time>2026-05-03T13:47:10Z</time></trkpt><trkpt lat="42.170914876475834" lon="9.170817747943675"><ele>697.5</ele><time>2026-05-03T13:47:11Z</time></trkpt><trkpt lat="42.17083455392946" lon="9.170970230356877"><ele>696.25</ele><time>2026-05-03T13:47:12Z</time></trkpt><trkpt lat="42.17075725577282" lon="9.171166798605652"><ele>695.0</ele><time>2026-05-03T13:47:13Z</time></trkpt><trkpt lat="42.17070457907632" lon="9.171360861588203"><ele>702.0</ele><time>2026-05-03T13:47:14Z</time></trkpt><trkpt lat="42.170633109356565" lon="9.17152450912557"><ele>709.0</ele><time>2026-05-03T13:47:15Z</time></trkpt><trkpt lat="42.1705721594977" lon="9.17168683016743"><ele>716.0</ele><time>2026-05-03T13:47:16Z</time></trkpt><trkpt lat="42.17051740425996" lon="9.171827419975903"><ele>723.0</ele><time>2026-05-03T13:47:17Z</time></trkpt><trkpt lat="42.1704874023737" lon="9.17194129337815"><ele>723.0</ele><time>2026-05-03T13:47:18Z</time></trkpt><trkpt lat="42.17049335348894" lon="9.17204821384941"><ele>723.0</ele><time>2026-05-03T13:47:19Z</time></trkpt><trkpt lat="42.17054349027485" lon="9.172152218725127"><ele>723.0</ele><time>2026-05-03T13:47:20Z</time></trkpt><trkpt lat="42.17061996075395" lon="9.172230905036804"><ele>723.0</ele><time>2026-05-03T13:47:21Z</time></trkpt><trkpt lat="42.17073483949241" lon="9.172274842923196"><ele>723.0</ele><time>2026-05-03T13:47:22Z</time></trkpt><trkpt lat="42.17086386001742" lon="9.172293288517006"><ele>716.75</ele><time>2026-05-03T13:47:23Z</time></trkpt><trkpt lat="42.170992420833215" lon="9.172305354611503"><ele>710.5</ele><time>2026-05-03T13:47:24Z</time></trkpt><trkpt lat="42.17110583472422" lon="9.172361497776642"><ele>704.25</ele><time>2026-05-03T13:47:25Z</time></trkpt><trkpt lat="42.17118196461309" lon="9.172463252892305"><ele>698.0</ele><time>2026-05-03T13:47:26Z</time></trkpt><trkpt lat="42.171260935333365" lon="9.172534028268606"><ele>698.0</ele><time>2026-05-03T13:47:27Z</time></trkpt><trkpt lat="42.17130950092458" lon="9.172614850415451"><ele>698.0</ele><time>2026-05-03T13:47:28Z</time></trkpt><trkpt lat="42.171375745844855" lon="9.172737300256367"><ele>698.0</ele><time>2026-05-03T13:47:30Z</time></trkpt><trkpt lat="42.17146254056516" lon="9.172825232560157"><ele>698.0</ele><time>2026-05-03T13:47:32Z</time></trkpt><trkpt lat="42.1715637754311" lon="9.17275552822906"><ele>698.0</ele><time>2026-05-03T13:47:34.001Z</time></trkpt><trkpt lat="42.17159740881834" lon="9.172674264151611"><ele>698.0</ele><time>2026-05-03T13:47:35.001Z</time></trkpt><trkpt lat="42.1715782055022" lon="9.172562544615726"><ele>698.0</ele><time>2026-05-03T13:47:36.001Z</time></trkpt><trkpt lat="42.17150116109342" lon="9.172454965085604"><ele>698.0</ele><time>2026-05-03T13:47:37.001Z</time></trkpt><trkpt lat="42.17143244393001" lon="9.172343189654997"><ele>698.0</ele><time>2026-05-03T13:47:38.001Z</time></trkpt><trkpt lat="42.17135682547737" lon="9.172231610665259"><ele>698.0</ele><time>2026-05-03T13:47:39.001Z</time></trkpt><trkpt lat="42.171279859982235" lon="9.172127687719072"><ele>695.8333333333333</ele><time>2026-05-03T13:47:40.001Z</time></trkpt><trkpt lat="42.17120403298088" lon="9.172044230802435"><ele>693.6666666666666</ele><time>2026-05-03T13:47:41.001Z</time></trkpt><trkpt lat="42.17113256645055" lon="9.171993209535348"><ele>691.5</ele><time>2026-05-03T13:47:42.001Z</time></trkpt><trkpt lat="42.1710716662461" lon="9.171955071019429"><ele>689.3333333333334</ele><time>2026-05-03T13:47:43.001Z</time></trkpt><trkpt lat="42.171024377122784" lon="9.171892428687812"><ele>687.1666666666667</ele><time>2026-05-03T13:47:44.001Z</time></trkpt><trkpt lat="42.17100873900163" lon="9.171792881725668"><ele>685.0</ele><time>2026-05-03T13:47:45.001Z</time></trkpt><trkpt lat="42.17104170370035" lon="9.171677712688085"><ele>685.0</ele><time>2026-05-03T13:47:46.001Z</time></trkpt><trkpt lat="42.17110706871618" lon="9.171578197881153"><ele>685.0</ele><time>2026-05-03T13:47:47.001Z</time></trkpt><trkpt lat="42.17118279378403" lon="9.17147362372062"><ele>685.0</ele><time>2026-05-03T13:47:48.001Z</time></trkpt><trkpt lat="42.171241895432594" lon="9.17137926937127"><ele>685.0</ele><time>2026-05-03T13:47:49.001Z</time></trkpt><trkpt lat="42.17128214464001" lon="9.17130362491342"><ele>685.0</ele><time>2026-05-03T13:47:50.001Z</time></trkpt><trkpt lat="42.171350163043016" lon="9.17118912245886"><ele>687.0</ele><time>2026-05-03T13:47:52.001Z</time></trkpt><trkpt lat="42.17143368870689" lon="9.171071531083703"><ele>689.0</ele><time>2026-05-03T13:47:53.996Z</time></trkpt><trkpt lat="42.17155589282649" lon="9.171021888868388"><ele>691.0</ele><time>2026-05-03T13:47:55.996Z</time></trkpt><trkpt lat="42.171641931012765" lon="9.171026391697387"><ele>693.0</ele><time>2026-05-03T13:47:56.996Z</time></trkpt><trkpt lat="42.171727589983774" lon="9.17103411039103"><ele>695.0</ele><time>2026-05-03T13:47:57.996Z</time></trkpt><trkpt lat="42.17179861565354" lon="9.171048126278079"><ele>690.1666666666666</ele><time>2026-05-03T13:47:58.997Z</time></trkpt><trkpt lat="42.17187829104698" lon="9.171061470814237"><ele>685.3333333333333</ele><time>2026-05-03T13:47:59.997Z</time></trkpt><trkpt lat="42.171955435606115" lon="9.171078580813111"><ele>680.5</ele><time>2026-05-03T13:48:00.997Z</time></trkpt><trkpt lat="42.17203305327596" lon="9.171087437998972"><ele>675.6666666666666</ele><time>2026-05-03T13:48:01.997Z</time></trkpt><trkpt lat="42.172117165802284" lon="9.17108343607043"><ele>670.8333333333334</ele><time>2026-05-03T13:48:02.997Z</time></trkpt><trkpt lat="42.17220511646113" lon="9.171050754440344"><ele>666.0</ele><time>2026-05-03T13:48:03.997Z</time></trkpt><trkpt lat="42.17228035466594" lon="9.170985602549816"><ele>666.0</ele><time>2026-05-03T13:48:04.997Z</time></trkpt><trkpt lat="42.17232466719917" lon="9.170905039059395"><ele>666.0</ele><time>2026-05-03T13:48:05.997Z</time></trkpt><trkpt lat="42.17234922017723" lon="9.170822504675433"><ele>666.0</ele><time>2026-05-03T13:48:06.997Z</time></trkpt><trkpt lat="42.17238132640976" lon="9.170686762700923"><ele>666.0</ele><time>2026-05-03T13:48:08.997Z</time></trkpt><trkpt lat="42.172438125930285" lon="9.170597351606403"><ele>666.0</ele><time>2026-05-03T13:48:10.997Z</time></trkpt><trkpt lat="42.172491437292095" lon="9.170483427204923"><ele>666.0</ele><time>2026-05-03T13:48:12.998Z</time></trkpt><trkpt lat="42.17257689844684" lon="9.170346117620847"><ele>665.0</ele><time>2026-05-03T13:48:14.998Z</time></trkpt><trkpt lat="42.172651627418226" lon="9.17021865173165"><ele>664.0</ele><time>2026-05-03T13:48:16.998Z</time></trkpt><trkpt lat="42.1727133292816" lon="9.170095567464761"><ele>663.0</ele><time>2026-05-03T13:48:18.998Z</time></trkpt><trkpt lat="42.17274964879311" lon="9.16996403833841"><ele>662.0</ele><time>2026-05-03T13:48:20.998Z</time></trkpt><trkpt lat="42.17272533551156" lon="9.169808006447852"><ele>662.0</ele><time>2026-05-03T13:48:22.998Z</time></trkpt><trkpt lat="42.172681284426815" lon="9.169659105411661"><ele>662.0</ele><time>2026-05-03T13:48:24.998Z</time></trkpt><trkpt lat="42.172633591014" lon="9.169523972205853"><ele>662.0</ele><time>2026-05-03T13:48:26.999Z</time></trkpt><trkpt lat="42.17261834739153" lon="9.16940372613076"><ele>662.0</ele><time>2026-05-03T13:48:28.999Z</time></trkpt><trkpt lat="42.17268594244062" lon="9.169272892581475"><ele>662.0</ele><time>2026-05-03T13:48:30.999Z</time></trkpt><trkpt lat="42.17275978857512" lon="9.169228248528386"><ele>662.0</ele><time>2026-05-03T13:48:31.999Z</time></trkpt><trkpt lat="42.17284135200804" lon="9.169200233794525"><ele>662.0</ele><time>2026-05-03T13:48:32.999Z</time></trkpt><trkpt lat="42.17292633307404" lon="9.16919707007654"><ele>662.0</ele><time>2026-05-03T13:48:33.999Z</time></trkpt><trkpt lat="42.17301009669248" lon="9.169197744426402"><ele>662.0</ele><time>2026-05-03T13:48:34.999Z</time></trkpt><trkpt lat="42.17309487789202" lon="9.16919348176604"><ele>662.0</ele><time>2026-05-03T13:48:35.999Z</time></trkpt><trkpt lat="42.17318077686155" lon="9.169180574103502"><ele>662.0</ele><time>2026-05-03T13:48:36.999Z</time></trkpt><trkpt lat="42.17326866403707" lon="9.16918392814229"><ele>660.0</ele><time>2026-05-03T13:48:37.999Z</time></trkpt><trkpt lat="42.17334542376461" lon="9.169184060698514"><ele>658.0</ele><time>2026-05-03T13:48:38.999Z</time></trkpt><trkpt lat="42.1734140394865" lon="9.169184996823521"><ele>656.0</ele><time>2026-05-03T13:48:39.999Z</time></trkpt><trkpt lat="42.17349121975854" lon="9.169166738790024"><ele>654.0</ele><time>2026-05-03T13:48:40.999Z</time></trkpt><trkpt lat="42.17355785212447" lon="9.169180681911653"><ele>652.0</ele><time>2026-05-03T13:48:41.999Z</time></trkpt><trkpt lat="42.17363725412507" lon="9.169175102626962"><ele>650.0</ele><time>2026-05-03T13:48:42.999Z</time></trkpt><trkpt lat="42.173715269805925" lon="9.169153333384145"><ele>650.0</ele><time>2026-05-03T13:48:43.999Z</time></trkpt><trkpt lat="42.17378590113113" lon="9.169095255407546"><ele>650.0</ele><time>2026-05-03T13:48:44.999Z</time></trkpt><trkpt lat="42.17383709776473" lon="9.168991138011043"><ele>650.0</ele><time>2026-05-03T13:48:45.999Z</time></trkpt><trkpt lat="42.173851741516216" lon="9.168873263498238"><ele>650.0</ele><time>2026-05-03T13:48:46.999Z</time></trkpt><trkpt lat="42.17384783132689" lon="9.168762703755865"><ele>650.0</ele><time>2026-05-03T13:48:47.999Z</time></trkpt><trkpt lat="42.17384241399838" lon="9.168665713861518"><ele>650.0</ele><time>2026-05-03T13:48:48.999Z</time></trkpt><trkpt lat="42.17385276667037" lon="9.168573898659696"><ele>649.3333333333333</ele><time>2026-05-03T13:48:49.999Z</time></trkpt><trkpt lat="42.17389356147076" lon="9.168486717873861"><ele>648.6666666666666</ele><time>2026-05-03T13:48:50.999Z</time></trkpt><trkpt lat="42.17395910552237" lon="9.168421409361482"><ele>648.0</ele><time>2026-05-03T13:48:51.999Z</time></trkpt><trkpt lat="42.17404564219673" lon="9.168402699653853"><ele>647.3333333333334</ele><time>2026-05-03T13:48:52.999Z</time></trkpt><trkpt lat="42.174139911248766" lon="9.168429467834791"><ele>646.6666666666667</ele><time>2026-05-03T13:48:53.999Z</time></trkpt><trkpt lat="42.174223546182816" lon="9.168478118710729"><ele>646.0</ele><time>2026-05-03T13:48:54.999Z</time></trkpt><trkpt lat="42.174313360760785" lon="9.168524788281928"><ele>646.0</ele><time>2026-05-03T13:48:56Z</time></trkpt><trkpt lat="42.17440522029609" lon="9.168551751987184"><ele>646.0</ele><time>2026-05-03T13:48:57Z</time></trkpt><trkpt lat="42.174502349542784" lon="9.168554966437092"><ele>646.0</ele><time>2026-05-03T13:48:58Z</time></trkpt><trkpt lat="42.174590386829585" lon="9.168554062763082"><ele>646.0</ele><time>2026-05-03T13:48:59Z</time></trkpt><trkpt lat="42.17468652190077" lon="9.168570184712793"><ele>646.0</ele><time>2026-05-03T13:49:00Z</time></trkpt><trkpt lat="42.174785585023535" lon="9.168621144594205"><ele>647.5999999999999</ele><time>2026-05-03T13:49:01Z</time></trkpt><trkpt lat="42.174870234621594" lon="9.168722782456683"><ele>649.2</ele><time>2026-05-03T13:49:02Z</time></trkpt><trkpt lat="42.17496546005869" lon="9.168807789714029"><ele>650.8</ele><time>2026-05-03T13:49:03Z</time></trkpt><trkpt lat="42.175047935718716" lon="9.16889072045041"><ele>652.4000000000001</ele><time>2026-05-03T13:49:04Z</time></trkpt><trkpt lat="42.175130411916506" lon="9.168966213351231"><ele>654.0</ele><time>2026-05-03T13:49:05Z</time></trkpt><trkpt lat="42.175207469179654" lon="9.169046336947144"><ele>646.75</ele><time>2026-05-03T13:49:06Z</time></trkpt><trkpt lat="42.17528587018439" lon="9.169121653096989"><ele>639.5</ele><time>2026-05-03T13:49:07Z</time></trkpt><trkpt lat="42.175377925414665" lon="9.169220976130562"><ele>632.25</ele><time>2026-05-03T13:49:08Z</time></trkpt><trkpt lat="42.17547110896685" lon="9.169339558203951"><ele>625.0</ele><time>2026-05-03T13:49:09Z</time></trkpt><trkpt lat="42.17556247596825" lon="9.169460528793827"><ele>625.0</ele><time>2026-05-03T13:49:10Z</time></trkpt><trkpt lat="42.17566381386734" lon="9.16957788985767"><ele>625.0</ele><time>2026-05-03T13:49:11Z</time></trkpt><trkpt lat="42.175765150489966" lon="9.169690277189941"><ele>625.0</ele><time>2026-05-03T13:49:12Z</time></trkpt><trkpt lat="42.17587868595896" lon="9.16978683430047"><ele>625.0</ele><time>2026-05-03T13:49:13Z</time></trkpt><trkpt lat="42.175984183546475" lon="9.169883189776632"><ele>622.75</ele><time>2026-05-03T13:49:14Z</time></trkpt><trkpt lat="42.176085391661275" lon="9.169972276602806"><ele>620.5</ele><time>2026-05-03T13:49:15Z</time></trkpt><trkpt lat="42.176181660776905" lon="9.17005014845927"><ele>618.25</ele><time>2026-05-03T13:49:16Z</time></trkpt><trkpt lat="42.176276188751245" lon="9.170124035353785"><ele>616.0</ele><time>2026-05-03T13:49:17Z</time></trkpt><trkpt lat="42.17637379547403" lon="9.170184705270579"><ele>616.0</ele><time>2026-05-03T13:49:18Z</time></trkpt><trkpt lat="42.17648352806658" lon="9.170213694322744"><ele>616.0</ele><time>2026-05-03T13:49:19Z</time></trkpt><trkpt lat="42.17661397056987" lon="9.17022621533775"><ele>616.0</ele><time>2026-05-03T13:49:20Z</time></trkpt><trkpt lat="42.17674512482831" lon="9.170234773286369"><ele>616.0</ele><time>2026-05-03T13:49:21Z</time></trkpt><trkpt lat="42.17686940451194" lon="9.170244765521431"><ele>619.75</ele><time>2026-05-03T13:49:22Z</time></trkpt><trkpt lat="42.176999196804" lon="9.170275423507846"><ele>623.5</ele><time>2026-05-03T13:49:23Z</time></trkpt><trkpt lat="42.17712525177915" lon="9.170307545315827"><ele>627.25</ele><time>2026-05-03T13:49:24Z</time></trkpt><trkpt lat="42.17723531452974" lon="9.170337832956424"><ele>631.0</ele><time>2026-05-03T13:49:25Z</time></trkpt><trkpt lat="42.17730834516774" lon="9.170395640301667"><ele>628.3333333333334</ele><time>2026-05-03T13:49:26Z</time></trkpt><trkpt lat="42.177384274970656" lon="9.170414005268215"><ele>625.6666666666667</ele><time>2026-05-03T13:49:27Z</time></trkpt><trkpt lat="42.1774595091604" lon="9.17043118688763"><ele>623.0</ele><time>2026-05-03T13:49:28Z</time></trkpt><trkpt lat="42.177535978369214" lon="9.170433046738351"><ele>620.3333333333334</ele><time>2026-05-03T13:49:29Z</time></trkpt><trkpt lat="42.17760935536158" lon="9.170403000302583"><ele>617.6666666666666</ele><time>2026-05-03T13:49:30Z</time></trkpt><trkpt lat="42.177674678357356" lon="9.170312923269556"><ele>615.0</ele><time>2026-05-03T13:49:31Z</time></trkpt><trkpt lat="42.177708757027375" lon="9.170175949335686"><ele>615.0</ele><time>2026-05-03T13:49:32Z</time></trkpt><trkpt lat="42.17771342644821" lon="9.17000177348661"><ele>615.0</ele><time>2026-05-03T13:49:33Z</time></trkpt><trkpt lat="42.177717682395524" lon="9.169810109379359"><ele>615.0</ele><time>2026-05-03T13:49:34Z</time></trkpt><trkpt lat="42.17773908398177" lon="9.169623043550315"><ele>615.0</ele><time>2026-05-03T13:49:35Z</time></trkpt><trkpt lat="42.177774917708405" lon="9.169460115835673"><ele>614.75</ele><time>2026-05-03T13:49:36Z</time></trkpt><trkpt lat="42.177814463707016" lon="9.169311266702268"><ele>614.5</ele><time>2026-05-03T13:49:37.001Z</time></trkpt><trkpt lat="42.17784799632558" lon="9.169155475049724"><ele>614.25</ele><time>2026-05-03T13:49:38.001Z</time></trkpt><trkpt lat="42.17786516266964" lon="9.16897294453277"><ele>614.0</ele><time>2026-05-03T13:49:39.001Z</time></trkpt><trkpt lat="42.17785873622486" lon="9.16877491257336"><ele>614.0</ele><time>2026-05-03T13:49:40.001Z</time></trkpt><trkpt lat="42.177825702447635" lon="9.168579390931274"><ele>614.0</ele><time>2026-05-03T13:49:41.001Z</time></trkpt><trkpt lat="42.17777214181779" lon="9.168397227867853"><ele>614.0</ele><time>2026-05-03T13:49:42.001Z</time></trkpt><trkpt lat="42.177727285496125" lon="9.168202175190281"><ele>614.0</ele><time>2026-05-03T13:49:43.001Z</time></trkpt><trkpt lat="42.17767259971182" lon="9.168000573341022"><ele>612.0</ele><time>2026-05-03T13:49:44.001Z</time></trkpt><trkpt lat="42.177612681363314" lon="9.16778884134553"><ele>610.0</ele><time>2026-05-03T13:49:45.001Z</time></trkpt><trkpt lat="42.17758621685834" lon="9.167562450568784"><ele>608.0</ele><time>2026-05-03T13:49:46.001Z</time></trkpt><trkpt lat="42.17757204127375" lon="9.167356418562242"><ele>607.75</ele><time>2026-05-03T13:49:47.001Z</time></trkpt><trkpt lat="42.17755952935638" lon="9.167160401326724"><ele>607.5</ele><time>2026-05-03T13:49:48.001Z</time></trkpt><trkpt lat="42.17755224234133" lon="9.16698704290777"><ele>607.25</ele><time>2026-05-03T13:49:49.001Z</time></trkpt><trkpt lat="42.177547403559565" lon="9.16682642149392"><ele>607.0</ele><time>2026-05-03T13:49:50.001Z</time></trkpt><trkpt lat="42.17756088739355" lon="9.166689262445358"><ele>607.0</ele><time>2026-05-03T13:49:51.001Z</time></trkpt><trkpt lat="42.177620414069104" lon="9.1665910535627"><ele>607.0</ele><time>2026-05-03T13:49:52.001Z</time></trkpt><trkpt lat="42.177693413746276" lon="9.166523364183389"><ele>607.0</ele><time>2026-05-03T13:49:53.001Z</time></trkpt><trkpt lat="42.17778398415378" lon="9.16648406368769"><ele>607.0</ele><time>2026-05-03T13:49:54.001Z</time></trkpt><trkpt lat="42.17789700290693" lon="9.166516274754855"><ele>607.0</ele><time>2026-05-03T13:49:55.001Z</time></trkpt><trkpt lat="42.17801343636333" lon="9.1665933495172"><ele>607.0</ele><time>2026-05-03T13:49:56.001Z</time></trkpt><trkpt lat="42.17814385902696" lon="9.166689502620393"><ele>607.0</ele><time>2026-05-03T13:49:57.001Z</time></trkpt><trkpt lat="42.17829038887274" lon="9.166778260158855"><ele>607.0</ele><time>2026-05-03T13:49:58.001Z</time></trkpt><trkpt lat="42.178444206576955" lon="9.166850954646565"><ele>604.6666666666667</ele><time>2026-05-03T13:49:59.001Z</time></trkpt><trkpt lat="42.17860822895363" lon="9.166916691975482"><ele>602.3333333333334</ele><time>2026-05-03T13:49:59.997Z</time></trkpt><trkpt lat="42.178772430229984" lon="9.16700117983096"><ele>600.0</ele><time>2026-05-03T13:50:00.997Z</time></trkpt><trkpt lat="42.1789229460977" lon="9.167127649388604"><ele>604.3333333333334</ele><time>2026-05-03T13:50:01.997Z</time></trkpt><trkpt lat="42.179054784358414" lon="9.16729289246386"><ele>608.6666666666667</ele><time>2026-05-03T13:50:02.997Z</time></trkpt><trkpt lat="42.17917793420285" lon="9.167473856807602"><ele>613.0</ele><time>2026-05-03T13:50:03.997Z</time></trkpt><trkpt lat="42.179308943208916" lon="9.167657986796337"><ele>603.6666666666667</ele><time>2026-05-03T13:50:04.997Z</time></trkpt><trkpt lat="42.1794515365991" lon="9.167817174676314"><ele>594.3333333333334</ele><time>2026-05-03T13:50:05.997Z</time></trkpt><trkpt lat="42.17960410610611" lon="9.167925508501463"><ele>585.0</ele><time>2026-05-03T13:50:06.997Z</time></trkpt><trkpt lat="42.17978123744708" lon="9.167977484138325"><ele>587.3333333333334</ele><time>2026-05-03T13:50:07.997Z</time></trkpt><trkpt lat="42.1799783223043" lon="9.167983004371397"><ele>589.6666666666667</ele><time>2026-05-03T13:50:08.997Z</time></trkpt><trkpt lat="42.18019424522586" lon="9.167928807336905"><ele>592.0</ele><time>2026-05-03T13:50:09.997Z</time></trkpt><trkpt lat="42.180421306907974" lon="9.167868077734532"><ele>592.0</ele><time>2026-05-03T13:50:10.997Z</time></trkpt><trkpt lat="42.180665368354965" lon="9.167818461609338"><ele>592.0</ele><time>2026-05-03T13:50:11.997Z</time></trkpt><trkpt lat="42.18090588088947" lon="9.167774717147665"><ele>589.6666666666667</ele><time>2026-05-03T13:50:12.998Z</time></trkpt><trkpt lat="42.18112415688189" lon="9.16775352469728"><ele>587.3333333333334</ele><time>2026-05-03T13:50:13.998Z</time></trkpt><trkpt lat="42.181316832866" lon="9.167778557822066"><ele>585.0</ele><time>2026-05-03T13:50:14.998Z</time></trkpt><trkpt lat="42.18149195021052" lon="9.16785835407999"><ele>585.6666666666666</ele><time>2026-05-03T13:50:15.998Z</time></trkpt><trkpt lat="42.181641170026175" lon="9.168003776102845"><ele>586.3333333333333</ele><time>2026-05-03T13:50:16.998Z</time></trkpt><trkpt lat="42.181756588373354" lon="9.168193565956372"><ele>587.0</ele><time>2026-05-03T13:50:17.998Z</time></trkpt><trkpt lat="42.18184866059961" lon="9.168409282615995"><ele>579.3333333333333</ele><time>2026-05-03T13:50:18.998Z</time></trkpt><trkpt lat="42.1819415743294" lon="9.168635658306096"><ele>571.6666666666666</ele><time>2026-05-03T13:50:19.998Z</time></trkpt><trkpt lat="42.182045535435996" lon="9.16885459199557"><ele>564.0</ele><time>2026-05-03T13:50:20.998Z</time></trkpt><trkpt lat="42.182157769017486" lon="9.169059177582579"><ele>564.6666666666666</ele><time>2026-05-03T13:50:21.998Z</time></trkpt><trkpt lat="42.18227392699447" lon="9.169234813357246"><ele>565.3333333333333</ele><time>2026-05-03T13:50:22.998Z</time></trkpt><trkpt lat="42.18241815331512" lon="9.169361526340253"><ele>566.0</ele><time>2026-05-03T13:50:23.999Z</time></trkpt><trkpt lat="42.182597799540346" lon="9.16944880922252"><ele>566.0</ele><time>2026-05-03T13:50:24.999Z</time></trkpt><trkpt lat="42.18279298873666" lon="9.169489339068315"><ele>566.0</ele><time>2026-05-03T13:50:25.999Z</time></trkpt><trkpt lat="42.18299421042828" lon="9.16950723513472"><ele>566.0</ele><time>2026-05-03T13:50:26.999Z</time></trkpt><trkpt lat="42.183194297029836" lon="9.169539718249599"><ele>567.6666666666666</ele><time>2026-05-03T13:50:27.999Z</time></trkpt><trkpt lat="42.1833817490406" lon="9.169580467834692"><ele>569.3333333333334</ele><time>2026-05-03T13:50:28.999Z</time></trkpt><trkpt lat="42.18355637471734" lon="9.169628564494458"><ele>571.0</ele><time>2026-05-03T13:50:29.999Z</time></trkpt><trkpt lat="42.18372074038504" lon="9.1696985964695"><ele>571.0</ele><time>2026-05-03T13:50:30.999Z</time></trkpt><trkpt lat="42.18387447187147" lon="9.169831176157583"><ele>571.0</ele><time>2026-05-03T13:50:31.999Z</time></trkpt><trkpt lat="42.1839910478493" lon="9.169994536307339"><ele>571.0</ele><time>2026-05-03T13:50:32.999Z</time></trkpt><trkpt lat="42.18411197284675" lon="9.17012487387058"><ele>566.5</ele><time>2026-05-03T13:50:33.999Z</time></trkpt><trkpt lat="42.18424474621242" lon="9.17016990874476"><ele>562.0</ele><time>2026-05-03T13:50:34.999Z</time></trkpt><trkpt lat="42.18437726164677" lon="9.17015521415873"><ele>557.5</ele><time>2026-05-03T13:50:35.999Z</time></trkpt><trkpt lat="42.18449119444831" lon="9.170120477969379"><ele>553.0</ele><time>2026-05-03T13:50:36.999Z</time></trkpt><trkpt lat="42.184593984528654" lon="9.170090203539477"><ele>553.0</ele><time>2026-05-03T13:50:37.999Z</time></trkpt><trkpt lat="42.18469938344805" lon="9.17008374429402"><ele>553.0</ele><time>2026-05-03T13:50:38.999Z</time></trkpt><trkpt lat="42.18481058354669" lon="9.170107374469607"><ele>553.0</ele><time>2026-05-03T13:50:39.999Z</time></trkpt><trkpt lat="42.18491075284255" lon="9.170165946057537"><ele>553.0</ele><time>2026-05-03T13:50:40.999Z</time></trkpt><trkpt lat="42.18500520362615" lon="9.170240966563274"><ele>553.0</ele><time>2026-05-03T13:50:42Z</time></trkpt><trkpt lat="42.185103051599285" lon="9.17030997831102"><ele>553.25</ele><time>2026-05-03T13:50:43Z</time></trkpt><trkpt lat="42.185210164689295" lon="9.170366918772928"><ele>553.5</ele><time>2026-05-03T13:50:44Z</time></trkpt><trkpt lat="42.18532200346643" lon="9.170427607264727"><ele>553.75</ele><time>2026-05-03T13:50:45Z</time></trkpt><trkpt lat="42.18543702622513" lon="9.170477155328248"><ele>554.0</ele><time>2026-05-03T13:50:46Z</time></trkpt><trkpt lat="42.18555961737257" lon="9.17049962368156"><ele>554.0</ele><time>2026-05-03T13:50:47Z</time></trkpt><trkpt lat="42.185678596459546" lon="9.170484685647896"><ele>554.0</ele><time>2026-05-03T13:50:48Z</time></trkpt><trkpt lat="42.185806351889724" lon="9.170394721915132"><ele>554.0</ele><time>2026-05-03T13:50:49Z</time></trkpt><trkpt lat="42.185906827580126" lon="9.170232450714403"><ele>554.0</ele><time>2026-05-03T13:50:50Z</time></trkpt><trkpt lat="42.185999209416146" lon="9.170045979516606"><ele>554.3333333333333</ele><time>2026-05-03T13:50:51Z</time></trkpt><trkpt lat="42.18610054657487" lon="9.169843483212308"><ele>554.6666666666666</ele><time>2026-05-03T13:50:52Z</time></trkpt><trkpt lat="42.18620429471153" lon="9.169650654080018"><ele>555.0</ele><time>2026-05-03T13:50:53Z</time></trkpt><trkpt lat="42.1863063692982" lon="9.16947557820067"><ele>555.0</ele><time>2026-05-03T13:50:54Z</time></trkpt><trkpt lat="42.18640188505418" lon="9.169311086181654"><ele>555.0</ele><time>2026-05-03T13:50:55Z</time></trkpt><trkpt lat="42.1864762152314" lon="9.1691628163084"><ele>555.0</ele><time>2026-05-03T13:50:56Z</time></trkpt><trkpt lat="42.18653222852468" lon="9.169019663607703"><ele>555.0</ele><time>2026-05-03T13:50:57Z</time></trkpt><trkpt lat="42.18656433673793" lon="9.168870050957516"><ele>553.25</ele><time>2026-05-03T13:50:58Z</time></trkpt><trkpt lat="42.186566941723" lon="9.168714773807945"><ele>551.5</ele><time>2026-05-03T13:50:59Z</time></trkpt><trkpt lat="42.18652729963646" lon="9.168541845601979"><ele>549.75</ele><time>2026-05-03T13:51:00Z</time></trkpt><trkpt lat="42.186450245087165" lon="9.168346521850333"><ele>548.0</ele><time>2026-05-03T13:51:01Z</time></trkpt><trkpt lat="42.18635584246182" lon="9.168142098995665"><ele>540.0</ele><time>2026-05-03T13:51:02Z</time></trkpt><trkpt lat="42.18626359404955" lon="9.167909927253234"><ele>532.0</ele><time>2026-05-03T13:51:03Z</time></trkpt><trkpt lat="42.18613421306057" lon="9.167695175372172"><ele>524.0</ele><time>2026-05-03T13:51:04Z</time></trkpt><trkpt lat="42.18599460950621" lon="9.1675184819837"><ele>524.0</ele><time>2026-05-03T13:51:05Z</time></trkpt><trkpt lat="42.185864258911685" lon="9.16737055894782"><ele>524.0</ele><time>2026-05-03T13:51:06Z</time></trkpt><trkpt lat="42.18576057427844" lon="9.167236834421166"><ele>524.0</ele><time>2026-05-03T13:51:07Z</time></trkpt><trkpt lat="42.185674601553465" lon="9.167104917222659"><ele>524.0</ele><time>2026-05-03T13:51:08Z</time></trkpt><trkpt lat="42.185669035040476" lon="9.166961045115901"><ele>524.25</ele><time>2026-05-03T13:51:09.001Z</time></trkpt><trkpt lat="42.1857274544767" lon="9.166848574341634"><ele>524.5</ele><time>2026-05-03T13:51:10.001Z</time></trkpt><trkpt lat="42.18582707348479" lon="9.166800096244353"><ele>524.75</ele><time>2026-05-03T13:51:11.001Z</time></trkpt><trkpt lat="42.18597303810644" lon="9.166843047978995"><ele>525.0</ele><time>2026-05-03T13:51:12.001Z</time></trkpt><trkpt lat="42.18614670903388" lon="9.166847393881035"><ele>525.0</ele><time>2026-05-03T13:51:13.001Z</time></trkpt><trkpt lat="42.1863423727065" lon="9.16687321462075"><ele>525.0</ele><time>2026-05-03T13:51:14.001Z</time></trkpt><trkpt lat="42.186539472967986" lon="9.166890418348023"><ele>525.0</ele><time>2026-05-03T13:51:15.001Z</time></trkpt><trkpt lat="42.18675072631064" lon="9.166904752591263"><ele>521.6666666666666</ele><time>2026-05-03T13:51:16.001Z</time></trkpt><trkpt lat="42.186957199095474" lon="9.166936867418213"><ele>518.3333333333333</ele><time>2026-05-03T13:51:17.001Z</time></trkpt><trkpt lat="42.18714769362762" lon="9.166987338084153"><ele>515.0</ele><time>2026-05-03T13:51:18.001Z</time></trkpt><trkpt lat="42.18733840050193" lon="9.167052471682789"><ele>514.0</ele><time>2026-05-03T13:51:19.001Z</time></trkpt><trkpt lat="42.18752029638341" lon="9.167114508048249"><ele>513.0</ele><time>2026-05-03T13:51:20.001Z</time></trkpt><trkpt lat="42.187701912832374" lon="9.167131052374797"><ele>512.0</ele><time>2026-05-03T13:51:21.001Z</time></trkpt><trkpt lat="42.187880649224226" lon="9.16709491132422"><ele>512.0</ele><time>2026-05-03T13:51:22.001Z</time></trkpt><trkpt lat="42.18805070355389" lon="9.167042807023643"><ele>512.0</ele><time>2026-05-03T13:51:23.001Z</time></trkpt><trkpt lat="42.18820972561101" lon="9.16703942189684"><ele>512.0</ele><time>2026-05-03T13:51:24.001Z</time></trkpt><trkpt lat="42.18830223100454" lon="9.167194016721858"><ele>512.0</ele><time>2026-05-03T13:51:25.001Z</time></trkpt><trkpt lat="42.188412387706514" lon="9.16730076569397"><ele>512.0</ele><time>2026-05-03T13:51:26.001Z</time></trkpt><trkpt lat="42.18855775958397" lon="9.167350389318731"><ele>512.0</ele><time>2026-05-03T13:51:27.001Z</time></trkpt><trkpt lat="42.18872535302974" lon="9.167385239704863"><ele>500.66666666666663</ele><time>2026-05-03T13:51:28.001Z</time></trkpt><trkpt lat="42.18891086369734" lon="9.167414389998608"><ele>489.33333333333337</ele><time>2026-05-03T13:51:29.001Z</time></trkpt><trkpt lat="42.1891008626023" lon="9.167433733192205"><ele>478.0</ele><time>2026-05-03T13:51:30.001Z</time></trkpt><trkpt lat="42.189288699308115" lon="9.16742444756549"><ele>475.0</ele><time>2026-05-03T13:51:31.001Z</time></trkpt><trkpt lat="42.18948538649085" lon="9.167396399795901"><ele>472.0</ele><time>2026-05-03T13:51:32.001Z</time></trkpt><trkpt lat="42.18968207879625" lon="9.167363601217907"><ele>469.0</ele><time>2026-05-03T13:51:33.001Z</time></trkpt><trkpt lat="42.18988893648659" lon="9.167341864679175"><ele>465.6666666666667</ele><time>2026-05-03T13:51:34.001Z</time></trkpt><trkpt lat="42.19009800089399" lon="9.167358099472404"><ele>462.33333333333337</ele><time>2026-05-03T13:51:35.001Z</time></trkpt><trkpt lat="42.19031303206086" lon="9.16741930779933"><ele>459.0</ele><time>2026-05-03T13:51:36.001Z</time></trkpt><trkpt lat="42.19053619348486" lon="9.167503397164943"><ele>459.0</ele><time>2026-05-03T13:51:37.001Z</time></trkpt><trkpt lat="42.19077678433815" lon="9.167549872910072"><ele>459.0</ele><time>2026-05-03T13:51:38.001Z</time></trkpt><trkpt lat="42.19102602772666" lon="9.167545349113036"><ele>459.0</ele><time>2026-05-03T13:51:39.001Z</time></trkpt><trkpt lat="42.19127210525535" lon="9.167494939972872"><ele>459.0</ele><time>2026-05-03T13:51:40.001Z</time></trkpt><trkpt lat="42.19151184538465" lon="9.167422675458896"><ele>466.33333333333337</ele><time>2026-05-03T13:51:41.001Z</time></trkpt><trkpt lat="42.19172970588462" lon="9.167355914587578"><ele>473.6666666666667</ele><time>2026-05-03T13:51:42.002Z</time></trkpt><trkpt lat="42.1919527703304" lon="9.167317949102328"><ele>481.0</ele><time>2026-05-03T13:51:43.002Z</time></trkpt><trkpt lat="42.19217598645418" lon="9.16731671553509"><ele>462.0</ele><time>2026-05-03T13:51:44.002Z</time></trkpt><trkpt lat="42.19240512141398" lon="9.167356811181703"><ele>443.0</ele><time>2026-05-03T13:51:45.002Z</time></trkpt><trkpt lat="42.19262300358763" lon="9.167440791031071"><ele>437.3333333333333</ele><time>2026-05-03T13:51:46.002Z</time></trkpt><trkpt lat="42.192827282984744" lon="9.167525862265956"><ele>431.66666666666663</ele><time>2026-05-03T13:51:47.002Z</time></trkpt><trkpt lat="42.19301246632467" lon="9.167592181661652"><ele>426.0</ele><time>2026-05-03T13:51:48.002Z</time></trkpt><trkpt lat="42.1931820937315" lon="9.167642859062106"><ele>422.33333333333337</ele><time>2026-05-03T13:51:49.002Z</time></trkpt><trkpt lat="42.19333473519263" lon="9.16769275046642"><ele>418.6666666666667</ele><time>2026-05-03T13:51:50.002Z</time></trkpt><trkpt lat="42.193480910041714" lon="9.167745666938831"><ele>415.0</ele><time>2026-05-03T13:51:51.002Z</time></trkpt><trkpt lat="42.1936249188378" lon="9.167802177442391"><ele>415.0</ele><time>2026-05-03T13:51:52.002Z</time></trkpt><trkpt lat="42.19377270074453" lon="9.167863381052022"><ele>415.0</ele><time>2026-05-03T13:51:53.002Z</time></trkpt><trkpt lat="42.19391796945701" lon="9.167932071684316"><ele>415.0</ele><time>2026-05-03T13:51:54.002Z</time></trkpt><trkpt lat="42.19405874299379" lon="9.168011712590202"><ele>422.0</ele><time>2026-05-03T13:51:55.002Z</time></trkpt><trkpt lat="42.19419440612574" lon="9.168109197406926"><ele>429.0</ele><time>2026-05-03T13:51:56.002Z</time></trkpt><trkpt lat="42.194316482174244" lon="9.16824440514585"><ele>436.0</ele><time>2026-05-03T13:51:57.002Z</time></trkpt><trkpt lat="42.1944316837034" lon="9.168385159838426"><ele>436.0</ele><time>2026-05-03T13:51:58.002Z</time></trkpt><trkpt lat="42.19455732750037" lon="9.168523268421943"><ele>436.0</ele><time>2026-05-03T13:51:59.002Z</time></trkpt><trkpt lat="42.19470434134366" lon="9.168655440978108"><ele>436.0</ele><time>2026-05-03T13:52:00.002Z</time></trkpt><trkpt lat="42.19487322544366" lon="9.168781266395978"><ele>444.33333333333337</ele><time>2026-05-03T13:52:01.002Z</time></trkpt><trkpt lat="42.19504688966567" lon="9.168876821336148"><ele>452.66666666666663</ele><time>2026-05-03T13:52:02.002Z</time></trkpt><trkpt lat="42.19522250873521" lon="9.168951977529606"><ele>461.0</ele><time>2026-05-03T13:52:03.002Z</time></trkpt><trkpt lat="42.19541009633115" lon="9.169019701515785"><ele>454.66666666666663</ele><time>2026-05-03T13:52:04.002Z</time></trkpt><trkpt lat="42.1955918511398" lon="9.169087601916157"><ele>448.33333333333337</ele><time>2026-05-03T13:52:05.002Z</time></trkpt><trkpt lat="42.1957701120369" lon="9.16915790786237"><ele>442.0</ele><time>2026-05-03T13:52:05.998Z</time></trkpt><trkpt lat="42.195937671064726" lon="9.16923722477029"><ele>442.0</ele><time>2026-05-03T13:52:06.998Z</time></trkpt><trkpt lat="42.19611155309153" lon="9.169289332110015"><ele>442.0</ele><time>2026-05-03T13:52:07.998Z</time></trkpt><trkpt lat="42.196290481482734" lon="9.169374892215071"><ele>442.0</ele><time>2026-05-03T13:52:08.998Z</time></trkpt><trkpt lat="42.19647027338618" lon="9.169487241040358"><ele>447.6666666666667</ele><time>2026-05-03T13:52:09.998Z</time></trkpt><trkpt lat="42.19664093025847" lon="9.169636918304029"><ele>453.33333333333337</ele><time>2026-05-03T13:52:10.999Z</time></trkpt><trkpt lat="42.19681426175866" lon="9.169778541975669"><ele>459.0</ele><time>2026-05-03T13:52:11.999Z</time></trkpt><trkpt lat="42.1969905142745" lon="9.169912365474644"><ele>457.0</ele><time>2026-05-03T13:52:12.999Z</time></trkpt><trkpt lat="42.1971603122395" lon="9.170061252586915"><ele>455.0</ele><time>2026-05-03T13:52:13.999Z</time></trkpt><trkpt lat="42.19732860812835" lon="9.170194389967962"><ele>453.0</ele><time>2026-05-03T13:52:14.999Z</time></trkpt><trkpt lat="42.19749331481601" lon="9.17032631707064"><ele>453.0</ele><time>2026-05-03T13:52:15.999Z</time></trkpt><trkpt lat="42.197647765698946" lon="9.170464562769967"><ele>453.0</ele><time>2026-05-03T13:52:16.999Z</time></trkpt><trkpt lat="42.19779079165869" lon="9.170617702802483"><ele>453.0</ele><time>2026-05-03T13:52:17.999Z</time></trkpt><trkpt lat="42.197910565378294" lon="9.170791398791"><ele>451.33333333333337</ele><time>2026-05-03T13:52:18.999Z</time></trkpt><trkpt lat="42.198023404470355" lon="9.170983092834575"><ele>449.6666666666667</ele><time>2026-05-03T13:52:19.999Z</time></trkpt><trkpt lat="42.19813736036062" lon="9.171161851397944"><ele>448.0</ele><time>2026-05-03T13:52:20.999Z</time></trkpt><trkpt lat="42.19824780550291" lon="9.171322931363498"><ele>448.0</ele><time>2026-05-03T13:52:21.999Z</time></trkpt><trkpt lat="42.19835872183173" lon="9.171466674872034"><ele>448.0</ele><time>2026-05-03T13:52:22.999Z</time></trkpt><trkpt lat="42.19847320966592" lon="9.171582764230802"><ele>448.0</ele><time>2026-05-03T13:52:23.999Z</time></trkpt><trkpt lat="42.19862095409258" lon="9.17167015950123"><ele>444.0</ele><time>2026-05-03T13:52:25Z</time></trkpt><trkpt lat="42.19879516458467" lon="9.17172342716389"><ele>440.0</ele><time>2026-05-03T13:52:26Z</time></trkpt><trkpt lat="42.19898196030066" lon="9.171765848672546"><ele>436.0</ele><time>2026-05-03T13:52:27Z</time></trkpt><trkpt lat="42.19915533527972" lon="9.171800066465662"><ele>436.0</ele><time>2026-05-03T13:52:28Z</time></trkpt><trkpt lat="42.19932749580493" lon="9.171812398531566"><ele>436.0</ele><time>2026-05-03T13:52:29Z</time></trkpt><trkpt lat="42.19948638079152" lon="9.171789781360511"><ele>436.0</ele><time>2026-05-03T13:52:30Z</time></trkpt><trkpt lat="42.199635049149876" lon="9.171775345005612"><ele>436.0</ele><time>2026-05-03T13:52:31Z</time></trkpt><trkpt lat="42.199777139775335" lon="9.171828402719772"><ele>436.0</ele><time>2026-05-03T13:52:32Z</time></trkpt><trkpt lat="42.19988220085579" lon="9.171990806296273"><ele>436.0</ele><time>2026-05-03T13:52:33Z</time></trkpt><trkpt lat="42.20000439412876" lon="9.172144211748241"><ele>441.0</ele><time>2026-05-03T13:52:34Z</time></trkpt><trkpt lat="42.200120848967835" lon="9.172307627922489"><ele>446.0</ele><time>2026-05-03T13:52:35Z</time></trkpt><trkpt lat="42.200282906101286" lon="9.17243527083204"><ele>451.0</ele><time>2026-05-03T13:52:36Z</time></trkpt><trkpt lat="42.20048946923493" lon="9.172518667363189"><ele>446.0</ele><time>2026-05-03T13:52:37Z</time></trkpt><trkpt lat="42.20070538650935" lon="9.172594497568111"><ele>441.0</ele><time>2026-05-03T13:52:38Z</time></trkpt><trkpt lat="42.20092988091466" lon="9.17266087886895"><ele>441.0</ele><time>2026-05-03T13:52:39Z</time></trkpt><trkpt lat="42.201164612345465" lon="9.172724278227204"><ele>441.0</ele><time>2026-05-03T13:52:40Z</time></trkpt><trkpt lat="42.20139364188346" lon="9.172795942401132"><ele>449.0</ele><time>2026-05-03T13:52:41Z</time></trkpt><trkpt lat="42.20161529012588" lon="9.172902837149723"><ele>457.0</ele><time>2026-05-03T13:52:42Z</time></trkpt><trkpt lat="42.20183157128686" lon="9.173049510463633"><ele>438.5</ele><time>2026-05-03T13:52:43.001Z</time></trkpt><trkpt lat="42.2020453970972" lon="9.173211532623311"><ele>420.0</ele><time>2026-05-03T13:52:44.001Z</time></trkpt><trkpt lat="42.202250436678284" lon="9.173361507461799"><ele>426.33333333333337</ele><time>2026-05-03T13:52:45.001Z</time></trkpt><trkpt lat="42.20244436040804" lon="9.173492623736946"><ele>432.6666666666667</ele><time>2026-05-03T13:52:46.001Z</time></trkpt><trkpt lat="42.20262654310764" lon="9.173612748515298"><ele>439.0</ele><time>2026-05-03T13:52:47.001Z</time></trkpt><trkpt lat="42.20279953063419" lon="9.173722528596306"><ele>439.0</ele><time>2026-05-03T13:52:48.001Z</time></trkpt><trkpt lat="42.202960270499716" lon="9.173818454869394"><ele>439.0</ele><time>2026-05-03T13:52:49.001Z</time></trkpt><trkpt lat="42.2031108387182" lon="9.173880189159187"><ele>439.0</ele><time>2026-05-03T13:52:50.001Z</time></trkpt><trkpt lat="42.203267138768915" lon="9.173880485673315"><ele>438.33333333333337</ele><time>2026-05-03T13:52:51.001Z</time></trkpt><trkpt lat="42.20341549220232" lon="9.173806912021512"><ele>437.66666666666663</ele><time>2026-05-03T13:52:52.001Z</time></trkpt><trkpt lat="42.20353874694702" lon="9.173670421944271"><ele>437.0</ele><time>2026-05-03T13:52:53.001Z</time></trkpt><trkpt lat="42.203651278857784" lon="9.173552011604633"><ele>437.0</ele><time>2026-05-03T13:52:54.001Z</time></trkpt><trkpt lat="42.20379314034186" lon="9.173548991638437"><ele>437.0</ele><time>2026-05-03T13:52:55.001Z</time></trkpt><trkpt lat="42.20392619491426" lon="9.173627475446292"><ele>437.0</ele><time>2026-05-03T13:52:56.001Z</time></trkpt><trkpt lat="42.204036543336315" lon="9.173790714406266"><ele>436.0</ele><time>2026-05-03T13:52:57.001Z</time></trkpt><trkpt lat="42.20409523174726" lon="9.174027869849004"><ele>435.0</ele><time>2026-05-03T13:52:58.001Z</time></trkpt><trkpt lat="42.204174921774495" lon="9.174257724175286"><ele>434.0</ele><time>2026-05-03T13:52:59.001Z</time></trkpt><trkpt lat="42.20426679264431" lon="9.174480815613855"><ele>434.0</ele><time>2026-05-03T13:53:00.001Z</time></trkpt><trkpt lat="42.20441990535755" lon="9.17464193641188"><ele>434.0</ele><time>2026-05-03T13:53:01.001Z</time></trkpt><trkpt lat="42.20461073799499" lon="9.174736424955384"><ele>434.0</ele><time>2026-05-03T13:53:02.001Z</time></trkpt><trkpt lat="42.20482632118798" lon="9.17478389280221"><ele>447.0</ele><time>2026-05-03T13:53:03.001Z</time></trkpt><trkpt lat="42.20505986407333" lon="9.174810079851692"><ele>460.0</ele><time>2026-05-03T13:53:04.001Z</time></trkpt><trkpt lat="42.20530554650607" lon="9.174842308347941"><ele>447.0</ele><time>2026-05-03T13:53:05.001Z</time></trkpt><trkpt lat="42.20555114614071" lon="9.174887068365011"><ele>434.0</ele><time>2026-05-03T13:53:06.001Z</time></trkpt><trkpt lat="42.205799614390145" lon="9.174938336168598"><ele>434.0</ele><time>2026-05-03T13:53:07.001Z</time></trkpt><trkpt lat="42.20605205999608" lon="9.17499078469361"><ele>434.0</ele><time>2026-05-03T13:53:08.001Z</time></trkpt><trkpt lat="42.20629038564083" lon="9.17504227623137"><ele>438.3333333333333</ele><time>2026-05-03T13:53:09.001Z</time></trkpt><trkpt lat="42.20650360388272" lon="9.175098890230231"><ele>442.66666666666663</ele><time>2026-05-03T13:53:10.002Z</time></trkpt><trkpt lat="42.20670291816605" lon="9.175152359742974"><ele>447.0</ele><time>2026-05-03T13:53:11.002Z</time></trkpt><trkpt lat="42.206892110619215" lon="9.175210295118184"><ele>447.0</ele><time>2026-05-03T13:53:12.002Z</time></trkpt><trkpt lat="42.20706830571439" lon="9.175271394319491"><ele>447.0</ele><time>2026-05-03T13:53:13.002Z</time></trkpt><trkpt lat="42.20723220325447" lon="9.175324872961312"><ele>447.0</ele><time>2026-05-03T13:53:14.002Z</time></trkpt><trkpt lat="42.20739509316347" lon="9.17535723596101"><ele>448.66666666666663</ele><time>2026-05-03T13:53:15.002Z</time></trkpt><trkpt lat="42.20756070041262" lon="9.175337859741727"><ele>450.3333333333333</ele><time>2026-05-03T13:53:16.002Z</time></trkpt><trkpt lat="42.207707686999235" lon="9.17525634237916"><ele>452.0</ele><time>2026-05-03T13:53:17.002Z</time></trkpt><trkpt lat="42.207844001834125" lon="9.175166062999356"><ele>452.0</ele><time>2026-05-03T13:53:18.002Z</time></trkpt><trkpt lat="42.207983249537925" lon="9.175148044232266"><ele>452.0</ele><time>2026-05-03T13:53:19.002Z</time></trkpt><trkpt lat="42.20811659042884" lon="9.175270472192125"><ele>452.0</ele><time>2026-05-03T13:53:20.002Z</time></trkpt><trkpt lat="42.20825530085258" lon="9.175411493277586"><ele>455.3333333333333</ele><time>2026-05-03T13:53:21.002Z</time></trkpt><trkpt lat="42.208419808762955" lon="9.175506422955998"><ele>458.66666666666663</ele><time>2026-05-03T13:53:22.002Z</time></trkpt><trkpt lat="42.20860376135785" lon="9.175589709856082"><ele>462.0</ele><time>2026-05-03T13:53:23.002Z</time></trkpt><trkpt lat="42.20880464433972" lon="9.175658059538861"><ele>454.33333333333337</ele><time>2026-05-03T13:53:24.002Z</time></trkpt><trkpt lat="42.20901667869008" lon="9.175728317443651"><ele>446.6666666666667</ele><time>2026-05-03T13:53:25.002Z</time></trkpt><trkpt lat="42.20923488051448" lon="9.175788441680663"><ele>439.0</ele><time>2026-05-03T13:53:26.002Z</time></trkpt><trkpt lat="42.20946209472548" lon="9.175822791892758"><ele>439.0</ele><time>2026-05-03T13:53:27.002Z</time></trkpt><trkpt lat="42.209669284050385" lon="9.175859235165348"><ele>439.0</ele><time>2026-05-03T13:53:28.002Z</time></trkpt><trkpt lat="42.20984747044252" lon="9.175945088790664"><ele>439.0</ele><time>2026-05-03T13:53:29.002Z</time></trkpt><trkpt lat="42.20997947252934" lon="9.17611253648585"><ele>434.6666666666667</ele><time>2026-05-03T13:53:30.002Z</time></trkpt><trkpt lat="42.21009448054881" lon="9.176303456400877"><ele>430.33333333333337</ele><time>2026-05-03T13:53:31.002Z</time></trkpt><trkpt lat="42.21024269478958" lon="9.176473785541951"><ele>426.0</ele><time>2026-05-03T13:53:32.002Z</time></trkpt><trkpt lat="42.21042369098363" lon="9.176604351724025"><ele>426.0</ele><time>2026-05-03T13:53:33.002Z</time></trkpt><trkpt lat="42.210638541752196" lon="9.176691788759634"><ele>426.0</ele><time>2026-05-03T13:53:34.002Z</time></trkpt><trkpt lat="42.21085505639592" lon="9.176773521013265"><ele>426.0</ele><time>2026-05-03T13:53:35.002Z</time></trkpt><trkpt lat="42.211063924349645" lon="9.176863101215057"><ele>432.0</ele><time>2026-05-03T13:53:36.002Z</time></trkpt><trkpt lat="42.21125217575681" lon="9.176952171910532"><ele>438.0</ele><time>2026-05-03T13:53:37.002Z</time></trkpt><trkpt lat="42.21143485494692" lon="9.177032273226418"><ele>444.0</ele><time>2026-05-03T13:53:38.002Z</time></trkpt><trkpt lat="42.2116149642563" lon="9.177098826382304"><ele>448.33333333333337</ele><time>2026-05-03T13:53:39.002Z</time></trkpt><trkpt lat="42.21179324150538" lon="9.17713266120576"><ele>452.6666666666667</ele><time>2026-05-03T13:53:40.002Z</time></trkpt><trkpt lat="42.211971377354345" lon="9.17711068678778"><ele>457.0</ele><time>2026-05-03T13:53:41.002Z</time></trkpt><trkpt lat="42.212152016752555" lon="9.177047489816388"><ele>456.6666666666667</ele><time>2026-05-03T13:53:42.003Z</time></trkpt><trkpt lat="42.21232497839349" lon="9.176962286671124"><ele>456.33333333333337</ele><time>2026-05-03T13:53:43.003Z</time></trkpt><trkpt lat="42.212480196601334" lon="9.176878381681888"><ele>456.0</ele><time>2026-05-03T13:53:44.003Z</time></trkpt><trkpt lat="42.21262571195656" lon="9.176818818145664"><ele>456.0</ele><time>2026-05-03T13:53:45.003Z</time></trkpt><trkpt lat="42.21276399224972" lon="9.176779399723022"><ele>456.0</ele><time>2026-05-03T13:53:46.003Z</time></trkpt><trkpt lat="42.21289556464255" lon="9.176785958514715"><ele>456.0</ele><time>2026-05-03T13:53:47.003Z</time></trkpt><trkpt lat="42.21303137671937" lon="9.176858928764391"><ele>456.0</ele><time>2026-05-03T13:53:48.003Z</time></trkpt><trkpt lat="42.21317790924871" lon="9.176975189571444"><ele>460.0</ele><time>2026-05-03T13:53:49.003Z</time></trkpt><trkpt lat="42.21332346320971" lon="9.177077585357935"><ele>464.0</ele><time>2026-05-03T13:53:50.003Z</time></trkpt><trkpt lat="42.21346983754638" lon="9.177161587152211"><ele>468.0</ele><time>2026-05-03T13:53:51.003Z</time></trkpt><trkpt lat="42.213621155496774" lon="9.177228518646853"><ele>468.0</ele><time>2026-05-03T13:53:52.003Z</time></trkpt><trkpt lat="42.21378516136916" lon="9.177261705739152"><ele>468.0</ele><time>2026-05-03T13:53:53.003Z</time></trkpt><trkpt lat="42.21397392086039" lon="9.177239791477135"><ele>468.0</ele><time>2026-05-03T13:53:54.003Z</time></trkpt><trkpt lat="42.21416342808112" lon="9.177167426384887"><ele>470.0</ele><time>2026-05-03T13:53:55.003Z</time></trkpt><trkpt lat="42.214333585933375" lon="9.177048856374883"><ele>472.0</ele><time>2026-05-03T13:53:56.003Z</time></trkpt><trkpt lat="42.214497052664136" lon="9.176916134225184"><ele>474.0</ele><time>2026-05-03T13:53:57.003Z</time></trkpt><trkpt lat="42.2146638493763" lon="9.176823982132559"><ele>474.0</ele><time>2026-05-03T13:53:58.003Z</time></trkpt><trkpt lat="42.21481151238979" lon="9.176714655386862"><ele>474.0</ele><time>2026-05-03T13:53:59.003Z</time></trkpt><trkpt lat="42.214950323758096" lon="9.176652475768627"><ele>474.0</ele><time>2026-05-03T13:54:00.003Z</time></trkpt><trkpt lat="42.215064823812135" lon="9.176606288598336"><ele>474.0</ele><time>2026-05-03T13:54:01.003Z</time></trkpt><trkpt lat="42.21516884978028" lon="9.176572912965144"><ele>473.5</ele><time>2026-05-03T13:54:02.003Z</time></trkpt><trkpt lat="42.21529320868826" lon="9.176569341080976"><ele>473.0</ele><time>2026-05-03T13:54:03.003Z</time></trkpt><trkpt lat="42.215429244240596" lon="9.176643309067654"><ele>472.5</ele><time>2026-05-03T13:54:04.003Z</time></trkpt><trkpt lat="42.21554622322343" lon="9.176764710749994"><ele>472.0</ele><time>2026-05-03T13:54:05.003Z</time></trkpt><trkpt lat="42.21565848272503" lon="9.176901469743084"><ele>469.75</ele><time>2026-05-03T13:54:06.003Z</time></trkpt><trkpt lat="42.215768270816476" lon="9.177015663568243"><ele>467.5</ele><time>2026-05-03T13:54:07.003Z</time></trkpt><trkpt lat="42.21588724162562" lon="9.177128522689483"><ele>465.25</ele><time>2026-05-03T13:54:08.003Z</time></trkpt><trkpt lat="42.216012118788065" lon="9.177244422630748"><ele>463.0</ele><time>2026-05-03T13:54:09.003Z</time></trkpt><trkpt lat="42.21614023266271" lon="9.177362666970476"><ele>463.0</ele><time>2026-05-03T13:54:10.003Z</time></trkpt><trkpt lat="42.21626708113387" lon="9.177468327515538"><ele>463.0</ele><time>2026-05-03T13:54:11.003Z</time></trkpt><trkpt lat="42.21639161257096" lon="9.177551902422865"><ele>463.0</ele><time>2026-05-03T13:54:11.999Z</time></trkpt><trkpt lat="42.21651584137672" lon="9.177599463479343"><ele>463.0</ele><time>2026-05-03T13:54:12.999Z</time></trkpt><trkpt lat="42.216656082945704" lon="9.177565808454307"><ele>466.25</ele><time>2026-05-03T13:54:13.999Z</time></trkpt><trkpt lat="42.21678914148497" lon="9.177485532255103"><ele>469.5</ele><time>2026-05-03T13:54:14.999Z</time></trkpt><trkpt lat="42.21689408175114" lon="9.177358634958278"><ele>472.75</ele><time>2026-05-03T13:54:15.999Z</time></trkpt><trkpt lat="42.216986247533086" lon="9.17720296230505"><ele>476.0</ele><time>2026-05-03T13:54:16.999Z</time></trkpt><trkpt lat="42.217066636689026" lon="9.17703091747501"><ele>480.66666666666663</ele><time>2026-05-03T13:54:17.999Z</time></trkpt><trkpt lat="42.21715242962564" lon="9.17686123602667"><ele>485.33333333333337</ele><time>2026-05-03T13:54:18.999Z</time></trkpt><trkpt lat="42.21726067654625" lon="9.176712895741415"><ele>490.0</ele><time>2026-05-03T13:54:19.999Z</time></trkpt><trkpt lat="42.21739301679788" lon="9.17661324374524"><ele>490.0</ele><time>2026-05-03T13:54:20.999Z</time></trkpt><trkpt lat="42.21755053632474" lon="9.176559849665239"><ele>490.0</ele><time>2026-05-03T13:54:21.999Z</time></trkpt><trkpt lat="42.21771725996564" lon="9.176529686355357"><ele>490.0</ele><time>2026-05-03T13:54:22.999Z</time></trkpt><trkpt lat="42.21787901979761" lon="9.176494030515565"><ele>495.6666666666667</ele><time>2026-05-03T13:54:23.999Z</time></trkpt><trkpt lat="42.21803318104806" lon="9.1764258977063"><ele>501.33333333333337</ele><time>2026-05-03T13:54:24.999Z</time></trkpt><trkpt lat="42.21818116314326" lon="9.176350624514328"><ele>507.0</ele><time>2026-05-03T13:54:25.999Z</time></trkpt><trkpt lat="42.21832617785271" lon="9.176254310411277"><ele>507.0</ele><time>2026-05-03T13:54:26.999Z</time></trkpt><trkpt lat="42.218477856785015" lon="9.176156391584058"><ele>507.0</ele><time>2026-05-03T13:54:27.999Z</time></trkpt><trkpt lat="42.218640440788946" lon="9.176077930033502"><ele>507.0</ele><time>2026-05-03T13:54:29Z</time></trkpt><trkpt lat="42.21881612469806" lon="9.176019897824808"><ele>505.33333333333337</ele><time>2026-05-03T13:54:30Z</time></trkpt><trkpt lat="42.21899299780233" lon="9.17599340863779"><ele>503.6666666666667</ele><time>2026-05-03T13:54:31Z</time></trkpt><trkpt lat="42.21917361894043" lon="9.175980488145825"><ele>502.0</ele><time>2026-05-03T13:54:32Z</time></trkpt><trkpt lat="42.219348698630895" lon="9.175957560652611"><ele>502.0</ele><time>2026-05-03T13:54:33Z</time></trkpt><trkpt lat="42.21952315252744" lon="9.175929674605271"><ele>502.0</ele><time>2026-05-03T13:54:34Z</time></trkpt><trkpt lat="42.219675926028486" lon="9.175919362764938"><ele>502.0</ele><time>2026-05-03T13:54:35Z</time></trkpt><trkpt lat="42.219813909993135" lon="9.175897379961384"><ele>502.5</ele><time>2026-05-03T13:54:36Z</time></trkpt><trkpt lat="42.219936475896745" lon="9.175905885770417"><ele>503.0</ele><time>2026-05-03T13:54:37Z</time></trkpt><trkpt lat="42.22005192039743" lon="9.175955444776784"><ele>503.5</ele><time>2026-05-03T13:54:38Z</time></trkpt><trkpt lat="42.22015971072054" lon="9.176070077018014"><ele>504.0</ele><time>2026-05-03T13:54:39Z</time></trkpt><trkpt lat="42.22025493308896" lon="9.176225161987507"><ele>504.0</ele><time>2026-05-03T13:54:40Z</time></trkpt><trkpt lat="42.220338256222206" lon="9.176409704779152"><ele>504.0</ele><time>2026-05-03T13:54:41Z</time></trkpt><trkpt lat="42.220418081179005" lon="9.176591870678747"><ele>504.0</ele><time>2026-05-03T13:54:42Z</time></trkpt><trkpt lat="42.22049752910188" lon="9.176766209667898"><ele>507.25</ele><time>2026-05-03T13:54:43Z</time></trkpt><trkpt lat="42.2205806082054" lon="9.176923928390393"><ele>510.5</ele><time>2026-05-03T13:54:44Z</time></trkpt><trkpt lat="42.22065587110771" lon="9.177064605996106"><ele>513.75</ele><time>2026-05-03T13:54:45Z</time></trkpt><trkpt lat="42.220722069447085" lon="9.177195173203945"><ele>517.0</ele><time>2026-05-03T13:54:46Z</time></trkpt><trkpt lat="42.22078555008622" lon="9.177335651892985"><ele>513.75</ele><time>2026-05-03T13:54:47Z</time></trkpt><trkpt lat="42.22085257580915" lon="9.17747347391441"><ele>510.5</ele><time>2026-05-03T13:54:48Z</time></trkpt><trkpt lat="42.2209244399065" lon="9.17760959693982"><ele>507.25</ele><time>2026-05-03T13:54:49.001Z</time></trkpt><trkpt lat="42.221006421701766" lon="9.177738513059236"><ele>504.0</ele><time>2026-05-03T13:54:50.001Z</time></trkpt><trkpt lat="42.22111652482014" lon="9.177855056403672"><ele>504.0</ele><time>2026-05-03T13:54:51.001Z</time></trkpt><trkpt lat="42.221257634724076" lon="9.177949449593587"><ele>504.0</ele><time>2026-05-03T13:54:52.001Z</time></trkpt><trkpt lat="42.22139935507245" lon="9.17802887746802"><ele>504.0</ele><time>2026-05-03T13:54:53.001Z</time></trkpt><trkpt lat="42.22153557221478" lon="9.178105253442"><ele>506.25</ele><time>2026-05-03T13:54:54.001Z</time></trkpt><trkpt lat="42.2216687496923" lon="9.178188690058127"><ele>508.5</ele><time>2026-05-03T13:54:55.001Z</time></trkpt><trkpt lat="42.22178423894023" lon="9.178278207098662"><ele>510.75</ele><time>2026-05-03T13:54:56.001Z</time></trkpt><trkpt lat="42.22187464435772" lon="9.178366165688285"><ele>513.0</ele><time>2026-05-03T13:54:57.001Z</time></trkpt><trkpt lat="42.22192205638901" lon="9.17846992555571"><ele>513.0</ele><time>2026-05-03T13:54:58.001Z</time></trkpt><trkpt lat="42.2219724425007" lon="9.17855046939773"><ele>513.0</ele><time>2026-05-03T13:54:59.001Z</time></trkpt><trkpt lat="42.22202431437091" lon="9.178612483352756"><ele>513.0</ele><time>2026-05-03T13:55:00.001Z</time></trkpt><trkpt lat="42.22209381645212" lon="9.178727723461956"><ele>513.0</ele><time>2026-05-03T13:55:02.001Z</time></trkpt><trkpt lat="42.22214818233924" lon="9.178815256844263"><ele>513.0</ele><time>2026-05-03T13:55:04.001Z</time></trkpt><trkpt lat="42.22221295558771" lon="9.178940142036684"><ele>514.8</ele><time>2026-05-03T13:55:06.001Z</time></trkpt><trkpt lat="42.222292093514945" lon="9.179086207887964"><ele>516.5999999999999</ele><time>2026-05-03T13:55:08.001Z</time></trkpt><trkpt lat="42.22234524506559" lon="9.179165868643167"><ele>518.4000000000001</ele><time>2026-05-03T13:55:09.001Z</time></trkpt><trkpt lat="42.22240848512756" lon="9.179244746119107"><ele>520.2</ele><time>2026-05-03T13:55:10.001Z</time></trkpt><trkpt lat="42.22248165085136" lon="9.17931991156539"><ele>522.0</ele><time>2026-05-03T13:55:11.001Z</time></trkpt><trkpt lat="42.22256567788199" lon="9.179377935445691"><ele>522.0</ele><time>2026-05-03T13:55:12.001Z</time></trkpt><trkpt lat="42.222659939240586" lon="9.179414766704214"><ele>522.0</ele><time>2026-05-03T13:55:13.001Z</time></trkpt><trkpt lat="42.222762786643024" lon="9.1794312386651"><ele>522.0</ele><time>2026-05-03T13:55:14.001Z</time></trkpt><trkpt lat="42.222873578750814" lon="9.179437288663898"><ele>522.0</ele><time>2026-05-03T13:55:15.001Z</time></trkpt><trkpt lat="42.22298950073309" lon="9.179441688035196"><ele>522.0</ele><time>2026-05-03T13:55:16.001Z</time></trkpt><trkpt lat="42.223110272478046" lon="9.179452600414114"><ele>524.5</ele><time>2026-05-03T13:55:17.001Z</time></trkpt><trkpt lat="42.22321506002941" lon="9.179468446767354"><ele>527.0</ele><time>2026-05-03T13:55:18.002Z</time></trkpt><trkpt lat="42.22331309605821" lon="9.179483801776643"><ele>529.5</ele><time>2026-05-03T13:55:19.002Z</time></trkpt><trkpt lat="42.22339858574116" lon="9.179498643527305"><ele>532.0</ele><time>2026-05-03T13:55:20.002Z</time></trkpt><trkpt lat="42.22347282950346" lon="9.179519882154382"><ele>534.5</ele><time>2026-05-03T13:55:21.002Z</time></trkpt><trkpt lat="42.223542984091665" lon="9.179546036129562"><ele>537.0</ele><time>2026-05-03T13:55:22.002Z</time></trkpt><trkpt lat="42.223614878290455" lon="9.179573968685766"><ele>537.0</ele><time>2026-05-03T13:55:23.002Z</time></trkpt><trkpt lat="42.2236890535967" lon="9.17960345617969"><ele>537.0</ele><time>2026-05-03T13:55:24.002Z</time></trkpt><trkpt lat="42.22376776809647" lon="9.179639163525643"><ele>537.0</ele><time>2026-05-03T13:55:25.002Z</time></trkpt><trkpt lat="42.22385214495583" lon="9.179685305109995"><ele>537.0</ele><time>2026-05-03T13:55:26.002Z</time></trkpt><trkpt lat="42.22394370768138" lon="9.179738212078789"><ele>537.0</ele><time>2026-05-03T13:55:27.002Z</time></trkpt><trkpt lat="42.2240389814438" lon="9.179793805274889"><ele>535.6</ele><time>2026-05-03T13:55:28.002Z</time></trkpt><trkpt lat="42.224130846155965" lon="9.179865566862787"><ele>534.2</ele><time>2026-05-03T13:55:29.002Z</time></trkpt><trkpt lat="42.22420790554472" lon="9.17996211923412"><ele>532.8</ele><time>2026-05-03T13:55:30.002Z</time></trkpt><trkpt lat="42.22426820497482" lon="9.180079855622356"><ele>531.4</ele><time>2026-05-03T13:55:31.002Z</time></trkpt><trkpt lat="42.22431157952894" lon="9.180212201245759"><ele>530.0</ele><time>2026-05-03T13:55:32.002Z</time></trkpt><trkpt lat="42.22434983869558" lon="9.180334733558698"><ele>530.0</ele><time>2026-05-03T13:55:33.002Z</time></trkpt><trkpt lat="42.224384381365724" lon="9.180443928878576"><ele>530.0</ele><time>2026-05-03T13:55:34.002Z</time></trkpt><trkpt lat="42.224419091482304" lon="9.180543030109535"><ele>530.0</ele><time>2026-05-03T13:55:35.002Z</time></trkpt><trkpt lat="42.22445527215264" lon="9.180639822130903"><ele>530.0</ele><time>2026-05-03T13:55:36.002Z</time></trkpt><trkpt lat="42.22447512560489" lon="9.180746673888406"><ele>530.0</ele><time>2026-05-03T13:55:37.002Z</time></trkpt><trkpt lat="42.224517852270495" lon="9.180841187320516"><ele>530.0</ele><time>2026-05-03T13:55:38.002Z</time></trkpt><trkpt lat="42.224563128713385" lon="9.180931648937415"><ele>530.8</ele><time>2026-05-03T13:55:39.002Z</time></trkpt><trkpt lat="42.22461279231136" lon="9.181010234483812"><ele>531.6</ele><time>2026-05-03T13:55:40.002Z</time></trkpt><trkpt lat="42.22469880472734" lon="9.18110442007934"><ele>532.4</ele><time>2026-05-03T13:55:42.002Z</time></trkpt><trkpt lat="42.224797148345566" lon="9.181174145979073"><ele>533.2</ele><time>2026-05-03T13:55:44.002Z</time></trkpt><trkpt lat="42.22487870000158" lon="9.1811891456653"><ele>534.0</ele><time>2026-05-03T13:55:46.002Z</time></trkpt><trkpt lat="42.2249566526224" lon="9.18120227839722"><ele>534.0</ele><time>2026-05-03T13:55:53.003Z</time></trkpt><trkpt lat="42.225034552566406" lon="9.18121015657445"><ele>534.0</ele><time>2026-05-03T13:56:26.999Z</time></trkpt><trkpt lat="42.22510097010277" lon="9.18119544446804"><ele>534.0</ele><time>2026-05-03T13:56:28.999Z</time></trkpt><trkpt lat="42.22516999343611" lon="9.181165111957858"><ele>534.0</ele><time>2026-05-03T13:56:30.999Z</time></trkpt><trkpt lat="42.22526457620688" lon="9.181107853981809"><ele>534.0</ele><time>2026-05-03T13:56:32.999Z</time></trkpt><trkpt lat="42.225364998572616" lon="9.181010904298859"><ele>534.0</ele><time>2026-05-03T13:56:35Z</time></trkpt><trkpt lat="42.22542244200882" lon="9.180923792936941"><ele>534.0000000000001</ele><time>2026-05-03T13:56:37Z</time></trkpt><trkpt lat="42.2254727541334" lon="9.180822494112919"><ele>534.0</ele><time>2026-05-03T13:56:40Z</time></trkpt><trkpt lat="42.22549764795137" lon="9.180742152811755"><ele>534.0</ele><time>2026-05-03T13:56:42Z</time></trkpt><trkpt lat="42.22552492981198" lon="9.180649865694042"><ele>534.0</ele><time>2026-05-03T13:56:45Z</time></trkpt><trkpt lat="42.225533543313425" lon="9.180555701446453"><ele>534.0</ele><time>2026-05-03T13:56:47Z</time></trkpt><trkpt lat="42.22555434203542" lon="9.18045989949755"><ele>534.0000000000001</ele><time>2026-05-03T13:56:50Z</time></trkpt><trkpt lat="42.22557901602352" lon="9.180370889002457"><ele>534.0</ele><time>2026-05-03T13:56:55.001Z</time></trkpt><trkpt lat="42.22560158736193" lon="9.180255737251015"><ele>533.6666666666666</ele><time>2026-05-03T13:56:59.001Z</time></trkpt><trkpt lat="42.22561580667193" lon="9.180155913703624"><ele>533.3333333333334</ele><time>2026-05-03T13:57:02.001Z</time></trkpt><trkpt lat="42.225629843420926" lon="9.180055595683605"><ele>533.0</ele><time>2026-05-03T13:57:22.002Z</time></trkpt><trkpt lat="42.225651087566646" lon="9.179947633673077"><ele>532.6666666666667</ele><time>2026-05-03T13:57:25.002Z</time></trkpt><trkpt lat="42.2256683428747" lon="9.179821413722093"><ele>532.3333333333334</ele><time>2026-05-03T13:57:27.002Z</time></trkpt><trkpt lat="42.22570326395536" lon="9.179669510327514"><ele>532.0</ele><time>2026-05-03T13:57:29.002Z</time></trkpt><trkpt lat="42.22572208496806" lon="9.179586814236757"><ele>534.8000000000001</ele><time>2026-05-03T13:57:30.002Z</time></trkpt><trkpt lat="42.225753442691285" lon="9.179457858848087"><ele>537.6</ele><time>2026-05-03T13:57:32.002Z</time></trkpt><trkpt lat="42.22578522217114" lon="9.179308232053685"><ele>540.4000000000001</ele><time>2026-05-03T13:57:34.002Z</time></trkpt><trkpt lat="42.22582908082802" lon="9.179229348384261"><ele>543.2</ele><time>2026-05-03T13:57:35.002Z</time></trkpt><trkpt lat="42.225879141985736" lon="9.179139716605619"><ele>546.0</ele><time>2026-05-03T13:57:36.002Z</time></trkpt><trkpt lat="42.225934969748025" lon="9.179056134521403"><ele>548.6666666666666</ele><time>2026-05-03T13:57:37.002Z</time></trkpt><trkpt lat="42.22599507572599" lon="9.179005645742755"><ele>551.3333333333334</ele><time>2026-05-03T13:57:38.002Z</time></trkpt><trkpt lat="42.2260761036609" lon="9.178955843460297"><ele>554.0</ele><time>2026-05-03T13:57:40.002Z</time></trkpt><trkpt lat="42.226143245749995" lon="9.178908568462262"><ele>556.6666666666667</ele><time>2026-05-03T13:57:44.002Z</time></trkpt><trkpt lat="42.22621256305344" lon="9.17885235146136"><ele>559.3333333333334</ele><time>2026-05-03T13:57:47.002Z</time></trkpt><trkpt lat="42.2262852025232" lon="9.17881317319776"><ele>562.0</ele><time>2026-05-03T13:57:49.002Z</time></trkpt><trkpt lat="42.22637028068886" lon="9.178760366337741"><ele>559.4</ele><time>2026-05-03T13:57:51.002Z</time></trkpt><trkpt lat="42.2264781719608" lon="9.178699499192708"><ele>556.8000000000001</ele><time>2026-05-03T13:57:53.002Z</time></trkpt><trkpt lat="42.226553691878664" lon="9.178626010203418"><ele>554.2</ele><time>2026-05-03T13:57:55.003Z</time></trkpt><trkpt lat="42.22659953778257" lon="9.178558725037675"><ele>551.6</ele><time>2026-05-03T13:57:57.003Z</time></trkpt><trkpt lat="42.22666302353061" lon="9.178458167340688"><ele>549.0</ele><time>2026-05-03T13:58:00.003Z</time></trkpt><trkpt lat="42.22670167877881" lon="9.178364579599581"><ele>549.0</ele><time>2026-05-03T13:58:03.003Z</time></trkpt><trkpt lat="42.2267217384409" lon="9.178255514278614"><ele>549.0</ele><time>2026-05-03T13:58:06.003Z</time></trkpt><trkpt lat="42.22674664211748" lon="9.178176145517114"><ele>549.0</ele><time>2026-05-03T13:58:08.003Z</time></trkpt><trkpt lat="42.22677230912379" lon="9.178073015391115"><ele>549.0</ele><time>2026-05-03T13:58:11.003Z</time></trkpt><trkpt lat="42.22679940493975" lon="9.177991845650286"><ele>549.0</ele><time>2026-05-03T13:58:15.003Z</time></trkpt><trkpt lat="42.22681848611022" lon="9.177888848785601"><ele>549.0</ele><time>2026-05-03T13:58:17.003Z</time></trkpt><trkpt lat="42.226855513836455" lon="9.177771070427697"><ele>552.6</ele><time>2026-05-03T13:58:20.003Z</time></trkpt><trkpt lat="42.22688650956112" lon="9.177638197735982"><ele>556.2</ele><time>2026-05-03T13:58:22.003Z</time></trkpt><trkpt lat="42.22691921466004" lon="9.177509894120043"><ele>559.8000000000001</ele><time>2026-05-03T13:58:23.999Z</time></trkpt><trkpt lat="42.22696977922065" lon="9.177361331620128"><ele>563.4</ele><time>2026-05-03T13:58:25.999Z</time></trkpt><trkpt lat="42.226997255058656" lon="9.177278295795322"><ele>567.0</ele><time>2026-05-03T13:58:26.999Z</time></trkpt><trkpt lat="42.227044994924604" lon="9.177136415127624"><ele>566.0</ele><time>2026-05-03T13:58:28.999Z</time></trkpt><trkpt lat="42.227079106140124" lon="9.1770526332816"><ele>565.0</ele><time>2026-05-03T13:58:29.999Z</time></trkpt><trkpt lat="42.2271276625497" lon="9.176977720454289"><ele>564.0</ele><time>2026-05-03T13:58:30.999Z</time></trkpt><trkpt lat="42.227191442632275" lon="9.176926247730233"><ele>563.0</ele><time>2026-05-03T13:58:31.999Z</time></trkpt><trkpt lat="42.227308350624526" lon="9.176919747653667"><ele>562.0</ele><time>2026-05-03T13:58:33.999Z</time></trkpt><trkpt lat="42.22738319391417" lon="9.176961736833958"><ele>561.0</ele><time>2026-05-03T13:58:34.999Z</time></trkpt><trkpt lat="42.22746325156965" lon="9.177010298119972"><ele>561.0</ele><time>2026-05-03T13:58:35.999Z</time></trkpt><trkpt lat="42.22754694350322" lon="9.177040641262277"><ele>561.0</ele><time>2026-05-03T13:58:36.999Z</time></trkpt><trkpt lat="42.22762701943244" lon="9.177037549019671"><ele>561.0</ele><time>2026-05-03T13:58:37.999Z</time></trkpt><trkpt lat="42.22770070630574" lon="9.177011986909068"><ele>561.0</ele><time>2026-05-03T13:58:38.999Z</time></trkpt><trkpt lat="42.227759738391654" lon="9.17696109544924"><ele>561.0</ele><time>2026-05-03T13:58:39.999Z</time></trkpt><trkpt lat="42.22781248994801" lon="9.176882903899038"><ele>561.0</ele><time>2026-05-03T13:58:41Z</time></trkpt><trkpt lat="42.22784811195113" lon="9.176775794240235"><ele>561.0</ele><time>2026-05-03T13:58:42Z</time></trkpt><trkpt lat="42.22785903519285" lon="9.176653005315817"><ele>561.0</ele><time>2026-05-03T13:58:43Z</time></trkpt><trkpt lat="42.22785796184068" lon="9.176543655703005"><ele>561.0</ele><time>2026-05-03T13:58:44Z</time></trkpt><trkpt lat="42.22785515467476" lon="9.17643725239428"><ele>561.0</ele><time>2026-05-03T13:58:45Z</time></trkpt><trkpt lat="42.227845013612765" lon="9.17632246929992"><ele>561.0</ele><time>2026-05-03T13:58:46Z</time></trkpt><trkpt lat="42.22783271762043" lon="9.17622270956217"><ele>561.0</ele><time>2026-05-03T13:58:47Z</time></trkpt><trkpt lat="42.227809948143545" lon="9.17608659294566"><ele>562.8333333333334</ele><time>2026-05-03T13:58:49Z</time></trkpt><trkpt lat="42.22778481725109" lon="9.1759773609348"><ele>564.6666666666666</ele><time>2026-05-03T13:58:51Z</time></trkpt><trkpt lat="42.22776772492556" lon="9.17584075104107"><ele>566.5</ele><time>2026-05-03T13:58:53Z</time></trkpt><trkpt lat="42.227778686350426" lon="9.17574598522831"><ele>568.3333333333333</ele><time>2026-05-03T13:58:54Z</time></trkpt><trkpt lat="42.22781484006824" lon="9.175651588427826"><ele>570.1666666666666</ele><time>2026-05-03T13:58:55Z</time></trkpt><trkpt lat="42.2278822421624" lon="9.175594648413352"><ele>572.0</ele><time>2026-05-03T13:58:56Z</time></trkpt><trkpt lat="42.22795793795074" lon="9.17558438003298"><ele>572.3333333333333</ele><time>2026-05-03T13:58:57Z</time></trkpt><trkpt lat="42.22803414588824" lon="9.175600736349743"><ele>572.6666666666666</ele><time>2026-05-03T13:58:58Z</time></trkpt><trkpt lat="42.22810867310575" lon="9.175608988344369"><ele>573.0</ele><time>2026-05-03T13:58:59Z</time></trkpt><trkpt lat="42.22818450711094" lon="9.175596722260835"><ele>573.3333333333334</ele><time>2026-05-03T13:59:00Z</time></trkpt><trkpt lat="42.22825786929783" lon="9.17556162483844"><ele>573.6666666666667</ele><time>2026-05-03T13:59:01Z</time></trkpt><trkpt lat="42.228335453973585" lon="9.175507039426703"><ele>574.0</ele><time>2026-05-03T13:59:02.001Z</time></trkpt><trkpt lat="42.22840236340377" lon="9.175413481722572"><ele>574.0</ele><time>2026-05-03T13:59:03.001Z</time></trkpt><trkpt lat="42.2284532413342" lon="9.175300029603443"><ele>574.0</ele><time>2026-05-03T13:59:04.001Z</time></trkpt><trkpt lat="42.228470913517775" lon="9.175177457102937"><ele>574.0</ele><time>2026-05-03T13:59:05.001Z</time></trkpt><trkpt lat="42.228467805333636" lon="9.175050189531994"><ele>574.0</ele><time>2026-05-03T13:59:06.001Z</time></trkpt><trkpt lat="42.228453229526686" lon="9.174935345280705"><ele>574.0</ele><time>2026-05-03T13:59:07.001Z</time></trkpt><trkpt lat="42.228457815801825" lon="9.1748184146276"><ele>576.5</ele><time>2026-05-03T13:59:08.001Z</time></trkpt><trkpt lat="42.22840765304688" lon="9.174711803239106"><ele>579.0</ele><time>2026-05-03T13:59:09.001Z</time></trkpt><trkpt lat="42.22839419971063" lon="9.174586536823949"><ele>581.5</ele><time>2026-05-03T13:59:10.001Z</time></trkpt><trkpt lat="42.228378532701896" lon="9.174462652460535"><ele>584.0</ele><time>2026-05-03T13:59:11.001Z</time></trkpt><trkpt lat="42.22840379085359" lon="9.17434536475699"><ele>586.5</ele><time>2026-05-03T13:59:12.001Z</time></trkpt><trkpt lat="42.228448671474794" lon="9.174264215466556"><ele>589.0</ele><time>2026-05-03T13:59:13.001Z</time></trkpt><trkpt lat="42.22851755424187" lon="9.17420594099223"><ele>589.0</ele><time>2026-05-03T13:59:14.001Z</time></trkpt><trkpt lat="42.22859808948145" lon="9.17418034812329"><ele>589.0</ele><time>2026-05-03T13:59:15.001Z</time></trkpt><trkpt lat="42.22867557503455" lon="9.174152860476584"><ele>589.0</ele><time>2026-05-03T13:59:16.001Z</time></trkpt><trkpt lat="42.22874929711546" lon="9.174108357436603"><ele>589.0</ele><time>2026-05-03T13:59:17.001Z</time></trkpt><trkpt lat="42.22881810277028" lon="9.174051869781952"><ele>589.0</ele><time>2026-05-03T13:59:18.001Z</time></trkpt><trkpt lat="42.22887746154566" lon="9.173992675372645"><ele>589.0</ele><time>2026-05-03T13:59:19.001Z</time></trkpt><trkpt lat="42.22897273639532" lon="9.173894729793588"><ele>588.0</ele><time>2026-05-03T13:59:21.001Z</time></trkpt><trkpt lat="42.229018409572994" lon="9.173835534516249"><ele>587.0</ele><time>2026-05-03T13:59:22.001Z</time></trkpt><trkpt lat="42.229064855709254" lon="9.173772400803857"><ele>586.0</ele><time>2026-05-03T13:59:23.001Z</time></trkpt><trkpt lat="42.22911255566856" lon="9.173709174789286"><ele>585.0</ele><time>2026-05-03T13:59:24.001Z</time></trkpt><trkpt lat="42.2291610916783" lon="9.173642937747994"><ele>584.0</ele><time>2026-05-03T13:59:25.001Z</time></trkpt><trkpt lat="42.22920274951572" lon="9.173573118161249"><ele>583.0</ele><time>2026-05-03T13:59:26.001Z</time></trkpt><trkpt lat="42.22923792594982" lon="9.173490928808155"><ele>582.0</ele><time>2026-05-03T13:59:27.001Z</time></trkpt><trkpt lat="42.22926298208403" lon="9.173407780097298"><ele>582.0</ele><time>2026-05-03T13:59:28.001Z</time></trkpt><trkpt lat="42.229280474323325" lon="9.173273559239263"><ele>582.0</ele><time>2026-05-03T13:59:30.001Z</time></trkpt><trkpt lat="42.2292683820522" lon="9.17314828526873"><ele>582.0</ele><time>2026-05-03T13:59:32.002Z</time></trkpt><trkpt lat="42.22923673368768" lon="9.173032864711661"><ele>582.0</ele><time>2026-05-03T13:59:35.002Z</time></trkpt><trkpt lat="42.22918849723139" lon="9.17295197161697"><ele>582.0</ele><time>2026-05-03T13:59:37.002Z</time></trkpt><trkpt lat="42.22916664921237" lon="9.172829494273973"><ele>585.0</ele><time>2026-05-03T13:59:39.002Z</time></trkpt><trkpt lat="42.229260789562424" lon="9.172745417465872"><ele>588.0</ele><time>2026-05-03T13:59:41.002Z</time></trkpt><trkpt lat="42.229321596845764" lon="9.172799041313034"><ele>591.0</ele><time>2026-05-03T13:59:42.002Z</time></trkpt><trkpt lat="42.229391692028244" lon="9.172832215622943"><ele>594.0</ele><time>2026-05-03T13:59:43.002Z</time></trkpt><trkpt lat="42.22946477061137" lon="9.17284586807614"><ele>597.0</ele><time>2026-05-03T13:59:44.002Z</time></trkpt><trkpt lat="42.229534996001014" lon="9.172899564227775"><ele>600.0</ele><time>2026-05-03T13:59:45.002Z</time></trkpt><trkpt lat="42.22962234497531" lon="9.172902606034091"><ele>600.0</ele><time>2026-05-03T13:59:46.002Z</time></trkpt><trkpt lat="42.22971129692694" lon="9.172935924222351"><ele>600.0</ele><time>2026-05-03T13:59:47.002Z</time></trkpt><trkpt lat="42.22980782952446" lon="9.172975895844278"><ele>600.0</ele><time>2026-05-03T13:59:48.002Z</time></trkpt><trkpt lat="42.229901990425596" lon="9.17301627358745"><ele>600.0</ele><time>2026-05-03T13:59:49.002Z</time></trkpt><trkpt lat="42.229991784050796" lon="9.173059243949533"><ele>600.0</ele><time>2026-05-03T13:59:50.002Z</time></trkpt><trkpt lat="42.230070071867445" lon="9.173091693948361"><ele>600.6666666666666</ele><time>2026-05-03T13:59:51.002Z</time></trkpt><trkpt lat="42.23014102559489" lon="9.173128305484578"><ele>601.3333333333334</ele><time>2026-05-03T13:59:52.002Z</time></trkpt><trkpt lat="42.23020543134171" lon="9.173161067358821"><ele>602.0</ele><time>2026-05-03T13:59:53.002Z</time></trkpt><trkpt lat="42.23026699172312" lon="9.173189329598042"><ele>602.6666666666667</ele><time>2026-05-03T13:59:54.002Z</time></trkpt><trkpt lat="42.23032765653386" lon="9.173212695709942"><ele>603.3333333333334</ele><time>2026-05-03T13:59:55.002Z</time></trkpt><trkpt lat="42.2304412511215" lon="9.173276204408607"><ele>604.0</ele><time>2026-05-03T13:59:57.002Z</time></trkpt><trkpt lat="42.23050130657388" lon="9.173312873560247"><ele>602.6666666666667</ele><time>2026-05-03T13:59:58.002Z</time></trkpt><trkpt lat="42.230556376062935" lon="9.173356370923347"><ele>601.3333333333334</ele><time>2026-05-03T13:59:59.002Z</time></trkpt><trkpt lat="42.230628370289374" lon="9.173421981540697"><ele>600.0</ele><time>2026-05-03T14:00:01.002Z</time></trkpt><trkpt lat="42.230688585188325" lon="9.173476144417027"><ele>598.6666666666666</ele><time>2026-05-03T14:00:06.003Z</time></trkpt><trkpt lat="42.23075122295052" lon="9.173497706790412"><ele>597.3333333333333</ele><time>2026-05-03T14:00:08.003Z</time></trkpt><trkpt lat="42.23085613434982" lon="9.17352230069502"><ele>596.0</ele><time>2026-05-03T14:00:10.003Z</time></trkpt><trkpt lat="42.23097854648786" lon="9.173495044706904"><ele>596.0</ele><time>2026-05-03T14:00:12.003Z</time></trkpt><trkpt lat="42.23104096935702" lon="9.173483635741569"><ele>596.0</ele><time>2026-05-03T14:00:13.003Z</time></trkpt><trkpt lat="42.231084569783086" lon="9.173402998286944"><ele>596.0</ele><time>2026-05-03T14:00:14.003Z</time></trkpt><trkpt lat="42.231165709032446" lon="9.173273774903658"><ele>596.0</ele><time>2026-05-03T14:00:16.003Z</time></trkpt><trkpt lat="42.23120617791835" lon="9.173190455077581"><ele>596.0</ele><time>2026-05-03T14:00:17.003Z</time></trkpt><trkpt lat="42.231250146554366" lon="9.173105137013641"><ele>596.0</ele><time>2026-05-03T14:00:18.003Z</time></trkpt><trkpt lat="42.23129575514588" lon="9.173015348075575"><ele>599.0</ele><time>2026-05-03T14:00:19.003Z</time></trkpt><trkpt lat="42.231339090997565" lon="9.172929239580883"><ele>602.0</ele><time>2026-05-03T14:00:20.003Z</time></trkpt><trkpt lat="42.231366885404526" lon="9.172846449235996"><ele>605.0</ele><time>2026-05-03T14:00:21.003Z</time></trkpt><trkpt lat="42.23140211291593" lon="9.172690837481564"><ele>608.0</ele><time>2026-05-03T14:00:23.003Z</time></trkpt><trkpt lat="42.23143011654675" lon="9.172533850565108"><ele>611.0</ele><time>2026-05-03T14:00:25.003Z</time></trkpt><trkpt lat="42.23143916984405" lon="9.172402203311119"><ele>611.6666666666666</ele><time>2026-05-03T14:00:27.003Z</time></trkpt><trkpt lat="42.231450408561734" lon="9.172313028120618"><ele>612.3333333333333</ele><time>2026-05-03T14:00:29.003Z</time></trkpt><trkpt lat="42.23146289662629" lon="9.172210160606358"><ele>613.0</ele><time>2026-05-03T14:00:30.998Z</time></trkpt><trkpt lat="42.23150894001406" lon="9.17210570065381"><ele>613.6666666666666</ele><time>2026-05-03T14:00:32.998Z</time></trkpt><trkpt lat="42.231577252199855" lon="9.172042066557715"><ele>614.3333333333334</ele><time>2026-05-03T14:00:34.998Z</time></trkpt><trkpt lat="42.23165127220569" lon="9.172034891643712"><ele>615.0</ele><time>2026-05-03T14:00:36.998Z</time></trkpt><trkpt lat="42.231723910520195" lon="9.17211624196791"><ele>615.0</ele><time>2026-05-03T14:00:38.999Z</time></trkpt><trkpt lat="42.231775024500436" lon="9.17219266824569"><ele>615.0</ele><time>2026-05-03T14:00:40.999Z</time></trkpt><trkpt lat="42.23182987953343" lon="9.172279934279144"><ele>615.0</ele><time>2026-05-03T14:00:43.999Z</time></trkpt><trkpt lat="42.23188031842812" lon="9.172332699796307"><ele>615.0</ele><time>2026-05-03T14:00:45.999Z</time></trkpt><trkpt lat="42.23193662427382" lon="9.172411924171481"><ele>615.0</ele><time>2026-05-03T14:00:48.999Z</time></trkpt><trkpt lat="42.23201149325478" lon="9.17246902083322"><ele>615.0</ele><time>2026-05-03T14:00:52Z</time></trkpt><trkpt lat="42.23206733477505" lon="9.17252433741156"><ele>612.75</ele><time>2026-05-03T14:00:54Z</time></trkpt><trkpt lat="42.23218151619398" lon="9.172563741863268"><ele>610.5</ele><time>2026-05-03T14:00:56Z</time></trkpt><trkpt lat="42.232301586163835" lon="9.172566074370247"><ele>608.25</ele><time>2026-05-03T14:00:58Z</time></trkpt><trkpt lat="42.232426717966845" lon="9.17256420872953"><ele>606.0</ele><time>2026-05-03T14:01:00Z</time></trkpt><trkpt lat="42.232584185738034" lon="9.172472730038626"><ele>606.0</ele><time>2026-05-03T14:01:02Z</time></trkpt><trkpt lat="42.232683919124455" lon="9.172463796494288"><ele>606.0</ele><time>2026-05-03T14:01:03Z</time></trkpt><trkpt lat="42.23279118627614" lon="9.172510215739472"><ele>606.0</ele><time>2026-05-03T14:01:04Z</time></trkpt><trkpt lat="42.23290155014697" lon="9.172561874243184"><ele>606.0</ele><time>2026-05-03T14:01:05Z</time></trkpt><trkpt lat="42.23301997305639" lon="9.172607024189094"><ele>608.75</ele><time>2026-05-03T14:01:06Z</time></trkpt><trkpt lat="42.23314065971785" lon="9.17264924235524"><ele>611.5</ele><time>2026-05-03T14:01:07Z</time></trkpt><trkpt lat="42.233262827070604" lon="9.172665048723248"><ele>614.25</ele><time>2026-05-03T14:01:08Z</time></trkpt><trkpt lat="42.233379085502584" lon="9.172650279335015"><ele>617.0</ele><time>2026-05-03T14:01:09.001Z</time></trkpt><trkpt lat="42.23349679380938" lon="9.172603792473415"><ele>617.0</ele><time>2026-05-03T14:01:10.001Z</time></trkpt><trkpt lat="42.233616602153226" lon="9.172563092971277"><ele>617.0</ele><time>2026-05-03T14:01:11.001Z</time></trkpt><trkpt lat="42.23373736206723" lon="9.17254368890425"><ele>617.0</ele><time>2026-05-03T14:01:12.001Z</time></trkpt><trkpt lat="42.233845683183695" lon="9.172556625964466"><ele>617.0</ele><time>2026-05-03T14:01:13.001Z</time></trkpt><trkpt lat="42.23393448066687" lon="9.172605704684775"><ele>616.1666666666666</ele><time>2026-05-03T14:01:14.001Z</time></trkpt><trkpt lat="42.233994145315954" lon="9.172687265326267"><ele>615.3333333333333</ele><time>2026-05-03T14:01:15.001Z</time></trkpt><trkpt lat="42.23400074845217" lon="9.172802256198143"><ele>614.5</ele><time>2026-05-03T14:01:16.001Z</time></trkpt><trkpt lat="42.23399566449779" lon="9.172911026625021"><ele>613.6666666666666</ele><time>2026-05-03T14:01:17.001Z</time></trkpt><trkpt lat="42.2340118194555" lon="9.173027048030715"><ele>612.8333333333334</ele><time>2026-05-03T14:01:18.001Z</time></trkpt><trkpt lat="42.23407685027512" lon="9.173128458333146"><ele>612.0</ele><time>2026-05-03T14:01:19.001Z</time></trkpt><trkpt lat="42.2341510790816" lon="9.17322564133135"><ele>612.0</ele><time>2026-05-03T14:01:20.001Z</time></trkpt><trkpt lat="42.23424487876368" lon="9.173314748166844"><ele>612.0</ele><time>2026-05-03T14:01:21.001Z</time></trkpt><trkpt lat="42.23434323457894" lon="9.173410556532108"><ele>612.0</ele><time>2026-05-03T14:01:22.001Z</time></trkpt><trkpt lat="42.23444557781165" lon="9.173511208461495"><ele>612.0</ele><time>2026-05-03T14:01:23.001Z</time></trkpt><trkpt lat="42.23455372716794" lon="9.173615846594933"><ele>612.0</ele><time>2026-05-03T14:01:24.001Z</time></trkpt><trkpt lat="42.23466785780347" lon="9.173704545412345"><ele>612.0</ele><time>2026-05-03T14:01:25.001Z</time></trkpt><trkpt lat="42.23479774444253" lon="9.173769859231342"><ele>612.0</ele><time>2026-05-03T14:01:26.001Z</time></trkpt><trkpt lat="42.2349374989328" lon="9.173814827436887"><ele>612.0</ele><time>2026-05-03T14:01:27.001Z</time></trkpt><trkpt lat="42.23508514310741" lon="9.17383105203104"><ele>622.0</ele><time>2026-05-03T14:01:28.001Z</time></trkpt><trkpt lat="42.235240017046486" lon="9.173842978071871"><ele>632.0</ele><time>2026-05-03T14:01:29.001Z</time></trkpt><trkpt lat="42.235400311915065" lon="9.173854972811469"><ele>642.0</ele><time>2026-05-03T14:01:30.001Z</time></trkpt><trkpt lat="42.23553757010305" lon="9.173872720873536"><ele>644.0</ele><time>2026-05-03T14:01:31.001Z</time></trkpt><trkpt lat="42.23565792170763" lon="9.17389300523563"><ele>646.0</ele><time>2026-05-03T14:01:32.001Z</time></trkpt><trkpt lat="42.23576587846685" lon="9.173934234546497"><ele>648.0</ele><time>2026-05-03T14:01:33.001Z</time></trkpt><trkpt lat="42.23586192487438" lon="9.173971728919932"><ele>650.0</ele><time>2026-05-03T14:01:34.001Z</time></trkpt><trkpt lat="42.23594960178044" lon="9.174063509745752"><ele>652.0</ele><time>2026-05-03T14:01:35.001Z</time></trkpt><trkpt lat="42.23602418196495" lon="9.174187270534416"><ele>645.75</ele><time>2026-05-03T14:01:36.001Z</time></trkpt><trkpt lat="42.236094100479754" lon="9.174324185189375"><ele>639.5</ele><time>2026-05-03T14:01:37.002Z</time></trkpt><trkpt lat="42.23616696777774" lon="9.174459620703196"><ele>633.25</ele><time>2026-05-03T14:01:38.002Z</time></trkpt><trkpt lat="42.23624956138279" lon="9.17459099118377"><ele>627.0</ele><time>2026-05-03T14:01:39.002Z</time></trkpt><trkpt lat="42.23632047248267" lon="9.174718579001254"><ele>627.0</ele><time>2026-05-03T14:01:40.002Z</time></trkpt><trkpt lat="42.2363844168134" lon="9.174825854126247"><ele>627.0</ele><time>2026-05-03T14:01:41.002Z</time></trkpt><trkpt lat="42.236465765652596" lon="9.174897949708267"><ele>627.0</ele><time>2026-05-03T14:01:42.002Z</time></trkpt><trkpt lat="42.23656786616182" lon="9.174948447584878"><ele>627.0</ele><time>2026-05-03T14:01:43.002Z</time></trkpt><trkpt lat="42.23667668772182" lon="9.174975214215317"><ele>627.0</ele><time>2026-05-03T14:01:44.002Z</time></trkpt><trkpt lat="42.23677807083142" lon="9.175002133275656"><ele>627.6666666666666</ele><time>2026-05-03T14:01:45.002Z</time></trkpt><trkpt lat="42.23686900401779" lon="9.175028036568362"><ele>628.3333333333334</ele><time>2026-05-03T14:01:46.002Z</time></trkpt><trkpt lat="42.2369471095778" lon="9.17504727728121"><ele>629.0</ele><time>2026-05-03T14:01:47.002Z</time></trkpt><trkpt lat="42.23701896730043" lon="9.17506186407859"><ele>629.6666666666667</ele><time>2026-05-03T14:01:48.002Z</time></trkpt><trkpt lat="42.23708779107044" lon="9.175043005687067"><ele>630.3333333333334</ele><time>2026-05-03T14:01:49.002Z</time></trkpt><trkpt lat="42.237171107955135" lon="9.174986855941194"><ele>631.0</ele><time>2026-05-03T14:01:50.002Z</time></trkpt><trkpt lat="42.23725426828853" lon="9.174904883354808"><ele>633.0</ele><time>2026-05-03T14:01:51.002Z</time></trkpt><trkpt lat="42.23732849015344" lon="9.17479460478575"><ele>635.0</ele><time>2026-05-03T14:01:52.002Z</time></trkpt><trkpt lat="42.23737864923505" lon="9.174668720550562"><ele>637.0</ele><time>2026-05-03T14:01:53.002Z</time></trkpt><trkpt lat="42.2374124929808" lon="9.174540563111707"><ele>639.0</ele><time>2026-05-03T14:01:54.002Z</time></trkpt><trkpt lat="42.23745013749799" lon="9.17441924464086"><ele>641.0</ele><time>2026-05-03T14:01:55.002Z</time></trkpt><trkpt lat="42.237497623200674" lon="9.174292533021827"><ele>641.0</ele><time>2026-05-03T14:01:56.002Z</time></trkpt><trkpt lat="42.237555594688516" lon="9.174155475894818"><ele>641.0</ele><time>2026-05-03T14:01:57.002Z</time></trkpt><trkpt lat="42.23762184763293" lon="9.174008374008563"><ele>641.0</ele><time>2026-05-03T14:01:58.002Z</time></trkpt><trkpt lat="42.237684421355105" lon="9.173843525737452"><ele>641.0</ele><time>2026-05-03T14:01:59.002Z</time></trkpt><trkpt lat="42.23773602602931" lon="9.173657038777598"><ele>645.6666666666666</ele><time>2026-05-03T14:02:00.002Z</time></trkpt><trkpt lat="42.23778198202373" lon="9.173459020147682"><ele>650.3333333333334</ele><time>2026-05-03T14:02:01.002Z</time></trkpt><trkpt lat="42.237823026735235" lon="9.17324965579085"><ele>655.0</ele><time>2026-05-03T14:02:02.002Z</time></trkpt><trkpt lat="42.23786827028935" lon="9.17304822239346"><ele>659.75</ele><time>2026-05-03T14:02:03.002Z</time></trkpt><trkpt lat="42.237908274428534" lon="9.172870129407489"><ele>664.5</ele><time>2026-05-03T14:02:04.002Z</time></trkpt><trkpt lat="42.237954230214726" lon="9.172711533797097"><ele>669.25</ele><time>2026-05-03T14:02:05.002Z</time></trkpt><trkpt lat="42.23800619741761" lon="9.172565455028195"><ele>674.0</ele><time>2026-05-03T14:02:06.002Z</time></trkpt><trkpt lat="42.23809625188268" lon="9.172445396105726"><ele>672.75</ele><time>2026-05-03T14:02:07.002Z</time></trkpt><trkpt lat="42.2381956529283" lon="9.172337681541377"><ele>671.5</ele><time>2026-05-03T14:02:08.002Z</time></trkpt><trkpt lat="42.23830445086265" lon="9.17223276094612"><ele>670.25</ele><time>2026-05-03T14:02:09.002Z</time></trkpt><trkpt lat="42.238432572775096" lon="9.1721590499865"><ele>669.0</ele><time>2026-05-03T14:02:10.003Z</time></trkpt><trkpt lat="42.238563846555365" lon="9.172117888491982"><ele>669.0</ele><time>2026-05-03T14:02:11.003Z</time></trkpt><trkpt lat="42.23868543080236" lon="9.172089523605182"><ele>669.0</ele><time>2026-05-03T14:02:12.003Z</time></trkpt><trkpt lat="42.23880064535791" lon="9.172067136509366"><ele>669.0</ele><time>2026-05-03T14:02:13.003Z</time></trkpt><trkpt lat="42.23891774749013" lon="9.17204023716264"><ele>669.0</ele><time>2026-05-03T14:02:14.003Z</time></trkpt><trkpt lat="42.23903599208405" lon="9.17201850439193"><ele>669.0</ele><time>2026-05-03T14:02:15.003Z</time></trkpt><trkpt lat="42.23915521183333" lon="9.171998968947074"><ele>669.0</ele><time>2026-05-03T14:02:16.003Z</time></trkpt><trkpt lat="42.23927456034528" lon="9.17198379598846"><ele>669.0</ele><time>2026-05-03T14:02:17.003Z</time></trkpt><trkpt lat="42.239394739129665" lon="9.171990493506629"><ele>669.0</ele><time>2026-05-03T14:02:18.003Z</time></trkpt><trkpt lat="42.23951571731572" lon="9.172029700374798"><ele>669.0</ele><time>2026-05-03T14:02:19.003Z</time></trkpt><trkpt lat="42.23962688971667" lon="9.172113764175865"><ele>669.0</ele><time>2026-05-03T14:02:20.003Z</time></trkpt><trkpt lat="42.23972072921075" lon="9.17224239563644"><ele>669.0</ele><time>2026-05-03T14:02:21.003Z</time></trkpt><trkpt lat="42.23979068594507" lon="9.172398414956776"><ele>669.0</ele><time>2026-05-03T14:02:22.003Z</time></trkpt><trkpt lat="42.23985302043528" lon="9.172547431707123"><ele>669.25</ele><time>2026-05-03T14:02:23.003Z</time></trkpt><trkpt lat="42.239906593567945" lon="9.17269520334127"><ele>669.5</ele><time>2026-05-03T14:02:24.003Z</time></trkpt><trkpt lat="42.23996786342561" lon="9.172846010516116"><ele>669.75</ele><time>2026-05-03T14:02:25.003Z</time></trkpt><trkpt lat="42.240028759569554" lon="9.172993512337891"><ele>670.0</ele><time>2026-05-03T14:02:26.003Z</time></trkpt><trkpt lat="42.24009114428624" lon="9.173123469870852"><ele>666.25</ele><time>2026-05-03T14:02:27.003Z</time></trkpt><trkpt lat="42.240165485890685" lon="9.17324010412952"><ele>662.5</ele><time>2026-05-03T14:02:28.003Z</time></trkpt><trkpt lat="42.24026304673875" lon="9.173342808705636"><ele>658.75</ele><time>2026-05-03T14:02:29.003Z</time></trkpt><trkpt lat="42.240383511841706" lon="9.173431579288387"><ele>655.0</ele><time>2026-05-03T14:02:30.003Z</time></trkpt><trkpt lat="42.240506241130085" lon="9.173525211660886"><ele>655.0</ele><time>2026-05-03T14:02:31.003Z</time></trkpt><trkpt lat="42.24061974148488" lon="9.173619680411768"><ele>655.0</ele><time>2026-05-03T14:02:32.003Z</time></trkpt><trkpt lat="42.24073141066573" lon="9.173677469530617"><ele>655.0</ele><time>2026-05-03T14:02:33.003Z</time></trkpt><trkpt lat="42.24085642326312" lon="9.173713279213043"><ele>655.0</ele><time>2026-05-03T14:02:34.003Z</time></trkpt><trkpt lat="42.24099737971538" lon="9.173733192741041"><ele>660.0</ele><time>2026-05-03T14:02:35.003Z</time></trkpt><trkpt lat="42.24112678471381" lon="9.173763147302477"><ele>665.0</ele><time>2026-05-03T14:02:35.997Z</time></trkpt><trkpt lat="42.24126043747852" lon="9.173807263837505"><ele>670.0</ele><time>2026-05-03T14:02:36.997Z</time></trkpt><trkpt lat="42.24139735475609" lon="9.17384894814188"><ele>675.0</ele><time>2026-05-03T14:02:37.998Z</time></trkpt><trkpt lat="42.2415391082305" lon="9.17388265399998"><ele>673.25</ele><time>2026-05-03T14:02:38.998Z</time></trkpt><trkpt lat="42.24167579877654" lon="9.173919732573248"><ele>671.5</ele><time>2026-05-03T14:02:39.998Z</time></trkpt><trkpt lat="42.24180675053945" lon="9.173953972513715"><ele>669.75</ele><time>2026-05-03T14:02:40.998Z</time></trkpt><trkpt lat="42.24194431018602" lon="9.17398907231624"><ele>668.0</ele><time>2026-05-03T14:02:41.998Z</time></trkpt><trkpt lat="42.24207475836534" lon="9.17402884288845"><ele>668.0</ele><time>2026-05-03T14:02:42.998Z</time></trkpt><trkpt lat="42.24221237473188" lon="9.1740645036072"><ele>668.0</ele><time>2026-05-03T14:02:43.998Z</time></trkpt><trkpt lat="42.24234694787193" lon="9.174099867074816"><ele>668.0</ele><time>2026-05-03T14:02:44.998Z</time></trkpt><trkpt lat="42.24247954656142" lon="9.17412412949477"><ele>668.0</ele><time>2026-05-03T14:02:45.998Z</time></trkpt><trkpt lat="42.24260281496832" lon="9.17411696032221"><ele>670.25</ele><time>2026-05-03T14:02:46.999Z</time></trkpt><trkpt lat="42.242722921431096" lon="9.174063892852525"><ele>672.5</ele><time>2026-05-03T14:02:47.999Z</time></trkpt><trkpt lat="42.242840632401816" lon="9.173980172643416"><ele>674.75</ele><time>2026-05-03T14:02:48.999Z</time></trkpt><trkpt lat="42.242967263790696" lon="9.173908178383902"><ele>677.0</ele><time>2026-05-03T14:02:49.999Z</time></trkpt><trkpt lat="42.243092014730976" lon="9.173904406038417"><ele>679.2</ele><time>2026-05-03T14:02:50.999Z</time></trkpt><trkpt lat="42.243204397714706" lon="9.173939568993795"><ele>681.4000000000001</ele><time>2026-05-03T14:02:51.999Z</time></trkpt><trkpt lat="42.243322639309724" lon="9.173968368093353"><ele>683.5999999999999</ele><time>2026-05-03T14:02:52.999Z</time></trkpt><trkpt lat="42.243406171112476" lon="9.174072039527987"><ele>685.8</ele><time>2026-05-03T14:02:53.999Z</time></trkpt><trkpt lat="42.243483193201655" lon="9.174149686999554"><ele>688.0</ele><time>2026-05-03T14:02:54.999Z</time></trkpt><trkpt lat="42.24354910974447" lon="9.174223093601734"><ele>688.0</ele><time>2026-05-03T14:02:55.999Z</time></trkpt><trkpt lat="42.24354164012758" lon="9.174359777755717"><ele>688.0</ele><time>2026-05-03T14:02:56.999Z</time></trkpt><trkpt lat="42.243501963243176" lon="9.174506622823074"><ele>688.0</ele><time>2026-05-03T14:02:57.999Z</time></trkpt><trkpt lat="42.243454226380656" lon="9.174650146554571"><ele>688.0</ele><time>2026-05-03T14:02:58.999Z</time></trkpt><trkpt lat="42.243406511901306" lon="9.174825097300895"><ele>688.6666666666667</ele><time>2026-05-03T14:03:00Z</time></trkpt><trkpt lat="42.24335851305149" lon="9.175011854414192"><ele>689.3333333333334</ele><time>2026-05-03T14:03:01Z</time></trkpt><trkpt lat="42.243309189672864" lon="9.175203336145147"><ele>690.0</ele><time>2026-05-03T14:03:02Z</time></trkpt><trkpt lat="42.24325907312016" lon="9.175426852926986"><ele>690.0</ele><time>2026-05-03T14:03:03Z</time></trkpt><trkpt lat="42.24320335668632" lon="9.17565894477491"><ele>690.0</ele><time>2026-05-03T14:03:04Z</time></trkpt><trkpt lat="42.243139372984345" lon="9.175899335007625"><ele>690.0</ele><time>2026-05-03T14:03:05Z</time></trkpt><trkpt lat="42.24305504297908" lon="9.176123432101576"><ele>686.0</ele><time>2026-05-03T14:03:06Z</time></trkpt><trkpt lat="42.24295437055199" lon="9.17633397344175"><ele>682.0</ele><time>2026-05-03T14:03:07Z</time></trkpt><trkpt lat="42.242852625195624" lon="9.176537457315424"><ele>678.0</ele><time>2026-05-03T14:03:08Z</time></trkpt><trkpt lat="42.24275745822044" lon="9.176739100195228"><ele>678.0</ele><time>2026-05-03T14:03:09Z</time></trkpt><trkpt lat="42.24266434054879" lon="9.176943059228417"><ele>678.0</ele><time>2026-05-03T14:03:10Z</time></trkpt><trkpt lat="42.24257193128942" lon="9.17714806033802"><ele>678.0</ele><time>2026-05-03T14:03:11Z</time></trkpt><trkpt lat="42.24248213483778" lon="9.17734465219932"><ele>684.6666666666666</ele><time>2026-05-03T14:03:12Z</time></trkpt><trkpt lat="42.242384721544425" lon="9.1775404264276"><ele>691.3333333333333</ele><time>2026-05-03T14:03:13Z</time></trkpt><trkpt lat="42.242286808681214" lon="9.17773715209643"><ele>698.0</ele><time>2026-05-03T14:03:14Z</time></trkpt><trkpt lat="42.242185410153375" lon="9.17792519024373"><ele>695.0</ele><time>2026-05-03T14:03:15Z</time></trkpt><trkpt lat="42.242081973038985" lon="9.178120622184156"><ele>692.0</ele><time>2026-05-03T14:03:16Z</time></trkpt><trkpt lat="42.24197825139374" lon="9.178313777807759"><ele>689.0</ele><time>2026-05-03T14:03:17.001Z</time></trkpt><trkpt lat="42.241869460881475" lon="9.17851078014115"><ele>689.0</ele><time>2026-05-03T14:03:18.001Z</time></trkpt><trkpt lat="42.2417554307372" lon="9.17870544946835"><ele>689.0</ele><time>2026-05-03T14:03:19.001Z</time></trkpt><trkpt lat="42.24164284075446" lon="9.178895340772092"><ele>689.0</ele><time>2026-05-03T14:03:20.001Z</time></trkpt><trkpt lat="42.24152382961772" lon="9.17908196675025"><ele>684.6666666666666</ele><time>2026-05-03T14:03:21.001Z</time></trkpt><trkpt lat="42.24140330586092" lon="9.179263253826484"><ele>680.3333333333334</ele><time>2026-05-03T14:03:22.001Z</time></trkpt><trkpt lat="42.241279084612785" lon="9.17945159332204"><ele>676.0</ele><time>2026-05-03T14:03:23.001Z</time></trkpt><trkpt lat="42.24115450743961" lon="9.179637357256729"><ele>676.0</ele><time>2026-05-03T14:03:24.001Z</time></trkpt><trkpt lat="42.2410284249728" lon="9.179820591703963"><ele>676.0</ele><time>2026-05-03T14:03:25.001Z</time></trkpt><trkpt lat="42.24091277138851" lon="9.179983295001525"><ele>676.0</ele><time>2026-05-03T14:03:26.001Z</time></trkpt><trkpt lat="42.240804494636485" lon="9.18013122738936"><ele>678.25</ele><time>2026-05-03T14:03:27.001Z</time></trkpt><trkpt lat="42.24070584794737" lon="9.180266223010534"><ele>680.5</ele><time>2026-05-03T14:03:28.001Z</time></trkpt><trkpt lat="42.240604602013526" lon="9.180406669407803"><ele>682.75</ele><time>2026-05-03T14:03:29.001Z</time></trkpt><trkpt lat="42.24050536866888" lon="9.180561414806863"><ele>685.0</ele><time>2026-05-03T14:03:30.001Z</time></trkpt><trkpt lat="42.240415251833305" lon="9.180726172622483"><ele>685.0</ele><time>2026-05-03T14:03:31.001Z</time></trkpt><trkpt lat="42.24035277577116" lon="9.180908435473832"><ele>685.0</ele><time>2026-05-03T14:03:32.001Z</time></trkpt><trkpt lat="42.240319341965446" lon="9.18110264944145"><ele>685.0</ele><time>2026-05-03T14:03:33.001Z</time></trkpt><trkpt lat="42.24029028726289" lon="9.181298645204485"><ele>685.0</ele><time>2026-05-03T14:03:34.001Z</time></trkpt><trkpt lat="42.24026546113543" lon="9.181486234101369"><ele>687.5</ele><time>2026-05-03T14:03:35.001Z</time></trkpt><trkpt lat="42.2402503363173" lon="9.181659409822037"><ele>690.0</ele><time>2026-05-03T14:03:36.001Z</time></trkpt><trkpt lat="42.24024786709919" lon="9.181819967704286"><ele>692.5</ele><time>2026-05-03T14:03:37.001Z</time></trkpt><trkpt lat="42.24027085196402" lon="9.181962060411708"><ele>695.0</ele><time>2026-05-03T14:03:38.001Z</time></trkpt><trkpt lat="42.24031321518685" lon="9.182086946304883"><ele>695.0</ele><time>2026-05-03T14:03:39.001Z</time></trkpt><trkpt lat="42.24039755068975" lon="9.182176755827621"><ele>695.0</ele><time>2026-05-03T14:03:40.001Z</time></trkpt><trkpt lat="42.24050596306034" lon="9.182218731647879"><ele>695.0</ele><time>2026-05-03T14:03:41.001Z</time></trkpt><trkpt lat="42.24062042339851" lon="9.182210538321426"><ele>695.0</ele><time>2026-05-03T14:03:42.001Z</time></trkpt><trkpt lat="42.240741256364686" lon="9.182162580929367"><ele>701.0</ele><time>2026-05-03T14:03:43.001Z</time></trkpt><trkpt lat="42.24085759734193" lon="9.18207593094611"><ele>707.0</ele><time>2026-05-03T14:03:44.002Z</time></trkpt><trkpt lat="42.24096111094455" lon="9.181945179319854"><ele>713.0</ele><time>2026-05-03T14:03:45.002Z</time></trkpt><trkpt lat="42.2410457263328" lon="9.181782223394947"><ele>719.0</ele><time>2026-05-03T14:03:46.002Z</time></trkpt><trkpt lat="42.24111875368216" lon="9.181613117343446"><ele>720.6666666666666</ele><time>2026-05-03T14:03:47.002Z</time></trkpt><trkpt lat="42.241203110500074" lon="9.181442562015615"><ele>722.3333333333334</ele><time>2026-05-03T14:03:48.002Z</time></trkpt><trkpt lat="42.2413031049517" lon="9.18127733089697"><ele>724.0</ele><time>2026-05-03T14:03:49.002Z</time></trkpt><trkpt lat="42.24142777621302" lon="9.181110974624671"><ele>722.3333333333334</ele><time>2026-05-03T14:03:50.002Z</time></trkpt><trkpt lat="42.241563792047195" lon="9.180948818006945"><ele>720.6666666666666</ele><time>2026-05-03T14:03:51.002Z</time></trkpt><trkpt lat="42.24170731611238" lon="9.18079164792801"><ele>719.0</ele><time>2026-05-03T14:03:52.002Z</time></trkpt><trkpt lat="42.24184819646902" lon="9.180648002817417"><ele>723.3333333333333</ele><time>2026-05-03T14:03:53.002Z</time></trkpt><trkpt lat="42.241978154032786" lon="9.180509752945634"><ele>727.6666666666666</ele><time>2026-05-03T14:03:54.002Z</time></trkpt><trkpt lat="42.24210697584665" lon="9.180367670281715"><ele>732.0</ele><time>2026-05-03T14:03:55.002Z</time></trkpt><trkpt lat="42.24223744870971" lon="9.180220457951277"><ele>734.0</ele><time>2026-05-03T14:03:56.002Z</time></trkpt><trkpt lat="42.24237710648778" lon="9.180066674408842"><ele>736.0</ele><time>2026-05-03T14:03:57.002Z</time></trkpt><trkpt lat="42.24251437068399" lon="9.179908188518015"><ele>738.0</ele><time>2026-05-03T14:03:58.002Z</time></trkpt><trkpt lat="42.2426536262205" lon="9.179751509095496"><ele>738.0</ele><time>2026-05-03T14:03:59.002Z</time></trkpt><trkpt lat="42.2427880199212" lon="9.17960686804786"><ele>738.0</ele><time>2026-05-03T14:04:00.002Z</time></trkpt><trkpt lat="42.242914638756226" lon="9.179472955606014"><ele>738.0</ele><time>2026-05-03T14:04:01.002Z</time></trkpt><trkpt lat="42.24303011619074" lon="9.179351928010965"><ele>737.0</ele><time>2026-05-03T14:04:02.002Z</time></trkpt><trkpt lat="42.24313518334855" lon="9.179234184595526"><ele>736.0</ele><time>2026-05-03T14:04:03.002Z</time></trkpt><trkpt lat="42.24323557461135" lon="9.179116441455058"><ele>735.0</ele><time>2026-05-03T14:04:04.002Z</time></trkpt><trkpt lat="42.2433370019973" lon="9.178983229782192"><ele>734.0</ele><time>2026-05-03T14:04:05.002Z</time></trkpt><trkpt lat="42.24343103107229" lon="9.178821581083488"><ele>734.0</ele><time>2026-05-03T14:04:06.002Z</time></trkpt><trkpt lat="42.24350947099972" lon="9.178663790463766"><ele>734.0</ele><time>2026-05-03T14:04:07.002Z</time></trkpt><trkpt lat="42.24357413413026" lon="9.178499376032388"><ele>734.0</ele><time>2026-05-03T14:04:08.002Z</time></trkpt><trkpt lat="42.24363731504043" lon="9.178330584939774"><ele>734.0</ele><time>2026-05-03T14:04:09.002Z</time></trkpt><trkpt lat="42.243696499651975" lon="9.178166561702733"><ele>734.0</ele><time>2026-05-03T14:04:10.002Z</time></trkpt><trkpt lat="42.24375973376951" lon="9.178024073921199"><ele>734.0</ele><time>2026-05-03T14:04:11.002Z</time></trkpt><trkpt lat="42.24383693391266" lon="9.177880673173672"><ele>734.0</ele><time>2026-05-03T14:04:12.002Z</time></trkpt><trkpt lat="42.24393372958673" lon="9.177737561278308"><ele>734.0</ele><time>2026-05-03T14:04:13.002Z</time></trkpt><trkpt lat="42.24405315192578" lon="9.177609103829449"><ele>734.0</ele><time>2026-05-03T14:04:14.002Z</time></trkpt><trkpt lat="42.24419433573824" lon="9.177500723940192"><ele>734.0</ele><time>2026-05-03T14:04:15.002Z</time></trkpt><trkpt lat="42.24434399737311" lon="9.177404870640531"><ele>734.0</ele><time>2026-05-03T14:04:16.003Z</time></trkpt><trkpt lat="42.24448622863651" lon="9.177322134623752"><ele>738.75</ele><time>2026-05-03T14:04:17.003Z</time></trkpt><trkpt lat="42.24462469281046" lon="9.177245003995644"><ele>743.5</ele><time>2026-05-03T14:04:18.003Z</time></trkpt><trkpt lat="42.24476338038901" lon="9.177188673916016"><ele>748.25</ele><time>2026-05-03T14:04:19.003Z</time></trkpt><trkpt lat="42.2449068439048" lon="9.177150161441595"><ele>753.0</ele><time>2026-05-03T14:04:20.003Z</time></trkpt><trkpt lat="42.24505182157601" lon="9.177134002102218"><ele>754.3333333333334</ele><time>2026-05-03T14:04:21.003Z</time></trkpt><trkpt lat="42.24520927168849" lon="9.17712517578157"><ele>755.6666666666667</ele><time>2026-05-03T14:04:22.003Z</time></trkpt><trkpt lat="42.24539506247998" lon="9.177123511345805"><ele>757.0</ele><time>2026-05-03T14:04:23.003Z</time></trkpt><trkpt lat="42.24560043659448" lon="9.177117368491938"><ele>758.3333333333334</ele><time>2026-05-03T14:04:24.003Z</time></trkpt><trkpt lat="42.24579773196213" lon="9.177125674968002"><ele>759.6666666666666</ele><time>2026-05-03T14:04:25.003Z</time></trkpt><trkpt lat="42.24597441799864" lon="9.177139112512766"><ele>761.0</ele><time>2026-05-03T14:04:26.003Z</time></trkpt><trkpt lat="42.24612502707225" lon="9.17715379655751"><ele>761.0</ele><time>2026-05-03T14:04:27.003Z</time></trkpt><trkpt lat="42.24625748318907" lon="9.177171923712537"><ele>761.0</ele><time>2026-05-03T14:04:28.003Z</time></trkpt><trkpt lat="42.246377708720104" lon="9.177204628810825"><ele>761.0</ele><time>2026-05-03T14:04:29.003Z</time></trkpt><trkpt lat="42.24649281211196" lon="9.177239299417831"><ele>761.0</ele><time>2026-05-03T14:04:30.003Z</time></trkpt><trkpt lat="42.24660221171832" lon="9.17726499614974"><ele>761.25</ele><time>2026-05-03T14:04:31.003Z</time></trkpt><trkpt lat="42.24671010071595" lon="9.177289653283156"><ele>761.5</ele><time>2026-05-03T14:04:32.003Z</time></trkpt><trkpt lat="42.24682534810081" lon="9.177316223819496"><ele>761.75</ele><time>2026-05-03T14:04:33.003Z</time></trkpt><trkpt lat="42.24694678859881" lon="9.177344984614223"><ele>762.0</ele><time>2026-05-03T14:04:34.003Z</time></trkpt><trkpt lat="42.247065471807545" lon="9.177389381320626"><ele>755.25</ele><time>2026-05-03T14:04:35.003Z</time></trkpt><trkpt lat="42.24719286195621" lon="9.17743864720979"><ele>748.5</ele><time>2026-05-03T14:04:36.003Z</time></trkpt><trkpt lat="42.24732706378778" lon="9.177490228586421"><ele>741.75</ele><time>2026-05-03T14:04:37.003Z</time></trkpt><trkpt lat="42.24745641028608" lon="9.177546557450075"><ele>735.0</ele><time>2026-05-03T14:04:38.003Z</time></trkpt><trkpt lat="42.247568835883825" lon="9.177593563470829"><ele>735.0</ele><time>2026-05-03T14:04:39.003Z</time></trkpt><trkpt lat="42.24766291409838" lon="9.177629599204694"><ele>735.0</ele><time>2026-05-03T14:04:40.003Z</time></trkpt><trkpt lat="42.24774542571564" lon="9.177655420587834"><ele>735.0</ele><time>2026-05-03T14:04:41.003Z</time></trkpt><trkpt lat="42.24782146673271" lon="9.17767758375877"><ele>735.0</ele><time>2026-05-03T14:04:41.997Z</time></trkpt><trkpt lat="42.24789359124959" lon="9.1776901377352"><ele>735.0</ele><time>2026-05-03T14:04:42.997Z</time></trkpt><trkpt lat="42.24797575431936" lon="9.17769413139023"><ele>735.0</ele><time>2026-05-03T14:04:43.997Z</time></trkpt><trkpt lat="42.2480604512963" lon="9.177673335910702"><ele>735.0</ele><time>2026-05-03T14:04:44.997Z</time></trkpt><trkpt lat="42.24813707706664" lon="9.177604450105148"><ele>735.0</ele><time>2026-05-03T14:04:45.997Z</time></trkpt><trkpt lat="42.24820280807812" lon="9.17750471803237"><ele>735.0</ele><time>2026-05-03T14:04:46.998Z</time></trkpt><trkpt lat="42.24825276562565" lon="9.177375796949423"><ele>735.0</ele><time>2026-05-03T14:04:47.998Z</time></trkpt><trkpt lat="42.24829014737762" lon="9.177228340454603"><ele>735.0</ele><time>2026-05-03T14:04:48.998Z</time></trkpt><trkpt lat="42.24830674658279" lon="9.177058164038728"><ele>735.5</ele><time>2026-05-03T14:04:49.998Z</time></trkpt><trkpt lat="42.248311804071456" lon="9.176875891894909"><ele>736.0</ele><time>2026-05-03T14:04:50.998Z</time></trkpt><trkpt lat="42.248329555184796" lon="9.176687470815127"><ele>736.5</ele><time>2026-05-03T14:04:51.998Z</time></trkpt><trkpt lat="42.24833105197461" lon="9.176490401696356"><ele>737.0</ele><time>2026-05-03T14:04:52.998Z</time></trkpt><trkpt lat="42.24829652458075" lon="9.17629388789295"><ele>737.0</ele><time>2026-05-03T14:04:53.998Z</time></trkpt><trkpt lat="42.24826535812925" lon="9.176096468067472"><ele>737.0</ele><time>2026-05-03T14:04:54.998Z</time></trkpt><trkpt lat="42.24822354323462" lon="9.175906737122359"><ele>737.0</ele><time>2026-05-03T14:04:55.999Z</time></trkpt><trkpt lat="42.248183957732856" lon="9.175736240884401"><ele>737.0</ele><time>2026-05-03T14:04:56.999Z</time></trkpt><trkpt lat="42.248148277828946" lon="9.175577601919645"><ele>740.75</ele><time>2026-05-03T14:04:57.999Z</time></trkpt><trkpt lat="42.24811276246619" lon="9.175430054794012"><ele>744.5</ele><time>2026-05-03T14:04:58.999Z</time></trkpt><trkpt lat="42.24807452947721" lon="9.175280872510259"><ele>748.25</ele><time>2026-05-03T14:04:59.999Z</time></trkpt><trkpt lat="42.24803640745683" lon="9.175124991450268"><ele>752.0</ele><time>2026-05-03T14:05:00.999Z</time></trkpt><trkpt lat="42.247999001297856" lon="9.174967836744235"><ele>752.2</ele><time>2026-05-03T14:05:01.999Z</time></trkpt><trkpt lat="42.24796107805445" lon="9.174816550849762"><ele>752.4000000000001</ele><time>2026-05-03T14:05:02.999Z</time></trkpt><trkpt lat="42.24792387516909" lon="9.174682527020641"><ele>752.5999999999999</ele><time>2026-05-03T14:05:03.999Z</time></trkpt><trkpt lat="42.24789011933902" lon="9.174556201745617"><ele>752.8</ele><time>2026-05-03T14:05:04.999Z</time></trkpt><trkpt lat="42.24786881290496" lon="9.174423436003856"><ele>753.0</ele><time>2026-05-03T14:05:06Z</time></trkpt><trkpt lat="42.247861775383036" lon="9.174282570667831"><ele>753.0</ele><time>2026-05-03T14:05:07Z</time></trkpt><trkpt lat="42.247879887973234" lon="9.174135148190699"><ele>753.0</ele><time>2026-05-03T14:05:08Z</time></trkpt><trkpt lat="42.24793298184181" lon="9.173997698420607"><ele>753.0</ele><time>2026-05-03T14:05:09Z</time></trkpt><trkpt lat="42.24799289014028" lon="9.173883767270473"><ele>753.0</ele><time>2026-05-03T14:05:10Z</time></trkpt><trkpt lat="42.248047174142854" lon="9.173777252869789"><ele>753.0</ele><time>2026-05-03T14:05:11Z</time></trkpt><trkpt lat="42.248094654608984" lon="9.1736625853201"><ele>751.75</ele><time>2026-05-03T14:05:12Z</time></trkpt><trkpt lat="42.24814063853342" lon="9.173535893397894"><ele>750.5</ele><time>2026-05-03T14:05:13Z</time></trkpt><trkpt lat="42.24818536154454" lon="9.173398561615066"><ele>749.25</ele><time>2026-05-03T14:05:14Z</time></trkpt><trkpt lat="42.248225991021016" lon="9.173249764953118"><ele>748.0</ele><time>2026-05-03T14:05:15Z</time></trkpt><trkpt lat="42.24825999736789" lon="9.173093158934313"><ele>748.0</ele><time>2026-05-03T14:05:16Z</time></trkpt><trkpt lat="42.24829349934847" lon="9.172948016833496"><ele>748.0</ele><time>2026-05-03T14:05:17Z</time></trkpt><trkpt lat="42.24832288078482" lon="9.172817359537444"><ele>748.0</ele><time>2026-05-03T14:05:18Z</time></trkpt><trkpt lat="42.248352192380146" lon="9.172682155502049"><ele>748.0</ele><time>2026-05-03T14:05:19Z</time></trkpt><trkpt lat="42.24839050497432" lon="9.17254569460346"><ele>748.0</ele><time>2026-05-03T14:05:20Z</time></trkpt><trkpt lat="42.248442386355116" lon="9.17242368311976"><ele>750.75</ele><time>2026-05-03T14:05:21Z</time></trkpt><trkpt lat="42.24851494536763" lon="9.172315828980611"><ele>753.5</ele><time>2026-05-03T14:05:22Z</time></trkpt><trkpt lat="42.248608379412346" lon="9.172229358739921"><ele>756.25</ele><time>2026-05-03T14:05:23.001Z</time></trkpt><trkpt lat="42.24872725634786" lon="9.172173743029798"><ele>759.0</ele><time>2026-05-03T14:05:24.001Z</time></trkpt><trkpt lat="42.24885640092976" lon="9.172130873777032"><ele>760.0</ele><time>2026-05-03T14:05:25.001Z</time></trkpt><trkpt lat="42.24898943861847" lon="9.172091557443018"><ele>761.0</ele><time>2026-05-03T14:05:26.001Z</time></trkpt><trkpt lat="42.24911562756253" lon="9.172061148965176"><ele>762.0</ele><time>2026-05-03T14:05:27.001Z</time></trkpt><trkpt lat="42.24924742479462" lon="9.172046999206179"><ele>763.0</ele><time>2026-05-03T14:05:28.001Z</time></trkpt><trkpt lat="42.24938047055593" lon="9.172048438708309"><ele>763.0</ele><time>2026-05-03T14:05:29.001Z</time></trkpt><trkpt lat="42.24951974360096" lon="9.172064311262119"><ele>763.0</ele><time>2026-05-03T14:05:30.001Z</time></trkpt><trkpt lat="42.24966683487559" lon="9.172087017411435"><ele>763.0</ele><time>2026-05-03T14:05:31.001Z</time></trkpt><trkpt lat="42.24981878277472" lon="9.172106629920071"><ele>763.0</ele><time>2026-05-03T14:05:32.001Z</time></trkpt><trkpt lat="42.2499732137552" lon="9.172090821128569"><ele>761.75</ele><time>2026-05-03T14:05:33.001Z</time></trkpt><trkpt lat="42.25010722206682" lon="9.172018113684107"><ele>760.5</ele><time>2026-05-03T14:05:34.001Z</time></trkpt><trkpt lat="42.25023070171989" lon="9.171933247082842"><ele>759.25</ele><time>2026-05-03T14:05:35.001Z</time></trkpt><trkpt lat="42.25035354807367" lon="9.17180805772474"><ele>758.0</ele><time>2026-05-03T14:05:36.001Z</time></trkpt><trkpt lat="42.250474854966235" lon="9.17166347715995"><ele>758.0</ele><time>2026-05-03T14:05:37.001Z</time></trkpt><trkpt lat="42.250595546538705" lon="9.17153874503113"><ele>758.0</ele><time>2026-05-03T14:05:38.001Z</time></trkpt><trkpt lat="42.25071982972525" lon="9.171400475891"><ele>758.0</ele><time>2026-05-03T14:05:39.001Z</time></trkpt><trkpt lat="42.250843539873145" lon="9.171274645610243"><ele>757.25</ele><time>2026-05-03T14:05:40.001Z</time></trkpt><trkpt lat="42.2509718324558" lon="9.171149720070515"><ele>756.5</ele><time>2026-05-03T14:05:41.001Z</time></trkpt><trkpt lat="42.25109038563467" lon="9.171025956245487"><ele>755.75</ele><time>2026-05-03T14:05:42.001Z</time></trkpt><trkpt lat="42.25119921364139" lon="9.170910799028283"><ele>755.0</ele><time>2026-05-03T14:05:43.001Z</time></trkpt><trkpt lat="42.25130623696749" lon="9.170797346055727"><ele>755.0</ele><time>2026-05-03T14:05:44.001Z</time></trkpt><trkpt lat="42.25140771277895" lon="9.170696067870265"><ele>755.0</ele><time>2026-05-03T14:05:45.001Z</time></trkpt><trkpt lat="42.25150169550054" lon="9.170600496884319"><ele>755.0</ele><time>2026-05-03T14:05:46.001Z</time></trkpt><trkpt lat="42.251601751620385" lon="9.170503897444362"><ele>755.0</ele><time>2026-05-03T14:05:47.001Z</time></trkpt><trkpt lat="42.251714130860464" lon="9.170407056479032"><ele>754.25</ele><time>2026-05-03T14:05:48.001Z</time></trkpt><trkpt lat="42.25186379656744" lon="9.170307425879487"><ele>753.5</ele><time>2026-05-03T14:05:49.002Z</time></trkpt><trkpt lat="42.25198372068281" lon="9.170258765009041"><ele>752.75</ele><time>2026-05-03T14:05:50.002Z</time></trkpt><trkpt lat="42.25212382374357" lon="9.170259565030092"><ele>752.0</ele><time>2026-05-03T14:05:51.002Z</time></trkpt><trkpt lat="42.25225874214996" lon="9.17022356551139"><ele>749.5</ele><time>2026-05-03T14:05:52.002Z</time></trkpt><trkpt lat="42.252393349707475" lon="9.170217111685474"><ele>747.0</ele><time>2026-05-03T14:05:53.002Z</time></trkpt><trkpt lat="42.25253999152793" lon="9.170204861652525"><ele>744.5</ele><time>2026-05-03T14:05:54.002Z</time></trkpt><trkpt lat="42.252688983329506" lon="9.170189902983273"><ele>742.0</ele><time>2026-05-03T14:05:55.002Z</time></trkpt><trkpt lat="42.25284095207152" lon="9.170176269492904"><ele>742.0</ele><time>2026-05-03T14:05:56.002Z</time></trkpt><trkpt lat="42.252994593680086" lon="9.170168368875803"><ele>742.0</ele><time>2026-05-03T14:05:57.002Z</time></trkpt><trkpt lat="42.25315090041583" lon="9.170172982828301"><ele>742.0</ele><time>2026-05-03T14:05:58.002Z</time></trkpt><trkpt lat="42.25330746304749" lon="9.170182406184663"><ele>742.3333333333334</ele><time>2026-05-03T14:05:59.002Z</time></trkpt><trkpt lat="42.2534632630192" lon="9.170195595354665"><ele>742.6666666666666</ele><time>2026-05-03T14:06:00.002Z</time></trkpt><trkpt lat="42.253621097225206" lon="9.170207965652095"><ele>743.0</ele><time>2026-05-03T14:06:01.002Z</time></trkpt><trkpt lat="42.25377634599594" lon="9.170220451461633"><ele>743.0</ele><time>2026-05-03T14:06:02.002Z</time></trkpt><trkpt lat="42.25393220926812" lon="9.170227400256099"><ele>743.0</ele><time>2026-05-03T14:06:03.002Z</time></trkpt><trkpt lat="42.254092790839934" lon="9.170231260774424"><ele>743.0</ele><time>2026-05-03T14:06:04.002Z</time></trkpt><trkpt lat="42.254247054079705" lon="9.170225316206992"><ele>742.6666666666666</ele><time>2026-05-03T14:06:05.002Z</time></trkpt><trkpt lat="42.254400299935746" lon="9.170196043786325"><ele>742.3333333333334</ele><time>2026-05-03T14:06:06.002Z</time></trkpt><trkpt lat="42.254557402605606" lon="9.17014408668557"><ele>742.0</ele><time>2026-05-03T14:06:07.002Z</time></trkpt><trkpt lat="42.254717150453175" lon="9.170061536957821"><ele>737.3333333333334</ele><time>2026-05-03T14:06:08.002Z</time></trkpt><trkpt lat="42.254881838133684" lon="9.169958222888681"><ele>732.6666666666666</ele><time>2026-05-03T14:06:09.002Z</time></trkpt><trkpt lat="42.25503522318319" lon="9.169861904807743"><ele>728.0</ele><time>2026-05-03T14:06:10.002Z</time></trkpt><trkpt lat="42.25517857759842" lon="9.169778781202728"><ele>729.5</ele><time>2026-05-03T14:06:11.002Z</time></trkpt><trkpt lat="42.25531599902732" lon="9.169699335434691"><ele>731.0</ele><time>2026-05-03T14:06:12.002Z</time></trkpt><trkpt lat="42.25545205943638" lon="9.169626824508846"><ele>732.5</ele><time>2026-05-03T14:06:13.002Z</time></trkpt><trkpt lat="42.25558440751331" lon="9.169554079405943"><ele>734.0</ele><time>2026-05-03T14:06:14.002Z</time></trkpt><trkpt lat="42.25571749707568" lon="9.169495574410657"><ele>734.0</ele><time>2026-05-03T14:06:15.002Z</time></trkpt><trkpt lat="42.255860717528634" lon="9.169463287936562"><ele>734.0</ele><time>2026-05-03T14:06:16.002Z</time></trkpt><trkpt lat="42.25600678661479" lon="9.169455924476281"><ele>734.0</ele><time>2026-05-03T14:06:17.002Z</time></trkpt><trkpt lat="42.25615863173395" lon="9.169491547857522"><ele>734.0</ele><time>2026-05-03T14:06:18.002Z</time></trkpt><trkpt lat="42.256314198046375" lon="9.169549152726132"><ele>736.0</ele><time>2026-05-03T14:06:19.002Z</time></trkpt><trkpt lat="42.25647879815098" lon="9.169632347411277"><ele>738.0</ele><time>2026-05-03T14:06:20.002Z</time></trkpt><trkpt lat="42.25664295629922" lon="9.16974593442157"><ele>740.0</ele><time>2026-05-03T14:06:21.003Z</time></trkpt><trkpt lat="42.2568025610536" lon="9.169862902342222"><ele>735.0</ele><time>2026-05-03T14:06:22.003Z</time></trkpt><trkpt lat="42.25694560167266" lon="9.169982866177602"><ele>730.0</ele><time>2026-05-03T14:06:23.003Z</time></trkpt><trkpt lat="42.2570830547245" lon="9.170113927673722"><ele>725.0</ele><time>2026-05-03T14:06:24.003Z</time></trkpt><trkpt lat="42.25721775575837" lon="9.170249388031653"><ele>729.0</ele><time>2026-05-03T14:06:25.003Z</time></trkpt><trkpt lat="42.25735332072932" lon="9.170385111601675"><ele>733.0</ele><time>2026-05-03T14:06:26.003Z</time></trkpt><trkpt lat="42.25748780309517" lon="9.170511466807184"><ele>737.0</ele><time>2026-05-03T14:06:27.003Z</time></trkpt><trkpt lat="42.257630652717" lon="9.170626714721188"><ele>729.3333333333333</ele><time>2026-05-03T14:06:28.003Z</time></trkpt><trkpt lat="42.25778405408882" lon="9.170718622299397"><ele>721.6666666666666</ele><time>2026-05-03T14:06:29.003Z</time></trkpt><trkpt lat="42.25794285148405" lon="9.170787475096395"><ele>714.0</ele><time>2026-05-03T14:06:30.003Z</time></trkpt><trkpt lat="42.258113707274035" lon="9.170841134914085"><ele>715.3333333333334</ele><time>2026-05-03T14:06:31.003Z</time></trkpt><trkpt lat="42.25828627242102" lon="9.170892324310888"><ele>716.6666666666667</ele><time>2026-05-03T14:06:32.003Z</time></trkpt><trkpt lat="42.25845058791807" lon="9.17096162245013"><ele>718.0</ele><time>2026-05-03T14:06:33.003Z</time></trkpt><trkpt lat="42.25860424785672" lon="9.17105743491813"><ele>718.0</ele><time>2026-05-03T14:06:34.003Z</time></trkpt><trkpt lat="42.25874591706186" lon="9.171175004002514"><ele>718.0</ele><time>2026-05-03T14:06:35.003Z</time></trkpt><trkpt lat="42.25886932534623" lon="9.171310094336011"><ele>718.0</ele><time>2026-05-03T14:06:36.003Z</time></trkpt><trkpt lat="42.258995384029525" lon="9.17144070934965"><ele>714.0</ele><time>2026-05-03T14:06:37.003Z</time></trkpt><trkpt lat="42.25913517266666" lon="9.171545038269057"><ele>710.0</ele><time>2026-05-03T14:06:38.003Z</time></trkpt><trkpt lat="42.25929721549023" lon="9.171619218074511"><ele>706.0</ele><time>2026-05-03T14:06:39.003Z</time></trkpt><trkpt lat="42.25946478412178" lon="9.171646007839595"><ele>706.0</ele><time>2026-05-03T14:06:40.003Z</time></trkpt><trkpt lat="42.259638931302455" lon="9.17162471390142"><ele>706.0</ele><time>2026-05-03T14:06:41.003Z</time></trkpt><trkpt lat="42.259810950876066" lon="9.171566868502406"><ele>706.0</ele><time>2026-05-03T14:06:42.003Z</time></trkpt><trkpt lat="42.25997583225254" lon="9.171454921532124"><ele>710.3333333333334</ele><time>2026-05-03T14:06:43.003Z</time></trkpt><trkpt lat="42.26012964448977" lon="9.171335490570785"><ele>714.6666666666666</ele><time>2026-05-03T14:06:44.003Z</time></trkpt><trkpt lat="42.260282339777525" lon="9.171232440634274"><ele>719.0</ele><time>2026-05-03T14:06:45.003Z</time></trkpt><trkpt lat="42.260441405496294" lon="9.171132223136018"><ele>719.0</ele><time>2026-05-03T14:06:46.003Z</time></trkpt><trkpt lat="42.2606052232063" lon="9.171022978448343"><ele>719.0</ele><time>2026-05-03T14:06:47.003Z</time></trkpt><trkpt lat="42.260772720337506" lon="9.170899591199252"><ele>719.0</ele><time>2026-05-03T14:06:47.997Z</time></trkpt><trkpt lat="42.2609412929012" lon="9.170758219146009"><ele>718.0</ele><time>2026-05-03T14:06:48.998Z</time></trkpt><trkpt lat="42.26110938577977" lon="9.170607041947477"><ele>717.0</ele><time>2026-05-03T14:06:49.998Z</time></trkpt><trkpt lat="42.26127663839271" lon="9.170456778916746"><ele>716.0</ele><time>2026-05-03T14:06:50.998Z</time></trkpt><trkpt lat="42.261433098506295" lon="9.170318135453297"><ele>709.0</ele><time>2026-05-03T14:06:51.998Z</time></trkpt><trkpt lat="42.26158551244857" lon="9.170186761778774"><ele>702.0</ele><time>2026-05-03T14:06:52.998Z</time></trkpt><trkpt lat="42.26173179744748" lon="9.170069332527799"><ele>695.0</ele><time>2026-05-03T14:06:53.998Z</time></trkpt><trkpt lat="42.26187440663744" lon="9.16995574046024"><ele>697.3333333333333</ele><time>2026-05-03T14:06:54.998Z</time></trkpt><trkpt lat="42.26201793186244" lon="9.169842854579047"><ele>699.6666666666666</ele><time>2026-05-03T14:06:55.998Z</time></trkpt><trkpt lat="42.26216452205969" lon="9.169719017792442"><ele>702.0</ele><time>2026-05-03T14:06:56.998Z</time></trkpt><trkpt lat="42.2623146533468" lon="9.169588575061097"><ele>702.0</ele><time>2026-05-03T14:06:57.998Z</time></trkpt><trkpt lat="42.26246870330309" lon="9.169471307190058"><ele>702.0</ele><time>2026-05-03T14:06:58.999Z</time></trkpt><trkpt lat="42.26261402216609" lon="9.169355126442316"><ele>702.0</ele><time>2026-05-03T14:06:59.999Z</time></trkpt><trkpt lat="42.26276130709228" lon="9.169241034403141"><ele>702.0</ele><time>2026-05-03T14:07:00.999Z</time></trkpt><trkpt lat="42.26291127052072" lon="9.16913353872738"><ele>702.0</ele><time>2026-05-03T14:07:01.999Z</time></trkpt><trkpt lat="42.263069759805454" lon="9.169059085363392"><ele>702.0</ele><time>2026-05-03T14:07:02.999Z</time></trkpt><trkpt lat="42.2632435096684" lon="9.169044745037695"><ele>699.3333333333334</ele><time>2026-05-03T14:07:03.999Z</time></trkpt><trkpt lat="42.263393679589555" lon="9.169147733817129"><ele>696.6666666666667</ele><time>2026-05-03T14:07:04.999Z</time></trkpt><trkpt lat="42.263549174249555" lon="9.169260483818254"><ele>694.0</ele><time>2026-05-03T14:07:05.999Z</time></trkpt><trkpt lat="42.263709148372016" lon="9.169375763706674"><ele>694.0</ele><time>2026-05-03T14:07:06.999Z</time></trkpt><trkpt lat="42.26386787972624" lon="9.169515497506081"><ele>694.0</ele><time>2026-05-03T14:07:07.999Z</time></trkpt><trkpt lat="42.26404015963134" lon="9.169645189919601"><ele>694.0</ele><time>2026-05-03T14:07:08.999Z</time></trkpt><trkpt lat="42.26420652842692" lon="9.169761917752872"><ele>690.6666666666667</ele><time>2026-05-03T14:07:09.999Z</time></trkpt><trkpt lat="42.26437501477077" lon="9.169874411038991"><ele>687.3333333333334</ele><time>2026-05-03T14:07:11Z</time></trkpt><trkpt lat="42.26456930562469" lon="9.169994445156188"><ele>684.0</ele><time>2026-05-03T14:07:12Z</time></trkpt><trkpt lat="42.26478710202904" lon="9.170141280471405"><ele>683.0</ele><time>2026-05-03T14:07:13Z</time></trkpt><trkpt lat="42.26501952474454" lon="9.17028297777057"><ele>682.0</ele><time>2026-05-03T14:07:14Z</time></trkpt><trkpt lat="42.26527140915843" lon="9.170400155322074"><ele>682.0</ele><time>2026-05-03T14:07:15Z</time></trkpt><trkpt lat="42.26550729684942" lon="9.170553713505006"><ele>682.0</ele><time>2026-05-03T14:07:16Z</time></trkpt><trkpt lat="42.265738735044316" lon="9.170701097114552"><ele>675.0</ele><time>2026-05-03T14:07:17Z</time></trkpt><trkpt lat="42.26597410702894" lon="9.170847859737455"><ele>668.0</ele><time>2026-05-03T14:07:18Z</time></trkpt><trkpt lat="42.2662155309223" lon="9.170989377011155"><ele>668.0</ele><time>2026-05-03T14:07:19Z</time></trkpt><trkpt lat="42.26644073828991" lon="9.171119222680206"><ele>668.0</ele><time>2026-05-03T14:07:20Z</time></trkpt><trkpt lat="42.26663404426773" lon="9.17125849932079"><ele>669.6666666666666</ele><time>2026-05-03T14:07:21Z</time></trkpt><trkpt lat="42.26681067316294" lon="9.171383658076472"><ele>671.3333333333334</ele><time>2026-05-03T14:07:22Z</time></trkpt><trkpt lat="42.26698306634102" lon="9.17148017724872"><ele>673.0</ele><time>2026-05-03T14:07:23Z</time></trkpt><trkpt lat="42.267156845547255" lon="9.171531538149841"><ele>672.0</ele><time>2026-05-03T14:07:24Z</time></trkpt><trkpt lat="42.26733175866251" lon="9.171520618070053"><ele>671.0</ele><time>2026-05-03T14:07:25Z</time></trkpt><trkpt lat="42.26750349819686" lon="9.17146153544908"><ele>670.0</ele><time>2026-05-03T14:07:26Z</time></trkpt><trkpt lat="42.267677353676305" lon="9.171394092545922"><ele>670.0</ele><time>2026-05-03T14:07:27Z</time></trkpt><trkpt lat="42.267842062510425" lon="9.171336190018312"><ele>670.0</ele><time>2026-05-03T14:07:28.001Z</time></trkpt><trkpt lat="42.26800774356576" lon="9.171275346135031"><ele>670.0</ele><time>2026-05-03T14:07:29.001Z</time></trkpt><trkpt lat="42.26816211761085" lon="9.171195668809334"><ele>669.3333333333334</ele><time>2026-05-03T14:07:30.001Z</time></trkpt><trkpt lat="42.26829672720852" lon="9.171074814146147"><ele>668.6666666666666</ele><time>2026-05-03T14:07:31.001Z</time></trkpt><trkpt lat="42.2684120544939" lon="9.170879214376352"><ele>668.0</ele><time>2026-05-03T14:07:32.001Z</time></trkpt><trkpt lat="42.26851853145174" lon="9.170657000200533"><ele>668.0</ele><time>2026-05-03T14:07:33.001Z</time></trkpt><trkpt lat="42.268623015659436" lon="9.170440488053764"><ele>668.0</ele><time>2026-05-03T14:07:34.001Z</time></trkpt><trkpt lat="42.268730727254095" lon="9.170226453824876"><ele>668.0</ele><time>2026-05-03T14:07:35.001Z</time></trkpt><trkpt lat="42.26883588418984" lon="9.170028197334569"><ele>669.6666666666666</ele><time>2026-05-03T14:07:36.001Z</time></trkpt><trkpt lat="42.26893826034003" lon="9.16983502394327"><ele>671.3333333333334</ele><time>2026-05-03T14:07:37.001Z</time></trkpt><trkpt lat="42.26903834285883" lon="9.169658702455196"><ele>673.0</ele><time>2026-05-03T14:07:38.001Z</time></trkpt><trkpt lat="42.26913692680803" lon="9.169484960220267"><ele>667.6666666666667</ele><time>2026-05-03T14:07:39.001Z</time></trkpt><trkpt lat="42.26923995154425" lon="9.169324312861274"><ele>662.3333333333334</ele><time>2026-05-03T14:07:40.001Z</time></trkpt><trkpt lat="42.26935282566918" lon="9.169189069104556"><ele>657.0</ele><time>2026-05-03T14:07:41.001Z</time></trkpt><trkpt lat="42.26949010431559" lon="9.169088705073408"><ele>664.3333333333334</ele><time>2026-05-03T14:07:42.001Z</time></trkpt><trkpt lat="42.26965243934251" lon="9.16902568286609"><ele>671.6666666666667</ele><time>2026-05-03T14:07:43.001Z</time></trkpt><trkpt lat="42.26982855959933" lon="9.168995542878966"><ele>679.0</ele><time>2026-05-03T14:07:44.001Z</time></trkpt><trkpt lat="42.26999735581806" lon="9.169000198918583"><ele>668.6666666666667</ele><time>2026-05-03T14:07:45.001Z</time></trkpt><trkpt lat="42.270150756264286" lon="9.169049199125828"><ele>658.3333333333334</ele><time>2026-05-03T14:07:46.001Z</time></trkpt><trkpt lat="42.27028546916011" lon="9.169152328852407"><ele>648.0</ele><time>2026-05-03T14:07:47.001Z</time></trkpt><trkpt lat="42.270429936702094" lon="9.169232587481607"><ele>648.0</ele><time>2026-05-03T14:07:48.001Z</time></trkpt><trkpt lat="42.27056823891038" lon="9.169337241031785"><ele>648.0</ele><time>2026-05-03T14:07:49.001Z</time></trkpt><trkpt lat="42.2707119804003" lon="9.169435618512862"><ele>648.0</ele><time>2026-05-03T14:07:50.001Z</time></trkpt><trkpt lat="42.27085782554467" lon="9.169513767259927"><ele>648.0</ele><time>2026-05-03T14:07:51.001Z</time></trkpt><trkpt lat="42.27100924005733" lon="9.169567191670586"><ele>648.0</ele><time>2026-05-03T14:07:52.001Z</time></trkpt><trkpt lat="42.271174084830136" lon="9.169584902115737"><ele>648.0</ele><time>2026-05-03T14:07:53.001Z</time></trkpt><trkpt lat="42.27133705468355" lon="9.169566162781177"><ele>645.3333333333334</ele><time>2026-05-03T14:07:54.001Z</time></trkpt><trkpt lat="42.27150163151749" lon="9.169502610492518"><ele>642.6666666666667</ele><time>2026-05-03T14:07:55.002Z</time></trkpt><trkpt lat="42.27165277773638" lon="9.169416117352062"><ele>640.0</ele><time>2026-05-03T14:07:56.002Z</time></trkpt><trkpt lat="42.27180429270612" lon="9.169340390392005"><ele>640.0</ele><time>2026-05-03T14:07:57.002Z</time></trkpt><trkpt lat="42.27195885728747" lon="9.16933792565878"><ele>640.0</ele><time>2026-05-03T14:07:58.002Z</time></trkpt><trkpt lat="42.27210641200657" lon="9.169378216789045"><ele>640.0</ele><time>2026-05-03T14:07:59.002Z</time></trkpt><trkpt lat="42.27225552396515" lon="9.16944954621798"><ele>642.6666666666667</ele><time>2026-05-03T14:08:00.002Z</time></trkpt><trkpt lat="42.27239753421011" lon="9.16955934845904"><ele>645.3333333333334</ele><time>2026-05-03T14:08:01.002Z</time></trkpt><trkpt lat="42.272556007443534" lon="9.169640743395323"><ele>648.0</ele><time>2026-05-03T14:08:02.002Z</time></trkpt><trkpt lat="42.27271590514696" lon="9.16967354939837"><ele>648.0</ele><time>2026-05-03T14:08:03.002Z</time></trkpt><trkpt lat="42.27288781771237" lon="9.169657791267383"><ele>648.0</ele><time>2026-05-03T14:08:04.002Z</time></trkpt><trkpt lat="42.27305848305387" lon="9.169632309490193"><ele>648.0</ele><time>2026-05-03T14:08:05.002Z</time></trkpt><trkpt lat="42.27323031649614" lon="9.169607445315783"><ele>646.3333333333334</ele><time>2026-05-03T14:08:06.002Z</time></trkpt><trkpt lat="42.27340457931694" lon="9.169602095252783"><ele>644.6666666666667</ele><time>2026-05-03T14:08:07.002Z</time></trkpt><trkpt lat="42.273577369200865" lon="9.16965600652797"><ele>643.0</ele><time>2026-05-03T14:08:08.002Z</time></trkpt><trkpt lat="42.27374381282957" lon="9.16971558561084"><ele>643.0</ele><time>2026-05-03T14:08:09.002Z</time></trkpt><trkpt lat="42.2739086955426" lon="9.169790252097785"><ele>643.0</ele><time>2026-05-03T14:08:10.002Z</time></trkpt><trkpt lat="42.27407244540035" lon="9.16984709431848"><ele>643.0</ele><time>2026-05-03T14:08:11.002Z</time></trkpt><trkpt lat="42.274232570831266" lon="9.169918116236213"><ele>630.0</ele><time>2026-05-03T14:08:12.002Z</time></trkpt><trkpt lat="42.27441005904308" lon="9.169975921385134"><ele>617.0</ele><time>2026-05-03T14:08:13.002Z</time></trkpt><trkpt lat="42.27460047918532" lon="9.170019073042775"><ele>604.0</ele><time>2026-05-03T14:08:14.002Z</time></trkpt><trkpt lat="42.274783149185545" lon="9.170046910072374"><ele>604.0</ele><time>2026-05-03T14:08:15.002Z</time></trkpt><trkpt lat="42.2749612807714" lon="9.170074339446703"><ele>604.0</ele><time>2026-05-03T14:08:16.002Z</time></trkpt><trkpt lat="42.2751400720191" lon="9.170092002006275"><ele>604.0</ele><time>2026-05-03T14:08:17.002Z</time></trkpt><trkpt lat="42.275316756780306" lon="9.170110394572578"><ele>604.0</ele><time>2026-05-03T14:08:18.002Z</time></trkpt><trkpt lat="42.2754891139236" lon="9.17011239656217"><ele>604.0</ele><time>2026-05-03T14:08:19.002Z</time></trkpt><trkpt lat="42.27565679407159" lon="9.17005965654764"><ele>604.0</ele><time>2026-05-03T14:08:20.002Z</time></trkpt><trkpt lat="42.27580996512735" lon="9.169911939611815"><ele>609.6666666666667</ele><time>2026-05-03T14:08:21.002Z</time></trkpt><trkpt lat="42.275950159568154" lon="9.169767059393173"><ele>615.3333333333334</ele><time>2026-05-03T14:08:22.002Z</time></trkpt><trkpt lat="42.27609161153546" lon="9.169658985764265"><ele>621.0</ele><time>2026-05-03T14:08:23.002Z</time></trkpt><trkpt lat="42.27624571975699" lon="9.169582175597567"><ele>621.0</ele><time>2026-05-03T14:08:24.002Z</time></trkpt><trkpt lat="42.276400228890935" lon="9.169536763958694"><ele>621.0</ele><time>2026-05-03T14:08:25.002Z</time></trkpt><trkpt lat="42.276559328973455" lon="9.169512455020447"><ele>621.0</ele><time>2026-05-03T14:08:26.002Z</time></trkpt><trkpt lat="42.2767223300531" lon="9.169475550021687"><ele>614.3333333333334</ele><time>2026-05-03T14:08:27.002Z</time></trkpt><trkpt lat="42.27687680337915" lon="9.169420242589126"><ele>607.6666666666667</ele><time>2026-05-03T14:08:28.003Z</time></trkpt><trkpt lat="42.27702145130351" lon="9.169337639151122"><ele>601.0</ele><time>2026-05-03T14:08:29.003Z</time></trkpt><trkpt lat="42.27714704096498" lon="9.169219167777042"><ele>601.0</ele><time>2026-05-03T14:08:30.003Z</time></trkpt><trkpt lat="42.277267591310434" lon="9.169044502635739"><ele>601.0</ele><time>2026-05-03T14:08:31.003Z</time></trkpt><trkpt lat="42.27739215539646" lon="9.168847193454416"><ele>601.0</ele><time>2026-05-03T14:08:32.003Z</time></trkpt><trkpt lat="42.27752484741878" lon="9.168664648143455"><ele>599.0</ele><time>2026-05-03T14:08:33.003Z</time></trkpt><trkpt lat="42.277668731361494" lon="9.168505248416908"><ele>597.0</ele><time>2026-05-03T14:08:34.003Z</time></trkpt><trkpt lat="42.27782728565887" lon="9.16837222083658"><ele>595.0</ele><time>2026-05-03T14:08:35.003Z</time></trkpt><trkpt lat="42.277995898958515" lon="9.16825434942245"><ele>594.0</ele><time>2026-05-03T14:08:36.003Z</time></trkpt><trkpt lat="42.27815574122396" lon="9.168156381488746"><ele>593.0</ele><time>2026-05-03T14:08:37.003Z</time></trkpt><trkpt lat="42.27830648819593" lon="9.168048149154922"><ele>592.0</ele><time>2026-05-03T14:08:38.003Z</time></trkpt><trkpt lat="42.278449461090915" lon="9.167912676030591"><ele>592.0</ele><time>2026-05-03T14:08:39.003Z</time></trkpt><trkpt lat="42.27858477417168" lon="9.167759609745625"><ele>592.0</ele><time>2026-05-03T14:08:40.003Z</time></trkpt><trkpt lat="42.27870659156057" lon="9.167588732770689"><ele>592.0</ele><time>2026-05-03T14:08:41.003Z</time></trkpt><trkpt lat="42.27881693320864" lon="9.16741526476647"><ele>590.0</ele><time>2026-05-03T14:08:42.003Z</time></trkpt><trkpt lat="42.27892740893417" lon="9.1672336180525"><ele>588.0</ele><time>2026-05-03T14:08:43.003Z</time></trkpt><trkpt lat="42.27904500366851" lon="9.167060688973697"><ele>586.0</ele><time>2026-05-03T14:08:44.003Z</time></trkpt><trkpt lat="42.279182151503676" lon="9.166912544811884"><ele>586.0</ele><time>2026-05-03T14:08:45.003Z</time></trkpt><trkpt lat="42.27933527960532" lon="9.166810826286051"><ele>586.0</ele><time>2026-05-03T14:08:46.003Z</time></trkpt><trkpt lat="42.279486086404845" lon="9.166699281311805"><ele>586.0</ele><time>2026-05-03T14:08:47.003Z</time></trkpt><trkpt lat="42.27965260041863" lon="9.166620855786205"><ele>582.0</ele><time>2026-05-03T14:08:48.003Z</time></trkpt><trkpt lat="42.27981835688755" lon="9.166530703978237"><ele>578.0</ele><time>2026-05-03T14:08:49.003Z</time></trkpt><trkpt lat="42.27998678669963" lon="9.166428412901341"><ele>574.0</ele><time>2026-05-03T14:08:50.003Z</time></trkpt><trkpt lat="42.28015497586654" lon="9.166322788085399"><ele>574.0</ele><time>2026-05-03T14:08:51.003Z</time></trkpt><trkpt lat="42.28031440031891" lon="9.166219983915203"><ele>574.0</ele><time>2026-05-03T14:08:52.003Z</time></trkpt><trkpt lat="42.280467833925556" lon="9.166099202132923"><ele>574.0</ele><time>2026-05-03T14:08:53.003Z</time></trkpt><trkpt lat="42.280603719978195" lon="9.165948248961326"><ele>570.0</ele><time>2026-05-03T14:08:53.998Z</time></trkpt><trkpt lat="42.28071631086714" lon="9.165775716951918"><ele>566.0</ele><time>2026-05-03T14:08:54.998Z</time></trkpt><trkpt lat="42.2808059848013" lon="9.165580555484189"><ele>562.0</ele><time>2026-05-03T14:08:55.998Z</time></trkpt><trkpt lat="42.28087452759393" lon="9.165365867652632"><ele>561.6666666666667</ele><time>2026-05-03T14:08:56.998Z</time></trkpt><trkpt lat="42.28092571042162" lon="9.16514265858828"><ele>561.3333333333334</ele><time>2026-05-03T14:08:57.998Z</time></trkpt><trkpt lat="42.28100211214544" lon="9.164935754442755"><ele>561.0</ele><time>2026-05-03T14:08:58.998Z</time></trkpt><trkpt lat="42.28106552785155" lon="9.164722719038586"><ele>563.0</ele><time>2026-05-03T14:08:59.998Z</time></trkpt><trkpt lat="42.28113945906407" lon="9.164506015647813"><ele>565.0</ele><time>2026-05-03T14:09:00.998Z</time></trkpt><trkpt lat="42.281258215955155" lon="9.164327462848451"><ele>567.0</ele><time>2026-05-03T14:09:01.999Z</time></trkpt><trkpt lat="42.28140578502639" lon="9.164194417860237"><ele>567.3333333333334</ele><time>2026-05-03T14:09:02.999Z</time></trkpt><trkpt lat="42.28156506533314" lon="9.164077719225906"><ele>567.6666666666667</ele><time>2026-05-03T14:09:03.999Z</time></trkpt><trkpt lat="42.28173660265501" lon="9.163986907984615"><ele>568.0</ele><time>2026-05-03T14:09:04.999Z</time></trkpt><trkpt lat="42.28190981379774" lon="9.163908869906038"><ele>568.0</ele><time>2026-05-03T14:09:05.999Z</time></trkpt><trkpt lat="42.2820776969821" lon="9.163833609252352"><ele>568.0</ele><time>2026-05-03T14:09:06.999Z</time></trkpt><trkpt lat="42.282239082309026" lon="9.16375817989714"><ele>568.0</ele><time>2026-05-03T14:09:07.999Z</time></trkpt><trkpt lat="42.282398628250014" lon="9.163678475056113"><ele>564.3333333333334</ele><time>2026-05-03T14:09:08.999Z</time></trkpt><trkpt lat="42.28256201160308" lon="9.163596186920515"><ele>560.6666666666666</ele><time>2026-05-03T14:09:09.999Z</time></trkpt><trkpt lat="42.28272663904498" lon="9.163520791956175"><ele>557.0</ele><time>2026-05-03T14:09:10.999Z</time></trkpt><trkpt lat="42.282886733170784" lon="9.163451123528233"><ele>557.0</ele><time>2026-05-03T14:09:11.999Z</time></trkpt><trkpt lat="42.28303918896724" lon="9.1633751928793"><ele>557.0</ele><time>2026-05-03T14:09:12.999Z</time></trkpt><trkpt lat="42.28318873310677" lon="9.163293571796498"><ele>557.0</ele><time>2026-05-03T14:09:13.999Z</time></trkpt><trkpt lat="42.2833391983608" lon="9.163219208901825"><ele>560.0</ele><time>2026-05-03T14:09:15Z</time></trkpt><trkpt lat="42.28349195809358" lon="9.16317310630696"><ele>563.0</ele><time>2026-05-03T14:09:16Z</time></trkpt><trkpt lat="42.28365703093804" lon="9.1631506276207"><ele>566.0</ele><time>2026-05-03T14:09:17Z</time></trkpt><trkpt lat="42.28382910870493" lon="9.163164295000275"><ele>559.3333333333333</ele><time>2026-05-03T14:09:18Z</time></trkpt><trkpt lat="42.28399699540324" lon="9.163226083682629"><ele>552.6666666666666</ele><time>2026-05-03T14:09:19Z</time></trkpt><trkpt lat="42.28415269871452" lon="9.163336881409428"><ele>546.0</ele><time>2026-05-03T14:09:20Z</time></trkpt><trkpt lat="42.2843044603118" lon="9.163462432529592"><ele>546.0</ele><time>2026-05-03T14:09:21Z</time></trkpt><trkpt lat="42.28444500161578" lon="9.163589076180065"><ele>546.0</ele><time>2026-05-03T14:09:22Z</time></trkpt><trkpt lat="42.284589248308464" lon="9.16371541148322"><ele>546.0</ele><time>2026-05-03T14:09:23Z</time></trkpt><trkpt lat="42.28473570085306" lon="9.163842124075604"><ele>547.3333333333334</ele><time>2026-05-03T14:09:24Z</time></trkpt><trkpt lat="42.28489069660231" lon="9.163968061304457"><ele>548.6666666666667</ele><time>2026-05-03T14:09:25Z</time></trkpt><trkpt lat="42.285054031731676" lon="9.164089616653602"><ele>550.0</ele><time>2026-05-03T14:09:26Z</time></trkpt><trkpt lat="42.28522832485702" lon="9.164198226742887"><ele>546.3333333333334</ele><time>2026-05-03T14:09:27Z</time></trkpt><trkpt lat="42.28539446704071" lon="9.164295553348387"><ele>542.6666666666666</ele><time>2026-05-03T14:09:28Z</time></trkpt><trkpt lat="42.28555681405445" lon="9.164393895252067"><ele>539.0</ele><time>2026-05-03T14:09:29Z</time></trkpt><trkpt lat="42.28570905183003" lon="9.164480258904147"><ele>539.0</ele><time>2026-05-03T14:09:30Z</time></trkpt><trkpt lat="42.28585790922405" lon="9.164574249377164"><ele>539.0</ele><time>2026-05-03T14:09:31Z</time></trkpt><trkpt lat="42.28600653358376" lon="9.164644704163793"><ele>539.0</ele><time>2026-05-03T14:09:32Z</time></trkpt><trkpt lat="42.28615737263742" lon="9.164677106923094"><ele>539.0</ele><time>2026-05-03T14:09:33Z</time></trkpt><trkpt lat="42.286325573757175" lon="9.164646546199345"><ele>539.0</ele><time>2026-05-03T14:09:34.001Z</time></trkpt><trkpt lat="42.28649853644385" lon="9.164578008288156"><ele>539.0</ele><time>2026-05-03T14:09:35.001Z</time></trkpt><trkpt lat="42.286678787913395" lon="9.16449915269546"><ele>537.3333333333333</ele><time>2026-05-03T14:09:36.001Z</time></trkpt><trkpt lat="42.28686340466487" lon="9.164427965931761"><ele>535.6666666666666</ele><time>2026-05-03T14:09:37.001Z</time></trkpt><trkpt lat="42.28703847224092" lon="9.164366449718155"><ele>534.0</ele><time>2026-05-03T14:09:38.001Z</time></trkpt><trkpt lat="42.28720843559563" lon="9.164306012702774"><ele>529.3333333333334</ele><time>2026-05-03T14:09:39.001Z</time></trkpt><trkpt lat="42.287373944501574" lon="9.164241008855702"><ele>524.6666666666667</ele><time>2026-05-03T14:09:40.001Z</time></trkpt><trkpt lat="42.287536968878726" lon="9.164176144014496"><ele>520.0</ele><time>2026-05-03T14:09:41.001Z</time></trkpt><trkpt lat="42.287694634242" lon="9.164116132640947"><ele>520.0</ele><time>2026-05-03T14:09:42.001Z</time></trkpt><trkpt lat="42.28784645946586" lon="9.16403846816358"><ele>520.0</ele><time>2026-05-03T14:09:43.001Z</time></trkpt><trkpt lat="42.287990608898504" lon="9.16392705404914"><ele>520.0</ele><time>2026-05-03T14:09:44.001Z</time></trkpt><trkpt lat="42.28811025294957" lon="9.16379394714459"><ele>519.3333333333334</ele><time>2026-05-03T14:09:45.001Z</time></trkpt><trkpt lat="42.28821611239753" lon="9.163630470953668"><ele>518.6666666666666</ele><time>2026-05-03T14:09:46.001Z</time></trkpt><trkpt lat="42.288316478463045" lon="9.163440763242614"><ele>518.0</ele><time>2026-05-03T14:09:47.001Z</time></trkpt><trkpt lat="42.28841001616138" lon="9.163240199514187"><ele>521.0</ele><time>2026-05-03T14:09:48.001Z</time></trkpt><trkpt lat="42.28850187648729" lon="9.163026302354883"><ele>524.0</ele><time>2026-05-03T14:09:49.001Z</time></trkpt><trkpt lat="42.288586519472595" lon="9.162806814781183"><ele>527.0</ele><time>2026-05-03T14:09:50.001Z</time></trkpt><trkpt lat="42.28865528552409" lon="9.162579814423378"><ele>527.6666666666666</ele><time>2026-05-03T14:09:51.001Z</time></trkpt><trkpt lat="42.28870969315324" lon="9.162350293500186"><ele>528.3333333333334</ele><time>2026-05-03T14:09:52.001Z</time></trkpt><trkpt lat="42.28875578194329" lon="9.16213549265043"><ele>529.0</ele><time>2026-05-03T14:09:53.001Z</time></trkpt><trkpt lat="42.28880100823491" lon="9.161929657582958"><ele>529.0</ele><time>2026-05-03T14:09:54.001Z</time></trkpt><trkpt lat="42.28885165538699" lon="9.161725087033751"><ele>529.0</ele><time>2026-05-03T14:09:55.001Z</time></trkpt><trkpt lat="42.288901967127465" lon="9.1614973833161"><ele>529.0</ele><time>2026-05-03T14:09:56.001Z</time></trkpt><trkpt lat="42.288955290046786" lon="9.161262574007655"><ele>524.3333333333334</ele><time>2026-05-03T14:09:57.001Z</time></trkpt><trkpt lat="42.289015009274735" lon="9.161022966466069"><ele>519.6666666666666</ele><time>2026-05-03T14:09:58.001Z</time></trkpt><trkpt lat="42.28907409530546" lon="9.160794420189793"><ele>515.0</ele><time>2026-05-03T14:09:59.001Z</time></trkpt><trkpt lat="42.28913106621283" lon="9.160576663038167"><ele>515.0</ele><time>2026-05-03T14:10:00.001Z</time></trkpt><trkpt lat="42.28918664858597" lon="9.160364390430633"><ele>515.0</ele><time>2026-05-03T14:10:01.001Z</time></trkpt><trkpt lat="42.28924503118978" lon="9.160150948036595"><ele>515.0</ele><time>2026-05-03T14:10:02.001Z</time></trkpt><trkpt lat="42.28930624411199" lon="9.159939143616258"><ele>515.6666666666666</ele><time>2026-05-03T14:10:03.002Z</time></trkpt><trkpt lat="42.28937107432122" lon="9.159715803004762"><ele>516.3333333333334</ele><time>2026-05-03T14:10:04.002Z</time></trkpt><trkpt lat="42.28944177314872" lon="9.159500051502695"><ele>517.0</ele><time>2026-05-03T14:10:05.002Z</time></trkpt><trkpt lat="42.289533375630356" lon="9.15930929609766"><ele>517.0</ele><time>2026-05-03T14:10:06.002Z</time></trkpt><trkpt lat="42.28965846030437" lon="9.159150028805623"><ele>517.0</ele><time>2026-05-03T14:10:07.002Z</time></trkpt><trkpt lat="42.28981039469642" lon="9.159025641066865"><ele>517.0</ele><time>2026-05-03T14:10:08.002Z</time></trkpt><trkpt lat="42.289988776827016" lon="9.158934643992243"><ele>516.0</ele><time>2026-05-03T14:10:09.002Z</time></trkpt><trkpt lat="42.29017934925133" lon="9.158903378973505"><ele>515.0</ele><time>2026-05-03T14:10:10.002Z</time></trkpt><trkpt lat="42.29037126257148" lon="9.158903340330266"><ele>514.0</ele><time>2026-05-03T14:10:11.002Z</time></trkpt><trkpt lat="42.29055321593224" lon="9.158941629486028"><ele>510.33333333333337</ele><time>2026-05-03T14:10:12.002Z</time></trkpt><trkpt lat="42.29071299740655" lon="9.159028172068188"><ele>506.66666666666663</ele><time>2026-05-03T14:10:13.002Z</time></trkpt><trkpt lat="42.29086860041363" lon="9.159124222054785"><ele>503.0</ele><time>2026-05-03T14:10:14.002Z</time></trkpt><trkpt lat="42.2909993522767" lon="9.159289514667663"><ele>498.0</ele><time>2026-05-03T14:10:15.002Z</time></trkpt><trkpt lat="42.29109881070931" lon="9.159503901132158"><ele>493.0</ele><time>2026-05-03T14:10:16.002Z</time></trkpt><trkpt lat="42.291209955332" lon="9.159704333975323"><ele>488.0</ele><time>2026-05-03T14:10:17.002Z</time></trkpt><trkpt lat="42.29130126755516" lon="9.159928735723177"><ele>487.3333333333333</ele><time>2026-05-03T14:10:18.002Z</time></trkpt><trkpt lat="42.29139311272379" lon="9.160147501650908"><ele>486.66666666666663</ele><time>2026-05-03T14:10:19.002Z</time></trkpt><trkpt lat="42.29148170973328" lon="9.160366574186606"><ele>486.0</ele><time>2026-05-03T14:10:20.002Z</time></trkpt><trkpt lat="42.29157391945174" lon="9.160585135422934"><ele>482.66666666666663</ele><time>2026-05-03T14:10:21.002Z</time></trkpt><trkpt lat="42.29166080999775" lon="9.16080192039414"><ele>479.3333333333333</ele><time>2026-05-03T14:10:22.002Z</time></trkpt><trkpt lat="42.291737689222074" lon="9.161025806107943"><ele>476.0</ele><time>2026-05-03T14:10:23.002Z</time></trkpt><trkpt lat="42.29179897027854" lon="9.161258288357548"><ele>476.0</ele><time>2026-05-03T14:10:24.002Z</time></trkpt><trkpt lat="42.29184308312891" lon="9.161488985900924"><ele>476.0</ele><time>2026-05-03T14:10:25.002Z</time></trkpt><trkpt lat="42.29188595042225" lon="9.161714549642657"><ele>476.0</ele><time>2026-05-03T14:10:26.002Z</time></trkpt><trkpt lat="42.29193445474306" lon="9.16193137217228"><ele>472.66666666666663</ele><time>2026-05-03T14:10:27.002Z</time></trkpt><trkpt lat="42.291995877011814" lon="9.162143653886236"><ele>469.33333333333337</ele><time>2026-05-03T14:10:28.002Z</time></trkpt><trkpt lat="42.292075681876895" lon="9.162336166994894"><ele>466.0</ele><time>2026-05-03T14:10:29.002Z</time></trkpt><trkpt lat="42.29217920903379" lon="9.162502086767779"><ele>465.0</ele><time>2026-05-03T14:10:30.002Z</time></trkpt><trkpt lat="42.29230325943114" lon="9.16262831034167"><ele>464.0</ele><time>2026-05-03T14:10:31.002Z</time></trkpt><trkpt lat="42.29244465971909" lon="9.162705658925427"><ele>463.0</ele><time>2026-05-03T14:10:32.002Z</time></trkpt><trkpt lat="42.29259905071742" lon="9.162732610911736"><ele>463.0</ele><time>2026-05-03T14:10:33.002Z</time></trkpt><trkpt lat="42.2927618320304" lon="9.162714106530649"><ele>463.0</ele><time>2026-05-03T14:10:34.002Z</time></trkpt><trkpt lat="42.2929297232876" lon="9.162653749951637"><ele>463.0</ele><time>2026-05-03T14:10:35.003Z</time></trkpt><trkpt lat="42.29309218012897" lon="9.162549174076561"><ele>463.33333333333337</ele><time>2026-05-03T14:10:36.003Z</time></trkpt><trkpt lat="42.29325908018109" lon="9.162425254315005"><ele>463.66666666666663</ele><time>2026-05-03T14:10:37.003Z</time></trkpt><trkpt lat="42.29344746621994" lon="9.162295941877579"><ele>464.0</ele><time>2026-05-03T14:10:38.003Z</time></trkpt><trkpt lat="42.293643524575906" lon="9.162164651297584"><ele>464.0</ele><time>2026-05-03T14:10:39.003Z</time></trkpt><trkpt lat="42.29383365784982" lon="9.162037020452422"><ele>464.0</ele><time>2026-05-03T14:10:40.003Z</time></trkpt><trkpt lat="42.2940131447071" lon="9.161923819479936"><ele>464.0</ele><time>2026-05-03T14:10:41.003Z</time></trkpt><trkpt lat="42.29418684068499" lon="9.161807838627297"><ele>463.66666666666663</ele><time>2026-05-03T14:10:42.003Z</time></trkpt><trkpt lat="42.29435646934116" lon="9.161696265822647"><ele>463.33333333333337</ele><time>2026-05-03T14:10:43.003Z</time></trkpt><trkpt lat="42.29451755147863" lon="9.161569805991038"><ele>463.0</ele><time>2026-05-03T14:10:44.003Z</time></trkpt><trkpt lat="42.29466218827704" lon="9.161419419889777"><ele>455.6666666666667</ele><time>2026-05-03T14:10:45.003Z</time></trkpt><trkpt lat="42.2947878089766" lon="9.161235807231039"><ele>448.33333333333337</ele><time>2026-05-03T14:10:46.003Z</time></trkpt><trkpt lat="42.29488800202778" lon="9.161047854709233"><ele>441.0</ele><time>2026-05-03T14:10:47.003Z</time></trkpt><trkpt lat="42.29497853737385" lon="9.160866664738236"><ele>445.0</ele><time>2026-05-03T14:10:48.003Z</time></trkpt><trkpt lat="42.29507760318862" lon="9.160692873508204"><ele>449.0</ele><time>2026-05-03T14:10:49.003Z</time></trkpt><trkpt lat="42.29519543027392" lon="9.1605518098931"><ele>453.0</ele><time>2026-05-03T14:10:50.003Z</time></trkpt><trkpt lat="42.295332060948915" lon="9.160449912719425"><ele>453.0</ele><time>2026-05-03T14:10:51.003Z</time></trkpt><trkpt lat="42.29548047475426" lon="9.160370804262506"><ele>453.0</ele><time>2026-05-03T14:10:52.003Z</time></trkpt><trkpt lat="42.29565073598231" lon="9.160325080143629"><ele>453.0</ele><time>2026-05-03T14:10:53.003Z</time></trkpt><trkpt lat="42.295856025588854" lon="9.16026885685415"><ele>447.0</ele><time>2026-05-03T14:10:54.003Z</time></trkpt><trkpt lat="42.29608001573838" lon="9.160186863580483"><ele>441.0</ele><time>2026-05-03T14:10:55.003Z</time></trkpt><trkpt lat="42.2963183632866" lon="9.160138586124097"><ele>435.5</ele><time>2026-05-03T14:10:56.003Z</time></trkpt><trkpt lat="42.29655841233417" lon="9.16008295098624"><ele>430.0</ele><time>2026-05-03T14:10:57.003Z</time></trkpt><trkpt lat="42.29679080482569" lon="9.160017208169528"><ele>430.0</ele><time>2026-05-03T14:10:58.003Z</time></trkpt><trkpt lat="42.2970120952323" lon="9.15997047891079"><ele>430.0</ele><time>2026-05-03T14:10:59.003Z</time></trkpt><trkpt lat="42.29723108693687" lon="9.159934712371445"><ele>430.0</ele><time>2026-05-03T14:10:59.998Z</time></trkpt><trkpt lat="42.29745241419949" lon="9.159909879592153"><ele>427.33333333333337</ele><time>2026-05-03T14:11:00.998Z</time></trkpt><trkpt lat="42.297662828485244" lon="9.159905902623967"><ele>424.66666666666663</ele><time>2026-05-03T14:11:01.998Z</time></trkpt><trkpt lat="42.297862800956615" lon="9.15990995863952"><ele>422.0</ele><time>2026-05-03T14:11:02.998Z</time></trkpt><trkpt lat="42.2980525144851" lon="9.159912309512718"><ele>422.3333333333333</ele><time>2026-05-03T14:11:03.998Z</time></trkpt><trkpt lat="42.29822895978789" lon="9.159915674510373"><ele>422.66666666666663</ele><time>2026-05-03T14:11:04.999Z</time></trkpt><trkpt lat="42.298393850617465" lon="9.159920627344743"><ele>423.0</ele><time>2026-05-03T14:11:05.999Z</time></trkpt><trkpt lat="42.29855355494835" lon="9.159913239529986"><ele>423.0</ele><time>2026-05-03T14:11:06.999Z</time></trkpt><trkpt lat="42.29870569108704" lon="9.159891690378075"><ele>423.0</ele><time>2026-05-03T14:11:07.999Z</time></trkpt><trkpt lat="42.298862013553034" lon="9.1598456662987"><ele>423.0</ele><time>2026-05-03T14:11:08.999Z</time></trkpt><trkpt lat="42.2990097024222" lon="9.159764556835576"><ele>422.0</ele><time>2026-05-03T14:11:09.999Z</time></trkpt><trkpt lat="42.299147119667154" lon="9.159627159126371"><ele>421.0</ele><time>2026-05-03T14:11:10.999Z</time></trkpt><trkpt lat="42.29926102462973" lon="9.159446222888164"><ele>420.0</ele><time>2026-05-03T14:11:11.999Z</time></trkpt><trkpt lat="42.29936548434169" lon="9.159234810631935"><ele>421.33333333333337</ele><time>2026-05-03T14:11:12.999Z</time></trkpt><trkpt lat="42.299455309846664" lon="9.159008404061641"><ele>422.6666666666667</ele><time>2026-05-03T14:11:13.999Z</time></trkpt><trkpt lat="42.299530432153375" lon="9.158771756654346"><ele>424.0</ele><time>2026-05-03T14:11:14.999Z</time></trkpt><trkpt lat="42.29961717004369" lon="9.158565304468864"><ele>424.0</ele><time>2026-05-03T14:11:15.999Z</time></trkpt><trkpt lat="42.29972928404813" lon="9.158373288318362"><ele>424.0</ele><time>2026-05-03T14:11:16.999Z</time></trkpt><trkpt lat="42.299859275738754" lon="9.15819258267103"><ele>424.0</ele><time>2026-05-03T14:11:17.999Z</time></trkpt><trkpt lat="42.30000396320819" lon="9.15801704656305"><ele>420.0</ele><time>2026-05-03T14:11:18.999Z</time></trkpt><trkpt lat="42.30015589695462" lon="9.157873482925568"><ele>416.0</ele><time>2026-05-03T14:11:20Z</time></trkpt><trkpt lat="42.300310394297966" lon="9.157758587963569"><ele>412.0</ele><time>2026-05-03T14:11:21Z</time></trkpt><trkpt lat="42.300467087983044" lon="9.15766403652929"><ele>408.0</ele><time>2026-05-03T14:11:22Z</time></trkpt><trkpt lat="42.30062436211234" lon="9.157591669289081"><ele>404.0</ele><time>2026-05-03T14:11:23Z</time></trkpt><trkpt lat="42.30078290563338" lon="9.157560836642334"><ele>400.0</ele><time>2026-05-03T14:11:24Z</time></trkpt><trkpt lat="42.30093520122145" lon="9.157545288503135"><ele>400.0</ele><time>2026-05-03T14:11:25Z</time></trkpt><trkpt lat="42.30107225180376" lon="9.157534698700216"><ele>400.0</ele><time>2026-05-03T14:11:26Z</time></trkpt><trkpt lat="42.30119614966507" lon="9.157532061080165"><ele>400.0</ele><time>2026-05-03T14:11:27Z</time></trkpt><trkpt lat="42.30130924309744" lon="9.157531930011865"><ele>400.0</ele><time>2026-05-03T14:11:28Z</time></trkpt><trkpt lat="42.30142228638973" lon="9.157529559232087"><ele>399.6</ele><time>2026-05-03T14:11:29Z</time></trkpt><trkpt lat="42.3015276789207" lon="9.157536511338076"><ele>399.2</ele><time>2026-05-03T14:11:30Z</time></trkpt><trkpt lat="42.30162819437763" lon="9.157548322551465"><ele>398.79999999999995</ele><time>2026-05-03T14:11:31Z</time></trkpt><trkpt lat="42.30172575927252" lon="9.157551803218562"><ele>398.4</ele><time>2026-05-03T14:11:32Z</time></trkpt><trkpt lat="42.301820121832925" lon="9.157552136275271"><ele>398.0</ele><time>2026-05-03T14:11:33Z</time></trkpt><trkpt lat="42.301906787068795" lon="9.157564316728065"><ele>398.0</ele><time>2026-05-03T14:11:34Z</time></trkpt><trkpt lat="42.30200368465803" lon="9.15757285638519"><ele>398.0</ele><time>2026-05-03T14:11:35Z</time></trkpt><trkpt lat="42.30210200892305" lon="9.15758493049951"><ele>398.0</ele><time>2026-05-03T14:11:36Z</time></trkpt><trkpt lat="42.30219342662469" lon="9.15761101754753"><ele>398.0</ele><time>2026-05-03T14:11:37Z</time></trkpt><trkpt lat="42.302277941332626" lon="9.15765238457936"><ele>398.0</ele><time>2026-05-03T14:11:38Z</time></trkpt><trkpt lat="42.302353162973326" lon="9.157689268833135"><ele>398.0</ele><time>2026-05-03T14:11:39.001Z</time></trkpt><trkpt lat="42.30241862048747" lon="9.157680324744245"><ele>398.0</ele><time>2026-05-03T14:11:40.001Z</time></trkpt><trkpt lat="42.30247549886483" lon="9.157553381396447"><ele>398.0</ele><time>2026-05-03T14:11:42.001Z</time></trkpt><trkpt lat="42.30241565075883" lon="9.157457090820978"><ele>398.0</ele><time>2026-05-03T14:11:44.001Z</time></trkpt><trkpt lat="42.30229198640719" lon="9.157492039389407"><ele>398.0</ele><time>2026-05-03T14:11:46.001Z</time></trkpt><trkpt lat="42.30221327691313" lon="9.157527748376058"><ele>397.99999999999994</ele><time>2026-05-03T14:11:47.001Z</time></trkpt><trkpt lat="42.30212808893166" lon="9.157532262463153"><ele>398.0</ele><time>2026-05-03T14:11:48.001Z</time></trkpt><trkpt lat="42.30205164566713" lon="9.157518362407544"><ele>398.0</ele><time>2026-05-03T14:11:49.001Z</time></trkpt><trkpt lat="42.30196086825474" lon="9.157453291500008"><ele>398.0</ele><time>2026-05-03T14:11:51.001Z</time></trkpt><trkpt lat="42.3018861035805" lon="9.157393798577855"><ele>397.99999999999994</ele><time>2026-05-03T14:11:53.001Z</time></trkpt><trkpt lat="42.301813144660926" lon="9.15740071954456"><ele>398.0</ele><time>2026-05-03T14:12:00.001Z</time></trkpt><trkpt lat="42.30173807127121" lon="9.157457800262131"><ele>398.0</ele><time>2026-05-03T14:12:22.002Z</time></trkpt><trkpt lat="42.301674421974546" lon="9.157411232438818"><ele>398.0</ele><time>2026-05-03T14:12:24.002Z</time></trkpt><trkpt lat="42.30171947445321" lon="9.157338325823964"><ele>401.0</ele><time>2026-05-03T14:12:26.002Z</time></trkpt></trkseg></trk></gpx>